<?xml version="1.0" encoding="UTF-8" standalone="no" ?>
<gpx xmlns="http://www.topografix.com/GPX/1/1" xmlns:xsi="http://www.w3.org/2001/XMLSchema-instance" xsi:schemaLocation="http://www.topografix.com/GPX/1/1 http://www.topografix.com/GPX/1/1/gpx.xsd" version="1.1" creator="VisuGPX - https://www.visugpx.com">
  <metadata>
    <name>Transverdon-vtt</name>
  </metadata>
  <trk>
    <name><![CDATA[2022_08_20_transverdon-vtt]]></name>
    <trkseg>
      <trkpt lat="44.18164" lon="6.62977">
        <ele>1255.4000244141</ele>
        <time>2022-08-19T15:31:06Z</time>
      </trkpt>
      <trkpt lat="44.18157" lon="6.62978">
        <ele>1255.4000244141</ele>
        <time>2022-08-19T15:31:10Z</time>
      </trkpt>
      <trkpt lat="44.18155" lon="6.62984">
        <ele>1255.4000244141</ele>
        <time>2022-08-19T15:31:12Z</time>
      </trkpt>
      <trkpt lat="44.18157" lon="6.62999">
        <ele>1255.8000488281</ele>
        <time>2022-08-19T15:31:17Z</time>
      </trkpt>
      <trkpt lat="44.1816" lon="6.63012">
        <ele>1256.4000244141</ele>
        <time>2022-08-19T15:31:21Z</time>
      </trkpt>
      <trkpt lat="44.18161" lon="6.63031">
        <ele>1257.5999755859</ele>
        <time>2022-08-19T15:31:28Z</time>
      </trkpt>
      <trkpt lat="44.18164" lon="6.63047">
        <ele>1258.5999755859</ele>
        <time>2022-08-19T15:31:36Z</time>
      </trkpt>
      <trkpt lat="44.18167" lon="6.63052">
        <ele>1259</ele>
        <time>2022-08-19T15:31:39Z</time>
      </trkpt>
      <trkpt lat="44.1818" lon="6.63059">
        <ele>1259.5999755859</ele>
        <time>2022-08-19T15:31:46Z</time>
      </trkpt>
      <trkpt lat="44.18182" lon="6.63059">
        <ele>1259.8000488281</ele>
        <time>2022-08-19T15:31:47Z</time>
      </trkpt>
      <trkpt lat="44.18198" lon="6.63061">
        <ele>1260.8000488281</ele>
        <time>2022-08-19T15:31:55Z</time>
      </trkpt>
      <trkpt lat="44.18209" lon="6.63062">
        <ele>1261.4000244141</ele>
        <time>2022-08-19T15:32:00Z</time>
      </trkpt>
      <trkpt lat="44.18215" lon="6.63062">
        <ele>1261.8000488281</ele>
        <time>2022-08-19T15:32:03Z</time>
      </trkpt>
      <trkpt lat="44.1823" lon="6.63064">
        <ele>1262.8000488281</ele>
        <time>2022-08-19T15:32:10Z</time>
      </trkpt>
      <trkpt lat="44.18236" lon="6.63063">
        <ele>1263.1999511719</ele>
        <time>2022-08-19T15:32:13Z</time>
      </trkpt>
      <trkpt lat="44.18244" lon="6.6306">
        <ele>1263.8000488281</ele>
        <time>2022-08-19T15:32:17Z</time>
      </trkpt>
      <trkpt lat="44.18253" lon="6.63056">
        <ele>1264.5999755859</ele>
        <time>2022-08-19T15:32:22Z</time>
      </trkpt>
      <trkpt lat="44.18257" lon="6.63053">
        <ele>1265</ele>
        <time>2022-08-19T15:32:24Z</time>
      </trkpt>
      <trkpt lat="44.18273" lon="6.63044">
        <ele>1266</ele>
        <time>2022-08-19T15:32:32Z</time>
      </trkpt>
      <trkpt lat="44.18275" lon="6.63043">
        <ele>1266.1999511719</ele>
        <time>2022-08-19T15:32:33Z</time>
      </trkpt>
      <trkpt lat="44.18289" lon="6.63035">
        <ele>1267</ele>
        <time>2022-08-19T15:32:40Z</time>
      </trkpt>
      <trkpt lat="44.18298" lon="6.63029">
        <ele>1267.5999755859</ele>
        <time>2022-08-19T15:32:45Z</time>
      </trkpt>
      <trkpt lat="44.18304" lon="6.63025">
        <ele>1268</ele>
        <time>2022-08-19T15:32:48Z</time>
      </trkpt>
      <trkpt lat="44.18316" lon="6.63016">
        <ele>1269.1999511719</ele>
        <time>2022-08-19T15:32:55Z</time>
      </trkpt>
      <trkpt lat="44.18323" lon="6.63012">
        <ele>1270</ele>
        <time>2022-08-19T15:32:59Z</time>
      </trkpt>
      <trkpt lat="44.18327" lon="6.6301">
        <ele>1270.1999511719</ele>
        <time>2022-08-19T15:33:01Z</time>
      </trkpt>
      <trkpt lat="44.18344" lon="6.63004">
        <ele>1271</ele>
        <time>2022-08-19T15:33:10Z</time>
      </trkpt>
      <trkpt lat="44.18349" lon="6.63007">
        <ele>1271.4000244141</ele>
        <time>2022-08-19T15:33:13Z</time>
      </trkpt>
      <trkpt lat="44.18351" lon="6.63013">
        <ele>1271.8000488281</ele>
        <time>2022-08-19T15:33:16Z</time>
      </trkpt>
      <trkpt lat="44.18351" lon="6.6302">
        <ele>1272.4000244141</ele>
        <time>2022-08-19T15:33:19Z</time>
      </trkpt>
      <trkpt lat="44.18349" lon="6.63026">
        <ele>1273.4000244141</ele>
        <time>2022-08-19T15:33:22Z</time>
      </trkpt>
      <trkpt lat="44.18349" lon="6.63028">
        <ele>1273.5999755859</ele>
        <time>2022-08-19T15:33:23Z</time>
      </trkpt>
      <trkpt lat="44.18347" lon="6.63034">
        <ele>1274.1999511719</ele>
        <time>2022-08-19T15:33:26Z</time>
      </trkpt>
      <trkpt lat="44.18346" lon="6.63041">
        <ele>1274.5999755859</ele>
        <time>2022-08-19T15:33:29Z</time>
      </trkpt>
      <trkpt lat="44.18345" lon="6.63054">
        <ele>1275.1999511719</ele>
        <time>2022-08-19T15:33:34Z</time>
      </trkpt>
      <trkpt lat="44.18345" lon="6.63062">
        <ele>1275.4000244141</ele>
        <time>2022-08-19T15:33:37Z</time>
      </trkpt>
      <trkpt lat="44.18345" lon="6.63066">
        <ele>1275.5999755859</ele>
        <time>2022-08-19T15:33:39Z</time>
      </trkpt>
      <trkpt lat="44.18345" lon="6.63078">
        <ele>1276.5999755859</ele>
        <time>2022-08-19T15:33:44Z</time>
      </trkpt>
      <trkpt lat="44.18344" lon="6.63081">
        <ele>1276.8000488281</ele>
        <time>2022-08-19T15:33:45Z</time>
      </trkpt>
      <trkpt lat="44.18339" lon="6.63096">
        <ele>1277.5999755859</ele>
        <time>2022-08-19T15:33:52Z</time>
      </trkpt>
      <trkpt lat="44.18338" lon="6.63098">
        <ele>1277.8000488281</ele>
        <time>2022-08-19T15:33:53Z</time>
      </trkpt>
      <trkpt lat="44.18331" lon="6.63115">
        <ele>1278.8000488281</ele>
        <time>2022-08-19T15:34:01Z</time>
      </trkpt>
      <trkpt lat="44.18328" lon="6.63119">
        <ele>1279.1999511719</ele>
        <time>2022-08-19T15:34:03Z</time>
      </trkpt>
      <trkpt lat="44.18322" lon="6.63126">
        <ele>1279.8000488281</ele>
        <time>2022-08-19T15:34:07Z</time>
      </trkpt>
      <trkpt lat="44.18312" lon="6.63135">
        <ele>1281</ele>
        <time>2022-08-19T15:34:13Z</time>
      </trkpt>
      <trkpt lat="44.18308" lon="6.63138">
        <ele>1281.1999511719</ele>
        <time>2022-08-19T15:34:15Z</time>
      </trkpt>
      <trkpt lat="44.18297" lon="6.63147">
        <ele>1281.8000488281</ele>
        <time>2022-08-19T15:34:21Z</time>
      </trkpt>
      <trkpt lat="44.18295" lon="6.63148">
        <ele>1282</ele>
        <time>2022-08-19T15:34:22Z</time>
      </trkpt>
      <trkpt lat="44.18289" lon="6.6315">
        <ele>1282.4000244141</ele>
        <time>2022-08-19T15:34:25Z</time>
      </trkpt>
      <trkpt lat="44.1828" lon="6.63155">
        <ele>1283</ele>
        <time>2022-08-19T15:34:30Z</time>
      </trkpt>
      <trkpt lat="44.18265" lon="6.63161">
        <ele>1284</ele>
        <time>2022-08-19T15:34:38Z</time>
      </trkpt>
      <trkpt lat="44.18259" lon="6.63165">
        <ele>1284.4000244141</ele>
        <time>2022-08-19T15:34:41Z</time>
      </trkpt>
      <trkpt lat="44.18248" lon="6.63171">
        <ele>1285</ele>
        <time>2022-08-19T15:34:47Z</time>
      </trkpt>
      <trkpt lat="44.18237" lon="6.63176">
        <ele>1286</ele>
        <time>2022-08-19T15:34:53Z</time>
      </trkpt>
      <trkpt lat="44.18235" lon="6.63176">
        <ele>1286.1999511719</ele>
        <time>2022-08-19T15:34:54Z</time>
      </trkpt>
      <trkpt lat="44.18221" lon="6.63179">
        <ele>1287.1999511719</ele>
        <time>2022-08-19T15:35:02Z</time>
      </trkpt>
      <trkpt lat="44.18215" lon="6.6318">
        <ele>1287.8000488281</ele>
        <time>2022-08-19T15:35:05Z</time>
      </trkpt>
      <trkpt lat="44.18211" lon="6.6318">
        <ele>1288.1999511719</ele>
        <time>2022-08-19T15:35:07Z</time>
      </trkpt>
      <trkpt lat="44.18202" lon="6.6318">
        <ele>1289.4000244141</ele>
        <time>2022-08-19T15:35:12Z</time>
      </trkpt>
      <trkpt lat="44.18195" lon="6.6318">
        <ele>1289.8000488281</ele>
        <time>2022-08-19T15:35:16Z</time>
      </trkpt>
      <trkpt lat="44.18188" lon="6.63181">
        <ele>1290.4000244141</ele>
        <time>2022-08-19T15:35:20Z</time>
      </trkpt>
      <trkpt lat="44.18177" lon="6.63182">
        <ele>1291.4000244141</ele>
        <time>2022-08-19T15:35:26Z</time>
      </trkpt>
      <trkpt lat="44.18175" lon="6.63183">
        <ele>1291.5999755859</ele>
        <time>2022-08-19T15:35:27Z</time>
      </trkpt>
      <trkpt lat="44.18164" lon="6.63182">
        <ele>1292.5999755859</ele>
        <time>2022-08-19T15:35:34Z</time>
      </trkpt>
      <trkpt lat="44.18162" lon="6.63182">
        <ele>1292.8000488281</ele>
        <time>2022-08-19T15:35:35Z</time>
      </trkpt>
      <trkpt lat="44.18155" lon="6.63181">
        <ele>1293.8000488281</ele>
        <time>2022-08-19T15:35:39Z</time>
      </trkpt>
      <trkpt lat="44.18144" lon="6.63181">
        <ele>1294.8000488281</ele>
        <time>2022-08-19T15:35:45Z</time>
      </trkpt>
      <trkpt lat="44.18141" lon="6.63182">
        <ele>1295</ele>
        <time>2022-08-19T15:35:47Z</time>
      </trkpt>
      <trkpt lat="44.18135" lon="6.63183">
        <ele>1295.8000488281</ele>
        <time>2022-08-19T15:35:51Z</time>
      </trkpt>
      <trkpt lat="44.18129" lon="6.63186">
        <ele>1296.1999511719</ele>
        <time>2022-08-19T15:35:54Z</time>
      </trkpt>
      <trkpt lat="44.18122" lon="6.63185">
        <ele>1296.8000488281</ele>
        <time>2022-08-19T15:35:57Z</time>
      </trkpt>
      <trkpt lat="44.18115" lon="6.63183">
        <ele>1297.4000244141</ele>
        <time>2022-08-19T15:36:01Z</time>
      </trkpt>
      <trkpt lat="44.18109" lon="6.63184">
        <ele>1297.8000488281</ele>
        <time>2022-08-19T15:36:04Z</time>
      </trkpt>
      <trkpt lat="44.18097" lon="6.63189">
        <ele>1299</ele>
        <time>2022-08-19T15:36:11Z</time>
      </trkpt>
      <trkpt lat="44.18087" lon="6.63196">
        <ele>1300</ele>
        <time>2022-08-19T15:36:17Z</time>
      </trkpt>
      <trkpt lat="44.18079" lon="6.63205">
        <ele>1301</ele>
        <time>2022-08-19T15:36:23Z</time>
      </trkpt>
      <trkpt lat="44.18077" lon="6.63207">
        <ele>1301</ele>
        <time>2022-08-19T15:36:24Z</time>
      </trkpt>
      <trkpt lat="44.18067" lon="6.63216">
        <ele>1302</ele>
        <time>2022-08-19T15:36:31Z</time>
      </trkpt>
      <trkpt lat="44.18061" lon="6.63221">
        <ele>1302.5999755859</ele>
        <time>2022-08-19T15:36:35Z</time>
      </trkpt>
      <trkpt lat="44.18055" lon="6.63224">
        <ele>1303.1999511719</ele>
        <time>2022-08-19T15:36:39Z</time>
      </trkpt>
      <trkpt lat="44.18046" lon="6.6323">
        <ele>1304.4000244141</ele>
        <time>2022-08-19T15:36:45Z</time>
      </trkpt>
      <trkpt lat="44.18044" lon="6.63232">
        <ele>1304.5999755859</ele>
        <time>2022-08-19T15:36:47Z</time>
      </trkpt>
      <trkpt lat="44.18036" lon="6.63237">
        <ele>1305.4000244141</ele>
        <time>2022-08-19T15:36:52Z</time>
      </trkpt>
      <trkpt lat="44.18021" lon="6.63242">
        <ele>1306.4000244141</ele>
        <time>2022-08-19T15:37:00Z</time>
      </trkpt>
      <trkpt lat="44.1802" lon="6.63243">
        <ele>1306.5999755859</ele>
        <time>2022-08-19T15:37:01Z</time>
      </trkpt>
      <trkpt lat="44.18009" lon="6.63244">
        <ele>1307.5999755859</ele>
        <time>2022-08-19T15:37:07Z</time>
      </trkpt>
      <trkpt lat="44.18004" lon="6.63243">
        <ele>1308.1999511719</ele>
        <time>2022-08-19T15:37:10Z</time>
      </trkpt>
      <trkpt lat="44.17998" lon="6.63243">
        <ele>1308.5999755859</ele>
        <time>2022-08-19T15:37:13Z</time>
      </trkpt>
      <trkpt lat="44.17988" lon="6.63241">
        <ele>1309.8000488281</ele>
        <time>2022-08-19T15:37:19Z</time>
      </trkpt>
      <trkpt lat="44.17984" lon="6.63244">
        <ele>1310.1999511719</ele>
        <time>2022-08-19T15:37:22Z</time>
      </trkpt>
      <trkpt lat="44.17987" lon="6.6325">
        <ele>1310.5999755859</ele>
        <time>2022-08-19T15:37:26Z</time>
      </trkpt>
      <trkpt lat="44.17988" lon="6.63251">
        <ele>1310.5999755859</ele>
        <time>2022-08-19T15:37:27Z</time>
      </trkpt>
      <trkpt lat="44.17992" lon="6.63252">
        <ele>1310.8000488281</ele>
        <time>2022-08-19T15:37:29Z</time>
      </trkpt>
      <trkpt lat="44.18006" lon="6.63256">
        <ele>1311.8000488281</ele>
        <time>2022-08-19T15:37:36Z</time>
      </trkpt>
      <trkpt lat="44.1801" lon="6.63257">
        <ele>1312.1999511719</ele>
        <time>2022-08-19T15:37:38Z</time>
      </trkpt>
      <trkpt lat="44.18021" lon="6.63261">
        <ele>1313</ele>
        <time>2022-08-19T15:37:44Z</time>
      </trkpt>
      <trkpt lat="44.18035" lon="6.63265">
        <ele>1314</ele>
        <time>2022-08-19T15:37:52Z</time>
      </trkpt>
      <trkpt lat="44.18051" lon="6.63265">
        <ele>1315.1999511719</ele>
        <time>2022-08-19T15:38:01Z</time>
      </trkpt>
      <trkpt lat="44.18053" lon="6.63263">
        <ele>1315.1999511719</ele>
        <time>2022-08-19T15:38:02Z</time>
      </trkpt>
      <trkpt lat="44.18077" lon="6.63252">
        <ele>1316</ele>
        <time>2022-08-19T15:38:12Z</time>
      </trkpt>
      <trkpt lat="44.18083" lon="6.63252">
        <ele>1316.1999511719</ele>
        <time>2022-08-19T15:38:14Z</time>
      </trkpt>
      <trkpt lat="44.181" lon="6.63247">
        <ele>1316.8000488281</ele>
        <time>2022-08-19T15:38:20Z</time>
      </trkpt>
      <trkpt lat="44.18105" lon="6.63244">
        <ele>1317.1999511719</ele>
        <time>2022-08-19T15:38:22Z</time>
      </trkpt>
      <trkpt lat="44.18118" lon="6.6324">
        <ele>1318.4000244141</ele>
        <time>2022-08-19T15:38:27Z</time>
      </trkpt>
      <trkpt lat="44.18125" lon="6.63241">
        <ele>1319.1999511719</ele>
        <time>2022-08-19T15:38:30Z</time>
      </trkpt>
      <trkpt lat="44.1813" lon="6.63242">
        <ele>1319.5999755859</ele>
        <time>2022-08-19T15:38:32Z</time>
      </trkpt>
      <trkpt lat="44.18144" lon="6.63247">
        <ele>1320.5999755859</ele>
        <time>2022-08-19T15:38:39Z</time>
      </trkpt>
      <trkpt lat="44.18148" lon="6.63247">
        <ele>1321</ele>
        <time>2022-08-19T15:38:41Z</time>
      </trkpt>
      <trkpt lat="44.1816" lon="6.63251">
        <ele>1321.5999755859</ele>
        <time>2022-08-19T15:38:47Z</time>
      </trkpt>
      <trkpt lat="44.1816" lon="6.63254">
        <ele>1321.8000488281</ele>
        <time>2022-08-19T15:38:48Z</time>
      </trkpt>
      <trkpt lat="44.18156" lon="6.63254">
        <ele>1322.5999755859</ele>
        <time>2022-08-19T15:38:52Z</time>
      </trkpt>
      <trkpt lat="44.1815" lon="6.63252">
        <ele>1322.8000488281</ele>
        <time>2022-08-19T15:38:54Z</time>
      </trkpt>
      <trkpt lat="44.18136" lon="6.63253">
        <ele>1323.5999755859</ele>
        <time>2022-08-19T15:39:00Z</time>
      </trkpt>
      <trkpt lat="44.18131" lon="6.63253">
        <ele>1324</ele>
        <time>2022-08-19T15:39:02Z</time>
      </trkpt>
      <trkpt lat="44.18117" lon="6.63255">
        <ele>1325.1999511719</ele>
        <time>2022-08-19T15:39:09Z</time>
      </trkpt>
      <trkpt lat="44.18114" lon="6.63258">
        <ele>1325.5999755859</ele>
        <time>2022-08-19T15:39:11Z</time>
      </trkpt>
      <trkpt lat="44.18113" lon="6.63262">
        <ele>1325.8000488281</ele>
        <time>2022-08-19T15:39:13Z</time>
      </trkpt>
      <trkpt lat="44.18115" lon="6.63266">
        <ele>1326</ele>
        <time>2022-08-19T15:39:15Z</time>
      </trkpt>
      <trkpt lat="44.18122" lon="6.63267">
        <ele>1326.1999511719</ele>
        <time>2022-08-19T15:39:18Z</time>
      </trkpt>
      <trkpt lat="44.18126" lon="6.63267">
        <ele>1326.5999755859</ele>
        <time>2022-08-19T15:39:20Z</time>
      </trkpt>
      <trkpt lat="44.18136" lon="6.63268">
        <ele>1327.1999511719</ele>
        <time>2022-08-19T15:39:25Z</time>
      </trkpt>
      <trkpt lat="44.18145" lon="6.63271">
        <ele>1327.8000488281</ele>
        <time>2022-08-19T15:39:29Z</time>
      </trkpt>
      <trkpt lat="44.18149" lon="6.63272">
        <ele>1328.4000244141</ele>
        <time>2022-08-19T15:39:31Z</time>
      </trkpt>
      <trkpt lat="44.18161" lon="6.63275">
        <ele>1329.4000244141</ele>
        <time>2022-08-19T15:39:37Z</time>
      </trkpt>
      <trkpt lat="44.18168" lon="6.63277">
        <ele>1330.1999511719</ele>
        <time>2022-08-19T15:39:41Z</time>
      </trkpt>
      <trkpt lat="44.18172" lon="6.63277">
        <ele>1330.5999755859</ele>
        <time>2022-08-19T15:39:43Z</time>
      </trkpt>
      <trkpt lat="44.18183" lon="6.63276">
        <ele>1331.5999755859</ele>
        <time>2022-08-19T15:39:49Z</time>
      </trkpt>
      <trkpt lat="44.1819" lon="6.63276">
        <ele>1332.4000244141</ele>
        <time>2022-08-19T15:39:53Z</time>
      </trkpt>
      <trkpt lat="44.18193" lon="6.63277">
        <ele>1332.5999755859</ele>
        <time>2022-08-19T15:39:55Z</time>
      </trkpt>
      <trkpt lat="44.18203" lon="6.6328">
        <ele>1333.8000488281</ele>
        <time>2022-08-19T15:40:01Z</time>
      </trkpt>
      <trkpt lat="44.18208" lon="6.63282">
        <ele>1334.1999511719</ele>
        <time>2022-08-19T15:40:04Z</time>
      </trkpt>
      <trkpt lat="44.18214" lon="6.63283">
        <ele>1334.8000488281</ele>
        <time>2022-08-19T15:40:07Z</time>
      </trkpt>
      <trkpt lat="44.18225" lon="6.63287">
        <ele>1335.8000488281</ele>
        <time>2022-08-19T15:40:14Z</time>
      </trkpt>
      <trkpt lat="44.18232" lon="6.63289">
        <ele>1336.5999755859</ele>
        <time>2022-08-19T15:40:18Z</time>
      </trkpt>
      <trkpt lat="44.18237" lon="6.63292">
        <ele>1337</ele>
        <time>2022-08-19T15:40:21Z</time>
      </trkpt>
      <trkpt lat="44.18251" lon="6.63295">
        <ele>1338</ele>
        <time>2022-08-19T15:40:29Z</time>
      </trkpt>
      <trkpt lat="44.18258" lon="6.63299">
        <ele>1338.5999755859</ele>
        <time>2022-08-19T15:40:33Z</time>
      </trkpt>
      <trkpt lat="44.18265" lon="6.63303">
        <ele>1339.1999511719</ele>
        <time>2022-08-19T15:40:37Z</time>
      </trkpt>
      <trkpt lat="44.18281" lon="6.63307">
        <ele>1340.1999511719</ele>
        <time>2022-08-19T15:40:46Z</time>
      </trkpt>
      <trkpt lat="44.18282" lon="6.63306">
        <ele>1340.5999755859</ele>
        <time>2022-08-19T15:40:47Z</time>
      </trkpt>
      <trkpt lat="44.18289" lon="6.63303">
        <ele>1341.4000244141</ele>
        <time>2022-08-19T15:40:51Z</time>
      </trkpt>
      <trkpt lat="44.18295" lon="6.63301">
        <ele>1342.1999511719</ele>
        <time>2022-08-19T15:40:55Z</time>
      </trkpt>
      <trkpt lat="44.18297" lon="6.63301">
        <ele>1342.4000244141</ele>
        <time>2022-08-19T15:40:56Z</time>
      </trkpt>
      <trkpt lat="44.18312" lon="6.63302">
        <ele>1343.4000244141</ele>
        <time>2022-08-19T15:41:04Z</time>
      </trkpt>
      <trkpt lat="44.18318" lon="6.63303">
        <ele>1344</ele>
        <time>2022-08-19T15:41:08Z</time>
      </trkpt>
      <trkpt lat="44.18325" lon="6.63305">
        <ele>1344.5999755859</ele>
        <time>2022-08-19T15:41:12Z</time>
      </trkpt>
      <trkpt lat="44.18341" lon="6.63307">
        <ele>1345.4000244141</ele>
        <time>2022-08-19T15:41:20Z</time>
      </trkpt>
      <trkpt lat="44.18342" lon="6.63307">
        <ele>1345.5999755859</ele>
        <time>2022-08-19T15:41:21Z</time>
      </trkpt>
      <trkpt lat="44.18357" lon="6.6331">
        <ele>1346.5999755859</ele>
        <time>2022-08-19T15:41:29Z</time>
      </trkpt>
      <trkpt lat="44.18365" lon="6.63314">
        <ele>1347.4000244141</ele>
        <time>2022-08-19T15:41:34Z</time>
      </trkpt>
      <trkpt lat="44.18368" lon="6.63316">
        <ele>1347.5999755859</ele>
        <time>2022-08-19T15:41:36Z</time>
      </trkpt>
      <trkpt lat="44.18378" lon="6.63324">
        <ele>1348.5999755859</ele>
        <time>2022-08-19T15:41:43Z</time>
      </trkpt>
      <trkpt lat="44.18383" lon="6.63327">
        <ele>1349</ele>
        <time>2022-08-19T15:41:46Z</time>
      </trkpt>
      <trkpt lat="44.1839" lon="6.63334">
        <ele>1349.5999755859</ele>
        <time>2022-08-19T15:41:51Z</time>
      </trkpt>
      <trkpt lat="44.184" lon="6.63343">
        <ele>1350</ele>
        <time>2022-08-19T15:41:57Z</time>
      </trkpt>
      <trkpt lat="44.18417" lon="6.63353">
        <ele>1350.8000488281</ele>
        <time>2022-08-19T15:42:06Z</time>
      </trkpt>
      <trkpt lat="44.18421" lon="6.63354">
        <ele>1351</ele>
        <time>2022-08-19T15:42:08Z</time>
      </trkpt>
      <trkpt lat="44.18434" lon="6.63354">
        <ele>1351.8000488281</ele>
        <time>2022-08-19T15:42:14Z</time>
      </trkpt>
      <trkpt lat="44.18449" lon="6.63352">
        <ele>1352.8000488281</ele>
        <time>2022-08-19T15:42:21Z</time>
      </trkpt>
      <trkpt lat="44.18451" lon="6.63351">
        <ele>1352.8000488281</ele>
        <time>2022-08-19T15:42:22Z</time>
      </trkpt>
      <trkpt lat="44.18467" lon="6.63349">
        <ele>1353.8000488281</ele>
        <time>2022-08-19T15:42:30Z</time>
      </trkpt>
      <trkpt lat="44.18469" lon="6.63349">
        <ele>1353.8000488281</ele>
        <time>2022-08-19T15:42:31Z</time>
      </trkpt>
      <trkpt lat="44.18478" lon="6.63349">
        <ele>1354.4000244141</ele>
        <time>2022-08-19T15:42:35Z</time>
      </trkpt>
      <trkpt lat="44.18488" lon="6.63348">
        <ele>1355</ele>
        <time>2022-08-19T15:42:40Z</time>
      </trkpt>
      <trkpt lat="44.18502" lon="6.6335">
        <ele>1356</ele>
        <time>2022-08-19T15:42:47Z</time>
      </trkpt>
      <trkpt lat="44.18507" lon="6.63351">
        <ele>1356.4000244141</ele>
        <time>2022-08-19T15:42:49Z</time>
      </trkpt>
      <trkpt lat="44.18517" lon="6.63355">
        <ele>1357.1999511719</ele>
        <time>2022-08-19T15:42:54Z</time>
      </trkpt>
      <trkpt lat="44.18528" lon="6.63359">
        <ele>1358.1999511719</ele>
        <time>2022-08-19T15:43:00Z</time>
      </trkpt>
      <trkpt lat="44.18537" lon="6.63364">
        <ele>1359</ele>
        <time>2022-08-19T15:43:05Z</time>
      </trkpt>
      <trkpt lat="44.18539" lon="6.63364">
        <ele>1359.1999511719</ele>
        <time>2022-08-19T15:43:06Z</time>
      </trkpt>
      <trkpt lat="44.18549" lon="6.6337">
        <ele>1360.4000244141</ele>
        <time>2022-08-19T15:43:12Z</time>
      </trkpt>
      <trkpt lat="44.18558" lon="6.63375">
        <ele>1361.4000244141</ele>
        <time>2022-08-19T15:43:18Z</time>
      </trkpt>
      <trkpt lat="44.1856" lon="6.63376">
        <ele>1361.5999755859</ele>
        <time>2022-08-19T15:43:19Z</time>
      </trkpt>
      <trkpt lat="44.18565" lon="6.63379">
        <ele>1362</ele>
        <time>2022-08-19T15:43:22Z</time>
      </trkpt>
      <trkpt lat="44.18568" lon="6.63381">
        <ele>1362.1999511719</ele>
        <time>2022-08-19T15:43:24Z</time>
      </trkpt>
      <trkpt lat="44.18571" lon="6.63383">
        <ele>1362.5999755859</ele>
        <time>2022-08-19T15:43:26Z</time>
      </trkpt>
      <trkpt lat="44.18582" lon="6.63387">
        <ele>1363.8000488281</ele>
        <time>2022-08-19T15:43:33Z</time>
      </trkpt>
      <trkpt lat="44.18586" lon="6.63392">
        <ele>1364.4000244141</ele>
        <time>2022-08-19T15:43:37Z</time>
      </trkpt>
      <trkpt lat="44.18585" lon="6.63394">
        <ele>1365</ele>
        <time>2022-08-19T15:43:39Z</time>
      </trkpt>
      <trkpt lat="44.18576" lon="6.63392">
        <ele>1365.5999755859</ele>
        <time>2022-08-19T15:43:44Z</time>
      </trkpt>
      <trkpt lat="44.18571" lon="6.63391">
        <ele>1366</ele>
        <time>2022-08-19T15:43:47Z</time>
      </trkpt>
      <trkpt lat="44.18564" lon="6.63389">
        <ele>1366.5999755859</ele>
        <time>2022-08-19T15:43:51Z</time>
      </trkpt>
      <trkpt lat="44.18557" lon="6.63387">
        <ele>1367</ele>
        <time>2022-08-19T15:43:55Z</time>
      </trkpt>
      <trkpt lat="44.18546" lon="6.63385">
        <ele>1368.1999511719</ele>
        <time>2022-08-19T15:44:02Z</time>
      </trkpt>
      <trkpt lat="44.18537" lon="6.63384">
        <ele>1368.8000488281</ele>
        <time>2022-08-19T15:44:07Z</time>
      </trkpt>
      <trkpt lat="44.18534" lon="6.63384">
        <ele>1369.1999511719</ele>
        <time>2022-08-19T15:44:09Z</time>
      </trkpt>
      <trkpt lat="44.18515" lon="6.63385">
        <ele>1370.1999511719</ele>
        <time>2022-08-19T15:44:19Z</time>
      </trkpt>
      <trkpt lat="44.18514" lon="6.63385">
        <ele>1370.4000244141</ele>
        <time>2022-08-19T15:44:20Z</time>
      </trkpt>
      <trkpt lat="44.18505" lon="6.63386">
        <ele>1371.1999511719</ele>
        <time>2022-08-19T15:44:25Z</time>
      </trkpt>
      <trkpt lat="44.18494" lon="6.6339">
        <ele>1372.4000244141</ele>
        <time>2022-08-19T15:44:32Z</time>
      </trkpt>
      <trkpt lat="44.18483" lon="6.63396">
        <ele>1373.5999755859</ele>
        <time>2022-08-19T15:44:39Z</time>
      </trkpt>
      <trkpt lat="44.18474" lon="6.63403">
        <ele>1374.1999511719</ele>
        <time>2022-08-19T15:44:45Z</time>
      </trkpt>
      <trkpt lat="44.1847" lon="6.63406">
        <ele>1374.5999755859</ele>
        <time>2022-08-19T15:44:48Z</time>
      </trkpt>
      <trkpt lat="44.18459" lon="6.63409">
        <ele>1375.4000244141</ele>
        <time>2022-08-19T15:44:54Z</time>
      </trkpt>
      <trkpt lat="44.18458" lon="6.6341">
        <ele>1375.5999755859</ele>
        <time>2022-08-19T15:44:55Z</time>
      </trkpt>
      <trkpt lat="44.18445" lon="6.63419">
        <ele>1376.8000488281</ele>
        <time>2022-08-19T15:45:03Z</time>
      </trkpt>
      <trkpt lat="44.1844" lon="6.63422">
        <ele>1377.1999511719</ele>
        <time>2022-08-19T15:45:06Z</time>
      </trkpt>
      <trkpt lat="44.18431" lon="6.63428">
        <ele>1377.8000488281</ele>
        <time>2022-08-19T15:45:12Z</time>
      </trkpt>
      <trkpt lat="44.18421" lon="6.63435">
        <ele>1378.4000244141</ele>
        <time>2022-08-19T15:45:18Z</time>
      </trkpt>
      <trkpt lat="44.18416" lon="6.63438">
        <ele>1378.8000488281</ele>
        <time>2022-08-19T15:45:21Z</time>
      </trkpt>
      <trkpt lat="44.18404" lon="6.63443">
        <ele>1379.8000488281</ele>
        <time>2022-08-19T15:45:29Z</time>
      </trkpt>
      <trkpt lat="44.18399" lon="6.63445">
        <ele>1380.1999511719</ele>
        <time>2022-08-19T15:45:32Z</time>
      </trkpt>
      <trkpt lat="44.18392" lon="6.63448">
        <ele>1380.8000488281</ele>
        <time>2022-08-19T15:45:36Z</time>
      </trkpt>
      <trkpt lat="44.18391" lon="6.63448">
        <ele>1381</ele>
        <time>2022-08-19T15:45:37Z</time>
      </trkpt>
      <trkpt lat="44.18383" lon="6.6345">
        <ele>1381.5999755859</ele>
        <time>2022-08-19T15:45:42Z</time>
      </trkpt>
      <trkpt lat="44.1838" lon="6.63449">
        <ele>1382</ele>
        <time>2022-08-19T15:45:44Z</time>
      </trkpt>
      <trkpt lat="44.18378" lon="6.63449">
        <ele>1382.1999511719</ele>
        <time>2022-08-19T15:45:45Z</time>
      </trkpt>
      <trkpt lat="44.18367" lon="6.63449">
        <ele>1383</ele>
        <time>2022-08-19T15:45:51Z</time>
      </trkpt>
      <trkpt lat="44.18356" lon="6.63449">
        <ele>1384.1999511719</ele>
        <time>2022-08-19T15:45:57Z</time>
      </trkpt>
      <trkpt lat="44.18352" lon="6.63447">
        <ele>1384.5999755859</ele>
        <time>2022-08-19T15:46:00Z</time>
      </trkpt>
      <trkpt lat="44.18343" lon="6.63444">
        <ele>1385.4000244141</ele>
        <time>2022-08-19T15:46:05Z</time>
      </trkpt>
      <trkpt lat="44.18336" lon="6.63442">
        <ele>1386.1999511719</ele>
        <time>2022-08-19T15:46:09Z</time>
      </trkpt>
      <trkpt lat="44.18331" lon="6.63441">
        <ele>1386.5999755859</ele>
        <time>2022-08-19T15:46:12Z</time>
      </trkpt>
      <trkpt lat="44.18328" lon="6.6344">
        <ele>1387</ele>
        <time>2022-08-19T15:46:14Z</time>
      </trkpt>
      <trkpt lat="44.18324" lon="6.63439">
        <ele>1387.1999511719</ele>
        <time>2022-08-19T15:46:16Z</time>
      </trkpt>
      <trkpt lat="44.18321" lon="6.63438">
        <ele>1387.5999755859</ele>
        <time>2022-08-19T15:46:18Z</time>
      </trkpt>
      <trkpt lat="44.18314" lon="6.63436">
        <ele>1388.4000244141</ele>
        <time>2022-08-19T15:46:22Z</time>
      </trkpt>
      <trkpt lat="44.1831" lon="6.63435">
        <ele>1388.8000488281</ele>
        <time>2022-08-19T15:46:25Z</time>
      </trkpt>
      <trkpt lat="44.18296" lon="6.6343">
        <ele>1389.8000488281</ele>
        <time>2022-08-19T15:46:33Z</time>
      </trkpt>
      <trkpt lat="44.1829" lon="6.63428">
        <ele>1390.4000244141</ele>
        <time>2022-08-19T15:46:37Z</time>
      </trkpt>
      <trkpt lat="44.18285" lon="6.63427">
        <ele>1391</ele>
        <time>2022-08-19T15:46:40Z</time>
      </trkpt>
      <trkpt lat="44.18276" lon="6.63423">
        <ele>1392</ele>
        <time>2022-08-19T15:46:46Z</time>
      </trkpt>
      <trkpt lat="44.18274" lon="6.63422">
        <ele>1392.1999511719</ele>
        <time>2022-08-19T15:46:47Z</time>
      </trkpt>
      <trkpt lat="44.1826" lon="6.63416">
        <ele>1393.1999511719</ele>
        <time>2022-08-19T15:46:55Z</time>
      </trkpt>
      <trkpt lat="44.18248" lon="6.63415">
        <ele>1394.1999511719</ele>
        <time>2022-08-19T15:47:01Z</time>
      </trkpt>
      <trkpt lat="44.18237" lon="6.63413">
        <ele>1395.4000244141</ele>
        <time>2022-08-19T15:47:07Z</time>
      </trkpt>
      <trkpt lat="44.18226" lon="6.63411">
        <ele>1396.1999511719</ele>
        <time>2022-08-19T15:47:13Z</time>
      </trkpt>
      <trkpt lat="44.18224" lon="6.63411">
        <ele>1396.4000244141</ele>
        <time>2022-08-19T15:47:14Z</time>
      </trkpt>
      <trkpt lat="44.18212" lon="6.6341">
        <ele>1397.4000244141</ele>
        <time>2022-08-19T15:47:21Z</time>
      </trkpt>
      <trkpt lat="44.18205" lon="6.63411">
        <ele>1398.1999511719</ele>
        <time>2022-08-19T15:47:25Z</time>
      </trkpt>
      <trkpt lat="44.18199" lon="6.63412">
        <ele>1398.5999755859</ele>
        <time>2022-08-19T15:47:28Z</time>
      </trkpt>
      <trkpt lat="44.18186" lon="6.63417">
        <ele>1399.8000488281</ele>
        <time>2022-08-19T15:47:36Z</time>
      </trkpt>
      <trkpt lat="44.18184" lon="6.63418">
        <ele>1400</ele>
        <time>2022-08-19T15:47:37Z</time>
      </trkpt>
      <trkpt lat="44.18179" lon="6.6342">
        <ele>1400.4000244141</ele>
        <time>2022-08-19T15:47:40Z</time>
      </trkpt>
      <trkpt lat="44.18175" lon="6.63422">
        <ele>1400.8000488281</ele>
        <time>2022-08-19T15:47:42Z</time>
      </trkpt>
      <trkpt lat="44.18165" lon="6.63429">
        <ele>1401.8000488281</ele>
        <time>2022-08-19T15:47:48Z</time>
      </trkpt>
      <trkpt lat="44.18164" lon="6.63431">
        <ele>1402</ele>
        <time>2022-08-19T15:47:49Z</time>
      </trkpt>
      <trkpt lat="44.18158" lon="6.63437">
        <ele>1403</ele>
        <time>2022-08-19T15:47:53Z</time>
      </trkpt>
      <trkpt lat="44.1815" lon="6.63443">
        <ele>1404</ele>
        <time>2022-08-19T15:47:58Z</time>
      </trkpt>
      <trkpt lat="44.18145" lon="6.63444">
        <ele>1404.5999755859</ele>
        <time>2022-08-19T15:48:01Z</time>
      </trkpt>
      <trkpt lat="44.1814" lon="6.63447">
        <ele>1405</ele>
        <time>2022-08-19T15:48:04Z</time>
      </trkpt>
      <trkpt lat="44.1814" lon="6.63452">
        <ele>1405.4000244141</ele>
        <time>2022-08-19T15:48:07Z</time>
      </trkpt>
      <trkpt lat="44.18142" lon="6.63455">
        <ele>1405.5999755859</ele>
        <time>2022-08-19T15:48:09Z</time>
      </trkpt>
      <trkpt lat="44.18147" lon="6.63456">
        <ele>1406</ele>
        <time>2022-08-19T15:48:12Z</time>
      </trkpt>
      <trkpt lat="44.18149" lon="6.63456">
        <ele>1406.1999511719</ele>
        <time>2022-08-19T15:48:13Z</time>
      </trkpt>
      <trkpt lat="44.1816" lon="6.63448">
        <ele>1407.1999511719</ele>
        <time>2022-08-19T15:48:20Z</time>
      </trkpt>
      <trkpt lat="44.18174" lon="6.63447">
        <ele>1408.4000244141</ele>
        <time>2022-08-19T15:48:28Z</time>
      </trkpt>
      <trkpt lat="44.18177" lon="6.63448">
        <ele>1408.5999755859</ele>
        <time>2022-08-19T15:48:30Z</time>
      </trkpt>
      <trkpt lat="44.18184" lon="6.63452">
        <ele>1409.5999755859</ele>
        <time>2022-08-19T15:48:36Z</time>
      </trkpt>
      <trkpt lat="44.18193" lon="6.63457">
        <ele>1410.5999755859</ele>
        <time>2022-08-19T15:48:42Z</time>
      </trkpt>
      <trkpt lat="44.18205" lon="6.63468">
        <ele>1411.5999755859</ele>
        <time>2022-08-19T15:48:51Z</time>
      </trkpt>
      <trkpt lat="44.18209" lon="6.63473">
        <ele>1412.4000244141</ele>
        <time>2022-08-19T15:48:55Z</time>
      </trkpt>
      <trkpt lat="44.18212" lon="6.63476">
        <ele>1412.8000488281</ele>
        <time>2022-08-19T15:48:57Z</time>
      </trkpt>
      <trkpt lat="44.18218" lon="6.63482">
        <ele>1413.8000488281</ele>
        <time>2022-08-19T15:49:02Z</time>
      </trkpt>
      <trkpt lat="44.18225" lon="6.63486">
        <ele>1414.4000244141</ele>
        <time>2022-08-19T15:49:07Z</time>
      </trkpt>
      <trkpt lat="44.1823" lon="6.63489">
        <ele>1415</ele>
        <time>2022-08-19T15:49:11Z</time>
      </trkpt>
      <trkpt lat="44.18241" lon="6.63491">
        <ele>1416</ele>
        <time>2022-08-19T15:49:19Z</time>
      </trkpt>
      <trkpt lat="44.18246" lon="6.6349">
        <ele>1416.4000244141</ele>
        <time>2022-08-19T15:49:22Z</time>
      </trkpt>
      <trkpt lat="44.18254" lon="6.63489">
        <ele>1417.1999511719</ele>
        <time>2022-08-19T15:49:27Z</time>
      </trkpt>
      <trkpt lat="44.18266" lon="6.6349">
        <ele>1418.4000244141</ele>
        <time>2022-08-19T15:49:35Z</time>
      </trkpt>
      <trkpt lat="44.18269" lon="6.63491">
        <ele>1418.5999755859</ele>
        <time>2022-08-19T15:49:37Z</time>
      </trkpt>
      <trkpt lat="44.18277" lon="6.63495">
        <ele>1419.4000244141</ele>
        <time>2022-08-19T15:49:42Z</time>
      </trkpt>
      <trkpt lat="44.18288" lon="6.635">
        <ele>1420.4000244141</ele>
        <time>2022-08-19T15:49:49Z</time>
      </trkpt>
      <trkpt lat="44.18292" lon="6.63502">
        <ele>1420.8000488281</ele>
        <time>2022-08-19T15:49:51Z</time>
      </trkpt>
      <trkpt lat="44.18301" lon="6.63508">
        <ele>1421.5999755859</ele>
        <time>2022-08-19T15:49:57Z</time>
      </trkpt>
      <trkpt lat="44.18309" lon="6.63514">
        <ele>1422.4000244141</ele>
        <time>2022-08-19T15:50:03Z</time>
      </trkpt>
      <trkpt lat="44.1831" lon="6.63515">
        <ele>1422.5999755859</ele>
        <time>2022-08-19T15:50:04Z</time>
      </trkpt>
      <trkpt lat="44.18318" lon="6.63526">
        <ele>1423.5999755859</ele>
        <time>2022-08-19T15:50:11Z</time>
      </trkpt>
      <trkpt lat="44.18322" lon="6.63534">
        <ele>1424</ele>
        <time>2022-08-19T15:50:15Z</time>
      </trkpt>
      <trkpt lat="44.18326" lon="6.63542">
        <ele>1424.5999755859</ele>
        <time>2022-08-19T15:50:19Z</time>
      </trkpt>
      <trkpt lat="44.18334" lon="6.6355">
        <ele>1425.5999755859</ele>
        <time>2022-08-19T15:50:25Z</time>
      </trkpt>
      <trkpt lat="44.18336" lon="6.63551">
        <ele>1425.8000488281</ele>
        <time>2022-08-19T15:50:26Z</time>
      </trkpt>
      <trkpt lat="44.18343" lon="6.63557">
        <ele>1426.5999755859</ele>
        <time>2022-08-19T15:50:31Z</time>
      </trkpt>
      <trkpt lat="44.18353" lon="6.63563">
        <ele>1427.5999755859</ele>
        <time>2022-08-19T15:50:37Z</time>
      </trkpt>
      <trkpt lat="44.18357" lon="6.63564">
        <ele>1428.1999511719</ele>
        <time>2022-08-19T15:50:40Z</time>
      </trkpt>
      <trkpt lat="44.18364" lon="6.63566">
        <ele>1428.8000488281</ele>
        <time>2022-08-19T15:50:44Z</time>
      </trkpt>
      <trkpt lat="44.18375" lon="6.63572">
        <ele>1429.8000488281</ele>
        <time>2022-08-19T15:50:51Z</time>
      </trkpt>
      <trkpt lat="44.18386" lon="6.63577">
        <ele>1431</ele>
        <time>2022-08-19T15:50:58Z</time>
      </trkpt>
      <trkpt lat="44.18393" lon="6.6358">
        <ele>1431.5999755859</ele>
        <time>2022-08-19T15:51:02Z</time>
      </trkpt>
      <trkpt lat="44.18394" lon="6.63581">
        <ele>1431.8000488281</ele>
        <time>2022-08-19T15:51:03Z</time>
      </trkpt>
      <trkpt lat="44.18398" lon="6.63582">
        <ele>1432</ele>
        <time>2022-08-19T15:51:05Z</time>
      </trkpt>
      <trkpt lat="44.18409" lon="6.63589">
        <ele>1433.1999511719</ele>
        <time>2022-08-19T15:51:12Z</time>
      </trkpt>
      <trkpt lat="44.18417" lon="6.63592">
        <ele>1434</ele>
        <time>2022-08-19T15:51:17Z</time>
      </trkpt>
      <trkpt lat="44.1842" lon="6.63593">
        <ele>1434.1999511719</ele>
        <time>2022-08-19T15:51:19Z</time>
      </trkpt>
      <trkpt lat="44.18433" lon="6.63597">
        <ele>1435.4000244141</ele>
        <time>2022-08-19T15:51:27Z</time>
      </trkpt>
      <trkpt lat="44.1844" lon="6.63599">
        <ele>1436.1999511719</ele>
        <time>2022-08-19T15:51:32Z</time>
      </trkpt>
      <trkpt lat="44.18442" lon="6.63599">
        <ele>1436.4000244141</ele>
        <time>2022-08-19T15:51:33Z</time>
      </trkpt>
      <trkpt lat="44.18453" lon="6.63603">
        <ele>1437.5999755859</ele>
        <time>2022-08-19T15:51:40Z</time>
      </trkpt>
      <trkpt lat="44.18467" lon="6.63608">
        <ele>1438.5999755859</ele>
        <time>2022-08-19T15:51:48Z</time>
      </trkpt>
      <trkpt lat="44.18468" lon="6.63608">
        <ele>1438.8000488281</ele>
        <time>2022-08-19T15:51:49Z</time>
      </trkpt>
      <trkpt lat="44.18482" lon="6.63613">
        <ele>1439.5999755859</ele>
        <time>2022-08-19T15:51:57Z</time>
      </trkpt>
      <trkpt lat="44.18493" lon="6.63616">
        <ele>1440.5999755859</ele>
        <time>2022-08-19T15:52:04Z</time>
      </trkpt>
      <trkpt lat="44.18494" lon="6.63617">
        <ele>1440.8000488281</ele>
        <time>2022-08-19T15:52:05Z</time>
      </trkpt>
      <trkpt lat="44.18502" lon="6.63621">
        <ele>1441.8000488281</ele>
        <time>2022-08-19T15:52:10Z</time>
      </trkpt>
      <trkpt lat="44.1851" lon="6.63627">
        <ele>1442.8000488281</ele>
        <time>2022-08-19T15:52:15Z</time>
      </trkpt>
      <trkpt lat="44.18511" lon="6.63628">
        <ele>1443</ele>
        <time>2022-08-19T15:52:16Z</time>
      </trkpt>
      <trkpt lat="44.18516" lon="6.63636">
        <ele>1444</ele>
        <time>2022-08-19T15:52:21Z</time>
      </trkpt>
      <trkpt lat="44.18525" lon="6.63646">
        <ele>1445</ele>
        <time>2022-08-19T15:52:28Z</time>
      </trkpt>
      <trkpt lat="44.18527" lon="6.63649">
        <ele>1445.5999755859</ele>
        <time>2022-08-19T15:52:30Z</time>
      </trkpt>
      <trkpt lat="44.18531" lon="6.63656">
        <ele>1446.1999511719</ele>
        <time>2022-08-19T15:52:34Z</time>
      </trkpt>
      <trkpt lat="44.18531" lon="6.63663">
        <ele>1446.5999755859</ele>
        <time>2022-08-19T15:52:37Z</time>
      </trkpt>
      <trkpt lat="44.1853" lon="6.63665">
        <ele>1446.8000488281</ele>
        <time>2022-08-19T15:52:38Z</time>
      </trkpt>
      <trkpt lat="44.18529" lon="6.63666">
        <ele>1447</ele>
        <time>2022-08-19T15:52:39Z</time>
      </trkpt>
      <trkpt lat="44.18526" lon="6.63664">
        <ele>1447.4000244141</ele>
        <time>2022-08-19T15:52:41Z</time>
      </trkpt>
      <trkpt lat="44.18524" lon="6.63663">
        <ele>1447.5999755859</ele>
        <time>2022-08-19T15:52:42Z</time>
      </trkpt>
      <trkpt lat="44.18515" lon="6.63652">
        <ele>1448.4000244141</ele>
        <time>2022-08-19T15:52:50Z</time>
      </trkpt>
      <trkpt lat="44.18513" lon="6.63652">
        <ele>1448.5999755859</ele>
        <time>2022-08-19T15:52:51Z</time>
      </trkpt>
      <trkpt lat="44.18501" lon="6.63651">
        <ele>1449.5999755859</ele>
        <time>2022-08-19T15:52:58Z</time>
      </trkpt>
      <trkpt lat="44.18499" lon="6.63651">
        <ele>1449.8000488281</ele>
        <time>2022-08-19T15:53:00Z</time>
      </trkpt>
      <trkpt lat="44.185" lon="6.63651">
        <ele>1450.1999511719</ele>
        <time>2022-08-19T15:53:03Z</time>
      </trkpt>
      <trkpt lat="44.185" lon="6.63651">
        <ele>1450.1999511719</ele>
        <time>2022-08-19T15:53:04Z</time>
      </trkpt>
      <trkpt lat="44.18499" lon="6.63651">
        <ele>1450.1999511719</ele>
        <time>2022-08-19T15:53:07Z</time>
      </trkpt>
      <trkpt lat="44.18499" lon="6.63652">
        <ele>1450.1999511719</ele>
        <time>2022-08-19T15:53:14Z</time>
      </trkpt>
      <trkpt lat="44.18492" lon="6.63652">
        <ele>1450.5999755859</ele>
        <time>2022-08-19T15:53:20Z</time>
      </trkpt>
      <trkpt lat="44.1849" lon="6.63652">
        <ele>1450.5999755859</ele>
        <time>2022-08-19T15:53:21Z</time>
      </trkpt>
      <trkpt lat="44.18487" lon="6.63653">
        <ele>1450.8000488281</ele>
        <time>2022-08-19T15:53:23Z</time>
      </trkpt>
      <trkpt lat="44.18479" lon="6.63652">
        <ele>1451.8000488281</ele>
        <time>2022-08-19T15:53:28Z</time>
      </trkpt>
      <trkpt lat="44.18476" lon="6.63651">
        <ele>1452</ele>
        <time>2022-08-19T15:53:30Z</time>
      </trkpt>
      <trkpt lat="44.18469" lon="6.6365">
        <ele>1452.8000488281</ele>
        <time>2022-08-19T15:53:34Z</time>
      </trkpt>
      <trkpt lat="44.18462" lon="6.63652">
        <ele>1453.4000244141</ele>
        <time>2022-08-19T15:53:38Z</time>
      </trkpt>
      <trkpt lat="44.18461" lon="6.63652">
        <ele>1453.5999755859</ele>
        <time>2022-08-19T15:53:39Z</time>
      </trkpt>
      <trkpt lat="44.18459" lon="6.63653">
        <ele>1454</ele>
        <time>2022-08-19T15:53:40Z</time>
      </trkpt>
      <trkpt lat="44.18452" lon="6.63655">
        <ele>1454.5999755859</ele>
        <time>2022-08-19T15:53:44Z</time>
      </trkpt>
      <trkpt lat="44.18449" lon="6.63656">
        <ele>1454.8000488281</ele>
        <time>2022-08-19T15:53:46Z</time>
      </trkpt>
      <trkpt lat="44.18447" lon="6.63657">
        <ele>1455</ele>
        <time>2022-08-19T15:53:47Z</time>
      </trkpt>
      <trkpt lat="44.18438" lon="6.63661">
        <ele>1456</ele>
        <time>2022-08-19T15:53:52Z</time>
      </trkpt>
      <trkpt lat="44.18436" lon="6.63662">
        <ele>1456.4000244141</ele>
        <time>2022-08-19T15:53:54Z</time>
      </trkpt>
      <trkpt lat="44.18434" lon="6.63662">
        <ele>1456.5999755859</ele>
        <time>2022-08-19T15:53:58Z</time>
      </trkpt>
      <trkpt lat="44.18434" lon="6.63663">
        <ele>1456.8000488281</ele>
        <time>2022-08-19T15:53:59Z</time>
      </trkpt>
      <trkpt lat="44.18433" lon="6.63662">
        <ele>1456.8000488281</ele>
        <time>2022-08-19T15:54:03Z</time>
      </trkpt>
      <trkpt lat="44.18429" lon="6.63662">
        <ele>1457</ele>
        <time>2022-08-19T15:54:05Z</time>
      </trkpt>
      <trkpt lat="44.18424" lon="6.63662">
        <ele>1457.1999511719</ele>
        <time>2022-08-19T15:54:08Z</time>
      </trkpt>
      <trkpt lat="44.18417" lon="6.63661">
        <ele>1457.5999755859</ele>
        <time>2022-08-19T15:54:12Z</time>
      </trkpt>
      <trkpt lat="44.18412" lon="6.6366">
        <ele>1458</ele>
        <time>2022-08-19T15:54:15Z</time>
      </trkpt>
      <trkpt lat="44.18408" lon="6.63658">
        <ele>1458.4000244141</ele>
        <time>2022-08-19T15:54:18Z</time>
      </trkpt>
      <trkpt lat="44.18403" lon="6.63656">
        <ele>1458.8000488281</ele>
        <time>2022-08-19T15:54:21Z</time>
      </trkpt>
      <trkpt lat="44.184" lon="6.63655">
        <ele>1459</ele>
        <time>2022-08-19T15:54:23Z</time>
      </trkpt>
      <trkpt lat="44.18391" lon="6.6365">
        <ele>1460.1999511719</ele>
        <time>2022-08-19T15:54:30Z</time>
      </trkpt>
      <trkpt lat="44.18389" lon="6.63649">
        <ele>1460.4000244141</ele>
        <time>2022-08-19T15:54:31Z</time>
      </trkpt>
      <trkpt lat="44.18382" lon="6.63647">
        <ele>1461.1999511719</ele>
        <time>2022-08-19T15:54:36Z</time>
      </trkpt>
      <trkpt lat="44.18376" lon="6.63646">
        <ele>1461.8000488281</ele>
        <time>2022-08-19T15:54:40Z</time>
      </trkpt>
      <trkpt lat="44.18371" lon="6.63645">
        <ele>1462.4000244141</ele>
        <time>2022-08-19T15:54:43Z</time>
      </trkpt>
      <trkpt lat="44.1836" lon="6.63645">
        <ele>1463.1999511719</ele>
        <time>2022-08-19T15:54:50Z</time>
      </trkpt>
      <trkpt lat="44.18359" lon="6.63645">
        <ele>1463.4000244141</ele>
        <time>2022-08-19T15:54:51Z</time>
      </trkpt>
      <trkpt lat="44.18345" lon="6.63645">
        <ele>1464.4000244141</ele>
        <time>2022-08-19T15:54:59Z</time>
      </trkpt>
      <trkpt lat="44.18342" lon="6.63645">
        <ele>1464.8000488281</ele>
        <time>2022-08-19T15:55:01Z</time>
      </trkpt>
      <trkpt lat="44.18332" lon="6.63645">
        <ele>1465.5999755859</ele>
        <time>2022-08-19T15:55:07Z</time>
      </trkpt>
      <trkpt lat="44.18322" lon="6.63646">
        <ele>1466.5999755859</ele>
        <time>2022-08-19T15:55:13Z</time>
      </trkpt>
      <trkpt lat="44.1832" lon="6.63646">
        <ele>1466.5999755859</ele>
        <time>2022-08-19T15:55:14Z</time>
      </trkpt>
      <trkpt lat="44.18311" lon="6.63648">
        <ele>1467.8000488281</ele>
        <time>2022-08-19T15:55:20Z</time>
      </trkpt>
      <trkpt lat="44.18303" lon="6.6365">
        <ele>1468.4000244141</ele>
        <time>2022-08-19T15:55:25Z</time>
      </trkpt>
      <trkpt lat="44.18298" lon="6.63651">
        <ele>1469</ele>
        <time>2022-08-19T15:55:28Z</time>
      </trkpt>
      <trkpt lat="44.18291" lon="6.63653">
        <ele>1469.5999755859</ele>
        <time>2022-08-19T15:55:32Z</time>
      </trkpt>
      <trkpt lat="44.18288" lon="6.63656">
        <ele>1470</ele>
        <time>2022-08-19T15:55:34Z</time>
      </trkpt>
      <trkpt lat="44.18276" lon="6.63663">
        <ele>1471</ele>
        <time>2022-08-19T15:55:41Z</time>
      </trkpt>
      <trkpt lat="44.18263" lon="6.63669">
        <ele>1472</ele>
        <time>2022-08-19T15:55:48Z</time>
      </trkpt>
      <trkpt lat="44.18261" lon="6.63669">
        <ele>1472.1999511719</ele>
        <time>2022-08-19T15:55:49Z</time>
      </trkpt>
      <trkpt lat="44.18254" lon="6.63672">
        <ele>1473.1999511719</ele>
        <time>2022-08-19T15:55:53Z</time>
      </trkpt>
      <trkpt lat="44.18249" lon="6.63675">
        <ele>1473.8000488281</ele>
        <time>2022-08-19T15:55:56Z</time>
      </trkpt>
      <trkpt lat="44.18244" lon="6.63678">
        <ele>1474.1999511719</ele>
        <time>2022-08-19T15:55:59Z</time>
      </trkpt>
      <trkpt lat="44.18233" lon="6.63679">
        <ele>1475</ele>
        <time>2022-08-19T15:56:05Z</time>
      </trkpt>
      <trkpt lat="44.18225" lon="6.63678">
        <ele>1475.4000244141</ele>
        <time>2022-08-19T15:56:09Z</time>
      </trkpt>
      <trkpt lat="44.18214" lon="6.63677">
        <ele>1476.4000244141</ele>
        <time>2022-08-19T15:56:15Z</time>
      </trkpt>
      <trkpt lat="44.18213" lon="6.63678">
        <ele>1476.5999755859</ele>
        <time>2022-08-19T15:56:16Z</time>
      </trkpt>
      <trkpt lat="44.18214" lon="6.63682">
        <ele>1477.1999511719</ele>
        <time>2022-08-19T15:56:19Z</time>
      </trkpt>
      <trkpt lat="44.18215" lon="6.63684">
        <ele>1477.4000244141</ele>
        <time>2022-08-19T15:56:20Z</time>
      </trkpt>
      <trkpt lat="44.18224" lon="6.63689">
        <ele>1478.5999755859</ele>
        <time>2022-08-19T15:56:27Z</time>
      </trkpt>
      <trkpt lat="44.18224" lon="6.6369">
        <ele>1479</ele>
        <time>2022-08-19T15:56:30Z</time>
      </trkpt>
      <trkpt lat="44.18224" lon="6.63689">
        <ele>1479</ele>
        <time>2022-08-19T15:56:36Z</time>
      </trkpt>
      <trkpt lat="44.18224" lon="6.63689">
        <ele>1479.5999755859</ele>
        <time>2022-08-19T15:56:45Z</time>
      </trkpt>
      <trkpt lat="44.18224" lon="6.63689">
        <ele>1479.5999755859</ele>
        <time>2022-08-19T15:56:47Z</time>
      </trkpt>
      <trkpt lat="44.18224" lon="6.6369">
        <ele>1479.5999755859</ele>
        <time>2022-08-19T15:56:53Z</time>
      </trkpt>
      <trkpt lat="44.18224" lon="6.6369">
        <ele>1479.5999755859</ele>
        <time>2022-08-19T15:57:08Z</time>
      </trkpt>
      <trkpt lat="44.18223" lon="6.6369">
        <ele>1479.5999755859</ele>
        <time>2022-08-19T15:57:16Z</time>
      </trkpt>
      <trkpt lat="44.18223" lon="6.6369">
        <ele>1479.5999755859</ele>
        <time>2022-08-19T15:57:23Z</time>
      </trkpt>
      <trkpt lat="44.18223" lon="6.6369">
        <ele>1479.8000488281</ele>
        <time>2022-08-19T15:57:27Z</time>
      </trkpt>
      <trkpt lat="44.18225" lon="6.6369">
        <ele>1479.8000488281</ele>
        <time>2022-08-19T15:57:39Z</time>
      </trkpt>
      <trkpt lat="44.18225" lon="6.6369">
        <ele>1479.8000488281</ele>
        <time>2022-08-19T15:57:41Z</time>
      </trkpt>
      <trkpt lat="44.18225" lon="6.6369">
        <ele>1479.8000488281</ele>
        <time>2022-08-19T15:57:43Z</time>
      </trkpt>
      <trkpt lat="44.18224" lon="6.6369">
        <ele>1479.8000488281</ele>
        <time>2022-08-19T15:57:47Z</time>
      </trkpt>
      <trkpt lat="44.18224" lon="6.6369">
        <ele>1479.8000488281</ele>
        <time>2022-08-19T15:57:56Z</time>
      </trkpt>
      <trkpt lat="44.18224" lon="6.6369">
        <ele>1479.8000488281</ele>
        <time>2022-08-19T15:58:01Z</time>
      </trkpt>
      <trkpt lat="44.18224" lon="6.6369">
        <ele>1479.8000488281</ele>
        <time>2022-08-19T15:58:10Z</time>
      </trkpt>
      <trkpt lat="44.18228" lon="6.63693">
        <ele>1479.8000488281</ele>
        <time>2022-08-19T15:58:16Z</time>
      </trkpt>
      <trkpt lat="44.18232" lon="6.63696">
        <ele>1479.8000488281</ele>
        <time>2022-08-19T15:58:18Z</time>
      </trkpt>
      <trkpt lat="44.18242" lon="6.637">
        <ele>1479.8000488281</ele>
        <time>2022-08-19T15:58:23Z</time>
      </trkpt>
      <trkpt lat="44.18252" lon="6.637">
        <ele>1480.5999755859</ele>
        <time>2022-08-19T15:58:28Z</time>
      </trkpt>
      <trkpt lat="44.18254" lon="6.637">
        <ele>1480.8000488281</ele>
        <time>2022-08-19T15:58:29Z</time>
      </trkpt>
      <trkpt lat="44.18257" lon="6.637">
        <ele>1481.1999511719</ele>
        <time>2022-08-19T15:58:31Z</time>
      </trkpt>
      <trkpt lat="44.18262" lon="6.63704">
        <ele>1481.8000488281</ele>
        <time>2022-08-19T15:58:34Z</time>
      </trkpt>
      <trkpt lat="44.18268" lon="6.63708">
        <ele>1482.4000244141</ele>
        <time>2022-08-19T15:58:38Z</time>
      </trkpt>
      <trkpt lat="44.18271" lon="6.63709">
        <ele>1482.8000488281</ele>
        <time>2022-08-19T15:58:40Z</time>
      </trkpt>
      <trkpt lat="44.1828" lon="6.63713">
        <ele>1483.5999755859</ele>
        <time>2022-08-19T15:58:46Z</time>
      </trkpt>
      <trkpt lat="44.18287" lon="6.63715">
        <ele>1483.8000488281</ele>
        <time>2022-08-19T15:58:50Z</time>
      </trkpt>
      <trkpt lat="44.18289" lon="6.63715">
        <ele>1484</ele>
        <time>2022-08-19T15:58:51Z</time>
      </trkpt>
      <trkpt lat="44.18294" lon="6.63715">
        <ele>1484.8000488281</ele>
        <time>2022-08-19T15:58:54Z</time>
      </trkpt>
      <trkpt lat="44.18298" lon="6.63716">
        <ele>1485.1999511719</ele>
        <time>2022-08-19T15:58:56Z</time>
      </trkpt>
      <trkpt lat="44.18304" lon="6.63717">
        <ele>1486</ele>
        <time>2022-08-19T15:59:00Z</time>
      </trkpt>
      <trkpt lat="44.18315" lon="6.63717">
        <ele>1487</ele>
        <time>2022-08-19T15:59:06Z</time>
      </trkpt>
      <trkpt lat="44.18316" lon="6.63717">
        <ele>1487.1999511719</ele>
        <time>2022-08-19T15:59:07Z</time>
      </trkpt>
      <trkpt lat="44.18328" lon="6.63718">
        <ele>1488.1999511719</ele>
        <time>2022-08-19T15:59:14Z</time>
      </trkpt>
      <trkpt lat="44.1833" lon="6.63718">
        <ele>1488.4000244141</ele>
        <time>2022-08-19T15:59:15Z</time>
      </trkpt>
      <trkpt lat="44.18338" lon="6.63719">
        <ele>1489.1999511719</ele>
        <time>2022-08-19T15:59:20Z</time>
      </trkpt>
      <trkpt lat="44.18348" lon="6.63723">
        <ele>1490.4000244141</ele>
        <time>2022-08-19T15:59:26Z</time>
      </trkpt>
      <trkpt lat="44.18352" lon="6.63724">
        <ele>1490.8000488281</ele>
        <time>2022-08-19T15:59:28Z</time>
      </trkpt>
      <trkpt lat="44.18356" lon="6.63728">
        <ele>1491.4000244141</ele>
        <time>2022-08-19T15:59:31Z</time>
      </trkpt>
      <trkpt lat="44.18362" lon="6.63733">
        <ele>1492</ele>
        <time>2022-08-19T15:59:35Z</time>
      </trkpt>
      <trkpt lat="44.18367" lon="6.63737">
        <ele>1492.4000244141</ele>
        <time>2022-08-19T15:59:38Z</time>
      </trkpt>
      <trkpt lat="44.18378" lon="6.63748">
        <ele>1493.1999511719</ele>
        <time>2022-08-19T15:59:45Z</time>
      </trkpt>
      <trkpt lat="44.18381" lon="6.63751">
        <ele>1493.4000244141</ele>
        <time>2022-08-19T15:59:47Z</time>
      </trkpt>
      <trkpt lat="44.18387" lon="6.63758">
        <ele>1494.1999511719</ele>
        <time>2022-08-19T15:59:52Z</time>
      </trkpt>
      <trkpt lat="44.18388" lon="6.63759">
        <ele>1494.5999755859</ele>
        <time>2022-08-19T15:59:53Z</time>
      </trkpt>
      <trkpt lat="44.18388" lon="6.63761">
        <ele>1494.8000488281</ele>
        <time>2022-08-19T15:59:54Z</time>
      </trkpt>
      <trkpt lat="44.18387" lon="6.63765">
        <ele>1495.1999511719</ele>
        <time>2022-08-19T15:59:56Z</time>
      </trkpt>
      <trkpt lat="44.18383" lon="6.63764">
        <ele>1495.5999755859</ele>
        <time>2022-08-19T15:59:58Z</time>
      </trkpt>
      <trkpt lat="44.1838" lon="6.6376">
        <ele>1495.8000488281</ele>
        <time>2022-08-19T16:00:00Z</time>
      </trkpt>
      <trkpt lat="44.18369" lon="6.63749">
        <ele>1496.5999755859</ele>
        <time>2022-08-19T16:00:07Z</time>
      </trkpt>
      <trkpt lat="44.18367" lon="6.63748">
        <ele>1496.8000488281</ele>
        <time>2022-08-19T16:00:08Z</time>
      </trkpt>
      <trkpt lat="44.18359" lon="6.63745">
        <ele>1497.5999755859</ele>
        <time>2022-08-19T16:00:13Z</time>
      </trkpt>
      <trkpt lat="44.18351" lon="6.63745">
        <ele>1498.1999511719</ele>
        <time>2022-08-19T16:00:17Z</time>
      </trkpt>
      <trkpt lat="44.18346" lon="6.63747">
        <ele>1498.8000488281</ele>
        <time>2022-08-19T16:00:20Z</time>
      </trkpt>
      <trkpt lat="44.18335" lon="6.6375">
        <ele>1499.4000244141</ele>
        <time>2022-08-19T16:00:25Z</time>
      </trkpt>
      <trkpt lat="44.18332" lon="6.63752">
        <ele>1499.5999755859</ele>
        <time>2022-08-19T16:00:27Z</time>
      </trkpt>
      <trkpt lat="44.1833" lon="6.63752">
        <ele>1499.8000488281</ele>
        <time>2022-08-19T16:00:28Z</time>
      </trkpt>
      <trkpt lat="44.1832" lon="6.63756">
        <ele>1501</ele>
        <time>2022-08-19T16:00:34Z</time>
      </trkpt>
      <trkpt lat="44.1831" lon="6.63759">
        <ele>1502.1999511719</ele>
        <time>2022-08-19T16:00:40Z</time>
      </trkpt>
      <trkpt lat="44.18305" lon="6.63761">
        <ele>1502.5999755859</ele>
        <time>2022-08-19T16:00:43Z</time>
      </trkpt>
      <trkpt lat="44.183" lon="6.63763">
        <ele>1503.1999511719</ele>
        <time>2022-08-19T16:00:46Z</time>
      </trkpt>
      <trkpt lat="44.18291" lon="6.63766">
        <ele>1504</ele>
        <time>2022-08-19T16:00:51Z</time>
      </trkpt>
      <trkpt lat="44.18289" lon="6.63767">
        <ele>1504.1999511719</ele>
        <time>2022-08-19T16:00:52Z</time>
      </trkpt>
      <trkpt lat="44.18288" lon="6.63768">
        <ele>1504.4000244141</ele>
        <time>2022-08-19T16:00:53Z</time>
      </trkpt>
      <trkpt lat="44.18275" lon="6.6377">
        <ele>1505.4000244141</ele>
        <time>2022-08-19T16:01:00Z</time>
      </trkpt>
      <trkpt lat="44.18267" lon="6.63772">
        <ele>1506.1999511719</ele>
        <time>2022-08-19T16:01:05Z</time>
      </trkpt>
      <trkpt lat="44.18263" lon="6.63773">
        <ele>1506.4000244141</ele>
        <time>2022-08-19T16:01:07Z</time>
      </trkpt>
      <trkpt lat="44.18259" lon="6.63773">
        <ele>1506.8000488281</ele>
        <time>2022-08-19T16:01:09Z</time>
      </trkpt>
      <trkpt lat="44.18254" lon="6.63773">
        <ele>1507.4000244141</ele>
        <time>2022-08-19T16:01:12Z</time>
      </trkpt>
      <trkpt lat="44.18246" lon="6.63775">
        <ele>1508.4000244141</ele>
        <time>2022-08-19T16:01:16Z</time>
      </trkpt>
      <trkpt lat="44.18245" lon="6.63775">
        <ele>1508.5999755859</ele>
        <time>2022-08-19T16:01:17Z</time>
      </trkpt>
      <trkpt lat="44.18243" lon="6.63776">
        <ele>1508.8000488281</ele>
        <time>2022-08-19T16:01:18Z</time>
      </trkpt>
      <trkpt lat="44.18236" lon="6.63777">
        <ele>1509.5999755859</ele>
        <time>2022-08-19T16:01:22Z</time>
      </trkpt>
      <trkpt lat="44.18235" lon="6.63777">
        <ele>1509.5999755859</ele>
        <time>2022-08-19T16:01:23Z</time>
      </trkpt>
      <trkpt lat="44.18224" lon="6.63777">
        <ele>1510.4000244141</ele>
        <time>2022-08-19T16:01:28Z</time>
      </trkpt>
      <trkpt lat="44.1822" lon="6.63776">
        <ele>1510.5999755859</ele>
        <time>2022-08-19T16:01:30Z</time>
      </trkpt>
      <trkpt lat="44.18211" lon="6.63767">
        <ele>1511.8000488281</ele>
        <time>2022-08-19T16:01:36Z</time>
      </trkpt>
      <trkpt lat="44.18203" lon="6.63754">
        <ele>1512.8000488281</ele>
        <time>2022-08-19T16:01:42Z</time>
      </trkpt>
      <trkpt lat="44.182" lon="6.6375">
        <ele>1513.1999511719</ele>
        <time>2022-08-19T16:01:44Z</time>
      </trkpt>
      <trkpt lat="44.18195" lon="6.63745">
        <ele>1513.8000488281</ele>
        <time>2022-08-19T16:01:47Z</time>
      </trkpt>
      <trkpt lat="44.18188" lon="6.63738">
        <ele>1514.8000488281</ele>
        <time>2022-08-19T16:01:52Z</time>
      </trkpt>
      <trkpt lat="44.18183" lon="6.63734">
        <ele>1515.5999755859</ele>
        <time>2022-08-19T16:01:55Z</time>
      </trkpt>
      <trkpt lat="44.1818" lon="6.63732">
        <ele>1516</ele>
        <time>2022-08-19T16:01:57Z</time>
      </trkpt>
      <trkpt lat="44.18169" lon="6.63727">
        <ele>1517</ele>
        <time>2022-08-19T16:02:04Z</time>
      </trkpt>
      <trkpt lat="44.18165" lon="6.63726">
        <ele>1517.4000244141</ele>
        <time>2022-08-19T16:02:06Z</time>
      </trkpt>
      <trkpt lat="44.18159" lon="6.63722">
        <ele>1518.1999511719</ele>
        <time>2022-08-19T16:02:10Z</time>
      </trkpt>
      <trkpt lat="44.18152" lon="6.6372">
        <ele>1519</ele>
        <time>2022-08-19T16:02:14Z</time>
      </trkpt>
      <trkpt lat="44.1815" lon="6.6372">
        <ele>1519.4000244141</ele>
        <time>2022-08-19T16:02:15Z</time>
      </trkpt>
      <trkpt lat="44.18141" lon="6.63718">
        <ele>1520.5999755859</ele>
        <time>2022-08-19T16:02:20Z</time>
      </trkpt>
      <trkpt lat="44.18134" lon="6.63716">
        <ele>1521.1999511719</ele>
        <time>2022-08-19T16:02:24Z</time>
      </trkpt>
      <trkpt lat="44.18131" lon="6.63716">
        <ele>1521.5999755859</ele>
        <time>2022-08-19T16:02:26Z</time>
      </trkpt>
      <trkpt lat="44.18125" lon="6.63715">
        <ele>1522.1999511719</ele>
        <time>2022-08-19T16:02:29Z</time>
      </trkpt>
      <trkpt lat="44.18113" lon="6.63714">
        <ele>1522.5999755859</ele>
        <time>2022-08-19T16:02:34Z</time>
      </trkpt>
      <trkpt lat="44.18108" lon="6.63713">
        <ele>1522.5999755859</ele>
        <time>2022-08-19T16:02:36Z</time>
      </trkpt>
      <trkpt lat="44.18093" lon="6.63708">
        <ele>1523</ele>
        <time>2022-08-19T16:02:42Z</time>
      </trkpt>
      <trkpt lat="44.18082" lon="6.63702">
        <ele>1523.5999755859</ele>
        <time>2022-08-19T16:02:47Z</time>
      </trkpt>
      <trkpt lat="44.18074" lon="6.63699">
        <ele>1524.4000244141</ele>
        <time>2022-08-19T16:02:51Z</time>
      </trkpt>
      <trkpt lat="44.18071" lon="6.63697">
        <ele>1524.8000488281</ele>
        <time>2022-08-19T16:02:53Z</time>
      </trkpt>
      <trkpt lat="44.18065" lon="6.63695">
        <ele>1525.4000244141</ele>
        <time>2022-08-19T16:02:57Z</time>
      </trkpt>
      <trkpt lat="44.18062" lon="6.63695">
        <ele>1525.8000488281</ele>
        <time>2022-08-19T16:02:59Z</time>
      </trkpt>
      <trkpt lat="44.18061" lon="6.63694">
        <ele>1525.8000488281</ele>
        <time>2022-08-19T16:03:00Z</time>
      </trkpt>
      <trkpt lat="44.1805" lon="6.63691">
        <ele>1527</ele>
        <time>2022-08-19T16:03:07Z</time>
      </trkpt>
      <trkpt lat="44.18049" lon="6.63691">
        <ele>1527</ele>
        <time>2022-08-19T16:03:08Z</time>
      </trkpt>
      <trkpt lat="44.18039" lon="6.63693">
        <ele>1528</ele>
        <time>2022-08-19T16:03:14Z</time>
      </trkpt>
      <trkpt lat="44.18034" lon="6.63699">
        <ele>1529</ele>
        <time>2022-08-19T16:03:18Z</time>
      </trkpt>
      <trkpt lat="44.18033" lon="6.63701">
        <ele>1529.1999511719</ele>
        <time>2022-08-19T16:03:19Z</time>
      </trkpt>
      <trkpt lat="44.18032" lon="6.63703">
        <ele>1529.4000244141</ele>
        <time>2022-08-19T16:03:20Z</time>
      </trkpt>
      <trkpt lat="44.18032" lon="6.63705">
        <ele>1529.5999755859</ele>
        <time>2022-08-19T16:03:21Z</time>
      </trkpt>
      <trkpt lat="44.18032" lon="6.6371">
        <ele>1530</ele>
        <time>2022-08-19T16:03:23Z</time>
      </trkpt>
      <trkpt lat="44.18032" lon="6.63712">
        <ele>1530.1999511719</ele>
        <time>2022-08-19T16:03:24Z</time>
      </trkpt>
      <trkpt lat="44.18033" lon="6.63723">
        <ele>1531.1999511719</ele>
        <time>2022-08-19T16:03:29Z</time>
      </trkpt>
      <trkpt lat="44.18033" lon="6.63727">
        <ele>1531.5999755859</ele>
        <time>2022-08-19T16:03:31Z</time>
      </trkpt>
      <trkpt lat="44.18034" lon="6.63738">
        <ele>1532.4000244141</ele>
        <time>2022-08-19T16:03:36Z</time>
      </trkpt>
      <trkpt lat="44.18035" lon="6.63742">
        <ele>1532.5999755859</ele>
        <time>2022-08-19T16:03:38Z</time>
      </trkpt>
      <trkpt lat="44.18038" lon="6.63755">
        <ele>1533.4000244141</ele>
        <time>2022-08-19T16:03:44Z</time>
      </trkpt>
      <trkpt lat="44.18038" lon="6.63757">
        <ele>1533.5999755859</ele>
        <time>2022-08-19T16:03:45Z</time>
      </trkpt>
      <trkpt lat="44.18042" lon="6.63774">
        <ele>1534.4000244141</ele>
        <time>2022-08-19T16:03:53Z</time>
      </trkpt>
      <trkpt lat="44.18045" lon="6.63786">
        <ele>1535.1999511719</ele>
        <time>2022-08-19T16:03:59Z</time>
      </trkpt>
      <trkpt lat="44.18045" lon="6.63788">
        <ele>1535.4000244141</ele>
        <time>2022-08-19T16:04:00Z</time>
      </trkpt>
      <trkpt lat="44.18046" lon="6.6379">
        <ele>1535.5999755859</ele>
        <time>2022-08-19T16:04:01Z</time>
      </trkpt>
      <trkpt lat="44.18049" lon="6.63803">
        <ele>1536.4000244141</ele>
        <time>2022-08-19T16:04:08Z</time>
      </trkpt>
      <trkpt lat="44.1805" lon="6.63805">
        <ele>1536.5999755859</ele>
        <time>2022-08-19T16:04:09Z</time>
      </trkpt>
      <trkpt lat="44.18052" lon="6.63822">
        <ele>1537.8000488281</ele>
        <time>2022-08-19T16:04:17Z</time>
      </trkpt>
      <trkpt lat="44.18054" lon="6.6383">
        <ele>1538.4000244141</ele>
        <time>2022-08-19T16:04:21Z</time>
      </trkpt>
      <trkpt lat="44.18055" lon="6.63834">
        <ele>1538.5999755859</ele>
        <time>2022-08-19T16:04:23Z</time>
      </trkpt>
      <trkpt lat="44.18056" lon="6.63836">
        <ele>1538.8000488281</ele>
        <time>2022-08-19T16:04:24Z</time>
      </trkpt>
      <trkpt lat="44.1806" lon="6.63846">
        <ele>1539.4000244141</ele>
        <time>2022-08-19T16:04:29Z</time>
      </trkpt>
      <trkpt lat="44.18061" lon="6.63847">
        <ele>1539.5999755859</ele>
        <time>2022-08-19T16:04:30Z</time>
      </trkpt>
      <trkpt lat="44.18064" lon="6.6385">
        <ele>1539.8000488281</ele>
        <time>2022-08-19T16:04:32Z</time>
      </trkpt>
      <trkpt lat="44.18066" lon="6.63852">
        <ele>1540</ele>
        <time>2022-08-19T16:04:34Z</time>
      </trkpt>
      <trkpt lat="44.18073" lon="6.63858">
        <ele>1541</ele>
        <time>2022-08-19T16:04:40Z</time>
      </trkpt>
      <trkpt lat="44.18075" lon="6.63859">
        <ele>1541.1999511719</ele>
        <time>2022-08-19T16:04:41Z</time>
      </trkpt>
      <trkpt lat="44.18085" lon="6.63866">
        <ele>1542.1999511719</ele>
        <time>2022-08-19T16:04:48Z</time>
      </trkpt>
      <trkpt lat="44.18088" lon="6.63868">
        <ele>1542.4000244141</ele>
        <time>2022-08-19T16:04:50Z</time>
      </trkpt>
      <trkpt lat="44.18096" lon="6.63872">
        <ele>1543.1999511719</ele>
        <time>2022-08-19T16:04:56Z</time>
      </trkpt>
      <trkpt lat="44.18097" lon="6.63873">
        <ele>1543.4000244141</ele>
        <time>2022-08-19T16:04:57Z</time>
      </trkpt>
      <trkpt lat="44.18106" lon="6.63877">
        <ele>1544.4000244141</ele>
        <time>2022-08-19T16:05:03Z</time>
      </trkpt>
      <trkpt lat="44.18111" lon="6.63881">
        <ele>1545</ele>
        <time>2022-08-19T16:05:07Z</time>
      </trkpt>
      <trkpt lat="44.18116" lon="6.63883">
        <ele>1545.4000244141</ele>
        <time>2022-08-19T16:05:10Z</time>
      </trkpt>
      <trkpt lat="44.18124" lon="6.63889">
        <ele>1546.1999511719</ele>
        <time>2022-08-19T16:05:16Z</time>
      </trkpt>
      <trkpt lat="44.18125" lon="6.6389">
        <ele>1546.4000244141</ele>
        <time>2022-08-19T16:05:17Z</time>
      </trkpt>
      <trkpt lat="44.18136" lon="6.63896">
        <ele>1547.4000244141</ele>
        <time>2022-08-19T16:05:25Z</time>
      </trkpt>
      <trkpt lat="44.18137" lon="6.63897">
        <ele>1547.5999755859</ele>
        <time>2022-08-19T16:05:26Z</time>
      </trkpt>
      <trkpt lat="44.18146" lon="6.63903">
        <ele>1548.5999755859</ele>
        <time>2022-08-19T16:05:33Z</time>
      </trkpt>
      <trkpt lat="44.18151" lon="6.63907">
        <ele>1549.1999511719</ele>
        <time>2022-08-19T16:05:37Z</time>
      </trkpt>
      <trkpt lat="44.18155" lon="6.63911">
        <ele>1549.5999755859</ele>
        <time>2022-08-19T16:05:40Z</time>
      </trkpt>
      <trkpt lat="44.18164" lon="6.63921">
        <ele>1550.5999755859</ele>
        <time>2022-08-19T16:05:47Z</time>
      </trkpt>
      <trkpt lat="44.18164" lon="6.63923">
        <ele>1550.8000488281</ele>
        <time>2022-08-19T16:05:48Z</time>
      </trkpt>
      <trkpt lat="44.18172" lon="6.63936">
        <ele>1551.8000488281</ele>
        <time>2022-08-19T16:05:56Z</time>
      </trkpt>
      <trkpt lat="44.18173" lon="6.63937">
        <ele>1551.8000488281</ele>
        <time>2022-08-19T16:05:57Z</time>
      </trkpt>
      <trkpt lat="44.1818" lon="6.6395">
        <ele>1552.5999755859</ele>
        <time>2022-08-19T16:06:05Z</time>
      </trkpt>
      <trkpt lat="44.18184" lon="6.63955">
        <ele>1553</ele>
        <time>2022-08-19T16:06:08Z</time>
      </trkpt>
      <trkpt lat="44.18187" lon="6.63965">
        <ele>1554</ele>
        <time>2022-08-19T16:06:13Z</time>
      </trkpt>
      <trkpt lat="44.18187" lon="6.63978">
        <ele>1554.8000488281</ele>
        <time>2022-08-19T16:06:18Z</time>
      </trkpt>
      <trkpt lat="44.18186" lon="6.63982">
        <ele>1555</ele>
        <time>2022-08-19T16:06:20Z</time>
      </trkpt>
      <trkpt lat="44.18186" lon="6.63984">
        <ele>1555.1999511719</ele>
        <time>2022-08-19T16:06:21Z</time>
      </trkpt>
      <trkpt lat="44.18182" lon="6.64">
        <ele>1556.1999511719</ele>
        <time>2022-08-19T16:06:29Z</time>
      </trkpt>
      <trkpt lat="44.18181" lon="6.64005">
        <ele>1556.4000244141</ele>
        <time>2022-08-19T16:06:31Z</time>
      </trkpt>
      <trkpt lat="44.1818" lon="6.64016">
        <ele>1557.1999511719</ele>
        <time>2022-08-19T16:06:37Z</time>
      </trkpt>
      <trkpt lat="44.1818" lon="6.64018">
        <ele>1557.4000244141</ele>
        <time>2022-08-19T16:06:38Z</time>
      </trkpt>
      <trkpt lat="44.1818" lon="6.64036">
        <ele>1558.4000244141</ele>
        <time>2022-08-19T16:06:46Z</time>
      </trkpt>
      <trkpt lat="44.1818" lon="6.64038">
        <ele>1558.5999755859</ele>
        <time>2022-08-19T16:06:47Z</time>
      </trkpt>
      <trkpt lat="44.18178" lon="6.64041">
        <ele>1558.8000488281</ele>
        <time>2022-08-19T16:06:49Z</time>
      </trkpt>
      <trkpt lat="44.18176" lon="6.64041">
        <ele>1559.1999511719</ele>
        <time>2022-08-19T16:06:51Z</time>
      </trkpt>
      <trkpt lat="44.18175" lon="6.6404">
        <ele>1559.4000244141</ele>
        <time>2022-08-19T16:06:52Z</time>
      </trkpt>
      <trkpt lat="44.18173" lon="6.6403">
        <ele>1560.1999511719</ele>
        <time>2022-08-19T16:06:57Z</time>
      </trkpt>
      <trkpt lat="44.18173" lon="6.64027">
        <ele>1560.1999511719</ele>
        <time>2022-08-19T16:06:58Z</time>
      </trkpt>
      <trkpt lat="44.18173" lon="6.64018">
        <ele>1560.5999755859</ele>
        <time>2022-08-19T16:07:02Z</time>
      </trkpt>
      <trkpt lat="44.18173" lon="6.64013">
        <ele>1560.8000488281</ele>
        <time>2022-08-19T16:07:04Z</time>
      </trkpt>
      <trkpt lat="44.18168" lon="6.63998">
        <ele>1561.4000244141</ele>
        <time>2022-08-19T16:07:11Z</time>
      </trkpt>
      <trkpt lat="44.18168" lon="6.63996">
        <ele>1561.5999755859</ele>
        <time>2022-08-19T16:07:12Z</time>
      </trkpt>
      <trkpt lat="44.18162" lon="6.63983">
        <ele>1562.4000244141</ele>
        <time>2022-08-19T16:07:19Z</time>
      </trkpt>
      <trkpt lat="44.18162" lon="6.63981">
        <ele>1562.5999755859</ele>
        <time>2022-08-19T16:07:20Z</time>
      </trkpt>
      <trkpt lat="44.18157" lon="6.63969">
        <ele>1563.5999755859</ele>
        <time>2022-08-19T16:07:27Z</time>
      </trkpt>
      <trkpt lat="44.18156" lon="6.63967">
        <ele>1563.8000488281</ele>
        <time>2022-08-19T16:07:28Z</time>
      </trkpt>
      <trkpt lat="44.1815" lon="6.63955">
        <ele>1564.8000488281</ele>
        <time>2022-08-19T16:07:35Z</time>
      </trkpt>
      <trkpt lat="44.18148" lon="6.63954">
        <ele>1564.8000488281</ele>
        <time>2022-08-19T16:07:36Z</time>
      </trkpt>
      <trkpt lat="44.18142" lon="6.63947">
        <ele>1565.8000488281</ele>
        <time>2022-08-19T16:07:41Z</time>
      </trkpt>
      <trkpt lat="44.18138" lon="6.63944">
        <ele>1566.4000244141</ele>
        <time>2022-08-19T16:07:44Z</time>
      </trkpt>
      <trkpt lat="44.18126" lon="6.63936">
        <ele>1567</ele>
        <time>2022-08-19T16:07:51Z</time>
      </trkpt>
      <trkpt lat="44.1812" lon="6.63933">
        <ele>1567.5999755859</ele>
        <time>2022-08-19T16:07:54Z</time>
      </trkpt>
      <trkpt lat="44.18107" lon="6.63925">
        <ele>1568.1999511719</ele>
        <time>2022-08-19T16:08:01Z</time>
      </trkpt>
      <trkpt lat="44.18106" lon="6.63923">
        <ele>1568.1999511719</ele>
        <time>2022-08-19T16:08:02Z</time>
      </trkpt>
      <trkpt lat="44.18099" lon="6.63919">
        <ele>1569.1999511719</ele>
        <time>2022-08-19T16:08:06Z</time>
      </trkpt>
      <trkpt lat="44.18096" lon="6.63919">
        <ele>1569.5999755859</ele>
        <time>2022-08-19T16:08:08Z</time>
      </trkpt>
      <trkpt lat="44.18095" lon="6.6392">
        <ele>1569.8000488281</ele>
        <time>2022-08-19T16:08:09Z</time>
      </trkpt>
      <trkpt lat="44.18092" lon="6.63927">
        <ele>1570.1999511719</ele>
        <time>2022-08-19T16:08:12Z</time>
      </trkpt>
      <trkpt lat="44.18092" lon="6.63929">
        <ele>1570.4000244141</ele>
        <time>2022-08-19T16:08:13Z</time>
      </trkpt>
      <trkpt lat="44.18092" lon="6.63931">
        <ele>1570.5999755859</ele>
        <time>2022-08-19T16:08:14Z</time>
      </trkpt>
      <trkpt lat="44.18097" lon="6.63939">
        <ele>1571.4000244141</ele>
        <time>2022-08-19T16:08:18Z</time>
      </trkpt>
      <trkpt lat="44.18102" lon="6.63946">
        <ele>1571.8000488281</ele>
        <time>2022-08-19T16:08:22Z</time>
      </trkpt>
      <trkpt lat="44.18104" lon="6.63949">
        <ele>1572.1999511719</ele>
        <time>2022-08-19T16:08:24Z</time>
      </trkpt>
      <trkpt lat="44.18106" lon="6.63952">
        <ele>1572.4000244141</ele>
        <time>2022-08-19T16:08:26Z</time>
      </trkpt>
      <trkpt lat="44.18109" lon="6.63958">
        <ele>1573</ele>
        <time>2022-08-19T16:08:29Z</time>
      </trkpt>
      <trkpt lat="44.1811" lon="6.6396">
        <ele>1573.1999511719</ele>
        <time>2022-08-19T16:08:30Z</time>
      </trkpt>
      <trkpt lat="44.18111" lon="6.63964">
        <ele>1573.5999755859</ele>
        <time>2022-08-19T16:08:32Z</time>
      </trkpt>
      <trkpt lat="44.18115" lon="6.63973">
        <ele>1574.8000488281</ele>
        <time>2022-08-19T16:08:37Z</time>
      </trkpt>
      <trkpt lat="44.18115" lon="6.63976">
        <ele>1574.8000488281</ele>
        <time>2022-08-19T16:08:38Z</time>
      </trkpt>
      <trkpt lat="44.18116" lon="6.63988">
        <ele>1575.8000488281</ele>
        <time>2022-08-19T16:08:44Z</time>
      </trkpt>
      <trkpt lat="44.18117" lon="6.63995">
        <ele>1576</ele>
        <time>2022-08-19T16:08:47Z</time>
      </trkpt>
      <trkpt lat="44.18117" lon="6.64015">
        <ele>1576.8000488281</ele>
        <time>2022-08-19T16:08:55Z</time>
      </trkpt>
      <trkpt lat="44.18118" lon="6.64031">
        <ele>1577.4000244141</ele>
        <time>2022-08-19T16:09:02Z</time>
      </trkpt>
      <trkpt lat="44.18119" lon="6.64037">
        <ele>1577.8000488281</ele>
        <time>2022-08-19T16:09:05Z</time>
      </trkpt>
      <trkpt lat="44.1812" lon="6.64046">
        <ele>1578.4000244141</ele>
        <time>2022-08-19T16:09:09Z</time>
      </trkpt>
      <trkpt lat="44.18121" lon="6.6405">
        <ele>1578.8000488281</ele>
        <time>2022-08-19T16:09:11Z</time>
      </trkpt>
      <trkpt lat="44.18127" lon="6.64062">
        <ele>1580</ele>
        <time>2022-08-19T16:09:18Z</time>
      </trkpt>
      <trkpt lat="44.18134" lon="6.64071">
        <ele>1581</ele>
        <time>2022-08-19T16:09:25Z</time>
      </trkpt>
      <trkpt lat="44.18136" lon="6.64074">
        <ele>1581.4000244141</ele>
        <time>2022-08-19T16:09:27Z</time>
      </trkpt>
      <trkpt lat="44.18143" lon="6.64082">
        <ele>1582.1999511719</ele>
        <time>2022-08-19T16:09:33Z</time>
      </trkpt>
      <trkpt lat="44.18145" lon="6.64086">
        <ele>1582.5999755859</ele>
        <time>2022-08-19T16:09:35Z</time>
      </trkpt>
      <trkpt lat="44.1815" lon="6.64095">
        <ele>1583.1999511719</ele>
        <time>2022-08-19T16:09:40Z</time>
      </trkpt>
      <trkpt lat="44.18153" lon="6.64106">
        <ele>1583.8000488281</ele>
        <time>2022-08-19T16:09:46Z</time>
      </trkpt>
      <trkpt lat="44.18156" lon="6.64114">
        <ele>1584.4000244141</ele>
        <time>2022-08-19T16:09:50Z</time>
      </trkpt>
      <trkpt lat="44.1816" lon="6.64124">
        <ele>1585</ele>
        <time>2022-08-19T16:09:55Z</time>
      </trkpt>
      <trkpt lat="44.18161" lon="6.6413">
        <ele>1585.4000244141</ele>
        <time>2022-08-19T16:09:58Z</time>
      </trkpt>
      <trkpt lat="44.18164" lon="6.6414">
        <ele>1586</ele>
        <time>2022-08-19T16:10:03Z</time>
      </trkpt>
      <trkpt lat="44.18165" lon="6.64144">
        <ele>1586.4000244141</ele>
        <time>2022-08-19T16:10:05Z</time>
      </trkpt>
      <trkpt lat="44.18169" lon="6.64155">
        <ele>1587.1999511719</ele>
        <time>2022-08-19T16:10:11Z</time>
      </trkpt>
      <trkpt lat="44.18171" lon="6.64159">
        <ele>1587.5999755859</ele>
        <time>2022-08-19T16:10:13Z</time>
      </trkpt>
      <trkpt lat="44.18177" lon="6.64172">
        <ele>1588.4000244141</ele>
        <time>2022-08-19T16:10:20Z</time>
      </trkpt>
      <trkpt lat="44.18178" lon="6.64173">
        <ele>1588.5999755859</ele>
        <time>2022-08-19T16:10:21Z</time>
      </trkpt>
      <trkpt lat="44.18184" lon="6.64184">
        <ele>1589.5999755859</ele>
        <time>2022-08-19T16:10:28Z</time>
      </trkpt>
      <trkpt lat="44.18186" lon="6.64185">
        <ele>1589.8000488281</ele>
        <time>2022-08-19T16:10:29Z</time>
      </trkpt>
      <trkpt lat="44.18194" lon="6.64194">
        <ele>1590.5999755859</ele>
        <time>2022-08-19T16:10:36Z</time>
      </trkpt>
      <trkpt lat="44.18198" lon="6.64199">
        <ele>1591.1999511719</ele>
        <time>2022-08-19T16:10:40Z</time>
      </trkpt>
      <trkpt lat="44.18202" lon="6.64205">
        <ele>1591.8000488281</ele>
        <time>2022-08-19T16:10:44Z</time>
      </trkpt>
      <trkpt lat="44.18208" lon="6.6421">
        <ele>1592.4000244141</ele>
        <time>2022-08-19T16:10:49Z</time>
      </trkpt>
      <trkpt lat="44.18213" lon="6.64214">
        <ele>1592.8000488281</ele>
        <time>2022-08-19T16:10:53Z</time>
      </trkpt>
      <trkpt lat="44.18222" lon="6.64221">
        <ele>1593.5999755859</ele>
        <time>2022-08-19T16:11:00Z</time>
      </trkpt>
      <trkpt lat="44.18225" lon="6.64222">
        <ele>1593.8000488281</ele>
        <time>2022-08-19T16:11:02Z</time>
      </trkpt>
      <trkpt lat="44.18234" lon="6.64227">
        <ele>1594.5999755859</ele>
        <time>2022-08-19T16:11:08Z</time>
      </trkpt>
      <trkpt lat="44.18238" lon="6.64229">
        <ele>1595</ele>
        <time>2022-08-19T16:11:11Z</time>
      </trkpt>
      <trkpt lat="44.18245" lon="6.64233">
        <ele>1596</ele>
        <time>2022-08-19T16:11:16Z</time>
      </trkpt>
      <trkpt lat="44.18252" lon="6.64238">
        <ele>1597.1999511719</ele>
        <time>2022-08-19T16:11:21Z</time>
      </trkpt>
      <trkpt lat="44.18254" lon="6.64239">
        <ele>1597.5999755859</ele>
        <time>2022-08-19T16:11:23Z</time>
      </trkpt>
      <trkpt lat="44.18259" lon="6.64245">
        <ele>1598.1999511719</ele>
        <time>2022-08-19T16:11:27Z</time>
      </trkpt>
      <trkpt lat="44.18262" lon="6.6425">
        <ele>1598.5999755859</ele>
        <time>2022-08-19T16:11:31Z</time>
      </trkpt>
      <trkpt lat="44.18267" lon="6.64259">
        <ele>1599.4000244141</ele>
        <time>2022-08-19T16:11:36Z</time>
      </trkpt>
      <trkpt lat="44.18272" lon="6.64269">
        <ele>1600</ele>
        <time>2022-08-19T16:11:42Z</time>
      </trkpt>
      <trkpt lat="44.18274" lon="6.64273">
        <ele>1600.4000244141</ele>
        <time>2022-08-19T16:11:45Z</time>
      </trkpt>
      <trkpt lat="44.18282" lon="6.64284">
        <ele>1601.4000244141</ele>
        <time>2022-08-19T16:11:52Z</time>
      </trkpt>
      <trkpt lat="44.18286" lon="6.64289">
        <ele>1602.1999511719</ele>
        <time>2022-08-19T16:11:56Z</time>
      </trkpt>
      <trkpt lat="44.18288" lon="6.64292">
        <ele>1602.4000244141</ele>
        <time>2022-08-19T16:11:58Z</time>
      </trkpt>
      <trkpt lat="44.18289" lon="6.64293">
        <ele>1602.5999755859</ele>
        <time>2022-08-19T16:11:59Z</time>
      </trkpt>
      <trkpt lat="44.18292" lon="6.64297">
        <ele>1603.1999511719</ele>
        <time>2022-08-19T16:12:02Z</time>
      </trkpt>
      <trkpt lat="44.18296" lon="6.643">
        <ele>1603.5999755859</ele>
        <time>2022-08-19T16:12:05Z</time>
      </trkpt>
      <trkpt lat="44.18298" lon="6.64301">
        <ele>1603.8000488281</ele>
        <time>2022-08-19T16:12:06Z</time>
      </trkpt>
      <trkpt lat="44.18305" lon="6.6431">
        <ele>1604.8000488281</ele>
        <time>2022-08-19T16:12:13Z</time>
      </trkpt>
      <trkpt lat="44.18305" lon="6.64311">
        <ele>1605</ele>
        <time>2022-08-19T16:12:14Z</time>
      </trkpt>
      <trkpt lat="44.18306" lon="6.64313">
        <ele>1605.1999511719</ele>
        <time>2022-08-19T16:12:16Z</time>
      </trkpt>
      <trkpt lat="44.18306" lon="6.64313">
        <ele>1605.4000244141</ele>
        <time>2022-08-19T16:12:18Z</time>
      </trkpt>
      <trkpt lat="44.18306" lon="6.64313">
        <ele>1605.4000244141</ele>
        <time>2022-08-19T16:12:19Z</time>
      </trkpt>
      <trkpt lat="44.18306" lon="6.64313">
        <ele>1605.5999755859</ele>
        <time>2022-08-19T16:12:23Z</time>
      </trkpt>
      <trkpt lat="44.18314" lon="6.64307">
        <ele>1605.8000488281</ele>
        <time>2022-08-19T16:12:30Z</time>
      </trkpt>
      <trkpt lat="44.18315" lon="6.64306">
        <ele>1605.8000488281</ele>
        <time>2022-08-19T16:12:31Z</time>
      </trkpt>
      <trkpt lat="44.18327" lon="6.64301">
        <ele>1606.4000244141</ele>
        <time>2022-08-19T16:12:39Z</time>
      </trkpt>
      <trkpt lat="44.18332" lon="6.64297">
        <ele>1607</ele>
        <time>2022-08-19T16:12:43Z</time>
      </trkpt>
      <trkpt lat="44.18335" lon="6.64296">
        <ele>1607.1999511719</ele>
        <time>2022-08-19T16:12:45Z</time>
      </trkpt>
      <trkpt lat="44.1834" lon="6.64293">
        <ele>1607.5999755859</ele>
        <time>2022-08-19T16:12:49Z</time>
      </trkpt>
      <trkpt lat="44.18341" lon="6.64292">
        <ele>1607.8000488281</ele>
        <time>2022-08-19T16:12:50Z</time>
      </trkpt>
      <trkpt lat="44.18344" lon="6.64289">
        <ele>1608</ele>
        <time>2022-08-19T16:12:52Z</time>
      </trkpt>
      <trkpt lat="44.18352" lon="6.64282">
        <ele>1608.8000488281</ele>
        <time>2022-08-19T16:12:59Z</time>
      </trkpt>
      <trkpt lat="44.18355" lon="6.64281">
        <ele>1609.1999511719</ele>
        <time>2022-08-19T16:13:01Z</time>
      </trkpt>
      <trkpt lat="44.18362" lon="6.64276">
        <ele>1609.8000488281</ele>
        <time>2022-08-19T16:13:07Z</time>
      </trkpt>
      <trkpt lat="44.18365" lon="6.64276">
        <ele>1610.4000244141</ele>
        <time>2022-08-19T16:13:09Z</time>
      </trkpt>
      <trkpt lat="44.18371" lon="6.64275">
        <ele>1611.1999511719</ele>
        <time>2022-08-19T16:13:14Z</time>
      </trkpt>
      <trkpt lat="44.18374" lon="6.64275">
        <ele>1611.4000244141</ele>
        <time>2022-08-19T16:13:16Z</time>
      </trkpt>
      <trkpt lat="44.18376" lon="6.64275">
        <ele>1611.5999755859</ele>
        <time>2022-08-19T16:13:17Z</time>
      </trkpt>
      <trkpt lat="44.18387" lon="6.64274">
        <ele>1612.5999755859</ele>
        <time>2022-08-19T16:13:26Z</time>
      </trkpt>
      <trkpt lat="44.18389" lon="6.64274">
        <ele>1612.5999755859</ele>
        <time>2022-08-19T16:13:27Z</time>
      </trkpt>
      <trkpt lat="44.18397" lon="6.64273">
        <ele>1613.5999755859</ele>
        <time>2022-08-19T16:13:33Z</time>
      </trkpt>
      <trkpt lat="44.184" lon="6.64273">
        <ele>1613.8000488281</ele>
        <time>2022-08-19T16:13:35Z</time>
      </trkpt>
      <trkpt lat="44.18409" lon="6.64275">
        <ele>1614.5999755859</ele>
        <time>2022-08-19T16:13:42Z</time>
      </trkpt>
      <trkpt lat="44.18411" lon="6.64276">
        <ele>1615</ele>
        <time>2022-08-19T16:13:44Z</time>
      </trkpt>
      <trkpt lat="44.18423" lon="6.64281">
        <ele>1615.8000488281</ele>
        <time>2022-08-19T16:13:53Z</time>
      </trkpt>
      <trkpt lat="44.18425" lon="6.64283">
        <ele>1616</ele>
        <time>2022-08-19T16:13:55Z</time>
      </trkpt>
      <trkpt lat="44.18433" lon="6.64291">
        <ele>1616.8000488281</ele>
        <time>2022-08-19T16:14:02Z</time>
      </trkpt>
      <trkpt lat="44.18434" lon="6.64292">
        <ele>1617</ele>
        <time>2022-08-19T16:14:03Z</time>
      </trkpt>
      <trkpt lat="44.18434" lon="6.64294">
        <ele>1617.1999511719</ele>
        <time>2022-08-19T16:14:04Z</time>
      </trkpt>
      <trkpt lat="44.18438" lon="6.64303">
        <ele>1618</ele>
        <time>2022-08-19T16:14:09Z</time>
      </trkpt>
      <trkpt lat="44.18441" lon="6.64314">
        <ele>1618.8000488281</ele>
        <time>2022-08-19T16:14:15Z</time>
      </trkpt>
      <trkpt lat="44.18441" lon="6.64316">
        <ele>1619</ele>
        <time>2022-08-19T16:14:16Z</time>
      </trkpt>
      <trkpt lat="44.18439" lon="6.64333">
        <ele>1620</ele>
        <time>2022-08-19T16:14:24Z</time>
      </trkpt>
      <trkpt lat="44.18438" lon="6.64338">
        <ele>1620.1999511719</ele>
        <time>2022-08-19T16:14:26Z</time>
      </trkpt>
      <trkpt lat="44.18436" lon="6.6435">
        <ele>1621</ele>
        <time>2022-08-19T16:14:32Z</time>
      </trkpt>
      <trkpt lat="44.18436" lon="6.64352">
        <ele>1621.1999511719</ele>
        <time>2022-08-19T16:14:33Z</time>
      </trkpt>
      <trkpt lat="44.18436" lon="6.64368">
        <ele>1622.1999511719</ele>
        <time>2022-08-19T16:14:41Z</time>
      </trkpt>
      <trkpt lat="44.18437" lon="6.64376">
        <ele>1622.8000488281</ele>
        <time>2022-08-19T16:14:45Z</time>
      </trkpt>
      <trkpt lat="44.18438" lon="6.6438">
        <ele>1623.1999511719</ele>
        <time>2022-08-19T16:14:48Z</time>
      </trkpt>
      <trkpt lat="44.18439" lon="6.64387">
        <ele>1623.5999755859</ele>
        <time>2022-08-19T16:14:52Z</time>
      </trkpt>
      <trkpt lat="44.18444" lon="6.64396">
        <ele>1624.1999511719</ele>
        <time>2022-08-19T16:14:58Z</time>
      </trkpt>
      <trkpt lat="44.18445" lon="6.64397">
        <ele>1624.4000244141</ele>
        <time>2022-08-19T16:14:59Z</time>
      </trkpt>
      <trkpt lat="44.18452" lon="6.64406">
        <ele>1625.1999511719</ele>
        <time>2022-08-19T16:15:06Z</time>
      </trkpt>
      <trkpt lat="44.18455" lon="6.6441">
        <ele>1625.4000244141</ele>
        <time>2022-08-19T16:15:09Z</time>
      </trkpt>
      <trkpt lat="44.18462" lon="6.64422">
        <ele>1626.4000244141</ele>
        <time>2022-08-19T16:15:17Z</time>
      </trkpt>
      <trkpt lat="44.18464" lon="6.64425">
        <ele>1626.8000488281</ele>
        <time>2022-08-19T16:15:19Z</time>
      </trkpt>
      <trkpt lat="44.18469" lon="6.64435">
        <ele>1627.4000244141</ele>
        <time>2022-08-19T16:15:26Z</time>
      </trkpt>
      <trkpt lat="44.1847" lon="6.64436">
        <ele>1627.5999755859</ele>
        <time>2022-08-19T16:15:27Z</time>
      </trkpt>
      <trkpt lat="44.18477" lon="6.64445">
        <ele>1628.5999755859</ele>
        <time>2022-08-19T16:15:34Z</time>
      </trkpt>
      <trkpt lat="44.18486" lon="6.64449">
        <ele>1629.5999755859</ele>
        <time>2022-08-19T16:15:42Z</time>
      </trkpt>
      <trkpt lat="44.18487" lon="6.64448">
        <ele>1629.8000488281</ele>
        <time>2022-08-19T16:15:43Z</time>
      </trkpt>
      <trkpt lat="44.18496" lon="6.64448">
        <ele>1630.8000488281</ele>
        <time>2022-08-19T16:15:49Z</time>
      </trkpt>
      <trkpt lat="44.18497" lon="6.64448">
        <ele>1631</ele>
        <time>2022-08-19T16:15:50Z</time>
      </trkpt>
      <trkpt lat="44.18504" lon="6.64448">
        <ele>1631.8000488281</ele>
        <time>2022-08-19T16:15:56Z</time>
      </trkpt>
      <trkpt lat="44.18508" lon="6.64447">
        <ele>1632.1999511719</ele>
        <time>2022-08-19T16:15:59Z</time>
      </trkpt>
      <trkpt lat="44.18517" lon="6.64447">
        <ele>1632.8000488281</ele>
        <time>2022-08-19T16:16:05Z</time>
      </trkpt>
      <trkpt lat="44.1852" lon="6.64447">
        <ele>1633.1999511719</ele>
        <time>2022-08-19T16:16:08Z</time>
      </trkpt>
      <trkpt lat="44.18526" lon="6.64448">
        <ele>1633.8000488281</ele>
        <time>2022-08-19T16:16:12Z</time>
      </trkpt>
      <trkpt lat="44.18533" lon="6.64447">
        <ele>1634.4000244141</ele>
        <time>2022-08-19T16:16:17Z</time>
      </trkpt>
      <trkpt lat="44.18538" lon="6.64446">
        <ele>1634.8000488281</ele>
        <time>2022-08-19T16:16:21Z</time>
      </trkpt>
      <trkpt lat="44.18548" lon="6.64445">
        <ele>1635.8000488281</ele>
        <time>2022-08-19T16:16:28Z</time>
      </trkpt>
      <trkpt lat="44.18549" lon="6.64445">
        <ele>1636</ele>
        <time>2022-08-19T16:16:29Z</time>
      </trkpt>
      <trkpt lat="44.18557" lon="6.6445">
        <ele>1636.8000488281</ele>
        <time>2022-08-19T16:16:36Z</time>
      </trkpt>
      <trkpt lat="44.18559" lon="6.64453">
        <ele>1637</ele>
        <time>2022-08-19T16:16:38Z</time>
      </trkpt>
      <trkpt lat="44.18565" lon="6.64465">
        <ele>1638.1999511719</ele>
        <time>2022-08-19T16:16:46Z</time>
      </trkpt>
      <trkpt lat="44.18566" lon="6.64469">
        <ele>1638.4000244141</ele>
        <time>2022-08-19T16:16:48Z</time>
      </trkpt>
      <trkpt lat="44.18563" lon="6.64475">
        <ele>1639</ele>
        <time>2022-08-19T16:16:52Z</time>
      </trkpt>
      <trkpt lat="44.18562" lon="6.64476">
        <ele>1639.1999511719</ele>
        <time>2022-08-19T16:16:53Z</time>
      </trkpt>
      <trkpt lat="44.1856" lon="6.64487">
        <ele>1639.8000488281</ele>
        <time>2022-08-19T16:16:59Z</time>
      </trkpt>
      <trkpt lat="44.18559" lon="6.64493">
        <ele>1640.1999511719</ele>
        <time>2022-08-19T16:17:02Z</time>
      </trkpt>
      <trkpt lat="44.18557" lon="6.64511">
        <ele>1641.1999511719</ele>
        <time>2022-08-19T16:17:11Z</time>
      </trkpt>
      <trkpt lat="44.18557" lon="6.64513">
        <ele>1641.4000244141</ele>
        <time>2022-08-19T16:17:12Z</time>
      </trkpt>
      <trkpt lat="44.18556" lon="6.64523">
        <ele>1641.8000488281</ele>
        <time>2022-08-19T16:17:17Z</time>
      </trkpt>
      <trkpt lat="44.18556" lon="6.64528">
        <ele>1642.1999511719</ele>
        <time>2022-08-19T16:17:20Z</time>
      </trkpt>
      <trkpt lat="44.18557" lon="6.6453">
        <ele>1642.4000244141</ele>
        <time>2022-08-19T16:17:21Z</time>
      </trkpt>
      <trkpt lat="44.1856" lon="6.64536">
        <ele>1642.8000488281</ele>
        <time>2022-08-19T16:17:24Z</time>
      </trkpt>
      <trkpt lat="44.1856" lon="6.6454">
        <ele>1643</ele>
        <time>2022-08-19T16:17:26Z</time>
      </trkpt>
      <trkpt lat="44.18558" lon="6.64546">
        <ele>1643.4000244141</ele>
        <time>2022-08-19T16:17:30Z</time>
      </trkpt>
      <trkpt lat="44.18557" lon="6.64554">
        <ele>1644</ele>
        <time>2022-08-19T16:17:34Z</time>
      </trkpt>
      <trkpt lat="44.18558" lon="6.64561">
        <ele>1644.5999755859</ele>
        <time>2022-08-19T16:17:38Z</time>
      </trkpt>
      <trkpt lat="44.18558" lon="6.64566">
        <ele>1644.8000488281</ele>
        <time>2022-08-19T16:17:40Z</time>
      </trkpt>
      <trkpt lat="44.18557" lon="6.64579">
        <ele>1645.5999755859</ele>
        <time>2022-08-19T16:17:47Z</time>
      </trkpt>
      <trkpt lat="44.18557" lon="6.64581">
        <ele>1645.5999755859</ele>
        <time>2022-08-19T16:17:48Z</time>
      </trkpt>
      <trkpt lat="44.18558" lon="6.64596">
        <ele>1646.5999755859</ele>
        <time>2022-08-19T16:17:56Z</time>
      </trkpt>
      <trkpt lat="44.18558" lon="6.64598">
        <ele>1646.5999755859</ele>
        <time>2022-08-19T16:17:57Z</time>
      </trkpt>
      <trkpt lat="44.18558" lon="6.64614">
        <ele>1647.5999755859</ele>
        <time>2022-08-19T16:18:05Z</time>
      </trkpt>
      <trkpt lat="44.18558" lon="6.64617">
        <ele>1648</ele>
        <time>2022-08-19T16:18:07Z</time>
      </trkpt>
      <trkpt lat="44.18557" lon="6.64631">
        <ele>1648.5999755859</ele>
        <time>2022-08-19T16:18:14Z</time>
      </trkpt>
      <trkpt lat="44.18557" lon="6.64639">
        <ele>1649.1999511719</ele>
        <time>2022-08-19T16:18:18Z</time>
      </trkpt>
      <trkpt lat="44.18557" lon="6.64649">
        <ele>1649.8000488281</ele>
        <time>2022-08-19T16:18:24Z</time>
      </trkpt>
      <trkpt lat="44.18557" lon="6.64655">
        <ele>1650</ele>
        <time>2022-08-19T16:18:27Z</time>
      </trkpt>
      <trkpt lat="44.18556" lon="6.64665">
        <ele>1650.8000488281</ele>
        <time>2022-08-19T16:18:33Z</time>
      </trkpt>
      <trkpt lat="44.18558" lon="6.6467">
        <ele>1651.1999511719</ele>
        <time>2022-08-19T16:18:36Z</time>
      </trkpt>
      <trkpt lat="44.18556" lon="6.64681">
        <ele>1652</ele>
        <time>2022-08-19T16:18:42Z</time>
      </trkpt>
      <trkpt lat="44.18555" lon="6.64688">
        <ele>1652.4000244141</ele>
        <time>2022-08-19T16:18:46Z</time>
      </trkpt>
      <trkpt lat="44.18552" lon="6.64697">
        <ele>1653</ele>
        <time>2022-08-19T16:18:51Z</time>
      </trkpt>
      <trkpt lat="44.18551" lon="6.64703">
        <ele>1653.1999511719</ele>
        <time>2022-08-19T16:18:54Z</time>
      </trkpt>
      <trkpt lat="44.18549" lon="6.64716">
        <ele>1654</ele>
        <time>2022-08-19T16:19:02Z</time>
      </trkpt>
      <trkpt lat="44.18549" lon="6.64718">
        <ele>1654.1999511719</ele>
        <time>2022-08-19T16:19:03Z</time>
      </trkpt>
      <trkpt lat="44.1855" lon="6.6473">
        <ele>1655.1999511719</ele>
        <time>2022-08-19T16:19:10Z</time>
      </trkpt>
      <trkpt lat="44.1855" lon="6.64733">
        <ele>1655.4000244141</ele>
        <time>2022-08-19T16:19:11Z</time>
      </trkpt>
      <trkpt lat="44.18551" lon="6.64739">
        <ele>1655.8000488281</ele>
        <time>2022-08-19T16:19:14Z</time>
      </trkpt>
      <trkpt lat="44.18551" lon="6.64745">
        <ele>1656.1999511719</ele>
        <time>2022-08-19T16:19:17Z</time>
      </trkpt>
      <trkpt lat="44.18552" lon="6.64756">
        <ele>1657</ele>
        <time>2022-08-19T16:19:23Z</time>
      </trkpt>
      <trkpt lat="44.18553" lon="6.6476">
        <ele>1657.4000244141</ele>
        <time>2022-08-19T16:19:25Z</time>
      </trkpt>
      <trkpt lat="44.18552" lon="6.64763">
        <ele>1657.5999755859</ele>
        <time>2022-08-19T16:19:27Z</time>
      </trkpt>
      <trkpt lat="44.18553" lon="6.64766">
        <ele>1657.8000488281</ele>
        <time>2022-08-19T16:19:29Z</time>
      </trkpt>
      <trkpt lat="44.18553" lon="6.64772">
        <ele>1658.1999511719</ele>
        <time>2022-08-19T16:19:32Z</time>
      </trkpt>
      <trkpt lat="44.18553" lon="6.64776">
        <ele>1658.4000244141</ele>
        <time>2022-08-19T16:19:34Z</time>
      </trkpt>
      <trkpt lat="44.18552" lon="6.64778">
        <ele>1658.5999755859</ele>
        <time>2022-08-19T16:19:35Z</time>
      </trkpt>
      <trkpt lat="44.18552" lon="6.64781">
        <ele>1658.8000488281</ele>
        <time>2022-08-19T16:19:37Z</time>
      </trkpt>
      <trkpt lat="44.18552" lon="6.64791">
        <ele>1659.1999511719</ele>
        <time>2022-08-19T16:19:42Z</time>
      </trkpt>
      <trkpt lat="44.18552" lon="6.64796">
        <ele>1659.4000244141</ele>
        <time>2022-08-19T16:19:44Z</time>
      </trkpt>
      <trkpt lat="44.18554" lon="6.64813">
        <ele>1660.1999511719</ele>
        <time>2022-08-19T16:19:51Z</time>
      </trkpt>
      <trkpt lat="44.18555" lon="6.64818">
        <ele>1660.4000244141</ele>
        <time>2022-08-19T16:19:53Z</time>
      </trkpt>
      <trkpt lat="44.1856" lon="6.6483">
        <ele>1661</ele>
        <time>2022-08-19T16:19:58Z</time>
      </trkpt>
      <trkpt lat="44.18567" lon="6.64837">
        <ele>1661.4000244141</ele>
        <time>2022-08-19T16:20:03Z</time>
      </trkpt>
      <trkpt lat="44.1857" lon="6.6484">
        <ele>1661.8000488281</ele>
        <time>2022-08-19T16:20:05Z</time>
      </trkpt>
      <trkpt lat="44.1858" lon="6.64847">
        <ele>1662.5999755859</ele>
        <time>2022-08-19T16:20:10Z</time>
      </trkpt>
      <trkpt lat="44.18585" lon="6.64853">
        <ele>1663.4000244141</ele>
        <time>2022-08-19T16:20:14Z</time>
      </trkpt>
      <trkpt lat="44.18586" lon="6.64857">
        <ele>1663.5999755859</ele>
        <time>2022-08-19T16:20:16Z</time>
      </trkpt>
      <trkpt lat="44.18586" lon="6.64866">
        <ele>1664.4000244141</ele>
        <time>2022-08-19T16:20:20Z</time>
      </trkpt>
      <trkpt lat="44.18584" lon="6.64873">
        <ele>1664.8000488281</ele>
        <time>2022-08-19T16:20:23Z</time>
      </trkpt>
      <trkpt lat="44.1858" lon="6.64896">
        <ele>1665.1999511719</ele>
        <time>2022-08-19T16:20:30Z</time>
      </trkpt>
      <trkpt lat="44.1858" lon="6.64904">
        <ele>1665.1999511719</ele>
        <time>2022-08-19T16:20:32Z</time>
      </trkpt>
      <trkpt lat="44.18581" lon="6.64928">
        <ele>1665.1999511719</ele>
        <time>2022-08-19T16:20:37Z</time>
      </trkpt>
      <trkpt lat="44.18587" lon="6.6496">
        <ele>1665.4000244141</ele>
        <time>2022-08-19T16:20:43Z</time>
      </trkpt>
      <trkpt lat="44.18599" lon="6.64969">
        <ele>1665.4000244141</ele>
        <time>2022-08-19T16:20:47Z</time>
      </trkpt>
      <trkpt lat="44.18607" lon="6.64971">
        <ele>1665.5999755859</ele>
        <time>2022-08-19T16:20:50Z</time>
      </trkpt>
      <trkpt lat="44.18609" lon="6.64972">
        <ele>1665.8000488281</ele>
        <time>2022-08-19T16:20:51Z</time>
      </trkpt>
      <trkpt lat="44.18616" lon="6.64976">
        <ele>1666.4000244141</ele>
        <time>2022-08-19T16:20:54Z</time>
      </trkpt>
      <trkpt lat="44.18621" lon="6.64981">
        <ele>1666.8000488281</ele>
        <time>2022-08-19T16:20:57Z</time>
      </trkpt>
      <trkpt lat="44.18624" lon="6.64984">
        <ele>1667.4000244141</ele>
        <time>2022-08-19T16:21:00Z</time>
      </trkpt>
      <trkpt lat="44.18629" lon="6.64987">
        <ele>1667.8000488281</ele>
        <time>2022-08-19T16:21:03Z</time>
      </trkpt>
      <trkpt lat="44.18638" lon="6.64992">
        <ele>1668.8000488281</ele>
        <time>2022-08-19T16:21:08Z</time>
      </trkpt>
      <trkpt lat="44.18641" lon="6.64995">
        <ele>1669.1999511719</ele>
        <time>2022-08-19T16:21:10Z</time>
      </trkpt>
      <trkpt lat="44.18647" lon="6.65002">
        <ele>1670</ele>
        <time>2022-08-19T16:21:14Z</time>
      </trkpt>
      <trkpt lat="44.18651" lon="6.65011">
        <ele>1670.8000488281</ele>
        <time>2022-08-19T16:21:18Z</time>
      </trkpt>
      <trkpt lat="44.18654" lon="6.65015">
        <ele>1671.1999511719</ele>
        <time>2022-08-19T16:21:20Z</time>
      </trkpt>
      <trkpt lat="44.18658" lon="6.65026">
        <ele>1672</ele>
        <time>2022-08-19T16:21:25Z</time>
      </trkpt>
      <trkpt lat="44.1866" lon="6.65031">
        <ele>1672.4000244141</ele>
        <time>2022-08-19T16:21:27Z</time>
      </trkpt>
      <trkpt lat="44.18666" lon="6.65045">
        <ele>1673</ele>
        <time>2022-08-19T16:21:33Z</time>
      </trkpt>
      <trkpt lat="44.18669" lon="6.65054">
        <ele>1673.4000244141</ele>
        <time>2022-08-19T16:21:37Z</time>
      </trkpt>
      <trkpt lat="44.18677" lon="6.65067">
        <ele>1674.1999511719</ele>
        <time>2022-08-19T16:21:43Z</time>
      </trkpt>
      <trkpt lat="44.18681" lon="6.65074">
        <ele>1674.5999755859</ele>
        <time>2022-08-19T16:21:46Z</time>
      </trkpt>
      <trkpt lat="44.18683" lon="6.65077">
        <ele>1674.5999755859</ele>
        <time>2022-08-19T16:21:47Z</time>
      </trkpt>
      <trkpt lat="44.18686" lon="6.65082">
        <ele>1674.8000488281</ele>
        <time>2022-08-19T16:21:50Z</time>
      </trkpt>
      <trkpt lat="44.18688" lon="6.65085">
        <ele>1675</ele>
        <time>2022-08-19T16:21:51Z</time>
      </trkpt>
      <trkpt lat="44.1869" lon="6.65097">
        <ele>1675.4000244141</ele>
        <time>2022-08-19T16:21:55Z</time>
      </trkpt>
      <trkpt lat="44.18691" lon="6.651">
        <ele>1675.5999755859</ele>
        <time>2022-08-19T16:21:56Z</time>
      </trkpt>
      <trkpt lat="44.18691" lon="6.65118">
        <ele>1676</ele>
        <time>2022-08-19T16:22:02Z</time>
      </trkpt>
      <trkpt lat="44.1869" lon="6.65136">
        <ele>1676.5999755859</ele>
        <time>2022-08-19T16:22:08Z</time>
      </trkpt>
      <trkpt lat="44.1869" lon="6.65145">
        <ele>1677</ele>
        <time>2022-08-19T16:22:11Z</time>
      </trkpt>
      <trkpt lat="44.18692" lon="6.65164">
        <ele>1677.5999755859</ele>
        <time>2022-08-19T16:22:17Z</time>
      </trkpt>
      <trkpt lat="44.18692" lon="6.65166">
        <ele>1677.8000488281</ele>
        <time>2022-08-19T16:22:18Z</time>
      </trkpt>
      <trkpt lat="44.18695" lon="6.65184">
        <ele>1678.8000488281</ele>
        <time>2022-08-19T16:22:24Z</time>
      </trkpt>
      <trkpt lat="44.187" lon="6.65206">
        <ele>1679.8000488281</ele>
        <time>2022-08-19T16:22:32Z</time>
      </trkpt>
      <trkpt lat="44.18701" lon="6.65209">
        <ele>1680</ele>
        <time>2022-08-19T16:22:33Z</time>
      </trkpt>
      <trkpt lat="44.18704" lon="6.65222">
        <ele>1680.8000488281</ele>
        <time>2022-08-19T16:22:38Z</time>
      </trkpt>
      <trkpt lat="44.18708" lon="6.65237">
        <ele>1681.5999755859</ele>
        <time>2022-08-19T16:22:44Z</time>
      </trkpt>
      <trkpt lat="44.1871" lon="6.65244">
        <ele>1681.8000488281</ele>
        <time>2022-08-19T16:22:47Z</time>
      </trkpt>
      <trkpt lat="44.18713" lon="6.6526">
        <ele>1682.4000244141</ele>
        <time>2022-08-19T16:22:53Z</time>
      </trkpt>
      <trkpt lat="44.18714" lon="6.65273">
        <ele>1682.8000488281</ele>
        <time>2022-08-19T16:22:57Z</time>
      </trkpt>
      <trkpt lat="44.18713" lon="6.65289">
        <ele>1682.8000488281</ele>
        <time>2022-08-19T16:23:01Z</time>
      </trkpt>
      <trkpt lat="44.1871" lon="6.65328">
        <ele>1682.5999755859</ele>
        <time>2022-08-19T16:23:08Z</time>
      </trkpt>
      <trkpt lat="44.18712" lon="6.65347">
        <ele>1682.1999511719</ele>
        <time>2022-08-19T16:23:11Z</time>
      </trkpt>
      <trkpt lat="44.18717" lon="6.65357">
        <ele>1682</ele>
        <time>2022-08-19T16:23:13Z</time>
      </trkpt>
      <trkpt lat="44.18725" lon="6.65365">
        <ele>1682.8000488281</ele>
        <time>2022-08-19T16:23:17Z</time>
      </trkpt>
      <trkpt lat="44.18727" lon="6.65365">
        <ele>1683.1999511719</ele>
        <time>2022-08-19T16:23:18Z</time>
      </trkpt>
      <trkpt lat="44.18734" lon="6.65369">
        <ele>1684</ele>
        <time>2022-08-19T16:23:22Z</time>
      </trkpt>
      <trkpt lat="44.18736" lon="6.6537">
        <ele>1684.1999511719</ele>
        <time>2022-08-19T16:23:23Z</time>
      </trkpt>
      <trkpt lat="44.1874" lon="6.65379">
        <ele>1685.4000244141</ele>
        <time>2022-08-19T16:23:30Z</time>
      </trkpt>
      <trkpt lat="44.18745" lon="6.65379">
        <ele>1685.5999755859</ele>
        <time>2022-08-19T16:23:36Z</time>
      </trkpt>
      <trkpt lat="44.18747" lon="6.65381">
        <ele>1685.5999755859</ele>
        <time>2022-08-19T16:23:37Z</time>
      </trkpt>
      <trkpt lat="44.18751" lon="6.65392">
        <ele>1685.4000244141</ele>
        <time>2022-08-19T16:23:42Z</time>
      </trkpt>
      <trkpt lat="44.18758" lon="6.65412">
        <ele>1685.5999755859</ele>
        <time>2022-08-19T16:23:50Z</time>
      </trkpt>
      <trkpt lat="44.18763" lon="6.65427">
        <ele>1685.8000488281</ele>
        <time>2022-08-19T16:23:55Z</time>
      </trkpt>
      <trkpt lat="44.18767" lon="6.65445">
        <ele>1686</ele>
        <time>2022-08-19T16:24:00Z</time>
      </trkpt>
      <trkpt lat="44.1877" lon="6.65452">
        <ele>1686.1999511719</ele>
        <time>2022-08-19T16:24:02Z</time>
      </trkpt>
      <trkpt lat="44.18775" lon="6.65462">
        <ele>1686.4000244141</ele>
        <time>2022-08-19T16:24:05Z</time>
      </trkpt>
      <trkpt lat="44.18779" lon="6.65468">
        <ele>1686.5999755859</ele>
        <time>2022-08-19T16:24:07Z</time>
      </trkpt>
      <trkpt lat="44.18789" lon="6.65484">
        <ele>1687.1999511719</ele>
        <time>2022-08-19T16:24:13Z</time>
      </trkpt>
      <trkpt lat="44.18791" lon="6.65487">
        <ele>1687.4000244141</ele>
        <time>2022-08-19T16:24:14Z</time>
      </trkpt>
      <trkpt lat="44.18795" lon="6.65493">
        <ele>1687.8000488281</ele>
        <time>2022-08-19T16:24:16Z</time>
      </trkpt>
      <trkpt lat="44.188" lon="6.65511">
        <ele>1688.4000244141</ele>
        <time>2022-08-19T16:24:21Z</time>
      </trkpt>
      <trkpt lat="44.188" lon="6.65515">
        <ele>1688.5999755859</ele>
        <time>2022-08-19T16:24:22Z</time>
      </trkpt>
      <trkpt lat="44.18803" lon="6.65542">
        <ele>1689.1999511719</ele>
        <time>2022-08-19T16:24:29Z</time>
      </trkpt>
      <trkpt lat="44.18806" lon="6.65566">
        <ele>1689.8000488281</ele>
        <time>2022-08-19T16:24:35Z</time>
      </trkpt>
      <trkpt lat="44.18806" lon="6.6557">
        <ele>1689.8000488281</ele>
        <time>2022-08-19T16:24:36Z</time>
      </trkpt>
      <trkpt lat="44.18812" lon="6.65598">
        <ele>1690.5999755859</ele>
        <time>2022-08-19T16:24:44Z</time>
      </trkpt>
      <trkpt lat="44.18815" lon="6.65604">
        <ele>1690.8000488281</ele>
        <time>2022-08-19T16:24:46Z</time>
      </trkpt>
      <trkpt lat="44.1882" lon="6.6562">
        <ele>1691.5999755859</ele>
        <time>2022-08-19T16:24:51Z</time>
      </trkpt>
      <trkpt lat="44.18818" lon="6.6563">
        <ele>1691.8000488281</ele>
        <time>2022-08-19T16:24:54Z</time>
      </trkpt>
      <trkpt lat="44.18814" lon="6.6564">
        <ele>1692</ele>
        <time>2022-08-19T16:24:57Z</time>
      </trkpt>
      <trkpt lat="44.18808" lon="6.65669">
        <ele>1692.4000244141</ele>
        <time>2022-08-19T16:25:05Z</time>
      </trkpt>
      <trkpt lat="44.18808" lon="6.65684">
        <ele>1692.8000488281</ele>
        <time>2022-08-19T16:25:09Z</time>
      </trkpt>
      <trkpt lat="44.18806" lon="6.657">
        <ele>1693.1999511719</ele>
        <time>2022-08-19T16:25:14Z</time>
      </trkpt>
      <trkpt lat="44.18804" lon="6.65708">
        <ele>1693.4000244141</ele>
        <time>2022-08-19T16:25:16Z</time>
      </trkpt>
      <trkpt lat="44.18804" lon="6.6573">
        <ele>1693.5999755859</ele>
        <time>2022-08-19T16:25:22Z</time>
      </trkpt>
      <trkpt lat="44.18809" lon="6.65737">
        <ele>1693.8000488281</ele>
        <time>2022-08-19T16:25:24Z</time>
      </trkpt>
      <trkpt lat="44.18816" lon="6.65744">
        <ele>1694.1999511719</ele>
        <time>2022-08-19T16:25:27Z</time>
      </trkpt>
      <trkpt lat="44.18835" lon="6.65752">
        <ele>1695</ele>
        <time>2022-08-19T16:25:34Z</time>
      </trkpt>
      <trkpt lat="44.18849" lon="6.65768">
        <ele>1695.4000244141</ele>
        <time>2022-08-19T16:25:40Z</time>
      </trkpt>
      <trkpt lat="44.18872" lon="6.65796">
        <ele>1696</ele>
        <time>2022-08-19T16:25:49Z</time>
      </trkpt>
      <trkpt lat="44.18895" lon="6.65824">
        <ele>1696.8000488281</ele>
        <time>2022-08-19T16:25:58Z</time>
      </trkpt>
      <trkpt lat="44.189" lon="6.65831">
        <ele>1697</ele>
        <time>2022-08-19T16:26:00Z</time>
      </trkpt>
      <trkpt lat="44.18913" lon="6.65848">
        <ele>1697.5999755859</ele>
        <time>2022-08-19T16:26:05Z</time>
      </trkpt>
      <trkpt lat="44.18921" lon="6.65867">
        <ele>1698</ele>
        <time>2022-08-19T16:26:10Z</time>
      </trkpt>
      <trkpt lat="44.18923" lon="6.65876">
        <ele>1698.1999511719</ele>
        <time>2022-08-19T16:26:12Z</time>
      </trkpt>
      <trkpt lat="44.18933" lon="6.659">
        <ele>1698.5999755859</ele>
        <time>2022-08-19T16:26:18Z</time>
      </trkpt>
      <trkpt lat="44.18945" lon="6.65915">
        <ele>1699</ele>
        <time>2022-08-19T16:26:24Z</time>
      </trkpt>
      <trkpt lat="44.18946" lon="6.65917">
        <ele>1699.1999511719</ele>
        <time>2022-08-19T16:26:25Z</time>
      </trkpt>
      <trkpt lat="44.18946" lon="6.65924">
        <ele>1699.5999755859</ele>
        <time>2022-08-19T16:26:28Z</time>
      </trkpt>
      <trkpt lat="44.18946" lon="6.65934">
        <ele>1699.8000488281</ele>
        <time>2022-08-19T16:26:32Z</time>
      </trkpt>
      <trkpt lat="44.18947" lon="6.65948">
        <ele>1700</ele>
        <time>2022-08-19T16:26:37Z</time>
      </trkpt>
      <trkpt lat="44.18948" lon="6.65957">
        <ele>1700.1999511719</ele>
        <time>2022-08-19T16:26:40Z</time>
      </trkpt>
      <trkpt lat="44.18948" lon="6.65963">
        <ele>1700.1999511719</ele>
        <time>2022-08-19T16:26:42Z</time>
      </trkpt>
      <trkpt lat="44.18949" lon="6.6598">
        <ele>1700.4000244141</ele>
        <time>2022-08-19T16:26:47Z</time>
      </trkpt>
      <trkpt lat="44.18949" lon="6.65992">
        <ele>1700.5999755859</ele>
        <time>2022-08-19T16:26:50Z</time>
      </trkpt>
      <trkpt lat="44.18952" lon="6.6601">
        <ele>1700.8000488281</ele>
        <time>2022-08-19T16:26:55Z</time>
      </trkpt>
      <trkpt lat="44.18954" lon="6.66017">
        <ele>1701.1999511719</ele>
        <time>2022-08-19T16:26:57Z</time>
      </trkpt>
      <trkpt lat="44.18959" lon="6.66027">
        <ele>1701.4000244141</ele>
        <time>2022-08-19T16:27:01Z</time>
      </trkpt>
      <trkpt lat="44.18972" lon="6.66039">
        <ele>1702</ele>
        <time>2022-08-19T16:27:07Z</time>
      </trkpt>
      <trkpt lat="44.18975" lon="6.66044">
        <ele>1702.1999511719</ele>
        <time>2022-08-19T16:27:09Z</time>
      </trkpt>
      <trkpt lat="44.18978" lon="6.66055">
        <ele>1702.4000244141</ele>
        <time>2022-08-19T16:27:12Z</time>
      </trkpt>
      <trkpt lat="44.1898" lon="6.66073">
        <ele>1702.8000488281</ele>
        <time>2022-08-19T16:27:16Z</time>
      </trkpt>
      <trkpt lat="44.18984" lon="6.6608">
        <ele>1703</ele>
        <time>2022-08-19T16:27:18Z</time>
      </trkpt>
      <trkpt lat="44.18992" lon="6.66087">
        <ele>1703.1999511719</ele>
        <time>2022-08-19T16:27:21Z</time>
      </trkpt>
      <trkpt lat="44.18995" lon="6.66088">
        <ele>1703.1999511719</ele>
        <time>2022-08-19T16:27:22Z</time>
      </trkpt>
      <trkpt lat="44.18998" lon="6.66089">
        <ele>1703.4000244141</ele>
        <time>2022-08-19T16:27:23Z</time>
      </trkpt>
      <trkpt lat="44.19015" lon="6.661">
        <ele>1704</ele>
        <time>2022-08-19T16:27:29Z</time>
      </trkpt>
      <trkpt lat="44.1902" lon="6.66112">
        <ele>1704.4000244141</ele>
        <time>2022-08-19T16:27:32Z</time>
      </trkpt>
      <trkpt lat="44.19021" lon="6.66121">
        <ele>1704.5999755859</ele>
        <time>2022-08-19T16:27:34Z</time>
      </trkpt>
      <trkpt lat="44.19021" lon="6.66143">
        <ele>1705</ele>
        <time>2022-08-19T16:27:39Z</time>
      </trkpt>
      <trkpt lat="44.19023" lon="6.66155">
        <ele>1705.1999511719</ele>
        <time>2022-08-19T16:27:42Z</time>
      </trkpt>
      <trkpt lat="44.19025" lon="6.66157">
        <ele>1705.4000244141</ele>
        <time>2022-08-19T16:27:43Z</time>
      </trkpt>
      <trkpt lat="44.19036" lon="6.66159">
        <ele>1705.5999755859</ele>
        <time>2022-08-19T16:27:47Z</time>
      </trkpt>
      <trkpt lat="44.19059" lon="6.66159">
        <ele>1706.4000244141</ele>
        <time>2022-08-19T16:27:55Z</time>
      </trkpt>
      <trkpt lat="44.19061" lon="6.6616">
        <ele>1706.4000244141</ele>
        <time>2022-08-19T16:27:56Z</time>
      </trkpt>
      <trkpt lat="44.19075" lon="6.66172">
        <ele>1707</ele>
        <time>2022-08-19T16:28:02Z</time>
      </trkpt>
      <trkpt lat="44.19082" lon="6.66182">
        <ele>1707.5999755859</ele>
        <time>2022-08-19T16:28:06Z</time>
      </trkpt>
      <trkpt lat="44.19093" lon="6.66196">
        <ele>1708.5999755859</ele>
        <time>2022-08-19T16:28:12Z</time>
      </trkpt>
      <trkpt lat="44.19106" lon="6.66213">
        <ele>1709.5999755859</ele>
        <time>2022-08-19T16:28:19Z</time>
      </trkpt>
      <trkpt lat="44.19108" lon="6.66215">
        <ele>1709.5999755859</ele>
        <time>2022-08-19T16:28:20Z</time>
      </trkpt>
      <trkpt lat="44.1911" lon="6.66218">
        <ele>1709.8000488281</ele>
        <time>2022-08-19T16:28:21Z</time>
      </trkpt>
      <trkpt lat="44.1912" lon="6.6624">
        <ele>1710.5999755859</ele>
        <time>2022-08-19T16:28:28Z</time>
      </trkpt>
      <trkpt lat="44.19123" lon="6.66246">
        <ele>1710.5999755859</ele>
        <time>2022-08-19T16:28:30Z</time>
      </trkpt>
      <trkpt lat="44.19127" lon="6.66259">
        <ele>1711.1999511719</ele>
        <time>2022-08-19T16:28:34Z</time>
      </trkpt>
      <trkpt lat="44.19134" lon="6.66278">
        <ele>1711.8000488281</ele>
        <time>2022-08-19T16:28:40Z</time>
      </trkpt>
      <trkpt lat="44.19137" lon="6.66289">
        <ele>1712.4000244141</ele>
        <time>2022-08-19T16:28:44Z</time>
      </trkpt>
      <trkpt lat="44.19139" lon="6.66296">
        <ele>1712.8000488281</ele>
        <time>2022-08-19T16:28:47Z</time>
      </trkpt>
      <trkpt lat="44.19141" lon="6.66307">
        <ele>1713.4000244141</ele>
        <time>2022-08-19T16:28:51Z</time>
      </trkpt>
      <trkpt lat="44.19142" lon="6.66318">
        <ele>1713.8000488281</ele>
        <time>2022-08-19T16:28:55Z</time>
      </trkpt>
      <trkpt lat="44.19143" lon="6.66332">
        <ele>1714.1999511719</ele>
        <time>2022-08-19T16:29:00Z</time>
      </trkpt>
      <trkpt lat="44.19142" lon="6.66356">
        <ele>1714.8000488281</ele>
        <time>2022-08-19T16:29:08Z</time>
      </trkpt>
      <trkpt lat="44.19142" lon="6.66359">
        <ele>1715</ele>
        <time>2022-08-19T16:29:09Z</time>
      </trkpt>
      <trkpt lat="44.1914" lon="6.66365">
        <ele>1715.4000244141</ele>
        <time>2022-08-19T16:29:12Z</time>
      </trkpt>
      <trkpt lat="44.1914" lon="6.66365">
        <ele>1715.4000244141</ele>
        <time>2022-08-19T16:29:14Z</time>
      </trkpt>
      <trkpt lat="44.1914" lon="6.66365">
        <ele>1715.5999755859</ele>
        <time>2022-08-19T16:29:15Z</time>
      </trkpt>
      <trkpt lat="44.1914" lon="6.66365">
        <ele>1715.5999755859</ele>
        <time>2022-08-19T16:29:17Z</time>
      </trkpt>
      <trkpt lat="44.1914" lon="6.66365">
        <ele>1715.5999755859</ele>
        <time>2022-08-19T16:29:21Z</time>
      </trkpt>
      <trkpt lat="44.1914" lon="6.66365">
        <ele>1715.4000244141</ele>
        <time>2022-08-19T16:29:35Z</time>
      </trkpt>
      <trkpt lat="44.1914" lon="6.66365">
        <ele>1715</ele>
        <time>2022-08-19T16:29:42Z</time>
      </trkpt>
      <trkpt lat="44.1914" lon="6.66369">
        <ele>1715.1999511719</ele>
        <time>2022-08-19T16:29:47Z</time>
      </trkpt>
      <trkpt lat="44.19139" lon="6.66377">
        <ele>1715.1999511719</ele>
        <time>2022-08-19T16:29:50Z</time>
      </trkpt>
      <trkpt lat="44.19137" lon="6.66388">
        <ele>1715.1999511719</ele>
        <time>2022-08-19T16:29:54Z</time>
      </trkpt>
      <trkpt lat="44.19134" lon="6.66409">
        <ele>1715.4000244141</ele>
        <time>2022-08-19T16:30:01Z</time>
      </trkpt>
      <trkpt lat="44.19133" lon="6.66415">
        <ele>1715.5999755859</ele>
        <time>2022-08-19T16:30:03Z</time>
      </trkpt>
      <trkpt lat="44.19134" lon="6.66419">
        <ele>1715.5999755859</ele>
        <time>2022-08-19T16:30:04Z</time>
      </trkpt>
      <trkpt lat="44.19135" lon="6.66424">
        <ele>1715.8000488281</ele>
        <time>2022-08-19T16:30:06Z</time>
      </trkpt>
      <trkpt lat="44.19138" lon="6.66431">
        <ele>1716</ele>
        <time>2022-08-19T16:30:09Z</time>
      </trkpt>
      <trkpt lat="44.19146" lon="6.6644">
        <ele>1716.5999755859</ele>
        <time>2022-08-19T16:30:15Z</time>
      </trkpt>
      <trkpt lat="44.19149" lon="6.66443">
        <ele>1717</ele>
        <time>2022-08-19T16:30:17Z</time>
      </trkpt>
      <trkpt lat="44.19156" lon="6.6645">
        <ele>1717.4000244141</ele>
        <time>2022-08-19T16:30:22Z</time>
      </trkpt>
      <trkpt lat="44.19157" lon="6.66454">
        <ele>1717.8000488281</ele>
        <time>2022-08-19T16:30:24Z</time>
      </trkpt>
      <trkpt lat="44.19157" lon="6.66455">
        <ele>1718</ele>
        <time>2022-08-19T16:30:26Z</time>
      </trkpt>
      <trkpt lat="44.19157" lon="6.66455">
        <ele>1718.1999511719</ele>
        <time>2022-08-19T16:30:30Z</time>
      </trkpt>
      <trkpt lat="44.19157" lon="6.66456">
        <ele>1718.1999511719</ele>
        <time>2022-08-19T16:30:35Z</time>
      </trkpt>
      <trkpt lat="44.19157" lon="6.66456">
        <ele>1717.8000488281</ele>
        <time>2022-08-19T16:30:41Z</time>
      </trkpt>
      <trkpt lat="44.19157" lon="6.66456">
        <ele>1717.8000488281</ele>
        <time>2022-08-19T16:30:48Z</time>
      </trkpt>
      <trkpt lat="44.19157" lon="6.66456">
        <ele>1717.5999755859</ele>
        <time>2022-08-19T16:30:57Z</time>
      </trkpt>
      <trkpt lat="44.19157" lon="6.66456">
        <ele>1718</ele>
        <time>2022-08-19T16:31:06Z</time>
      </trkpt>
      <trkpt lat="44.19155" lon="6.66454">
        <ele>1718.1999511719</ele>
        <time>2022-08-19T16:31:16Z</time>
      </trkpt>
      <trkpt lat="44.19154" lon="6.66456">
        <ele>1718.1999511719</ele>
        <time>2022-08-19T16:31:25Z</time>
      </trkpt>
      <trkpt lat="44.19154" lon="6.66456">
        <ele>1718.1999511719</ele>
        <time>2022-08-19T16:31:32Z</time>
      </trkpt>
      <trkpt lat="44.19154" lon="6.66456">
        <ele>1718.5999755859</ele>
        <time>2022-08-19T16:31:34Z</time>
      </trkpt>
      <trkpt lat="44.19154" lon="6.66457">
        <ele>1718.5999755859</ele>
        <time>2022-08-19T16:31:41Z</time>
      </trkpt>
      <trkpt lat="44.19154" lon="6.66457">
        <ele>1718.5999755859</ele>
        <time>2022-08-19T16:31:42Z</time>
      </trkpt>
      <trkpt lat="44.19154" lon="6.66457">
        <ele>1718.5999755859</ele>
        <time>2022-08-19T16:31:45Z</time>
      </trkpt>
      <trkpt lat="44.19154" lon="6.66457">
        <ele>1718.5999755859</ele>
        <time>2022-08-19T16:31:47Z</time>
      </trkpt>
      <trkpt lat="44.19157" lon="6.66457">
        <ele>1718.5999755859</ele>
        <time>2022-08-19T16:31:54Z</time>
      </trkpt>
      <trkpt lat="44.19157" lon="6.66457">
        <ele>1718.5999755859</ele>
        <time>2022-08-19T16:31:57Z</time>
      </trkpt>
      <trkpt lat="44.19157" lon="6.66457">
        <ele>1718.5999755859</ele>
        <time>2022-08-19T16:32:01Z</time>
      </trkpt>
      <trkpt lat="44.19157" lon="6.66456">
        <ele>1718.5999755859</ele>
        <time>2022-08-19T16:32:02Z</time>
      </trkpt>
      <trkpt lat="44.19155" lon="6.66446">
        <ele>1718.5999755859</ele>
        <time>2022-08-19T16:32:12Z</time>
      </trkpt>
      <trkpt lat="44.19153" lon="6.66443">
        <ele>1718.5999755859</ele>
        <time>2022-08-19T16:32:13Z</time>
      </trkpt>
      <trkpt lat="44.1915" lon="6.66442">
        <ele>1716</ele>
        <time>2022-08-19T16:32:14Z</time>
      </trkpt>
      <trkpt lat="44.1914" lon="6.66433">
        <ele>1716</ele>
        <time>2022-08-19T16:32:18Z</time>
      </trkpt>
      <trkpt lat="44.19138" lon="6.66431">
        <ele>1715.8000488281</ele>
        <time>2022-08-19T16:32:19Z</time>
      </trkpt>
      <trkpt lat="44.19134" lon="6.66427">
        <ele>1715.5999755859</ele>
        <time>2022-08-19T16:32:21Z</time>
      </trkpt>
      <trkpt lat="44.19126" lon="6.66421">
        <ele>1715.1999511719</ele>
        <time>2022-08-19T16:32:25Z</time>
      </trkpt>
      <trkpt lat="44.19117" lon="6.66427">
        <ele>1715.4000244141</ele>
        <time>2022-08-19T16:32:30Z</time>
      </trkpt>
      <trkpt lat="44.19102" lon="6.66443">
        <ele>1716</ele>
        <time>2022-08-19T16:32:38Z</time>
      </trkpt>
      <trkpt lat="44.19099" lon="6.66446">
        <ele>1716.1999511719</ele>
        <time>2022-08-19T16:32:40Z</time>
      </trkpt>
      <trkpt lat="44.19091" lon="6.66454">
        <ele>1716.8000488281</ele>
        <time>2022-08-19T16:32:45Z</time>
      </trkpt>
      <trkpt lat="44.19088" lon="6.66457">
        <ele>1717</ele>
        <time>2022-08-19T16:32:47Z</time>
      </trkpt>
      <trkpt lat="44.19086" lon="6.6646">
        <ele>1717.1999511719</ele>
        <time>2022-08-19T16:32:49Z</time>
      </trkpt>
      <trkpt lat="44.19083" lon="6.66462">
        <ele>1717.5999755859</ele>
        <time>2022-08-19T16:32:51Z</time>
      </trkpt>
      <trkpt lat="44.19079" lon="6.66464">
        <ele>1718</ele>
        <time>2022-08-19T16:32:54Z</time>
      </trkpt>
      <trkpt lat="44.19077" lon="6.66466">
        <ele>1718.4000244141</ele>
        <time>2022-08-19T16:32:56Z</time>
      </trkpt>
      <trkpt lat="44.19073" lon="6.6647">
        <ele>1718.8000488281</ele>
        <time>2022-08-19T16:33:00Z</time>
      </trkpt>
      <trkpt lat="44.1907" lon="6.66472">
        <ele>1719.1999511719</ele>
        <time>2022-08-19T16:33:02Z</time>
      </trkpt>
      <trkpt lat="44.19066" lon="6.66478">
        <ele>1719.5999755859</ele>
        <time>2022-08-19T16:33:06Z</time>
      </trkpt>
      <trkpt lat="44.19062" lon="6.66481">
        <ele>1720.1999511719</ele>
        <time>2022-08-19T16:33:09Z</time>
      </trkpt>
      <trkpt lat="44.19055" lon="6.66486">
        <ele>1720.8000488281</ele>
        <time>2022-08-19T16:33:14Z</time>
      </trkpt>
      <trkpt lat="44.19048" lon="6.66494">
        <ele>1721.1999511719</ele>
        <time>2022-08-19T16:33:20Z</time>
      </trkpt>
      <trkpt lat="44.19045" lon="6.66498">
        <ele>1721.8000488281</ele>
        <time>2022-08-19T16:33:24Z</time>
      </trkpt>
      <trkpt lat="44.19044" lon="6.66498">
        <ele>1721.8000488281</ele>
        <time>2022-08-19T16:33:25Z</time>
      </trkpt>
      <trkpt lat="44.19044" lon="6.66498">
        <ele>1722.1999511719</ele>
        <time>2022-08-19T16:33:29Z</time>
      </trkpt>
      <trkpt lat="44.19044" lon="6.66498">
        <ele>1722.1999511719</ele>
        <time>2022-08-19T16:33:31Z</time>
      </trkpt>
      <trkpt lat="44.19044" lon="6.66498">
        <ele>1722.4000244141</ele>
        <time>2022-08-19T16:33:34Z</time>
      </trkpt>
      <trkpt lat="44.19044" lon="6.66498">
        <ele>1722.4000244141</ele>
        <time>2022-08-19T16:33:38Z</time>
      </trkpt>
      <trkpt lat="44.19044" lon="6.66497">
        <ele>1722.1999511719</ele>
        <time>2022-08-19T16:33:43Z</time>
      </trkpt>
      <trkpt lat="44.19039" lon="6.66502">
        <ele>1722.4000244141</ele>
        <time>2022-08-19T16:33:50Z</time>
      </trkpt>
      <trkpt lat="44.1903" lon="6.66513">
        <ele>1723.1999511719</ele>
        <time>2022-08-19T16:33:58Z</time>
      </trkpt>
      <trkpt lat="44.19029" lon="6.66515">
        <ele>1723.1999511719</ele>
        <time>2022-08-19T16:33:59Z</time>
      </trkpt>
      <trkpt lat="44.1902" lon="6.66524">
        <ele>1724.4000244141</ele>
        <time>2022-08-19T16:34:07Z</time>
      </trkpt>
      <trkpt lat="44.19017" lon="6.66527">
        <ele>1725.1999511719</ele>
        <time>2022-08-19T16:34:13Z</time>
      </trkpt>
      <trkpt lat="44.19017" lon="6.66529">
        <ele>1725.1999511719</ele>
        <time>2022-08-19T16:34:17Z</time>
      </trkpt>
      <trkpt lat="44.19017" lon="6.6653">
        <ele>1725.1999511719</ele>
        <time>2022-08-19T16:34:24Z</time>
      </trkpt>
      <trkpt lat="44.19017" lon="6.6653">
        <ele>1725</ele>
        <time>2022-08-19T16:34:32Z</time>
      </trkpt>
      <trkpt lat="44.19017" lon="6.66535">
        <ele>1724.8000488281</ele>
        <time>2022-08-19T16:34:41Z</time>
      </trkpt>
      <trkpt lat="44.19021" lon="6.6654">
        <ele>1724.8000488281</ele>
        <time>2022-08-19T16:34:50Z</time>
      </trkpt>
      <trkpt lat="44.19021" lon="6.66541">
        <ele>1725</ele>
        <time>2022-08-19T16:34:52Z</time>
      </trkpt>
      <trkpt lat="44.19022" lon="6.6654">
        <ele>1725</ele>
        <time>2022-08-19T16:34:55Z</time>
      </trkpt>
      <trkpt lat="44.19023" lon="6.66541">
        <ele>1725</ele>
        <time>2022-08-19T16:34:58Z</time>
      </trkpt>
      <trkpt lat="44.19021" lon="6.66541">
        <ele>1725</ele>
        <time>2022-08-19T16:35:11Z</time>
      </trkpt>
      <trkpt lat="44.19018" lon="6.66532">
        <ele>1724.8000488281</ele>
        <time>2022-08-19T16:35:22Z</time>
      </trkpt>
      <trkpt lat="44.19018" lon="6.66532">
        <ele>1724.8000488281</ele>
        <time>2022-08-19T16:35:23Z</time>
      </trkpt>
      <trkpt lat="44.19019" lon="6.66523">
        <ele>1724.5999755859</ele>
        <time>2022-08-19T16:35:29Z</time>
      </trkpt>
      <trkpt lat="44.1902" lon="6.66522">
        <ele>1724.5999755859</ele>
        <time>2022-08-19T16:35:30Z</time>
      </trkpt>
      <trkpt lat="44.19021" lon="6.66522">
        <ele>1724.5999755859</ele>
        <time>2022-08-19T16:35:31Z</time>
      </trkpt>
      <trkpt lat="44.19022" lon="6.66521">
        <ele>1724.5999755859</ele>
        <time>2022-08-19T16:35:32Z</time>
      </trkpt>
      <trkpt lat="44.19024" lon="6.66518">
        <ele>1724.4000244141</ele>
        <time>2022-08-19T16:35:34Z</time>
      </trkpt>
      <trkpt lat="44.19026" lon="6.66516">
        <ele>1724.1999511719</ele>
        <time>2022-08-19T16:35:36Z</time>
      </trkpt>
      <trkpt lat="44.19029" lon="6.66515">
        <ele>1724.1999511719</ele>
        <time>2022-08-19T16:35:38Z</time>
      </trkpt>
      <trkpt lat="44.19031" lon="6.66513">
        <ele>1724</ele>
        <time>2022-08-19T16:35:40Z</time>
      </trkpt>
      <trkpt lat="44.19031" lon="6.66512">
        <ele>1723.8000488281</ele>
        <time>2022-08-19T16:35:41Z</time>
      </trkpt>
      <trkpt lat="44.19033" lon="6.66511">
        <ele>1723.5999755859</ele>
        <time>2022-08-19T16:35:42Z</time>
      </trkpt>
      <trkpt lat="44.19036" lon="6.66508">
        <ele>1723.4000244141</ele>
        <time>2022-08-19T16:35:46Z</time>
      </trkpt>
      <trkpt lat="44.19037" lon="6.66507">
        <ele>1723.1999511719</ele>
        <time>2022-08-19T16:35:47Z</time>
      </trkpt>
      <trkpt lat="44.19038" lon="6.66505">
        <ele>1723.1999511719</ele>
        <time>2022-08-19T16:35:48Z</time>
      </trkpt>
      <trkpt lat="44.19039" lon="6.66503">
        <ele>1723</ele>
        <time>2022-08-19T16:35:50Z</time>
      </trkpt>
      <trkpt lat="44.19041" lon="6.665">
        <ele>1723</ele>
        <time>2022-08-19T16:35:53Z</time>
      </trkpt>
      <trkpt lat="44.19043" lon="6.66498">
        <ele>1722.8000488281</ele>
        <time>2022-08-19T16:35:55Z</time>
      </trkpt>
      <trkpt lat="44.19046" lon="6.66494">
        <ele>1722.8000488281</ele>
        <time>2022-08-19T16:35:58Z</time>
      </trkpt>
      <trkpt lat="44.19049" lon="6.66497">
        <ele>1722.5999755859</ele>
        <time>2022-08-19T16:36:01Z</time>
      </trkpt>
      <trkpt lat="44.19053" lon="6.66505">
        <ele>1722.1999511719</ele>
        <time>2022-08-19T16:36:06Z</time>
      </trkpt>
      <trkpt lat="44.19054" lon="6.66508">
        <ele>1722</ele>
        <time>2022-08-19T16:36:08Z</time>
      </trkpt>
      <trkpt lat="44.19055" lon="6.66515">
        <ele>1722.1999511719</ele>
        <time>2022-08-19T16:36:16Z</time>
      </trkpt>
      <trkpt lat="44.19055" lon="6.66516">
        <ele>1722.8000488281</ele>
        <time>2022-08-19T16:36:18Z</time>
      </trkpt>
      <trkpt lat="44.19054" lon="6.66516">
        <ele>1723</ele>
        <time>2022-08-19T16:36:20Z</time>
      </trkpt>
      <trkpt lat="44.1905" lon="6.6652">
        <ele>1722.5999755859</ele>
        <time>2022-08-19T16:36:26Z</time>
      </trkpt>
      <trkpt lat="44.19049" lon="6.66522">
        <ele>1722.8000488281</ele>
        <time>2022-08-19T16:36:30Z</time>
      </trkpt>
      <trkpt lat="44.19047" lon="6.66523">
        <ele>1723</ele>
        <time>2022-08-19T16:36:35Z</time>
      </trkpt>
      <trkpt lat="44.19046" lon="6.66525">
        <ele>1723</ele>
        <time>2022-08-19T16:36:39Z</time>
      </trkpt>
      <trkpt lat="44.19041" lon="6.6653">
        <ele>1723.1999511719</ele>
        <time>2022-08-19T16:36:51Z</time>
      </trkpt>
      <trkpt lat="44.1904" lon="6.6653">
        <ele>1723.1999511719</ele>
        <time>2022-08-19T16:36:52Z</time>
      </trkpt>
      <trkpt lat="44.19036" lon="6.66535">
        <ele>1723.5999755859</ele>
        <time>2022-08-19T16:37:04Z</time>
      </trkpt>
      <trkpt lat="44.19035" lon="6.66536">
        <ele>1723.8000488281</ele>
        <time>2022-08-19T16:37:07Z</time>
      </trkpt>
      <trkpt lat="44.19032" lon="6.66541">
        <ele>1724</ele>
        <time>2022-08-19T16:37:20Z</time>
      </trkpt>
      <trkpt lat="44.19031" lon="6.66543">
        <ele>1724</ele>
        <time>2022-08-19T16:37:28Z</time>
      </trkpt>
      <trkpt lat="44.1903" lon="6.66544">
        <ele>1724</ele>
        <time>2022-08-19T16:37:30Z</time>
      </trkpt>
      <trkpt lat="44.19028" lon="6.66546">
        <ele>1724.1999511719</ele>
        <time>2022-08-19T16:37:35Z</time>
      </trkpt>
      <trkpt lat="44.19027" lon="6.66548">
        <ele>1724.8000488281</ele>
        <time>2022-08-19T16:37:42Z</time>
      </trkpt>
      <trkpt lat="44.19025" lon="6.66551">
        <ele>1725.4000244141</ele>
        <time>2022-08-19T16:37:47Z</time>
      </trkpt>
      <trkpt lat="44.19024" lon="6.66555">
        <ele>1725.5999755859</ele>
        <time>2022-08-19T16:37:54Z</time>
      </trkpt>
      <trkpt lat="44.19023" lon="6.66558">
        <ele>1726</ele>
        <time>2022-08-19T16:38:03Z</time>
      </trkpt>
      <trkpt lat="44.1902" lon="6.66563">
        <ele>1726.4000244141</ele>
        <time>2022-08-19T16:38:11Z</time>
      </trkpt>
      <trkpt lat="44.19019" lon="6.66567">
        <ele>1726.8000488281</ele>
        <time>2022-08-19T16:38:16Z</time>
      </trkpt>
      <trkpt lat="44.19018" lon="6.6657">
        <ele>1727.4000244141</ele>
        <time>2022-08-19T16:38:20Z</time>
      </trkpt>
      <trkpt lat="44.19016" lon="6.66578">
        <ele>1728</ele>
        <time>2022-08-19T16:38:31Z</time>
      </trkpt>
      <trkpt lat="44.19014" lon="6.66587">
        <ele>1728.4000244141</ele>
        <time>2022-08-19T16:38:41Z</time>
      </trkpt>
      <trkpt lat="44.19013" lon="6.6659">
        <ele>1728.8000488281</ele>
        <time>2022-08-19T16:38:44Z</time>
      </trkpt>
      <trkpt lat="44.1901" lon="6.66595">
        <ele>1729.4000244141</ele>
        <time>2022-08-19T16:38:51Z</time>
      </trkpt>
      <trkpt lat="44.19008" lon="6.66597">
        <ele>1729.8000488281</ele>
        <time>2022-08-19T16:38:55Z</time>
      </trkpt>
      <trkpt lat="44.19007" lon="6.66598">
        <ele>1730</ele>
        <time>2022-08-19T16:39:01Z</time>
      </trkpt>
      <trkpt lat="44.19007" lon="6.66601">
        <ele>1730</ele>
        <time>2022-08-19T16:39:06Z</time>
      </trkpt>
      <trkpt lat="44.19006" lon="6.66599">
        <ele>1730.1999511719</ele>
        <time>2022-08-19T16:39:14Z</time>
      </trkpt>
      <trkpt lat="44.19006" lon="6.66599">
        <ele>1730.4000244141</ele>
        <time>2022-08-19T16:39:22Z</time>
      </trkpt>
      <trkpt lat="44.19006" lon="6.66599">
        <ele>1730.1999511719</ele>
        <time>2022-08-19T16:39:31Z</time>
      </trkpt>
      <trkpt lat="44.19005" lon="6.66598">
        <ele>1729.8000488281</ele>
        <time>2022-08-19T16:39:39Z</time>
      </trkpt>
      <trkpt lat="44.19005" lon="6.66598">
        <ele>1729.5999755859</ele>
        <time>2022-08-19T16:39:42Z</time>
      </trkpt>
      <trkpt lat="44.19006" lon="6.66598">
        <ele>1729.1999511719</ele>
        <time>2022-08-19T16:39:48Z</time>
      </trkpt>
      <trkpt lat="44.19005" lon="6.66598">
        <ele>1729.1999511719</ele>
        <time>2022-08-19T16:39:51Z</time>
      </trkpt>
      <trkpt lat="44.19006" lon="6.66598">
        <ele>1729.8000488281</ele>
        <time>2022-08-19T16:40:00Z</time>
      </trkpt>
      <trkpt lat="44.19006" lon="6.66598">
        <ele>1729.5999755859</ele>
        <time>2022-08-19T16:40:06Z</time>
      </trkpt>
      <trkpt lat="44.19006" lon="6.66598">
        <ele>1729.5999755859</ele>
        <time>2022-08-19T16:40:07Z</time>
      </trkpt>
      <trkpt lat="44.19006" lon="6.66598">
        <ele>1729.5999755859</ele>
        <time>2022-08-19T16:40:10Z</time>
      </trkpt>
      <trkpt lat="44.19006" lon="6.66598">
        <ele>1729.5999755859</ele>
        <time>2022-08-19T16:40:12Z</time>
      </trkpt>
      <trkpt lat="44.19006" lon="6.66598">
        <ele>1729.5999755859</ele>
        <time>2022-08-19T16:40:17Z</time>
      </trkpt>
      <trkpt lat="44.19006" lon="6.66598">
        <ele>1729.5999755859</ele>
        <time>2022-08-19T16:40:18Z</time>
      </trkpt>
      <trkpt lat="44.19006" lon="6.66598">
        <ele>1730</ele>
        <time>2022-08-19T16:40:28Z</time>
      </trkpt>
      <trkpt lat="44.19005" lon="6.66599">
        <ele>1730.5999755859</ele>
        <time>2022-08-19T16:40:35Z</time>
      </trkpt>
      <trkpt lat="44.19005" lon="6.66599">
        <ele>1730.8000488281</ele>
        <time>2022-08-19T16:40:38Z</time>
      </trkpt>
      <trkpt lat="44.19005" lon="6.66599">
        <ele>1730.8000488281</ele>
        <time>2022-08-19T16:40:41Z</time>
      </trkpt>
      <trkpt lat="44.19005" lon="6.66599">
        <ele>1730.8000488281</ele>
        <time>2022-08-19T16:40:49Z</time>
      </trkpt>
      <trkpt lat="44.19005" lon="6.66598">
        <ele>1730.8000488281</ele>
        <time>2022-08-19T16:41:00Z</time>
      </trkpt>
      <trkpt lat="44.19005" lon="6.66598">
        <ele>1730.8000488281</ele>
        <time>2022-08-19T16:41:10Z</time>
      </trkpt>
      <trkpt lat="44.19004" lon="6.66598">
        <ele>1730.8000488281</ele>
        <time>2022-08-19T16:41:30Z</time>
      </trkpt>
      <trkpt lat="44.19005" lon="6.66598">
        <ele>1730.8000488281</ele>
        <time>2022-08-19T16:41:40Z</time>
      </trkpt>
      <trkpt lat="44.19005" lon="6.66598">
        <ele>1730.8000488281</ele>
        <time>2022-08-19T16:41:46Z</time>
      </trkpt>
      <trkpt lat="44.19005" lon="6.66598">
        <ele>1730.8000488281</ele>
        <time>2022-08-19T16:41:52Z</time>
      </trkpt>
      <trkpt lat="44.19006" lon="6.66599">
        <ele>1730.8000488281</ele>
        <time>2022-08-19T16:42:03Z</time>
      </trkpt>
      <trkpt lat="44.19005" lon="6.66599">
        <ele>1730.8000488281</ele>
        <time>2022-08-19T16:42:10Z</time>
      </trkpt>
      <trkpt lat="44.19004" lon="6.666">
        <ele>1730.8000488281</ele>
        <time>2022-08-19T16:42:17Z</time>
      </trkpt>
      <trkpt lat="44.19004" lon="6.66601">
        <ele>1730.8000488281</ele>
        <time>2022-08-19T16:42:20Z</time>
      </trkpt>
      <trkpt lat="44.19003" lon="6.66601">
        <ele>1730.8000488281</ele>
        <time>2022-08-19T16:42:31Z</time>
      </trkpt>
      <trkpt lat="44.19003" lon="6.66601">
        <ele>1730.8000488281</ele>
        <time>2022-08-19T16:42:33Z</time>
      </trkpt>
      <trkpt lat="44.19002" lon="6.66601">
        <ele>1730.8000488281</ele>
        <time>2022-08-19T16:42:47Z</time>
      </trkpt>
      <trkpt lat="44.19002" lon="6.66601">
        <ele>1730.8000488281</ele>
        <time>2022-08-19T16:42:58Z</time>
      </trkpt>
      <trkpt lat="44.19002" lon="6.66601">
        <ele>1730.8000488281</ele>
        <time>2022-08-19T16:43:02Z</time>
      </trkpt>
      <trkpt lat="44.19002" lon="6.666">
        <ele>1730.8000488281</ele>
        <time>2022-08-19T16:43:07Z</time>
      </trkpt>
      <trkpt lat="44.19002" lon="6.666">
        <ele>1730.8000488281</ele>
        <time>2022-08-19T16:43:12Z</time>
      </trkpt>
      <trkpt lat="44.19002" lon="6.666">
        <ele>1730.8000488281</ele>
        <time>2022-08-19T16:43:17Z</time>
      </trkpt>
      <trkpt lat="44.19002" lon="6.666">
        <ele>1730.8000488281</ele>
        <time>2022-08-19T16:43:18Z</time>
      </trkpt>
      <trkpt lat="44.19002" lon="6.666">
        <ele>1730.8000488281</ele>
        <time>2022-08-19T16:43:19Z</time>
      </trkpt>
      <trkpt lat="44.19002" lon="6.666">
        <ele>1730.8000488281</ele>
        <time>2022-08-19T16:43:21Z</time>
      </trkpt>
      <trkpt lat="44.19002" lon="6.666">
        <ele>1730.8000488281</ele>
        <time>2022-08-19T16:43:24Z</time>
      </trkpt>
      <trkpt lat="44.19002" lon="6.66599">
        <ele>1730.8000488281</ele>
        <time>2022-08-19T16:43:39Z</time>
      </trkpt>
      <trkpt lat="44.19002" lon="6.66599">
        <ele>1730.8000488281</ele>
        <time>2022-08-19T16:43:50Z</time>
      </trkpt>
      <trkpt lat="44.19002" lon="6.66598">
        <ele>1730.8000488281</ele>
        <time>2022-08-19T16:43:59Z</time>
      </trkpt>
      <trkpt lat="44.19002" lon="6.66598">
        <ele>1730.8000488281</ele>
        <time>2022-08-19T16:44:01Z</time>
      </trkpt>
      <trkpt lat="44.19003" lon="6.66598">
        <ele>1730.8000488281</ele>
        <time>2022-08-19T16:44:12Z</time>
      </trkpt>
      <trkpt lat="44.19003" lon="6.66596">
        <ele>1730.8000488281</ele>
        <time>2022-08-19T16:44:23Z</time>
      </trkpt>
      <trkpt lat="44.19003" lon="6.66597">
        <ele>1730.8000488281</ele>
        <time>2022-08-19T16:44:26Z</time>
      </trkpt>
      <trkpt lat="44.19003" lon="6.66597">
        <ele>1730.8000488281</ele>
        <time>2022-08-19T16:44:34Z</time>
      </trkpt>
      <trkpt lat="44.19004" lon="6.66598">
        <ele>1730.8000488281</ele>
        <time>2022-08-19T16:44:43Z</time>
      </trkpt>
      <trkpt lat="44.19004" lon="6.66598">
        <ele>1730.8000488281</ele>
        <time>2022-08-19T16:44:51Z</time>
      </trkpt>
      <trkpt lat="44.19004" lon="6.66598">
        <ele>1730.8000488281</ele>
        <time>2022-08-19T16:44:54Z</time>
      </trkpt>
      <trkpt lat="44.19005" lon="6.66597">
        <ele>1730.8000488281</ele>
        <time>2022-08-19T16:45:06Z</time>
      </trkpt>
      <trkpt lat="44.19006" lon="6.66597">
        <ele>1730.8000488281</ele>
        <time>2022-08-19T16:45:16Z</time>
      </trkpt>
      <trkpt lat="44.19006" lon="6.66597">
        <ele>1730.8000488281</ele>
        <time>2022-08-19T16:45:26Z</time>
      </trkpt>
      <trkpt lat="44.19006" lon="6.66597">
        <ele>1730.8000488281</ele>
        <time>2022-08-19T16:45:36Z</time>
      </trkpt>
      <trkpt lat="44.19006" lon="6.66597">
        <ele>1730.8000488281</ele>
        <time>2022-08-19T16:45:41Z</time>
      </trkpt>
      <trkpt lat="44.19006" lon="6.66598">
        <ele>1730.8000488281</ele>
        <time>2022-08-19T16:45:45Z</time>
      </trkpt>
      <trkpt lat="44.19006" lon="6.66598">
        <ele>1730.8000488281</ele>
        <time>2022-08-19T16:45:46Z</time>
      </trkpt>
      <trkpt lat="44.19006" lon="6.66598">
        <ele>1730.8000488281</ele>
        <time>2022-08-19T16:45:51Z</time>
      </trkpt>
      <trkpt lat="44.19006" lon="6.66598">
        <ele>1730.8000488281</ele>
        <time>2022-08-19T16:45:54Z</time>
      </trkpt>
      <trkpt lat="44.19006" lon="6.66598">
        <ele>1730.8000488281</ele>
        <time>2022-08-19T16:45:57Z</time>
      </trkpt>
      <trkpt lat="44.19006" lon="6.66598">
        <ele>1730.8000488281</ele>
        <time>2022-08-19T16:46:03Z</time>
      </trkpt>
      <trkpt lat="44.19005" lon="6.66598">
        <ele>1730.8000488281</ele>
        <time>2022-08-19T16:46:13Z</time>
      </trkpt>
      <trkpt lat="44.19006" lon="6.66598">
        <ele>1730.8000488281</ele>
        <time>2022-08-19T16:46:15Z</time>
      </trkpt>
      <trkpt lat="44.19006" lon="6.66598">
        <ele>1730.8000488281</ele>
        <time>2022-08-19T16:46:22Z</time>
      </trkpt>
      <trkpt lat="44.19006" lon="6.66599">
        <ele>1730.8000488281</ele>
        <time>2022-08-19T16:46:25Z</time>
      </trkpt>
      <trkpt lat="44.19007" lon="6.66599">
        <ele>1730.8000488281</ele>
        <time>2022-08-19T16:46:35Z</time>
      </trkpt>
      <trkpt lat="44.19008" lon="6.66599">
        <ele>1730.8000488281</ele>
        <time>2022-08-19T16:46:37Z</time>
      </trkpt>
      <trkpt lat="44.19008" lon="6.66599">
        <ele>1730.8000488281</ele>
        <time>2022-08-19T16:46:38Z</time>
      </trkpt>
      <trkpt lat="44.19008" lon="6.666">
        <ele>1730.8000488281</ele>
        <time>2022-08-19T16:46:39Z</time>
      </trkpt>
      <trkpt lat="44.19007" lon="6.66606">
        <ele>1730.8000488281</ele>
        <time>2022-08-19T16:46:45Z</time>
      </trkpt>
      <trkpt lat="44.19003" lon="6.66607">
        <ele>1730.8000488281</ele>
        <time>2022-08-19T16:46:53Z</time>
      </trkpt>
      <trkpt lat="44.18997" lon="6.66608">
        <ele>1730.8000488281</ele>
        <time>2022-08-19T16:47:00Z</time>
      </trkpt>
      <trkpt lat="44.18993" lon="6.66607">
        <ele>1730.8000488281</ele>
        <time>2022-08-19T16:47:04Z</time>
      </trkpt>
      <trkpt lat="44.18992" lon="6.66607">
        <ele>1730.8000488281</ele>
        <time>2022-08-19T16:47:06Z</time>
      </trkpt>
      <trkpt lat="44.18986" lon="6.66602">
        <ele>1730.8000488281</ele>
        <time>2022-08-19T16:47:11Z</time>
      </trkpt>
      <trkpt lat="44.18985" lon="6.66596">
        <ele>1730.5999755859</ele>
        <time>2022-08-19T16:47:14Z</time>
      </trkpt>
      <trkpt lat="44.18985" lon="6.66594">
        <ele>1730.5999755859</ele>
        <time>2022-08-19T16:47:15Z</time>
      </trkpt>
      <trkpt lat="44.18985" lon="6.66591">
        <ele>1730.4000244141</ele>
        <time>2022-08-19T16:47:18Z</time>
      </trkpt>
      <trkpt lat="44.18986" lon="6.66591">
        <ele>1730.4000244141</ele>
        <time>2022-08-19T16:47:19Z</time>
      </trkpt>
      <trkpt lat="44.18985" lon="6.6659">
        <ele>1730.4000244141</ele>
        <time>2022-08-19T16:47:24Z</time>
      </trkpt>
      <trkpt lat="44.18984" lon="6.6659">
        <ele>1730.5999755859</ele>
        <time>2022-08-19T16:47:25Z</time>
      </trkpt>
      <trkpt lat="44.18983" lon="6.66587">
        <ele>1730.5999755859</ele>
        <time>2022-08-19T16:47:27Z</time>
      </trkpt>
      <trkpt lat="44.18981" lon="6.66579">
        <ele>1730.5999755859</ele>
        <time>2022-08-19T16:47:32Z</time>
      </trkpt>
      <trkpt lat="44.1898" lon="6.66576">
        <ele>1730.5999755859</ele>
        <time>2022-08-19T16:47:34Z</time>
      </trkpt>
      <trkpt lat="44.18981" lon="6.66573">
        <ele>1730.5999755859</ele>
        <time>2022-08-19T16:47:36Z</time>
      </trkpt>
      <trkpt lat="44.18979" lon="6.66569">
        <ele>1730.5999755859</ele>
        <time>2022-08-19T16:47:39Z</time>
      </trkpt>
      <trkpt lat="44.18979" lon="6.66566">
        <ele>1730.5999755859</ele>
        <time>2022-08-19T16:47:41Z</time>
      </trkpt>
      <trkpt lat="44.18979" lon="6.66557">
        <ele>1730.8000488281</ele>
        <time>2022-08-19T16:47:46Z</time>
      </trkpt>
      <trkpt lat="44.1898" lon="6.66555">
        <ele>1731</ele>
        <time>2022-08-19T16:47:47Z</time>
      </trkpt>
      <trkpt lat="44.18981" lon="6.66552">
        <ele>1731</ele>
        <time>2022-08-19T16:47:49Z</time>
      </trkpt>
      <trkpt lat="44.18984" lon="6.66548">
        <ele>1730.8000488281</ele>
        <time>2022-08-19T16:47:52Z</time>
      </trkpt>
      <trkpt lat="44.18987" lon="6.66545">
        <ele>1730.5999755859</ele>
        <time>2022-08-19T16:47:55Z</time>
      </trkpt>
      <trkpt lat="44.1899" lon="6.66542">
        <ele>1730.4000244141</ele>
        <time>2022-08-19T16:47:58Z</time>
      </trkpt>
      <trkpt lat="44.18992" lon="6.66541">
        <ele>1730.1999511719</ele>
        <time>2022-08-19T16:48:00Z</time>
      </trkpt>
      <trkpt lat="44.18994" lon="6.6654">
        <ele>1729.8000488281</ele>
        <time>2022-08-19T16:48:02Z</time>
      </trkpt>
      <trkpt lat="44.18996" lon="6.66538">
        <ele>1729.5999755859</ele>
        <time>2022-08-19T16:48:04Z</time>
      </trkpt>
      <trkpt lat="44.18997" lon="6.66537">
        <ele>1729.4000244141</ele>
        <time>2022-08-19T16:48:05Z</time>
      </trkpt>
      <trkpt lat="44.18998" lon="6.66536">
        <ele>1729.4000244141</ele>
        <time>2022-08-19T16:48:06Z</time>
      </trkpt>
      <trkpt lat="44.19004" lon="6.66532">
        <ele>1728.4000244141</ele>
        <time>2022-08-19T16:48:11Z</time>
      </trkpt>
      <trkpt lat="44.19006" lon="6.66532">
        <ele>1728.1999511719</ele>
        <time>2022-08-19T16:48:13Z</time>
      </trkpt>
      <trkpt lat="44.19013" lon="6.66529">
        <ele>1727.5999755859</ele>
        <time>2022-08-19T16:48:20Z</time>
      </trkpt>
      <trkpt lat="44.19014" lon="6.66531">
        <ele>1727.4000244141</ele>
        <time>2022-08-19T16:48:22Z</time>
      </trkpt>
      <trkpt lat="44.19013" lon="6.66531">
        <ele>1727.4000244141</ele>
        <time>2022-08-19T16:48:23Z</time>
      </trkpt>
      <trkpt lat="44.19013" lon="6.6653">
        <ele>1727.1999511719</ele>
        <time>2022-08-19T16:48:24Z</time>
      </trkpt>
      <trkpt lat="44.19013" lon="6.6653">
        <ele>1727</ele>
        <time>2022-08-19T16:48:30Z</time>
      </trkpt>
      <trkpt lat="44.19013" lon="6.66529">
        <ele>1727.8000488281</ele>
        <time>2022-08-19T16:48:39Z</time>
      </trkpt>
      <trkpt lat="44.19015" lon="6.66529">
        <ele>1727.4000244141</ele>
        <time>2022-08-19T16:48:45Z</time>
      </trkpt>
      <trkpt lat="44.19015" lon="6.66529">
        <ele>1727.1999511719</ele>
        <time>2022-08-19T16:48:48Z</time>
      </trkpt>
      <trkpt lat="44.19013" lon="6.6653">
        <ele>1727.8000488281</ele>
        <time>2022-08-19T16:48:58Z</time>
      </trkpt>
      <trkpt lat="44.19013" lon="6.6653">
        <ele>1727.8000488281</ele>
        <time>2022-08-19T16:49:03Z</time>
      </trkpt>
      <trkpt lat="44.19013" lon="6.6653">
        <ele>1727.8000488281</ele>
        <time>2022-08-19T16:49:06Z</time>
      </trkpt>
      <trkpt lat="44.19013" lon="6.6653">
        <ele>1727.8000488281</ele>
        <time>2022-08-19T16:49:07Z</time>
      </trkpt>
      <trkpt lat="44.19014" lon="6.6653">
        <ele>1727.5999755859</ele>
        <time>2022-08-19T16:49:15Z</time>
      </trkpt>
      <trkpt lat="44.19014" lon="6.66531">
        <ele>1727.5999755859</ele>
        <time>2022-08-19T16:49:17Z</time>
      </trkpt>
      <trkpt lat="44.19014" lon="6.66531">
        <ele>1727.5999755859</ele>
        <time>2022-08-19T16:49:19Z</time>
      </trkpt>
      <trkpt lat="44.19014" lon="6.66531">
        <ele>1727.5999755859</ele>
        <time>2022-08-19T16:49:22Z</time>
      </trkpt>
      <trkpt lat="44.19014" lon="6.66531">
        <ele>1727.5999755859</ele>
        <time>2022-08-19T16:49:26Z</time>
      </trkpt>
      <trkpt lat="44.19014" lon="6.66531">
        <ele>1727.5999755859</ele>
        <time>2022-08-19T16:49:33Z</time>
      </trkpt>
      <trkpt lat="44.19014" lon="6.66531">
        <ele>1727.5999755859</ele>
        <time>2022-08-19T16:49:47Z</time>
      </trkpt>
      <trkpt lat="44.19014" lon="6.66531">
        <ele>1727.5999755859</ele>
        <time>2022-08-19T16:49:48Z</time>
      </trkpt>
      <trkpt lat="44.19014" lon="6.66531">
        <ele>1727.5999755859</ele>
        <time>2022-08-19T16:49:51Z</time>
      </trkpt>
      <trkpt lat="44.19012" lon="6.66532">
        <ele>1727.5999755859</ele>
        <time>2022-08-19T16:49:54Z</time>
      </trkpt>
      <trkpt lat="44.19006" lon="6.66535">
        <ele>1727.5999755859</ele>
        <time>2022-08-19T16:49:59Z</time>
      </trkpt>
      <trkpt lat="44.18997" lon="6.6654">
        <ele>1727.8000488281</ele>
        <time>2022-08-19T16:50:06Z</time>
      </trkpt>
      <trkpt lat="44.18994" lon="6.66542">
        <ele>1728.5999755859</ele>
        <time>2022-08-19T16:50:09Z</time>
      </trkpt>
      <trkpt lat="44.18988" lon="6.66546">
        <ele>1729.5999755859</ele>
        <time>2022-08-19T16:50:14Z</time>
      </trkpt>
      <trkpt lat="44.18985" lon="6.66548">
        <ele>1730</ele>
        <time>2022-08-19T16:50:17Z</time>
      </trkpt>
      <trkpt lat="44.18984" lon="6.6655">
        <ele>1730.5999755859</ele>
        <time>2022-08-19T16:50:20Z</time>
      </trkpt>
      <trkpt lat="44.18984" lon="6.6655">
        <ele>1730.8000488281</ele>
        <time>2022-08-19T16:50:23Z</time>
      </trkpt>
      <trkpt lat="44.18983" lon="6.6655">
        <ele>1731</ele>
        <time>2022-08-19T16:50:26Z</time>
      </trkpt>
      <trkpt lat="44.18983" lon="6.6655">
        <ele>1731</ele>
        <time>2022-08-19T16:50:30Z</time>
      </trkpt>
      <trkpt lat="44.18983" lon="6.66549">
        <ele>1731.1999511719</ele>
        <time>2022-08-19T16:50:39Z</time>
      </trkpt>
      <trkpt lat="44.18983" lon="6.66549">
        <ele>1731.1999511719</ele>
        <time>2022-08-19T16:50:41Z</time>
      </trkpt>
      <trkpt lat="44.18983" lon="6.66549">
        <ele>1731.4000244141</ele>
        <time>2022-08-19T16:50:46Z</time>
      </trkpt>
      <trkpt lat="44.18983" lon="6.66549">
        <ele>1731.1999511719</ele>
        <time>2022-08-19T16:50:49Z</time>
      </trkpt>
      <trkpt lat="44.18984" lon="6.66549">
        <ele>1731.1999511719</ele>
        <time>2022-08-19T16:50:53Z</time>
      </trkpt>
      <trkpt lat="44.18984" lon="6.66549">
        <ele>1731.1999511719</ele>
        <time>2022-08-19T16:50:55Z</time>
      </trkpt>
      <trkpt lat="44.18984" lon="6.6655">
        <ele>1731.1999511719</ele>
        <time>2022-08-19T16:50:56Z</time>
      </trkpt>
      <trkpt lat="44.18984" lon="6.6655">
        <ele>1730.8000488281</ele>
        <time>2022-08-19T16:51:00Z</time>
      </trkpt>
      <trkpt lat="44.18984" lon="6.6655">
        <ele>1730.8000488281</ele>
        <time>2022-08-19T16:51:02Z</time>
      </trkpt>
      <trkpt lat="44.18984" lon="6.6655">
        <ele>1731.1999511719</ele>
        <time>2022-08-19T16:51:10Z</time>
      </trkpt>
      <trkpt lat="44.18984" lon="6.6655">
        <ele>1731.1999511719</ele>
        <time>2022-08-19T16:51:13Z</time>
      </trkpt>
      <trkpt lat="44.18984" lon="6.6655">
        <ele>1731</ele>
        <time>2022-08-19T16:51:14Z</time>
      </trkpt>
      <trkpt lat="44.18984" lon="6.6655">
        <ele>1731</ele>
        <time>2022-08-19T16:51:16Z</time>
      </trkpt>
      <trkpt lat="44.18983" lon="6.66543">
        <ele>1731.5999755859</ele>
        <time>2022-08-19T16:51:23Z</time>
      </trkpt>
      <trkpt lat="44.18984" lon="6.6654">
        <ele>1731.5999755859</ele>
        <time>2022-08-19T16:51:24Z</time>
      </trkpt>
      <trkpt lat="44.18985" lon="6.66532">
        <ele>1731.4000244141</ele>
        <time>2022-08-19T16:51:27Z</time>
      </trkpt>
      <trkpt lat="44.18988" lon="6.66522">
        <ele>1731.5999755859</ele>
        <time>2022-08-19T16:51:30Z</time>
      </trkpt>
      <trkpt lat="44.18989" lon="6.66518">
        <ele>1731.5999755859</ele>
        <time>2022-08-19T16:51:31Z</time>
      </trkpt>
      <trkpt lat="44.18992" lon="6.66509">
        <ele>1732</ele>
        <time>2022-08-19T16:51:34Z</time>
      </trkpt>
      <trkpt lat="44.18993" lon="6.66504">
        <ele>1732.4000244141</ele>
        <time>2022-08-19T16:51:36Z</time>
      </trkpt>
      <trkpt lat="44.18994" lon="6.66503">
        <ele>1732.5999755859</ele>
        <time>2022-08-19T16:51:37Z</time>
      </trkpt>
      <trkpt lat="44.18995" lon="6.66501">
        <ele>1732.5999755859</ele>
        <time>2022-08-19T16:51:38Z</time>
      </trkpt>
      <trkpt lat="44.18995" lon="6.66499">
        <ele>1732.8000488281</ele>
        <time>2022-08-19T16:51:39Z</time>
      </trkpt>
      <trkpt lat="44.19" lon="6.66489">
        <ele>1733.1999511719</ele>
        <time>2022-08-19T16:51:45Z</time>
      </trkpt>
      <trkpt lat="44.19005" lon="6.66473">
        <ele>1733.8000488281</ele>
        <time>2022-08-19T16:51:53Z</time>
      </trkpt>
      <trkpt lat="44.19005" lon="6.6647">
        <ele>1734</ele>
        <time>2022-08-19T16:51:55Z</time>
      </trkpt>
      <trkpt lat="44.19005" lon="6.66464">
        <ele>1734.4000244141</ele>
        <time>2022-08-19T16:51:58Z</time>
      </trkpt>
      <trkpt lat="44.19004" lon="6.66457">
        <ele>1734.8000488281</ele>
        <time>2022-08-19T16:52:01Z</time>
      </trkpt>
      <trkpt lat="44.19001" lon="6.66446">
        <ele>1736</ele>
        <time>2022-08-19T16:52:07Z</time>
      </trkpt>
      <trkpt lat="44.19001" lon="6.66437">
        <ele>1736.8000488281</ele>
        <time>2022-08-19T16:52:12Z</time>
      </trkpt>
      <trkpt lat="44.19001" lon="6.66434">
        <ele>1737</ele>
        <time>2022-08-19T16:52:13Z</time>
      </trkpt>
      <trkpt lat="44.19001" lon="6.66428">
        <ele>1737.1999511719</ele>
        <time>2022-08-19T16:52:16Z</time>
      </trkpt>
      <trkpt lat="44.19002" lon="6.66422">
        <ele>1737.4000244141</ele>
        <time>2022-08-19T16:52:19Z</time>
      </trkpt>
      <trkpt lat="44.19003" lon="6.66418">
        <ele>1737.5999755859</ele>
        <time>2022-08-19T16:52:21Z</time>
      </trkpt>
      <trkpt lat="44.19003" lon="6.664">
        <ele>1737.5999755859</ele>
        <time>2022-08-19T16:52:28Z</time>
      </trkpt>
      <trkpt lat="44.18999" lon="6.66387">
        <ele>1737.1999511719</ele>
        <time>2022-08-19T16:52:33Z</time>
      </trkpt>
      <trkpt lat="44.18995" lon="6.6638">
        <ele>1736.5999755859</ele>
        <time>2022-08-19T16:52:35Z</time>
      </trkpt>
      <trkpt lat="44.18988" lon="6.66374">
        <ele>1735.8000488281</ele>
        <time>2022-08-19T16:52:37Z</time>
      </trkpt>
      <trkpt lat="44.18983" lon="6.66368">
        <ele>1734.5999755859</ele>
        <time>2022-08-19T16:52:39Z</time>
      </trkpt>
      <trkpt lat="44.18979" lon="6.66364">
        <ele>1734.1999511719</ele>
        <time>2022-08-19T16:52:41Z</time>
      </trkpt>
      <trkpt lat="44.18974" lon="6.66357">
        <ele>1733.4000244141</ele>
        <time>2022-08-19T16:52:44Z</time>
      </trkpt>
      <trkpt lat="44.18971" lon="6.66354">
        <ele>1733</ele>
        <time>2022-08-19T16:52:46Z</time>
      </trkpt>
      <trkpt lat="44.18969" lon="6.66352">
        <ele>1732.8000488281</ele>
        <time>2022-08-19T16:52:47Z</time>
      </trkpt>
      <trkpt lat="44.18961" lon="6.66348">
        <ele>1732.8000488281</ele>
        <time>2022-08-19T16:52:51Z</time>
      </trkpt>
      <trkpt lat="44.18954" lon="6.66343">
        <ele>1733</ele>
        <time>2022-08-19T16:52:55Z</time>
      </trkpt>
      <trkpt lat="44.18944" lon="6.66333">
        <ele>1732.1999511719</ele>
        <time>2022-08-19T16:53:00Z</time>
      </trkpt>
      <trkpt lat="44.18939" lon="6.66325">
        <ele>1731.4000244141</ele>
        <time>2022-08-19T16:53:03Z</time>
      </trkpt>
      <trkpt lat="44.18937" lon="6.66323">
        <ele>1731.1999511719</ele>
        <time>2022-08-19T16:53:04Z</time>
      </trkpt>
      <trkpt lat="44.18936" lon="6.6632">
        <ele>1731</ele>
        <time>2022-08-19T16:53:05Z</time>
      </trkpt>
      <trkpt lat="44.18934" lon="6.66315">
        <ele>1730.4000244141</ele>
        <time>2022-08-19T16:53:07Z</time>
      </trkpt>
      <trkpt lat="44.18933" lon="6.66309">
        <ele>1730</ele>
        <time>2022-08-19T16:53:09Z</time>
      </trkpt>
      <trkpt lat="44.18932" lon="6.66306">
        <ele>1729.5999755859</ele>
        <time>2022-08-19T16:53:10Z</time>
      </trkpt>
      <trkpt lat="44.18932" lon="6.663">
        <ele>1728.8000488281</ele>
        <time>2022-08-19T16:53:12Z</time>
      </trkpt>
      <trkpt lat="44.18931" lon="6.66291">
        <ele>1727.5999755859</ele>
        <time>2022-08-19T16:53:15Z</time>
      </trkpt>
      <trkpt lat="44.18928" lon="6.66281">
        <ele>1726.4000244141</ele>
        <time>2022-08-19T16:53:19Z</time>
      </trkpt>
      <trkpt lat="44.18917" lon="6.66255">
        <ele>1726.4000244141</ele>
        <time>2022-08-19T16:53:27Z</time>
      </trkpt>
      <trkpt lat="44.18909" lon="6.66243">
        <ele>1727.4000244141</ele>
        <time>2022-08-19T16:53:32Z</time>
      </trkpt>
      <trkpt lat="44.18907" lon="6.6624">
        <ele>1727.5999755859</ele>
        <time>2022-08-19T16:53:33Z</time>
      </trkpt>
      <trkpt lat="44.18906" lon="6.66237">
        <ele>1727.8000488281</ele>
        <time>2022-08-19T16:53:34Z</time>
      </trkpt>
      <trkpt lat="44.189" lon="6.66228">
        <ele>1728.1999511719</ele>
        <time>2022-08-19T16:53:37Z</time>
      </trkpt>
      <trkpt lat="44.18896" lon="6.66219">
        <ele>1728.1999511719</ele>
        <time>2022-08-19T16:53:39Z</time>
      </trkpt>
      <trkpt lat="44.18892" lon="6.66211">
        <ele>1728</ele>
        <time>2022-08-19T16:53:41Z</time>
      </trkpt>
      <trkpt lat="44.1889" lon="6.66207">
        <ele>1728</ele>
        <time>2022-08-19T16:53:42Z</time>
      </trkpt>
      <trkpt lat="44.18881" lon="6.66194">
        <ele>1727.8000488281</ele>
        <time>2022-08-19T16:53:46Z</time>
      </trkpt>
      <trkpt lat="44.18874" lon="6.66181">
        <ele>1727.5999755859</ele>
        <time>2022-08-19T16:53:50Z</time>
      </trkpt>
      <trkpt lat="44.18862" lon="6.66143">
        <ele>1726.4000244141</ele>
        <time>2022-08-19T16:53:57Z</time>
      </trkpt>
      <trkpt lat="44.18859" lon="6.66127">
        <ele>1725.8000488281</ele>
        <time>2022-08-19T16:54:00Z</time>
      </trkpt>
      <trkpt lat="44.18857" lon="6.66119">
        <ele>1726</ele>
        <time>2022-08-19T16:54:03Z</time>
      </trkpt>
      <trkpt lat="44.18857" lon="6.66117">
        <ele>1726.4000244141</ele>
        <time>2022-08-19T16:54:04Z</time>
      </trkpt>
      <trkpt lat="44.18855" lon="6.66108">
        <ele>1727.5999755859</ele>
        <time>2022-08-19T16:54:08Z</time>
      </trkpt>
      <trkpt lat="44.18852" lon="6.661">
        <ele>1728.5999755859</ele>
        <time>2022-08-19T16:54:12Z</time>
      </trkpt>
      <trkpt lat="44.1885" lon="6.66092">
        <ele>1729.5999755859</ele>
        <time>2022-08-19T16:54:16Z</time>
      </trkpt>
      <trkpt lat="44.18848" lon="6.66084">
        <ele>1730.1999511719</ele>
        <time>2022-08-19T16:54:19Z</time>
      </trkpt>
      <trkpt lat="44.18847" lon="6.66081">
        <ele>1730.5999755859</ele>
        <time>2022-08-19T16:54:20Z</time>
      </trkpt>
      <trkpt lat="44.18841" lon="6.66067">
        <ele>1731</ele>
        <time>2022-08-19T16:54:24Z</time>
      </trkpt>
      <trkpt lat="44.18837" lon="6.66059">
        <ele>1731</ele>
        <time>2022-08-19T16:54:26Z</time>
      </trkpt>
      <trkpt lat="44.18829" lon="6.66039">
        <ele>1730.5999755859</ele>
        <time>2022-08-19T16:54:31Z</time>
      </trkpt>
      <trkpt lat="44.1882" lon="6.66024">
        <ele>1731</ele>
        <time>2022-08-19T16:54:36Z</time>
      </trkpt>
      <trkpt lat="44.188" lon="6.66006">
        <ele>1731.1999511719</ele>
        <time>2022-08-19T16:54:44Z</time>
      </trkpt>
      <trkpt lat="44.18791" lon="6.65991">
        <ele>1731.1999511719</ele>
        <time>2022-08-19T16:54:49Z</time>
      </trkpt>
      <trkpt lat="44.1879" lon="6.65987">
        <ele>1731.4000244141</ele>
        <time>2022-08-19T16:54:51Z</time>
      </trkpt>
      <trkpt lat="44.1879" lon="6.65982">
        <ele>1731.5999755859</ele>
        <time>2022-08-19T16:54:54Z</time>
      </trkpt>
      <trkpt lat="44.1879" lon="6.65982">
        <ele>1731.8000488281</ele>
        <time>2022-08-19T16:54:55Z</time>
      </trkpt>
      <trkpt lat="44.1879" lon="6.65982">
        <ele>1731.8000488281</ele>
        <time>2022-08-19T16:54:57Z</time>
      </trkpt>
      <trkpt lat="44.1879" lon="6.65981">
        <ele>1732</ele>
        <time>2022-08-19T16:54:58Z</time>
      </trkpt>
      <trkpt lat="44.1879" lon="6.65981">
        <ele>1732</ele>
        <time>2022-08-19T16:55:00Z</time>
      </trkpt>
      <trkpt lat="44.1879" lon="6.65981">
        <ele>1732</ele>
        <time>2022-08-19T16:55:01Z</time>
      </trkpt>
      <trkpt lat="44.1879" lon="6.65981">
        <ele>1731.5999755859</ele>
        <time>2022-08-19T16:55:04Z</time>
      </trkpt>
      <trkpt lat="44.1879" lon="6.65981">
        <ele>1731.5999755859</ele>
        <time>2022-08-19T16:55:09Z</time>
      </trkpt>
      <trkpt lat="44.18789" lon="6.65981">
        <ele>1731.5999755859</ele>
        <time>2022-08-19T16:55:19Z</time>
      </trkpt>
      <trkpt lat="44.18786" lon="6.65979">
        <ele>1731.5999755859</ele>
        <time>2022-08-19T16:55:24Z</time>
      </trkpt>
      <trkpt lat="44.18785" lon="6.65978">
        <ele>1731.5999755859</ele>
        <time>2022-08-19T16:55:26Z</time>
      </trkpt>
      <trkpt lat="44.18781" lon="6.65976">
        <ele>1731.5999755859</ele>
        <time>2022-08-19T16:55:30Z</time>
      </trkpt>
      <trkpt lat="44.1878" lon="6.65978">
        <ele>1731.5999755859</ele>
        <time>2022-08-19T16:55:33Z</time>
      </trkpt>
      <trkpt lat="44.18779" lon="6.6598">
        <ele>1731.5999755859</ele>
        <time>2022-08-19T16:55:38Z</time>
      </trkpt>
      <trkpt lat="44.18779" lon="6.65977">
        <ele>1731.5999755859</ele>
        <time>2022-08-19T16:55:45Z</time>
      </trkpt>
      <trkpt lat="44.18779" lon="6.65977">
        <ele>1731.5999755859</ele>
        <time>2022-08-19T16:55:55Z</time>
      </trkpt>
      <trkpt lat="44.18779" lon="6.65977">
        <ele>1731.5999755859</ele>
        <time>2022-08-19T16:55:57Z</time>
      </trkpt>
      <trkpt lat="44.18779" lon="6.65978">
        <ele>1731.5999755859</ele>
        <time>2022-08-19T16:56:11Z</time>
      </trkpt>
      <trkpt lat="44.18779" lon="6.65978">
        <ele>1731.5999755859</ele>
        <time>2022-08-19T16:56:12Z</time>
      </trkpt>
      <trkpt lat="44.18779" lon="6.65979">
        <ele>1731.5999755859</ele>
        <time>2022-08-19T16:56:22Z</time>
      </trkpt>
      <trkpt lat="44.18779" lon="6.65981">
        <ele>1731.5999755859</ele>
        <time>2022-08-19T16:56:25Z</time>
      </trkpt>
      <trkpt lat="44.1878" lon="6.65984">
        <ele>1731.5999755859</ele>
        <time>2022-08-19T16:56:28Z</time>
      </trkpt>
      <trkpt lat="44.18783" lon="6.65991">
        <ele>1731.5999755859</ele>
        <time>2022-08-19T16:56:33Z</time>
      </trkpt>
      <trkpt lat="44.18782" lon="6.65994">
        <ele>1731.5999755859</ele>
        <time>2022-08-19T16:56:34Z</time>
      </trkpt>
      <trkpt lat="44.18783" lon="6.66006">
        <ele>1731.5999755859</ele>
        <time>2022-08-19T16:56:38Z</time>
      </trkpt>
      <trkpt lat="44.18784" lon="6.66009">
        <ele>1731.8000488281</ele>
        <time>2022-08-19T16:56:39Z</time>
      </trkpt>
      <trkpt lat="44.18786" lon="6.66013">
        <ele>1732</ele>
        <time>2022-08-19T16:56:40Z</time>
      </trkpt>
      <trkpt lat="44.18788" lon="6.66019">
        <ele>1732.5999755859</ele>
        <time>2022-08-19T16:56:42Z</time>
      </trkpt>
      <trkpt lat="44.1879" lon="6.66021">
        <ele>1732.8000488281</ele>
        <time>2022-08-19T16:56:43Z</time>
      </trkpt>
      <trkpt lat="44.18793" lon="6.66027">
        <ele>1733.4000244141</ele>
        <time>2022-08-19T16:56:45Z</time>
      </trkpt>
      <trkpt lat="44.18795" lon="6.66029">
        <ele>1733.5999755859</ele>
        <time>2022-08-19T16:56:46Z</time>
      </trkpt>
      <trkpt lat="44.18797" lon="6.6603">
        <ele>1733.8000488281</ele>
        <time>2022-08-19T16:56:47Z</time>
      </trkpt>
      <trkpt lat="44.18801" lon="6.66034">
        <ele>1734.4000244141</ele>
        <time>2022-08-19T16:56:49Z</time>
      </trkpt>
      <trkpt lat="44.18805" lon="6.66038">
        <ele>1735</ele>
        <time>2022-08-19T16:56:51Z</time>
      </trkpt>
      <trkpt lat="44.18809" lon="6.66043">
        <ele>1735.8000488281</ele>
        <time>2022-08-19T16:56:54Z</time>
      </trkpt>
      <trkpt lat="44.1881" lon="6.66046">
        <ele>1736</ele>
        <time>2022-08-19T16:56:55Z</time>
      </trkpt>
      <trkpt lat="44.18811" lon="6.66054">
        <ele>1736.8000488281</ele>
        <time>2022-08-19T16:56:58Z</time>
      </trkpt>
      <trkpt lat="44.18812" lon="6.6606">
        <ele>1737</ele>
        <time>2022-08-19T16:57:00Z</time>
      </trkpt>
      <trkpt lat="44.18813" lon="6.66062">
        <ele>1737.4000244141</ele>
        <time>2022-08-19T16:57:01Z</time>
      </trkpt>
      <trkpt lat="44.18815" lon="6.66074">
        <ele>1738</ele>
        <time>2022-08-19T16:57:05Z</time>
      </trkpt>
      <trkpt lat="44.18815" lon="6.6608">
        <ele>1738.1999511719</ele>
        <time>2022-08-19T16:57:07Z</time>
      </trkpt>
      <trkpt lat="44.18815" lon="6.66089">
        <ele>1738.5999755859</ele>
        <time>2022-08-19T16:57:10Z</time>
      </trkpt>
      <trkpt lat="44.18816" lon="6.66101">
        <ele>1739.4000244141</ele>
        <time>2022-08-19T16:57:14Z</time>
      </trkpt>
      <trkpt lat="44.18815" lon="6.66112">
        <ele>1740.1999511719</ele>
        <time>2022-08-19T16:57:18Z</time>
      </trkpt>
      <trkpt lat="44.18816" lon="6.66118">
        <ele>1740.5999755859</ele>
        <time>2022-08-19T16:57:20Z</time>
      </trkpt>
      <trkpt lat="44.18818" lon="6.66135">
        <ele>1741.8000488281</ele>
        <time>2022-08-19T16:57:26Z</time>
      </trkpt>
      <trkpt lat="44.18818" lon="6.66138">
        <ele>1742</ele>
        <time>2022-08-19T16:57:27Z</time>
      </trkpt>
      <trkpt lat="44.18815" lon="6.66156">
        <ele>1742.8000488281</ele>
        <time>2022-08-19T16:57:33Z</time>
      </trkpt>
      <trkpt lat="44.18814" lon="6.66162">
        <ele>1743.1999511719</ele>
        <time>2022-08-19T16:57:35Z</time>
      </trkpt>
      <trkpt lat="44.18812" lon="6.66176">
        <ele>1743.8000488281</ele>
        <time>2022-08-19T16:57:40Z</time>
      </trkpt>
      <trkpt lat="44.1881" lon="6.66187">
        <ele>1744.8000488281</ele>
        <time>2022-08-19T16:57:44Z</time>
      </trkpt>
      <trkpt lat="44.18811" lon="6.6619">
        <ele>1745</ele>
        <time>2022-08-19T16:57:45Z</time>
      </trkpt>
      <trkpt lat="44.18815" lon="6.66203">
        <ele>1746</ele>
        <time>2022-08-19T16:57:50Z</time>
      </trkpt>
      <trkpt lat="44.18817" lon="6.66208">
        <ele>1746.4000244141</ele>
        <time>2022-08-19T16:57:52Z</time>
      </trkpt>
      <trkpt lat="44.18821" lon="6.66218">
        <ele>1747</ele>
        <time>2022-08-19T16:57:56Z</time>
      </trkpt>
      <trkpt lat="44.18824" lon="6.66231">
        <ele>1748</ele>
        <time>2022-08-19T16:58:01Z</time>
      </trkpt>
      <trkpt lat="44.18825" lon="6.66233">
        <ele>1748.1999511719</ele>
        <time>2022-08-19T16:58:02Z</time>
      </trkpt>
      <trkpt lat="44.18825" lon="6.66249">
        <ele>1749.1999511719</ele>
        <time>2022-08-19T16:58:08Z</time>
      </trkpt>
      <trkpt lat="44.18825" lon="6.66252">
        <ele>1749.4000244141</ele>
        <time>2022-08-19T16:58:09Z</time>
      </trkpt>
      <trkpt lat="44.18825" lon="6.66269">
        <ele>1750.4000244141</ele>
        <time>2022-08-19T16:58:15Z</time>
      </trkpt>
      <trkpt lat="44.18824" lon="6.66271">
        <ele>1750.5999755859</ele>
        <time>2022-08-19T16:58:16Z</time>
      </trkpt>
      <trkpt lat="44.18825" lon="6.66289">
        <ele>1751.4000244141</ele>
        <time>2022-08-19T16:58:22Z</time>
      </trkpt>
      <trkpt lat="44.18826" lon="6.66292">
        <ele>1751.5999755859</ele>
        <time>2022-08-19T16:58:23Z</time>
      </trkpt>
      <trkpt lat="44.18832" lon="6.66313">
        <ele>1752.5999755859</ele>
        <time>2022-08-19T16:58:30Z</time>
      </trkpt>
      <trkpt lat="44.18832" lon="6.66315">
        <ele>1752.8000488281</ele>
        <time>2022-08-19T16:58:31Z</time>
      </trkpt>
      <trkpt lat="44.18833" lon="6.66328">
        <ele>1753.8000488281</ele>
        <time>2022-08-19T16:58:36Z</time>
      </trkpt>
      <trkpt lat="44.18834" lon="6.6633">
        <ele>1754</ele>
        <time>2022-08-19T16:58:37Z</time>
      </trkpt>
      <trkpt lat="44.18838" lon="6.66348">
        <ele>1754.8000488281</ele>
        <time>2022-08-19T16:58:44Z</time>
      </trkpt>
      <trkpt lat="44.18837" lon="6.66358">
        <ele>1756</ele>
        <time>2022-08-19T16:58:48Z</time>
      </trkpt>
      <trkpt lat="44.18839" lon="6.66367">
        <ele>1756.5999755859</ele>
        <time>2022-08-19T16:58:51Z</time>
      </trkpt>
      <trkpt lat="44.1884" lon="6.66375">
        <ele>1757</ele>
        <time>2022-08-19T16:58:54Z</time>
      </trkpt>
      <trkpt lat="44.18843" lon="6.66393">
        <ele>1757.8000488281</ele>
        <time>2022-08-19T16:59:00Z</time>
      </trkpt>
      <trkpt lat="44.18843" lon="6.66395">
        <ele>1758</ele>
        <time>2022-08-19T16:59:01Z</time>
      </trkpt>
      <trkpt lat="44.18844" lon="6.66398">
        <ele>1758.1999511719</ele>
        <time>2022-08-19T16:59:02Z</time>
      </trkpt>
      <trkpt lat="44.18846" lon="6.66401">
        <ele>1758.5999755859</ele>
        <time>2022-08-19T16:59:04Z</time>
      </trkpt>
      <trkpt lat="44.18847" lon="6.66403">
        <ele>1758.8000488281</ele>
        <time>2022-08-19T16:59:05Z</time>
      </trkpt>
      <trkpt lat="44.1885" lon="6.66406">
        <ele>1759.1999511719</ele>
        <time>2022-08-19T16:59:07Z</time>
      </trkpt>
      <trkpt lat="44.18853" lon="6.66409">
        <ele>1759.4000244141</ele>
        <time>2022-08-19T16:59:09Z</time>
      </trkpt>
      <trkpt lat="44.18857" lon="6.66415">
        <ele>1759.8000488281</ele>
        <time>2022-08-19T16:59:12Z</time>
      </trkpt>
      <trkpt lat="44.18861" lon="6.66419">
        <ele>1760.1999511719</ele>
        <time>2022-08-19T16:59:14Z</time>
      </trkpt>
      <trkpt lat="44.18867" lon="6.66434">
        <ele>1761.1999511719</ele>
        <time>2022-08-19T16:59:20Z</time>
      </trkpt>
      <trkpt lat="44.18872" lon="6.66449">
        <ele>1762.4000244141</ele>
        <time>2022-08-19T16:59:26Z</time>
      </trkpt>
      <trkpt lat="44.18874" lon="6.66466">
        <ele>1763.5999755859</ele>
        <time>2022-08-19T16:59:32Z</time>
      </trkpt>
      <trkpt lat="44.18873" lon="6.66469">
        <ele>1763.8000488281</ele>
        <time>2022-08-19T16:59:33Z</time>
      </trkpt>
      <trkpt lat="44.18865" lon="6.66485">
        <ele>1764.5999755859</ele>
        <time>2022-08-19T16:59:39Z</time>
      </trkpt>
      <trkpt lat="44.18864" lon="6.66487">
        <ele>1764.8000488281</ele>
        <time>2022-08-19T16:59:40Z</time>
      </trkpt>
      <trkpt lat="44.18855" lon="6.66497">
        <ele>1765.8000488281</ele>
        <time>2022-08-19T16:59:46Z</time>
      </trkpt>
      <trkpt lat="44.18853" lon="6.66501">
        <ele>1766.1999511719</ele>
        <time>2022-08-19T16:59:48Z</time>
      </trkpt>
      <trkpt lat="44.1885" lon="6.66506">
        <ele>1766.8000488281</ele>
        <time>2022-08-19T16:59:51Z</time>
      </trkpt>
      <trkpt lat="44.18846" lon="6.66516">
        <ele>1767.5999755859</ele>
        <time>2022-08-19T16:59:55Z</time>
      </trkpt>
      <trkpt lat="44.18844" lon="6.6652">
        <ele>1768</ele>
        <time>2022-08-19T16:59:57Z</time>
      </trkpt>
      <trkpt lat="44.18837" lon="6.66536">
        <ele>1769.1999511719</ele>
        <time>2022-08-19T17:00:04Z</time>
      </trkpt>
      <trkpt lat="44.18831" lon="6.66554">
        <ele>1770.1999511719</ele>
        <time>2022-08-19T17:00:11Z</time>
      </trkpt>
      <trkpt lat="44.18828" lon="6.6656">
        <ele>1770.8000488281</ele>
        <time>2022-08-19T17:00:14Z</time>
      </trkpt>
      <trkpt lat="44.18823" lon="6.66565">
        <ele>1771.4000244141</ele>
        <time>2022-08-19T17:00:17Z</time>
      </trkpt>
      <trkpt lat="44.18821" lon="6.66565">
        <ele>1771.5999755859</ele>
        <time>2022-08-19T17:00:18Z</time>
      </trkpt>
      <trkpt lat="44.18819" lon="6.66565">
        <ele>1771.8000488281</ele>
        <time>2022-08-19T17:00:19Z</time>
      </trkpt>
      <trkpt lat="44.18815" lon="6.66554">
        <ele>1772.5999755859</ele>
        <time>2022-08-19T17:00:24Z</time>
      </trkpt>
      <trkpt lat="44.18806" lon="6.66542">
        <ele>1773.5999755859</ele>
        <time>2022-08-19T17:00:31Z</time>
      </trkpt>
      <trkpt lat="44.18804" lon="6.6654">
        <ele>1773.8000488281</ele>
        <time>2022-08-19T17:00:32Z</time>
      </trkpt>
      <trkpt lat="44.18798" lon="6.6653">
        <ele>1774.5999755859</ele>
        <time>2022-08-19T17:00:37Z</time>
      </trkpt>
      <trkpt lat="44.18796" lon="6.66525">
        <ele>1775</ele>
        <time>2022-08-19T17:00:39Z</time>
      </trkpt>
      <trkpt lat="44.18791" lon="6.66513">
        <ele>1775.8000488281</ele>
        <time>2022-08-19T17:00:44Z</time>
      </trkpt>
      <trkpt lat="44.18789" lon="6.66506">
        <ele>1776.4000244141</ele>
        <time>2022-08-19T17:00:47Z</time>
      </trkpt>
      <trkpt lat="44.18787" lon="6.66498">
        <ele>1777</ele>
        <time>2022-08-19T17:00:50Z</time>
      </trkpt>
      <trkpt lat="44.18784" lon="6.66483">
        <ele>1777.8000488281</ele>
        <time>2022-08-19T17:00:56Z</time>
      </trkpt>
      <trkpt lat="44.18784" lon="6.66481">
        <ele>1778</ele>
        <time>2022-08-19T17:00:57Z</time>
      </trkpt>
      <trkpt lat="44.18781" lon="6.66467">
        <ele>1779.1999511719</ele>
        <time>2022-08-19T17:01:03Z</time>
      </trkpt>
      <trkpt lat="44.1878" lon="6.66462">
        <ele>1779.4000244141</ele>
        <time>2022-08-19T17:01:05Z</time>
      </trkpt>
      <trkpt lat="44.18776" lon="6.66451">
        <ele>1780.1999511719</ele>
        <time>2022-08-19T17:01:10Z</time>
      </trkpt>
      <trkpt lat="44.18775" lon="6.66446">
        <ele>1780.5999755859</ele>
        <time>2022-08-19T17:01:12Z</time>
      </trkpt>
      <trkpt lat="44.18775" lon="6.66436">
        <ele>1781.1999511719</ele>
        <time>2022-08-19T17:01:16Z</time>
      </trkpt>
      <trkpt lat="44.18774" lon="6.66433">
        <ele>1781.4000244141</ele>
        <time>2022-08-19T17:01:17Z</time>
      </trkpt>
      <trkpt lat="44.18768" lon="6.66417">
        <ele>1782.1999511719</ele>
        <time>2022-08-19T17:01:24Z</time>
      </trkpt>
      <trkpt lat="44.18764" lon="6.66403">
        <ele>1783.4000244141</ele>
        <time>2022-08-19T17:01:30Z</time>
      </trkpt>
      <trkpt lat="44.1876" lon="6.66395">
        <ele>1784</ele>
        <time>2022-08-19T17:01:34Z</time>
      </trkpt>
      <trkpt lat="44.18757" lon="6.66389">
        <ele>1784.4000244141</ele>
        <time>2022-08-19T17:01:37Z</time>
      </trkpt>
      <trkpt lat="44.18754" lon="6.66377">
        <ele>1785.1999511719</ele>
        <time>2022-08-19T17:01:42Z</time>
      </trkpt>
      <trkpt lat="44.18752" lon="6.66373">
        <ele>1785.5999755859</ele>
        <time>2022-08-19T17:01:44Z</time>
      </trkpt>
      <trkpt lat="44.18751" lon="6.66369">
        <ele>1785.8000488281</ele>
        <time>2022-08-19T17:01:46Z</time>
      </trkpt>
      <trkpt lat="44.18746" lon="6.66357">
        <ele>1786.5999755859</ele>
        <time>2022-08-19T17:01:51Z</time>
      </trkpt>
      <trkpt lat="44.18742" lon="6.66339">
        <ele>1787.5999755859</ele>
        <time>2022-08-19T17:01:59Z</time>
      </trkpt>
      <trkpt lat="44.18737" lon="6.66324">
        <ele>1788.8000488281</ele>
        <time>2022-08-19T17:02:06Z</time>
      </trkpt>
      <trkpt lat="44.18736" lon="6.66323">
        <ele>1788.8000488281</ele>
        <time>2022-08-19T17:02:07Z</time>
      </trkpt>
      <trkpt lat="44.18731" lon="6.66313">
        <ele>1789.8000488281</ele>
        <time>2022-08-19T17:02:12Z</time>
      </trkpt>
      <trkpt lat="44.18725" lon="6.66305">
        <ele>1790.5999755859</ele>
        <time>2022-08-19T17:02:17Z</time>
      </trkpt>
      <trkpt lat="44.18723" lon="6.66302">
        <ele>1790.8000488281</ele>
        <time>2022-08-19T17:02:19Z</time>
      </trkpt>
      <trkpt lat="44.18715" lon="6.66298">
        <ele>1791.5999755859</ele>
        <time>2022-08-19T17:02:25Z</time>
      </trkpt>
      <trkpt lat="44.18712" lon="6.66297">
        <ele>1791.8000488281</ele>
        <time>2022-08-19T17:02:27Z</time>
      </trkpt>
      <trkpt lat="44.18702" lon="6.66294">
        <ele>1793</ele>
        <time>2022-08-19T17:02:33Z</time>
      </trkpt>
      <trkpt lat="44.187" lon="6.66294">
        <ele>1793.1999511719</ele>
        <time>2022-08-19T17:02:34Z</time>
      </trkpt>
      <trkpt lat="44.1869" lon="6.66294">
        <ele>1794.1999511719</ele>
        <time>2022-08-19T17:02:40Z</time>
      </trkpt>
      <trkpt lat="44.18679" lon="6.66295">
        <ele>1795.1999511719</ele>
        <time>2022-08-19T17:02:46Z</time>
      </trkpt>
      <trkpt lat="44.18678" lon="6.66295">
        <ele>1795.1999511719</ele>
        <time>2022-08-19T17:02:47Z</time>
      </trkpt>
      <trkpt lat="44.18665" lon="6.66296">
        <ele>1796.1999511719</ele>
        <time>2022-08-19T17:02:54Z</time>
      </trkpt>
      <trkpt lat="44.18663" lon="6.66296">
        <ele>1796.4000244141</ele>
        <time>2022-08-19T17:02:55Z</time>
      </trkpt>
      <trkpt lat="44.18652" lon="6.663">
        <ele>1797.4000244141</ele>
        <time>2022-08-19T17:03:02Z</time>
      </trkpt>
      <trkpt lat="44.18643" lon="6.66304">
        <ele>1798.5999755859</ele>
        <time>2022-08-19T17:03:08Z</time>
      </trkpt>
      <trkpt lat="44.18639" lon="6.66304">
        <ele>1798.8000488281</ele>
        <time>2022-08-19T17:03:10Z</time>
      </trkpt>
      <trkpt lat="44.18627" lon="6.66305">
        <ele>1799.5999755859</ele>
        <time>2022-08-19T17:03:17Z</time>
      </trkpt>
      <trkpt lat="44.18625" lon="6.66305">
        <ele>1799.8000488281</ele>
        <time>2022-08-19T17:03:18Z</time>
      </trkpt>
      <trkpt lat="44.1861" lon="6.66302">
        <ele>1800.5999755859</ele>
        <time>2022-08-19T17:03:26Z</time>
      </trkpt>
      <trkpt lat="44.18608" lon="6.66301">
        <ele>1800.5999755859</ele>
        <time>2022-08-19T17:03:27Z</time>
      </trkpt>
      <trkpt lat="44.186" lon="6.66291">
        <ele>1801.5999755859</ele>
        <time>2022-08-19T17:03:34Z</time>
      </trkpt>
      <trkpt lat="44.18598" lon="6.66287">
        <ele>1801.8000488281</ele>
        <time>2022-08-19T17:03:36Z</time>
      </trkpt>
      <trkpt lat="44.18595" lon="6.66278">
        <ele>1802.4000244141</ele>
        <time>2022-08-19T17:03:41Z</time>
      </trkpt>
      <trkpt lat="44.18594" lon="6.66271">
        <ele>1802.8000488281</ele>
        <time>2022-08-19T17:03:44Z</time>
      </trkpt>
      <trkpt lat="44.18589" lon="6.66262">
        <ele>1804</ele>
        <time>2022-08-19T17:03:49Z</time>
      </trkpt>
      <trkpt lat="44.18587" lon="6.66258">
        <ele>1804.1999511719</ele>
        <time>2022-08-19T17:03:51Z</time>
      </trkpt>
      <trkpt lat="44.18582" lon="6.66248">
        <ele>1805</ele>
        <time>2022-08-19T17:03:56Z</time>
      </trkpt>
      <trkpt lat="44.1858" lon="6.66244">
        <ele>1805.4000244141</ele>
        <time>2022-08-19T17:03:58Z</time>
      </trkpt>
      <trkpt lat="44.18575" lon="6.66233">
        <ele>1806</ele>
        <time>2022-08-19T17:04:03Z</time>
      </trkpt>
      <trkpt lat="44.18573" lon="6.66227">
        <ele>1806.4000244141</ele>
        <time>2022-08-19T17:04:06Z</time>
      </trkpt>
      <trkpt lat="44.18572" lon="6.6622">
        <ele>1807.1999511719</ele>
        <time>2022-08-19T17:04:09Z</time>
      </trkpt>
      <trkpt lat="44.1857" lon="6.66211">
        <ele>1807.5999755859</ele>
        <time>2022-08-19T17:04:13Z</time>
      </trkpt>
      <trkpt lat="44.18567" lon="6.66203">
        <ele>1808.4000244141</ele>
        <time>2022-08-19T17:04:17Z</time>
      </trkpt>
      <trkpt lat="44.18564" lon="6.66198">
        <ele>1808.8000488281</ele>
        <time>2022-08-19T17:04:20Z</time>
      </trkpt>
      <trkpt lat="44.1856" lon="6.66192">
        <ele>1809.4000244141</ele>
        <time>2022-08-19T17:04:24Z</time>
      </trkpt>
      <trkpt lat="44.18558" lon="6.66185">
        <ele>1809.8000488281</ele>
        <time>2022-08-19T17:04:27Z</time>
      </trkpt>
      <trkpt lat="44.18554" lon="6.66174">
        <ele>1810.4000244141</ele>
        <time>2022-08-19T17:04:33Z</time>
      </trkpt>
      <trkpt lat="44.18554" lon="6.66171">
        <ele>1810.5999755859</ele>
        <time>2022-08-19T17:04:34Z</time>
      </trkpt>
      <trkpt lat="44.18553" lon="6.66155">
        <ele>1811.4000244141</ele>
        <time>2022-08-19T17:04:41Z</time>
      </trkpt>
      <trkpt lat="44.1855" lon="6.66138">
        <ele>1812.5999755859</ele>
        <time>2022-08-19T17:04:49Z</time>
      </trkpt>
      <trkpt lat="44.18549" lon="6.66136">
        <ele>1812.5999755859</ele>
        <time>2022-08-19T17:04:50Z</time>
      </trkpt>
      <trkpt lat="44.18544" lon="6.66119">
        <ele>1813.5999755859</ele>
        <time>2022-08-19T17:04:58Z</time>
      </trkpt>
      <trkpt lat="44.18544" lon="6.66117">
        <ele>1813.8000488281</ele>
        <time>2022-08-19T17:04:59Z</time>
      </trkpt>
      <trkpt lat="44.18538" lon="6.66102">
        <ele>1814.5999755859</ele>
        <time>2022-08-19T17:05:06Z</time>
      </trkpt>
      <trkpt lat="44.18538" lon="6.661">
        <ele>1814.8000488281</ele>
        <time>2022-08-19T17:05:07Z</time>
      </trkpt>
      <trkpt lat="44.18532" lon="6.66087">
        <ele>1815.8000488281</ele>
        <time>2022-08-19T17:05:14Z</time>
      </trkpt>
      <trkpt lat="44.18531" lon="6.66085">
        <ele>1815.8000488281</ele>
        <time>2022-08-19T17:05:15Z</time>
      </trkpt>
      <trkpt lat="44.1853" lon="6.66083">
        <ele>1815.8000488281</ele>
        <time>2022-08-19T17:05:16Z</time>
      </trkpt>
      <trkpt lat="44.18525" lon="6.66074">
        <ele>1816.8000488281</ele>
        <time>2022-08-19T17:05:21Z</time>
      </trkpt>
      <trkpt lat="44.18525" lon="6.66072">
        <ele>1816.8000488281</ele>
        <time>2022-08-19T17:05:22Z</time>
      </trkpt>
      <trkpt lat="44.18525" lon="6.6607">
        <ele>1817</ele>
        <time>2022-08-19T17:05:23Z</time>
      </trkpt>
      <trkpt lat="44.18523" lon="6.66065">
        <ele>1817.4000244141</ele>
        <time>2022-08-19T17:05:26Z</time>
      </trkpt>
      <trkpt lat="44.18519" lon="6.66059">
        <ele>1818</ele>
        <time>2022-08-19T17:05:30Z</time>
      </trkpt>
      <trkpt lat="44.1852" lon="6.66054">
        <ele>1818.1999511719</ele>
        <time>2022-08-19T17:05:32Z</time>
      </trkpt>
      <trkpt lat="44.18514" lon="6.6604">
        <ele>1819</ele>
        <time>2022-08-19T17:05:39Z</time>
      </trkpt>
      <trkpt lat="44.18507" lon="6.66021">
        <ele>1820.1999511719</ele>
        <time>2022-08-19T17:05:48Z</time>
      </trkpt>
      <trkpt lat="44.18504" lon="6.66015">
        <ele>1820.5999755859</ele>
        <time>2022-08-19T17:05:51Z</time>
      </trkpt>
      <trkpt lat="44.18501" lon="6.66006">
        <ele>1821.1999511719</ele>
        <time>2022-08-19T17:05:55Z</time>
      </trkpt>
      <trkpt lat="44.18497" lon="6.65992">
        <ele>1822.1999511719</ele>
        <time>2022-08-19T17:06:02Z</time>
      </trkpt>
      <trkpt lat="44.18496" lon="6.6599">
        <ele>1822.4000244141</ele>
        <time>2022-08-19T17:06:03Z</time>
      </trkpt>
      <trkpt lat="44.1849" lon="6.65974">
        <ele>1823.4000244141</ele>
        <time>2022-08-19T17:06:11Z</time>
      </trkpt>
      <trkpt lat="44.18488" lon="6.6597">
        <ele>1823.5999755859</ele>
        <time>2022-08-19T17:06:13Z</time>
      </trkpt>
      <trkpt lat="44.18485" lon="6.6596">
        <ele>1824.4000244141</ele>
        <time>2022-08-19T17:06:18Z</time>
      </trkpt>
      <trkpt lat="44.18481" lon="6.65955">
        <ele>1824.8000488281</ele>
        <time>2022-08-19T17:06:21Z</time>
      </trkpt>
      <trkpt lat="44.18473" lon="6.65945">
        <ele>1825.1999511719</ele>
        <time>2022-08-19T17:06:29Z</time>
      </trkpt>
      <trkpt lat="44.18472" lon="6.65943">
        <ele>1825.4000244141</ele>
        <time>2022-08-19T17:06:31Z</time>
      </trkpt>
      <trkpt lat="44.18472" lon="6.65944">
        <ele>1825.5999755859</ele>
        <time>2022-08-19T17:06:33Z</time>
      </trkpt>
      <trkpt lat="44.18472" lon="6.65944">
        <ele>1825.5999755859</ele>
        <time>2022-08-19T17:06:34Z</time>
      </trkpt>
      <trkpt lat="44.18472" lon="6.65943">
        <ele>1825.8000488281</ele>
        <time>2022-08-19T17:06:38Z</time>
      </trkpt>
      <trkpt lat="44.18473" lon="6.65942">
        <ele>1825.8000488281</ele>
        <time>2022-08-19T17:06:44Z</time>
      </trkpt>
      <trkpt lat="44.18474" lon="6.65942">
        <ele>1826</ele>
        <time>2022-08-19T17:06:54Z</time>
      </trkpt>
      <trkpt lat="44.18474" lon="6.65941">
        <ele>1826</ele>
        <time>2022-08-19T17:07:01Z</time>
      </trkpt>
      <trkpt lat="44.18474" lon="6.65941">
        <ele>1826</ele>
        <time>2022-08-19T17:07:03Z</time>
      </trkpt>
      <trkpt lat="44.18473" lon="6.65939">
        <ele>1826.1999511719</ele>
        <time>2022-08-19T17:07:13Z</time>
      </trkpt>
      <trkpt lat="44.18474" lon="6.65939">
        <ele>1826.1999511719</ele>
        <time>2022-08-19T17:07:14Z</time>
      </trkpt>
      <trkpt lat="44.18475" lon="6.65939">
        <ele>1826</ele>
        <time>2022-08-19T17:07:22Z</time>
      </trkpt>
      <trkpt lat="44.18475" lon="6.65935">
        <ele>1826.1999511719</ele>
        <time>2022-08-19T17:07:31Z</time>
      </trkpt>
      <trkpt lat="44.18475" lon="6.65936">
        <ele>1826.1999511719</ele>
        <time>2022-08-19T17:07:32Z</time>
      </trkpt>
      <trkpt lat="44.18474" lon="6.65941">
        <ele>1826</ele>
        <time>2022-08-19T17:07:37Z</time>
      </trkpt>
      <trkpt lat="44.18473" lon="6.6594">
        <ele>1825.8000488281</ele>
        <time>2022-08-19T17:07:39Z</time>
      </trkpt>
      <trkpt lat="44.18473" lon="6.65939">
        <ele>1825.8000488281</ele>
        <time>2022-08-19T17:07:40Z</time>
      </trkpt>
      <trkpt lat="44.18473" lon="6.65935">
        <ele>1825.8000488281</ele>
        <time>2022-08-19T17:07:46Z</time>
      </trkpt>
      <trkpt lat="44.18473" lon="6.65934">
        <ele>1825.8000488281</ele>
        <time>2022-08-19T17:07:49Z</time>
      </trkpt>
      <trkpt lat="44.18473" lon="6.65934">
        <ele>1825.8000488281</ele>
        <time>2022-08-19T17:07:55Z</time>
      </trkpt>
      <trkpt lat="44.18473" lon="6.65935">
        <ele>1825.8000488281</ele>
        <time>2022-08-19T17:08:05Z</time>
      </trkpt>
      <trkpt lat="44.18473" lon="6.65935">
        <ele>1825.8000488281</ele>
        <time>2022-08-19T17:08:11Z</time>
      </trkpt>
      <trkpt lat="44.18473" lon="6.65935">
        <ele>1825.8000488281</ele>
        <time>2022-08-19T17:08:14Z</time>
      </trkpt>
      <trkpt lat="44.18473" lon="6.65934">
        <ele>1825.8000488281</ele>
        <time>2022-08-19T17:08:26Z</time>
      </trkpt>
      <trkpt lat="44.18473" lon="6.65934">
        <ele>1825.8000488281</ele>
        <time>2022-08-19T17:08:32Z</time>
      </trkpt>
      <trkpt lat="44.18473" lon="6.65934">
        <ele>1825.8000488281</ele>
        <time>2022-08-19T17:08:36Z</time>
      </trkpt>
      <trkpt lat="44.18473" lon="6.65934">
        <ele>1825.8000488281</ele>
        <time>2022-08-19T17:08:39Z</time>
      </trkpt>
      <trkpt lat="44.18474" lon="6.65934">
        <ele>1825.8000488281</ele>
        <time>2022-08-19T17:08:51Z</time>
      </trkpt>
      <trkpt lat="44.18474" lon="6.65934">
        <ele>1825.8000488281</ele>
        <time>2022-08-19T17:09:00Z</time>
      </trkpt>
      <trkpt lat="44.18474" lon="6.65934">
        <ele>1825.8000488281</ele>
        <time>2022-08-19T17:09:10Z</time>
      </trkpt>
      <trkpt lat="44.18474" lon="6.65934">
        <ele>1825.8000488281</ele>
        <time>2022-08-19T17:09:16Z</time>
      </trkpt>
      <trkpt lat="44.18471" lon="6.65955">
        <ele>1825.8000488281</ele>
        <time>2022-08-19T17:09:21Z</time>
      </trkpt>
      <trkpt lat="44.18472" lon="6.65941">
        <ele>1825.8000488281</ele>
        <time>2022-08-19T17:09:29Z</time>
      </trkpt>
      <trkpt lat="44.18476" lon="6.65937">
        <ele>1825.8000488281</ele>
        <time>2022-08-19T17:09:37Z</time>
      </trkpt>
      <trkpt lat="44.18473" lon="6.65936">
        <ele>1825.8000488281</ele>
        <time>2022-08-19T17:09:47Z</time>
      </trkpt>
      <trkpt lat="44.1847" lon="6.65933">
        <ele>1825.8000488281</ele>
        <time>2022-08-19T17:09:52Z</time>
      </trkpt>
      <trkpt lat="44.18469" lon="6.65932">
        <ele>1825.8000488281</ele>
        <time>2022-08-19T17:09:53Z</time>
      </trkpt>
      <trkpt lat="44.18466" lon="6.6593">
        <ele>1825.8000488281</ele>
        <time>2022-08-19T17:09:55Z</time>
      </trkpt>
      <trkpt lat="44.18465" lon="6.65928">
        <ele>1825.8000488281</ele>
        <time>2022-08-19T17:09:56Z</time>
      </trkpt>
      <trkpt lat="44.18463" lon="6.65927">
        <ele>1825.8000488281</ele>
        <time>2022-08-19T17:09:57Z</time>
      </trkpt>
      <trkpt lat="44.1846" lon="6.65922">
        <ele>1825.8000488281</ele>
        <time>2022-08-19T17:10:00Z</time>
      </trkpt>
      <trkpt lat="44.18455" lon="6.65914">
        <ele>1825.8000488281</ele>
        <time>2022-08-19T17:10:04Z</time>
      </trkpt>
      <trkpt lat="44.1845" lon="6.65902">
        <ele>1826.4000244141</ele>
        <time>2022-08-19T17:10:10Z</time>
      </trkpt>
      <trkpt lat="44.18449" lon="6.659">
        <ele>1826.4000244141</ele>
        <time>2022-08-19T17:10:11Z</time>
      </trkpt>
      <trkpt lat="44.18446" lon="6.65893">
        <ele>1827</ele>
        <time>2022-08-19T17:10:14Z</time>
      </trkpt>
      <trkpt lat="44.18443" lon="6.65888">
        <ele>1827.1999511719</ele>
        <time>2022-08-19T17:10:17Z</time>
      </trkpt>
      <trkpt lat="44.1844" lon="6.65887">
        <ele>1827.5999755859</ele>
        <time>2022-08-19T17:10:19Z</time>
      </trkpt>
      <trkpt lat="44.18434" lon="6.65887">
        <ele>1828.4000244141</ele>
        <time>2022-08-19T17:10:23Z</time>
      </trkpt>
      <trkpt lat="44.18433" lon="6.65884">
        <ele>1828.4000244141</ele>
        <time>2022-08-19T17:10:24Z</time>
      </trkpt>
      <trkpt lat="44.18432" lon="6.65881">
        <ele>1828.5999755859</ele>
        <time>2022-08-19T17:10:25Z</time>
      </trkpt>
      <trkpt lat="44.18432" lon="6.65876">
        <ele>1829</ele>
        <time>2022-08-19T17:10:27Z</time>
      </trkpt>
      <trkpt lat="44.18428" lon="6.65869">
        <ele>1829.8000488281</ele>
        <time>2022-08-19T17:10:31Z</time>
      </trkpt>
      <trkpt lat="44.18425" lon="6.65866">
        <ele>1830.1999511719</ele>
        <time>2022-08-19T17:10:33Z</time>
      </trkpt>
      <trkpt lat="44.18421" lon="6.6586">
        <ele>1830.5999755859</ele>
        <time>2022-08-19T17:10:36Z</time>
      </trkpt>
      <trkpt lat="44.18419" lon="6.65856">
        <ele>1830.8000488281</ele>
        <time>2022-08-19T17:10:38Z</time>
      </trkpt>
      <trkpt lat="44.18417" lon="6.6585">
        <ele>1831.1999511719</ele>
        <time>2022-08-19T17:10:41Z</time>
      </trkpt>
      <trkpt lat="44.18415" lon="6.65844">
        <ele>1832</ele>
        <time>2022-08-19T17:10:44Z</time>
      </trkpt>
      <trkpt lat="44.18414" lon="6.65842">
        <ele>1832</ele>
        <time>2022-08-19T17:10:45Z</time>
      </trkpt>
      <trkpt lat="44.1841" lon="6.65838">
        <ele>1832.5999755859</ele>
        <time>2022-08-19T17:10:48Z</time>
      </trkpt>
      <trkpt lat="44.18408" lon="6.65832">
        <ele>1833</ele>
        <time>2022-08-19T17:10:51Z</time>
      </trkpt>
      <trkpt lat="44.18408" lon="6.65828">
        <ele>1833.4000244141</ele>
        <time>2022-08-19T17:10:53Z</time>
      </trkpt>
      <trkpt lat="44.18408" lon="6.65826">
        <ele>1833.4000244141</ele>
        <time>2022-08-19T17:10:54Z</time>
      </trkpt>
      <trkpt lat="44.1841" lon="6.65818">
        <ele>1834</ele>
        <time>2022-08-19T17:10:58Z</time>
      </trkpt>
      <trkpt lat="44.18411" lon="6.65809">
        <ele>1834.8000488281</ele>
        <time>2022-08-19T17:11:02Z</time>
      </trkpt>
      <trkpt lat="44.18411" lon="6.65803">
        <ele>1835.1999511719</ele>
        <time>2022-08-19T17:11:04Z</time>
      </trkpt>
      <trkpt lat="44.18411" lon="6.65791">
        <ele>1836.1999511719</ele>
        <time>2022-08-19T17:11:09Z</time>
      </trkpt>
      <trkpt lat="44.18411" lon="6.65789">
        <ele>1836.4000244141</ele>
        <time>2022-08-19T17:11:10Z</time>
      </trkpt>
      <trkpt lat="44.18411" lon="6.65779">
        <ele>1837</ele>
        <time>2022-08-19T17:11:14Z</time>
      </trkpt>
      <trkpt lat="44.18411" lon="6.65775">
        <ele>1837.4000244141</ele>
        <time>2022-08-19T17:11:16Z</time>
      </trkpt>
      <trkpt lat="44.18412" lon="6.65762">
        <ele>1838.4000244141</ele>
        <time>2022-08-19T17:11:22Z</time>
      </trkpt>
      <trkpt lat="44.18411" lon="6.65748">
        <ele>1839.5999755859</ele>
        <time>2022-08-19T17:11:28Z</time>
      </trkpt>
      <trkpt lat="44.18407" lon="6.65735">
        <ele>1840.5999755859</ele>
        <time>2022-08-19T17:11:34Z</time>
      </trkpt>
      <trkpt lat="44.18408" lon="6.65733">
        <ele>1840.8000488281</ele>
        <time>2022-08-19T17:11:35Z</time>
      </trkpt>
      <trkpt lat="44.18409" lon="6.65722">
        <ele>1841.8000488281</ele>
        <time>2022-08-19T17:11:40Z</time>
      </trkpt>
      <trkpt lat="44.18407" lon="6.65714">
        <ele>1842.4000244141</ele>
        <time>2022-08-19T17:11:44Z</time>
      </trkpt>
      <trkpt lat="44.18406" lon="6.65709">
        <ele>1842.8000488281</ele>
        <time>2022-08-19T17:11:46Z</time>
      </trkpt>
      <trkpt lat="44.18405" lon="6.65697">
        <ele>1843.8000488281</ele>
        <time>2022-08-19T17:11:51Z</time>
      </trkpt>
      <trkpt lat="44.18405" lon="6.65694">
        <ele>1844</ele>
        <time>2022-08-19T17:11:52Z</time>
      </trkpt>
      <trkpt lat="44.18405" lon="6.65692">
        <ele>1844.1999511719</ele>
        <time>2022-08-19T17:11:53Z</time>
      </trkpt>
      <trkpt lat="44.18408" lon="6.6568">
        <ele>1845.1999511719</ele>
        <time>2022-08-19T17:11:58Z</time>
      </trkpt>
      <trkpt lat="44.18408" lon="6.65678">
        <ele>1845.4000244141</ele>
        <time>2022-08-19T17:11:59Z</time>
      </trkpt>
      <trkpt lat="44.18408" lon="6.65676">
        <ele>1845.5999755859</ele>
        <time>2022-08-19T17:12:00Z</time>
      </trkpt>
      <trkpt lat="44.18408" lon="6.6567">
        <ele>1846.1999511719</ele>
        <time>2022-08-19T17:12:03Z</time>
      </trkpt>
      <trkpt lat="44.18408" lon="6.65668">
        <ele>1846.4000244141</ele>
        <time>2022-08-19T17:12:04Z</time>
      </trkpt>
      <trkpt lat="44.18407" lon="6.65663">
        <ele>1846.8000488281</ele>
        <time>2022-08-19T17:12:06Z</time>
      </trkpt>
      <trkpt lat="44.18407" lon="6.65657">
        <ele>1847.4000244141</ele>
        <time>2022-08-19T17:12:09Z</time>
      </trkpt>
      <trkpt lat="44.18407" lon="6.6565">
        <ele>1848.1999511719</ele>
        <time>2022-08-19T17:12:13Z</time>
      </trkpt>
      <trkpt lat="44.18407" lon="6.65646">
        <ele>1848.5999755859</ele>
        <time>2022-08-19T17:12:15Z</time>
      </trkpt>
      <trkpt lat="44.18407" lon="6.65634">
        <ele>1849.5999755859</ele>
        <time>2022-08-19T17:12:20Z</time>
      </trkpt>
      <trkpt lat="44.18407" lon="6.65623">
        <ele>1850.8000488281</ele>
        <time>2022-08-19T17:12:26Z</time>
      </trkpt>
      <trkpt lat="44.18408" lon="6.65622">
        <ele>1851.1999511719</ele>
        <time>2022-08-19T17:12:27Z</time>
      </trkpt>
      <trkpt lat="44.18409" lon="6.65615">
        <ele>1851.5999755859</ele>
        <time>2022-08-19T17:12:30Z</time>
      </trkpt>
      <trkpt lat="44.18408" lon="6.65609">
        <ele>1852</ele>
        <time>2022-08-19T17:12:32Z</time>
      </trkpt>
      <trkpt lat="44.18409" lon="6.65605">
        <ele>1852.4000244141</ele>
        <time>2022-08-19T17:12:34Z</time>
      </trkpt>
      <trkpt lat="44.18409" lon="6.65597">
        <ele>1853.1999511719</ele>
        <time>2022-08-19T17:12:38Z</time>
      </trkpt>
      <trkpt lat="44.18408" lon="6.6559">
        <ele>1853.8000488281</ele>
        <time>2022-08-19T17:12:41Z</time>
      </trkpt>
      <trkpt lat="44.18408" lon="6.65588">
        <ele>1854</ele>
        <time>2022-08-19T17:12:42Z</time>
      </trkpt>
      <trkpt lat="44.18408" lon="6.65587">
        <ele>1854.1999511719</ele>
        <time>2022-08-19T17:12:43Z</time>
      </trkpt>
      <trkpt lat="44.18408" lon="6.65581">
        <ele>1854.8000488281</ele>
        <time>2022-08-19T17:12:46Z</time>
      </trkpt>
      <trkpt lat="44.18406" lon="6.65574">
        <ele>1855.4000244141</ele>
        <time>2022-08-19T17:12:49Z</time>
      </trkpt>
      <trkpt lat="44.18405" lon="6.65567">
        <ele>1856.1999511719</ele>
        <time>2022-08-19T17:12:53Z</time>
      </trkpt>
      <trkpt lat="44.18403" lon="6.65564">
        <ele>1856.5999755859</ele>
        <time>2022-08-19T17:12:55Z</time>
      </trkpt>
      <trkpt lat="44.18398" lon="6.65556">
        <ele>1857.5999755859</ele>
        <time>2022-08-19T17:13:00Z</time>
      </trkpt>
      <trkpt lat="44.18396" lon="6.65553">
        <ele>1858</ele>
        <time>2022-08-19T17:13:02Z</time>
      </trkpt>
      <trkpt lat="44.18394" lon="6.6555">
        <ele>1858.4000244141</ele>
        <time>2022-08-19T17:13:04Z</time>
      </trkpt>
      <trkpt lat="44.18393" lon="6.65548">
        <ele>1858.8000488281</ele>
        <time>2022-08-19T17:13:06Z</time>
      </trkpt>
      <trkpt lat="44.18391" lon="6.65545">
        <ele>1859.1999511719</ele>
        <time>2022-08-19T17:13:08Z</time>
      </trkpt>
      <trkpt lat="44.18389" lon="6.65543">
        <ele>1859.4000244141</ele>
        <time>2022-08-19T17:13:09Z</time>
      </trkpt>
      <trkpt lat="44.18383" lon="6.65538">
        <ele>1860</ele>
        <time>2022-08-19T17:13:13Z</time>
      </trkpt>
      <trkpt lat="44.1838" lon="6.65536">
        <ele>1860.4000244141</ele>
        <time>2022-08-19T17:13:15Z</time>
      </trkpt>
      <trkpt lat="44.18375" lon="6.65531">
        <ele>1861.1999511719</ele>
        <time>2022-08-19T17:13:19Z</time>
      </trkpt>
      <trkpt lat="44.1837" lon="6.65527">
        <ele>1862</ele>
        <time>2022-08-19T17:13:23Z</time>
      </trkpt>
      <trkpt lat="44.18367" lon="6.65524">
        <ele>1862.1999511719</ele>
        <time>2022-08-19T17:13:25Z</time>
      </trkpt>
      <trkpt lat="44.18361" lon="6.65519">
        <ele>1863.1999511719</ele>
        <time>2022-08-19T17:13:30Z</time>
      </trkpt>
      <trkpt lat="44.1836" lon="6.65519">
        <ele>1863.4000244141</ele>
        <time>2022-08-19T17:13:31Z</time>
      </trkpt>
      <trkpt lat="44.18357" lon="6.65519">
        <ele>1863.8000488281</ele>
        <time>2022-08-19T17:13:34Z</time>
      </trkpt>
      <trkpt lat="44.18356" lon="6.65519">
        <ele>1864</ele>
        <time>2022-08-19T17:13:35Z</time>
      </trkpt>
      <trkpt lat="44.18354" lon="6.6552">
        <ele>1864.5999755859</ele>
        <time>2022-08-19T17:13:38Z</time>
      </trkpt>
      <trkpt lat="44.1835" lon="6.65522">
        <ele>1865.1999511719</ele>
        <time>2022-08-19T17:13:42Z</time>
      </trkpt>
      <trkpt lat="44.18348" lon="6.65522">
        <ele>1865.5999755859</ele>
        <time>2022-08-19T17:13:44Z</time>
      </trkpt>
      <trkpt lat="44.18345" lon="6.65524">
        <ele>1866</ele>
        <time>2022-08-19T17:13:46Z</time>
      </trkpt>
      <trkpt lat="44.18338" lon="6.65526">
        <ele>1866.8000488281</ele>
        <time>2022-08-19T17:13:52Z</time>
      </trkpt>
      <trkpt lat="44.18328" lon="6.65528">
        <ele>1867.8000488281</ele>
        <time>2022-08-19T17:13:58Z</time>
      </trkpt>
      <trkpt lat="44.18325" lon="6.65528">
        <ele>1868.5999755859</ele>
        <time>2022-08-19T17:14:01Z</time>
      </trkpt>
      <trkpt lat="44.18323" lon="6.65528">
        <ele>1868.8000488281</ele>
        <time>2022-08-19T17:14:02Z</time>
      </trkpt>
      <trkpt lat="44.18322" lon="6.65528">
        <ele>1869</ele>
        <time>2022-08-19T17:14:03Z</time>
      </trkpt>
      <trkpt lat="44.1832" lon="6.65528">
        <ele>1869.4000244141</ele>
        <time>2022-08-19T17:14:05Z</time>
      </trkpt>
      <trkpt lat="44.18318" lon="6.65529">
        <ele>1869.5999755859</ele>
        <time>2022-08-19T17:14:07Z</time>
      </trkpt>
      <trkpt lat="44.18317" lon="6.6553">
        <ele>1870</ele>
        <time>2022-08-19T17:14:09Z</time>
      </trkpt>
      <trkpt lat="44.18315" lon="6.6553">
        <ele>1870.1999511719</ele>
        <time>2022-08-19T17:14:16Z</time>
      </trkpt>
      <trkpt lat="44.18313" lon="6.65529">
        <ele>1870.1999511719</ele>
        <time>2022-08-19T17:14:26Z</time>
      </trkpt>
      <trkpt lat="44.18313" lon="6.65529">
        <ele>1870.1999511719</ele>
        <time>2022-08-19T17:14:27Z</time>
      </trkpt>
      <trkpt lat="44.18312" lon="6.6553">
        <ele>1870.4000244141</ele>
        <time>2022-08-19T17:14:31Z</time>
      </trkpt>
      <trkpt lat="44.18309" lon="6.6553">
        <ele>1870.5999755859</ele>
        <time>2022-08-19T17:14:35Z</time>
      </trkpt>
      <trkpt lat="44.18303" lon="6.6553">
        <ele>1871</ele>
        <time>2022-08-19T17:14:40Z</time>
      </trkpt>
      <trkpt lat="44.18303" lon="6.65529">
        <ele>1871</ele>
        <time>2022-08-19T17:14:42Z</time>
      </trkpt>
      <trkpt lat="44.18303" lon="6.6553">
        <ele>1871</ele>
        <time>2022-08-19T17:14:44Z</time>
      </trkpt>
      <trkpt lat="44.18298" lon="6.65522">
        <ele>1871.4000244141</ele>
        <time>2022-08-19T17:14:53Z</time>
      </trkpt>
      <trkpt lat="44.18297" lon="6.6552">
        <ele>1871.5999755859</ele>
        <time>2022-08-19T17:14:54Z</time>
      </trkpt>
      <trkpt lat="44.18294" lon="6.65514">
        <ele>1872.1999511719</ele>
        <time>2022-08-19T17:14:58Z</time>
      </trkpt>
      <trkpt lat="44.18291" lon="6.65512">
        <ele>1872.4000244141</ele>
        <time>2022-08-19T17:15:00Z</time>
      </trkpt>
      <trkpt lat="44.18288" lon="6.65513">
        <ele>1873.1999511719</ele>
        <time>2022-08-19T17:15:03Z</time>
      </trkpt>
      <trkpt lat="44.18286" lon="6.65513">
        <ele>1873.4000244141</ele>
        <time>2022-08-19T17:15:04Z</time>
      </trkpt>
      <trkpt lat="44.18284" lon="6.65513">
        <ele>1873.8000488281</ele>
        <time>2022-08-19T17:15:06Z</time>
      </trkpt>
      <trkpt lat="44.18283" lon="6.65513">
        <ele>1874.1999511719</ele>
        <time>2022-08-19T17:15:08Z</time>
      </trkpt>
      <trkpt lat="44.18283" lon="6.65513">
        <ele>1874.4000244141</ele>
        <time>2022-08-19T17:15:10Z</time>
      </trkpt>
      <trkpt lat="44.1828" lon="6.65513">
        <ele>1875.1999511719</ele>
        <time>2022-08-19T17:15:16Z</time>
      </trkpt>
      <trkpt lat="44.1828" lon="6.65514">
        <ele>1875.4000244141</ele>
        <time>2022-08-19T17:15:17Z</time>
      </trkpt>
      <trkpt lat="44.18274" lon="6.65514">
        <ele>1876.1999511719</ele>
        <time>2022-08-19T17:15:25Z</time>
      </trkpt>
      <trkpt lat="44.18275" lon="6.65515">
        <ele>1876.1999511719</ele>
        <time>2022-08-19T17:15:26Z</time>
      </trkpt>
      <trkpt lat="44.18274" lon="6.65513">
        <ele>1876.1999511719</ele>
        <time>2022-08-19T17:15:32Z</time>
      </trkpt>
      <trkpt lat="44.18272" lon="6.65505">
        <ele>1876.1999511719</ele>
        <time>2022-08-19T17:15:42Z</time>
      </trkpt>
      <trkpt lat="44.18271" lon="6.65504">
        <ele>1876.1999511719</ele>
        <time>2022-08-19T17:15:43Z</time>
      </trkpt>
      <trkpt lat="44.18269" lon="6.655">
        <ele>1876.5999755859</ele>
        <time>2022-08-19T17:15:46Z</time>
      </trkpt>
      <trkpt lat="44.18268" lon="6.65497">
        <ele>1876.8000488281</ele>
        <time>2022-08-19T17:15:48Z</time>
      </trkpt>
      <trkpt lat="44.18268" lon="6.65494">
        <ele>1877.1999511719</ele>
        <time>2022-08-19T17:15:50Z</time>
      </trkpt>
      <trkpt lat="44.18268" lon="6.65492">
        <ele>1877.1999511719</ele>
        <time>2022-08-19T17:15:51Z</time>
      </trkpt>
      <trkpt lat="44.18264" lon="6.65484">
        <ele>1878.4000244141</ele>
        <time>2022-08-19T17:15:58Z</time>
      </trkpt>
      <trkpt lat="44.18265" lon="6.65474">
        <ele>1879.4000244141</ele>
        <time>2022-08-19T17:16:04Z</time>
      </trkpt>
      <trkpt lat="44.18266" lon="6.65472">
        <ele>1879.5999755859</ele>
        <time>2022-08-19T17:16:05Z</time>
      </trkpt>
      <trkpt lat="44.18266" lon="6.65471">
        <ele>1879.5999755859</ele>
        <time>2022-08-19T17:16:06Z</time>
      </trkpt>
      <trkpt lat="44.18266" lon="6.65469">
        <ele>1879.8000488281</ele>
        <time>2022-08-19T17:16:07Z</time>
      </trkpt>
      <trkpt lat="44.18266" lon="6.65464">
        <ele>1880.1999511719</ele>
        <time>2022-08-19T17:16:10Z</time>
      </trkpt>
      <trkpt lat="44.18266" lon="6.65464">
        <ele>1880.1999511719</ele>
        <time>2022-08-19T17:16:11Z</time>
      </trkpt>
      <trkpt lat="44.18266" lon="6.65464">
        <ele>1880.1999511719</ele>
        <time>2022-08-19T17:16:12Z</time>
      </trkpt>
      <trkpt lat="44.18265" lon="6.65465">
        <ele>1880.4000244141</ele>
        <time>2022-08-19T17:16:16Z</time>
      </trkpt>
      <trkpt lat="44.18265" lon="6.65465">
        <ele>1880.5999755859</ele>
        <time>2022-08-19T17:16:17Z</time>
      </trkpt>
      <trkpt lat="44.18262" lon="6.65459">
        <ele>1880.5999755859</ele>
        <time>2022-08-19T17:16:25Z</time>
      </trkpt>
      <trkpt lat="44.18262" lon="6.65452">
        <ele>1881</ele>
        <time>2022-08-19T17:16:28Z</time>
      </trkpt>
      <trkpt lat="44.18263" lon="6.65447">
        <ele>1881.4000244141</ele>
        <time>2022-08-19T17:16:30Z</time>
      </trkpt>
      <trkpt lat="44.18264" lon="6.65445">
        <ele>1881.8000488281</ele>
        <time>2022-08-19T17:16:31Z</time>
      </trkpt>
      <trkpt lat="44.18265" lon="6.65443">
        <ele>1882</ele>
        <time>2022-08-19T17:16:32Z</time>
      </trkpt>
      <trkpt lat="44.18266" lon="6.65434">
        <ele>1882.8000488281</ele>
        <time>2022-08-19T17:16:36Z</time>
      </trkpt>
      <trkpt lat="44.18266" lon="6.65432">
        <ele>1883</ele>
        <time>2022-08-19T17:16:37Z</time>
      </trkpt>
      <trkpt lat="44.18264" lon="6.65428">
        <ele>1883.1999511719</ele>
        <time>2022-08-19T17:16:39Z</time>
      </trkpt>
      <trkpt lat="44.18262" lon="6.65424">
        <ele>1884</ele>
        <time>2022-08-19T17:16:43Z</time>
      </trkpt>
      <trkpt lat="44.18262" lon="6.65423">
        <ele>1884.4000244141</ele>
        <time>2022-08-19T17:16:45Z</time>
      </trkpt>
      <trkpt lat="44.18263" lon="6.65422">
        <ele>1885</ele>
        <time>2022-08-19T17:16:50Z</time>
      </trkpt>
      <trkpt lat="44.18262" lon="6.65421">
        <ele>1885</ele>
        <time>2022-08-19T17:16:51Z</time>
      </trkpt>
      <trkpt lat="44.18255" lon="6.65411">
        <ele>1886</ele>
        <time>2022-08-19T17:17:00Z</time>
      </trkpt>
      <trkpt lat="44.18254" lon="6.65409">
        <ele>1886.1999511719</ele>
        <time>2022-08-19T17:17:01Z</time>
      </trkpt>
      <trkpt lat="44.18249" lon="6.654">
        <ele>1887.1999511719</ele>
        <time>2022-08-19T17:17:07Z</time>
      </trkpt>
      <trkpt lat="44.18246" lon="6.65394">
        <ele>1887.8000488281</ele>
        <time>2022-08-19T17:17:11Z</time>
      </trkpt>
      <trkpt lat="44.18243" lon="6.65389">
        <ele>1888.1999511719</ele>
        <time>2022-08-19T17:17:15Z</time>
      </trkpt>
      <trkpt lat="44.18239" lon="6.65383">
        <ele>1889</ele>
        <time>2022-08-19T17:17:20Z</time>
      </trkpt>
      <trkpt lat="44.18237" lon="6.65381">
        <ele>1889.4000244141</ele>
        <time>2022-08-19T17:17:22Z</time>
      </trkpt>
      <trkpt lat="44.18232" lon="6.65371">
        <ele>1890.4000244141</ele>
        <time>2022-08-19T17:17:29Z</time>
      </trkpt>
      <trkpt lat="44.18231" lon="6.6537">
        <ele>1890.5999755859</ele>
        <time>2022-08-19T17:17:30Z</time>
      </trkpt>
      <trkpt lat="44.18229" lon="6.65368">
        <ele>1891</ele>
        <time>2022-08-19T17:17:32Z</time>
      </trkpt>
      <trkpt lat="44.18227" lon="6.65363">
        <ele>1891.4000244141</ele>
        <time>2022-08-19T17:17:35Z</time>
      </trkpt>
      <trkpt lat="44.18226" lon="6.65362">
        <ele>1891.5999755859</ele>
        <time>2022-08-19T17:17:36Z</time>
      </trkpt>
      <trkpt lat="44.18222" lon="6.65356">
        <ele>1892.4000244141</ele>
        <time>2022-08-19T17:17:41Z</time>
      </trkpt>
      <trkpt lat="44.18221" lon="6.65354">
        <ele>1892.5999755859</ele>
        <time>2022-08-19T17:17:43Z</time>
      </trkpt>
      <trkpt lat="44.18217" lon="6.6535">
        <ele>1893.5999755859</ele>
        <time>2022-08-19T17:17:48Z</time>
      </trkpt>
      <trkpt lat="44.18216" lon="6.65348">
        <ele>1893.8000488281</ele>
        <time>2022-08-19T17:17:49Z</time>
      </trkpt>
      <trkpt lat="44.18216" lon="6.65347">
        <ele>1894</ele>
        <time>2022-08-19T17:17:50Z</time>
      </trkpt>
      <trkpt lat="44.18212" lon="6.6534">
        <ele>1894.8000488281</ele>
        <time>2022-08-19T17:17:55Z</time>
      </trkpt>
      <trkpt lat="44.18211" lon="6.65339">
        <ele>1895</ele>
        <time>2022-08-19T17:17:56Z</time>
      </trkpt>
      <trkpt lat="44.18209" lon="6.65336">
        <ele>1895.4000244141</ele>
        <time>2022-08-19T17:17:58Z</time>
      </trkpt>
      <trkpt lat="44.18207" lon="6.65329">
        <ele>1896.1999511719</ele>
        <time>2022-08-19T17:18:02Z</time>
      </trkpt>
      <trkpt lat="44.18204" lon="6.65321">
        <ele>1897</ele>
        <time>2022-08-19T17:18:06Z</time>
      </trkpt>
      <trkpt lat="44.18203" lon="6.6532">
        <ele>1897.1999511719</ele>
        <time>2022-08-19T17:18:07Z</time>
      </trkpt>
      <trkpt lat="44.18201" lon="6.65317">
        <ele>1897.5999755859</ele>
        <time>2022-08-19T17:18:09Z</time>
      </trkpt>
      <trkpt lat="44.182" lon="6.6531">
        <ele>1898.4000244141</ele>
        <time>2022-08-19T17:18:13Z</time>
      </trkpt>
      <trkpt lat="44.18196" lon="6.65302">
        <ele>1899.1999511719</ele>
        <time>2022-08-19T17:18:19Z</time>
      </trkpt>
      <trkpt lat="44.18196" lon="6.65301">
        <ele>1899.4000244141</ele>
        <time>2022-08-19T17:18:20Z</time>
      </trkpt>
      <trkpt lat="44.18196" lon="6.65299">
        <ele>1899.4000244141</ele>
        <time>2022-08-19T17:18:21Z</time>
      </trkpt>
      <trkpt lat="44.18193" lon="6.65292">
        <ele>1900.5999755859</ele>
        <time>2022-08-19T17:18:26Z</time>
      </trkpt>
      <trkpt lat="44.1819" lon="6.65287">
        <ele>1901.1999511719</ele>
        <time>2022-08-19T17:18:30Z</time>
      </trkpt>
      <trkpt lat="44.18189" lon="6.65285">
        <ele>1901.5999755859</ele>
        <time>2022-08-19T17:18:32Z</time>
      </trkpt>
      <trkpt lat="44.18189" lon="6.65283">
        <ele>1902</ele>
        <time>2022-08-19T17:18:34Z</time>
      </trkpt>
      <trkpt lat="44.18186" lon="6.65278">
        <ele>1902.5999755859</ele>
        <time>2022-08-19T17:18:38Z</time>
      </trkpt>
      <trkpt lat="44.18182" lon="6.65271">
        <ele>1903.5999755859</ele>
        <time>2022-08-19T17:18:44Z</time>
      </trkpt>
      <trkpt lat="44.18181" lon="6.6527">
        <ele>1904</ele>
        <time>2022-08-19T17:18:46Z</time>
      </trkpt>
      <trkpt lat="44.18179" lon="6.65267">
        <ele>1904.8000488281</ele>
        <time>2022-08-19T17:18:49Z</time>
      </trkpt>
      <trkpt lat="44.18178" lon="6.65267">
        <ele>1905</ele>
        <time>2022-08-19T17:18:50Z</time>
      </trkpt>
      <trkpt lat="44.18175" lon="6.65267">
        <ele>1905.8000488281</ele>
        <time>2022-08-19T17:18:54Z</time>
      </trkpt>
      <trkpt lat="44.1817" lon="6.65266">
        <ele>1906.5999755859</ele>
        <time>2022-08-19T17:18:59Z</time>
      </trkpt>
      <trkpt lat="44.18169" lon="6.65266">
        <ele>1906.8000488281</ele>
        <time>2022-08-19T17:19:00Z</time>
      </trkpt>
      <trkpt lat="44.18165" lon="6.65267">
        <ele>1907.5999755859</ele>
        <time>2022-08-19T17:19:04Z</time>
      </trkpt>
      <trkpt lat="44.18162" lon="6.65269">
        <ele>1908</ele>
        <time>2022-08-19T17:19:08Z</time>
      </trkpt>
      <trkpt lat="44.18158" lon="6.65275">
        <ele>1908.5999755859</ele>
        <time>2022-08-19T17:19:13Z</time>
      </trkpt>
      <trkpt lat="44.18155" lon="6.65278">
        <ele>1909</ele>
        <time>2022-08-19T17:19:16Z</time>
      </trkpt>
      <trkpt lat="44.18149" lon="6.65283">
        <ele>1910</ele>
        <time>2022-08-19T17:19:23Z</time>
      </trkpt>
      <trkpt lat="44.18148" lon="6.65284">
        <ele>1910.4000244141</ele>
        <time>2022-08-19T17:19:25Z</time>
      </trkpt>
      <trkpt lat="44.18143" lon="6.65287">
        <ele>1911.1999511719</ele>
        <time>2022-08-19T17:19:29Z</time>
      </trkpt>
      <trkpt lat="44.18136" lon="6.65292">
        <ele>1912.1999511719</ele>
        <time>2022-08-19T17:19:36Z</time>
      </trkpt>
      <trkpt lat="44.18135" lon="6.65292">
        <ele>1912.4000244141</ele>
        <time>2022-08-19T17:19:37Z</time>
      </trkpt>
      <trkpt lat="44.18128" lon="6.65296">
        <ele>1913.4000244141</ele>
        <time>2022-08-19T17:19:43Z</time>
      </trkpt>
      <trkpt lat="44.18125" lon="6.65299">
        <ele>1914</ele>
        <time>2022-08-19T17:19:47Z</time>
      </trkpt>
      <trkpt lat="44.18122" lon="6.65301">
        <ele>1914.4000244141</ele>
        <time>2022-08-19T17:19:50Z</time>
      </trkpt>
      <trkpt lat="44.18118" lon="6.65304">
        <ele>1915.1999511719</ele>
        <time>2022-08-19T17:19:56Z</time>
      </trkpt>
      <trkpt lat="44.18116" lon="6.65307">
        <ele>1915.5999755859</ele>
        <time>2022-08-19T17:19:58Z</time>
      </trkpt>
      <trkpt lat="44.18113" lon="6.65311">
        <ele>1916.5999755859</ele>
        <time>2022-08-19T17:20:03Z</time>
      </trkpt>
      <trkpt lat="44.18109" lon="6.65316">
        <ele>1917.1999511719</ele>
        <time>2022-08-19T17:20:08Z</time>
      </trkpt>
      <trkpt lat="44.18109" lon="6.65318">
        <ele>1917.5999755859</ele>
        <time>2022-08-19T17:20:10Z</time>
      </trkpt>
      <trkpt lat="44.18104" lon="6.65324">
        <ele>1918.8000488281</ele>
        <time>2022-08-19T17:20:17Z</time>
      </trkpt>
      <trkpt lat="44.18103" lon="6.65326">
        <ele>1919</ele>
        <time>2022-08-19T17:20:18Z</time>
      </trkpt>
      <trkpt lat="44.18097" lon="6.65335">
        <ele>1919.8000488281</ele>
        <time>2022-08-19T17:20:25Z</time>
      </trkpt>
      <trkpt lat="44.18096" lon="6.65338">
        <ele>1920.1999511719</ele>
        <time>2022-08-19T17:20:27Z</time>
      </trkpt>
      <trkpt lat="44.18095" lon="6.6534">
        <ele>1920.5999755859</ele>
        <time>2022-08-19T17:20:29Z</time>
      </trkpt>
      <trkpt lat="44.18094" lon="6.65344">
        <ele>1920.8000488281</ele>
        <time>2022-08-19T17:20:31Z</time>
      </trkpt>
      <trkpt lat="44.18094" lon="6.65345">
        <ele>1921</ele>
        <time>2022-08-19T17:20:32Z</time>
      </trkpt>
      <trkpt lat="44.18089" lon="6.65354">
        <ele>1922</ele>
        <time>2022-08-19T17:20:39Z</time>
      </trkpt>
      <trkpt lat="44.18088" lon="6.65357">
        <ele>1922.1999511719</ele>
        <time>2022-08-19T17:20:41Z</time>
      </trkpt>
      <trkpt lat="44.18085" lon="6.65364">
        <ele>1923.1999511719</ele>
        <time>2022-08-19T17:20:46Z</time>
      </trkpt>
      <trkpt lat="44.18083" lon="6.65369">
        <ele>1923.5999755859</ele>
        <time>2022-08-19T17:20:49Z</time>
      </trkpt>
      <trkpt lat="44.18082" lon="6.6537">
        <ele>1923.5999755859</ele>
        <time>2022-08-19T17:20:50Z</time>
      </trkpt>
      <trkpt lat="44.18081" lon="6.65372">
        <ele>1923.8000488281</ele>
        <time>2022-08-19T17:20:52Z</time>
      </trkpt>
      <trkpt lat="44.18078" lon="6.65375">
        <ele>1924.1999511719</ele>
        <time>2022-08-19T17:20:55Z</time>
      </trkpt>
      <trkpt lat="44.18077" lon="6.65377">
        <ele>1924.4000244141</ele>
        <time>2022-08-19T17:20:56Z</time>
      </trkpt>
      <trkpt lat="44.18069" lon="6.65386">
        <ele>1925.4000244141</ele>
        <time>2022-08-19T17:21:03Z</time>
      </trkpt>
      <trkpt lat="44.18067" lon="6.65387">
        <ele>1925.4000244141</ele>
        <time>2022-08-19T17:21:04Z</time>
      </trkpt>
      <trkpt lat="44.18067" lon="6.65388">
        <ele>1925.8000488281</ele>
        <time>2022-08-19T17:21:06Z</time>
      </trkpt>
      <trkpt lat="44.18067" lon="6.65387">
        <ele>1926.1999511719</ele>
        <time>2022-08-19T17:21:08Z</time>
      </trkpt>
      <trkpt lat="44.18067" lon="6.65386">
        <ele>1926.4000244141</ele>
        <time>2022-08-19T17:21:13Z</time>
      </trkpt>
      <trkpt lat="44.18067" lon="6.65386">
        <ele>1926.4000244141</ele>
        <time>2022-08-19T17:21:14Z</time>
      </trkpt>
      <trkpt lat="44.1806" lon="6.6539">
        <ele>1927.4000244141</ele>
        <time>2022-08-19T17:21:26Z</time>
      </trkpt>
      <trkpt lat="44.18059" lon="6.6539">
        <ele>1927.5999755859</ele>
        <time>2022-08-19T17:21:27Z</time>
      </trkpt>
      <trkpt lat="44.18056" lon="6.65388">
        <ele>1928.5999755859</ele>
        <time>2022-08-19T17:21:33Z</time>
      </trkpt>
      <trkpt lat="44.18056" lon="6.65387">
        <ele>1928.8000488281</ele>
        <time>2022-08-19T17:21:38Z</time>
      </trkpt>
      <trkpt lat="44.18056" lon="6.65388">
        <ele>1929</ele>
        <time>2022-08-19T17:21:44Z</time>
      </trkpt>
      <trkpt lat="44.18056" lon="6.65388">
        <ele>1929</ele>
        <time>2022-08-19T17:21:51Z</time>
      </trkpt>
      <trkpt lat="44.18056" lon="6.65388">
        <ele>1929</ele>
        <time>2022-08-19T17:21:57Z</time>
      </trkpt>
      <trkpt lat="44.18055" lon="6.65388">
        <ele>1929</ele>
        <time>2022-08-19T17:22:04Z</time>
      </trkpt>
      <trkpt lat="44.18054" lon="6.65387">
        <ele>1929.1999511719</ele>
        <time>2022-08-19T17:22:15Z</time>
      </trkpt>
      <trkpt lat="44.18049" lon="6.65382">
        <ele>1929.5999755859</ele>
        <time>2022-08-19T17:22:21Z</time>
      </trkpt>
      <trkpt lat="44.18048" lon="6.6538">
        <ele>1930</ele>
        <time>2022-08-19T17:22:23Z</time>
      </trkpt>
      <trkpt lat="44.18047" lon="6.65379">
        <ele>1930.1999511719</ele>
        <time>2022-08-19T17:22:24Z</time>
      </trkpt>
      <trkpt lat="44.18044" lon="6.65377">
        <ele>1930.5999755859</ele>
        <time>2022-08-19T17:22:27Z</time>
      </trkpt>
      <trkpt lat="44.18043" lon="6.65376">
        <ele>1930.8000488281</ele>
        <time>2022-08-19T17:22:28Z</time>
      </trkpt>
      <trkpt lat="44.18042" lon="6.65375">
        <ele>1931</ele>
        <time>2022-08-19T17:22:29Z</time>
      </trkpt>
      <trkpt lat="44.1804" lon="6.65373">
        <ele>1931.4000244141</ele>
        <time>2022-08-19T17:22:31Z</time>
      </trkpt>
      <trkpt lat="44.18038" lon="6.65371">
        <ele>1931.8000488281</ele>
        <time>2022-08-19T17:22:33Z</time>
      </trkpt>
      <trkpt lat="44.18034" lon="6.65364">
        <ele>1932.8000488281</ele>
        <time>2022-08-19T17:22:37Z</time>
      </trkpt>
      <trkpt lat="44.18033" lon="6.65363">
        <ele>1933</ele>
        <time>2022-08-19T17:22:38Z</time>
      </trkpt>
      <trkpt lat="44.18032" lon="6.65363">
        <ele>1933.1999511719</ele>
        <time>2022-08-19T17:22:39Z</time>
      </trkpt>
      <trkpt lat="44.18031" lon="6.65364">
        <ele>1933.5999755859</ele>
        <time>2022-08-19T17:22:41Z</time>
      </trkpt>
      <trkpt lat="44.18032" lon="6.65368">
        <ele>1934.1999511719</ele>
        <time>2022-08-19T17:22:44Z</time>
      </trkpt>
      <trkpt lat="44.18032" lon="6.65369">
        <ele>1934.4000244141</ele>
        <time>2022-08-19T17:22:45Z</time>
      </trkpt>
      <trkpt lat="44.18037" lon="6.65377">
        <ele>1935.1999511719</ele>
        <time>2022-08-19T17:22:50Z</time>
      </trkpt>
      <trkpt lat="44.1804" lon="6.6538">
        <ele>1935.5999755859</ele>
        <time>2022-08-19T17:22:53Z</time>
      </trkpt>
      <trkpt lat="44.18041" lon="6.65381">
        <ele>1935.8000488281</ele>
        <time>2022-08-19T17:22:54Z</time>
      </trkpt>
      <trkpt lat="44.18042" lon="6.65385">
        <ele>1936.1999511719</ele>
        <time>2022-08-19T17:22:57Z</time>
      </trkpt>
      <trkpt lat="44.18043" lon="6.65388">
        <ele>1936.5999755859</ele>
        <time>2022-08-19T17:22:59Z</time>
      </trkpt>
      <trkpt lat="44.18045" lon="6.65393">
        <ele>1937.1999511719</ele>
        <time>2022-08-19T17:23:03Z</time>
      </trkpt>
      <trkpt lat="44.18048" lon="6.65402">
        <ele>1938.1999511719</ele>
        <time>2022-08-19T17:23:09Z</time>
      </trkpt>
      <trkpt lat="44.18048" lon="6.65403">
        <ele>1938.4000244141</ele>
        <time>2022-08-19T17:23:10Z</time>
      </trkpt>
      <trkpt lat="44.18049" lon="6.65409">
        <ele>1938.5999755859</ele>
        <time>2022-08-19T17:23:14Z</time>
      </trkpt>
      <trkpt lat="44.18049" lon="6.6541">
        <ele>1938.8000488281</ele>
        <time>2022-08-19T17:23:15Z</time>
      </trkpt>
      <trkpt lat="44.18049" lon="6.6541">
        <ele>1939.4000244141</ele>
        <time>2022-08-19T17:23:20Z</time>
      </trkpt>
      <trkpt lat="44.18049" lon="6.6541">
        <ele>1939.4000244141</ele>
        <time>2022-08-19T17:23:21Z</time>
      </trkpt>
      <trkpt lat="44.18054" lon="6.65415">
        <ele>1940.4000244141</ele>
        <time>2022-08-19T17:23:32Z</time>
      </trkpt>
      <trkpt lat="44.18055" lon="6.65415">
        <ele>1940.5999755859</ele>
        <time>2022-08-19T17:23:33Z</time>
      </trkpt>
      <trkpt lat="44.18061" lon="6.65418">
        <ele>1941.4000244141</ele>
        <time>2022-08-19T17:23:40Z</time>
      </trkpt>
      <trkpt lat="44.18063" lon="6.65418">
        <ele>1941.8000488281</ele>
        <time>2022-08-19T17:23:43Z</time>
      </trkpt>
      <trkpt lat="44.18065" lon="6.65417">
        <ele>1942.4000244141</ele>
        <time>2022-08-19T17:23:48Z</time>
      </trkpt>
      <trkpt lat="44.1807" lon="6.65415">
        <ele>1943</ele>
        <time>2022-08-19T17:23:54Z</time>
      </trkpt>
      <trkpt lat="44.1807" lon="6.65415">
        <ele>1943.1999511719</ele>
        <time>2022-08-19T17:24:02Z</time>
      </trkpt>
      <trkpt lat="44.1807" lon="6.65415">
        <ele>1943.5999755859</ele>
        <time>2022-08-19T17:24:06Z</time>
      </trkpt>
      <trkpt lat="44.18071" lon="6.65415">
        <ele>1944</ele>
        <time>2022-08-19T17:24:11Z</time>
      </trkpt>
      <trkpt lat="44.1807" lon="6.65415">
        <ele>1944</ele>
        <time>2022-08-19T17:24:15Z</time>
      </trkpt>
      <trkpt lat="44.18069" lon="6.65415">
        <ele>1943.5999755859</ele>
        <time>2022-08-19T17:24:26Z</time>
      </trkpt>
      <trkpt lat="44.18075" lon="6.65414">
        <ele>1944.1999511719</ele>
        <time>2022-08-19T17:24:38Z</time>
      </trkpt>
      <trkpt lat="44.18078" lon="6.65412">
        <ele>1944.5999755859</ele>
        <time>2022-08-19T17:24:41Z</time>
      </trkpt>
      <trkpt lat="44.18078" lon="6.65411">
        <ele>1944.5999755859</ele>
        <time>2022-08-19T17:24:42Z</time>
      </trkpt>
      <trkpt lat="44.1808" lon="6.6541">
        <ele>1945</ele>
        <time>2022-08-19T17:24:44Z</time>
      </trkpt>
      <trkpt lat="44.18083" lon="6.65409">
        <ele>1945.4000244141</ele>
        <time>2022-08-19T17:24:46Z</time>
      </trkpt>
      <trkpt lat="44.18085" lon="6.65408">
        <ele>1945.5999755859</ele>
        <time>2022-08-19T17:24:48Z</time>
      </trkpt>
      <trkpt lat="44.18086" lon="6.65408">
        <ele>1945.8000488281</ele>
        <time>2022-08-19T17:24:49Z</time>
      </trkpt>
      <trkpt lat="44.1809" lon="6.65406">
        <ele>1946.4000244141</ele>
        <time>2022-08-19T17:24:56Z</time>
      </trkpt>
      <trkpt lat="44.18094" lon="6.65404">
        <ele>1946.8000488281</ele>
        <time>2022-08-19T17:25:00Z</time>
      </trkpt>
      <trkpt lat="44.18095" lon="6.65405">
        <ele>1947</ele>
        <time>2022-08-19T17:25:01Z</time>
      </trkpt>
      <trkpt lat="44.18099" lon="6.65401">
        <ele>1947.8000488281</ele>
        <time>2022-08-19T17:25:05Z</time>
      </trkpt>
      <trkpt lat="44.181" lon="6.654">
        <ele>1948</ele>
        <time>2022-08-19T17:25:06Z</time>
      </trkpt>
      <trkpt lat="44.18101" lon="6.65399">
        <ele>1948.4000244141</ele>
        <time>2022-08-19T17:25:07Z</time>
      </trkpt>
      <trkpt lat="44.18103" lon="6.65397">
        <ele>1949</ele>
        <time>2022-08-19T17:25:10Z</time>
      </trkpt>
      <trkpt lat="44.18104" lon="6.65396">
        <ele>1949.1999511719</ele>
        <time>2022-08-19T17:25:11Z</time>
      </trkpt>
      <trkpt lat="44.18108" lon="6.65394">
        <ele>1949.8000488281</ele>
        <time>2022-08-19T17:25:14Z</time>
      </trkpt>
      <trkpt lat="44.1811" lon="6.65394">
        <ele>1950.4000244141</ele>
        <time>2022-08-19T17:25:16Z</time>
      </trkpt>
      <trkpt lat="44.18111" lon="6.65396">
        <ele>1950.8000488281</ele>
        <time>2022-08-19T17:25:18Z</time>
      </trkpt>
      <trkpt lat="44.18108" lon="6.65399">
        <ele>1951.4000244141</ele>
        <time>2022-08-19T17:25:21Z</time>
      </trkpt>
      <trkpt lat="44.18108" lon="6.654">
        <ele>1951.5999755859</ele>
        <time>2022-08-19T17:25:23Z</time>
      </trkpt>
      <trkpt lat="44.18108" lon="6.65401">
        <ele>1951.8000488281</ele>
        <time>2022-08-19T17:25:24Z</time>
      </trkpt>
      <trkpt lat="44.18107" lon="6.65405">
        <ele>1952</ele>
        <time>2022-08-19T17:25:27Z</time>
      </trkpt>
      <trkpt lat="44.18104" lon="6.65408">
        <ele>1952.4000244141</ele>
        <time>2022-08-19T17:25:30Z</time>
      </trkpt>
      <trkpt lat="44.18101" lon="6.65411">
        <ele>1953</ele>
        <time>2022-08-19T17:25:33Z</time>
      </trkpt>
      <trkpt lat="44.181" lon="6.65414">
        <ele>1953.4000244141</ele>
        <time>2022-08-19T17:25:35Z</time>
      </trkpt>
      <trkpt lat="44.18098" lon="6.65415">
        <ele>1953.8000488281</ele>
        <time>2022-08-19T17:25:37Z</time>
      </trkpt>
      <trkpt lat="44.18097" lon="6.65418">
        <ele>1954.1999511719</ele>
        <time>2022-08-19T17:25:39Z</time>
      </trkpt>
      <trkpt lat="44.18094" lon="6.65422">
        <ele>1954.5999755859</ele>
        <time>2022-08-19T17:25:42Z</time>
      </trkpt>
      <trkpt lat="44.1809" lon="6.65427">
        <ele>1955.5999755859</ele>
        <time>2022-08-19T17:25:48Z</time>
      </trkpt>
      <trkpt lat="44.18089" lon="6.65428">
        <ele>1955.8000488281</ele>
        <time>2022-08-19T17:25:49Z</time>
      </trkpt>
      <trkpt lat="44.18085" lon="6.65433">
        <ele>1956.4000244141</ele>
        <time>2022-08-19T17:25:53Z</time>
      </trkpt>
      <trkpt lat="44.18083" lon="6.65435">
        <ele>1956.8000488281</ele>
        <time>2022-08-19T17:25:55Z</time>
      </trkpt>
      <trkpt lat="44.18083" lon="6.65436">
        <ele>1957</ele>
        <time>2022-08-19T17:25:56Z</time>
      </trkpt>
      <trkpt lat="44.18081" lon="6.65438">
        <ele>1957.4000244141</ele>
        <time>2022-08-19T17:25:58Z</time>
      </trkpt>
      <trkpt lat="44.1808" lon="6.65439">
        <ele>1957.8000488281</ele>
        <time>2022-08-19T17:26:00Z</time>
      </trkpt>
      <trkpt lat="44.18079" lon="6.6544">
        <ele>1957.8000488281</ele>
        <time>2022-08-19T17:26:01Z</time>
      </trkpt>
      <trkpt lat="44.18077" lon="6.65443">
        <ele>1958.4000244141</ele>
        <time>2022-08-19T17:26:06Z</time>
      </trkpt>
      <trkpt lat="44.18074" lon="6.65451">
        <ele>1958.8000488281</ele>
        <time>2022-08-19T17:26:15Z</time>
      </trkpt>
      <trkpt lat="44.18073" lon="6.65453">
        <ele>1958.8000488281</ele>
        <time>2022-08-19T17:26:17Z</time>
      </trkpt>
      <trkpt lat="44.18068" lon="6.65458">
        <ele>1960</ele>
        <time>2022-08-19T17:26:24Z</time>
      </trkpt>
      <trkpt lat="44.18065" lon="6.65459">
        <ele>1960.4000244141</ele>
        <time>2022-08-19T17:26:27Z</time>
      </trkpt>
      <trkpt lat="44.18061" lon="6.65461">
        <ele>1961.1999511719</ele>
        <time>2022-08-19T17:26:32Z</time>
      </trkpt>
      <trkpt lat="44.18056" lon="6.65462">
        <ele>1961.8000488281</ele>
        <time>2022-08-19T17:26:36Z</time>
      </trkpt>
      <trkpt lat="44.18055" lon="6.6546">
        <ele>1962.1999511719</ele>
        <time>2022-08-19T17:26:39Z</time>
      </trkpt>
      <trkpt lat="44.18052" lon="6.65457">
        <ele>1963.1999511719</ele>
        <time>2022-08-19T17:26:45Z</time>
      </trkpt>
      <trkpt lat="44.18051" lon="6.65456">
        <ele>1963.1999511719</ele>
        <time>2022-08-19T17:26:46Z</time>
      </trkpt>
      <trkpt lat="44.18047" lon="6.65456">
        <ele>1963.4000244141</ele>
        <time>2022-08-19T17:26:54Z</time>
      </trkpt>
      <trkpt lat="44.18041" lon="6.65454">
        <ele>1963.8000488281</ele>
        <time>2022-08-19T17:27:00Z</time>
      </trkpt>
      <trkpt lat="44.18038" lon="6.65452">
        <ele>1964.4000244141</ele>
        <time>2022-08-19T17:27:02Z</time>
      </trkpt>
      <trkpt lat="44.18037" lon="6.65452">
        <ele>1964.5999755859</ele>
        <time>2022-08-19T17:27:03Z</time>
      </trkpt>
      <trkpt lat="44.18033" lon="6.65448">
        <ele>1965.5999755859</ele>
        <time>2022-08-19T17:27:07Z</time>
      </trkpt>
      <trkpt lat="44.18031" lon="6.65448">
        <ele>1965.8000488281</ele>
        <time>2022-08-19T17:27:08Z</time>
      </trkpt>
      <trkpt lat="44.18031" lon="6.65447">
        <ele>1966</ele>
        <time>2022-08-19T17:27:09Z</time>
      </trkpt>
      <trkpt lat="44.18028" lon="6.65445">
        <ele>1966.5999755859</ele>
        <time>2022-08-19T17:27:12Z</time>
      </trkpt>
      <trkpt lat="44.18027" lon="6.65443">
        <ele>1966.8000488281</ele>
        <time>2022-08-19T17:27:13Z</time>
      </trkpt>
      <trkpt lat="44.18022" lon="6.65439">
        <ele>1967.4000244141</ele>
        <time>2022-08-19T17:27:17Z</time>
      </trkpt>
      <trkpt lat="44.1802" lon="6.65436">
        <ele>1967.5999755859</ele>
        <time>2022-08-19T17:27:19Z</time>
      </trkpt>
      <trkpt lat="44.18017" lon="6.65432">
        <ele>1968.4000244141</ele>
        <time>2022-08-19T17:27:23Z</time>
      </trkpt>
      <trkpt lat="44.18016" lon="6.65431">
        <ele>1968.5999755859</ele>
        <time>2022-08-19T17:27:25Z</time>
      </trkpt>
      <trkpt lat="44.1801" lon="6.65431">
        <ele>1969.5999755859</ele>
        <time>2022-08-19T17:27:32Z</time>
      </trkpt>
      <trkpt lat="44.18008" lon="6.65431">
        <ele>1969.5999755859</ele>
        <time>2022-08-19T17:27:33Z</time>
      </trkpt>
      <trkpt lat="44.18002" lon="6.65431">
        <ele>1970.5999755859</ele>
        <time>2022-08-19T17:27:39Z</time>
      </trkpt>
      <trkpt lat="44.18001" lon="6.65431">
        <ele>1970.8000488281</ele>
        <time>2022-08-19T17:27:40Z</time>
      </trkpt>
      <trkpt lat="44.17995" lon="6.65432">
        <ele>1972</ele>
        <time>2022-08-19T17:27:45Z</time>
      </trkpt>
      <trkpt lat="44.17994" lon="6.65432">
        <ele>1972</ele>
        <time>2022-08-19T17:27:46Z</time>
      </trkpt>
      <trkpt lat="44.17988" lon="6.65435">
        <ele>1973</ele>
        <time>2022-08-19T17:27:51Z</time>
      </trkpt>
      <trkpt lat="44.17979" lon="6.65437">
        <ele>1974</ele>
        <time>2022-08-19T17:27:57Z</time>
      </trkpt>
      <trkpt lat="44.17977" lon="6.65438">
        <ele>1974.1999511719</ele>
        <time>2022-08-19T17:27:58Z</time>
      </trkpt>
      <trkpt lat="44.17972" lon="6.65442">
        <ele>1975.1999511719</ele>
        <time>2022-08-19T17:28:02Z</time>
      </trkpt>
      <trkpt lat="44.17968" lon="6.65444">
        <ele>1976</ele>
        <time>2022-08-19T17:28:06Z</time>
      </trkpt>
      <trkpt lat="44.17967" lon="6.65444">
        <ele>1976.1999511719</ele>
        <time>2022-08-19T17:28:07Z</time>
      </trkpt>
      <trkpt lat="44.17965" lon="6.65444">
        <ele>1976.4000244141</ele>
        <time>2022-08-19T17:28:09Z</time>
      </trkpt>
      <trkpt lat="44.17961" lon="6.65445">
        <ele>1977.4000244141</ele>
        <time>2022-08-19T17:28:14Z</time>
      </trkpt>
      <trkpt lat="44.1796" lon="6.65446">
        <ele>1977.4000244141</ele>
        <time>2022-08-19T17:28:15Z</time>
      </trkpt>
      <trkpt lat="44.17956" lon="6.65444">
        <ele>1978.4000244141</ele>
        <time>2022-08-19T17:28:21Z</time>
      </trkpt>
      <trkpt lat="44.17954" lon="6.65444">
        <ele>1978.5999755859</ele>
        <time>2022-08-19T17:28:23Z</time>
      </trkpt>
      <trkpt lat="44.17946" lon="6.65446">
        <ele>1979.5999755859</ele>
        <time>2022-08-19T17:28:34Z</time>
      </trkpt>
      <trkpt lat="44.17944" lon="6.65446">
        <ele>1979.8000488281</ele>
        <time>2022-08-19T17:28:36Z</time>
      </trkpt>
      <trkpt lat="44.1794" lon="6.65449">
        <ele>1980.5999755859</ele>
        <time>2022-08-19T17:28:42Z</time>
      </trkpt>
      <trkpt lat="44.17938" lon="6.65451">
        <ele>1981</ele>
        <time>2022-08-19T17:28:45Z</time>
      </trkpt>
      <trkpt lat="44.17935" lon="6.65453">
        <ele>1981.5999755859</ele>
        <time>2022-08-19T17:28:51Z</time>
      </trkpt>
      <trkpt lat="44.17932" lon="6.65454">
        <ele>1982.1999511719</ele>
        <time>2022-08-19T17:28:55Z</time>
      </trkpt>
      <trkpt lat="44.17931" lon="6.65455">
        <ele>1982.5999755859</ele>
        <time>2022-08-19T17:29:00Z</time>
      </trkpt>
      <trkpt lat="44.17931" lon="6.65455">
        <ele>1982.5999755859</ele>
        <time>2022-08-19T17:29:01Z</time>
      </trkpt>
      <trkpt lat="44.17929" lon="6.65456">
        <ele>1983</ele>
        <time>2022-08-19T17:29:04Z</time>
      </trkpt>
      <trkpt lat="44.17929" lon="6.65456">
        <ele>1983</ele>
        <time>2022-08-19T17:29:05Z</time>
      </trkpt>
      <trkpt lat="44.17923" lon="6.65455">
        <ele>1983.8000488281</ele>
        <time>2022-08-19T17:29:13Z</time>
      </trkpt>
      <trkpt lat="44.17923" lon="6.65454">
        <ele>1983.8000488281</ele>
        <time>2022-08-19T17:29:18Z</time>
      </trkpt>
      <trkpt lat="44.17924" lon="6.65453">
        <ele>1983.8000488281</ele>
        <time>2022-08-19T17:29:23Z</time>
      </trkpt>
      <trkpt lat="44.17924" lon="6.65452">
        <ele>1984</ele>
        <time>2022-08-19T17:29:33Z</time>
      </trkpt>
      <trkpt lat="44.17924" lon="6.65452">
        <ele>1984</ele>
        <time>2022-08-19T17:29:35Z</time>
      </trkpt>
      <trkpt lat="44.17923" lon="6.65453">
        <ele>1984.1999511719</ele>
        <time>2022-08-19T17:29:52Z</time>
      </trkpt>
      <trkpt lat="44.17922" lon="6.65453">
        <ele>1984</ele>
        <time>2022-08-19T17:29:59Z</time>
      </trkpt>
      <trkpt lat="44.17917" lon="6.65448">
        <ele>1984.8000488281</ele>
        <time>2022-08-19T17:30:08Z</time>
      </trkpt>
      <trkpt lat="44.17916" lon="6.65448">
        <ele>1984.8000488281</ele>
        <time>2022-08-19T17:30:09Z</time>
      </trkpt>
      <trkpt lat="44.17914" lon="6.65447">
        <ele>1985</ele>
        <time>2022-08-19T17:30:11Z</time>
      </trkpt>
      <trkpt lat="44.17913" lon="6.65446">
        <ele>1985.1999511719</ele>
        <time>2022-08-19T17:30:13Z</time>
      </trkpt>
      <trkpt lat="44.17911" lon="6.65446">
        <ele>1985.5999755859</ele>
        <time>2022-08-19T17:30:16Z</time>
      </trkpt>
      <trkpt lat="44.1791" lon="6.65443">
        <ele>1985.8000488281</ele>
        <time>2022-08-19T17:30:19Z</time>
      </trkpt>
      <trkpt lat="44.17909" lon="6.65438">
        <ele>1985.8000488281</ele>
        <time>2022-08-19T17:30:22Z</time>
      </trkpt>
      <trkpt lat="44.17908" lon="6.65437">
        <ele>1986</ele>
        <time>2022-08-19T17:30:23Z</time>
      </trkpt>
      <trkpt lat="44.17907" lon="6.65433">
        <ele>1986.1999511719</ele>
        <time>2022-08-19T17:30:26Z</time>
      </trkpt>
      <trkpt lat="44.17904" lon="6.65429">
        <ele>1986.5999755859</ele>
        <time>2022-08-19T17:30:29Z</time>
      </trkpt>
      <trkpt lat="44.17903" lon="6.65428">
        <ele>1986.8000488281</ele>
        <time>2022-08-19T17:30:30Z</time>
      </trkpt>
      <trkpt lat="44.17902" lon="6.65427">
        <ele>1986.8000488281</ele>
        <time>2022-08-19T17:30:31Z</time>
      </trkpt>
      <trkpt lat="44.17899" lon="6.65419">
        <ele>1987.8000488281</ele>
        <time>2022-08-19T17:30:37Z</time>
      </trkpt>
      <trkpt lat="44.17898" lon="6.65412">
        <ele>1988.4000244141</ele>
        <time>2022-08-19T17:30:41Z</time>
      </trkpt>
      <trkpt lat="44.17896" lon="6.65406">
        <ele>1989</ele>
        <time>2022-08-19T17:30:46Z</time>
      </trkpt>
      <trkpt lat="44.17896" lon="6.65398">
        <ele>1989.4000244141</ele>
        <time>2022-08-19T17:30:52Z</time>
      </trkpt>
      <trkpt lat="44.17895" lon="6.65391">
        <ele>1990</ele>
        <time>2022-08-19T17:31:01Z</time>
      </trkpt>
      <trkpt lat="44.17895" lon="6.65388">
        <ele>1990.4000244141</ele>
        <time>2022-08-19T17:31:04Z</time>
      </trkpt>
      <trkpt lat="44.17892" lon="6.65382">
        <ele>1990.8000488281</ele>
        <time>2022-08-19T17:31:11Z</time>
      </trkpt>
      <trkpt lat="44.1789" lon="6.65373">
        <ele>1991</ele>
        <time>2022-08-19T17:31:17Z</time>
      </trkpt>
      <trkpt lat="44.17889" lon="6.65372">
        <ele>1991.1999511719</ele>
        <time>2022-08-19T17:31:18Z</time>
      </trkpt>
      <trkpt lat="44.17888" lon="6.65368">
        <ele>1991.4000244141</ele>
        <time>2022-08-19T17:31:20Z</time>
      </trkpt>
      <trkpt lat="44.17883" lon="6.65358">
        <ele>1992.1999511719</ele>
        <time>2022-08-19T17:31:25Z</time>
      </trkpt>
      <trkpt lat="44.17881" lon="6.65348">
        <ele>1992.5999755859</ele>
        <time>2022-08-19T17:31:29Z</time>
      </trkpt>
      <trkpt lat="44.1788" lon="6.65343">
        <ele>1993</ele>
        <time>2022-08-19T17:31:31Z</time>
      </trkpt>
      <trkpt lat="44.1788" lon="6.65341">
        <ele>1993.1999511719</ele>
        <time>2022-08-19T17:31:32Z</time>
      </trkpt>
      <trkpt lat="44.17875" lon="6.65329">
        <ele>1994.1999511719</ele>
        <time>2022-08-19T17:31:39Z</time>
      </trkpt>
      <trkpt lat="44.17865" lon="6.65324">
        <ele>1995</ele>
        <time>2022-08-19T17:31:46Z</time>
      </trkpt>
      <trkpt lat="44.17862" lon="6.65324">
        <ele>1995.4000244141</ele>
        <time>2022-08-19T17:31:48Z</time>
      </trkpt>
      <trkpt lat="44.17855" lon="6.65325">
        <ele>1995.8000488281</ele>
        <time>2022-08-19T17:31:54Z</time>
      </trkpt>
      <trkpt lat="44.17855" lon="6.65325">
        <ele>1996</ele>
        <time>2022-08-19T17:31:55Z</time>
      </trkpt>
      <trkpt lat="44.17854" lon="6.65326">
        <ele>1996</ele>
        <time>2022-08-19T17:31:56Z</time>
      </trkpt>
      <trkpt lat="44.17854" lon="6.65326">
        <ele>1996.1999511719</ele>
        <time>2022-08-19T17:31:58Z</time>
      </trkpt>
      <trkpt lat="44.17853" lon="6.65326">
        <ele>1996.1999511719</ele>
        <time>2022-08-19T17:32:04Z</time>
      </trkpt>
      <trkpt lat="44.17852" lon="6.65325">
        <ele>1995.8000488281</ele>
        <time>2022-08-19T17:32:19Z</time>
      </trkpt>
      <trkpt lat="44.17851" lon="6.65324">
        <ele>1996.1999511719</ele>
        <time>2022-08-19T17:32:26Z</time>
      </trkpt>
      <trkpt lat="44.17849" lon="6.65323">
        <ele>1996.1999511719</ele>
        <time>2022-08-19T17:32:28Z</time>
      </trkpt>
      <trkpt lat="44.17844" lon="6.65322">
        <ele>1996.1999511719</ele>
        <time>2022-08-19T17:32:31Z</time>
      </trkpt>
      <trkpt lat="44.17839" lon="6.65321">
        <ele>1996.4000244141</ele>
        <time>2022-08-19T17:32:33Z</time>
      </trkpt>
      <trkpt lat="44.17836" lon="6.6532">
        <ele>1996.4000244141</ele>
        <time>2022-08-19T17:32:34Z</time>
      </trkpt>
      <trkpt lat="44.17835" lon="6.65319">
        <ele>1996.4000244141</ele>
        <time>2022-08-19T17:32:35Z</time>
      </trkpt>
      <trkpt lat="44.17829" lon="6.65316">
        <ele>1996.5999755859</ele>
        <time>2022-08-19T17:32:37Z</time>
      </trkpt>
      <trkpt lat="44.17823" lon="6.65313">
        <ele>1996.5999755859</ele>
        <time>2022-08-19T17:32:40Z</time>
      </trkpt>
      <trkpt lat="44.17821" lon="6.65312">
        <ele>1996.8000488281</ele>
        <time>2022-08-19T17:32:41Z</time>
      </trkpt>
      <trkpt lat="44.17811" lon="6.6531">
        <ele>1997.1999511719</ele>
        <time>2022-08-19T17:32:46Z</time>
      </trkpt>
      <trkpt lat="44.1781" lon="6.65311">
        <ele>1997.4000244141</ele>
        <time>2022-08-19T17:32:47Z</time>
      </trkpt>
      <trkpt lat="44.17808" lon="6.65312">
        <ele>1997.5999755859</ele>
        <time>2022-08-19T17:32:48Z</time>
      </trkpt>
      <trkpt lat="44.17805" lon="6.65314">
        <ele>1997.8000488281</ele>
        <time>2022-08-19T17:32:51Z</time>
      </trkpt>
      <trkpt lat="44.17805" lon="6.65314">
        <ele>1998</ele>
        <time>2022-08-19T17:32:52Z</time>
      </trkpt>
      <trkpt lat="44.17805" lon="6.65314">
        <ele>1998</ele>
        <time>2022-08-19T17:32:53Z</time>
      </trkpt>
      <trkpt lat="44.17804" lon="6.65313">
        <ele>1998</ele>
        <time>2022-08-19T17:32:55Z</time>
      </trkpt>
      <trkpt lat="44.17804" lon="6.65314">
        <ele>1998</ele>
        <time>2022-08-19T17:33:02Z</time>
      </trkpt>
      <trkpt lat="44.17803" lon="6.65314">
        <ele>1998.1999511719</ele>
        <time>2022-08-19T17:33:13Z</time>
      </trkpt>
      <trkpt lat="44.17803" lon="6.65314">
        <ele>1998.1999511719</ele>
        <time>2022-08-19T17:33:14Z</time>
      </trkpt>
      <trkpt lat="44.17803" lon="6.65313">
        <ele>1998.1999511719</ele>
        <time>2022-08-19T17:33:17Z</time>
      </trkpt>
      <trkpt lat="44.17802" lon="6.65312">
        <ele>1998.4000244141</ele>
        <time>2022-08-19T17:33:31Z</time>
      </trkpt>
      <trkpt lat="44.17796" lon="6.65312">
        <ele>1998.5999755859</ele>
        <time>2022-08-19T17:33:38Z</time>
      </trkpt>
      <trkpt lat="44.17789" lon="6.65314">
        <ele>1999</ele>
        <time>2022-08-19T17:33:41Z</time>
      </trkpt>
      <trkpt lat="44.17784" lon="6.65314">
        <ele>1999.5999755859</ele>
        <time>2022-08-19T17:33:44Z</time>
      </trkpt>
      <trkpt lat="44.17777" lon="6.65317">
        <ele>2000.8000488281</ele>
        <time>2022-08-19T17:33:49Z</time>
      </trkpt>
      <trkpt lat="44.1777" lon="6.6532">
        <ele>2001.8000488281</ele>
        <time>2022-08-19T17:33:54Z</time>
      </trkpt>
      <trkpt lat="44.17767" lon="6.65321">
        <ele>2002.1999511719</ele>
        <time>2022-08-19T17:33:56Z</time>
      </trkpt>
      <trkpt lat="44.17762" lon="6.65324">
        <ele>2003</ele>
        <time>2022-08-19T17:34:00Z</time>
      </trkpt>
      <trkpt lat="44.17758" lon="6.65326">
        <ele>2003.8000488281</ele>
        <time>2022-08-19T17:34:03Z</time>
      </trkpt>
      <trkpt lat="44.17755" lon="6.65328">
        <ele>2004.1999511719</ele>
        <time>2022-08-19T17:34:05Z</time>
      </trkpt>
      <trkpt lat="44.17752" lon="6.65331">
        <ele>2004.5999755859</ele>
        <time>2022-08-19T17:34:08Z</time>
      </trkpt>
      <trkpt lat="44.17749" lon="6.65334">
        <ele>2005.1999511719</ele>
        <time>2022-08-19T17:34:12Z</time>
      </trkpt>
      <trkpt lat="44.17746" lon="6.65336">
        <ele>2005.5999755859</ele>
        <time>2022-08-19T17:34:14Z</time>
      </trkpt>
      <trkpt lat="44.17742" lon="6.65341">
        <ele>2006.1999511719</ele>
        <time>2022-08-19T17:34:18Z</time>
      </trkpt>
      <trkpt lat="44.17739" lon="6.65345">
        <ele>2006.8000488281</ele>
        <time>2022-08-19T17:34:22Z</time>
      </trkpt>
      <trkpt lat="44.17737" lon="6.65346">
        <ele>2007</ele>
        <time>2022-08-19T17:34:23Z</time>
      </trkpt>
      <trkpt lat="44.17736" lon="6.65346">
        <ele>2007.1999511719</ele>
        <time>2022-08-19T17:34:25Z</time>
      </trkpt>
      <trkpt lat="44.17733" lon="6.65346">
        <ele>2007.4000244141</ele>
        <time>2022-08-19T17:34:27Z</time>
      </trkpt>
      <trkpt lat="44.17729" lon="6.65347">
        <ele>2008</ele>
        <time>2022-08-19T17:34:30Z</time>
      </trkpt>
      <trkpt lat="44.17728" lon="6.65347">
        <ele>2008.4000244141</ele>
        <time>2022-08-19T17:34:31Z</time>
      </trkpt>
      <trkpt lat="44.17724" lon="6.65349">
        <ele>2009.4000244141</ele>
        <time>2022-08-19T17:34:36Z</time>
      </trkpt>
      <trkpt lat="44.17719" lon="6.65351">
        <ele>2010</ele>
        <time>2022-08-19T17:34:40Z</time>
      </trkpt>
      <trkpt lat="44.17717" lon="6.65351">
        <ele>2010.4000244141</ele>
        <time>2022-08-19T17:34:42Z</time>
      </trkpt>
      <trkpt lat="44.17711" lon="6.65352">
        <ele>2011.4000244141</ele>
        <time>2022-08-19T17:34:51Z</time>
      </trkpt>
      <trkpt lat="44.17708" lon="6.65352">
        <ele>2011.5999755859</ele>
        <time>2022-08-19T17:35:03Z</time>
      </trkpt>
      <trkpt lat="44.17708" lon="6.65352">
        <ele>2011.8000488281</ele>
        <time>2022-08-19T17:35:10Z</time>
      </trkpt>
      <trkpt lat="44.17708" lon="6.65352">
        <ele>2011.8000488281</ele>
        <time>2022-08-19T17:35:17Z</time>
      </trkpt>
      <trkpt lat="44.17707" lon="6.65352">
        <ele>2011.8000488281</ele>
        <time>2022-08-19T17:35:31Z</time>
      </trkpt>
      <trkpt lat="44.17707" lon="6.65351">
        <ele>2011.8000488281</ele>
        <time>2022-08-19T17:35:32Z</time>
      </trkpt>
      <trkpt lat="44.17707" lon="6.65352">
        <ele>2011.8000488281</ele>
        <time>2022-08-19T17:35:37Z</time>
      </trkpt>
      <trkpt lat="44.17707" lon="6.65352">
        <ele>2011.8000488281</ele>
        <time>2022-08-19T17:35:41Z</time>
      </trkpt>
      <trkpt lat="44.17707" lon="6.65352">
        <ele>2012</ele>
        <time>2022-08-19T17:35:47Z</time>
      </trkpt>
      <trkpt lat="44.17707" lon="6.65352">
        <ele>2012</ele>
        <time>2022-08-19T17:35:51Z</time>
      </trkpt>
      <trkpt lat="44.17706" lon="6.65351">
        <ele>2012</ele>
        <time>2022-08-19T17:35:55Z</time>
      </trkpt>
      <trkpt lat="44.17706" lon="6.65351">
        <ele>2012</ele>
        <time>2022-08-19T17:36:02Z</time>
      </trkpt>
      <trkpt lat="44.17706" lon="6.65352">
        <ele>2012</ele>
        <time>2022-08-19T17:36:07Z</time>
      </trkpt>
      <trkpt lat="44.17706" lon="6.65352">
        <ele>2012</ele>
        <time>2022-08-19T17:36:19Z</time>
      </trkpt>
      <trkpt lat="44.17702" lon="6.65354">
        <ele>2012</ele>
        <time>2022-08-19T17:36:29Z</time>
      </trkpt>
      <trkpt lat="44.17698" lon="6.65357">
        <ele>2012</ele>
        <time>2022-08-19T17:36:35Z</time>
      </trkpt>
      <trkpt lat="44.17695" lon="6.65358">
        <ele>2012</ele>
        <time>2022-08-19T17:36:39Z</time>
      </trkpt>
      <trkpt lat="44.17693" lon="6.65357">
        <ele>2012.4000244141</ele>
        <time>2022-08-19T17:36:42Z</time>
      </trkpt>
      <trkpt lat="44.17692" lon="6.65357">
        <ele>2012.4000244141</ele>
        <time>2022-08-19T17:36:43Z</time>
      </trkpt>
      <trkpt lat="44.17686" lon="6.65359">
        <ele>2013.8000488281</ele>
        <time>2022-08-19T17:36:51Z</time>
      </trkpt>
      <trkpt lat="44.17686" lon="6.6536">
        <ele>2014</ele>
        <time>2022-08-19T17:36:53Z</time>
      </trkpt>
      <trkpt lat="44.17686" lon="6.65363">
        <ele>2014.1999511719</ele>
        <time>2022-08-19T17:36:58Z</time>
      </trkpt>
      <trkpt lat="44.17685" lon="6.65363">
        <ele>2014.1999511719</ele>
        <time>2022-08-19T17:36:59Z</time>
      </trkpt>
      <trkpt lat="44.17675" lon="6.65373">
        <ele>2014.8000488281</ele>
        <time>2022-08-19T17:37:06Z</time>
      </trkpt>
      <trkpt lat="44.1767" lon="6.65376">
        <ele>2015.1999511719</ele>
        <time>2022-08-19T17:37:09Z</time>
      </trkpt>
      <trkpt lat="44.17663" lon="6.65381">
        <ele>2016</ele>
        <time>2022-08-19T17:37:16Z</time>
      </trkpt>
      <trkpt lat="44.17661" lon="6.65381">
        <ele>2016.1999511719</ele>
        <time>2022-08-19T17:37:17Z</time>
      </trkpt>
      <trkpt lat="44.17658" lon="6.65383">
        <ele>2016.4000244141</ele>
        <time>2022-08-19T17:37:19Z</time>
      </trkpt>
      <trkpt lat="44.17652" lon="6.65386">
        <ele>2017</ele>
        <time>2022-08-19T17:37:23Z</time>
      </trkpt>
      <trkpt lat="44.17648" lon="6.65387">
        <ele>2017.4000244141</ele>
        <time>2022-08-19T17:37:26Z</time>
      </trkpt>
      <trkpt lat="44.17646" lon="6.65387">
        <ele>2017.8000488281</ele>
        <time>2022-08-19T17:37:28Z</time>
      </trkpt>
      <trkpt lat="44.17642" lon="6.65388">
        <ele>2018</ele>
        <time>2022-08-19T17:37:30Z</time>
      </trkpt>
      <trkpt lat="44.17634" lon="6.65391">
        <ele>2018.8000488281</ele>
        <time>2022-08-19T17:37:34Z</time>
      </trkpt>
      <trkpt lat="44.17631" lon="6.65393">
        <ele>2019</ele>
        <time>2022-08-19T17:37:36Z</time>
      </trkpt>
      <trkpt lat="44.17629" lon="6.65395">
        <ele>2019.1999511719</ele>
        <time>2022-08-19T17:37:37Z</time>
      </trkpt>
      <trkpt lat="44.17622" lon="6.65405">
        <ele>2020.4000244141</ele>
        <time>2022-08-19T17:37:43Z</time>
      </trkpt>
      <trkpt lat="44.1762" lon="6.65408">
        <ele>2020.5999755859</ele>
        <time>2022-08-19T17:37:44Z</time>
      </trkpt>
      <trkpt lat="44.17613" lon="6.6541">
        <ele>2021</ele>
        <time>2022-08-19T17:37:47Z</time>
      </trkpt>
      <trkpt lat="44.17605" lon="6.65413">
        <ele>2021.4000244141</ele>
        <time>2022-08-19T17:37:50Z</time>
      </trkpt>
      <trkpt lat="44.17595" lon="6.65416">
        <ele>2022.1999511719</ele>
        <time>2022-08-19T17:37:56Z</time>
      </trkpt>
      <trkpt lat="44.17594" lon="6.65416">
        <ele>2022.4000244141</ele>
        <time>2022-08-19T17:37:57Z</time>
      </trkpt>
      <trkpt lat="44.17591" lon="6.65417">
        <ele>2022.5999755859</ele>
        <time>2022-08-19T17:37:58Z</time>
      </trkpt>
      <trkpt lat="44.17584" lon="6.65417">
        <ele>2023.4000244141</ele>
        <time>2022-08-19T17:38:03Z</time>
      </trkpt>
      <trkpt lat="44.17583" lon="6.65417">
        <ele>2023.5999755859</ele>
        <time>2022-08-19T17:38:04Z</time>
      </trkpt>
      <trkpt lat="44.17573" lon="6.6542">
        <ele>2024.4000244141</ele>
        <time>2022-08-19T17:38:10Z</time>
      </trkpt>
      <trkpt lat="44.1757" lon="6.65422">
        <ele>2024.8000488281</ele>
        <time>2022-08-19T17:38:12Z</time>
      </trkpt>
      <trkpt lat="44.17561" lon="6.65425">
        <ele>2025.8000488281</ele>
        <time>2022-08-19T17:38:16Z</time>
      </trkpt>
      <trkpt lat="44.17556" lon="6.65427">
        <ele>2026.1999511719</ele>
        <time>2022-08-19T17:38:18Z</time>
      </trkpt>
      <trkpt lat="44.1755" lon="6.65427">
        <ele>2026.8000488281</ele>
        <time>2022-08-19T17:38:21Z</time>
      </trkpt>
      <trkpt lat="44.17536" lon="6.65427">
        <ele>2027.8000488281</ele>
        <time>2022-08-19T17:38:30Z</time>
      </trkpt>
      <trkpt lat="44.17524" lon="6.6543">
        <ele>2028.8000488281</ele>
        <time>2022-08-19T17:38:40Z</time>
      </trkpt>
      <trkpt lat="44.17513" lon="6.65428">
        <ele>2029.8000488281</ele>
        <time>2022-08-19T17:38:48Z</time>
      </trkpt>
      <trkpt lat="44.1751" lon="6.65427">
        <ele>2030</ele>
        <time>2022-08-19T17:38:50Z</time>
      </trkpt>
      <trkpt lat="44.17506" lon="6.65426">
        <ele>2030.1999511719</ele>
        <time>2022-08-19T17:38:52Z</time>
      </trkpt>
      <trkpt lat="44.17501" lon="6.65427">
        <ele>2030.8000488281</ele>
        <time>2022-08-19T17:38:56Z</time>
      </trkpt>
      <trkpt lat="44.175" lon="6.65428">
        <ele>2031</ele>
        <time>2022-08-19T17:38:57Z</time>
      </trkpt>
      <trkpt lat="44.17493" lon="6.65431">
        <ele>2032</ele>
        <time>2022-08-19T17:39:04Z</time>
      </trkpt>
      <trkpt lat="44.17492" lon="6.65432">
        <ele>2032</ele>
        <time>2022-08-19T17:39:05Z</time>
      </trkpt>
      <trkpt lat="44.17487" lon="6.65441">
        <ele>2033</ele>
        <time>2022-08-19T17:39:13Z</time>
      </trkpt>
      <trkpt lat="44.17486" lon="6.65443">
        <ele>2033.4000244141</ele>
        <time>2022-08-19T17:39:15Z</time>
      </trkpt>
      <trkpt lat="44.17478" lon="6.65444">
        <ele>2034.1999511719</ele>
        <time>2022-08-19T17:39:21Z</time>
      </trkpt>
      <trkpt lat="44.17476" lon="6.65443">
        <ele>2034.1999511719</ele>
        <time>2022-08-19T17:39:22Z</time>
      </trkpt>
      <trkpt lat="44.17475" lon="6.65442">
        <ele>2034.4000244141</ele>
        <time>2022-08-19T17:39:23Z</time>
      </trkpt>
      <trkpt lat="44.17471" lon="6.65439">
        <ele>2035</ele>
        <time>2022-08-19T17:39:26Z</time>
      </trkpt>
      <trkpt lat="44.17468" lon="6.65439">
        <ele>2035.1999511719</ele>
        <time>2022-08-19T17:39:29Z</time>
      </trkpt>
      <trkpt lat="44.17458" lon="6.65437">
        <ele>2035.8000488281</ele>
        <time>2022-08-19T17:39:36Z</time>
      </trkpt>
      <trkpt lat="44.17458" lon="6.65438">
        <ele>2036</ele>
        <time>2022-08-19T17:39:37Z</time>
      </trkpt>
      <trkpt lat="44.17457" lon="6.65438">
        <ele>2036.1999511719</ele>
        <time>2022-08-19T17:39:38Z</time>
      </trkpt>
      <trkpt lat="44.17457" lon="6.65438">
        <ele>2036.1999511719</ele>
        <time>2022-08-19T17:39:39Z</time>
      </trkpt>
      <trkpt lat="44.1745" lon="6.65445">
        <ele>2036.8000488281</ele>
        <time>2022-08-19T17:39:46Z</time>
      </trkpt>
      <trkpt lat="44.17447" lon="6.6545">
        <ele>2037.1999511719</ele>
        <time>2022-08-19T17:39:51Z</time>
      </trkpt>
      <trkpt lat="44.17445" lon="6.65454">
        <ele>2037.5999755859</ele>
        <time>2022-08-19T17:39:54Z</time>
      </trkpt>
      <trkpt lat="44.1744" lon="6.65452">
        <ele>2038.1999511719</ele>
        <time>2022-08-19T17:39:58Z</time>
      </trkpt>
      <trkpt lat="44.17437" lon="6.65449">
        <ele>2038.4000244141</ele>
        <time>2022-08-19T17:40:00Z</time>
      </trkpt>
      <trkpt lat="44.17436" lon="6.65447">
        <ele>2038.1999511719</ele>
        <time>2022-08-19T17:40:01Z</time>
      </trkpt>
      <trkpt lat="44.17435" lon="6.65443">
        <ele>2038.1999511719</ele>
        <time>2022-08-19T17:40:03Z</time>
      </trkpt>
      <trkpt lat="44.17433" lon="6.65436">
        <ele>2038.4000244141</ele>
        <time>2022-08-19T17:40:06Z</time>
      </trkpt>
      <trkpt lat="44.17432" lon="6.6543">
        <ele>2038.5999755859</ele>
        <time>2022-08-19T17:40:08Z</time>
      </trkpt>
      <trkpt lat="44.17428" lon="6.65421">
        <ele>2039</ele>
        <time>2022-08-19T17:40:12Z</time>
      </trkpt>
      <trkpt lat="44.17426" lon="6.65418">
        <ele>2039.4000244141</ele>
        <time>2022-08-19T17:40:14Z</time>
      </trkpt>
      <trkpt lat="44.1742" lon="6.65417">
        <ele>2039.8000488281</ele>
        <time>2022-08-19T17:40:18Z</time>
      </trkpt>
      <trkpt lat="44.17413" lon="6.65426">
        <ele>2040.1999511719</ele>
        <time>2022-08-19T17:40:24Z</time>
      </trkpt>
      <trkpt lat="44.17411" lon="6.65428">
        <ele>2040.4000244141</ele>
        <time>2022-08-19T17:40:25Z</time>
      </trkpt>
      <trkpt lat="44.17403" lon="6.6544">
        <ele>2041.4000244141</ele>
        <time>2022-08-19T17:40:31Z</time>
      </trkpt>
      <trkpt lat="44.17401" lon="6.65444">
        <ele>2042.1999511719</ele>
        <time>2022-08-19T17:40:35Z</time>
      </trkpt>
      <trkpt lat="44.17401" lon="6.65445">
        <ele>2042.5999755859</ele>
        <time>2022-08-19T17:40:37Z</time>
      </trkpt>
      <trkpt lat="44.17401" lon="6.65445">
        <ele>2043.1999511719</ele>
        <time>2022-08-19T17:40:41Z</time>
      </trkpt>
      <trkpt lat="44.174" lon="6.65446">
        <ele>2043.5999755859</ele>
        <time>2022-08-19T17:40:48Z</time>
      </trkpt>
      <trkpt lat="44.17401" lon="6.65447">
        <ele>2043.1999511719</ele>
        <time>2022-08-19T17:40:53Z</time>
      </trkpt>
      <trkpt lat="44.17401" lon="6.65448">
        <ele>2042.5999755859</ele>
        <time>2022-08-19T17:40:57Z</time>
      </trkpt>
      <trkpt lat="44.17401" lon="6.65448">
        <ele>2042.4000244141</ele>
        <time>2022-08-19T17:41:03Z</time>
      </trkpt>
      <trkpt lat="44.17393" lon="6.65456">
        <ele>2042.5999755859</ele>
        <time>2022-08-19T17:41:10Z</time>
      </trkpt>
      <trkpt lat="44.17389" lon="6.65462">
        <ele>2043</ele>
        <time>2022-08-19T17:41:13Z</time>
      </trkpt>
      <trkpt lat="44.17387" lon="6.65466">
        <ele>2043.4000244141</ele>
        <time>2022-08-19T17:41:15Z</time>
      </trkpt>
      <trkpt lat="44.17383" lon="6.65471">
        <ele>2043.5999755859</ele>
        <time>2022-08-19T17:41:17Z</time>
      </trkpt>
      <trkpt lat="44.17378" lon="6.65478">
        <ele>2044</ele>
        <time>2022-08-19T17:41:20Z</time>
      </trkpt>
      <trkpt lat="44.17376" lon="6.65481">
        <ele>2044</ele>
        <time>2022-08-19T17:41:21Z</time>
      </trkpt>
      <trkpt lat="44.17366" lon="6.65494">
        <ele>2044.8000488281</ele>
        <time>2022-08-19T17:41:26Z</time>
      </trkpt>
      <trkpt lat="44.17364" lon="6.65497">
        <ele>2044.8000488281</ele>
        <time>2022-08-19T17:41:27Z</time>
      </trkpt>
      <trkpt lat="44.17354" lon="6.65508">
        <ele>2045.8000488281</ele>
        <time>2022-08-19T17:41:33Z</time>
      </trkpt>
      <trkpt lat="44.17349" lon="6.65516">
        <ele>2046.8000488281</ele>
        <time>2022-08-19T17:41:39Z</time>
      </trkpt>
      <trkpt lat="44.17349" lon="6.65516">
        <ele>2047</ele>
        <time>2022-08-19T17:41:40Z</time>
      </trkpt>
      <trkpt lat="44.17348" lon="6.65515">
        <ele>2047</ele>
        <time>2022-08-19T17:41:42Z</time>
      </trkpt>
      <trkpt lat="44.17349" lon="6.65512">
        <ele>2047.1999511719</ele>
        <time>2022-08-19T17:41:44Z</time>
      </trkpt>
      <trkpt lat="44.17352" lon="6.65502">
        <ele>2048.1999511719</ele>
        <time>2022-08-19T17:41:49Z</time>
      </trkpt>
      <trkpt lat="44.17351" lon="6.655">
        <ele>2048.6000976562</ele>
        <time>2022-08-19T17:41:50Z</time>
      </trkpt>
      <trkpt lat="44.1735" lon="6.65497">
        <ele>2048.8000488281</ele>
        <time>2022-08-19T17:41:51Z</time>
      </trkpt>
      <trkpt lat="44.1735" lon="6.65494">
        <ele>2048.8000488281</ele>
        <time>2022-08-19T17:41:52Z</time>
      </trkpt>
      <trkpt lat="44.17349" lon="6.65487">
        <ele>2049.1999511719</ele>
        <time>2022-08-19T17:41:55Z</time>
      </trkpt>
      <trkpt lat="44.17349" lon="6.65485">
        <ele>2049.3999023438</ele>
        <time>2022-08-19T17:41:56Z</time>
      </trkpt>
      <trkpt lat="44.17349" lon="6.65478">
        <ele>2049.3999023438</ele>
        <time>2022-08-19T17:41:58Z</time>
      </trkpt>
      <trkpt lat="44.17348" lon="6.6546">
        <ele>2048.3999023438</ele>
        <time>2022-08-19T17:42:02Z</time>
      </trkpt>
      <trkpt lat="44.17343" lon="6.65441">
        <ele>2048.6000976562</ele>
        <time>2022-08-19T17:42:08Z</time>
      </trkpt>
      <trkpt lat="44.17341" lon="6.65426">
        <ele>2048.1999511719</ele>
        <time>2022-08-19T17:42:13Z</time>
      </trkpt>
      <trkpt lat="44.17339" lon="6.65408">
        <ele>2048</ele>
        <time>2022-08-19T17:42:18Z</time>
      </trkpt>
      <trkpt lat="44.17333" lon="6.65392">
        <ele>2047.5999755859</ele>
        <time>2022-08-19T17:42:22Z</time>
      </trkpt>
      <trkpt lat="44.17331" lon="6.65386">
        <ele>2047.4000244141</ele>
        <time>2022-08-19T17:42:24Z</time>
      </trkpt>
      <trkpt lat="44.1733" lon="6.65378">
        <ele>2047.1999511719</ele>
        <time>2022-08-19T17:42:27Z</time>
      </trkpt>
      <trkpt lat="44.1733" lon="6.65375">
        <ele>2047.1999511719</ele>
        <time>2022-08-19T17:42:28Z</time>
      </trkpt>
      <trkpt lat="44.17328" lon="6.65374">
        <ele>2047</ele>
        <time>2022-08-19T17:42:29Z</time>
      </trkpt>
      <trkpt lat="44.17327" lon="6.65374">
        <ele>2047</ele>
        <time>2022-08-19T17:42:30Z</time>
      </trkpt>
      <trkpt lat="44.17322" lon="6.65374">
        <ele>2046.5999755859</ele>
        <time>2022-08-19T17:42:33Z</time>
      </trkpt>
      <trkpt lat="44.1732" lon="6.65374">
        <ele>2046.5999755859</ele>
        <time>2022-08-19T17:42:35Z</time>
      </trkpt>
      <trkpt lat="44.17321" lon="6.6537">
        <ele>2046.5999755859</ele>
        <time>2022-08-19T17:42:37Z</time>
      </trkpt>
      <trkpt lat="44.1732" lon="6.65368">
        <ele>2046.4000244141</ele>
        <time>2022-08-19T17:42:38Z</time>
      </trkpt>
      <trkpt lat="44.17319" lon="6.6536">
        <ele>2046.1999511719</ele>
        <time>2022-08-19T17:42:40Z</time>
      </trkpt>
      <trkpt lat="44.1732" lon="6.65354">
        <ele>2046.1999511719</ele>
        <time>2022-08-19T17:42:42Z</time>
      </trkpt>
      <trkpt lat="44.17319" lon="6.65351">
        <ele>2046</ele>
        <time>2022-08-19T17:42:43Z</time>
      </trkpt>
      <trkpt lat="44.17314" lon="6.65333">
        <ele>2045.1999511719</ele>
        <time>2022-08-19T17:42:47Z</time>
      </trkpt>
      <trkpt lat="44.17312" lon="6.65329">
        <ele>2045</ele>
        <time>2022-08-19T17:42:48Z</time>
      </trkpt>
      <trkpt lat="44.17301" lon="6.65309">
        <ele>2044.4000244141</ele>
        <time>2022-08-19T17:42:53Z</time>
      </trkpt>
      <trkpt lat="44.17299" lon="6.65303">
        <ele>2044.1999511719</ele>
        <time>2022-08-19T17:42:54Z</time>
      </trkpt>
      <trkpt lat="44.17293" lon="6.6529">
        <ele>2044</ele>
        <time>2022-08-19T17:42:57Z</time>
      </trkpt>
      <trkpt lat="44.17285" lon="6.65277">
        <ele>2043.5999755859</ele>
        <time>2022-08-19T17:43:01Z</time>
      </trkpt>
      <trkpt lat="44.17284" lon="6.65275">
        <ele>2043.5999755859</ele>
        <time>2022-08-19T17:43:02Z</time>
      </trkpt>
      <trkpt lat="44.17284" lon="6.65274">
        <ele>2043.5999755859</ele>
        <time>2022-08-19T17:43:03Z</time>
      </trkpt>
      <trkpt lat="44.17284" lon="6.65273">
        <ele>2043.4000244141</ele>
        <time>2022-08-19T17:43:05Z</time>
      </trkpt>
      <trkpt lat="44.17283" lon="6.65273">
        <ele>2043.4000244141</ele>
        <time>2022-08-19T17:43:07Z</time>
      </trkpt>
      <trkpt lat="44.17281" lon="6.65273">
        <ele>2043.4000244141</ele>
        <time>2022-08-19T17:43:13Z</time>
      </trkpt>
      <trkpt lat="44.17284" lon="6.6527">
        <ele>2043.4000244141</ele>
        <time>2022-08-19T17:43:22Z</time>
      </trkpt>
      <trkpt lat="44.17285" lon="6.6527">
        <ele>2043.4000244141</ele>
        <time>2022-08-19T17:43:25Z</time>
      </trkpt>
      <trkpt lat="44.17285" lon="6.6527">
        <ele>2043.4000244141</ele>
        <time>2022-08-19T17:43:26Z</time>
      </trkpt>
      <trkpt lat="44.17285" lon="6.6527">
        <ele>2043.4000244141</ele>
        <time>2022-08-19T17:43:29Z</time>
      </trkpt>
      <trkpt lat="44.17284" lon="6.6527">
        <ele>2043.4000244141</ele>
        <time>2022-08-19T17:43:31Z</time>
      </trkpt>
      <trkpt lat="44.17284" lon="6.65271">
        <ele>2043.4000244141</ele>
        <time>2022-08-19T17:43:34Z</time>
      </trkpt>
      <trkpt lat="44.17281" lon="6.65272">
        <ele>2043.4000244141</ele>
        <time>2022-08-19T17:43:48Z</time>
      </trkpt>
      <trkpt lat="44.17281" lon="6.65271">
        <ele>2043.4000244141</ele>
        <time>2022-08-19T17:43:55Z</time>
      </trkpt>
      <trkpt lat="44.17279" lon="6.65271">
        <ele>2043.4000244141</ele>
        <time>2022-08-19T17:44:01Z</time>
      </trkpt>
      <trkpt lat="44.17279" lon="6.65271">
        <ele>2043.4000244141</ele>
        <time>2022-08-19T17:44:02Z</time>
      </trkpt>
      <trkpt lat="44.17278" lon="6.6527">
        <ele>2043.4000244141</ele>
        <time>2022-08-19T17:44:10Z</time>
      </trkpt>
      <trkpt lat="44.17277" lon="6.65271">
        <ele>2043.4000244141</ele>
        <time>2022-08-19T17:44:12Z</time>
      </trkpt>
      <trkpt lat="44.17277" lon="6.65271">
        <ele>2043.4000244141</ele>
        <time>2022-08-19T17:44:14Z</time>
      </trkpt>
      <trkpt lat="44.17276" lon="6.65273">
        <ele>2043.4000244141</ele>
        <time>2022-08-19T17:44:23Z</time>
      </trkpt>
      <trkpt lat="44.17275" lon="6.65267">
        <ele>2043.4000244141</ele>
        <time>2022-08-19T17:44:34Z</time>
      </trkpt>
      <trkpt lat="44.17272" lon="6.6526">
        <ele>2043.4000244141</ele>
        <time>2022-08-19T17:44:37Z</time>
      </trkpt>
      <trkpt lat="44.17268" lon="6.65248">
        <ele>2043.4000244141</ele>
        <time>2022-08-19T17:44:41Z</time>
      </trkpt>
      <trkpt lat="44.17265" lon="6.65243">
        <ele>2043.1999511719</ele>
        <time>2022-08-19T17:44:43Z</time>
      </trkpt>
      <trkpt lat="44.17261" lon="6.65235">
        <ele>2043</ele>
        <time>2022-08-19T17:44:45Z</time>
      </trkpt>
      <trkpt lat="44.1726" lon="6.65231">
        <ele>2042.8000488281</ele>
        <time>2022-08-19T17:44:46Z</time>
      </trkpt>
      <trkpt lat="44.17254" lon="6.65224">
        <ele>2042.4000244141</ele>
        <time>2022-08-19T17:44:49Z</time>
      </trkpt>
      <trkpt lat="44.17251" lon="6.65222">
        <ele>2042.1999511719</ele>
        <time>2022-08-19T17:44:51Z</time>
      </trkpt>
      <trkpt lat="44.17251" lon="6.6522">
        <ele>2042.1999511719</ele>
        <time>2022-08-19T17:44:52Z</time>
      </trkpt>
      <trkpt lat="44.17251" lon="6.65216">
        <ele>2042</ele>
        <time>2022-08-19T17:44:54Z</time>
      </trkpt>
      <trkpt lat="44.17248" lon="6.6521">
        <ele>2041.8000488281</ele>
        <time>2022-08-19T17:44:56Z</time>
      </trkpt>
      <trkpt lat="44.17242" lon="6.65202">
        <ele>2041.4000244141</ele>
        <time>2022-08-19T17:44:59Z</time>
      </trkpt>
      <trkpt lat="44.17234" lon="6.65183">
        <ele>2041</ele>
        <time>2022-08-19T17:45:05Z</time>
      </trkpt>
      <trkpt lat="44.1723" lon="6.65175">
        <ele>2040.5999755859</ele>
        <time>2022-08-19T17:45:07Z</time>
      </trkpt>
      <trkpt lat="44.17225" lon="6.65168">
        <ele>2040</ele>
        <time>2022-08-19T17:45:09Z</time>
      </trkpt>
      <trkpt lat="44.17216" lon="6.65157">
        <ele>2039.4000244141</ele>
        <time>2022-08-19T17:45:12Z</time>
      </trkpt>
      <trkpt lat="44.17205" lon="6.65144">
        <ele>2039</ele>
        <time>2022-08-19T17:45:16Z</time>
      </trkpt>
      <trkpt lat="44.17196" lon="6.65127">
        <ele>2039</ele>
        <time>2022-08-19T17:45:22Z</time>
      </trkpt>
      <trkpt lat="44.17184" lon="6.65104">
        <ele>2038.5999755859</ele>
        <time>2022-08-19T17:45:29Z</time>
      </trkpt>
      <trkpt lat="44.17179" lon="6.65097">
        <ele>2038.4000244141</ele>
        <time>2022-08-19T17:45:31Z</time>
      </trkpt>
      <trkpt lat="44.1717" lon="6.65088">
        <ele>2037.5999755859</ele>
        <time>2022-08-19T17:45:36Z</time>
      </trkpt>
      <trkpt lat="44.17165" lon="6.65086">
        <ele>2037.1999511719</ele>
        <time>2022-08-19T17:45:39Z</time>
      </trkpt>
      <trkpt lat="44.17155" lon="6.65081">
        <ele>2036.4000244141</ele>
        <time>2022-08-19T17:45:43Z</time>
      </trkpt>
      <trkpt lat="44.17149" lon="6.65081">
        <ele>2036.1999511719</ele>
        <time>2022-08-19T17:45:45Z</time>
      </trkpt>
      <trkpt lat="44.17145" lon="6.65083">
        <ele>2036.1999511719</ele>
        <time>2022-08-19T17:45:47Z</time>
      </trkpt>
      <trkpt lat="44.17143" lon="6.65084">
        <ele>2036.1999511719</ele>
        <time>2022-08-19T17:45:48Z</time>
      </trkpt>
      <trkpt lat="44.17136" lon="6.65092">
        <ele>2035.5999755859</ele>
        <time>2022-08-19T17:45:51Z</time>
      </trkpt>
      <trkpt lat="44.17131" lon="6.65097">
        <ele>2035</ele>
        <time>2022-08-19T17:45:53Z</time>
      </trkpt>
      <trkpt lat="44.17129" lon="6.65098">
        <ele>2035</ele>
        <time>2022-08-19T17:45:54Z</time>
      </trkpt>
      <trkpt lat="44.17123" lon="6.651">
        <ele>2035</ele>
        <time>2022-08-19T17:45:58Z</time>
      </trkpt>
      <trkpt lat="44.17121" lon="6.651">
        <ele>2035.4000244141</ele>
        <time>2022-08-19T17:46:01Z</time>
      </trkpt>
      <trkpt lat="44.1712" lon="6.65098">
        <ele>2035.1999511719</ele>
        <time>2022-08-19T17:46:03Z</time>
      </trkpt>
      <trkpt lat="44.17116" lon="6.65097">
        <ele>2035</ele>
        <time>2022-08-19T17:46:05Z</time>
      </trkpt>
      <trkpt lat="44.17109" lon="6.65099">
        <ele>2034.1999511719</ele>
        <time>2022-08-19T17:46:08Z</time>
      </trkpt>
      <trkpt lat="44.17107" lon="6.65101">
        <ele>2034</ele>
        <time>2022-08-19T17:46:09Z</time>
      </trkpt>
      <trkpt lat="44.17105" lon="6.65102">
        <ele>2033.8000488281</ele>
        <time>2022-08-19T17:46:10Z</time>
      </trkpt>
      <trkpt lat="44.17098" lon="6.65108">
        <ele>2033.5999755859</ele>
        <time>2022-08-19T17:46:14Z</time>
      </trkpt>
      <trkpt lat="44.17095" lon="6.65109">
        <ele>2033.5999755859</ele>
        <time>2022-08-19T17:46:16Z</time>
      </trkpt>
      <trkpt lat="44.17087" lon="6.65111">
        <ele>2033.1999511719</ele>
        <time>2022-08-19T17:46:20Z</time>
      </trkpt>
      <trkpt lat="44.17083" lon="6.6511">
        <ele>2033</ele>
        <time>2022-08-19T17:46:22Z</time>
      </trkpt>
      <trkpt lat="44.1707" lon="6.65117">
        <ele>2032.5999755859</ele>
        <time>2022-08-19T17:46:27Z</time>
      </trkpt>
      <trkpt lat="44.17069" lon="6.65118">
        <ele>2032.5999755859</ele>
        <time>2022-08-19T17:46:28Z</time>
      </trkpt>
      <trkpt lat="44.17056" lon="6.65124">
        <ele>2032.4000244141</ele>
        <time>2022-08-19T17:46:34Z</time>
      </trkpt>
      <trkpt lat="44.1705" lon="6.65125">
        <ele>2032</ele>
        <time>2022-08-19T17:46:37Z</time>
      </trkpt>
      <trkpt lat="44.17041" lon="6.65124">
        <ele>2031.5999755859</ele>
        <time>2022-08-19T17:46:40Z</time>
      </trkpt>
      <trkpt lat="44.17032" lon="6.65123">
        <ele>2030.8000488281</ele>
        <time>2022-08-19T17:46:44Z</time>
      </trkpt>
      <trkpt lat="44.17027" lon="6.65122">
        <ele>2030.4000244141</ele>
        <time>2022-08-19T17:46:47Z</time>
      </trkpt>
      <trkpt lat="44.1702" lon="6.65121">
        <ele>2029.5999755859</ele>
        <time>2022-08-19T17:46:51Z</time>
      </trkpt>
      <trkpt lat="44.1701" lon="6.65123">
        <ele>2029</ele>
        <time>2022-08-19T17:46:55Z</time>
      </trkpt>
      <trkpt lat="44.17002" lon="6.65126">
        <ele>2028.5999755859</ele>
        <time>2022-08-19T17:46:58Z</time>
      </trkpt>
      <trkpt lat="44.16996" lon="6.6513">
        <ele>2028.4000244141</ele>
        <time>2022-08-19T17:47:00Z</time>
      </trkpt>
      <trkpt lat="44.16994" lon="6.65132">
        <ele>2028.4000244141</ele>
        <time>2022-08-19T17:47:01Z</time>
      </trkpt>
      <trkpt lat="44.1698" lon="6.6515">
        <ele>2027.8000488281</ele>
        <time>2022-08-19T17:47:07Z</time>
      </trkpt>
      <trkpt lat="44.16977" lon="6.65161">
        <ele>2027.5999755859</ele>
        <time>2022-08-19T17:47:10Z</time>
      </trkpt>
      <trkpt lat="44.16973" lon="6.65169">
        <ele>2027.4000244141</ele>
        <time>2022-08-19T17:47:12Z</time>
      </trkpt>
      <trkpt lat="44.16964" lon="6.65185">
        <ele>2026.5999755859</ele>
        <time>2022-08-19T17:47:16Z</time>
      </trkpt>
      <trkpt lat="44.16963" lon="6.65197">
        <ele>2025.8000488281</ele>
        <time>2022-08-19T17:47:19Z</time>
      </trkpt>
      <trkpt lat="44.16962" lon="6.65205">
        <ele>2025.4000244141</ele>
        <time>2022-08-19T17:47:21Z</time>
      </trkpt>
      <trkpt lat="44.1696" lon="6.65215">
        <ele>2025</ele>
        <time>2022-08-19T17:47:24Z</time>
      </trkpt>
      <trkpt lat="44.16958" lon="6.65216">
        <ele>2024.5999755859</ele>
        <time>2022-08-19T17:47:25Z</time>
      </trkpt>
      <trkpt lat="44.16954" lon="6.65218">
        <ele>2024.4000244141</ele>
        <time>2022-08-19T17:47:27Z</time>
      </trkpt>
      <trkpt lat="44.16946" lon="6.65222">
        <ele>2024.1999511719</ele>
        <time>2022-08-19T17:47:30Z</time>
      </trkpt>
      <trkpt lat="44.16938" lon="6.65237">
        <ele>2023.5999755859</ele>
        <time>2022-08-19T17:47:35Z</time>
      </trkpt>
      <trkpt lat="44.16936" lon="6.6524">
        <ele>2023.4000244141</ele>
        <time>2022-08-19T17:47:36Z</time>
      </trkpt>
      <trkpt lat="44.16931" lon="6.65248">
        <ele>2023</ele>
        <time>2022-08-19T17:47:39Z</time>
      </trkpt>
      <trkpt lat="44.16931" lon="6.65249">
        <ele>2023</ele>
        <time>2022-08-19T17:47:40Z</time>
      </trkpt>
      <trkpt lat="44.16931" lon="6.65251">
        <ele>2023</ele>
        <time>2022-08-19T17:47:42Z</time>
      </trkpt>
      <trkpt lat="44.16931" lon="6.65253">
        <ele>2023</ele>
        <time>2022-08-19T17:47:45Z</time>
      </trkpt>
      <trkpt lat="44.16931" lon="6.65258">
        <ele>2023</ele>
        <time>2022-08-19T17:47:50Z</time>
      </trkpt>
      <trkpt lat="44.1693" lon="6.6526">
        <ele>2022.8000488281</ele>
        <time>2022-08-19T17:47:53Z</time>
      </trkpt>
      <trkpt lat="44.16932" lon="6.65264">
        <ele>2022.1999511719</ele>
        <time>2022-08-19T17:47:58Z</time>
      </trkpt>
      <trkpt lat="44.16927" lon="6.65262">
        <ele>2022</ele>
        <time>2022-08-19T17:48:03Z</time>
      </trkpt>
      <trkpt lat="44.16925" lon="6.65255">
        <ele>2021.8000488281</ele>
        <time>2022-08-19T17:48:05Z</time>
      </trkpt>
      <trkpt lat="44.16922" lon="6.65245">
        <ele>2021.1999511719</ele>
        <time>2022-08-19T17:48:09Z</time>
      </trkpt>
      <trkpt lat="44.16919" lon="6.65243">
        <ele>2021.1999511719</ele>
        <time>2022-08-19T17:48:10Z</time>
      </trkpt>
      <trkpt lat="44.16912" lon="6.65238">
        <ele>2020.8000488281</ele>
        <time>2022-08-19T17:48:12Z</time>
      </trkpt>
      <trkpt lat="44.16902" lon="6.6523">
        <ele>2020.4000244141</ele>
        <time>2022-08-19T17:48:15Z</time>
      </trkpt>
      <trkpt lat="44.16898" lon="6.65226">
        <ele>2020</ele>
        <time>2022-08-19T17:48:16Z</time>
      </trkpt>
      <trkpt lat="44.16883" lon="6.65214">
        <ele>2019.1999511719</ele>
        <time>2022-08-19T17:48:21Z</time>
      </trkpt>
      <trkpt lat="44.16877" lon="6.65212">
        <ele>2018.8000488281</ele>
        <time>2022-08-19T17:48:23Z</time>
      </trkpt>
      <trkpt lat="44.16872" lon="6.6521">
        <ele>2018.5999755859</ele>
        <time>2022-08-19T17:48:25Z</time>
      </trkpt>
      <trkpt lat="44.16862" lon="6.65209">
        <ele>2018.1999511719</ele>
        <time>2022-08-19T17:48:29Z</time>
      </trkpt>
      <trkpt lat="44.16859" lon="6.65209">
        <ele>2018.1999511719</ele>
        <time>2022-08-19T17:48:30Z</time>
      </trkpt>
      <trkpt lat="44.16851" lon="6.65209">
        <ele>2017.8000488281</ele>
        <time>2022-08-19T17:48:33Z</time>
      </trkpt>
      <trkpt lat="44.16841" lon="6.65208">
        <ele>2017.1999511719</ele>
        <time>2022-08-19T17:48:37Z</time>
      </trkpt>
      <trkpt lat="44.16834" lon="6.65214">
        <ele>2016.8000488281</ele>
        <time>2022-08-19T17:48:40Z</time>
      </trkpt>
      <trkpt lat="44.16823" lon="6.65223">
        <ele>2016.1999511719</ele>
        <time>2022-08-19T17:48:44Z</time>
      </trkpt>
      <trkpt lat="44.16817" lon="6.65228">
        <ele>2015.8000488281</ele>
        <time>2022-08-19T17:48:46Z</time>
      </trkpt>
      <trkpt lat="44.16814" lon="6.6523">
        <ele>2015.5999755859</ele>
        <time>2022-08-19T17:48:47Z</time>
      </trkpt>
      <trkpt lat="44.16807" lon="6.65237">
        <ele>2015.1999511719</ele>
        <time>2022-08-19T17:48:51Z</time>
      </trkpt>
      <trkpt lat="44.16794" lon="6.65247">
        <ele>2014.4000244141</ele>
        <time>2022-08-19T17:48:56Z</time>
      </trkpt>
      <trkpt lat="44.16785" lon="6.65259">
        <ele>2013.5999755859</ele>
        <time>2022-08-19T17:49:00Z</time>
      </trkpt>
      <trkpt lat="44.16781" lon="6.65265">
        <ele>2013.5999755859</ele>
        <time>2022-08-19T17:49:02Z</time>
      </trkpt>
      <trkpt lat="44.16779" lon="6.65268">
        <ele>2013.4000244141</ele>
        <time>2022-08-19T17:49:03Z</time>
      </trkpt>
      <trkpt lat="44.16764" lon="6.65289">
        <ele>2012.1999511719</ele>
        <time>2022-08-19T17:49:09Z</time>
      </trkpt>
      <trkpt lat="44.16758" lon="6.65293">
        <ele>2011.8000488281</ele>
        <time>2022-08-19T17:49:11Z</time>
      </trkpt>
      <trkpt lat="44.16754" lon="6.65305">
        <ele>2011.1999511719</ele>
        <time>2022-08-19T17:49:15Z</time>
      </trkpt>
      <trkpt lat="44.16755" lon="6.65308">
        <ele>2011.1999511719</ele>
        <time>2022-08-19T17:49:16Z</time>
      </trkpt>
      <trkpt lat="44.16755" lon="6.65331">
        <ele>2010.8000488281</ele>
        <time>2022-08-19T17:49:22Z</time>
      </trkpt>
      <trkpt lat="44.16756" lon="6.65343">
        <ele>2010.4000244141</ele>
        <time>2022-08-19T17:49:25Z</time>
      </trkpt>
      <trkpt lat="44.16755" lon="6.65356">
        <ele>2010.1999511719</ele>
        <time>2022-08-19T17:49:28Z</time>
      </trkpt>
      <trkpt lat="44.1675" lon="6.65368">
        <ele>2009.4000244141</ele>
        <time>2022-08-19T17:49:32Z</time>
      </trkpt>
      <trkpt lat="44.1675" lon="6.65371">
        <ele>2009</ele>
        <time>2022-08-19T17:49:33Z</time>
      </trkpt>
      <trkpt lat="44.16747" lon="6.65381">
        <ele>2008.1999511719</ele>
        <time>2022-08-19T17:49:36Z</time>
      </trkpt>
      <trkpt lat="44.16746" lon="6.65386">
        <ele>2007.8000488281</ele>
        <time>2022-08-19T17:49:37Z</time>
      </trkpt>
      <trkpt lat="44.16745" lon="6.6539">
        <ele>2007.4000244141</ele>
        <time>2022-08-19T17:49:38Z</time>
      </trkpt>
      <trkpt lat="44.16743" lon="6.65414">
        <ele>2006.5999755859</ele>
        <time>2022-08-19T17:49:44Z</time>
      </trkpt>
      <trkpt lat="44.16743" lon="6.65423">
        <ele>2006.1999511719</ele>
        <time>2022-08-19T17:49:47Z</time>
      </trkpt>
      <trkpt lat="44.16741" lon="6.65424">
        <ele>2006.1999511719</ele>
        <time>2022-08-19T17:49:48Z</time>
      </trkpt>
      <trkpt lat="44.16731" lon="6.65431">
        <ele>2005.5999755859</ele>
        <time>2022-08-19T17:49:53Z</time>
      </trkpt>
      <trkpt lat="44.1673" lon="6.65433">
        <ele>2005.4000244141</ele>
        <time>2022-08-19T17:49:54Z</time>
      </trkpt>
      <trkpt lat="44.16726" lon="6.65443">
        <ele>2005.1999511719</ele>
        <time>2022-08-19T17:49:59Z</time>
      </trkpt>
      <trkpt lat="44.16726" lon="6.65443">
        <ele>2005.1999511719</ele>
        <time>2022-08-19T17:50:00Z</time>
      </trkpt>
      <trkpt lat="44.16725" lon="6.65444">
        <ele>2005.1999511719</ele>
        <time>2022-08-19T17:50:01Z</time>
      </trkpt>
      <trkpt lat="44.16725" lon="6.65445">
        <ele>2005.4000244141</ele>
        <time>2022-08-19T17:50:02Z</time>
      </trkpt>
      <trkpt lat="44.16717" lon="6.65456">
        <ele>2005.1999511719</ele>
        <time>2022-08-19T17:50:09Z</time>
      </trkpt>
      <trkpt lat="44.16709" lon="6.65463">
        <ele>2004.5999755859</ele>
        <time>2022-08-19T17:50:13Z</time>
      </trkpt>
      <trkpt lat="44.16698" lon="6.65469">
        <ele>2004</ele>
        <time>2022-08-19T17:50:16Z</time>
      </trkpt>
      <trkpt lat="44.16695" lon="6.6547">
        <ele>2003.8000488281</ele>
        <time>2022-08-19T17:50:17Z</time>
      </trkpt>
      <trkpt lat="44.16693" lon="6.65471">
        <ele>2003.4000244141</ele>
        <time>2022-08-19T17:50:18Z</time>
      </trkpt>
      <trkpt lat="44.16683" lon="6.65472">
        <ele>2002.8000488281</ele>
        <time>2022-08-19T17:50:22Z</time>
      </trkpt>
      <trkpt lat="44.16674" lon="6.65474">
        <ele>2002.4000244141</ele>
        <time>2022-08-19T17:50:25Z</time>
      </trkpt>
      <trkpt lat="44.16666" lon="6.65478">
        <ele>2001.8000488281</ele>
        <time>2022-08-19T17:50:29Z</time>
      </trkpt>
      <trkpt lat="44.16665" lon="6.65479">
        <ele>2001.5999755859</ele>
        <time>2022-08-19T17:50:30Z</time>
      </trkpt>
      <trkpt lat="44.16665" lon="6.65478">
        <ele>2001.5999755859</ele>
        <time>2022-08-19T17:50:32Z</time>
      </trkpt>
      <trkpt lat="44.16663" lon="6.65477">
        <ele>2001.5999755859</ele>
        <time>2022-08-19T17:50:35Z</time>
      </trkpt>
      <trkpt lat="44.16664" lon="6.65477">
        <ele>2001.4000244141</ele>
        <time>2022-08-19T17:50:40Z</time>
      </trkpt>
      <trkpt lat="44.16664" lon="6.65477">
        <ele>2001.5999755859</ele>
        <time>2022-08-19T17:50:41Z</time>
      </trkpt>
      <trkpt lat="44.16663" lon="6.65477">
        <ele>2001.5999755859</ele>
        <time>2022-08-19T17:50:43Z</time>
      </trkpt>
      <trkpt lat="44.1665" lon="6.65479">
        <ele>2001.4000244141</ele>
        <time>2022-08-19T17:50:53Z</time>
      </trkpt>
      <trkpt lat="44.16628" lon="6.6549">
        <ele>2000.1999511719</ele>
        <time>2022-08-19T17:50:59Z</time>
      </trkpt>
      <trkpt lat="44.16608" lon="6.65504">
        <ele>1999.5999755859</ele>
        <time>2022-08-19T17:51:05Z</time>
      </trkpt>
      <trkpt lat="44.16597" lon="6.65512">
        <ele>1999.1999511719</ele>
        <time>2022-08-19T17:51:08Z</time>
      </trkpt>
      <trkpt lat="44.16584" lon="6.6552">
        <ele>1998.1999511719</ele>
        <time>2022-08-19T17:51:12Z</time>
      </trkpt>
      <trkpt lat="44.16576" lon="6.65529">
        <ele>1997.4000244141</ele>
        <time>2022-08-19T17:51:16Z</time>
      </trkpt>
      <trkpt lat="44.16575" lon="6.65532">
        <ele>1997.4000244141</ele>
        <time>2022-08-19T17:51:17Z</time>
      </trkpt>
      <trkpt lat="44.16571" lon="6.65539">
        <ele>1997.1999511719</ele>
        <time>2022-08-19T17:51:20Z</time>
      </trkpt>
      <trkpt lat="44.16567" lon="6.65544">
        <ele>1996.8000488281</ele>
        <time>2022-08-19T17:51:22Z</time>
      </trkpt>
      <trkpt lat="44.16556" lon="6.65564">
        <ele>1996.4000244141</ele>
        <time>2022-08-19T17:51:29Z</time>
      </trkpt>
      <trkpt lat="44.16552" lon="6.6557">
        <ele>1996.4000244141</ele>
        <time>2022-08-19T17:51:31Z</time>
      </trkpt>
      <trkpt lat="44.16551" lon="6.65576">
        <ele>1996</ele>
        <time>2022-08-19T17:51:33Z</time>
      </trkpt>
      <trkpt lat="44.1655" lon="6.65582">
        <ele>1995.8000488281</ele>
        <time>2022-08-19T17:51:35Z</time>
      </trkpt>
      <trkpt lat="44.16551" lon="6.65585">
        <ele>1995.8000488281</ele>
        <time>2022-08-19T17:51:36Z</time>
      </trkpt>
      <trkpt lat="44.16551" lon="6.65587">
        <ele>1995.8000488281</ele>
        <time>2022-08-19T17:51:37Z</time>
      </trkpt>
      <trkpt lat="44.16554" lon="6.65589">
        <ele>1996</ele>
        <time>2022-08-19T17:51:39Z</time>
      </trkpt>
      <trkpt lat="44.16555" lon="6.65588">
        <ele>1996.1999511719</ele>
        <time>2022-08-19T17:51:40Z</time>
      </trkpt>
      <trkpt lat="44.16556" lon="6.65589">
        <ele>1996.1999511719</ele>
        <time>2022-08-19T17:51:43Z</time>
      </trkpt>
      <trkpt lat="44.16555" lon="6.6559">
        <ele>1996.1999511719</ele>
        <time>2022-08-19T17:51:46Z</time>
      </trkpt>
      <trkpt lat="44.16555" lon="6.6559">
        <ele>1996.1999511719</ele>
        <time>2022-08-19T17:51:50Z</time>
      </trkpt>
      <trkpt lat="44.16555" lon="6.6559">
        <ele>1996.1999511719</ele>
        <time>2022-08-19T17:51:59Z</time>
      </trkpt>
      <trkpt lat="44.16555" lon="6.6559">
        <ele>1996.4000244141</ele>
        <time>2022-08-19T17:52:02Z</time>
      </trkpt>
      <trkpt lat="44.16556" lon="6.6559">
        <ele>1996</ele>
        <time>2022-08-19T17:52:13Z</time>
      </trkpt>
      <trkpt lat="44.16556" lon="6.6559">
        <ele>1996</ele>
        <time>2022-08-19T17:52:15Z</time>
      </trkpt>
      <trkpt lat="44.16566" lon="6.65589">
        <ele>1995.4000244141</ele>
        <time>2022-08-19T17:52:23Z</time>
      </trkpt>
      <trkpt lat="44.16568" lon="6.65591">
        <ele>1995.4000244141</ele>
        <time>2022-08-19T17:52:24Z</time>
      </trkpt>
      <trkpt lat="44.16573" lon="6.65595">
        <ele>1994.8000488281</ele>
        <time>2022-08-19T17:52:26Z</time>
      </trkpt>
      <trkpt lat="44.16575" lon="6.65596">
        <ele>1994.5999755859</ele>
        <time>2022-08-19T17:52:27Z</time>
      </trkpt>
      <trkpt lat="44.16578" lon="6.65596">
        <ele>1994.4000244141</ele>
        <time>2022-08-19T17:52:29Z</time>
      </trkpt>
      <trkpt lat="44.1659" lon="6.656">
        <ele>1994.4000244141</ele>
        <time>2022-08-19T17:52:35Z</time>
      </trkpt>
      <trkpt lat="44.16599" lon="6.65605">
        <ele>1994.1999511719</ele>
        <time>2022-08-19T17:52:38Z</time>
      </trkpt>
      <trkpt lat="44.16607" lon="6.6561">
        <ele>1994</ele>
        <time>2022-08-19T17:52:41Z</time>
      </trkpt>
      <trkpt lat="44.16612" lon="6.65613">
        <ele>1994</ele>
        <time>2022-08-19T17:52:43Z</time>
      </trkpt>
      <trkpt lat="44.1662" lon="6.65616">
        <ele>1993.8000488281</ele>
        <time>2022-08-19T17:52:47Z</time>
      </trkpt>
      <trkpt lat="44.16624" lon="6.65619">
        <ele>1993.5999755859</ele>
        <time>2022-08-19T17:52:49Z</time>
      </trkpt>
      <trkpt lat="44.16629" lon="6.65623">
        <ele>1993.5999755859</ele>
        <time>2022-08-19T17:52:51Z</time>
      </trkpt>
      <trkpt lat="44.16631" lon="6.65627">
        <ele>1993.5999755859</ele>
        <time>2022-08-19T17:52:53Z</time>
      </trkpt>
      <trkpt lat="44.16633" lon="6.65633">
        <ele>1994</ele>
        <time>2022-08-19T17:52:59Z</time>
      </trkpt>
      <trkpt lat="44.16633" lon="6.65633">
        <ele>1994</ele>
        <time>2022-08-19T17:53:03Z</time>
      </trkpt>
      <trkpt lat="44.16633" lon="6.65634">
        <ele>1994</ele>
        <time>2022-08-19T17:53:09Z</time>
      </trkpt>
      <trkpt lat="44.16629" lon="6.6564">
        <ele>1993.5999755859</ele>
        <time>2022-08-19T17:53:19Z</time>
      </trkpt>
      <trkpt lat="44.16625" lon="6.65646">
        <ele>1993.8000488281</ele>
        <time>2022-08-19T17:53:30Z</time>
      </trkpt>
      <trkpt lat="44.16624" lon="6.65648">
        <ele>1993.8000488281</ele>
        <time>2022-08-19T17:53:39Z</time>
      </trkpt>
      <trkpt lat="44.16622" lon="6.65649">
        <ele>1993.8000488281</ele>
        <time>2022-08-19T17:53:42Z</time>
      </trkpt>
      <trkpt lat="44.16614" lon="6.6565">
        <ele>1993.8000488281</ele>
        <time>2022-08-19T17:53:46Z</time>
      </trkpt>
      <trkpt lat="44.16605" lon="6.65652">
        <ele>1993.8000488281</ele>
        <time>2022-08-19T17:53:50Z</time>
      </trkpt>
      <trkpt lat="44.16598" lon="6.65656">
        <ele>1993.5999755859</ele>
        <time>2022-08-19T17:53:54Z</time>
      </trkpt>
      <trkpt lat="44.16597" lon="6.65658">
        <ele>1993.5999755859</ele>
        <time>2022-08-19T17:53:55Z</time>
      </trkpt>
      <trkpt lat="44.16595" lon="6.65659">
        <ele>1993.5999755859</ele>
        <time>2022-08-19T17:53:56Z</time>
      </trkpt>
      <trkpt lat="44.16591" lon="6.65663">
        <ele>1993.8000488281</ele>
        <time>2022-08-19T17:53:59Z</time>
      </trkpt>
      <trkpt lat="44.1659" lon="6.65664">
        <ele>1993.8000488281</ele>
        <time>2022-08-19T17:54:00Z</time>
      </trkpt>
      <trkpt lat="44.16576" lon="6.65675">
        <ele>1993.5999755859</ele>
        <time>2022-08-19T17:54:06Z</time>
      </trkpt>
      <trkpt lat="44.16572" lon="6.65681">
        <ele>1993.5999755859</ele>
        <time>2022-08-19T17:54:08Z</time>
      </trkpt>
      <trkpt lat="44.16564" lon="6.65695">
        <ele>1993.5999755859</ele>
        <time>2022-08-19T17:54:14Z</time>
      </trkpt>
      <trkpt lat="44.16558" lon="6.65711">
        <ele>1994</ele>
        <time>2022-08-19T17:54:20Z</time>
      </trkpt>
      <trkpt lat="44.16555" lon="6.65724">
        <ele>1994.5999755859</ele>
        <time>2022-08-19T17:54:25Z</time>
      </trkpt>
      <trkpt lat="44.16554" lon="6.65728">
        <ele>1994.8000488281</ele>
        <time>2022-08-19T17:54:27Z</time>
      </trkpt>
      <trkpt lat="44.16556" lon="6.65735">
        <ele>1996</ele>
        <time>2022-08-19T17:54:32Z</time>
      </trkpt>
      <trkpt lat="44.16555" lon="6.65736">
        <ele>1996.4000244141</ele>
        <time>2022-08-19T17:54:34Z</time>
      </trkpt>
      <trkpt lat="44.16555" lon="6.65737">
        <ele>1996.5999755859</ele>
        <time>2022-08-19T17:54:36Z</time>
      </trkpt>
      <trkpt lat="44.16555" lon="6.65738">
        <ele>1996.8000488281</ele>
        <time>2022-08-19T17:54:37Z</time>
      </trkpt>
      <trkpt lat="44.16555" lon="6.65738">
        <ele>1996.8000488281</ele>
        <time>2022-08-19T17:54:41Z</time>
      </trkpt>
      <trkpt lat="44.16554" lon="6.65738">
        <ele>1996.8000488281</ele>
        <time>2022-08-19T17:54:43Z</time>
      </trkpt>
      <trkpt lat="44.16546" lon="6.65739">
        <ele>1996</ele>
        <time>2022-08-19T17:54:55Z</time>
      </trkpt>
      <trkpt lat="44.16545" lon="6.65738">
        <ele>1995.5999755859</ele>
        <time>2022-08-19T17:54:57Z</time>
      </trkpt>
      <trkpt lat="44.16544" lon="6.65739">
        <ele>1994.8000488281</ele>
        <time>2022-08-19T17:55:00Z</time>
      </trkpt>
      <trkpt lat="44.1654" lon="6.65742">
        <ele>1994.1999511719</ele>
        <time>2022-08-19T17:55:07Z</time>
      </trkpt>
      <trkpt lat="44.1654" lon="6.65743">
        <ele>1994.1999511719</ele>
        <time>2022-08-19T17:55:09Z</time>
      </trkpt>
      <trkpt lat="44.16539" lon="6.65745">
        <ele>1994.1999511719</ele>
        <time>2022-08-19T17:55:11Z</time>
      </trkpt>
      <trkpt lat="44.16538" lon="6.65747">
        <ele>1994.1999511719</ele>
        <time>2022-08-19T17:55:14Z</time>
      </trkpt>
      <trkpt lat="44.16537" lon="6.65748">
        <ele>1994.4000244141</ele>
        <time>2022-08-19T17:55:19Z</time>
      </trkpt>
      <trkpt lat="44.16526" lon="6.65761">
        <ele>1994.1999511719</ele>
        <time>2022-08-19T17:55:29Z</time>
      </trkpt>
      <trkpt lat="44.16526" lon="6.65763">
        <ele>1994.1999511719</ele>
        <time>2022-08-19T17:55:30Z</time>
      </trkpt>
      <trkpt lat="44.16525" lon="6.65764">
        <ele>1994.1999511719</ele>
        <time>2022-08-19T17:55:31Z</time>
      </trkpt>
      <trkpt lat="44.16525" lon="6.65765">
        <ele>1994.1999511719</ele>
        <time>2022-08-19T17:55:33Z</time>
      </trkpt>
      <trkpt lat="44.16526" lon="6.65766">
        <ele>1994</ele>
        <time>2022-08-19T17:55:37Z</time>
      </trkpt>
      <trkpt lat="44.16521" lon="6.65769">
        <ele>1994</ele>
        <time>2022-08-19T17:55:48Z</time>
      </trkpt>
      <trkpt lat="44.1652" lon="6.65769">
        <ele>1993.8000488281</ele>
        <time>2022-08-19T17:55:51Z</time>
      </trkpt>
      <trkpt lat="44.16511" lon="6.65771">
        <ele>1993.8000488281</ele>
        <time>2022-08-19T17:56:00Z</time>
      </trkpt>
      <trkpt lat="44.16507" lon="6.65774">
        <ele>1993.5999755859</ele>
        <time>2022-08-19T17:56:03Z</time>
      </trkpt>
      <trkpt lat="44.16494" lon="6.6579">
        <ele>1993.5999755859</ele>
        <time>2022-08-19T17:56:10Z</time>
      </trkpt>
      <trkpt lat="44.16493" lon="6.65796">
        <ele>1993.5999755859</ele>
        <time>2022-08-19T17:56:12Z</time>
      </trkpt>
      <trkpt lat="44.16494" lon="6.65806">
        <ele>1993.8000488281</ele>
        <time>2022-08-19T17:56:15Z</time>
      </trkpt>
      <trkpt lat="44.16494" lon="6.65812">
        <ele>1994</ele>
        <time>2022-08-19T17:56:17Z</time>
      </trkpt>
      <trkpt lat="44.16491" lon="6.65816">
        <ele>1994.1999511719</ele>
        <time>2022-08-19T17:56:19Z</time>
      </trkpt>
      <trkpt lat="44.16488" lon="6.65812">
        <ele>1994.1999511719</ele>
        <time>2022-08-19T17:56:22Z</time>
      </trkpt>
      <trkpt lat="44.16487" lon="6.6581">
        <ele>1994.1999511719</ele>
        <time>2022-08-19T17:56:23Z</time>
      </trkpt>
      <trkpt lat="44.16483" lon="6.65799">
        <ele>1994</ele>
        <time>2022-08-19T17:56:27Z</time>
      </trkpt>
      <trkpt lat="44.16478" lon="6.65791">
        <ele>1993.8000488281</ele>
        <time>2022-08-19T17:56:31Z</time>
      </trkpt>
      <trkpt lat="44.16475" lon="6.65784">
        <ele>1993.5999755859</ele>
        <time>2022-08-19T17:56:33Z</time>
      </trkpt>
      <trkpt lat="44.16469" lon="6.65769">
        <ele>1993.8000488281</ele>
        <time>2022-08-19T17:56:39Z</time>
      </trkpt>
      <trkpt lat="44.1646" lon="6.65759">
        <ele>1994</ele>
        <time>2022-08-19T17:56:44Z</time>
      </trkpt>
      <trkpt lat="44.16453" lon="6.65753">
        <ele>1993.8000488281</ele>
        <time>2022-08-19T17:56:48Z</time>
      </trkpt>
      <trkpt lat="44.1645" lon="6.6575">
        <ele>1993.8000488281</ele>
        <time>2022-08-19T17:56:50Z</time>
      </trkpt>
      <trkpt lat="44.16441" lon="6.65739">
        <ele>1994</ele>
        <time>2022-08-19T17:56:56Z</time>
      </trkpt>
      <trkpt lat="44.16439" lon="6.65737">
        <ele>1994</ele>
        <time>2022-08-19T17:56:57Z</time>
      </trkpt>
      <trkpt lat="44.16426" lon="6.65724">
        <ele>1994</ele>
        <time>2022-08-19T17:57:05Z</time>
      </trkpt>
      <trkpt lat="44.16413" lon="6.6571">
        <ele>1994.1999511719</ele>
        <time>2022-08-19T17:57:13Z</time>
      </trkpt>
      <trkpt lat="44.16402" lon="6.65708">
        <ele>1994.5999755859</ele>
        <time>2022-08-19T17:57:19Z</time>
      </trkpt>
      <trkpt lat="44.16391" lon="6.65711">
        <ele>1994.5999755859</ele>
        <time>2022-08-19T17:57:26Z</time>
      </trkpt>
      <trkpt lat="44.16387" lon="6.65715">
        <ele>1994.5999755859</ele>
        <time>2022-08-19T17:57:30Z</time>
      </trkpt>
      <trkpt lat="44.16387" lon="6.65715">
        <ele>1994.5999755859</ele>
        <time>2022-08-19T17:57:32Z</time>
      </trkpt>
      <trkpt lat="44.16382" lon="6.65721">
        <ele>1994.5999755859</ele>
        <time>2022-08-19T17:57:39Z</time>
      </trkpt>
      <trkpt lat="44.1638" lon="6.65723">
        <ele>1994.5999755859</ele>
        <time>2022-08-19T17:57:41Z</time>
      </trkpt>
      <trkpt lat="44.16374" lon="6.65725">
        <ele>1994.5999755859</ele>
        <time>2022-08-19T17:57:47Z</time>
      </trkpt>
      <trkpt lat="44.16371" lon="6.65726">
        <ele>1994.5999755859</ele>
        <time>2022-08-19T17:57:51Z</time>
      </trkpt>
      <trkpt lat="44.16367" lon="6.65729">
        <ele>1994.4000244141</ele>
        <time>2022-08-19T17:57:54Z</time>
      </trkpt>
      <trkpt lat="44.16359" lon="6.65735">
        <ele>1994.4000244141</ele>
        <time>2022-08-19T17:57:58Z</time>
      </trkpt>
      <trkpt lat="44.16355" lon="6.65735">
        <ele>1994.4000244141</ele>
        <time>2022-08-19T17:58:00Z</time>
      </trkpt>
      <trkpt lat="44.16337" lon="6.65728">
        <ele>1994.5999755859</ele>
        <time>2022-08-19T17:58:07Z</time>
      </trkpt>
      <trkpt lat="44.16332" lon="6.65727">
        <ele>1994.5999755859</ele>
        <time>2022-08-19T17:58:10Z</time>
      </trkpt>
      <trkpt lat="44.16332" lon="6.65727">
        <ele>1994.5999755859</ele>
        <time>2022-08-19T17:58:11Z</time>
      </trkpt>
      <trkpt lat="44.16332" lon="6.65728">
        <ele>1994.5999755859</ele>
        <time>2022-08-19T17:58:13Z</time>
      </trkpt>
      <trkpt lat="44.16332" lon="6.65728">
        <ele>1994.8000488281</ele>
        <time>2022-08-19T17:58:14Z</time>
      </trkpt>
      <trkpt lat="44.16333" lon="6.65729">
        <ele>1994.8000488281</ele>
        <time>2022-08-19T17:58:15Z</time>
      </trkpt>
      <trkpt lat="44.16334" lon="6.65729">
        <ele>1995.1999511719</ele>
        <time>2022-08-19T17:58:17Z</time>
      </trkpt>
      <trkpt lat="44.16333" lon="6.65729">
        <ele>1995.1999511719</ele>
        <time>2022-08-19T17:58:23Z</time>
      </trkpt>
      <trkpt lat="44.16332" lon="6.6573">
        <ele>1995.1999511719</ele>
        <time>2022-08-19T17:58:33Z</time>
      </trkpt>
      <trkpt lat="44.1633" lon="6.65729">
        <ele>1995.1999511719</ele>
        <time>2022-08-19T17:58:41Z</time>
      </trkpt>
      <trkpt lat="44.16325" lon="6.65729">
        <ele>1995.1999511719</ele>
        <time>2022-08-19T17:58:45Z</time>
      </trkpt>
      <trkpt lat="44.16318" lon="6.6573">
        <ele>1995.1999511719</ele>
        <time>2022-08-19T17:58:48Z</time>
      </trkpt>
      <trkpt lat="44.16313" lon="6.65733">
        <ele>1995.1999511719</ele>
        <time>2022-08-19T17:58:50Z</time>
      </trkpt>
      <trkpt lat="44.16306" lon="6.65736">
        <ele>1995.5999755859</ele>
        <time>2022-08-19T17:58:53Z</time>
      </trkpt>
      <trkpt lat="44.16298" lon="6.65742">
        <ele>1995.8000488281</ele>
        <time>2022-08-19T17:58:56Z</time>
      </trkpt>
      <trkpt lat="44.16296" lon="6.65744">
        <ele>1995.8000488281</ele>
        <time>2022-08-19T17:58:57Z</time>
      </trkpt>
      <trkpt lat="44.16283" lon="6.6575">
        <ele>1996.1999511719</ele>
        <time>2022-08-19T17:59:02Z</time>
      </trkpt>
      <trkpt lat="44.16258" lon="6.65753">
        <ele>1996.4000244141</ele>
        <time>2022-08-19T17:59:10Z</time>
      </trkpt>
      <trkpt lat="44.16252" lon="6.65755">
        <ele>1996.8000488281</ele>
        <time>2022-08-19T17:59:12Z</time>
      </trkpt>
      <trkpt lat="44.16241" lon="6.65755">
        <ele>1998</ele>
        <time>2022-08-19T17:59:16Z</time>
      </trkpt>
      <trkpt lat="44.16239" lon="6.65755">
        <ele>1998.1999511719</ele>
        <time>2022-08-19T17:59:17Z</time>
      </trkpt>
      <trkpt lat="44.16238" lon="6.65756">
        <ele>1998.1999511719</ele>
        <time>2022-08-19T17:59:18Z</time>
      </trkpt>
      <trkpt lat="44.16238" lon="6.65756">
        <ele>1998.4000244141</ele>
        <time>2022-08-19T17:59:19Z</time>
      </trkpt>
      <trkpt lat="44.16238" lon="6.65756">
        <ele>1998.4000244141</ele>
        <time>2022-08-19T17:59:21Z</time>
      </trkpt>
      <trkpt lat="44.16238" lon="6.65756">
        <ele>1998.4000244141</ele>
        <time>2022-08-19T17:59:22Z</time>
      </trkpt>
      <trkpt lat="44.16238" lon="6.65757">
        <ele>1998.5999755859</ele>
        <time>2022-08-19T17:59:25Z</time>
      </trkpt>
      <trkpt lat="44.16236" lon="6.65757">
        <ele>1998.5999755859</ele>
        <time>2022-08-19T17:59:31Z</time>
      </trkpt>
      <trkpt lat="44.16227" lon="6.65753">
        <ele>1998.4000244141</ele>
        <time>2022-08-19T17:59:39Z</time>
      </trkpt>
      <trkpt lat="44.16223" lon="6.6575">
        <ele>1998.4000244141</ele>
        <time>2022-08-19T17:59:41Z</time>
      </trkpt>
      <trkpt lat="44.16216" lon="6.65749">
        <ele>1998.4000244141</ele>
        <time>2022-08-19T17:59:46Z</time>
      </trkpt>
      <trkpt lat="44.16216" lon="6.65749">
        <ele>1998.4000244141</ele>
        <time>2022-08-19T17:59:47Z</time>
      </trkpt>
      <trkpt lat="44.16216" lon="6.65749">
        <ele>1998.4000244141</ele>
        <time>2022-08-19T17:59:48Z</time>
      </trkpt>
      <trkpt lat="44.16216" lon="6.65749">
        <ele>1998.4000244141</ele>
        <time>2022-08-19T17:59:49Z</time>
      </trkpt>
      <trkpt lat="44.16216" lon="6.65749">
        <ele>1998.1999511719</ele>
        <time>2022-08-19T17:59:53Z</time>
      </trkpt>
      <trkpt lat="44.16216" lon="6.65749">
        <ele>1998.1999511719</ele>
        <time>2022-08-19T17:59:54Z</time>
      </trkpt>
      <trkpt lat="44.16216" lon="6.65749">
        <ele>1998.1999511719</ele>
        <time>2022-08-19T17:59:57Z</time>
      </trkpt>
      <trkpt lat="44.16216" lon="6.65749">
        <ele>1998.4000244141</ele>
        <time>2022-08-19T18:00:03Z</time>
      </trkpt>
      <trkpt lat="44.16216" lon="6.65749">
        <ele>1998</ele>
        <time>2022-08-19T18:00:17Z</time>
      </trkpt>
      <trkpt lat="44.16217" lon="6.65748">
        <ele>1998.4000244141</ele>
        <time>2022-08-19T18:00:23Z</time>
      </trkpt>
      <trkpt lat="44.16217" lon="6.65748">
        <ele>1998.1999511719</ele>
        <time>2022-08-19T18:00:27Z</time>
      </trkpt>
      <trkpt lat="44.16217" lon="6.65748">
        <ele>1998</ele>
        <time>2022-08-19T18:00:28Z</time>
      </trkpt>
      <trkpt lat="44.16217" lon="6.65749">
        <ele>1998</ele>
        <time>2022-08-19T18:00:39Z</time>
      </trkpt>
      <trkpt lat="44.16217" lon="6.65749">
        <ele>1998</ele>
        <time>2022-08-19T18:00:42Z</time>
      </trkpt>
      <trkpt lat="44.16216" lon="6.6575">
        <ele>1998</ele>
        <time>2022-08-19T18:00:59Z</time>
      </trkpt>
      <trkpt lat="44.16215" lon="6.65751">
        <ele>1998</ele>
        <time>2022-08-19T18:01:10Z</time>
      </trkpt>
      <trkpt lat="44.16214" lon="6.65757">
        <ele>1998</ele>
        <time>2022-08-19T18:01:13Z</time>
      </trkpt>
      <trkpt lat="44.16214" lon="6.65764">
        <ele>1998</ele>
        <time>2022-08-19T18:01:15Z</time>
      </trkpt>
      <trkpt lat="44.16213" lon="6.65774">
        <ele>1998</ele>
        <time>2022-08-19T18:01:18Z</time>
      </trkpt>
      <trkpt lat="44.16213" lon="6.65775">
        <ele>1998</ele>
        <time>2022-08-19T18:01:19Z</time>
      </trkpt>
      <trkpt lat="44.16211" lon="6.6578">
        <ele>1998</ele>
        <time>2022-08-19T18:01:23Z</time>
      </trkpt>
      <trkpt lat="44.16211" lon="6.65782">
        <ele>1997.8000488281</ele>
        <time>2022-08-19T18:01:25Z</time>
      </trkpt>
      <trkpt lat="44.16207" lon="6.65792">
        <ele>1997.8000488281</ele>
        <time>2022-08-19T18:01:32Z</time>
      </trkpt>
      <trkpt lat="44.16205" lon="6.65794">
        <ele>1997.8000488281</ele>
        <time>2022-08-19T18:01:33Z</time>
      </trkpt>
      <trkpt lat="44.16202" lon="6.65803">
        <ele>1997.8000488281</ele>
        <time>2022-08-19T18:01:36Z</time>
      </trkpt>
      <trkpt lat="44.16203" lon="6.65811">
        <ele>1997.5999755859</ele>
        <time>2022-08-19T18:01:39Z</time>
      </trkpt>
      <trkpt lat="44.16204" lon="6.65826">
        <ele>1997.4000244141</ele>
        <time>2022-08-19T18:01:45Z</time>
      </trkpt>
      <trkpt lat="44.16198" lon="6.65838">
        <ele>1998.1999511719</ele>
        <time>2022-08-19T18:01:51Z</time>
      </trkpt>
      <trkpt lat="44.16194" lon="6.65845">
        <ele>1998.1999511719</ele>
        <time>2022-08-19T18:01:55Z</time>
      </trkpt>
      <trkpt lat="44.16193" lon="6.65851">
        <ele>1998</ele>
        <time>2022-08-19T18:01:57Z</time>
      </trkpt>
      <trkpt lat="44.162" lon="6.65868">
        <ele>1998</ele>
        <time>2022-08-19T18:02:03Z</time>
      </trkpt>
      <trkpt lat="44.16206" lon="6.65879">
        <ele>1998.1999511719</ele>
        <time>2022-08-19T18:02:09Z</time>
      </trkpt>
      <trkpt lat="44.16216" lon="6.659">
        <ele>1997.4000244141</ele>
        <time>2022-08-19T18:02:15Z</time>
      </trkpt>
      <trkpt lat="44.16217" lon="6.65913">
        <ele>1996.8000488281</ele>
        <time>2022-08-19T18:02:18Z</time>
      </trkpt>
      <trkpt lat="44.16215" lon="6.65923">
        <ele>1996.5999755859</ele>
        <time>2022-08-19T18:02:21Z</time>
      </trkpt>
      <trkpt lat="44.16211" lon="6.6593">
        <ele>1996.1999511719</ele>
        <time>2022-08-19T18:02:25Z</time>
      </trkpt>
      <trkpt lat="44.16208" lon="6.65936">
        <ele>1996</ele>
        <time>2022-08-19T18:02:28Z</time>
      </trkpt>
      <trkpt lat="44.16202" lon="6.65945">
        <ele>1996</ele>
        <time>2022-08-19T18:02:31Z</time>
      </trkpt>
      <trkpt lat="44.16194" lon="6.65962">
        <ele>1995.5999755859</ele>
        <time>2022-08-19T18:02:36Z</time>
      </trkpt>
      <trkpt lat="44.16193" lon="6.6597">
        <ele>1995.4000244141</ele>
        <time>2022-08-19T18:02:38Z</time>
      </trkpt>
      <trkpt lat="44.16191" lon="6.6598">
        <ele>1995.4000244141</ele>
        <time>2022-08-19T18:02:40Z</time>
      </trkpt>
      <trkpt lat="44.16191" lon="6.65991">
        <ele>1995.1999511719</ele>
        <time>2022-08-19T18:02:42Z</time>
      </trkpt>
      <trkpt lat="44.16193" lon="6.66004">
        <ele>1995</ele>
        <time>2022-08-19T18:02:45Z</time>
      </trkpt>
      <trkpt lat="44.16198" lon="6.66022">
        <ele>1994.8000488281</ele>
        <time>2022-08-19T18:02:51Z</time>
      </trkpt>
      <trkpt lat="44.16199" lon="6.66025">
        <ele>1994.5999755859</ele>
        <time>2022-08-19T18:02:52Z</time>
      </trkpt>
      <trkpt lat="44.16206" lon="6.66036">
        <ele>1994.4000244141</ele>
        <time>2022-08-19T18:02:56Z</time>
      </trkpt>
      <trkpt lat="44.16213" lon="6.66052">
        <ele>1993.8000488281</ele>
        <time>2022-08-19T18:03:02Z</time>
      </trkpt>
      <trkpt lat="44.16216" lon="6.66057">
        <ele>1993.5999755859</ele>
        <time>2022-08-19T18:03:04Z</time>
      </trkpt>
      <trkpt lat="44.1622" lon="6.66061">
        <ele>1993.5999755859</ele>
        <time>2022-08-19T18:03:06Z</time>
      </trkpt>
      <trkpt lat="44.16221" lon="6.66062">
        <ele>1993.5999755859</ele>
        <time>2022-08-19T18:03:07Z</time>
      </trkpt>
      <trkpt lat="44.16231" lon="6.66073">
        <ele>1993.8000488281</ele>
        <time>2022-08-19T18:03:13Z</time>
      </trkpt>
      <trkpt lat="44.16234" lon="6.66074">
        <ele>1993.5999755859</ele>
        <time>2022-08-19T18:03:16Z</time>
      </trkpt>
      <trkpt lat="44.16234" lon="6.66074">
        <ele>1993.5999755859</ele>
        <time>2022-08-19T18:03:17Z</time>
      </trkpt>
      <trkpt lat="44.16233" lon="6.66076">
        <ele>1993.4000244141</ele>
        <time>2022-08-19T18:03:22Z</time>
      </trkpt>
      <trkpt lat="44.16234" lon="6.66079">
        <ele>1993.1999511719</ele>
        <time>2022-08-19T18:03:29Z</time>
      </trkpt>
      <trkpt lat="44.16235" lon="6.66081">
        <ele>1993.1999511719</ele>
        <time>2022-08-19T18:03:31Z</time>
      </trkpt>
      <trkpt lat="44.16235" lon="6.6609">
        <ele>1993.4000244141</ele>
        <time>2022-08-19T18:03:40Z</time>
      </trkpt>
      <trkpt lat="44.16232" lon="6.661">
        <ele>1993.4000244141</ele>
        <time>2022-08-19T18:03:47Z</time>
      </trkpt>
      <trkpt lat="44.16237" lon="6.66106">
        <ele>1993.4000244141</ele>
        <time>2022-08-19T18:03:51Z</time>
      </trkpt>
      <trkpt lat="44.16241" lon="6.6611">
        <ele>1993.4000244141</ele>
        <time>2022-08-19T18:03:53Z</time>
      </trkpt>
      <trkpt lat="44.16243" lon="6.66114">
        <ele>1993.1999511719</ele>
        <time>2022-08-19T18:03:55Z</time>
      </trkpt>
      <trkpt lat="44.16244" lon="6.66117">
        <ele>1993.1999511719</ele>
        <time>2022-08-19T18:03:56Z</time>
      </trkpt>
      <trkpt lat="44.16246" lon="6.66121">
        <ele>1993.1999511719</ele>
        <time>2022-08-19T18:03:58Z</time>
      </trkpt>
      <trkpt lat="44.16246" lon="6.66124">
        <ele>1993.1999511719</ele>
        <time>2022-08-19T18:04:00Z</time>
      </trkpt>
      <trkpt lat="44.16249" lon="6.66131">
        <ele>1993</ele>
        <time>2022-08-19T18:04:03Z</time>
      </trkpt>
      <trkpt lat="44.16252" lon="6.66138">
        <ele>1992.8000488281</ele>
        <time>2022-08-19T18:04:06Z</time>
      </trkpt>
      <trkpt lat="44.16254" lon="6.66149">
        <ele>1992.5999755859</ele>
        <time>2022-08-19T18:04:09Z</time>
      </trkpt>
      <trkpt lat="44.16256" lon="6.66162">
        <ele>1992.1999511719</ele>
        <time>2022-08-19T18:04:12Z</time>
      </trkpt>
      <trkpt lat="44.16257" lon="6.66167">
        <ele>1992</ele>
        <time>2022-08-19T18:04:14Z</time>
      </trkpt>
      <trkpt lat="44.1626" lon="6.6617">
        <ele>1992.1999511719</ele>
        <time>2022-08-19T18:04:16Z</time>
      </trkpt>
      <trkpt lat="44.16264" lon="6.66175">
        <ele>1992.5999755859</ele>
        <time>2022-08-19T18:04:19Z</time>
      </trkpt>
      <trkpt lat="44.16271" lon="6.66182">
        <ele>1992.5999755859</ele>
        <time>2022-08-19T18:04:22Z</time>
      </trkpt>
      <trkpt lat="44.16281" lon="6.66193">
        <ele>1992.4000244141</ele>
        <time>2022-08-19T18:04:27Z</time>
      </trkpt>
      <trkpt lat="44.16282" lon="6.66196">
        <ele>1992.4000244141</ele>
        <time>2022-08-19T18:04:28Z</time>
      </trkpt>
      <trkpt lat="44.16283" lon="6.66199">
        <ele>1992.5999755859</ele>
        <time>2022-08-19T18:04:30Z</time>
      </trkpt>
      <trkpt lat="44.16283" lon="6.662">
        <ele>1993</ele>
        <time>2022-08-19T18:04:32Z</time>
      </trkpt>
      <trkpt lat="44.16284" lon="6.66204">
        <ele>1993.1999511719</ele>
        <time>2022-08-19T18:04:38Z</time>
      </trkpt>
      <trkpt lat="44.16282" lon="6.6621">
        <ele>1993.1999511719</ele>
        <time>2022-08-19T18:04:47Z</time>
      </trkpt>
      <trkpt lat="44.16272" lon="6.66213">
        <ele>1993.1999511719</ele>
        <time>2022-08-19T18:04:54Z</time>
      </trkpt>
      <trkpt lat="44.16267" lon="6.66214">
        <ele>1993.1999511719</ele>
        <time>2022-08-19T18:04:56Z</time>
      </trkpt>
      <trkpt lat="44.16252" lon="6.66221">
        <ele>1993.1999511719</ele>
        <time>2022-08-19T18:05:03Z</time>
      </trkpt>
      <trkpt lat="44.16247" lon="6.66227">
        <ele>1993.1999511719</ele>
        <time>2022-08-19T18:05:06Z</time>
      </trkpt>
      <trkpt lat="44.16246" lon="6.66228">
        <ele>1993.1999511719</ele>
        <time>2022-08-19T18:05:07Z</time>
      </trkpt>
      <trkpt lat="44.16244" lon="6.66228">
        <ele>1993.5999755859</ele>
        <time>2022-08-19T18:05:11Z</time>
      </trkpt>
      <trkpt lat="44.16243" lon="6.66228">
        <ele>1993.5999755859</ele>
        <time>2022-08-19T18:05:12Z</time>
      </trkpt>
      <trkpt lat="44.1624" lon="6.66235">
        <ele>1993.4000244141</ele>
        <time>2022-08-19T18:05:19Z</time>
      </trkpt>
      <trkpt lat="44.16238" lon="6.66236">
        <ele>1993.4000244141</ele>
        <time>2022-08-19T18:05:21Z</time>
      </trkpt>
      <trkpt lat="44.16232" lon="6.66231">
        <ele>1993</ele>
        <time>2022-08-19T18:05:29Z</time>
      </trkpt>
      <trkpt lat="44.16231" lon="6.66228">
        <ele>1993</ele>
        <time>2022-08-19T18:05:34Z</time>
      </trkpt>
      <trkpt lat="44.16231" lon="6.66228">
        <ele>1993.1999511719</ele>
        <time>2022-08-19T18:05:35Z</time>
      </trkpt>
      <trkpt lat="44.16231" lon="6.66228">
        <ele>1993.1999511719</ele>
        <time>2022-08-19T18:05:38Z</time>
      </trkpt>
      <trkpt lat="44.16231" lon="6.66228">
        <ele>1993.1999511719</ele>
        <time>2022-08-19T18:05:39Z</time>
      </trkpt>
      <trkpt lat="44.1623" lon="6.66228">
        <ele>1993.1999511719</ele>
        <time>2022-08-19T18:05:41Z</time>
      </trkpt>
      <trkpt lat="44.16229" lon="6.66228">
        <ele>1993.1999511719</ele>
        <time>2022-08-19T18:05:42Z</time>
      </trkpt>
      <trkpt lat="44.16228" lon="6.66228">
        <ele>1993</ele>
        <time>2022-08-19T18:05:44Z</time>
      </trkpt>
      <trkpt lat="44.16225" lon="6.66228">
        <ele>1992.8000488281</ele>
        <time>2022-08-19T18:05:51Z</time>
      </trkpt>
      <trkpt lat="44.16225" lon="6.66228">
        <ele>1992.8000488281</ele>
        <time>2022-08-19T18:05:52Z</time>
      </trkpt>
      <trkpt lat="44.16225" lon="6.66228">
        <ele>1992.5999755859</ele>
        <time>2022-08-19T18:05:59Z</time>
      </trkpt>
      <trkpt lat="44.16225" lon="6.66225">
        <ele>1992.5999755859</ele>
        <time>2022-08-19T18:06:01Z</time>
      </trkpt>
      <trkpt lat="44.16223" lon="6.66219">
        <ele>1992.4000244141</ele>
        <time>2022-08-19T18:06:10Z</time>
      </trkpt>
      <trkpt lat="44.16223" lon="6.66221">
        <ele>1992.4000244141</ele>
        <time>2022-08-19T18:06:20Z</time>
      </trkpt>
      <trkpt lat="44.16219" lon="6.66222">
        <ele>1992.8000488281</ele>
        <time>2022-08-19T18:06:31Z</time>
      </trkpt>
      <trkpt lat="44.16218" lon="6.66222">
        <ele>1992.8000488281</ele>
        <time>2022-08-19T18:06:40Z</time>
      </trkpt>
      <trkpt lat="44.16219" lon="6.66222">
        <ele>1993</ele>
        <time>2022-08-19T18:06:41Z</time>
      </trkpt>
      <trkpt lat="44.16217" lon="6.66221">
        <ele>1992.8000488281</ele>
        <time>2022-08-19T18:06:43Z</time>
      </trkpt>
      <trkpt lat="44.16211" lon="6.6622">
        <ele>1992.8000488281</ele>
        <time>2022-08-19T18:06:46Z</time>
      </trkpt>
      <trkpt lat="44.16207" lon="6.6622">
        <ele>1992.8000488281</ele>
        <time>2022-08-19T18:06:47Z</time>
      </trkpt>
      <trkpt lat="44.16204" lon="6.6622">
        <ele>1992.8000488281</ele>
        <time>2022-08-19T18:06:48Z</time>
      </trkpt>
      <trkpt lat="44.16194" lon="6.66216">
        <ele>1992.8000488281</ele>
        <time>2022-08-19T18:06:51Z</time>
      </trkpt>
      <trkpt lat="44.16186" lon="6.66212">
        <ele>1992.5999755859</ele>
        <time>2022-08-19T18:06:54Z</time>
      </trkpt>
      <trkpt lat="44.1617" lon="6.66203">
        <ele>1992.5999755859</ele>
        <time>2022-08-19T18:07:00Z</time>
      </trkpt>
      <trkpt lat="44.16167" lon="6.66201">
        <ele>1992.5999755859</ele>
        <time>2022-08-19T18:07:01Z</time>
      </trkpt>
      <trkpt lat="44.16154" lon="6.66193">
        <ele>1992.5999755859</ele>
        <time>2022-08-19T18:07:05Z</time>
      </trkpt>
      <trkpt lat="44.16146" lon="6.66189">
        <ele>1992.8000488281</ele>
        <time>2022-08-19T18:07:08Z</time>
      </trkpt>
      <trkpt lat="44.16131" lon="6.66179">
        <ele>1992.8000488281</ele>
        <time>2022-08-19T18:07:14Z</time>
      </trkpt>
      <trkpt lat="44.16114" lon="6.66187">
        <ele>1993</ele>
        <time>2022-08-19T18:07:20Z</time>
      </trkpt>
      <trkpt lat="44.16094" lon="6.66197">
        <ele>1992.8000488281</ele>
        <time>2022-08-19T18:07:27Z</time>
      </trkpt>
      <trkpt lat="44.16077" lon="6.66201">
        <ele>1992.5999755859</ele>
        <time>2022-08-19T18:07:33Z</time>
      </trkpt>
      <trkpt lat="44.16061" lon="6.6621">
        <ele>1992.8000488281</ele>
        <time>2022-08-19T18:07:39Z</time>
      </trkpt>
      <trkpt lat="44.16045" lon="6.66219">
        <ele>1993.5999755859</ele>
        <time>2022-08-19T18:07:45Z</time>
      </trkpt>
      <trkpt lat="44.16025" lon="6.6624">
        <ele>1994.4000244141</ele>
        <time>2022-08-19T18:07:53Z</time>
      </trkpt>
      <trkpt lat="44.16022" lon="6.66246">
        <ele>1994.5999755859</ele>
        <time>2022-08-19T18:07:55Z</time>
      </trkpt>
      <trkpt lat="44.16017" lon="6.66255">
        <ele>1995</ele>
        <time>2022-08-19T18:07:58Z</time>
      </trkpt>
      <trkpt lat="44.16014" lon="6.66267">
        <ele>1995</ele>
        <time>2022-08-19T18:08:03Z</time>
      </trkpt>
      <trkpt lat="44.16014" lon="6.6627">
        <ele>1994.8000488281</ele>
        <time>2022-08-19T18:08:04Z</time>
      </trkpt>
      <trkpt lat="44.16014" lon="6.66272">
        <ele>1994.5999755859</ele>
        <time>2022-08-19T18:08:05Z</time>
      </trkpt>
      <trkpt lat="44.16016" lon="6.66291">
        <ele>1994.1999511719</ele>
        <time>2022-08-19T18:08:10Z</time>
      </trkpt>
      <trkpt lat="44.16021" lon="6.6631">
        <ele>1994.1999511719</ele>
        <time>2022-08-19T18:08:16Z</time>
      </trkpt>
      <trkpt lat="44.1602" lon="6.66312">
        <ele>1994.1999511719</ele>
        <time>2022-08-19T18:08:17Z</time>
      </trkpt>
      <trkpt lat="44.16019" lon="6.66315">
        <ele>1994.1999511719</ele>
        <time>2022-08-19T18:08:19Z</time>
      </trkpt>
      <trkpt lat="44.16019" lon="6.66316">
        <ele>1994.4000244141</ele>
        <time>2022-08-19T18:08:20Z</time>
      </trkpt>
      <trkpt lat="44.16019" lon="6.66317">
        <ele>1994.4000244141</ele>
        <time>2022-08-19T18:08:22Z</time>
      </trkpt>
      <trkpt lat="44.16019" lon="6.66319">
        <ele>1994.4000244141</ele>
        <time>2022-08-19T18:08:25Z</time>
      </trkpt>
      <trkpt lat="44.16017" lon="6.66332">
        <ele>1994.4000244141</ele>
        <time>2022-08-19T18:08:32Z</time>
      </trkpt>
      <trkpt lat="44.16013" lon="6.66336">
        <ele>1994.4000244141</ele>
        <time>2022-08-19T18:08:35Z</time>
      </trkpt>
      <trkpt lat="44.16007" lon="6.66341">
        <ele>1994.4000244141</ele>
        <time>2022-08-19T18:08:39Z</time>
      </trkpt>
      <trkpt lat="44.16005" lon="6.66344">
        <ele>1994.4000244141</ele>
        <time>2022-08-19T18:08:41Z</time>
      </trkpt>
      <trkpt lat="44.15999" lon="6.6635">
        <ele>1994.4000244141</ele>
        <time>2022-08-19T18:08:44Z</time>
      </trkpt>
      <trkpt lat="44.15996" lon="6.66355">
        <ele>1994.1999511719</ele>
        <time>2022-08-19T18:08:46Z</time>
      </trkpt>
      <trkpt lat="44.15993" lon="6.66361">
        <ele>1994</ele>
        <time>2022-08-19T18:08:48Z</time>
      </trkpt>
      <trkpt lat="44.1599" lon="6.66372">
        <ele>1993.5999755859</ele>
        <time>2022-08-19T18:08:52Z</time>
      </trkpt>
      <trkpt lat="44.15988" lon="6.66379">
        <ele>1993.1999511719</ele>
        <time>2022-08-19T18:08:55Z</time>
      </trkpt>
      <trkpt lat="44.15983" lon="6.664">
        <ele>1993</ele>
        <time>2022-08-19T18:09:03Z</time>
      </trkpt>
      <trkpt lat="44.1598" lon="6.66413">
        <ele>1992.4000244141</ele>
        <time>2022-08-19T18:09:07Z</time>
      </trkpt>
      <trkpt lat="44.15981" lon="6.66423">
        <ele>1991.8000488281</ele>
        <time>2022-08-19T18:09:10Z</time>
      </trkpt>
      <trkpt lat="44.15983" lon="6.66443">
        <ele>1991.4000244141</ele>
        <time>2022-08-19T18:09:15Z</time>
      </trkpt>
      <trkpt lat="44.15984" lon="6.66448">
        <ele>1991.4000244141</ele>
        <time>2022-08-19T18:09:16Z</time>
      </trkpt>
      <trkpt lat="44.15986" lon="6.66473">
        <ele>1990.5999755859</ele>
        <time>2022-08-19T18:09:22Z</time>
      </trkpt>
      <trkpt lat="44.15987" lon="6.6648">
        <ele>1990.5999755859</ele>
        <time>2022-08-19T18:09:24Z</time>
      </trkpt>
      <trkpt lat="44.15986" lon="6.66486">
        <ele>1990.4000244141</ele>
        <time>2022-08-19T18:09:26Z</time>
      </trkpt>
      <trkpt lat="44.15986" lon="6.6649">
        <ele>1990.4000244141</ele>
        <time>2022-08-19T18:09:27Z</time>
      </trkpt>
      <trkpt lat="44.15983" lon="6.66503">
        <ele>1989.4000244141</ele>
        <time>2022-08-19T18:09:32Z</time>
      </trkpt>
      <trkpt lat="44.15984" lon="6.66505">
        <ele>1989</ele>
        <time>2022-08-19T18:09:33Z</time>
      </trkpt>
      <trkpt lat="44.15989" lon="6.66524">
        <ele>1989.1999511719</ele>
        <time>2022-08-19T18:09:41Z</time>
      </trkpt>
      <trkpt lat="44.1599" lon="6.66535">
        <ele>1989.5999755859</ele>
        <time>2022-08-19T18:09:45Z</time>
      </trkpt>
      <trkpt lat="44.15989" lon="6.66538">
        <ele>1989.5999755859</ele>
        <time>2022-08-19T18:09:47Z</time>
      </trkpt>
      <trkpt lat="44.15987" lon="6.66539">
        <ele>1989.8000488281</ele>
        <time>2022-08-19T18:09:50Z</time>
      </trkpt>
      <trkpt lat="44.15986" lon="6.66539">
        <ele>1989.8000488281</ele>
        <time>2022-08-19T18:09:51Z</time>
      </trkpt>
      <trkpt lat="44.15982" lon="6.66539">
        <ele>1989.8000488281</ele>
        <time>2022-08-19T18:09:55Z</time>
      </trkpt>
      <trkpt lat="44.15977" lon="6.66533">
        <ele>1989.5999755859</ele>
        <time>2022-08-19T18:10:01Z</time>
      </trkpt>
      <trkpt lat="44.15976" lon="6.6653">
        <ele>1989.5999755859</ele>
        <time>2022-08-19T18:10:03Z</time>
      </trkpt>
      <trkpt lat="44.15964" lon="6.66511">
        <ele>1989.5999755859</ele>
        <time>2022-08-19T18:10:11Z</time>
      </trkpt>
      <trkpt lat="44.15955" lon="6.66488">
        <ele>1989.8000488281</ele>
        <time>2022-08-19T18:10:18Z</time>
      </trkpt>
      <trkpt lat="44.15953" lon="6.66486">
        <ele>1989.8000488281</ele>
        <time>2022-08-19T18:10:19Z</time>
      </trkpt>
      <trkpt lat="44.15948" lon="6.66482">
        <ele>1989.8000488281</ele>
        <time>2022-08-19T18:10:22Z</time>
      </trkpt>
      <trkpt lat="44.15941" lon="6.66476">
        <ele>1990</ele>
        <time>2022-08-19T18:10:27Z</time>
      </trkpt>
      <trkpt lat="44.15929" lon="6.66469">
        <ele>1990</ele>
        <time>2022-08-19T18:10:33Z</time>
      </trkpt>
      <trkpt lat="44.15928" lon="6.66468">
        <ele>1990</ele>
        <time>2022-08-19T18:10:34Z</time>
      </trkpt>
      <trkpt lat="44.15927" lon="6.66468">
        <ele>1990.1999511719</ele>
        <time>2022-08-19T18:10:35Z</time>
      </trkpt>
      <trkpt lat="44.15926" lon="6.66467">
        <ele>1990.1999511719</ele>
        <time>2022-08-19T18:10:38Z</time>
      </trkpt>
      <trkpt lat="44.15926" lon="6.66469">
        <ele>1990.8000488281</ele>
        <time>2022-08-19T18:10:44Z</time>
      </trkpt>
      <trkpt lat="44.15926" lon="6.66468">
        <ele>1990.8000488281</ele>
        <time>2022-08-19T18:10:51Z</time>
      </trkpt>
      <trkpt lat="44.15926" lon="6.66467">
        <ele>1990.8000488281</ele>
        <time>2022-08-19T18:10:58Z</time>
      </trkpt>
      <trkpt lat="44.15925" lon="6.66467">
        <ele>1990.8000488281</ele>
        <time>2022-08-19T18:11:02Z</time>
      </trkpt>
      <trkpt lat="44.15926" lon="6.66468">
        <ele>1990.8000488281</ele>
        <time>2022-08-19T18:11:04Z</time>
      </trkpt>
      <trkpt lat="44.15926" lon="6.66472">
        <ele>1990.8000488281</ele>
        <time>2022-08-19T18:11:20Z</time>
      </trkpt>
      <trkpt lat="44.15926" lon="6.66472">
        <ele>1990.8000488281</ele>
        <time>2022-08-19T18:11:21Z</time>
      </trkpt>
      <trkpt lat="44.15927" lon="6.66474">
        <ele>1990.8000488281</ele>
        <time>2022-08-19T18:11:29Z</time>
      </trkpt>
      <trkpt lat="44.15927" lon="6.66472">
        <ele>1990.8000488281</ele>
        <time>2022-08-19T18:11:37Z</time>
      </trkpt>
      <trkpt lat="44.15927" lon="6.66472">
        <ele>1990.8000488281</ele>
        <time>2022-08-19T18:11:39Z</time>
      </trkpt>
      <trkpt lat="44.15925" lon="6.66471">
        <ele>1990.8000488281</ele>
        <time>2022-08-19T18:11:51Z</time>
      </trkpt>
      <trkpt lat="44.15927" lon="6.6647">
        <ele>1990.8000488281</ele>
        <time>2022-08-19T18:12:02Z</time>
      </trkpt>
      <trkpt lat="44.15923" lon="6.66467">
        <ele>1990.8000488281</ele>
        <time>2022-08-19T18:12:07Z</time>
      </trkpt>
      <trkpt lat="44.15917" lon="6.66463">
        <ele>1990.8000488281</ele>
        <time>2022-08-19T18:12:11Z</time>
      </trkpt>
      <trkpt lat="44.15908" lon="6.66456">
        <ele>1990.8000488281</ele>
        <time>2022-08-19T18:12:16Z</time>
      </trkpt>
      <trkpt lat="44.15904" lon="6.66456">
        <ele>1990.8000488281</ele>
        <time>2022-08-19T18:12:18Z</time>
      </trkpt>
      <trkpt lat="44.15887" lon="6.66456">
        <ele>1991.5999755859</ele>
        <time>2022-08-19T18:12:25Z</time>
      </trkpt>
      <trkpt lat="44.15882" lon="6.66457">
        <ele>1991.8000488281</ele>
        <time>2022-08-19T18:12:27Z</time>
      </trkpt>
      <trkpt lat="44.15875" lon="6.66462">
        <ele>1992.1999511719</ele>
        <time>2022-08-19T18:12:32Z</time>
      </trkpt>
      <trkpt lat="44.15871" lon="6.66468">
        <ele>1992.4000244141</ele>
        <time>2022-08-19T18:12:35Z</time>
      </trkpt>
      <trkpt lat="44.15869" lon="6.66472">
        <ele>1992.4000244141</ele>
        <time>2022-08-19T18:12:37Z</time>
      </trkpt>
      <trkpt lat="44.15868" lon="6.66475">
        <ele>1992.4000244141</ele>
        <time>2022-08-19T18:12:38Z</time>
      </trkpt>
      <trkpt lat="44.15868" lon="6.66488">
        <ele>1992.4000244141</ele>
        <time>2022-08-19T18:12:42Z</time>
      </trkpt>
      <trkpt lat="44.15868" lon="6.66493">
        <ele>1992.4000244141</ele>
        <time>2022-08-19T18:12:44Z</time>
      </trkpt>
      <trkpt lat="44.15866" lon="6.66517">
        <ele>1992.4000244141</ele>
        <time>2022-08-19T18:12:50Z</time>
      </trkpt>
      <trkpt lat="44.15864" lon="6.66521">
        <ele>1992.4000244141</ele>
        <time>2022-08-19T18:12:51Z</time>
      </trkpt>
      <trkpt lat="44.15859" lon="6.66535">
        <ele>1992.1999511719</ele>
        <time>2022-08-19T18:12:55Z</time>
      </trkpt>
      <trkpt lat="44.15846" lon="6.66551">
        <ele>1992.1999511719</ele>
        <time>2022-08-19T18:13:02Z</time>
      </trkpt>
      <trkpt lat="44.15835" lon="6.66569">
        <ele>1992.1999511719</ele>
        <time>2022-08-19T18:13:09Z</time>
      </trkpt>
      <trkpt lat="44.15826" lon="6.6658">
        <ele>1991.8000488281</ele>
        <time>2022-08-19T18:13:14Z</time>
      </trkpt>
      <trkpt lat="44.15822" lon="6.66585">
        <ele>1991.8000488281</ele>
        <time>2022-08-19T18:13:16Z</time>
      </trkpt>
      <trkpt lat="44.15809" lon="6.666">
        <ele>1991.4000244141</ele>
        <time>2022-08-19T18:13:23Z</time>
      </trkpt>
      <trkpt lat="44.158" lon="6.66606">
        <ele>1991</ele>
        <time>2022-08-19T18:13:27Z</time>
      </trkpt>
      <trkpt lat="44.15796" lon="6.6661">
        <ele>1990.8000488281</ele>
        <time>2022-08-19T18:13:29Z</time>
      </trkpt>
      <trkpt lat="44.1579" lon="6.66618">
        <ele>1990.5999755859</ele>
        <time>2022-08-19T18:13:32Z</time>
      </trkpt>
      <trkpt lat="44.15789" lon="6.66621">
        <ele>1990.4000244141</ele>
        <time>2022-08-19T18:13:33Z</time>
      </trkpt>
      <trkpt lat="44.15782" lon="6.66632">
        <ele>1990.1999511719</ele>
        <time>2022-08-19T18:13:38Z</time>
      </trkpt>
      <trkpt lat="44.15777" lon="6.66642">
        <ele>1990.4000244141</ele>
        <time>2022-08-19T18:13:42Z</time>
      </trkpt>
      <trkpt lat="44.15775" lon="6.66646">
        <ele>1990.4000244141</ele>
        <time>2022-08-19T18:13:44Z</time>
      </trkpt>
      <trkpt lat="44.15768" lon="6.66656">
        <ele>1990</ele>
        <time>2022-08-19T18:13:48Z</time>
      </trkpt>
      <trkpt lat="44.15767" lon="6.6666">
        <ele>1990</ele>
        <time>2022-08-19T18:13:50Z</time>
      </trkpt>
      <trkpt lat="44.15765" lon="6.66667">
        <ele>1989.8000488281</ele>
        <time>2022-08-19T18:13:56Z</time>
      </trkpt>
      <trkpt lat="44.15764" lon="6.6667">
        <ele>1989.8000488281</ele>
        <time>2022-08-19T18:13:58Z</time>
      </trkpt>
      <trkpt lat="44.15759" lon="6.66687">
        <ele>1989.4000244141</ele>
        <time>2022-08-19T18:14:06Z</time>
      </trkpt>
      <trkpt lat="44.15758" lon="6.66694">
        <ele>1989.4000244141</ele>
        <time>2022-08-19T18:14:09Z</time>
      </trkpt>
      <trkpt lat="44.15758" lon="6.66694">
        <ele>1989.4000244141</ele>
        <time>2022-08-19T18:14:10Z</time>
      </trkpt>
      <trkpt lat="44.15758" lon="6.66694">
        <ele>1989.5999755859</ele>
        <time>2022-08-19T18:14:11Z</time>
      </trkpt>
      <trkpt lat="44.15758" lon="6.66695">
        <ele>1989.5999755859</ele>
        <time>2022-08-19T18:14:15Z</time>
      </trkpt>
      <trkpt lat="44.15756" lon="6.66702">
        <ele>1989.5999755859</ele>
        <time>2022-08-19T18:14:20Z</time>
      </trkpt>
      <trkpt lat="44.15751" lon="6.66717">
        <ele>1990.1999511719</ele>
        <time>2022-08-19T18:14:27Z</time>
      </trkpt>
      <trkpt lat="44.15751" lon="6.66724">
        <ele>1989.8000488281</ele>
        <time>2022-08-19T18:14:30Z</time>
      </trkpt>
      <trkpt lat="44.15753" lon="6.66731">
        <ele>1989.8000488281</ele>
        <time>2022-08-19T18:14:33Z</time>
      </trkpt>
      <trkpt lat="44.15757" lon="6.66743">
        <ele>1990.4000244141</ele>
        <time>2022-08-19T18:14:38Z</time>
      </trkpt>
      <trkpt lat="44.15757" lon="6.66748">
        <ele>1990.5999755859</ele>
        <time>2022-08-19T18:14:40Z</time>
      </trkpt>
      <trkpt lat="44.15757" lon="6.66756">
        <ele>1990.8000488281</ele>
        <time>2022-08-19T18:14:43Z</time>
      </trkpt>
      <trkpt lat="44.15758" lon="6.66766">
        <ele>1991.5999755859</ele>
        <time>2022-08-19T18:14:47Z</time>
      </trkpt>
      <trkpt lat="44.15757" lon="6.66773">
        <ele>1992</ele>
        <time>2022-08-19T18:14:50Z</time>
      </trkpt>
      <trkpt lat="44.15756" lon="6.66776">
        <ele>1992.1999511719</ele>
        <time>2022-08-19T18:14:51Z</time>
      </trkpt>
      <trkpt lat="44.15754" lon="6.66783">
        <ele>1992.4000244141</ele>
        <time>2022-08-19T18:14:53Z</time>
      </trkpt>
      <trkpt lat="44.15754" lon="6.66786">
        <ele>1992.5999755859</ele>
        <time>2022-08-19T18:14:54Z</time>
      </trkpt>
      <trkpt lat="44.15752" lon="6.66796">
        <ele>1993.1999511719</ele>
        <time>2022-08-19T18:14:58Z</time>
      </trkpt>
      <trkpt lat="44.15753" lon="6.66806">
        <ele>1993.8000488281</ele>
        <time>2022-08-19T18:15:02Z</time>
      </trkpt>
      <trkpt lat="44.15755" lon="6.6681">
        <ele>1994</ele>
        <time>2022-08-19T18:15:04Z</time>
      </trkpt>
      <trkpt lat="44.15755" lon="6.66812">
        <ele>1994.1999511719</ele>
        <time>2022-08-19T18:15:05Z</time>
      </trkpt>
      <trkpt lat="44.15756" lon="6.66814">
        <ele>1994.4000244141</ele>
        <time>2022-08-19T18:15:06Z</time>
      </trkpt>
      <trkpt lat="44.15759" lon="6.66819">
        <ele>1995</ele>
        <time>2022-08-19T18:15:12Z</time>
      </trkpt>
      <trkpt lat="44.15762" lon="6.66823">
        <ele>1995.4000244141</ele>
        <time>2022-08-19T18:15:19Z</time>
      </trkpt>
      <trkpt lat="44.15762" lon="6.66824">
        <ele>1995.4000244141</ele>
        <time>2022-08-19T18:15:20Z</time>
      </trkpt>
      <trkpt lat="44.15767" lon="6.66846">
        <ele>1996</ele>
        <time>2022-08-19T18:15:31Z</time>
      </trkpt>
      <trkpt lat="44.15768" lon="6.66848">
        <ele>1996.1999511719</ele>
        <time>2022-08-19T18:15:32Z</time>
      </trkpt>
      <trkpt lat="44.15768" lon="6.66857">
        <ele>1996.4000244141</ele>
        <time>2022-08-19T18:15:35Z</time>
      </trkpt>
      <trkpt lat="44.15768" lon="6.66859">
        <ele>1996.5999755859</ele>
        <time>2022-08-19T18:15:36Z</time>
      </trkpt>
      <trkpt lat="44.15769" lon="6.66863">
        <ele>1996.8000488281</ele>
        <time>2022-08-19T18:15:38Z</time>
      </trkpt>
      <trkpt lat="44.15769" lon="6.66872">
        <ele>1997.5999755859</ele>
        <time>2022-08-19T18:15:41Z</time>
      </trkpt>
      <trkpt lat="44.15769" lon="6.66881">
        <ele>1998</ele>
        <time>2022-08-19T18:15:44Z</time>
      </trkpt>
      <trkpt lat="44.15766" lon="6.66898">
        <ele>1998.8000488281</ele>
        <time>2022-08-19T18:15:48Z</time>
      </trkpt>
      <trkpt lat="44.15765" lon="6.66911">
        <ele>1999.4000244141</ele>
        <time>2022-08-19T18:15:52Z</time>
      </trkpt>
      <trkpt lat="44.15765" lon="6.66919">
        <ele>1999.8000488281</ele>
        <time>2022-08-19T18:15:55Z</time>
      </trkpt>
      <trkpt lat="44.15763" lon="6.66925">
        <ele>2000</ele>
        <time>2022-08-19T18:15:58Z</time>
      </trkpt>
      <trkpt lat="44.15754" lon="6.66947">
        <ele>1998.4000244141</ele>
        <time>2022-08-19T18:16:05Z</time>
      </trkpt>
      <trkpt lat="44.15752" lon="6.66952">
        <ele>1998</ele>
        <time>2022-08-19T18:16:06Z</time>
      </trkpt>
      <trkpt lat="44.15749" lon="6.66963">
        <ele>1997.1999511719</ele>
        <time>2022-08-19T18:16:08Z</time>
      </trkpt>
      <trkpt lat="44.15746" lon="6.66978">
        <ele>1996.1999511719</ele>
        <time>2022-08-19T18:16:12Z</time>
      </trkpt>
      <trkpt lat="44.15746" lon="6.66985">
        <ele>1996</ele>
        <time>2022-08-19T18:16:15Z</time>
      </trkpt>
      <trkpt lat="44.15746" lon="6.6699">
        <ele>1995.1999511719</ele>
        <time>2022-08-19T18:16:17Z</time>
      </trkpt>
      <trkpt lat="44.15745" lon="6.66993">
        <ele>1995</ele>
        <time>2022-08-19T18:16:18Z</time>
      </trkpt>
      <trkpt lat="44.15743" lon="6.66995">
        <ele>1994.5999755859</ele>
        <time>2022-08-19T18:16:19Z</time>
      </trkpt>
      <trkpt lat="44.1574" lon="6.67001">
        <ele>1994</ele>
        <time>2022-08-19T18:16:21Z</time>
      </trkpt>
      <trkpt lat="44.15738" lon="6.67005">
        <ele>1993.8000488281</ele>
        <time>2022-08-19T18:16:22Z</time>
      </trkpt>
      <trkpt lat="44.15735" lon="6.67017">
        <ele>1993</ele>
        <time>2022-08-19T18:16:25Z</time>
      </trkpt>
      <trkpt lat="44.15735" lon="6.6702">
        <ele>1992.8000488281</ele>
        <time>2022-08-19T18:16:26Z</time>
      </trkpt>
      <trkpt lat="44.15734" lon="6.67023">
        <ele>1992.5999755859</ele>
        <time>2022-08-19T18:16:27Z</time>
      </trkpt>
      <trkpt lat="44.15733" lon="6.67029">
        <ele>1992</ele>
        <time>2022-08-19T18:16:29Z</time>
      </trkpt>
      <trkpt lat="44.15731" lon="6.67034">
        <ele>1991.4000244141</ele>
        <time>2022-08-19T18:16:31Z</time>
      </trkpt>
      <trkpt lat="44.1573" lon="6.67036">
        <ele>1990.8000488281</ele>
        <time>2022-08-19T18:16:33Z</time>
      </trkpt>
      <trkpt lat="44.1573" lon="6.67035">
        <ele>1990.4000244141</ele>
        <time>2022-08-19T18:16:35Z</time>
      </trkpt>
      <trkpt lat="44.1573" lon="6.67035">
        <ele>1990.1999511719</ele>
        <time>2022-08-19T18:16:36Z</time>
      </trkpt>
      <trkpt lat="44.1573" lon="6.67035">
        <ele>1990</ele>
        <time>2022-08-19T18:16:41Z</time>
      </trkpt>
      <trkpt lat="44.15726" lon="6.67051">
        <ele>1989.5999755859</ele>
        <time>2022-08-19T18:16:49Z</time>
      </trkpt>
      <trkpt lat="44.15726" lon="6.67055">
        <ele>1989.4000244141</ele>
        <time>2022-08-19T18:16:50Z</time>
      </trkpt>
      <trkpt lat="44.15727" lon="6.67059">
        <ele>1989.1999511719</ele>
        <time>2022-08-19T18:16:51Z</time>
      </trkpt>
      <trkpt lat="44.15727" lon="6.67066">
        <ele>1988.4000244141</ele>
        <time>2022-08-19T18:16:53Z</time>
      </trkpt>
      <trkpt lat="44.15726" lon="6.6707">
        <ele>1988</ele>
        <time>2022-08-19T18:16:54Z</time>
      </trkpt>
      <trkpt lat="44.15724" lon="6.67073">
        <ele>1987.8000488281</ele>
        <time>2022-08-19T18:16:55Z</time>
      </trkpt>
      <trkpt lat="44.15723" lon="6.67074">
        <ele>1987.4000244141</ele>
        <time>2022-08-19T18:16:56Z</time>
      </trkpt>
      <trkpt lat="44.15718" lon="6.67075">
        <ele>1987</ele>
        <time>2022-08-19T18:16:59Z</time>
      </trkpt>
      <trkpt lat="44.15708" lon="6.67085">
        <ele>1986.1999511719</ele>
        <time>2022-08-19T18:17:04Z</time>
      </trkpt>
      <trkpt lat="44.15707" lon="6.67088">
        <ele>1985.8000488281</ele>
        <time>2022-08-19T18:17:05Z</time>
      </trkpt>
      <trkpt lat="44.15705" lon="6.6709">
        <ele>1985.5999755859</ele>
        <time>2022-08-19T18:17:06Z</time>
      </trkpt>
      <trkpt lat="44.157" lon="6.67101">
        <ele>1984.8000488281</ele>
        <time>2022-08-19T18:17:10Z</time>
      </trkpt>
      <trkpt lat="44.15697" lon="6.67112">
        <ele>1983.8000488281</ele>
        <time>2022-08-19T18:17:13Z</time>
      </trkpt>
      <trkpt lat="44.15693" lon="6.67126">
        <ele>1982.8000488281</ele>
        <time>2022-08-19T18:17:18Z</time>
      </trkpt>
      <trkpt lat="44.15691" lon="6.67128">
        <ele>1982.5999755859</ele>
        <time>2022-08-19T18:17:19Z</time>
      </trkpt>
      <trkpt lat="44.15681" lon="6.67146">
        <ele>1981.5999755859</ele>
        <time>2022-08-19T18:17:25Z</time>
      </trkpt>
      <trkpt lat="44.15674" lon="6.67156">
        <ele>1980.4000244141</ele>
        <time>2022-08-19T18:17:29Z</time>
      </trkpt>
      <trkpt lat="44.15671" lon="6.67162">
        <ele>1979.8000488281</ele>
        <time>2022-08-19T18:17:31Z</time>
      </trkpt>
      <trkpt lat="44.15667" lon="6.67173">
        <ele>1979.4000244141</ele>
        <time>2022-08-19T18:17:37Z</time>
      </trkpt>
      <trkpt lat="44.15666" lon="6.67175">
        <ele>1979.4000244141</ele>
        <time>2022-08-19T18:17:38Z</time>
      </trkpt>
      <trkpt lat="44.1566" lon="6.67183">
        <ele>1978.8000488281</ele>
        <time>2022-08-19T18:17:42Z</time>
      </trkpt>
      <trkpt lat="44.1566" lon="6.67183">
        <ele>1978.5999755859</ele>
        <time>2022-08-19T18:17:43Z</time>
      </trkpt>
      <trkpt lat="44.15659" lon="6.67184">
        <ele>1978.4000244141</ele>
        <time>2022-08-19T18:17:44Z</time>
      </trkpt>
      <trkpt lat="44.15658" lon="6.67185">
        <ele>1978.1999511719</ele>
        <time>2022-08-19T18:17:45Z</time>
      </trkpt>
      <trkpt lat="44.15656" lon="6.67187">
        <ele>1978</ele>
        <time>2022-08-19T18:17:48Z</time>
      </trkpt>
      <trkpt lat="44.1565" lon="6.6719">
        <ele>1977.5999755859</ele>
        <time>2022-08-19T18:17:51Z</time>
      </trkpt>
      <trkpt lat="44.15647" lon="6.67191">
        <ele>1977.1999511719</ele>
        <time>2022-08-19T18:17:53Z</time>
      </trkpt>
      <trkpt lat="44.15646" lon="6.67192">
        <ele>1977</ele>
        <time>2022-08-19T18:17:54Z</time>
      </trkpt>
      <trkpt lat="44.15646" lon="6.67193">
        <ele>1977</ele>
        <time>2022-08-19T18:17:55Z</time>
      </trkpt>
      <trkpt lat="44.15638" lon="6.672">
        <ele>1976.4000244141</ele>
        <time>2022-08-19T18:17:59Z</time>
      </trkpt>
      <trkpt lat="44.15636" lon="6.67203">
        <ele>1976</ele>
        <time>2022-08-19T18:18:00Z</time>
      </trkpt>
      <trkpt lat="44.15633" lon="6.67208">
        <ele>1975.1999511719</ele>
        <time>2022-08-19T18:18:02Z</time>
      </trkpt>
      <trkpt lat="44.15632" lon="6.6721">
        <ele>1975</ele>
        <time>2022-08-19T18:18:04Z</time>
      </trkpt>
      <trkpt lat="44.15632" lon="6.6721">
        <ele>1975</ele>
        <time>2022-08-19T18:18:06Z</time>
      </trkpt>
      <trkpt lat="44.15633" lon="6.6721">
        <ele>1975</ele>
        <time>2022-08-19T18:18:08Z</time>
      </trkpt>
      <trkpt lat="44.15633" lon="6.67211">
        <ele>1975</ele>
        <time>2022-08-19T18:18:09Z</time>
      </trkpt>
      <trkpt lat="44.15633" lon="6.67211">
        <ele>1975</ele>
        <time>2022-08-19T18:18:15Z</time>
      </trkpt>
      <trkpt lat="44.15634" lon="6.67211">
        <ele>1975</ele>
        <time>2022-08-19T18:18:22Z</time>
      </trkpt>
      <trkpt lat="44.15635" lon="6.67211">
        <ele>1974.4000244141</ele>
        <time>2022-08-19T18:18:27Z</time>
      </trkpt>
      <trkpt lat="44.15635" lon="6.67212">
        <ele>1974.8000488281</ele>
        <time>2022-08-19T18:18:34Z</time>
      </trkpt>
      <trkpt lat="44.15636" lon="6.67213">
        <ele>1975</ele>
        <time>2022-08-19T18:18:45Z</time>
      </trkpt>
      <trkpt lat="44.15635" lon="6.67214">
        <ele>1975</ele>
        <time>2022-08-19T18:18:52Z</time>
      </trkpt>
      <trkpt lat="44.15634" lon="6.67214">
        <ele>1974.8000488281</ele>
        <time>2022-08-19T18:18:56Z</time>
      </trkpt>
      <trkpt lat="44.15634" lon="6.67214">
        <ele>1974.8000488281</ele>
        <time>2022-08-19T18:18:57Z</time>
      </trkpt>
      <trkpt lat="44.15633" lon="6.67213">
        <ele>1974.5999755859</ele>
        <time>2022-08-19T18:19:06Z</time>
      </trkpt>
      <trkpt lat="44.15633" lon="6.67213">
        <ele>1974.5999755859</ele>
        <time>2022-08-19T18:19:08Z</time>
      </trkpt>
      <trkpt lat="44.15632" lon="6.67213">
        <ele>1974.5999755859</ele>
        <time>2022-08-19T18:19:16Z</time>
      </trkpt>
      <trkpt lat="44.15633" lon="6.67214">
        <ele>1974.4000244141</ele>
        <time>2022-08-19T18:19:23Z</time>
      </trkpt>
      <trkpt lat="44.15632" lon="6.67214">
        <ele>1974.5999755859</ele>
        <time>2022-08-19T18:19:35Z</time>
      </trkpt>
      <trkpt lat="44.15632" lon="6.67214">
        <ele>1974.4000244141</ele>
        <time>2022-08-19T18:19:37Z</time>
      </trkpt>
      <trkpt lat="44.15632" lon="6.67214">
        <ele>1974.1999511719</ele>
        <time>2022-08-19T18:19:47Z</time>
      </trkpt>
      <trkpt lat="44.15631" lon="6.67214">
        <ele>1974.1999511719</ele>
        <time>2022-08-19T18:19:51Z</time>
      </trkpt>
      <trkpt lat="44.15631" lon="6.67214">
        <ele>1974</ele>
        <time>2022-08-19T18:20:07Z</time>
      </trkpt>
      <trkpt lat="44.1563" lon="6.67214">
        <ele>1974.1999511719</ele>
        <time>2022-08-19T18:20:20Z</time>
      </trkpt>
      <trkpt lat="44.15633" lon="6.67213">
        <ele>1974.1999511719</ele>
        <time>2022-08-19T18:20:30Z</time>
      </trkpt>
      <trkpt lat="44.15634" lon="6.67213">
        <ele>1974.1999511719</ele>
        <time>2022-08-19T18:20:35Z</time>
      </trkpt>
      <trkpt lat="44.15634" lon="6.67213">
        <ele>1974.1999511719</ele>
        <time>2022-08-19T18:20:42Z</time>
      </trkpt>
      <trkpt lat="44.15633" lon="6.67213">
        <ele>1974.1999511719</ele>
        <time>2022-08-19T18:20:46Z</time>
      </trkpt>
      <trkpt lat="44.15635" lon="6.67213">
        <ele>1974.1999511719</ele>
        <time>2022-08-19T18:20:51Z</time>
      </trkpt>
      <trkpt lat="44.15635" lon="6.67214">
        <ele>1974.1999511719</ele>
        <time>2022-08-19T18:20:55Z</time>
      </trkpt>
      <trkpt lat="44.15634" lon="6.67214">
        <ele>1974.1999511719</ele>
        <time>2022-08-19T18:21:03Z</time>
      </trkpt>
      <trkpt lat="44.15634" lon="6.67213">
        <ele>1974.1999511719</ele>
        <time>2022-08-19T18:21:06Z</time>
      </trkpt>
      <trkpt lat="44.15634" lon="6.67213">
        <ele>1974.1999511719</ele>
        <time>2022-08-19T18:21:08Z</time>
      </trkpt>
      <trkpt lat="44.15633" lon="6.67213">
        <ele>1974.1999511719</ele>
        <time>2022-08-19T18:21:11Z</time>
      </trkpt>
      <trkpt lat="44.15632" lon="6.67212">
        <ele>1974.1999511719</ele>
        <time>2022-08-19T18:21:13Z</time>
      </trkpt>
      <trkpt lat="44.15632" lon="6.67212">
        <ele>1974.1999511719</ele>
        <time>2022-08-19T18:21:24Z</time>
      </trkpt>
      <trkpt lat="44.15632" lon="6.67212">
        <ele>1974.1999511719</ele>
        <time>2022-08-19T18:21:27Z</time>
      </trkpt>
      <trkpt lat="44.15632" lon="6.67212">
        <ele>1974.1999511719</ele>
        <time>2022-08-19T18:21:33Z</time>
      </trkpt>
      <trkpt lat="44.15631" lon="6.67213">
        <ele>1974.1999511719</ele>
        <time>2022-08-19T18:21:41Z</time>
      </trkpt>
      <trkpt lat="44.15632" lon="6.67213">
        <ele>1974.1999511719</ele>
        <time>2022-08-19T18:21:51Z</time>
      </trkpt>
      <trkpt lat="44.15632" lon="6.67214">
        <ele>1974.1999511719</ele>
        <time>2022-08-19T18:21:55Z</time>
      </trkpt>
      <trkpt lat="44.15632" lon="6.67214">
        <ele>1974.1999511719</ele>
        <time>2022-08-19T18:22:00Z</time>
      </trkpt>
      <trkpt lat="44.1563" lon="6.67214">
        <ele>1974.1999511719</ele>
        <time>2022-08-19T18:22:07Z</time>
      </trkpt>
      <trkpt lat="44.15631" lon="6.67219">
        <ele>1974.1999511719</ele>
        <time>2022-08-19T18:22:16Z</time>
      </trkpt>
      <trkpt lat="44.15631" lon="6.67218">
        <ele>1974.1999511719</ele>
        <time>2022-08-19T18:22:24Z</time>
      </trkpt>
      <trkpt lat="44.15631" lon="6.67218">
        <ele>1974.1999511719</ele>
        <time>2022-08-19T18:22:27Z</time>
      </trkpt>
      <trkpt lat="44.15631" lon="6.67218">
        <ele>1974.1999511719</ele>
        <time>2022-08-19T18:22:29Z</time>
      </trkpt>
      <trkpt lat="44.15632" lon="6.67218">
        <ele>1974.1999511719</ele>
        <time>2022-08-19T18:22:40Z</time>
      </trkpt>
      <trkpt lat="44.15632" lon="6.67218">
        <ele>1974.1999511719</ele>
        <time>2022-08-19T18:22:44Z</time>
      </trkpt>
      <trkpt lat="44.15632" lon="6.67217">
        <ele>1974.1999511719</ele>
        <time>2022-08-19T18:22:54Z</time>
      </trkpt>
      <trkpt lat="44.15631" lon="6.67216">
        <ele>1974.1999511719</ele>
        <time>2022-08-19T18:23:03Z</time>
      </trkpt>
      <trkpt lat="44.15631" lon="6.67216">
        <ele>1974.1999511719</ele>
        <time>2022-08-19T18:23:07Z</time>
      </trkpt>
      <trkpt lat="44.15631" lon="6.67215">
        <ele>1974.1999511719</ele>
        <time>2022-08-19T18:23:19Z</time>
      </trkpt>
      <trkpt lat="44.15632" lon="6.67213">
        <ele>1974.1999511719</ele>
        <time>2022-08-19T18:23:24Z</time>
      </trkpt>
      <trkpt lat="44.15633" lon="6.67213">
        <ele>1974.1999511719</ele>
        <time>2022-08-19T18:23:29Z</time>
      </trkpt>
      <trkpt lat="44.15632" lon="6.67213">
        <ele>1974.1999511719</ele>
        <time>2022-08-19T18:23:38Z</time>
      </trkpt>
      <trkpt lat="44.15632" lon="6.67213">
        <ele>1974.1999511719</ele>
        <time>2022-08-19T18:23:41Z</time>
      </trkpt>
      <trkpt lat="44.15632" lon="6.67212">
        <ele>1974.1999511719</ele>
        <time>2022-08-19T18:23:46Z</time>
      </trkpt>
      <trkpt lat="44.15632" lon="6.67214">
        <ele>1974.1999511719</ele>
        <time>2022-08-19T18:23:58Z</time>
      </trkpt>
      <trkpt lat="44.15632" lon="6.67214">
        <ele>1974.1999511719</ele>
        <time>2022-08-19T18:24:02Z</time>
      </trkpt>
      <trkpt lat="44.15632" lon="6.67214">
        <ele>1974.1999511719</ele>
        <time>2022-08-19T18:24:04Z</time>
      </trkpt>
      <trkpt lat="44.15631" lon="6.67215">
        <ele>1974.1999511719</ele>
        <time>2022-08-19T18:24:07Z</time>
      </trkpt>
      <trkpt lat="44.15632" lon="6.67215">
        <ele>1974.1999511719</ele>
        <time>2022-08-19T18:24:11Z</time>
      </trkpt>
      <trkpt lat="44.1563" lon="6.67215">
        <ele>1974.1999511719</ele>
        <time>2022-08-19T18:24:18Z</time>
      </trkpt>
      <trkpt lat="44.15632" lon="6.67216">
        <ele>1974.1999511719</ele>
        <time>2022-08-19T18:24:25Z</time>
      </trkpt>
      <trkpt lat="44.15633" lon="6.67215">
        <ele>1974.1999511719</ele>
        <time>2022-08-19T18:24:35Z</time>
      </trkpt>
      <trkpt lat="44.15634" lon="6.67215">
        <ele>1974.1999511719</ele>
        <time>2022-08-19T18:24:39Z</time>
      </trkpt>
      <trkpt lat="44.15634" lon="6.67216">
        <ele>1974.1999511719</ele>
        <time>2022-08-19T18:24:41Z</time>
      </trkpt>
      <trkpt lat="44.15634" lon="6.67212">
        <ele>1974.1999511719</ele>
        <time>2022-08-19T18:24:51Z</time>
      </trkpt>
      <trkpt lat="44.15634" lon="6.67212">
        <ele>1974.1999511719</ele>
        <time>2022-08-19T18:24:53Z</time>
      </trkpt>
      <trkpt lat="44.15634" lon="6.67212">
        <ele>1974.1999511719</ele>
        <time>2022-08-19T18:25:00Z</time>
      </trkpt>
      <trkpt lat="44.15634" lon="6.67212">
        <ele>1974.1999511719</ele>
        <time>2022-08-19T18:25:03Z</time>
      </trkpt>
      <trkpt lat="44.15636" lon="6.67215">
        <ele>1974.1999511719</ele>
        <time>2022-08-19T18:25:19Z</time>
      </trkpt>
      <trkpt lat="44.15636" lon="6.67219">
        <ele>1974.1999511719</ele>
        <time>2022-08-19T18:25:28Z</time>
      </trkpt>
      <trkpt lat="44.15636" lon="6.67219">
        <ele>1974.1999511719</ele>
        <time>2022-08-19T18:25:29Z</time>
      </trkpt>
      <trkpt lat="44.15634" lon="6.67218">
        <ele>1974.1999511719</ele>
        <time>2022-08-19T18:25:34Z</time>
      </trkpt>
      <trkpt lat="44.15634" lon="6.67218">
        <ele>1974.1999511719</ele>
        <time>2022-08-19T18:25:36Z</time>
      </trkpt>
      <trkpt lat="44.15634" lon="6.67218">
        <ele>1974.1999511719</ele>
        <time>2022-08-19T18:25:39Z</time>
      </trkpt>
      <trkpt lat="44.15633" lon="6.67219">
        <ele>1974.1999511719</ele>
        <time>2022-08-19T18:25:45Z</time>
      </trkpt>
      <trkpt lat="44.15633" lon="6.67218">
        <ele>1974.1999511719</ele>
        <time>2022-08-19T18:25:50Z</time>
      </trkpt>
      <trkpt lat="44.15633" lon="6.67218">
        <ele>1974.1999511719</ele>
        <time>2022-08-19T18:25:51Z</time>
      </trkpt>
      <trkpt lat="44.15632" lon="6.67218">
        <ele>1974.1999511719</ele>
        <time>2022-08-19T18:26:04Z</time>
      </trkpt>
      <trkpt lat="44.15632" lon="6.67216">
        <ele>1974.1999511719</ele>
        <time>2022-08-19T18:26:16Z</time>
      </trkpt>
      <trkpt lat="44.15633" lon="6.67216">
        <ele>1974.1999511719</ele>
        <time>2022-08-19T18:26:20Z</time>
      </trkpt>
      <trkpt lat="44.15633" lon="6.67215">
        <ele>1974.1999511719</ele>
        <time>2022-08-19T18:26:29Z</time>
      </trkpt>
      <trkpt lat="44.15633" lon="6.67215">
        <ele>1974.1999511719</ele>
        <time>2022-08-19T18:26:31Z</time>
      </trkpt>
      <trkpt lat="44.15634" lon="6.67214">
        <ele>1974.1999511719</ele>
        <time>2022-08-19T18:26:36Z</time>
      </trkpt>
      <trkpt lat="44.15638" lon="6.67212">
        <ele>1974.1999511719</ele>
        <time>2022-08-19T18:26:41Z</time>
      </trkpt>
      <trkpt lat="44.15638" lon="6.67212">
        <ele>1974.1999511719</ele>
        <time>2022-08-19T18:26:43Z</time>
      </trkpt>
      <trkpt lat="44.15635" lon="6.6721">
        <ele>1974.1999511719</ele>
        <time>2022-08-19T18:26:48Z</time>
      </trkpt>
      <trkpt lat="44.15635" lon="6.6721">
        <ele>1974.1999511719</ele>
        <time>2022-08-19T18:26:50Z</time>
      </trkpt>
      <trkpt lat="44.15636" lon="6.67209">
        <ele>1974.1999511719</ele>
        <time>2022-08-19T18:26:59Z</time>
      </trkpt>
      <trkpt lat="44.15635" lon="6.67211">
        <ele>1974.1999511719</ele>
        <time>2022-08-19T18:27:02Z</time>
      </trkpt>
      <trkpt lat="44.15635" lon="6.67212">
        <ele>1974.1999511719</ele>
        <time>2022-08-19T18:27:07Z</time>
      </trkpt>
      <trkpt lat="44.15635" lon="6.67212">
        <ele>1974.1999511719</ele>
        <time>2022-08-19T18:27:10Z</time>
      </trkpt>
      <trkpt lat="44.15636" lon="6.67213">
        <ele>1974.1999511719</ele>
        <time>2022-08-19T18:27:13Z</time>
      </trkpt>
      <trkpt lat="44.15637" lon="6.67214">
        <ele>1974.1999511719</ele>
        <time>2022-08-19T18:27:21Z</time>
      </trkpt>
      <trkpt lat="44.15637" lon="6.67214">
        <ele>1974.1999511719</ele>
        <time>2022-08-19T18:27:26Z</time>
      </trkpt>
      <trkpt lat="44.15637" lon="6.67213">
        <ele>1974.1999511719</ele>
        <time>2022-08-19T18:27:32Z</time>
      </trkpt>
      <trkpt lat="44.15634" lon="6.67215">
        <ele>1974.1999511719</ele>
        <time>2022-08-19T18:27:41Z</time>
      </trkpt>
      <trkpt lat="44.1563" lon="6.67219">
        <ele>1974.1999511719</ele>
        <time>2022-08-19T18:27:49Z</time>
      </trkpt>
      <trkpt lat="44.1563" lon="6.6722">
        <ele>1974.1999511719</ele>
        <time>2022-08-19T18:27:52Z</time>
      </trkpt>
      <trkpt lat="44.1563" lon="6.67222">
        <ele>1974.1999511719</ele>
        <time>2022-08-19T18:27:56Z</time>
      </trkpt>
      <trkpt lat="44.1563" lon="6.67223">
        <ele>1974.1999511719</ele>
        <time>2022-08-19T18:27:58Z</time>
      </trkpt>
      <trkpt lat="44.1563" lon="6.67224">
        <ele>1974.1999511719</ele>
        <time>2022-08-19T18:27:59Z</time>
      </trkpt>
      <trkpt lat="44.15624" lon="6.67231">
        <ele>1974.1999511719</ele>
        <time>2022-08-19T18:28:14Z</time>
      </trkpt>
      <trkpt lat="44.15622" lon="6.67235">
        <ele>1974.1999511719</ele>
        <time>2022-08-19T18:28:16Z</time>
      </trkpt>
      <trkpt lat="44.15619" lon="6.67241">
        <ele>1974.1999511719</ele>
        <time>2022-08-19T18:28:20Z</time>
      </trkpt>
      <trkpt lat="44.15617" lon="6.67244">
        <ele>1974.1999511719</ele>
        <time>2022-08-19T18:28:22Z</time>
      </trkpt>
      <trkpt lat="44.15617" lon="6.67244">
        <ele>1974.4000244141</ele>
        <time>2022-08-19T18:28:25Z</time>
      </trkpt>
      <trkpt lat="44.15617" lon="6.67244">
        <ele>1974.4000244141</ele>
        <time>2022-08-19T18:28:26Z</time>
      </trkpt>
      <trkpt lat="44.15616" lon="6.67245">
        <ele>1973.8000488281</ele>
        <time>2022-08-19T18:28:30Z</time>
      </trkpt>
      <trkpt lat="44.15615" lon="6.67246">
        <ele>1973.8000488281</ele>
        <time>2022-08-19T18:28:31Z</time>
      </trkpt>
      <trkpt lat="44.15611" lon="6.6725">
        <ele>1972.8000488281</ele>
        <time>2022-08-19T18:28:38Z</time>
      </trkpt>
      <trkpt lat="44.15606" lon="6.67254">
        <ele>1972.1999511719</ele>
        <time>2022-08-19T18:28:43Z</time>
      </trkpt>
      <trkpt lat="44.15605" lon="6.67255">
        <ele>1971.8000488281</ele>
        <time>2022-08-19T18:28:46Z</time>
      </trkpt>
      <trkpt lat="44.15602" lon="6.67258">
        <ele>1971</ele>
        <time>2022-08-19T18:28:52Z</time>
      </trkpt>
      <trkpt lat="44.15601" lon="6.67259">
        <ele>1970.5999755859</ele>
        <time>2022-08-19T18:28:55Z</time>
      </trkpt>
      <trkpt lat="44.15596" lon="6.67262">
        <ele>1969.8000488281</ele>
        <time>2022-08-19T18:29:00Z</time>
      </trkpt>
      <trkpt lat="44.15596" lon="6.67263">
        <ele>1969.5999755859</ele>
        <time>2022-08-19T18:29:01Z</time>
      </trkpt>
      <trkpt lat="44.15595" lon="6.67264">
        <ele>1969.4000244141</ele>
        <time>2022-08-19T18:29:02Z</time>
      </trkpt>
      <trkpt lat="44.15587" lon="6.67268">
        <ele>1968.5999755859</ele>
        <time>2022-08-19T18:29:09Z</time>
      </trkpt>
      <trkpt lat="44.15584" lon="6.67271">
        <ele>1967.8000488281</ele>
        <time>2022-08-19T18:29:13Z</time>
      </trkpt>
      <trkpt lat="44.15583" lon="6.67272">
        <ele>1967.5999755859</ele>
        <time>2022-08-19T18:29:15Z</time>
      </trkpt>
      <trkpt lat="44.15579" lon="6.67277">
        <ele>1966.4000244141</ele>
        <time>2022-08-19T18:29:24Z</time>
      </trkpt>
      <trkpt lat="44.15578" lon="6.67278">
        <ele>1966.1999511719</ele>
        <time>2022-08-19T18:29:25Z</time>
      </trkpt>
      <trkpt lat="44.15576" lon="6.67282">
        <ele>1965.4000244141</ele>
        <time>2022-08-19T18:29:32Z</time>
      </trkpt>
      <trkpt lat="44.15567" lon="6.67287">
        <ele>1964.4000244141</ele>
        <time>2022-08-19T18:29:38Z</time>
      </trkpt>
      <trkpt lat="44.15565" lon="6.67288">
        <ele>1964</ele>
        <time>2022-08-19T18:29:40Z</time>
      </trkpt>
      <trkpt lat="44.15563" lon="6.67288">
        <ele>1963.8000488281</ele>
        <time>2022-08-19T18:29:41Z</time>
      </trkpt>
      <trkpt lat="44.1556" lon="6.6729">
        <ele>1963.4000244141</ele>
        <time>2022-08-19T18:29:43Z</time>
      </trkpt>
      <trkpt lat="44.15559" lon="6.67291">
        <ele>1963.1999511719</ele>
        <time>2022-08-19T18:29:44Z</time>
      </trkpt>
      <trkpt lat="44.15554" lon="6.67292">
        <ele>1962.4000244141</ele>
        <time>2022-08-19T18:29:47Z</time>
      </trkpt>
      <trkpt lat="44.15553" lon="6.67293">
        <ele>1962</ele>
        <time>2022-08-19T18:29:48Z</time>
      </trkpt>
      <trkpt lat="44.15548" lon="6.67298">
        <ele>1961</ele>
        <time>2022-08-19T18:29:52Z</time>
      </trkpt>
      <trkpt lat="44.15546" lon="6.67302">
        <ele>1960.5999755859</ele>
        <time>2022-08-19T18:29:54Z</time>
      </trkpt>
      <trkpt lat="44.15545" lon="6.67303">
        <ele>1960.4000244141</ele>
        <time>2022-08-19T18:29:55Z</time>
      </trkpt>
      <trkpt lat="44.15544" lon="6.67304">
        <ele>1960</ele>
        <time>2022-08-19T18:29:56Z</time>
      </trkpt>
      <trkpt lat="44.1554" lon="6.67309">
        <ele>1959.4000244141</ele>
        <time>2022-08-19T18:29:59Z</time>
      </trkpt>
      <trkpt lat="44.15538" lon="6.67312">
        <ele>1959</ele>
        <time>2022-08-19T18:30:01Z</time>
      </trkpt>
      <trkpt lat="44.15532" lon="6.67318">
        <ele>1957.8000488281</ele>
        <time>2022-08-19T18:30:05Z</time>
      </trkpt>
      <trkpt lat="44.15528" lon="6.67324">
        <ele>1957</ele>
        <time>2022-08-19T18:30:08Z</time>
      </trkpt>
      <trkpt lat="44.15526" lon="6.67326">
        <ele>1956.8000488281</ele>
        <time>2022-08-19T18:30:09Z</time>
      </trkpt>
      <trkpt lat="44.1552" lon="6.67337">
        <ele>1955.5999755859</ele>
        <time>2022-08-19T18:30:13Z</time>
      </trkpt>
      <trkpt lat="44.15517" lon="6.67345">
        <ele>1954.4000244141</ele>
        <time>2022-08-19T18:30:16Z</time>
      </trkpt>
      <trkpt lat="44.15516" lon="6.67354">
        <ele>1953.4000244141</ele>
        <time>2022-08-19T18:30:19Z</time>
      </trkpt>
      <trkpt lat="44.15514" lon="6.67362">
        <ele>1952.5999755859</ele>
        <time>2022-08-19T18:30:22Z</time>
      </trkpt>
      <trkpt lat="44.15512" lon="6.67364">
        <ele>1952.1999511719</ele>
        <time>2022-08-19T18:30:23Z</time>
      </trkpt>
      <trkpt lat="44.15509" lon="6.67368">
        <ele>1951.4000244141</ele>
        <time>2022-08-19T18:30:25Z</time>
      </trkpt>
      <trkpt lat="44.15508" lon="6.6737">
        <ele>1951</ele>
        <time>2022-08-19T18:30:26Z</time>
      </trkpt>
      <trkpt lat="44.15505" lon="6.67375">
        <ele>1950.5999755859</ele>
        <time>2022-08-19T18:30:28Z</time>
      </trkpt>
      <trkpt lat="44.15503" lon="6.67381">
        <ele>1950</ele>
        <time>2022-08-19T18:30:30Z</time>
      </trkpt>
      <trkpt lat="44.15501" lon="6.67382">
        <ele>1949.5999755859</ele>
        <time>2022-08-19T18:30:31Z</time>
      </trkpt>
      <trkpt lat="44.15498" lon="6.67384">
        <ele>1949</ele>
        <time>2022-08-19T18:30:33Z</time>
      </trkpt>
      <trkpt lat="44.15497" lon="6.67384">
        <ele>1948.5999755859</ele>
        <time>2022-08-19T18:30:34Z</time>
      </trkpt>
      <trkpt lat="44.15495" lon="6.67385">
        <ele>1948.4000244141</ele>
        <time>2022-08-19T18:30:35Z</time>
      </trkpt>
      <trkpt lat="44.15493" lon="6.67388">
        <ele>1948</ele>
        <time>2022-08-19T18:30:37Z</time>
      </trkpt>
      <trkpt lat="44.15491" lon="6.67393">
        <ele>1947.4000244141</ele>
        <time>2022-08-19T18:30:39Z</time>
      </trkpt>
      <trkpt lat="44.15485" lon="6.67402">
        <ele>1946.1999511719</ele>
        <time>2022-08-19T18:30:43Z</time>
      </trkpt>
      <trkpt lat="44.15483" lon="6.67407">
        <ele>1945.5999755859</ele>
        <time>2022-08-19T18:30:45Z</time>
      </trkpt>
      <trkpt lat="44.15482" lon="6.67411">
        <ele>1945.1999511719</ele>
        <time>2022-08-19T18:30:47Z</time>
      </trkpt>
      <trkpt lat="44.15477" lon="6.67416">
        <ele>1944.1999511719</ele>
        <time>2022-08-19T18:30:51Z</time>
      </trkpt>
      <trkpt lat="44.15477" lon="6.67419">
        <ele>1943.8000488281</ele>
        <time>2022-08-19T18:30:52Z</time>
      </trkpt>
      <trkpt lat="44.15474" lon="6.67423">
        <ele>1943</ele>
        <time>2022-08-19T18:30:55Z</time>
      </trkpt>
      <trkpt lat="44.15473" lon="6.67424">
        <ele>1942.5999755859</ele>
        <time>2022-08-19T18:30:57Z</time>
      </trkpt>
      <trkpt lat="44.15473" lon="6.67425">
        <ele>1942.4000244141</ele>
        <time>2022-08-19T18:30:58Z</time>
      </trkpt>
      <trkpt lat="44.15473" lon="6.67427">
        <ele>1941.8000488281</ele>
        <time>2022-08-19T18:31:01Z</time>
      </trkpt>
      <trkpt lat="44.15473" lon="6.67427">
        <ele>1941.5999755859</ele>
        <time>2022-08-19T18:31:02Z</time>
      </trkpt>
      <trkpt lat="44.15474" lon="6.67431">
        <ele>1941</ele>
        <time>2022-08-19T18:31:11Z</time>
      </trkpt>
      <trkpt lat="44.15472" lon="6.67435">
        <ele>1940.8000488281</ele>
        <time>2022-08-19T18:31:15Z</time>
      </trkpt>
      <trkpt lat="44.15469" lon="6.6744">
        <ele>1940.5999755859</ele>
        <time>2022-08-19T18:31:18Z</time>
      </trkpt>
      <trkpt lat="44.15466" lon="6.67442">
        <ele>1940.1999511719</ele>
        <time>2022-08-19T18:31:20Z</time>
      </trkpt>
      <trkpt lat="44.15464" lon="6.67443">
        <ele>1940</ele>
        <time>2022-08-19T18:31:21Z</time>
      </trkpt>
      <trkpt lat="44.15461" lon="6.67446">
        <ele>1939.5999755859</ele>
        <time>2022-08-19T18:31:23Z</time>
      </trkpt>
      <trkpt lat="44.15459" lon="6.67448">
        <ele>1939</ele>
        <time>2022-08-19T18:31:25Z</time>
      </trkpt>
      <trkpt lat="44.15456" lon="6.67451">
        <ele>1938.5999755859</ele>
        <time>2022-08-19T18:31:27Z</time>
      </trkpt>
      <trkpt lat="44.15455" lon="6.67452">
        <ele>1938.5999755859</ele>
        <time>2022-08-19T18:31:28Z</time>
      </trkpt>
      <trkpt lat="44.15445" lon="6.67463">
        <ele>1937.4000244141</ele>
        <time>2022-08-19T18:31:35Z</time>
      </trkpt>
      <trkpt lat="44.15441" lon="6.67465">
        <ele>1936.4000244141</ele>
        <time>2022-08-19T18:31:39Z</time>
      </trkpt>
      <trkpt lat="44.15439" lon="6.67465">
        <ele>1936.1999511719</ele>
        <time>2022-08-19T18:31:40Z</time>
      </trkpt>
      <trkpt lat="44.15437" lon="6.67465">
        <ele>1936</ele>
        <time>2022-08-19T18:31:41Z</time>
      </trkpt>
      <trkpt lat="44.15434" lon="6.67467">
        <ele>1935.4000244141</ele>
        <time>2022-08-19T18:31:43Z</time>
      </trkpt>
      <trkpt lat="44.15432" lon="6.67468">
        <ele>1935</ele>
        <time>2022-08-19T18:31:44Z</time>
      </trkpt>
      <trkpt lat="44.15428" lon="6.67471">
        <ele>1933.5999755859</ele>
        <time>2022-08-19T18:31:47Z</time>
      </trkpt>
      <trkpt lat="44.15423" lon="6.67475">
        <ele>1932</ele>
        <time>2022-08-19T18:31:50Z</time>
      </trkpt>
      <trkpt lat="44.1542" lon="6.67479">
        <ele>1931.1999511719</ele>
        <time>2022-08-19T18:31:52Z</time>
      </trkpt>
      <trkpt lat="44.15418" lon="6.67481">
        <ele>1930.8000488281</ele>
        <time>2022-08-19T18:31:53Z</time>
      </trkpt>
      <trkpt lat="44.15416" lon="6.67485">
        <ele>1930</ele>
        <time>2022-08-19T18:31:55Z</time>
      </trkpt>
      <trkpt lat="44.15412" lon="6.6749">
        <ele>1929.4000244141</ele>
        <time>2022-08-19T18:31:57Z</time>
      </trkpt>
      <trkpt lat="44.15405" lon="6.67499">
        <ele>1928.4000244141</ele>
        <time>2022-08-19T18:32:01Z</time>
      </trkpt>
      <trkpt lat="44.15402" lon="6.67503">
        <ele>1927.8000488281</ele>
        <time>2022-08-19T18:32:03Z</time>
      </trkpt>
      <trkpt lat="44.15399" lon="6.67506">
        <ele>1927</ele>
        <time>2022-08-19T18:32:05Z</time>
      </trkpt>
      <trkpt lat="44.15393" lon="6.67511">
        <ele>1925.8000488281</ele>
        <time>2022-08-19T18:32:09Z</time>
      </trkpt>
      <trkpt lat="44.15392" lon="6.67512">
        <ele>1925.5999755859</ele>
        <time>2022-08-19T18:32:10Z</time>
      </trkpt>
      <trkpt lat="44.15389" lon="6.67517">
        <ele>1924.5999755859</ele>
        <time>2022-08-19T18:32:13Z</time>
      </trkpt>
      <trkpt lat="44.15388" lon="6.67518">
        <ele>1924.4000244141</ele>
        <time>2022-08-19T18:32:14Z</time>
      </trkpt>
      <trkpt lat="44.15387" lon="6.6752">
        <ele>1923.8000488281</ele>
        <time>2022-08-19T18:32:16Z</time>
      </trkpt>
      <trkpt lat="44.15386" lon="6.67521">
        <ele>1923.5999755859</ele>
        <time>2022-08-19T18:32:17Z</time>
      </trkpt>
      <trkpt lat="44.15385" lon="6.67522">
        <ele>1923</ele>
        <time>2022-08-19T18:32:19Z</time>
      </trkpt>
      <trkpt lat="44.15384" lon="6.67523">
        <ele>1922.8000488281</ele>
        <time>2022-08-19T18:32:20Z</time>
      </trkpt>
      <trkpt lat="44.15384" lon="6.67523">
        <ele>1922.4000244141</ele>
        <time>2022-08-19T18:32:22Z</time>
      </trkpt>
      <trkpt lat="44.15381" lon="6.67525">
        <ele>1921.1999511719</ele>
        <time>2022-08-19T18:32:26Z</time>
      </trkpt>
      <trkpt lat="44.15376" lon="6.67532">
        <ele>1920.1999511719</ele>
        <time>2022-08-19T18:32:31Z</time>
      </trkpt>
      <trkpt lat="44.15372" lon="6.67538">
        <ele>1919</ele>
        <time>2022-08-19T18:32:34Z</time>
      </trkpt>
      <trkpt lat="44.1537" lon="6.67543">
        <ele>1918</ele>
        <time>2022-08-19T18:32:36Z</time>
      </trkpt>
      <trkpt lat="44.15368" lon="6.67544">
        <ele>1917.4000244141</ele>
        <time>2022-08-19T18:32:37Z</time>
      </trkpt>
      <trkpt lat="44.15366" lon="6.67546">
        <ele>1916.4000244141</ele>
        <time>2022-08-19T18:32:39Z</time>
      </trkpt>
      <trkpt lat="44.15362" lon="6.67549">
        <ele>1915.1999511719</ele>
        <time>2022-08-19T18:32:42Z</time>
      </trkpt>
      <trkpt lat="44.15361" lon="6.67551">
        <ele>1915</ele>
        <time>2022-08-19T18:32:43Z</time>
      </trkpt>
      <trkpt lat="44.15359" lon="6.67556">
        <ele>1914</ele>
        <time>2022-08-19T18:32:45Z</time>
      </trkpt>
      <trkpt lat="44.15356" lon="6.67559">
        <ele>1913.1999511719</ele>
        <time>2022-08-19T18:32:47Z</time>
      </trkpt>
      <trkpt lat="44.15354" lon="6.67562">
        <ele>1912.5999755859</ele>
        <time>2022-08-19T18:32:49Z</time>
      </trkpt>
      <trkpt lat="44.15352" lon="6.67566">
        <ele>1911.4000244141</ele>
        <time>2022-08-19T18:32:52Z</time>
      </trkpt>
      <trkpt lat="44.15347" lon="6.67572">
        <ele>1910.1999511719</ele>
        <time>2022-08-19T18:32:55Z</time>
      </trkpt>
      <trkpt lat="44.15344" lon="6.67579">
        <ele>1909</ele>
        <time>2022-08-19T18:32:58Z</time>
      </trkpt>
      <trkpt lat="44.15338" lon="6.67584">
        <ele>1907.5999755859</ele>
        <time>2022-08-19T18:33:01Z</time>
      </trkpt>
      <trkpt lat="44.15336" lon="6.67584">
        <ele>1907.1999511719</ele>
        <time>2022-08-19T18:33:02Z</time>
      </trkpt>
      <trkpt lat="44.15332" lon="6.67587">
        <ele>1906.4000244141</ele>
        <time>2022-08-19T18:33:04Z</time>
      </trkpt>
      <trkpt lat="44.1533" lon="6.67589">
        <ele>1905.8000488281</ele>
        <time>2022-08-19T18:33:05Z</time>
      </trkpt>
      <trkpt lat="44.15329" lon="6.67593">
        <ele>1905.1999511719</ele>
        <time>2022-08-19T18:33:07Z</time>
      </trkpt>
      <trkpt lat="44.15327" lon="6.67594">
        <ele>1905</ele>
        <time>2022-08-19T18:33:08Z</time>
      </trkpt>
      <trkpt lat="44.15324" lon="6.67597">
        <ele>1904.1999511719</ele>
        <time>2022-08-19T18:33:11Z</time>
      </trkpt>
      <trkpt lat="44.15323" lon="6.67597">
        <ele>1904</ele>
        <time>2022-08-19T18:33:12Z</time>
      </trkpt>
      <trkpt lat="44.15322" lon="6.67598">
        <ele>1903.8000488281</ele>
        <time>2022-08-19T18:33:13Z</time>
      </trkpt>
      <trkpt lat="44.15321" lon="6.676">
        <ele>1903.4000244141</ele>
        <time>2022-08-19T18:33:14Z</time>
      </trkpt>
      <trkpt lat="44.1532" lon="6.67602">
        <ele>1903</ele>
        <time>2022-08-19T18:33:15Z</time>
      </trkpt>
      <trkpt lat="44.15316" lon="6.67608">
        <ele>1901.5999755859</ele>
        <time>2022-08-19T18:33:18Z</time>
      </trkpt>
      <trkpt lat="44.15315" lon="6.67611">
        <ele>1900.8000488281</ele>
        <time>2022-08-19T18:33:20Z</time>
      </trkpt>
      <trkpt lat="44.15314" lon="6.67614">
        <ele>1900.4000244141</ele>
        <time>2022-08-19T18:33:21Z</time>
      </trkpt>
      <trkpt lat="44.15314" lon="6.67615">
        <ele>1900.1999511719</ele>
        <time>2022-08-19T18:33:22Z</time>
      </trkpt>
      <trkpt lat="44.15315" lon="6.67617">
        <ele>1899.5999755859</ele>
        <time>2022-08-19T18:33:24Z</time>
      </trkpt>
      <trkpt lat="44.15315" lon="6.67617">
        <ele>1899.4000244141</ele>
        <time>2022-08-19T18:33:25Z</time>
      </trkpt>
      <trkpt lat="44.15316" lon="6.67617">
        <ele>1899</ele>
        <time>2022-08-19T18:33:26Z</time>
      </trkpt>
      <trkpt lat="44.15316" lon="6.67619">
        <ele>1898.8000488281</ele>
        <time>2022-08-19T18:33:29Z</time>
      </trkpt>
      <trkpt lat="44.15316" lon="6.67628">
        <ele>1898.4000244141</ele>
        <time>2022-08-19T18:33:38Z</time>
      </trkpt>
      <trkpt lat="44.15317" lon="6.67629">
        <ele>1898.1999511719</ele>
        <time>2022-08-19T18:33:39Z</time>
      </trkpt>
      <trkpt lat="44.15315" lon="6.67634">
        <ele>1897.1999511719</ele>
        <time>2022-08-19T18:33:46Z</time>
      </trkpt>
      <trkpt lat="44.15315" lon="6.67635">
        <ele>1896.8000488281</ele>
        <time>2022-08-19T18:33:47Z</time>
      </trkpt>
      <trkpt lat="44.15312" lon="6.6764">
        <ele>1896</ele>
        <time>2022-08-19T18:33:52Z</time>
      </trkpt>
      <trkpt lat="44.15311" lon="6.67644">
        <ele>1895.5999755859</ele>
        <time>2022-08-19T18:33:57Z</time>
      </trkpt>
      <trkpt lat="44.15308" lon="6.67651">
        <ele>1895.4000244141</ele>
        <time>2022-08-19T18:34:00Z</time>
      </trkpt>
      <trkpt lat="44.15306" lon="6.67656">
        <ele>1894.8000488281</ele>
        <time>2022-08-19T18:34:02Z</time>
      </trkpt>
      <trkpt lat="44.15305" lon="6.67659">
        <ele>1894.5999755859</ele>
        <time>2022-08-19T18:34:03Z</time>
      </trkpt>
      <trkpt lat="44.15304" lon="6.67663">
        <ele>1893.8000488281</ele>
        <time>2022-08-19T18:34:05Z</time>
      </trkpt>
      <trkpt lat="44.15304" lon="6.67665">
        <ele>1893.4000244141</ele>
        <time>2022-08-19T18:34:06Z</time>
      </trkpt>
      <trkpt lat="44.15303" lon="6.67667">
        <ele>1892.5999755859</ele>
        <time>2022-08-19T18:34:09Z</time>
      </trkpt>
      <trkpt lat="44.15303" lon="6.67668">
        <ele>1892.1999511719</ele>
        <time>2022-08-19T18:34:10Z</time>
      </trkpt>
      <trkpt lat="44.15303" lon="6.67668">
        <ele>1892</ele>
        <time>2022-08-19T18:34:11Z</time>
      </trkpt>
      <trkpt lat="44.15302" lon="6.67669">
        <ele>1891.8000488281</ele>
        <time>2022-08-19T18:34:14Z</time>
      </trkpt>
      <trkpt lat="44.15301" lon="6.67664">
        <ele>1891.1999511719</ele>
        <time>2022-08-19T18:34:19Z</time>
      </trkpt>
      <trkpt lat="44.153" lon="6.67663">
        <ele>1890.4000244141</ele>
        <time>2022-08-19T18:34:25Z</time>
      </trkpt>
      <trkpt lat="44.153" lon="6.67663">
        <ele>1890.1999511719</ele>
        <time>2022-08-19T18:34:30Z</time>
      </trkpt>
      <trkpt lat="44.15298" lon="6.6766">
        <ele>1890</ele>
        <time>2022-08-19T18:34:32Z</time>
      </trkpt>
      <trkpt lat="44.15296" lon="6.67651">
        <ele>1889.5999755859</ele>
        <time>2022-08-19T18:34:35Z</time>
      </trkpt>
      <trkpt lat="44.15293" lon="6.67643">
        <ele>1888.8000488281</ele>
        <time>2022-08-19T18:34:37Z</time>
      </trkpt>
      <trkpt lat="44.15291" lon="6.67635">
        <ele>1887.8000488281</ele>
        <time>2022-08-19T18:34:39Z</time>
      </trkpt>
      <trkpt lat="44.15289" lon="6.67629">
        <ele>1886.4000244141</ele>
        <time>2022-08-19T18:34:41Z</time>
      </trkpt>
      <trkpt lat="44.1529" lon="6.67625">
        <ele>1885.1999511719</ele>
        <time>2022-08-19T18:34:43Z</time>
      </trkpt>
      <trkpt lat="44.15289" lon="6.67621">
        <ele>1884.1999511719</ele>
        <time>2022-08-19T18:34:45Z</time>
      </trkpt>
      <trkpt lat="44.15289" lon="6.67616">
        <ele>1883</ele>
        <time>2022-08-19T18:34:47Z</time>
      </trkpt>
      <trkpt lat="44.15288" lon="6.67614">
        <ele>1882.5999755859</ele>
        <time>2022-08-19T18:34:48Z</time>
      </trkpt>
      <trkpt lat="44.15288" lon="6.67611">
        <ele>1881.8000488281</ele>
        <time>2022-08-19T18:34:50Z</time>
      </trkpt>
      <trkpt lat="44.15288" lon="6.6761">
        <ele>1881.4000244141</ele>
        <time>2022-08-19T18:34:51Z</time>
      </trkpt>
      <trkpt lat="44.15288" lon="6.67609">
        <ele>1881</ele>
        <time>2022-08-19T18:34:52Z</time>
      </trkpt>
      <trkpt lat="44.15287" lon="6.6761">
        <ele>1880.5999755859</ele>
        <time>2022-08-19T18:34:53Z</time>
      </trkpt>
      <trkpt lat="44.15279" lon="6.67613">
        <ele>1879.5999755859</ele>
        <time>2022-08-19T18:34:56Z</time>
      </trkpt>
      <trkpt lat="44.15276" lon="6.67615">
        <ele>1879.1999511719</ele>
        <time>2022-08-19T18:34:57Z</time>
      </trkpt>
      <trkpt lat="44.1527" lon="6.67615">
        <ele>1878.4000244141</ele>
        <time>2022-08-19T18:34:59Z</time>
      </trkpt>
      <trkpt lat="44.15261" lon="6.67614">
        <ele>1877.1999511719</ele>
        <time>2022-08-19T18:35:02Z</time>
      </trkpt>
      <trkpt lat="44.15259" lon="6.67616">
        <ele>1876.8000488281</ele>
        <time>2022-08-19T18:35:03Z</time>
      </trkpt>
      <trkpt lat="44.15252" lon="6.67625">
        <ele>1876.4000244141</ele>
        <time>2022-08-19T18:35:06Z</time>
      </trkpt>
      <trkpt lat="44.15247" lon="6.67632">
        <ele>1876.4000244141</ele>
        <time>2022-08-19T18:35:09Z</time>
      </trkpt>
      <trkpt lat="44.15241" lon="6.67635">
        <ele>1876.1999511719</ele>
        <time>2022-08-19T18:35:11Z</time>
      </trkpt>
      <trkpt lat="44.15238" lon="6.67637">
        <ele>1876</ele>
        <time>2022-08-19T18:35:12Z</time>
      </trkpt>
      <trkpt lat="44.1523" lon="6.67642">
        <ele>1875</ele>
        <time>2022-08-19T18:35:15Z</time>
      </trkpt>
      <trkpt lat="44.15222" lon="6.67646">
        <ele>1873.8000488281</ele>
        <time>2022-08-19T18:35:18Z</time>
      </trkpt>
      <trkpt lat="44.15219" lon="6.67647">
        <ele>1873.4000244141</ele>
        <time>2022-08-19T18:35:19Z</time>
      </trkpt>
      <trkpt lat="44.15215" lon="6.67648">
        <ele>1872.4000244141</ele>
        <time>2022-08-19T18:35:21Z</time>
      </trkpt>
      <trkpt lat="44.15212" lon="6.6765">
        <ele>1871.5999755859</ele>
        <time>2022-08-19T18:35:23Z</time>
      </trkpt>
      <trkpt lat="44.15211" lon="6.67652">
        <ele>1871.1999511719</ele>
        <time>2022-08-19T18:35:24Z</time>
      </trkpt>
      <trkpt lat="44.15209" lon="6.67655">
        <ele>1870.8000488281</ele>
        <time>2022-08-19T18:35:25Z</time>
      </trkpt>
      <trkpt lat="44.15209" lon="6.67656">
        <ele>1870.4000244141</ele>
        <time>2022-08-19T18:35:26Z</time>
      </trkpt>
      <trkpt lat="44.15209" lon="6.67658">
        <ele>1869.8000488281</ele>
        <time>2022-08-19T18:35:27Z</time>
      </trkpt>
      <trkpt lat="44.15209" lon="6.67659">
        <ele>1869.4000244141</ele>
        <time>2022-08-19T18:35:28Z</time>
      </trkpt>
      <trkpt lat="44.15209" lon="6.67662">
        <ele>1869.1999511719</ele>
        <time>2022-08-19T18:35:29Z</time>
      </trkpt>
      <trkpt lat="44.15208" lon="6.67667">
        <ele>1868.5999755859</ele>
        <time>2022-08-19T18:35:31Z</time>
      </trkpt>
      <trkpt lat="44.15207" lon="6.67671">
        <ele>1868.4000244141</ele>
        <time>2022-08-19T18:35:33Z</time>
      </trkpt>
      <trkpt lat="44.15208" lon="6.67671">
        <ele>1868.4000244141</ele>
        <time>2022-08-19T18:35:34Z</time>
      </trkpt>
      <trkpt lat="44.15207" lon="6.67671">
        <ele>1868.4000244141</ele>
        <time>2022-08-19T18:35:35Z</time>
      </trkpt>
      <trkpt lat="44.15208" lon="6.6767">
        <ele>1868.4000244141</ele>
        <time>2022-08-19T18:35:36Z</time>
      </trkpt>
      <trkpt lat="44.15207" lon="6.67673">
        <ele>1868.5999755859</ele>
        <time>2022-08-19T18:35:39Z</time>
      </trkpt>
      <trkpt lat="44.15198" lon="6.67675">
        <ele>1869.1999511719</ele>
        <time>2022-08-19T18:35:47Z</time>
      </trkpt>
      <trkpt lat="44.15197" lon="6.67674">
        <ele>1869.1999511719</ele>
        <time>2022-08-19T18:35:48Z</time>
      </trkpt>
      <trkpt lat="44.15193" lon="6.67674">
        <ele>1869.1999511719</ele>
        <time>2022-08-19T18:35:50Z</time>
      </trkpt>
      <trkpt lat="44.15192" lon="6.67674">
        <ele>1869.1999511719</ele>
        <time>2022-08-19T18:35:51Z</time>
      </trkpt>
      <trkpt lat="44.15188" lon="6.67674">
        <ele>1868.8000488281</ele>
        <time>2022-08-19T18:35:53Z</time>
      </trkpt>
      <trkpt lat="44.15184" lon="6.67675">
        <ele>1868.4000244141</ele>
        <time>2022-08-19T18:35:55Z</time>
      </trkpt>
      <trkpt lat="44.15175" lon="6.67676">
        <ele>1868</ele>
        <time>2022-08-19T18:36:01Z</time>
      </trkpt>
      <trkpt lat="44.15172" lon="6.67676">
        <ele>1867.8000488281</ele>
        <time>2022-08-19T18:36:03Z</time>
      </trkpt>
      <trkpt lat="44.15168" lon="6.67678">
        <ele>1867.5999755859</ele>
        <time>2022-08-19T18:36:05Z</time>
      </trkpt>
      <trkpt lat="44.15164" lon="6.67682">
        <ele>1867.1999511719</ele>
        <time>2022-08-19T18:36:07Z</time>
      </trkpt>
      <trkpt lat="44.15162" lon="6.67682">
        <ele>1867</ele>
        <time>2022-08-19T18:36:08Z</time>
      </trkpt>
      <trkpt lat="44.15157" lon="6.67681">
        <ele>1866.4000244141</ele>
        <time>2022-08-19T18:36:11Z</time>
      </trkpt>
      <trkpt lat="44.15156" lon="6.67681">
        <ele>1866.1999511719</ele>
        <time>2022-08-19T18:36:12Z</time>
      </trkpt>
      <trkpt lat="44.15154" lon="6.67683">
        <ele>1865.8000488281</ele>
        <time>2022-08-19T18:36:14Z</time>
      </trkpt>
      <trkpt lat="44.15151" lon="6.67686">
        <ele>1865.1999511719</ele>
        <time>2022-08-19T18:36:16Z</time>
      </trkpt>
      <trkpt lat="44.15149" lon="6.67686">
        <ele>1865.1999511719</ele>
        <time>2022-08-19T18:36:17Z</time>
      </trkpt>
      <trkpt lat="44.15147" lon="6.67686">
        <ele>1865</ele>
        <time>2022-08-19T18:36:18Z</time>
      </trkpt>
      <trkpt lat="44.15137" lon="6.67688">
        <ele>1864.1999511719</ele>
        <time>2022-08-19T18:36:21Z</time>
      </trkpt>
      <trkpt lat="44.15124" lon="6.67687">
        <ele>1863.1999511719</ele>
        <time>2022-08-19T18:36:24Z</time>
      </trkpt>
      <trkpt lat="44.1512" lon="6.67687">
        <ele>1863</ele>
        <time>2022-08-19T18:36:25Z</time>
      </trkpt>
      <trkpt lat="44.15107" lon="6.67692">
        <ele>1862</ele>
        <time>2022-08-19T18:36:28Z</time>
      </trkpt>
      <trkpt lat="44.15097" lon="6.67693">
        <ele>1861</ele>
        <time>2022-08-19T18:36:30Z</time>
      </trkpt>
      <trkpt lat="44.15093" lon="6.67694">
        <ele>1860.4000244141</ele>
        <time>2022-08-19T18:36:31Z</time>
      </trkpt>
      <trkpt lat="44.15082" lon="6.67696">
        <ele>1859</ele>
        <time>2022-08-19T18:36:34Z</time>
      </trkpt>
      <trkpt lat="44.15071" lon="6.677">
        <ele>1857.8000488281</ele>
        <time>2022-08-19T18:36:37Z</time>
      </trkpt>
      <trkpt lat="44.15067" lon="6.67702">
        <ele>1857.1999511719</ele>
        <time>2022-08-19T18:36:38Z</time>
      </trkpt>
      <trkpt lat="44.15062" lon="6.67702">
        <ele>1856.5999755859</ele>
        <time>2022-08-19T18:36:39Z</time>
      </trkpt>
      <trkpt lat="44.15047" lon="6.67701">
        <ele>1855.4000244141</ele>
        <time>2022-08-19T18:36:42Z</time>
      </trkpt>
      <trkpt lat="44.15032" lon="6.67698">
        <ele>1854</ele>
        <time>2022-08-19T18:36:45Z</time>
      </trkpt>
      <trkpt lat="44.15024" lon="6.67694">
        <ele>1852.8000488281</ele>
        <time>2022-08-19T18:36:47Z</time>
      </trkpt>
      <trkpt lat="44.1502" lon="6.67693">
        <ele>1852.4000244141</ele>
        <time>2022-08-19T18:36:48Z</time>
      </trkpt>
      <trkpt lat="44.15016" lon="6.67691">
        <ele>1851.8000488281</ele>
        <time>2022-08-19T18:36:49Z</time>
      </trkpt>
      <trkpt lat="44.15012" lon="6.67691">
        <ele>1851.4000244141</ele>
        <time>2022-08-19T18:36:50Z</time>
      </trkpt>
      <trkpt lat="44.15008" lon="6.67691">
        <ele>1851</ele>
        <time>2022-08-19T18:36:51Z</time>
      </trkpt>
      <trkpt lat="44.15005" lon="6.67691">
        <ele>1850.8000488281</ele>
        <time>2022-08-19T18:36:52Z</time>
      </trkpt>
      <trkpt lat="44.14982" lon="6.67691">
        <ele>1850.4000244141</ele>
        <time>2022-08-19T18:36:57Z</time>
      </trkpt>
      <trkpt lat="44.14973" lon="6.67696">
        <ele>1850</ele>
        <time>2022-08-19T18:36:59Z</time>
      </trkpt>
      <trkpt lat="44.14962" lon="6.67702">
        <ele>1849.8000488281</ele>
        <time>2022-08-19T18:37:02Z</time>
      </trkpt>
      <trkpt lat="44.14953" lon="6.67708">
        <ele>1849.8000488281</ele>
        <time>2022-08-19T18:37:05Z</time>
      </trkpt>
      <trkpt lat="44.14934" lon="6.67719">
        <ele>1850.5999755859</ele>
        <time>2022-08-19T18:37:10Z</time>
      </trkpt>
      <trkpt lat="44.14921" lon="6.67729">
        <ele>1851</ele>
        <time>2022-08-19T18:37:15Z</time>
      </trkpt>
      <trkpt lat="44.14919" lon="6.6773">
        <ele>1851.1999511719</ele>
        <time>2022-08-19T18:37:16Z</time>
      </trkpt>
      <trkpt lat="44.14918" lon="6.67732">
        <ele>1851.4000244141</ele>
        <time>2022-08-19T18:37:17Z</time>
      </trkpt>
      <trkpt lat="44.14913" lon="6.67737">
        <ele>1852.1999511719</ele>
        <time>2022-08-19T18:37:20Z</time>
      </trkpt>
      <trkpt lat="44.14911" lon="6.67741">
        <ele>1852.5999755859</ele>
        <time>2022-08-19T18:37:22Z</time>
      </trkpt>
      <trkpt lat="44.14909" lon="6.67746">
        <ele>1853.1999511719</ele>
        <time>2022-08-19T18:37:24Z</time>
      </trkpt>
      <trkpt lat="44.14907" lon="6.67749">
        <ele>1853.5999755859</ele>
        <time>2022-08-19T18:37:26Z</time>
      </trkpt>
      <trkpt lat="44.14905" lon="6.67753">
        <ele>1854.1999511719</ele>
        <time>2022-08-19T18:37:28Z</time>
      </trkpt>
      <trkpt lat="44.14903" lon="6.67759">
        <ele>1854.8000488281</ele>
        <time>2022-08-19T18:37:31Z</time>
      </trkpt>
      <trkpt lat="44.14901" lon="6.6776">
        <ele>1855</ele>
        <time>2022-08-19T18:37:32Z</time>
      </trkpt>
      <trkpt lat="44.149" lon="6.67763">
        <ele>1855.4000244141</ele>
        <time>2022-08-19T18:37:34Z</time>
      </trkpt>
      <trkpt lat="44.14896" lon="6.67769">
        <ele>1856</ele>
        <time>2022-08-19T18:37:38Z</time>
      </trkpt>
      <trkpt lat="44.14894" lon="6.67772">
        <ele>1856.4000244141</ele>
        <time>2022-08-19T18:37:40Z</time>
      </trkpt>
      <trkpt lat="44.14892" lon="6.67773">
        <ele>1856.4000244141</ele>
        <time>2022-08-19T18:37:41Z</time>
      </trkpt>
      <trkpt lat="44.14891" lon="6.67775">
        <ele>1856.5999755859</ele>
        <time>2022-08-19T18:37:42Z</time>
      </trkpt>
      <trkpt lat="44.14888" lon="6.67781">
        <ele>1857</ele>
        <time>2022-08-19T18:37:45Z</time>
      </trkpt>
      <trkpt lat="44.14887" lon="6.67782">
        <ele>1857.4000244141</ele>
        <time>2022-08-19T18:37:46Z</time>
      </trkpt>
      <trkpt lat="44.14883" lon="6.67787">
        <ele>1858.1999511719</ele>
        <time>2022-08-19T18:37:50Z</time>
      </trkpt>
      <trkpt lat="44.14882" lon="6.6779">
        <ele>1858.8000488281</ele>
        <time>2022-08-19T18:37:52Z</time>
      </trkpt>
      <trkpt lat="44.14879" lon="6.67795">
        <ele>1859.1999511719</ele>
        <time>2022-08-19T18:37:55Z</time>
      </trkpt>
      <trkpt lat="44.14877" lon="6.67797">
        <ele>1859.4000244141</ele>
        <time>2022-08-19T18:37:56Z</time>
      </trkpt>
      <trkpt lat="44.14874" lon="6.678">
        <ele>1860</ele>
        <time>2022-08-19T18:37:59Z</time>
      </trkpt>
      <trkpt lat="44.1487" lon="6.67805">
        <ele>1860.4000244141</ele>
        <time>2022-08-19T18:38:02Z</time>
      </trkpt>
      <trkpt lat="44.14867" lon="6.67807">
        <ele>1861</ele>
        <time>2022-08-19T18:38:05Z</time>
      </trkpt>
      <trkpt lat="44.14866" lon="6.67809">
        <ele>1861.5999755859</ele>
        <time>2022-08-19T18:38:07Z</time>
      </trkpt>
      <trkpt lat="44.14865" lon="6.67815">
        <ele>1862.1999511719</ele>
        <time>2022-08-19T18:38:10Z</time>
      </trkpt>
      <trkpt lat="44.14863" lon="6.67819">
        <ele>1862.8000488281</ele>
        <time>2022-08-19T18:38:13Z</time>
      </trkpt>
      <trkpt lat="44.14863" lon="6.6782">
        <ele>1862.8000488281</ele>
        <time>2022-08-19T18:38:14Z</time>
      </trkpt>
      <trkpt lat="44.14861" lon="6.67823">
        <ele>1863.4000244141</ele>
        <time>2022-08-19T18:38:17Z</time>
      </trkpt>
      <trkpt lat="44.14859" lon="6.67824">
        <ele>1863.8000488281</ele>
        <time>2022-08-19T18:38:19Z</time>
      </trkpt>
      <trkpt lat="44.14854" lon="6.67831">
        <ele>1864.8000488281</ele>
        <time>2022-08-19T18:38:25Z</time>
      </trkpt>
      <trkpt lat="44.14851" lon="6.67835">
        <ele>1865.8000488281</ele>
        <time>2022-08-19T18:38:31Z</time>
      </trkpt>
      <trkpt lat="44.14851" lon="6.67835">
        <ele>1866</ele>
        <time>2022-08-19T18:38:32Z</time>
      </trkpt>
      <trkpt lat="44.14851" lon="6.67835">
        <ele>1865.8000488281</ele>
        <time>2022-08-19T18:38:38Z</time>
      </trkpt>
      <trkpt lat="44.1485" lon="6.67835">
        <ele>1866.1999511719</ele>
        <time>2022-08-19T18:38:50Z</time>
      </trkpt>
      <trkpt lat="44.14849" lon="6.67837">
        <ele>1866.5999755859</ele>
        <time>2022-08-19T18:38:55Z</time>
      </trkpt>
      <trkpt lat="44.14848" lon="6.6784">
        <ele>1867.1999511719</ele>
        <time>2022-08-19T18:38:58Z</time>
      </trkpt>
      <trkpt lat="44.14844" lon="6.67845">
        <ele>1868</ele>
        <time>2022-08-19T18:39:03Z</time>
      </trkpt>
      <trkpt lat="44.14843" lon="6.67847">
        <ele>1868.1999511719</ele>
        <time>2022-08-19T18:39:04Z</time>
      </trkpt>
      <trkpt lat="44.14839" lon="6.67852">
        <ele>1869</ele>
        <time>2022-08-19T18:39:08Z</time>
      </trkpt>
      <trkpt lat="44.14837" lon="6.67854">
        <ele>1869.4000244141</ele>
        <time>2022-08-19T18:39:10Z</time>
      </trkpt>
      <trkpt lat="44.14836" lon="6.67854">
        <ele>1869.5999755859</ele>
        <time>2022-08-19T18:39:11Z</time>
      </trkpt>
      <trkpt lat="44.14833" lon="6.67858">
        <ele>1870.5999755859</ele>
        <time>2022-08-19T18:39:15Z</time>
      </trkpt>
      <trkpt lat="44.14833" lon="6.67859">
        <ele>1870.8000488281</ele>
        <time>2022-08-19T18:39:16Z</time>
      </trkpt>
      <trkpt lat="44.1483" lon="6.67864">
        <ele>1871.5999755859</ele>
        <time>2022-08-19T18:39:21Z</time>
      </trkpt>
      <trkpt lat="44.14829" lon="6.67867">
        <ele>1872.4000244141</ele>
        <time>2022-08-19T18:39:25Z</time>
      </trkpt>
      <trkpt lat="44.14828" lon="6.67868">
        <ele>1872.8000488281</ele>
        <time>2022-08-19T18:39:27Z</time>
      </trkpt>
      <trkpt lat="44.14824" lon="6.67873">
        <ele>1873.8000488281</ele>
        <time>2022-08-19T18:39:33Z</time>
      </trkpt>
      <trkpt lat="44.14822" lon="6.67875">
        <ele>1874.1999511719</ele>
        <time>2022-08-19T18:39:35Z</time>
      </trkpt>
      <trkpt lat="44.14822" lon="6.67876">
        <ele>1874.4000244141</ele>
        <time>2022-08-19T18:39:36Z</time>
      </trkpt>
      <trkpt lat="44.14818" lon="6.67881">
        <ele>1874.8000488281</ele>
        <time>2022-08-19T18:39:40Z</time>
      </trkpt>
      <trkpt lat="44.14817" lon="6.67882">
        <ele>1874.8000488281</ele>
        <time>2022-08-19T18:39:41Z</time>
      </trkpt>
      <trkpt lat="44.14816" lon="6.67883">
        <ele>1875</ele>
        <time>2022-08-19T18:39:42Z</time>
      </trkpt>
      <trkpt lat="44.14812" lon="6.67885">
        <ele>1875</ele>
        <time>2022-08-19T18:39:44Z</time>
      </trkpt>
      <trkpt lat="44.14808" lon="6.67887">
        <ele>1875.4000244141</ele>
        <time>2022-08-19T18:39:47Z</time>
      </trkpt>
      <trkpt lat="44.14806" lon="6.67889">
        <ele>1875.8000488281</ele>
        <time>2022-08-19T18:39:50Z</time>
      </trkpt>
      <trkpt lat="44.14801" lon="6.6789">
        <ele>1877</ele>
        <time>2022-08-19T18:39:55Z</time>
      </trkpt>
      <trkpt lat="44.14801" lon="6.67891">
        <ele>1877.1999511719</ele>
        <time>2022-08-19T18:39:56Z</time>
      </trkpt>
      <trkpt lat="44.14796" lon="6.67894">
        <ele>1878.1999511719</ele>
        <time>2022-08-19T18:40:01Z</time>
      </trkpt>
      <trkpt lat="44.14793" lon="6.67899">
        <ele>1879</ele>
        <time>2022-08-19T18:40:06Z</time>
      </trkpt>
      <trkpt lat="44.14792" lon="6.679">
        <ele>1879.4000244141</ele>
        <time>2022-08-19T18:40:07Z</time>
      </trkpt>
      <trkpt lat="44.1479" lon="6.67903">
        <ele>1880</ele>
        <time>2022-08-19T18:40:10Z</time>
      </trkpt>
      <trkpt lat="44.14788" lon="6.67905">
        <ele>1880.4000244141</ele>
        <time>2022-08-19T18:40:13Z</time>
      </trkpt>
      <trkpt lat="44.14779" lon="6.67907">
        <ele>1881</ele>
        <time>2022-08-19T18:40:21Z</time>
      </trkpt>
      <trkpt lat="44.14777" lon="6.67907">
        <ele>1881.1999511719</ele>
        <time>2022-08-19T18:40:23Z</time>
      </trkpt>
      <trkpt lat="44.14773" lon="6.67908">
        <ele>1881.5999755859</ele>
        <time>2022-08-19T18:40:26Z</time>
      </trkpt>
      <trkpt lat="44.14772" lon="6.67909">
        <ele>1881.8000488281</ele>
        <time>2022-08-19T18:40:27Z</time>
      </trkpt>
      <trkpt lat="44.1477" lon="6.67916">
        <ele>1882.5999755859</ele>
        <time>2022-08-19T18:40:31Z</time>
      </trkpt>
      <trkpt lat="44.1477" lon="6.67917">
        <ele>1882.5999755859</ele>
        <time>2022-08-19T18:40:32Z</time>
      </trkpt>
      <trkpt lat="44.14769" lon="6.67922">
        <ele>1883.1999511719</ele>
        <time>2022-08-19T18:40:35Z</time>
      </trkpt>
      <trkpt lat="44.14768" lon="6.67928">
        <ele>1883.8000488281</ele>
        <time>2022-08-19T18:40:39Z</time>
      </trkpt>
      <trkpt lat="44.14766" lon="6.67934">
        <ele>1884.1999511719</ele>
        <time>2022-08-19T18:40:43Z</time>
      </trkpt>
      <trkpt lat="44.14765" lon="6.6794">
        <ele>1884.8000488281</ele>
        <time>2022-08-19T18:40:47Z</time>
      </trkpt>
      <trkpt lat="44.14761" lon="6.67945">
        <ele>1885.4000244141</ele>
        <time>2022-08-19T18:40:52Z</time>
      </trkpt>
      <trkpt lat="44.14758" lon="6.67947">
        <ele>1886</ele>
        <time>2022-08-19T18:40:55Z</time>
      </trkpt>
      <trkpt lat="44.14757" lon="6.6795">
        <ele>1886.5999755859</ele>
        <time>2022-08-19T18:40:58Z</time>
      </trkpt>
      <trkpt lat="44.14755" lon="6.67951">
        <ele>1887</ele>
        <time>2022-08-19T18:41:00Z</time>
      </trkpt>
      <trkpt lat="44.14755" lon="6.67952">
        <ele>1887.1999511719</ele>
        <time>2022-08-19T18:41:01Z</time>
      </trkpt>
      <trkpt lat="44.14751" lon="6.67955">
        <ele>1887.8000488281</ele>
        <time>2022-08-19T18:41:06Z</time>
      </trkpt>
      <trkpt lat="44.14749" lon="6.67956">
        <ele>1888.1999511719</ele>
        <time>2022-08-19T18:41:08Z</time>
      </trkpt>
      <trkpt lat="44.14744" lon="6.67964">
        <ele>1889.1999511719</ele>
        <time>2022-08-19T18:41:15Z</time>
      </trkpt>
      <trkpt lat="44.14744" lon="6.67966">
        <ele>1889.4000244141</ele>
        <time>2022-08-19T18:41:16Z</time>
      </trkpt>
      <trkpt lat="44.14739" lon="6.67971">
        <ele>1890.4000244141</ele>
        <time>2022-08-19T18:41:22Z</time>
      </trkpt>
      <trkpt lat="44.14738" lon="6.67973">
        <ele>1890.4000244141</ele>
        <time>2022-08-19T18:41:23Z</time>
      </trkpt>
      <trkpt lat="44.14737" lon="6.67974">
        <ele>1890.4000244141</ele>
        <time>2022-08-19T18:41:24Z</time>
      </trkpt>
      <trkpt lat="44.14728" lon="6.6798">
        <ele>1891</ele>
        <time>2022-08-19T18:41:31Z</time>
      </trkpt>
      <trkpt lat="44.14725" lon="6.67982">
        <ele>1891.4000244141</ele>
        <time>2022-08-19T18:41:34Z</time>
      </trkpt>
      <trkpt lat="44.14721" lon="6.67986">
        <ele>1892</ele>
        <time>2022-08-19T18:41:38Z</time>
      </trkpt>
      <trkpt lat="44.14719" lon="6.67989">
        <ele>1892.4000244141</ele>
        <time>2022-08-19T18:41:41Z</time>
      </trkpt>
      <trkpt lat="44.14712" lon="6.67995">
        <ele>1893</ele>
        <time>2022-08-19T18:41:47Z</time>
      </trkpt>
      <trkpt lat="44.14712" lon="6.67996">
        <ele>1893</ele>
        <time>2022-08-19T18:41:48Z</time>
      </trkpt>
      <trkpt lat="44.1471" lon="6.68004">
        <ele>1893.5999755859</ele>
        <time>2022-08-19T18:41:53Z</time>
      </trkpt>
      <trkpt lat="44.14704" lon="6.68006">
        <ele>1894.5999755859</ele>
        <time>2022-08-19T18:41:59Z</time>
      </trkpt>
      <trkpt lat="44.147" lon="6.68007">
        <ele>1895</ele>
        <time>2022-08-19T18:42:02Z</time>
      </trkpt>
      <trkpt lat="44.14698" lon="6.68007">
        <ele>1895.4000244141</ele>
        <time>2022-08-19T18:42:04Z</time>
      </trkpt>
      <trkpt lat="44.14697" lon="6.68007">
        <ele>1895.5999755859</ele>
        <time>2022-08-19T18:42:05Z</time>
      </trkpt>
      <trkpt lat="44.14696" lon="6.68008">
        <ele>1895.8000488281</ele>
        <time>2022-08-19T18:42:06Z</time>
      </trkpt>
      <trkpt lat="44.14695" lon="6.68009">
        <ele>1896.1999511719</ele>
        <time>2022-08-19T18:42:08Z</time>
      </trkpt>
      <trkpt lat="44.14694" lon="6.68011">
        <ele>1896.5999755859</ele>
        <time>2022-08-19T18:42:10Z</time>
      </trkpt>
      <trkpt lat="44.14692" lon="6.68011">
        <ele>1897</ele>
        <time>2022-08-19T18:42:12Z</time>
      </trkpt>
      <trkpt lat="44.1469" lon="6.68013">
        <ele>1897.8000488281</ele>
        <time>2022-08-19T18:42:16Z</time>
      </trkpt>
      <trkpt lat="44.14687" lon="6.68016">
        <ele>1898.8000488281</ele>
        <time>2022-08-19T18:42:22Z</time>
      </trkpt>
      <trkpt lat="44.14686" lon="6.68017">
        <ele>1899.1999511719</ele>
        <time>2022-08-19T18:42:24Z</time>
      </trkpt>
      <trkpt lat="44.14684" lon="6.6802">
        <ele>1899.8000488281</ele>
        <time>2022-08-19T18:42:27Z</time>
      </trkpt>
      <trkpt lat="44.14681" lon="6.68023">
        <ele>1901</ele>
        <time>2022-08-19T18:42:33Z</time>
      </trkpt>
      <trkpt lat="44.14678" lon="6.68028">
        <ele>1902</ele>
        <time>2022-08-19T18:42:38Z</time>
      </trkpt>
      <trkpt lat="44.14678" lon="6.6803">
        <ele>1902.1999511719</ele>
        <time>2022-08-19T18:42:39Z</time>
      </trkpt>
      <trkpt lat="44.14675" lon="6.68035">
        <ele>1903.1999511719</ele>
        <time>2022-08-19T18:42:45Z</time>
      </trkpt>
      <trkpt lat="44.14673" lon="6.68037">
        <ele>1903.8000488281</ele>
        <time>2022-08-19T18:42:49Z</time>
      </trkpt>
      <trkpt lat="44.14672" lon="6.68039">
        <ele>1904.4000244141</ele>
        <time>2022-08-19T18:42:52Z</time>
      </trkpt>
      <trkpt lat="44.14668" lon="6.68041">
        <ele>1905.4000244141</ele>
        <time>2022-08-19T18:42:58Z</time>
      </trkpt>
      <trkpt lat="44.14665" lon="6.6804">
        <ele>1906.4000244141</ele>
        <time>2022-08-19T18:43:03Z</time>
      </trkpt>
      <trkpt lat="44.14664" lon="6.68041">
        <ele>1906.5999755859</ele>
        <time>2022-08-19T18:43:04Z</time>
      </trkpt>
      <trkpt lat="44.14659" lon="6.68042">
        <ele>1907.5999755859</ele>
        <time>2022-08-19T18:43:11Z</time>
      </trkpt>
      <trkpt lat="44.14655" lon="6.68044">
        <ele>1908.4000244141</ele>
        <time>2022-08-19T18:43:16Z</time>
      </trkpt>
      <trkpt lat="44.14652" lon="6.68045">
        <ele>1908.5999755859</ele>
        <time>2022-08-19T18:43:19Z</time>
      </trkpt>
      <trkpt lat="44.14646" lon="6.68046">
        <ele>1909.5999755859</ele>
        <time>2022-08-19T18:43:27Z</time>
      </trkpt>
      <trkpt lat="44.14645" lon="6.68046">
        <ele>1909.5999755859</ele>
        <time>2022-08-19T18:43:28Z</time>
      </trkpt>
      <trkpt lat="44.14639" lon="6.68052">
        <ele>1910.8000488281</ele>
        <time>2022-08-19T18:43:37Z</time>
      </trkpt>
      <trkpt lat="44.14636" lon="6.68055">
        <ele>1911.1999511719</ele>
        <time>2022-08-19T18:43:41Z</time>
      </trkpt>
      <trkpt lat="44.14631" lon="6.68062">
        <ele>1911.8000488281</ele>
        <time>2022-08-19T18:43:47Z</time>
      </trkpt>
      <trkpt lat="44.14628" lon="6.68069">
        <ele>1912.5999755859</ele>
        <time>2022-08-19T18:43:54Z</time>
      </trkpt>
      <trkpt lat="44.14627" lon="6.68072">
        <ele>1913</ele>
        <time>2022-08-19T18:43:57Z</time>
      </trkpt>
      <trkpt lat="44.14623" lon="6.68079">
        <ele>1913.5999755859</ele>
        <time>2022-08-19T18:44:04Z</time>
      </trkpt>
      <trkpt lat="44.14622" lon="6.68083">
        <ele>1914</ele>
        <time>2022-08-19T18:44:07Z</time>
      </trkpt>
      <trkpt lat="44.14619" lon="6.68095">
        <ele>1915</ele>
        <time>2022-08-19T18:44:17Z</time>
      </trkpt>
      <trkpt lat="44.14618" lon="6.68096">
        <ele>1915</ele>
        <time>2022-08-19T18:44:18Z</time>
      </trkpt>
      <trkpt lat="44.14615" lon="6.68102">
        <ele>1915.5999755859</ele>
        <time>2022-08-19T18:44:25Z</time>
      </trkpt>
      <trkpt lat="44.14614" lon="6.68104">
        <ele>1915.8000488281</ele>
        <time>2022-08-19T18:44:27Z</time>
      </trkpt>
      <trkpt lat="44.14611" lon="6.68106">
        <ele>1916.1999511719</ele>
        <time>2022-08-19T18:44:31Z</time>
      </trkpt>
      <trkpt lat="44.14605" lon="6.68111">
        <ele>1917.1999511719</ele>
        <time>2022-08-19T18:44:38Z</time>
      </trkpt>
      <trkpt lat="44.14602" lon="6.68113">
        <ele>1917.8000488281</ele>
        <time>2022-08-19T18:44:42Z</time>
      </trkpt>
      <trkpt lat="44.146" lon="6.68115">
        <ele>1918.1999511719</ele>
        <time>2022-08-19T18:44:45Z</time>
      </trkpt>
      <trkpt lat="44.14595" lon="6.68119">
        <ele>1919.4000244141</ele>
        <time>2022-08-19T18:44:52Z</time>
      </trkpt>
      <trkpt lat="44.14594" lon="6.68119">
        <ele>1919.5999755859</ele>
        <time>2022-08-19T18:44:54Z</time>
      </trkpt>
      <trkpt lat="44.14591" lon="6.68121">
        <ele>1920.4000244141</ele>
        <time>2022-08-19T18:45:00Z</time>
      </trkpt>
      <trkpt lat="44.1459" lon="6.68119">
        <ele>1920.8000488281</ele>
        <time>2022-08-19T18:45:07Z</time>
      </trkpt>
      <trkpt lat="44.14587" lon="6.68125">
        <ele>1921.4000244141</ele>
        <time>2022-08-19T18:45:17Z</time>
      </trkpt>
      <trkpt lat="44.14587" lon="6.68125">
        <ele>1921.4000244141</ele>
        <time>2022-08-19T18:45:18Z</time>
      </trkpt>
      <trkpt lat="44.1458" lon="6.68118">
        <ele>1922.5999755859</ele>
        <time>2022-08-19T18:45:31Z</time>
      </trkpt>
      <trkpt lat="44.14571" lon="6.68109">
        <ele>1923.5999755859</ele>
        <time>2022-08-19T18:45:43Z</time>
      </trkpt>
      <trkpt lat="44.1457" lon="6.68107">
        <ele>1923.5999755859</ele>
        <time>2022-08-19T18:45:45Z</time>
      </trkpt>
      <trkpt lat="44.14569" lon="6.68109">
        <ele>1923.5999755859</ele>
        <time>2022-08-19T18:45:51Z</time>
      </trkpt>
      <trkpt lat="44.14561" lon="6.68114">
        <ele>1923.8000488281</ele>
        <time>2022-08-19T18:45:57Z</time>
      </trkpt>
      <trkpt lat="44.14558" lon="6.68117">
        <ele>1924.1999511719</ele>
        <time>2022-08-19T18:46:00Z</time>
      </trkpt>
      <trkpt lat="44.14555" lon="6.68122">
        <ele>1924.8000488281</ele>
        <time>2022-08-19T18:46:03Z</time>
      </trkpt>
      <trkpt lat="44.14547" lon="6.68128">
        <ele>1925.4000244141</ele>
        <time>2022-08-19T18:46:09Z</time>
      </trkpt>
      <trkpt lat="44.14544" lon="6.6813">
        <ele>1925.8000488281</ele>
        <time>2022-08-19T18:46:12Z</time>
      </trkpt>
      <trkpt lat="44.14539" lon="6.68135">
        <ele>1926.5999755859</ele>
        <time>2022-08-19T18:46:17Z</time>
      </trkpt>
      <trkpt lat="44.14534" lon="6.6814">
        <ele>1927</ele>
        <time>2022-08-19T18:46:21Z</time>
      </trkpt>
      <trkpt lat="44.14526" lon="6.68148">
        <ele>1927.4000244141</ele>
        <time>2022-08-19T18:46:27Z</time>
      </trkpt>
      <trkpt lat="44.14523" lon="6.6815">
        <ele>1927.5999755859</ele>
        <time>2022-08-19T18:46:30Z</time>
      </trkpt>
      <trkpt lat="44.14521" lon="6.68152">
        <ele>1927.8000488281</ele>
        <time>2022-08-19T18:46:32Z</time>
      </trkpt>
      <trkpt lat="44.1452" lon="6.68153">
        <ele>1928</ele>
        <time>2022-08-19T18:46:33Z</time>
      </trkpt>
      <trkpt lat="44.14516" lon="6.68157">
        <ele>1929</ele>
        <time>2022-08-19T18:46:37Z</time>
      </trkpt>
      <trkpt lat="44.14513" lon="6.68158">
        <ele>1929.8000488281</ele>
        <time>2022-08-19T18:46:40Z</time>
      </trkpt>
      <trkpt lat="44.1451" lon="6.68159">
        <ele>1930.1999511719</ele>
        <time>2022-08-19T18:46:42Z</time>
      </trkpt>
      <trkpt lat="44.14508" lon="6.68161">
        <ele>1930.1999511719</ele>
        <time>2022-08-19T18:46:44Z</time>
      </trkpt>
      <trkpt lat="44.14505" lon="6.68162">
        <ele>1930.4000244141</ele>
        <time>2022-08-19T18:46:46Z</time>
      </trkpt>
      <trkpt lat="44.14504" lon="6.68162">
        <ele>1930.5999755859</ele>
        <time>2022-08-19T18:46:47Z</time>
      </trkpt>
      <trkpt lat="44.14499" lon="6.68167">
        <ele>1930.8000488281</ele>
        <time>2022-08-19T18:46:52Z</time>
      </trkpt>
      <trkpt lat="44.14492" lon="6.68177">
        <ele>1931.1999511719</ele>
        <time>2022-08-19T18:46:59Z</time>
      </trkpt>
      <trkpt lat="44.14491" lon="6.68182">
        <ele>1931.4000244141</ele>
        <time>2022-08-19T18:47:01Z</time>
      </trkpt>
      <trkpt lat="44.14487" lon="6.68185">
        <ele>1931.5999755859</ele>
        <time>2022-08-19T18:47:04Z</time>
      </trkpt>
      <trkpt lat="44.14484" lon="6.68188">
        <ele>1931.8000488281</ele>
        <time>2022-08-19T18:47:06Z</time>
      </trkpt>
      <trkpt lat="44.1448" lon="6.68192">
        <ele>1932</ele>
        <time>2022-08-19T18:47:09Z</time>
      </trkpt>
      <trkpt lat="44.14477" lon="6.68195">
        <ele>1932.1999511719</ele>
        <time>2022-08-19T18:47:12Z</time>
      </trkpt>
      <trkpt lat="44.14475" lon="6.68197">
        <ele>1932.5999755859</ele>
        <time>2022-08-19T18:47:14Z</time>
      </trkpt>
      <trkpt lat="44.14473" lon="6.682">
        <ele>1933</ele>
        <time>2022-08-19T18:47:16Z</time>
      </trkpt>
      <trkpt lat="44.1447" lon="6.68205">
        <ele>1933.4000244141</ele>
        <time>2022-08-19T18:47:20Z</time>
      </trkpt>
      <trkpt lat="44.14465" lon="6.68209">
        <ele>1934</ele>
        <time>2022-08-19T18:47:24Z</time>
      </trkpt>
      <trkpt lat="44.14454" lon="6.68213">
        <ele>1934.1999511719</ele>
        <time>2022-08-19T18:47:30Z</time>
      </trkpt>
      <trkpt lat="44.14452" lon="6.68215">
        <ele>1934.1999511719</ele>
        <time>2022-08-19T18:47:31Z</time>
      </trkpt>
      <trkpt lat="44.14436" lon="6.68225">
        <ele>1934.1999511719</ele>
        <time>2022-08-19T18:47:38Z</time>
      </trkpt>
      <trkpt lat="44.14431" lon="6.68229">
        <ele>1934.4000244141</ele>
        <time>2022-08-19T18:47:40Z</time>
      </trkpt>
      <trkpt lat="44.1442" lon="6.68241">
        <ele>1934.8000488281</ele>
        <time>2022-08-19T18:47:46Z</time>
      </trkpt>
      <trkpt lat="44.14411" lon="6.68251">
        <ele>1935.4000244141</ele>
        <time>2022-08-19T18:47:51Z</time>
      </trkpt>
      <trkpt lat="44.14409" lon="6.68253">
        <ele>1935.5999755859</ele>
        <time>2022-08-19T18:47:52Z</time>
      </trkpt>
      <trkpt lat="44.14404" lon="6.6826">
        <ele>1936</ele>
        <time>2022-08-19T18:47:55Z</time>
      </trkpt>
      <trkpt lat="44.14401" lon="6.68264">
        <ele>1936.1999511719</ele>
        <time>2022-08-19T18:47:57Z</time>
      </trkpt>
      <trkpt lat="44.14398" lon="6.68271">
        <ele>1936.4000244141</ele>
        <time>2022-08-19T18:48:00Z</time>
      </trkpt>
      <trkpt lat="44.14397" lon="6.68273">
        <ele>1936.5999755859</ele>
        <time>2022-08-19T18:48:01Z</time>
      </trkpt>
      <trkpt lat="44.14396" lon="6.68275">
        <ele>1936.5999755859</ele>
        <time>2022-08-19T18:48:02Z</time>
      </trkpt>
      <trkpt lat="44.14384" lon="6.68289">
        <ele>1936.5999755859</ele>
        <time>2022-08-19T18:48:09Z</time>
      </trkpt>
      <trkpt lat="44.14369" lon="6.68297">
        <ele>1936.4000244141</ele>
        <time>2022-08-19T18:48:16Z</time>
      </trkpt>
      <trkpt lat="44.1436" lon="6.68302">
        <ele>1936.5999755859</ele>
        <time>2022-08-19T18:48:20Z</time>
      </trkpt>
      <trkpt lat="44.14355" lon="6.68306">
        <ele>1936.8000488281</ele>
        <time>2022-08-19T18:48:23Z</time>
      </trkpt>
      <trkpt lat="44.14345" lon="6.68317">
        <ele>1937.4000244141</ele>
        <time>2022-08-19T18:48:29Z</time>
      </trkpt>
      <trkpt lat="44.14342" lon="6.6832">
        <ele>1937.5999755859</ele>
        <time>2022-08-19T18:48:31Z</time>
      </trkpt>
      <trkpt lat="44.14336" lon="6.68335">
        <ele>1938.4000244141</ele>
        <time>2022-08-19T18:48:38Z</time>
      </trkpt>
      <trkpt lat="44.14335" lon="6.68336">
        <ele>1938.5999755859</ele>
        <time>2022-08-19T18:48:39Z</time>
      </trkpt>
      <trkpt lat="44.1433" lon="6.6834">
        <ele>1939.1999511719</ele>
        <time>2022-08-19T18:48:43Z</time>
      </trkpt>
      <trkpt lat="44.14326" lon="6.68342">
        <ele>1939.4000244141</ele>
        <time>2022-08-19T18:48:46Z</time>
      </trkpt>
      <trkpt lat="44.14317" lon="6.68342">
        <ele>1939.4000244141</ele>
        <time>2022-08-19T18:48:51Z</time>
      </trkpt>
      <trkpt lat="44.14314" lon="6.68342">
        <ele>1939.5999755859</ele>
        <time>2022-08-19T18:48:53Z</time>
      </trkpt>
      <trkpt lat="44.14308" lon="6.68344">
        <ele>1940.8000488281</ele>
        <time>2022-08-19T18:48:58Z</time>
      </trkpt>
      <trkpt lat="44.14305" lon="6.68344">
        <ele>1941.5999755859</ele>
        <time>2022-08-19T18:49:01Z</time>
      </trkpt>
      <trkpt lat="44.14305" lon="6.68344">
        <ele>1941.8000488281</ele>
        <time>2022-08-19T18:49:02Z</time>
      </trkpt>
      <trkpt lat="44.14305" lon="6.68345">
        <ele>1942.5999755859</ele>
        <time>2022-08-19T18:49:05Z</time>
      </trkpt>
      <trkpt lat="44.14303" lon="6.68345">
        <ele>1942.8000488281</ele>
        <time>2022-08-19T18:49:08Z</time>
      </trkpt>
      <trkpt lat="44.143" lon="6.68345">
        <ele>1943.8000488281</ele>
        <time>2022-08-19T18:49:13Z</time>
      </trkpt>
      <trkpt lat="44.143" lon="6.68345">
        <ele>1944</ele>
        <time>2022-08-19T18:49:14Z</time>
      </trkpt>
      <trkpt lat="44.143" lon="6.68345">
        <ele>1944.1999511719</ele>
        <time>2022-08-19T18:49:16Z</time>
      </trkpt>
      <trkpt lat="44.14298" lon="6.68344">
        <ele>1945</ele>
        <time>2022-08-19T18:49:21Z</time>
      </trkpt>
      <trkpt lat="44.14297" lon="6.68344">
        <ele>1945.8000488281</ele>
        <time>2022-08-19T18:49:25Z</time>
      </trkpt>
      <trkpt lat="44.14296" lon="6.68345">
        <ele>1946.1999511719</ele>
        <time>2022-08-19T18:49:27Z</time>
      </trkpt>
      <trkpt lat="44.14293" lon="6.68349">
        <ele>1947.1999511719</ele>
        <time>2022-08-19T18:49:35Z</time>
      </trkpt>
      <trkpt lat="44.14293" lon="6.68349">
        <ele>1947.4000244141</ele>
        <time>2022-08-19T18:49:37Z</time>
      </trkpt>
      <trkpt lat="44.14289" lon="6.68352">
        <ele>1948.1999511719</ele>
        <time>2022-08-19T18:49:46Z</time>
      </trkpt>
      <trkpt lat="44.14284" lon="6.68353">
        <ele>1949.1999511719</ele>
        <time>2022-08-19T18:49:52Z</time>
      </trkpt>
      <trkpt lat="44.14281" lon="6.68355">
        <ele>1950.1999511719</ele>
        <time>2022-08-19T18:49:58Z</time>
      </trkpt>
      <trkpt lat="44.1428" lon="6.68355">
        <ele>1950.4000244141</ele>
        <time>2022-08-19T18:49:59Z</time>
      </trkpt>
      <trkpt lat="44.14275" lon="6.68355">
        <ele>1951</ele>
        <time>2022-08-19T18:50:07Z</time>
      </trkpt>
      <trkpt lat="44.14272" lon="6.68355">
        <ele>1951.4000244141</ele>
        <time>2022-08-19T18:50:16Z</time>
      </trkpt>
      <trkpt lat="44.14273" lon="6.68354">
        <ele>1951.5999755859</ele>
        <time>2022-08-19T18:50:24Z</time>
      </trkpt>
      <trkpt lat="44.14272" lon="6.68354">
        <ele>1951.1999511719</ele>
        <time>2022-08-19T18:50:31Z</time>
      </trkpt>
      <trkpt lat="44.14272" lon="6.68354">
        <ele>1951.1999511719</ele>
        <time>2022-08-19T18:50:36Z</time>
      </trkpt>
      <trkpt lat="44.14272" lon="6.68356">
        <ele>1951</ele>
        <time>2022-08-19T18:50:46Z</time>
      </trkpt>
      <trkpt lat="44.14271" lon="6.68356">
        <ele>1951</ele>
        <time>2022-08-19T18:50:49Z</time>
      </trkpt>
      <trkpt lat="44.14271" lon="6.68356">
        <ele>1951</ele>
        <time>2022-08-19T18:50:53Z</time>
      </trkpt>
      <trkpt lat="44.14259" lon="6.68356">
        <ele>1951.4000244141</ele>
        <time>2022-08-19T18:51:04Z</time>
      </trkpt>
      <trkpt lat="44.14252" lon="6.68357">
        <ele>1951.8000488281</ele>
        <time>2022-08-19T18:51:08Z</time>
      </trkpt>
      <trkpt lat="44.14249" lon="6.68357">
        <ele>1952</ele>
        <time>2022-08-19T18:51:10Z</time>
      </trkpt>
      <trkpt lat="44.14247" lon="6.68357">
        <ele>1952</ele>
        <time>2022-08-19T18:51:11Z</time>
      </trkpt>
      <trkpt lat="44.14244" lon="6.68358">
        <ele>1952.4000244141</ele>
        <time>2022-08-19T18:51:14Z</time>
      </trkpt>
      <trkpt lat="44.14242" lon="6.68358">
        <ele>1952.5999755859</ele>
        <time>2022-08-19T18:51:15Z</time>
      </trkpt>
      <trkpt lat="44.14239" lon="6.68359">
        <ele>1952.5999755859</ele>
        <time>2022-08-19T18:51:17Z</time>
      </trkpt>
      <trkpt lat="44.14225" lon="6.68362">
        <ele>1953</ele>
        <time>2022-08-19T18:51:24Z</time>
      </trkpt>
      <trkpt lat="44.14211" lon="6.68369">
        <ele>1952.5999755859</ele>
        <time>2022-08-19T18:51:29Z</time>
      </trkpt>
      <trkpt lat="44.14203" lon="6.68373">
        <ele>1952.5999755859</ele>
        <time>2022-08-19T18:51:32Z</time>
      </trkpt>
      <trkpt lat="44.14189" lon="6.68378">
        <ele>1953</ele>
        <time>2022-08-19T18:51:39Z</time>
      </trkpt>
      <trkpt lat="44.14179" lon="6.68382">
        <ele>1952.4000244141</ele>
        <time>2022-08-19T18:51:45Z</time>
      </trkpt>
      <trkpt lat="44.14171" lon="6.68389">
        <ele>1951.4000244141</ele>
        <time>2022-08-19T18:51:49Z</time>
      </trkpt>
      <trkpt lat="44.14165" lon="6.68394">
        <ele>1950.4000244141</ele>
        <time>2022-08-19T18:51:52Z</time>
      </trkpt>
      <trkpt lat="44.14157" lon="6.68395">
        <ele>1949.1999511719</ele>
        <time>2022-08-19T18:51:57Z</time>
      </trkpt>
      <trkpt lat="44.14156" lon="6.68395">
        <ele>1949.1999511719</ele>
        <time>2022-08-19T18:51:58Z</time>
      </trkpt>
      <trkpt lat="44.1415" lon="6.68398">
        <ele>1948.5999755859</ele>
        <time>2022-08-19T18:52:01Z</time>
      </trkpt>
      <trkpt lat="44.14143" lon="6.68399">
        <ele>1948.1999511719</ele>
        <time>2022-08-19T18:52:04Z</time>
      </trkpt>
      <trkpt lat="44.14134" lon="6.68404">
        <ele>1947.4000244141</ele>
        <time>2022-08-19T18:52:08Z</time>
      </trkpt>
      <trkpt lat="44.14132" lon="6.68404">
        <ele>1947.1999511719</ele>
        <time>2022-08-19T18:52:09Z</time>
      </trkpt>
      <trkpt lat="44.1413" lon="6.68404">
        <ele>1947.1999511719</ele>
        <time>2022-08-19T18:52:10Z</time>
      </trkpt>
      <trkpt lat="44.14128" lon="6.68403">
        <ele>1947.1999511719</ele>
        <time>2022-08-19T18:52:11Z</time>
      </trkpt>
      <trkpt lat="44.14119" lon="6.68405">
        <ele>1946</ele>
        <time>2022-08-19T18:52:16Z</time>
      </trkpt>
      <trkpt lat="44.14118" lon="6.68405">
        <ele>1945.8000488281</ele>
        <time>2022-08-19T18:52:17Z</time>
      </trkpt>
      <trkpt lat="44.1411" lon="6.68403">
        <ele>1945</ele>
        <time>2022-08-19T18:52:22Z</time>
      </trkpt>
      <trkpt lat="44.14107" lon="6.68405">
        <ele>1944.5999755859</ele>
        <time>2022-08-19T18:52:24Z</time>
      </trkpt>
      <trkpt lat="44.14097" lon="6.68408">
        <ele>1944.5999755859</ele>
        <time>2022-08-19T18:52:30Z</time>
      </trkpt>
      <trkpt lat="44.14092" lon="6.68411">
        <ele>1944.5999755859</ele>
        <time>2022-08-19T18:52:34Z</time>
      </trkpt>
      <trkpt lat="44.14088" lon="6.6841">
        <ele>1944.5999755859</ele>
        <time>2022-08-19T18:52:36Z</time>
      </trkpt>
      <trkpt lat="44.14078" lon="6.68413">
        <ele>1944.5999755859</ele>
        <time>2022-08-19T18:52:42Z</time>
      </trkpt>
      <trkpt lat="44.14064" lon="6.6842">
        <ele>1944.4000244141</ele>
        <time>2022-08-19T18:52:49Z</time>
      </trkpt>
      <trkpt lat="44.14057" lon="6.68425">
        <ele>1943.8000488281</ele>
        <time>2022-08-19T18:52:52Z</time>
      </trkpt>
      <trkpt lat="44.14048" lon="6.68431">
        <ele>1942.5999755859</ele>
        <time>2022-08-19T18:52:56Z</time>
      </trkpt>
      <trkpt lat="44.14036" lon="6.68436">
        <ele>1941.5999755859</ele>
        <time>2022-08-19T18:53:01Z</time>
      </trkpt>
      <trkpt lat="44.14033" lon="6.68438">
        <ele>1941.5999755859</ele>
        <time>2022-08-19T18:53:02Z</time>
      </trkpt>
      <trkpt lat="44.14025" lon="6.68438">
        <ele>1941.5999755859</ele>
        <time>2022-08-19T18:53:05Z</time>
      </trkpt>
      <trkpt lat="44.14021" lon="6.68438">
        <ele>1941.4000244141</ele>
        <time>2022-08-19T18:53:06Z</time>
      </trkpt>
      <trkpt lat="44.13998" lon="6.68439">
        <ele>1941.1999511719</ele>
        <time>2022-08-19T18:53:14Z</time>
      </trkpt>
      <trkpt lat="44.13975" lon="6.68446">
        <ele>1941.1999511719</ele>
        <time>2022-08-19T18:53:21Z</time>
      </trkpt>
      <trkpt lat="44.13953" lon="6.68457">
        <ele>1942.1999511719</ele>
        <time>2022-08-19T18:53:28Z</time>
      </trkpt>
      <trkpt lat="44.13947" lon="6.6846">
        <ele>1942.4000244141</ele>
        <time>2022-08-19T18:53:30Z</time>
      </trkpt>
      <trkpt lat="44.13942" lon="6.68463">
        <ele>1942.5999755859</ele>
        <time>2022-08-19T18:53:32Z</time>
      </trkpt>
      <trkpt lat="44.13941" lon="6.68465">
        <ele>1942.8000488281</ele>
        <time>2022-08-19T18:53:33Z</time>
      </trkpt>
      <trkpt lat="44.13934" lon="6.68474">
        <ele>1943.5999755859</ele>
        <time>2022-08-19T18:53:38Z</time>
      </trkpt>
      <trkpt lat="44.13933" lon="6.68475">
        <ele>1943.8000488281</ele>
        <time>2022-08-19T18:53:39Z</time>
      </trkpt>
      <trkpt lat="44.13929" lon="6.68479">
        <ele>1944.1999511719</ele>
        <time>2022-08-19T18:53:42Z</time>
      </trkpt>
      <trkpt lat="44.13926" lon="6.68487">
        <ele>1944.8000488281</ele>
        <time>2022-08-19T18:53:46Z</time>
      </trkpt>
      <trkpt lat="44.1392" lon="6.68493">
        <ele>1946</ele>
        <time>2022-08-19T18:53:52Z</time>
      </trkpt>
      <trkpt lat="44.13919" lon="6.68494">
        <ele>1946.1999511719</ele>
        <time>2022-08-19T18:53:53Z</time>
      </trkpt>
      <trkpt lat="44.13908" lon="6.68498">
        <ele>1947</ele>
        <time>2022-08-19T18:54:00Z</time>
      </trkpt>
      <trkpt lat="44.13907" lon="6.68498">
        <ele>1947</ele>
        <time>2022-08-19T18:54:01Z</time>
      </trkpt>
      <trkpt lat="44.13889" lon="6.68505">
        <ele>1947.1999511719</ele>
        <time>2022-08-19T18:54:09Z</time>
      </trkpt>
      <trkpt lat="44.13869" lon="6.68512">
        <ele>1947</ele>
        <time>2022-08-19T18:54:17Z</time>
      </trkpt>
      <trkpt lat="44.13867" lon="6.68514">
        <ele>1947</ele>
        <time>2022-08-19T18:54:18Z</time>
      </trkpt>
      <trkpt lat="44.13856" lon="6.68521">
        <ele>1947.4000244141</ele>
        <time>2022-08-19T18:54:24Z</time>
      </trkpt>
      <trkpt lat="44.13853" lon="6.68523">
        <ele>1947.5999755859</ele>
        <time>2022-08-19T18:54:26Z</time>
      </trkpt>
      <trkpt lat="44.13848" lon="6.68528">
        <ele>1948</ele>
        <time>2022-08-19T18:54:30Z</time>
      </trkpt>
      <trkpt lat="44.1384" lon="6.68533">
        <ele>1948.8000488281</ele>
        <time>2022-08-19T18:54:36Z</time>
      </trkpt>
      <trkpt lat="44.13838" lon="6.68535">
        <ele>1949.1999511719</ele>
        <time>2022-08-19T18:54:38Z</time>
      </trkpt>
      <trkpt lat="44.13827" lon="6.68546">
        <ele>1949.5999755859</ele>
        <time>2022-08-19T18:54:44Z</time>
      </trkpt>
      <trkpt lat="44.13818" lon="6.68554">
        <ele>1949.4000244141</ele>
        <time>2022-08-19T18:54:49Z</time>
      </trkpt>
      <trkpt lat="44.13815" lon="6.68556">
        <ele>1949.8000488281</ele>
        <time>2022-08-19T18:54:52Z</time>
      </trkpt>
      <trkpt lat="44.13811" lon="6.68559">
        <ele>1949.4000244141</ele>
        <time>2022-08-19T18:54:56Z</time>
      </trkpt>
      <trkpt lat="44.1381" lon="6.68559">
        <ele>1949.1999511719</ele>
        <time>2022-08-19T18:54:57Z</time>
      </trkpt>
      <trkpt lat="44.13809" lon="6.6856">
        <ele>1948.8000488281</ele>
        <time>2022-08-19T18:54:59Z</time>
      </trkpt>
      <trkpt lat="44.13809" lon="6.6856">
        <ele>1948.5999755859</ele>
        <time>2022-08-19T18:55:02Z</time>
      </trkpt>
      <trkpt lat="44.13804" lon="6.68563">
        <ele>1948.5999755859</ele>
        <time>2022-08-19T18:55:11Z</time>
      </trkpt>
      <trkpt lat="44.13797" lon="6.68566">
        <ele>1949.4000244141</ele>
        <time>2022-08-19T18:55:19Z</time>
      </trkpt>
      <trkpt lat="44.13794" lon="6.68567">
        <ele>1949.8000488281</ele>
        <time>2022-08-19T18:55:22Z</time>
      </trkpt>
      <trkpt lat="44.13788" lon="6.6857">
        <ele>1950</ele>
        <time>2022-08-19T18:55:27Z</time>
      </trkpt>
      <trkpt lat="44.13787" lon="6.68572">
        <ele>1950</ele>
        <time>2022-08-19T18:55:28Z</time>
      </trkpt>
      <trkpt lat="44.13784" lon="6.68575">
        <ele>1950.1999511719</ele>
        <time>2022-08-19T18:55:31Z</time>
      </trkpt>
      <trkpt lat="44.1378" lon="6.68579">
        <ele>1951</ele>
        <time>2022-08-19T18:55:36Z</time>
      </trkpt>
      <trkpt lat="44.13778" lon="6.68581">
        <ele>1951.1999511719</ele>
        <time>2022-08-19T18:55:38Z</time>
      </trkpt>
      <trkpt lat="44.13771" lon="6.68587">
        <ele>1952.1999511719</ele>
        <time>2022-08-19T18:55:46Z</time>
      </trkpt>
      <trkpt lat="44.1377" lon="6.68588">
        <ele>1952.1999511719</ele>
        <time>2022-08-19T18:55:47Z</time>
      </trkpt>
      <trkpt lat="44.13766" lon="6.68591">
        <ele>1953.4000244141</ele>
        <time>2022-08-19T18:55:53Z</time>
      </trkpt>
      <trkpt lat="44.13764" lon="6.68592">
        <ele>1953.5999755859</ele>
        <time>2022-08-19T18:55:55Z</time>
      </trkpt>
      <trkpt lat="44.13762" lon="6.68595">
        <ele>1954.4000244141</ele>
        <time>2022-08-19T18:56:00Z</time>
      </trkpt>
      <trkpt lat="44.13761" lon="6.68598">
        <ele>1955</ele>
        <time>2022-08-19T18:56:03Z</time>
      </trkpt>
      <trkpt lat="44.13761" lon="6.68601">
        <ele>1955.5999755859</ele>
        <time>2022-08-19T18:56:06Z</time>
      </trkpt>
      <trkpt lat="44.13759" lon="6.68607">
        <ele>1956.5999755859</ele>
        <time>2022-08-19T18:56:12Z</time>
      </trkpt>
      <trkpt lat="44.13757" lon="6.68612">
        <ele>1957.4000244141</ele>
        <time>2022-08-19T18:56:17Z</time>
      </trkpt>
      <trkpt lat="44.13756" lon="6.68614">
        <ele>1957.8000488281</ele>
        <time>2022-08-19T18:56:19Z</time>
      </trkpt>
      <trkpt lat="44.13752" lon="6.68619">
        <ele>1958.8000488281</ele>
        <time>2022-08-19T18:56:27Z</time>
      </trkpt>
      <trkpt lat="44.1375" lon="6.68623">
        <ele>1959.4000244141</ele>
        <time>2022-08-19T18:56:32Z</time>
      </trkpt>
      <trkpt lat="44.13748" lon="6.68626">
        <ele>1959.8000488281</ele>
        <time>2022-08-19T18:56:36Z</time>
      </trkpt>
      <trkpt lat="44.13744" lon="6.68632">
        <ele>1960.5999755859</ele>
        <time>2022-08-19T18:56:43Z</time>
      </trkpt>
      <trkpt lat="44.13741" lon="6.68634">
        <ele>1961</ele>
        <time>2022-08-19T18:56:47Z</time>
      </trkpt>
      <trkpt lat="44.13735" lon="6.68641">
        <ele>1962</ele>
        <time>2022-08-19T18:56:56Z</time>
      </trkpt>
      <trkpt lat="44.13733" lon="6.68645">
        <ele>1962.1999511719</ele>
        <time>2022-08-19T18:56:59Z</time>
      </trkpt>
      <trkpt lat="44.1373" lon="6.68652">
        <ele>1962.5999755859</ele>
        <time>2022-08-19T18:57:05Z</time>
      </trkpt>
      <trkpt lat="44.13729" lon="6.68656">
        <ele>1963</ele>
        <time>2022-08-19T18:57:09Z</time>
      </trkpt>
      <trkpt lat="44.13727" lon="6.68661">
        <ele>1963.4000244141</ele>
        <time>2022-08-19T18:57:13Z</time>
      </trkpt>
      <trkpt lat="44.13725" lon="6.68664">
        <ele>1963.5999755859</ele>
        <time>2022-08-19T18:57:16Z</time>
      </trkpt>
      <trkpt lat="44.13723" lon="6.68666">
        <ele>1964</ele>
        <time>2022-08-19T18:57:18Z</time>
      </trkpt>
      <trkpt lat="44.13723" lon="6.68667">
        <ele>1964</ele>
        <time>2022-08-19T18:57:19Z</time>
      </trkpt>
      <trkpt lat="44.13719" lon="6.68669">
        <ele>1964.5999755859</ele>
        <time>2022-08-19T18:57:25Z</time>
      </trkpt>
      <trkpt lat="44.13715" lon="6.6867">
        <ele>1964.5999755859</ele>
        <time>2022-08-19T18:57:29Z</time>
      </trkpt>
      <trkpt lat="44.13712" lon="6.68675">
        <ele>1965.1999511719</ele>
        <time>2022-08-19T18:57:35Z</time>
      </trkpt>
      <trkpt lat="44.1371" lon="6.68677">
        <ele>1965.4000244141</ele>
        <time>2022-08-19T18:57:38Z</time>
      </trkpt>
      <trkpt lat="44.13705" lon="6.68683">
        <ele>1966</ele>
        <time>2022-08-19T18:57:46Z</time>
      </trkpt>
      <trkpt lat="44.13705" lon="6.68685">
        <ele>1966.1999511719</ele>
        <time>2022-08-19T18:57:48Z</time>
      </trkpt>
      <trkpt lat="44.137" lon="6.68689">
        <ele>1967.4000244141</ele>
        <time>2022-08-19T18:57:55Z</time>
      </trkpt>
      <trkpt lat="44.13697" lon="6.68693">
        <ele>1968.4000244141</ele>
        <time>2022-08-19T18:58:02Z</time>
      </trkpt>
      <trkpt lat="44.13693" lon="6.68695">
        <ele>1969.1999511719</ele>
        <time>2022-08-19T18:58:08Z</time>
      </trkpt>
      <trkpt lat="44.13692" lon="6.68696">
        <ele>1969.4000244141</ele>
        <time>2022-08-19T18:58:10Z</time>
      </trkpt>
      <trkpt lat="44.13689" lon="6.687">
        <ele>1970.4000244141</ele>
        <time>2022-08-19T18:58:17Z</time>
      </trkpt>
      <trkpt lat="44.13688" lon="6.68702">
        <ele>1971</ele>
        <time>2022-08-19T18:58:20Z</time>
      </trkpt>
      <trkpt lat="44.13686" lon="6.68704">
        <ele>1971.4000244141</ele>
        <time>2022-08-19T18:58:24Z</time>
      </trkpt>
      <trkpt lat="44.13681" lon="6.6871">
        <ele>1972.5999755859</ele>
        <time>2022-08-19T18:58:33Z</time>
      </trkpt>
      <trkpt lat="44.13681" lon="6.6871">
        <ele>1972.5999755859</ele>
        <time>2022-08-19T18:58:34Z</time>
      </trkpt>
      <trkpt lat="44.13677" lon="6.68713">
        <ele>1973.5999755859</ele>
        <time>2022-08-19T18:58:41Z</time>
      </trkpt>
      <trkpt lat="44.13674" lon="6.68715">
        <ele>1974.5999755859</ele>
        <time>2022-08-19T18:58:48Z</time>
      </trkpt>
      <trkpt lat="44.13674" lon="6.68716">
        <ele>1974.5999755859</ele>
        <time>2022-08-19T18:58:49Z</time>
      </trkpt>
      <trkpt lat="44.13671" lon="6.68721">
        <ele>1975.1999511719</ele>
        <time>2022-08-19T18:58:57Z</time>
      </trkpt>
      <trkpt lat="44.13669" lon="6.68723">
        <ele>1975.5999755859</ele>
        <time>2022-08-19T18:59:02Z</time>
      </trkpt>
      <trkpt lat="44.13666" lon="6.68728">
        <ele>1976.5999755859</ele>
        <time>2022-08-19T18:59:10Z</time>
      </trkpt>
      <trkpt lat="44.13665" lon="6.68729">
        <ele>1976.5999755859</ele>
        <time>2022-08-19T18:59:12Z</time>
      </trkpt>
      <trkpt lat="44.13656" lon="6.68731">
        <ele>1977.4000244141</ele>
        <time>2022-08-19T18:59:23Z</time>
      </trkpt>
      <trkpt lat="44.13656" lon="6.68731">
        <ele>1977.5999755859</ele>
        <time>2022-08-19T18:59:24Z</time>
      </trkpt>
      <trkpt lat="44.13654" lon="6.68734">
        <ele>1977.8000488281</ele>
        <time>2022-08-19T18:59:27Z</time>
      </trkpt>
      <trkpt lat="44.13652" lon="6.68736">
        <ele>1978</ele>
        <time>2022-08-19T18:59:30Z</time>
      </trkpt>
      <trkpt lat="44.1365" lon="6.68739">
        <ele>1978.5999755859</ele>
        <time>2022-08-19T18:59:36Z</time>
      </trkpt>
      <trkpt lat="44.13649" lon="6.68739">
        <ele>1978.8000488281</ele>
        <time>2022-08-19T18:59:38Z</time>
      </trkpt>
      <trkpt lat="44.13649" lon="6.68739">
        <ele>1978.8000488281</ele>
        <time>2022-08-19T18:59:41Z</time>
      </trkpt>
      <trkpt lat="44.1365" lon="6.6874">
        <ele>1978.8000488281</ele>
        <time>2022-08-19T18:59:47Z</time>
      </trkpt>
      <trkpt lat="44.1365" lon="6.68739">
        <ele>1978.8000488281</ele>
        <time>2022-08-19T18:59:49Z</time>
      </trkpt>
      <trkpt lat="44.13649" lon="6.68739">
        <ele>1978.8000488281</ele>
        <time>2022-08-19T19:00:00Z</time>
      </trkpt>
      <trkpt lat="44.13648" lon="6.68739">
        <ele>1978.5999755859</ele>
        <time>2022-08-19T19:00:04Z</time>
      </trkpt>
      <trkpt lat="44.13648" lon="6.68739">
        <ele>1978.5999755859</ele>
        <time>2022-08-19T19:00:06Z</time>
      </trkpt>
      <trkpt lat="44.13648" lon="6.68738">
        <ele>1978.5999755859</ele>
        <time>2022-08-19T19:00:13Z</time>
      </trkpt>
      <trkpt lat="44.13647" lon="6.68738">
        <ele>1978.4000244141</ele>
        <time>2022-08-19T19:00:17Z</time>
      </trkpt>
      <trkpt lat="44.13647" lon="6.68739">
        <ele>1978.1999511719</ele>
        <time>2022-08-19T19:00:26Z</time>
      </trkpt>
      <trkpt lat="44.13647" lon="6.68742">
        <ele>1978.1999511719</ele>
        <time>2022-08-19T19:00:37Z</time>
      </trkpt>
      <trkpt lat="44.13648" lon="6.68743">
        <ele>1978.1999511719</ele>
        <time>2022-08-19T19:00:40Z</time>
      </trkpt>
      <trkpt lat="44.1365" lon="6.6874">
        <ele>1978</ele>
        <time>2022-08-19T19:00:47Z</time>
      </trkpt>
      <trkpt lat="44.13651" lon="6.68741">
        <ele>1977.8000488281</ele>
        <time>2022-08-19T19:00:49Z</time>
      </trkpt>
      <trkpt lat="44.13652" lon="6.68741">
        <ele>1977.8000488281</ele>
        <time>2022-08-19T19:00:51Z</time>
      </trkpt>
      <trkpt lat="44.13652" lon="6.68741">
        <ele>1978</ele>
        <time>2022-08-19T19:00:55Z</time>
      </trkpt>
      <trkpt lat="44.1365" lon="6.68742">
        <ele>1978</ele>
        <time>2022-08-19T19:00:59Z</time>
      </trkpt>
      <trkpt lat="44.1365" lon="6.68742">
        <ele>1978</ele>
        <time>2022-08-19T19:01:01Z</time>
      </trkpt>
      <trkpt lat="44.13651" lon="6.68742">
        <ele>1978</ele>
        <time>2022-08-19T19:01:04Z</time>
      </trkpt>
      <trkpt lat="44.13652" lon="6.68747">
        <ele>1978</ele>
        <time>2022-08-19T19:01:10Z</time>
      </trkpt>
      <trkpt lat="44.13652" lon="6.6875">
        <ele>1978</ele>
        <time>2022-08-19T19:01:13Z</time>
      </trkpt>
      <trkpt lat="44.13652" lon="6.6875">
        <ele>1978</ele>
        <time>2022-08-19T19:01:15Z</time>
      </trkpt>
      <trkpt lat="44.13651" lon="6.6875">
        <ele>1978</ele>
        <time>2022-08-19T19:01:18Z</time>
      </trkpt>
      <trkpt lat="44.13651" lon="6.6875">
        <ele>1978</ele>
        <time>2022-08-19T19:01:22Z</time>
      </trkpt>
      <trkpt lat="44.1365" lon="6.68748">
        <ele>1978</ele>
        <time>2022-08-19T19:01:31Z</time>
      </trkpt>
      <trkpt lat="44.1365" lon="6.68748">
        <ele>1978</ele>
        <time>2022-08-19T19:01:33Z</time>
      </trkpt>
      <trkpt lat="44.13651" lon="6.68744">
        <ele>1972.1999511719</ele>
        <time>2022-08-20T06:10:32Z</time>
      </trkpt>
      <trkpt lat="44.1365" lon="6.68745">
        <ele>1972.1999511719</ele>
        <time>2022-08-20T06:10:33Z</time>
      </trkpt>
      <trkpt lat="44.13651" lon="6.68747">
        <ele>1972.1999511719</ele>
        <time>2022-08-20T06:10:41Z</time>
      </trkpt>
      <trkpt lat="44.1365" lon="6.68746">
        <ele>1972.1999511719</ele>
        <time>2022-08-20T06:10:47Z</time>
      </trkpt>
      <trkpt lat="44.13652" lon="6.68744">
        <ele>1972.1999511719</ele>
        <time>2022-08-20T06:10:56Z</time>
      </trkpt>
      <trkpt lat="44.13652" lon="6.68744">
        <ele>1972.1999511719</ele>
        <time>2022-08-20T06:11:02Z</time>
      </trkpt>
      <trkpt lat="44.13653" lon="6.68744">
        <ele>1972.1999511719</ele>
        <time>2022-08-20T06:11:09Z</time>
      </trkpt>
      <trkpt lat="44.13654" lon="6.68745">
        <ele>1972.1999511719</ele>
        <time>2022-08-20T06:11:17Z</time>
      </trkpt>
      <trkpt lat="44.13654" lon="6.68745">
        <ele>1972.1999511719</ele>
        <time>2022-08-20T06:11:22Z</time>
      </trkpt>
      <trkpt lat="44.13654" lon="6.68744">
        <ele>1972.1999511719</ele>
        <time>2022-08-20T06:11:23Z</time>
      </trkpt>
      <trkpt lat="44.13653" lon="6.68741">
        <ele>1972.1999511719</ele>
        <time>2022-08-20T06:11:25Z</time>
      </trkpt>
      <trkpt lat="44.13645" lon="6.68739">
        <ele>1972.1999511719</ele>
        <time>2022-08-20T06:11:30Z</time>
      </trkpt>
      <trkpt lat="44.13641" lon="6.68739">
        <ele>1972.1999511719</ele>
        <time>2022-08-20T06:11:32Z</time>
      </trkpt>
      <trkpt lat="44.13636" lon="6.68741">
        <ele>1972.1999511719</ele>
        <time>2022-08-20T06:11:35Z</time>
      </trkpt>
      <trkpt lat="44.13629" lon="6.68743">
        <ele>1972.8000488281</ele>
        <time>2022-08-20T06:11:39Z</time>
      </trkpt>
      <trkpt lat="44.13627" lon="6.68746">
        <ele>1973.1999511719</ele>
        <time>2022-08-20T06:11:41Z</time>
      </trkpt>
      <trkpt lat="44.13622" lon="6.68751">
        <ele>1973.5999755859</ele>
        <time>2022-08-20T06:11:44Z</time>
      </trkpt>
      <trkpt lat="44.1362" lon="6.68754">
        <ele>1973.5999755859</ele>
        <time>2022-08-20T06:11:46Z</time>
      </trkpt>
      <trkpt lat="44.13612" lon="6.68761">
        <ele>1974</ele>
        <time>2022-08-20T06:11:51Z</time>
      </trkpt>
      <trkpt lat="44.13608" lon="6.68764">
        <ele>1974</ele>
        <time>2022-08-20T06:11:53Z</time>
      </trkpt>
      <trkpt lat="44.13606" lon="6.68766">
        <ele>1974</ele>
        <time>2022-08-20T06:11:54Z</time>
      </trkpt>
      <trkpt lat="44.13602" lon="6.68769">
        <ele>1974</ele>
        <time>2022-08-20T06:11:56Z</time>
      </trkpt>
      <trkpt lat="44.13599" lon="6.68771">
        <ele>1974</ele>
        <time>2022-08-20T06:11:57Z</time>
      </trkpt>
      <trkpt lat="44.13595" lon="6.68773">
        <ele>1974.1999511719</ele>
        <time>2022-08-20T06:11:59Z</time>
      </trkpt>
      <trkpt lat="44.13593" lon="6.68775">
        <ele>1974.1999511719</ele>
        <time>2022-08-20T06:12:00Z</time>
      </trkpt>
      <trkpt lat="44.13591" lon="6.68777">
        <ele>1974.1999511719</ele>
        <time>2022-08-20T06:12:01Z</time>
      </trkpt>
      <trkpt lat="44.13586" lon="6.6878">
        <ele>1974.4000244141</ele>
        <time>2022-08-20T06:12:03Z</time>
      </trkpt>
      <trkpt lat="44.13584" lon="6.68781">
        <ele>1974.4000244141</ele>
        <time>2022-08-20T06:12:04Z</time>
      </trkpt>
      <trkpt lat="44.13576" lon="6.6879">
        <ele>1974.5999755859</ele>
        <time>2022-08-20T06:12:08Z</time>
      </trkpt>
      <trkpt lat="44.13568" lon="6.68797">
        <ele>1975</ele>
        <time>2022-08-20T06:12:12Z</time>
      </trkpt>
      <trkpt lat="44.13564" lon="6.688">
        <ele>1975.4000244141</ele>
        <time>2022-08-20T06:12:14Z</time>
      </trkpt>
      <trkpt lat="44.13559" lon="6.68804">
        <ele>1975.8000488281</ele>
        <time>2022-08-20T06:12:17Z</time>
      </trkpt>
      <trkpt lat="44.13553" lon="6.68808">
        <ele>1976.4000244141</ele>
        <time>2022-08-20T06:12:20Z</time>
      </trkpt>
      <trkpt lat="44.1355" lon="6.6881">
        <ele>1976.8000488281</ele>
        <time>2022-08-20T06:12:22Z</time>
      </trkpt>
      <trkpt lat="44.13546" lon="6.68811">
        <ele>1977.4000244141</ele>
        <time>2022-08-20T06:12:25Z</time>
      </trkpt>
      <trkpt lat="44.13543" lon="6.68813">
        <ele>1978.1999511719</ele>
        <time>2022-08-20T06:12:28Z</time>
      </trkpt>
      <trkpt lat="44.13539" lon="6.68815">
        <ele>1978.5999755859</ele>
        <time>2022-08-20T06:12:30Z</time>
      </trkpt>
      <trkpt lat="44.13531" lon="6.6882">
        <ele>1979.4000244141</ele>
        <time>2022-08-20T06:12:35Z</time>
      </trkpt>
      <trkpt lat="44.13529" lon="6.6882">
        <ele>1979.5999755859</ele>
        <time>2022-08-20T06:12:36Z</time>
      </trkpt>
      <trkpt lat="44.13528" lon="6.68821">
        <ele>1980</ele>
        <time>2022-08-20T06:12:37Z</time>
      </trkpt>
      <trkpt lat="44.13524" lon="6.68823">
        <ele>1980.5999755859</ele>
        <time>2022-08-20T06:12:40Z</time>
      </trkpt>
      <trkpt lat="44.13523" lon="6.68823">
        <ele>1980.8000488281</ele>
        <time>2022-08-20T06:12:41Z</time>
      </trkpt>
      <trkpt lat="44.13522" lon="6.68824">
        <ele>1981</ele>
        <time>2022-08-20T06:12:42Z</time>
      </trkpt>
      <trkpt lat="44.13519" lon="6.68827">
        <ele>1981.4000244141</ele>
        <time>2022-08-20T06:12:44Z</time>
      </trkpt>
      <trkpt lat="44.13513" lon="6.68831">
        <ele>1981.5999755859</ele>
        <time>2022-08-20T06:12:48Z</time>
      </trkpt>
      <trkpt lat="44.13511" lon="6.68832">
        <ele>1981.5999755859</ele>
        <time>2022-08-20T06:12:49Z</time>
      </trkpt>
      <trkpt lat="44.13508" lon="6.68834">
        <ele>1981.8000488281</ele>
        <time>2022-08-20T06:12:51Z</time>
      </trkpt>
      <trkpt lat="44.13506" lon="6.68835">
        <ele>1981.8000488281</ele>
        <time>2022-08-20T06:12:52Z</time>
      </trkpt>
      <trkpt lat="44.13498" lon="6.68842">
        <ele>1982.1999511719</ele>
        <time>2022-08-20T06:12:58Z</time>
      </trkpt>
      <trkpt lat="44.1349" lon="6.68845">
        <ele>1982.8000488281</ele>
        <time>2022-08-20T06:13:02Z</time>
      </trkpt>
      <trkpt lat="44.13487" lon="6.68846">
        <ele>1983.1999511719</ele>
        <time>2022-08-20T06:13:04Z</time>
      </trkpt>
      <trkpt lat="44.13483" lon="6.68848">
        <ele>1983.8000488281</ele>
        <time>2022-08-20T06:13:07Z</time>
      </trkpt>
      <trkpt lat="44.13475" lon="6.68853">
        <ele>1985</ele>
        <time>2022-08-20T06:13:13Z</time>
      </trkpt>
      <trkpt lat="44.13469" lon="6.68858">
        <ele>1985.5999755859</ele>
        <time>2022-08-20T06:13:18Z</time>
      </trkpt>
      <trkpt lat="44.13467" lon="6.68861">
        <ele>1986</ele>
        <time>2022-08-20T06:13:20Z</time>
      </trkpt>
      <trkpt lat="44.13464" lon="6.68866">
        <ele>1986.8000488281</ele>
        <time>2022-08-20T06:13:24Z</time>
      </trkpt>
      <trkpt lat="44.13463" lon="6.68866">
        <ele>1987</ele>
        <time>2022-08-20T06:13:25Z</time>
      </trkpt>
      <trkpt lat="44.13463" lon="6.68867">
        <ele>1987.1999511719</ele>
        <time>2022-08-20T06:13:26Z</time>
      </trkpt>
      <trkpt lat="44.13461" lon="6.68869">
        <ele>1987.5999755859</ele>
        <time>2022-08-20T06:13:30Z</time>
      </trkpt>
      <trkpt lat="44.13459" lon="6.68872">
        <ele>1988.1999511719</ele>
        <time>2022-08-20T06:13:34Z</time>
      </trkpt>
      <trkpt lat="44.13457" lon="6.68873">
        <ele>1988.4000244141</ele>
        <time>2022-08-20T06:13:36Z</time>
      </trkpt>
      <trkpt lat="44.13455" lon="6.68874">
        <ele>1989.1999511719</ele>
        <time>2022-08-20T06:13:40Z</time>
      </trkpt>
      <trkpt lat="44.13448" lon="6.6888">
        <ele>1990.1999511719</ele>
        <time>2022-08-20T06:13:48Z</time>
      </trkpt>
      <trkpt lat="44.13443" lon="6.68885">
        <ele>1991.1999511719</ele>
        <time>2022-08-20T06:13:54Z</time>
      </trkpt>
      <trkpt lat="44.13442" lon="6.68885">
        <ele>1991.4000244141</ele>
        <time>2022-08-20T06:13:55Z</time>
      </trkpt>
      <trkpt lat="44.13436" lon="6.68889">
        <ele>1992.5999755859</ele>
        <time>2022-08-20T06:14:03Z</time>
      </trkpt>
      <trkpt lat="44.13436" lon="6.68889">
        <ele>1992.5999755859</ele>
        <time>2022-08-20T06:14:04Z</time>
      </trkpt>
      <trkpt lat="44.13429" lon="6.68895">
        <ele>1993.4000244141</ele>
        <time>2022-08-20T06:14:14Z</time>
      </trkpt>
      <trkpt lat="44.13429" lon="6.68895">
        <ele>1993.5999755859</ele>
        <time>2022-08-20T06:14:16Z</time>
      </trkpt>
      <trkpt lat="44.13428" lon="6.68895">
        <ele>1993.5999755859</ele>
        <time>2022-08-20T06:14:17Z</time>
      </trkpt>
      <trkpt lat="44.13428" lon="6.68896">
        <ele>1993.8000488281</ele>
        <time>2022-08-20T06:14:22Z</time>
      </trkpt>
      <trkpt lat="44.13423" lon="6.689">
        <ele>1994</ele>
        <time>2022-08-20T06:14:27Z</time>
      </trkpt>
      <trkpt lat="44.1342" lon="6.68902">
        <ele>1994.4000244141</ele>
        <time>2022-08-20T06:14:30Z</time>
      </trkpt>
      <trkpt lat="44.13419" lon="6.68903">
        <ele>1994.5999755859</ele>
        <time>2022-08-20T06:14:31Z</time>
      </trkpt>
      <trkpt lat="44.13419" lon="6.68903">
        <ele>1994.5999755859</ele>
        <time>2022-08-20T06:14:32Z</time>
      </trkpt>
      <trkpt lat="44.13419" lon="6.68905">
        <ele>1995</ele>
        <time>2022-08-20T06:14:36Z</time>
      </trkpt>
      <trkpt lat="44.13416" lon="6.68909">
        <ele>1995.4000244141</ele>
        <time>2022-08-20T06:14:43Z</time>
      </trkpt>
      <trkpt lat="44.13414" lon="6.6891">
        <ele>1995.5999755859</ele>
        <time>2022-08-20T06:14:52Z</time>
      </trkpt>
      <trkpt lat="44.13414" lon="6.6891">
        <ele>1995.5999755859</ele>
        <time>2022-08-20T06:14:54Z</time>
      </trkpt>
      <trkpt lat="44.13414" lon="6.68911">
        <ele>1995.8000488281</ele>
        <time>2022-08-20T06:14:57Z</time>
      </trkpt>
      <trkpt lat="44.13414" lon="6.68911">
        <ele>1995.8000488281</ele>
        <time>2022-08-20T06:14:58Z</time>
      </trkpt>
      <trkpt lat="44.13413" lon="6.68912">
        <ele>1995.8000488281</ele>
        <time>2022-08-20T06:15:00Z</time>
      </trkpt>
      <trkpt lat="44.13411" lon="6.68914">
        <ele>1995.8000488281</ele>
        <time>2022-08-20T06:15:02Z</time>
      </trkpt>
      <trkpt lat="44.1341" lon="6.68915">
        <ele>1995.8000488281</ele>
        <time>2022-08-20T06:15:03Z</time>
      </trkpt>
      <trkpt lat="44.13405" lon="6.6892">
        <ele>1995.8000488281</ele>
        <time>2022-08-20T06:15:07Z</time>
      </trkpt>
      <trkpt lat="44.13403" lon="6.68922">
        <ele>1996</ele>
        <time>2022-08-20T06:15:09Z</time>
      </trkpt>
      <trkpt lat="44.13396" lon="6.68926">
        <ele>1996.5999755859</ele>
        <time>2022-08-20T06:15:14Z</time>
      </trkpt>
      <trkpt lat="44.13395" lon="6.68926">
        <ele>1996.8000488281</ele>
        <time>2022-08-20T06:15:15Z</time>
      </trkpt>
      <trkpt lat="44.13396" lon="6.68926">
        <ele>1997</ele>
        <time>2022-08-20T06:15:16Z</time>
      </trkpt>
      <trkpt lat="44.13394" lon="6.68928">
        <ele>1997.5999755859</ele>
        <time>2022-08-20T06:15:20Z</time>
      </trkpt>
      <trkpt lat="44.13393" lon="6.6893">
        <ele>1997.8000488281</ele>
        <time>2022-08-20T06:15:22Z</time>
      </trkpt>
      <trkpt lat="44.1339" lon="6.68931">
        <ele>1998.4000244141</ele>
        <time>2022-08-20T06:15:25Z</time>
      </trkpt>
      <trkpt lat="44.13386" lon="6.68932">
        <ele>1998.8000488281</ele>
        <time>2022-08-20T06:15:28Z</time>
      </trkpt>
      <trkpt lat="44.13385" lon="6.68932">
        <ele>1998.8000488281</ele>
        <time>2022-08-20T06:15:29Z</time>
      </trkpt>
      <trkpt lat="44.13379" lon="6.68935">
        <ele>2000</ele>
        <time>2022-08-20T06:15:35Z</time>
      </trkpt>
      <trkpt lat="44.13376" lon="6.68937">
        <ele>2000.4000244141</ele>
        <time>2022-08-20T06:15:38Z</time>
      </trkpt>
      <trkpt lat="44.13374" lon="6.68937">
        <ele>2001</ele>
        <time>2022-08-20T06:15:42Z</time>
      </trkpt>
      <trkpt lat="44.1337" lon="6.68939">
        <ele>2001.4000244141</ele>
        <time>2022-08-20T06:15:47Z</time>
      </trkpt>
      <trkpt lat="44.13369" lon="6.68939">
        <ele>2001.8000488281</ele>
        <time>2022-08-20T06:15:53Z</time>
      </trkpt>
      <trkpt lat="44.13362" lon="6.68945">
        <ele>2001.8000488281</ele>
        <time>2022-08-20T06:15:58Z</time>
      </trkpt>
      <trkpt lat="44.1336" lon="6.68948">
        <ele>2002</ele>
        <time>2022-08-20T06:16:00Z</time>
      </trkpt>
      <trkpt lat="44.13357" lon="6.68949">
        <ele>2002.1999511719</ele>
        <time>2022-08-20T06:16:02Z</time>
      </trkpt>
      <trkpt lat="44.1335" lon="6.68957">
        <ele>2002.5999755859</ele>
        <time>2022-08-20T06:16:08Z</time>
      </trkpt>
      <trkpt lat="44.13341" lon="6.68968">
        <ele>2003</ele>
        <time>2022-08-20T06:16:15Z</time>
      </trkpt>
      <trkpt lat="44.1334" lon="6.6897">
        <ele>2003.1999511719</ele>
        <time>2022-08-20T06:16:16Z</time>
      </trkpt>
      <trkpt lat="44.13333" lon="6.68981">
        <ele>2004</ele>
        <time>2022-08-20T06:16:23Z</time>
      </trkpt>
      <trkpt lat="44.13332" lon="6.68982">
        <ele>2004.1999511719</ele>
        <time>2022-08-20T06:16:24Z</time>
      </trkpt>
      <trkpt lat="44.1333" lon="6.68986">
        <ele>2004.1999511719</ele>
        <time>2022-08-20T06:16:26Z</time>
      </trkpt>
      <trkpt lat="44.13324" lon="6.6899">
        <ele>2005</ele>
        <time>2022-08-20T06:16:30Z</time>
      </trkpt>
      <trkpt lat="44.1332" lon="6.68992">
        <ele>2005.1999511719</ele>
        <time>2022-08-20T06:16:32Z</time>
      </trkpt>
      <trkpt lat="44.13319" lon="6.68994">
        <ele>2005.4000244141</ele>
        <time>2022-08-20T06:16:33Z</time>
      </trkpt>
      <trkpt lat="44.13314" lon="6.68999">
        <ele>2006.1999511719</ele>
        <time>2022-08-20T06:16:37Z</time>
      </trkpt>
      <trkpt lat="44.13312" lon="6.69">
        <ele>2006.4000244141</ele>
        <time>2022-08-20T06:16:38Z</time>
      </trkpt>
      <trkpt lat="44.13307" lon="6.69004">
        <ele>2007</ele>
        <time>2022-08-20T06:16:42Z</time>
      </trkpt>
      <trkpt lat="44.13301" lon="6.69008">
        <ele>2007.4000244141</ele>
        <time>2022-08-20T06:16:46Z</time>
      </trkpt>
      <trkpt lat="44.13298" lon="6.69012">
        <ele>2008</ele>
        <time>2022-08-20T06:16:49Z</time>
      </trkpt>
      <trkpt lat="44.13294" lon="6.69016">
        <ele>2008.5999755859</ele>
        <time>2022-08-20T06:16:52Z</time>
      </trkpt>
      <trkpt lat="44.1329" lon="6.69019">
        <ele>2009.1999511719</ele>
        <time>2022-08-20T06:16:55Z</time>
      </trkpt>
      <trkpt lat="44.13287" lon="6.69022">
        <ele>2009.5999755859</ele>
        <time>2022-08-20T06:16:58Z</time>
      </trkpt>
      <trkpt lat="44.13277" lon="6.69029">
        <ele>2010</ele>
        <time>2022-08-20T06:17:05Z</time>
      </trkpt>
      <trkpt lat="44.13265" lon="6.69041">
        <ele>2010</ele>
        <time>2022-08-20T06:17:12Z</time>
      </trkpt>
      <trkpt lat="44.1325" lon="6.69048">
        <ele>2010.8000488281</ele>
        <time>2022-08-20T06:17:20Z</time>
      </trkpt>
      <trkpt lat="44.13235" lon="6.69058">
        <ele>2011.8000488281</ele>
        <time>2022-08-20T06:17:28Z</time>
      </trkpt>
      <trkpt lat="44.13231" lon="6.6906">
        <ele>2011.8000488281</ele>
        <time>2022-08-20T06:17:30Z</time>
      </trkpt>
      <trkpt lat="44.1322" lon="6.69067">
        <ele>2012.4000244141</ele>
        <time>2022-08-20T06:17:36Z</time>
      </trkpt>
      <trkpt lat="44.13217" lon="6.6907">
        <ele>2012.8000488281</ele>
        <time>2022-08-20T06:17:38Z</time>
      </trkpt>
      <trkpt lat="44.13209" lon="6.69077">
        <ele>2013.1999511719</ele>
        <time>2022-08-20T06:17:42Z</time>
      </trkpt>
      <trkpt lat="44.13201" lon="6.69081">
        <ele>2014</ele>
        <time>2022-08-20T06:17:46Z</time>
      </trkpt>
      <trkpt lat="44.13198" lon="6.69085">
        <ele>2014.4000244141</ele>
        <time>2022-08-20T06:17:48Z</time>
      </trkpt>
      <trkpt lat="44.13195" lon="6.69088">
        <ele>2014.8000488281</ele>
        <time>2022-08-20T06:17:50Z</time>
      </trkpt>
      <trkpt lat="44.13193" lon="6.69089">
        <ele>2015</ele>
        <time>2022-08-20T06:17:51Z</time>
      </trkpt>
      <trkpt lat="44.13191" lon="6.69091">
        <ele>2015.1999511719</ele>
        <time>2022-08-20T06:17:52Z</time>
      </trkpt>
      <trkpt lat="44.13187" lon="6.69092">
        <ele>2015.5999755859</ele>
        <time>2022-08-20T06:17:54Z</time>
      </trkpt>
      <trkpt lat="44.13185" lon="6.69093">
        <ele>2015.8000488281</ele>
        <time>2022-08-20T06:17:55Z</time>
      </trkpt>
      <trkpt lat="44.13181" lon="6.69096">
        <ele>2016.1999511719</ele>
        <time>2022-08-20T06:17:58Z</time>
      </trkpt>
      <trkpt lat="44.13178" lon="6.69097">
        <ele>2016.5999755859</ele>
        <time>2022-08-20T06:18:00Z</time>
      </trkpt>
      <trkpt lat="44.13169" lon="6.69104">
        <ele>2017.1999511719</ele>
        <time>2022-08-20T06:18:06Z</time>
      </trkpt>
      <trkpt lat="44.13165" lon="6.69107">
        <ele>2017.5999755859</ele>
        <time>2022-08-20T06:18:08Z</time>
      </trkpt>
      <trkpt lat="44.13162" lon="6.69109">
        <ele>2017.8000488281</ele>
        <time>2022-08-20T06:18:10Z</time>
      </trkpt>
      <trkpt lat="44.1316" lon="6.69111">
        <ele>2018.1999511719</ele>
        <time>2022-08-20T06:18:12Z</time>
      </trkpt>
      <trkpt lat="44.13158" lon="6.69113">
        <ele>2018.1999511719</ele>
        <time>2022-08-20T06:18:13Z</time>
      </trkpt>
      <trkpt lat="44.13157" lon="6.69115">
        <ele>2018.4000244141</ele>
        <time>2022-08-20T06:18:14Z</time>
      </trkpt>
      <trkpt lat="44.13156" lon="6.69116">
        <ele>2018.5999755859</ele>
        <time>2022-08-20T06:18:15Z</time>
      </trkpt>
      <trkpt lat="44.13151" lon="6.69121">
        <ele>2019.4000244141</ele>
        <time>2022-08-20T06:18:19Z</time>
      </trkpt>
      <trkpt lat="44.13147" lon="6.69124">
        <ele>2019.8000488281</ele>
        <time>2022-08-20T06:18:22Z</time>
      </trkpt>
      <trkpt lat="44.13139" lon="6.69131">
        <ele>2020.4000244141</ele>
        <time>2022-08-20T06:18:27Z</time>
      </trkpt>
      <trkpt lat="44.13134" lon="6.69134">
        <ele>2020.8000488281</ele>
        <time>2022-08-20T06:18:30Z</time>
      </trkpt>
      <trkpt lat="44.13127" lon="6.6914">
        <ele>2021.4000244141</ele>
        <time>2022-08-20T06:18:35Z</time>
      </trkpt>
      <trkpt lat="44.1312" lon="6.69145">
        <ele>2022.1999511719</ele>
        <time>2022-08-20T06:18:39Z</time>
      </trkpt>
      <trkpt lat="44.13117" lon="6.69148">
        <ele>2022.4000244141</ele>
        <time>2022-08-20T06:18:41Z</time>
      </trkpt>
      <trkpt lat="44.13108" lon="6.69151">
        <ele>2023.4000244141</ele>
        <time>2022-08-20T06:18:47Z</time>
      </trkpt>
      <trkpt lat="44.13107" lon="6.69152">
        <ele>2023.5999755859</ele>
        <time>2022-08-20T06:18:48Z</time>
      </trkpt>
      <trkpt lat="44.13102" lon="6.69154">
        <ele>2024.5999755859</ele>
        <time>2022-08-20T06:18:53Z</time>
      </trkpt>
      <trkpt lat="44.13101" lon="6.69155">
        <ele>2024.8000488281</ele>
        <time>2022-08-20T06:18:54Z</time>
      </trkpt>
      <trkpt lat="44.13095" lon="6.6916">
        <ele>2025.8000488281</ele>
        <time>2022-08-20T06:18:59Z</time>
      </trkpt>
      <trkpt lat="44.13094" lon="6.6916">
        <ele>2026</ele>
        <time>2022-08-20T06:19:00Z</time>
      </trkpt>
      <trkpt lat="44.13087" lon="6.69161">
        <ele>2027</ele>
        <time>2022-08-20T06:19:05Z</time>
      </trkpt>
      <trkpt lat="44.13084" lon="6.69162">
        <ele>2027.5999755859</ele>
        <time>2022-08-20T06:19:08Z</time>
      </trkpt>
      <trkpt lat="44.13081" lon="6.69164">
        <ele>2028</ele>
        <time>2022-08-20T06:19:10Z</time>
      </trkpt>
      <trkpt lat="44.13074" lon="6.69165">
        <ele>2029</ele>
        <time>2022-08-20T06:19:16Z</time>
      </trkpt>
      <trkpt lat="44.13073" lon="6.69165">
        <ele>2029.1999511719</ele>
        <time>2022-08-20T06:19:17Z</time>
      </trkpt>
      <trkpt lat="44.13062" lon="6.69171">
        <ele>2029.8000488281</ele>
        <time>2022-08-20T06:19:25Z</time>
      </trkpt>
      <trkpt lat="44.13056" lon="6.69174">
        <ele>2030.1999511719</ele>
        <time>2022-08-20T06:19:29Z</time>
      </trkpt>
      <trkpt lat="44.13051" lon="6.69176">
        <ele>2030.5999755859</ele>
        <time>2022-08-20T06:19:33Z</time>
      </trkpt>
      <trkpt lat="44.13047" lon="6.69178">
        <ele>2031.1999511719</ele>
        <time>2022-08-20T06:19:36Z</time>
      </trkpt>
      <trkpt lat="44.1304" lon="6.69178">
        <ele>2031.4000244141</ele>
        <time>2022-08-20T06:19:40Z</time>
      </trkpt>
      <trkpt lat="44.13031" lon="6.6918">
        <ele>2032</ele>
        <time>2022-08-20T06:19:46Z</time>
      </trkpt>
      <trkpt lat="44.13027" lon="6.69179">
        <ele>2032</ele>
        <time>2022-08-20T06:19:48Z</time>
      </trkpt>
      <trkpt lat="44.13026" lon="6.69179">
        <ele>2032</ele>
        <time>2022-08-20T06:19:49Z</time>
      </trkpt>
      <trkpt lat="44.13024" lon="6.69179">
        <ele>2032.1999511719</ele>
        <time>2022-08-20T06:19:50Z</time>
      </trkpt>
      <trkpt lat="44.13015" lon="6.69177">
        <ele>2032.8000488281</ele>
        <time>2022-08-20T06:19:58Z</time>
      </trkpt>
      <trkpt lat="44.1301" lon="6.69178">
        <ele>2033.1999511719</ele>
        <time>2022-08-20T06:20:02Z</time>
      </trkpt>
      <trkpt lat="44.13009" lon="6.69179">
        <ele>2033.1999511719</ele>
        <time>2022-08-20T06:20:03Z</time>
      </trkpt>
      <trkpt lat="44.1301" lon="6.69181">
        <ele>2033.4000244141</ele>
        <time>2022-08-20T06:20:07Z</time>
      </trkpt>
      <trkpt lat="44.1301" lon="6.69181">
        <ele>2033.5999755859</ele>
        <time>2022-08-20T06:20:08Z</time>
      </trkpt>
      <trkpt lat="44.13009" lon="6.69183">
        <ele>2033.4000244141</ele>
        <time>2022-08-20T06:20:14Z</time>
      </trkpt>
      <trkpt lat="44.13009" lon="6.69186">
        <ele>2034</ele>
        <time>2022-08-20T06:20:22Z</time>
      </trkpt>
      <trkpt lat="44.13009" lon="6.69186">
        <ele>2033.8000488281</ele>
        <time>2022-08-20T06:20:25Z</time>
      </trkpt>
      <trkpt lat="44.13009" lon="6.69186">
        <ele>2033.8000488281</ele>
        <time>2022-08-20T06:20:27Z</time>
      </trkpt>
      <trkpt lat="44.13009" lon="6.69185">
        <ele>2034</ele>
        <time>2022-08-20T06:20:35Z</time>
      </trkpt>
      <trkpt lat="44.13009" lon="6.69184">
        <ele>2034</ele>
        <time>2022-08-20T06:20:43Z</time>
      </trkpt>
      <trkpt lat="44.13008" lon="6.69183">
        <ele>2034</ele>
        <time>2022-08-20T06:20:46Z</time>
      </trkpt>
      <trkpt lat="44.13008" lon="6.69183">
        <ele>2033.8000488281</ele>
        <time>2022-08-20T06:20:48Z</time>
      </trkpt>
      <trkpt lat="44.13008" lon="6.69183">
        <ele>2033.8000488281</ele>
        <time>2022-08-20T06:20:51Z</time>
      </trkpt>
      <trkpt lat="44.13008" lon="6.69182">
        <ele>2034.1999511719</ele>
        <time>2022-08-20T06:21:03Z</time>
      </trkpt>
      <trkpt lat="44.13008" lon="6.69182">
        <ele>2034.1999511719</ele>
        <time>2022-08-20T06:21:06Z</time>
      </trkpt>
      <trkpt lat="44.13008" lon="6.69182">
        <ele>2034.1999511719</ele>
        <time>2022-08-20T06:21:08Z</time>
      </trkpt>
      <trkpt lat="44.13009" lon="6.69179">
        <ele>2033.5999755859</ele>
        <time>2022-08-20T06:21:20Z</time>
      </trkpt>
      <trkpt lat="44.13002" lon="6.69177">
        <ele>2033.5999755859</ele>
        <time>2022-08-20T06:21:25Z</time>
      </trkpt>
      <trkpt lat="44.12999" lon="6.69176">
        <ele>2031</ele>
        <time>2022-08-20T06:21:26Z</time>
      </trkpt>
      <trkpt lat="44.12992" lon="6.69175">
        <ele>2031</ele>
        <time>2022-08-20T06:21:28Z</time>
      </trkpt>
      <trkpt lat="44.12983" lon="6.69173">
        <ele>2030.8000488281</ele>
        <time>2022-08-20T06:21:31Z</time>
      </trkpt>
      <trkpt lat="44.12982" lon="6.69176">
        <ele>2030.8000488281</ele>
        <time>2022-08-20T06:21:32Z</time>
      </trkpt>
      <trkpt lat="44.1298" lon="6.69178">
        <ele>2030.5999755859</ele>
        <time>2022-08-20T06:21:33Z</time>
      </trkpt>
      <trkpt lat="44.12976" lon="6.69182">
        <ele>2030.5999755859</ele>
        <time>2022-08-20T06:21:36Z</time>
      </trkpt>
      <trkpt lat="44.12966" lon="6.69184">
        <ele>2030.8000488281</ele>
        <time>2022-08-20T06:21:41Z</time>
      </trkpt>
      <trkpt lat="44.12947" lon="6.69192">
        <ele>2030.8000488281</ele>
        <time>2022-08-20T06:21:48Z</time>
      </trkpt>
      <trkpt lat="44.12942" lon="6.69194">
        <ele>2031.1999511719</ele>
        <time>2022-08-20T06:21:51Z</time>
      </trkpt>
      <trkpt lat="44.12941" lon="6.69196">
        <ele>2031.4000244141</ele>
        <time>2022-08-20T06:21:52Z</time>
      </trkpt>
      <trkpt lat="44.12937" lon="6.69197">
        <ele>2031.4000244141</ele>
        <time>2022-08-20T06:21:54Z</time>
      </trkpt>
      <trkpt lat="44.12928" lon="6.69203">
        <ele>2031.4000244141</ele>
        <time>2022-08-20T06:21:58Z</time>
      </trkpt>
      <trkpt lat="44.1292" lon="6.69205">
        <ele>2031.5999755859</ele>
        <time>2022-08-20T06:22:02Z</time>
      </trkpt>
      <trkpt lat="44.12914" lon="6.69205">
        <ele>2032</ele>
        <time>2022-08-20T06:22:05Z</time>
      </trkpt>
      <trkpt lat="44.1291" lon="6.69209">
        <ele>2032.1999511719</ele>
        <time>2022-08-20T06:22:08Z</time>
      </trkpt>
      <trkpt lat="44.12904" lon="6.69216">
        <ele>2032.5999755859</ele>
        <time>2022-08-20T06:22:12Z</time>
      </trkpt>
      <trkpt lat="44.129" lon="6.69218">
        <ele>2033</ele>
        <time>2022-08-20T06:22:15Z</time>
      </trkpt>
      <trkpt lat="44.12899" lon="6.69218">
        <ele>2033.1999511719</ele>
        <time>2022-08-20T06:22:17Z</time>
      </trkpt>
      <trkpt lat="44.12899" lon="6.69218">
        <ele>2033.1999511719</ele>
        <time>2022-08-20T06:22:18Z</time>
      </trkpt>
      <trkpt lat="44.12898" lon="6.69219">
        <ele>2033.4000244141</ele>
        <time>2022-08-20T06:22:19Z</time>
      </trkpt>
      <trkpt lat="44.12896" lon="6.69221">
        <ele>2033.4000244141</ele>
        <time>2022-08-20T06:22:22Z</time>
      </trkpt>
      <trkpt lat="44.12892" lon="6.6922">
        <ele>2034.1999511719</ele>
        <time>2022-08-20T06:22:29Z</time>
      </trkpt>
      <trkpt lat="44.12891" lon="6.6922">
        <ele>2034.4000244141</ele>
        <time>2022-08-20T06:22:31Z</time>
      </trkpt>
      <trkpt lat="44.1289" lon="6.69221">
        <ele>2035</ele>
        <time>2022-08-20T06:22:38Z</time>
      </trkpt>
      <trkpt lat="44.12889" lon="6.6922">
        <ele>2035.1999511719</ele>
        <time>2022-08-20T06:22:45Z</time>
      </trkpt>
      <trkpt lat="44.1289" lon="6.69215">
        <ele>2035.1999511719</ele>
        <time>2022-08-20T06:22:51Z</time>
      </trkpt>
      <trkpt lat="44.12889" lon="6.69215">
        <ele>2035.1999511719</ele>
        <time>2022-08-20T06:22:55Z</time>
      </trkpt>
      <trkpt lat="44.12887" lon="6.69216">
        <ele>2035.1999511719</ele>
        <time>2022-08-20T06:22:56Z</time>
      </trkpt>
      <trkpt lat="44.1288" lon="6.6922">
        <ele>2035.5999755859</ele>
        <time>2022-08-20T06:23:00Z</time>
      </trkpt>
      <trkpt lat="44.12877" lon="6.69223">
        <ele>2036.1999511719</ele>
        <time>2022-08-20T06:23:03Z</time>
      </trkpt>
      <trkpt lat="44.12876" lon="6.69224">
        <ele>2036.4000244141</ele>
        <time>2022-08-20T06:23:04Z</time>
      </trkpt>
      <trkpt lat="44.12876" lon="6.69226">
        <ele>2036.5999755859</ele>
        <time>2022-08-20T06:23:07Z</time>
      </trkpt>
      <trkpt lat="44.12873" lon="6.69229">
        <ele>2036.8000488281</ele>
        <time>2022-08-20T06:23:10Z</time>
      </trkpt>
      <trkpt lat="44.12869" lon="6.69236">
        <ele>2037.5999755859</ele>
        <time>2022-08-20T06:23:14Z</time>
      </trkpt>
      <trkpt lat="44.12868" lon="6.69237">
        <ele>2037.8000488281</ele>
        <time>2022-08-20T06:23:15Z</time>
      </trkpt>
      <trkpt lat="44.12864" lon="6.69242">
        <ele>2038.5999755859</ele>
        <time>2022-08-20T06:23:19Z</time>
      </trkpt>
      <trkpt lat="44.12857" lon="6.69252">
        <ele>2039</ele>
        <time>2022-08-20T06:23:24Z</time>
      </trkpt>
      <trkpt lat="44.12852" lon="6.69258">
        <ele>2039.1999511719</ele>
        <time>2022-08-20T06:23:27Z</time>
      </trkpt>
      <trkpt lat="44.12846" lon="6.6926">
        <ele>2039.5999755859</ele>
        <time>2022-08-20T06:23:30Z</time>
      </trkpt>
      <trkpt lat="44.12845" lon="6.6926">
        <ele>2039.5999755859</ele>
        <time>2022-08-20T06:23:31Z</time>
      </trkpt>
      <trkpt lat="44.12843" lon="6.6926">
        <ele>2039.8000488281</ele>
        <time>2022-08-20T06:23:32Z</time>
      </trkpt>
      <trkpt lat="44.1284" lon="6.69263">
        <ele>2040</ele>
        <time>2022-08-20T06:23:34Z</time>
      </trkpt>
      <trkpt lat="44.12838" lon="6.69264">
        <ele>2040</ele>
        <time>2022-08-20T06:23:35Z</time>
      </trkpt>
      <trkpt lat="44.12835" lon="6.69267">
        <ele>2040.1999511719</ele>
        <time>2022-08-20T06:23:37Z</time>
      </trkpt>
      <trkpt lat="44.12831" lon="6.69273">
        <ele>2040.1999511719</ele>
        <time>2022-08-20T06:23:40Z</time>
      </trkpt>
      <trkpt lat="44.12828" lon="6.69278">
        <ele>2040.4000244141</ele>
        <time>2022-08-20T06:23:43Z</time>
      </trkpt>
      <trkpt lat="44.12825" lon="6.69282">
        <ele>2040.5999755859</ele>
        <time>2022-08-20T06:23:45Z</time>
      </trkpt>
      <trkpt lat="44.12814" lon="6.6929">
        <ele>2041.1999511719</ele>
        <time>2022-08-20T06:23:51Z</time>
      </trkpt>
      <trkpt lat="44.12803" lon="6.69302">
        <ele>2041.5999755859</ele>
        <time>2022-08-20T06:23:57Z</time>
      </trkpt>
      <trkpt lat="44.12801" lon="6.69304">
        <ele>2041.5999755859</ele>
        <time>2022-08-20T06:23:58Z</time>
      </trkpt>
      <trkpt lat="44.12791" lon="6.69315">
        <ele>2042.4000244141</ele>
        <time>2022-08-20T06:24:04Z</time>
      </trkpt>
      <trkpt lat="44.12788" lon="6.69319">
        <ele>2042.5999755859</ele>
        <time>2022-08-20T06:24:06Z</time>
      </trkpt>
      <trkpt lat="44.12786" lon="6.69321">
        <ele>2042.5999755859</ele>
        <time>2022-08-20T06:24:07Z</time>
      </trkpt>
      <trkpt lat="44.12783" lon="6.69324">
        <ele>2043</ele>
        <time>2022-08-20T06:24:09Z</time>
      </trkpt>
      <trkpt lat="44.12779" lon="6.69325">
        <ele>2043.1999511719</ele>
        <time>2022-08-20T06:24:11Z</time>
      </trkpt>
      <trkpt lat="44.12777" lon="6.69327">
        <ele>2043.4000244141</ele>
        <time>2022-08-20T06:24:12Z</time>
      </trkpt>
      <trkpt lat="44.12776" lon="6.69328">
        <ele>2043.4000244141</ele>
        <time>2022-08-20T06:24:13Z</time>
      </trkpt>
      <trkpt lat="44.12772" lon="6.69331">
        <ele>2043.5999755859</ele>
        <time>2022-08-20T06:24:15Z</time>
      </trkpt>
      <trkpt lat="44.1277" lon="6.69333">
        <ele>2043.8000488281</ele>
        <time>2022-08-20T06:24:16Z</time>
      </trkpt>
      <trkpt lat="44.12769" lon="6.69336">
        <ele>2043.8000488281</ele>
        <time>2022-08-20T06:24:17Z</time>
      </trkpt>
      <trkpt lat="44.12767" lon="6.69337">
        <ele>2044</ele>
        <time>2022-08-20T06:24:18Z</time>
      </trkpt>
      <trkpt lat="44.12763" lon="6.69341">
        <ele>2044</ele>
        <time>2022-08-20T06:24:20Z</time>
      </trkpt>
      <trkpt lat="44.12749" lon="6.69359">
        <ele>2044.1999511719</ele>
        <time>2022-08-20T06:24:28Z</time>
      </trkpt>
      <trkpt lat="44.12743" lon="6.69369">
        <ele>2044</ele>
        <time>2022-08-20T06:24:32Z</time>
      </trkpt>
      <trkpt lat="44.12738" lon="6.69377">
        <ele>2044.1999511719</ele>
        <time>2022-08-20T06:24:36Z</time>
      </trkpt>
      <trkpt lat="44.12736" lon="6.69379">
        <ele>2044.1999511719</ele>
        <time>2022-08-20T06:24:37Z</time>
      </trkpt>
      <trkpt lat="44.12733" lon="6.69383">
        <ele>2044.4000244141</ele>
        <time>2022-08-20T06:24:39Z</time>
      </trkpt>
      <trkpt lat="44.12728" lon="6.69387">
        <ele>2044.5999755859</ele>
        <time>2022-08-20T06:24:42Z</time>
      </trkpt>
      <trkpt lat="44.12726" lon="6.69389">
        <ele>2044.8000488281</ele>
        <time>2022-08-20T06:24:43Z</time>
      </trkpt>
      <trkpt lat="44.12724" lon="6.69393">
        <ele>2045.1999511719</ele>
        <time>2022-08-20T06:24:45Z</time>
      </trkpt>
      <trkpt lat="44.12722" lon="6.69398">
        <ele>2045.4000244141</ele>
        <time>2022-08-20T06:24:47Z</time>
      </trkpt>
      <trkpt lat="44.12719" lon="6.69403">
        <ele>2045.4000244141</ele>
        <time>2022-08-20T06:24:49Z</time>
      </trkpt>
      <trkpt lat="44.12708" lon="6.69422">
        <ele>2045.1999511719</ele>
        <time>2022-08-20T06:24:56Z</time>
      </trkpt>
      <trkpt lat="44.12695" lon="6.69433">
        <ele>2044</ele>
        <time>2022-08-20T06:25:02Z</time>
      </trkpt>
      <trkpt lat="44.12686" lon="6.69443">
        <ele>2044.4000244141</ele>
        <time>2022-08-20T06:25:08Z</time>
      </trkpt>
      <trkpt lat="44.12669" lon="6.69453">
        <ele>2045.1999511719</ele>
        <time>2022-08-20T06:25:17Z</time>
      </trkpt>
      <trkpt lat="44.12667" lon="6.69453">
        <ele>2045.1999511719</ele>
        <time>2022-08-20T06:25:19Z</time>
      </trkpt>
      <trkpt lat="44.12667" lon="6.69452">
        <ele>2045.4000244141</ele>
        <time>2022-08-20T06:25:21Z</time>
      </trkpt>
      <trkpt lat="44.12667" lon="6.69452">
        <ele>2045.4000244141</ele>
        <time>2022-08-20T06:25:22Z</time>
      </trkpt>
      <trkpt lat="44.12667" lon="6.69452">
        <ele>2045.4000244141</ele>
        <time>2022-08-20T06:25:26Z</time>
      </trkpt>
      <trkpt lat="44.12667" lon="6.69452">
        <ele>2045.1999511719</ele>
        <time>2022-08-20T06:25:32Z</time>
      </trkpt>
      <trkpt lat="44.12668" lon="6.69452">
        <ele>2045.4000244141</ele>
        <time>2022-08-20T06:25:35Z</time>
      </trkpt>
      <trkpt lat="44.12668" lon="6.69452">
        <ele>2045.4000244141</ele>
        <time>2022-08-20T06:25:37Z</time>
      </trkpt>
      <trkpt lat="44.12668" lon="6.69452">
        <ele>2045.4000244141</ele>
        <time>2022-08-20T06:25:39Z</time>
      </trkpt>
      <trkpt lat="44.12668" lon="6.69452">
        <ele>2045.1999511719</ele>
        <time>2022-08-20T06:25:46Z</time>
      </trkpt>
      <trkpt lat="44.12669" lon="6.69453">
        <ele>2045.8000488281</ele>
        <time>2022-08-20T06:26:00Z</time>
      </trkpt>
      <trkpt lat="44.12668" lon="6.69451">
        <ele>2045.8000488281</ele>
        <time>2022-08-20T06:26:01Z</time>
      </trkpt>
      <trkpt lat="44.12668" lon="6.69451">
        <ele>2045.4000244141</ele>
        <time>2022-08-20T06:26:09Z</time>
      </trkpt>
      <trkpt lat="44.12668" lon="6.69452">
        <ele>2045.4000244141</ele>
        <time>2022-08-20T06:26:13Z</time>
      </trkpt>
      <trkpt lat="44.1266" lon="6.69455">
        <ele>2045.4000244141</ele>
        <time>2022-08-20T06:26:17Z</time>
      </trkpt>
      <trkpt lat="44.12658" lon="6.69457">
        <ele>2045.4000244141</ele>
        <time>2022-08-20T06:26:18Z</time>
      </trkpt>
      <trkpt lat="44.12639" lon="6.69466">
        <ele>2045</ele>
        <time>2022-08-20T06:26:24Z</time>
      </trkpt>
      <trkpt lat="44.12635" lon="6.69467">
        <ele>2044.8000488281</ele>
        <time>2022-08-20T06:26:25Z</time>
      </trkpt>
      <trkpt lat="44.12613" lon="6.69477">
        <ele>2043.8000488281</ele>
        <time>2022-08-20T06:26:31Z</time>
      </trkpt>
      <trkpt lat="44.12608" lon="6.6948">
        <ele>2043.8000488281</ele>
        <time>2022-08-20T06:26:32Z</time>
      </trkpt>
      <trkpt lat="44.12599" lon="6.69484">
        <ele>2043.1999511719</ele>
        <time>2022-08-20T06:26:34Z</time>
      </trkpt>
      <trkpt lat="44.12591" lon="6.69487">
        <ele>2042.8000488281</ele>
        <time>2022-08-20T06:26:36Z</time>
      </trkpt>
      <trkpt lat="44.12584" lon="6.69489">
        <ele>2042.4000244141</ele>
        <time>2022-08-20T06:26:38Z</time>
      </trkpt>
      <trkpt lat="44.12576" lon="6.69492">
        <ele>2042.1999511719</ele>
        <time>2022-08-20T06:26:40Z</time>
      </trkpt>
      <trkpt lat="44.12564" lon="6.69502">
        <ele>2042</ele>
        <time>2022-08-20T06:26:44Z</time>
      </trkpt>
      <trkpt lat="44.12545" lon="6.69513">
        <ele>2042.4000244141</ele>
        <time>2022-08-20T06:26:50Z</time>
      </trkpt>
      <trkpt lat="44.12525" lon="6.69513">
        <ele>2042.4000244141</ele>
        <time>2022-08-20T06:26:55Z</time>
      </trkpt>
      <trkpt lat="44.12498" lon="6.69517">
        <ele>2043</ele>
        <time>2022-08-20T06:27:03Z</time>
      </trkpt>
      <trkpt lat="44.12481" lon="6.6953">
        <ele>2043.8000488281</ele>
        <time>2022-08-20T06:27:09Z</time>
      </trkpt>
      <trkpt lat="44.12463" lon="6.69537">
        <ele>2044.8000488281</ele>
        <time>2022-08-20T06:27:15Z</time>
      </trkpt>
      <trkpt lat="44.1246" lon="6.69538">
        <ele>2044.8000488281</ele>
        <time>2022-08-20T06:27:16Z</time>
      </trkpt>
      <trkpt lat="44.12451" lon="6.69543">
        <ele>2045.1999511719</ele>
        <time>2022-08-20T06:27:20Z</time>
      </trkpt>
      <trkpt lat="44.12447" lon="6.69547">
        <ele>2045.1999511719</ele>
        <time>2022-08-20T06:27:22Z</time>
      </trkpt>
      <trkpt lat="44.1244" lon="6.69555">
        <ele>2045.8000488281</ele>
        <time>2022-08-20T06:27:27Z</time>
      </trkpt>
      <trkpt lat="44.12438" lon="6.69557">
        <ele>2045.8000488281</ele>
        <time>2022-08-20T06:27:28Z</time>
      </trkpt>
      <trkpt lat="44.12435" lon="6.6956">
        <ele>2046</ele>
        <time>2022-08-20T06:27:30Z</time>
      </trkpt>
      <trkpt lat="44.1242" lon="6.6957">
        <ele>2046.8000488281</ele>
        <time>2022-08-20T06:27:38Z</time>
      </trkpt>
      <trkpt lat="44.12414" lon="6.69575">
        <ele>2047</ele>
        <time>2022-08-20T06:27:41Z</time>
      </trkpt>
      <trkpt lat="44.12405" lon="6.6958">
        <ele>2047.1999511719</ele>
        <time>2022-08-20T06:27:45Z</time>
      </trkpt>
      <trkpt lat="44.12393" lon="6.69588">
        <ele>2047.4000244141</ele>
        <time>2022-08-20T06:27:51Z</time>
      </trkpt>
      <trkpt lat="44.12385" lon="6.69593">
        <ele>2048</ele>
        <time>2022-08-20T06:27:55Z</time>
      </trkpt>
      <trkpt lat="44.12377" lon="6.69599">
        <ele>2048.3999023438</ele>
        <time>2022-08-20T06:27:59Z</time>
      </trkpt>
      <trkpt lat="44.12375" lon="6.69598">
        <ele>2048.3999023438</ele>
        <time>2022-08-20T06:28:00Z</time>
      </trkpt>
      <trkpt lat="44.12369" lon="6.69596">
        <ele>2049.1999511719</ele>
        <time>2022-08-20T06:28:03Z</time>
      </trkpt>
      <trkpt lat="44.12361" lon="6.69596">
        <ele>2049.6000976562</ele>
        <time>2022-08-20T06:28:07Z</time>
      </trkpt>
      <trkpt lat="44.12348" lon="6.69595">
        <ele>2050.1999511719</ele>
        <time>2022-08-20T06:28:14Z</time>
      </trkpt>
      <trkpt lat="44.12346" lon="6.69594">
        <ele>2050.1999511719</ele>
        <time>2022-08-20T06:28:15Z</time>
      </trkpt>
      <trkpt lat="44.1233" lon="6.69592">
        <ele>2050.6000976562</ele>
        <time>2022-08-20T06:28:22Z</time>
      </trkpt>
      <trkpt lat="44.12317" lon="6.696">
        <ele>2051.1999511719</ele>
        <time>2022-08-20T06:28:28Z</time>
      </trkpt>
      <trkpt lat="44.12306" lon="6.69615">
        <ele>2051.3999023438</ele>
        <time>2022-08-20T06:28:34Z</time>
      </trkpt>
      <trkpt lat="44.12298" lon="6.69621">
        <ele>2051.6000976562</ele>
        <time>2022-08-20T06:28:39Z</time>
      </trkpt>
      <trkpt lat="44.12292" lon="6.69624">
        <ele>2051.6000976562</ele>
        <time>2022-08-20T06:28:42Z</time>
      </trkpt>
      <trkpt lat="44.12287" lon="6.69624">
        <ele>2051.6000976562</ele>
        <time>2022-08-20T06:28:44Z</time>
      </trkpt>
      <trkpt lat="44.12275" lon="6.69629">
        <ele>2052.1999511719</ele>
        <time>2022-08-20T06:28:50Z</time>
      </trkpt>
      <trkpt lat="44.12273" lon="6.6963">
        <ele>2052.1999511719</ele>
        <time>2022-08-20T06:28:51Z</time>
      </trkpt>
      <trkpt lat="44.12265" lon="6.69635">
        <ele>2052.6000976562</ele>
        <time>2022-08-20T06:28:55Z</time>
      </trkpt>
      <trkpt lat="44.1226" lon="6.69637">
        <ele>2053</ele>
        <time>2022-08-20T06:28:58Z</time>
      </trkpt>
      <trkpt lat="44.12258" lon="6.69638">
        <ele>2053.1999511719</ele>
        <time>2022-08-20T06:28:59Z</time>
      </trkpt>
      <trkpt lat="44.12248" lon="6.6964">
        <ele>2053.6000976562</ele>
        <time>2022-08-20T06:29:04Z</time>
      </trkpt>
      <trkpt lat="44.12239" lon="6.69644">
        <ele>2054.1999511719</ele>
        <time>2022-08-20T06:29:09Z</time>
      </trkpt>
      <trkpt lat="44.12233" lon="6.69647">
        <ele>2054.3999023438</ele>
        <time>2022-08-20T06:29:12Z</time>
      </trkpt>
      <trkpt lat="44.12219" lon="6.69652">
        <ele>2055.1999511719</ele>
        <time>2022-08-20T06:29:19Z</time>
      </trkpt>
      <trkpt lat="44.12217" lon="6.69654">
        <ele>2055.1999511719</ele>
        <time>2022-08-20T06:29:20Z</time>
      </trkpt>
      <trkpt lat="44.12202" lon="6.69658">
        <ele>2056.1999511719</ele>
        <time>2022-08-20T06:29:27Z</time>
      </trkpt>
      <trkpt lat="44.122" lon="6.69658">
        <ele>2056.3999023438</ele>
        <time>2022-08-20T06:29:28Z</time>
      </trkpt>
      <trkpt lat="44.12196" lon="6.6966">
        <ele>2056.6000976562</ele>
        <time>2022-08-20T06:29:31Z</time>
      </trkpt>
      <trkpt lat="44.12196" lon="6.69659">
        <ele>2056.8000488281</ele>
        <time>2022-08-20T06:29:32Z</time>
      </trkpt>
      <trkpt lat="44.12196" lon="6.69659">
        <ele>2057</ele>
        <time>2022-08-20T06:29:34Z</time>
      </trkpt>
      <trkpt lat="44.12196" lon="6.69659">
        <ele>2057</ele>
        <time>2022-08-20T06:29:40Z</time>
      </trkpt>
      <trkpt lat="44.12197" lon="6.69658">
        <ele>2057.3999023438</ele>
        <time>2022-08-20T06:29:42Z</time>
      </trkpt>
      <trkpt lat="44.12197" lon="6.69659">
        <ele>2057.6000976562</ele>
        <time>2022-08-20T06:29:51Z</time>
      </trkpt>
      <trkpt lat="44.12195" lon="6.69659">
        <ele>2057.1999511719</ele>
        <time>2022-08-20T06:30:02Z</time>
      </trkpt>
      <trkpt lat="44.12194" lon="6.69659">
        <ele>2057.1999511719</ele>
        <time>2022-08-20T06:30:03Z</time>
      </trkpt>
      <trkpt lat="44.12189" lon="6.69658">
        <ele>2057.1999511719</ele>
        <time>2022-08-20T06:30:06Z</time>
      </trkpt>
      <trkpt lat="44.12188" lon="6.69656">
        <ele>2057</ele>
        <time>2022-08-20T06:30:09Z</time>
      </trkpt>
      <trkpt lat="44.12188" lon="6.69657">
        <ele>2057</ele>
        <time>2022-08-20T06:30:11Z</time>
      </trkpt>
      <trkpt lat="44.12189" lon="6.69659">
        <ele>2057.1999511719</ele>
        <time>2022-08-20T06:30:13Z</time>
      </trkpt>
      <trkpt lat="44.12189" lon="6.69658">
        <ele>2057.1999511719</ele>
        <time>2022-08-20T06:30:18Z</time>
      </trkpt>
      <trkpt lat="44.12188" lon="6.69658">
        <ele>2057.1999511719</ele>
        <time>2022-08-20T06:30:22Z</time>
      </trkpt>
      <trkpt lat="44.12188" lon="6.69659">
        <ele>2057.1999511719</ele>
        <time>2022-08-20T06:30:26Z</time>
      </trkpt>
      <trkpt lat="44.12188" lon="6.69659">
        <ele>2057</ele>
        <time>2022-08-20T06:30:30Z</time>
      </trkpt>
      <trkpt lat="44.12188" lon="6.69659">
        <ele>2057.1999511719</ele>
        <time>2022-08-20T06:30:33Z</time>
      </trkpt>
      <trkpt lat="44.12188" lon="6.69659">
        <ele>2057.1999511719</ele>
        <time>2022-08-20T06:30:34Z</time>
      </trkpt>
      <trkpt lat="44.12188" lon="6.69659">
        <ele>2057.1999511719</ele>
        <time>2022-08-20T06:30:35Z</time>
      </trkpt>
      <trkpt lat="44.12188" lon="6.69659">
        <ele>2057.1999511719</ele>
        <time>2022-08-20T06:30:39Z</time>
      </trkpt>
      <trkpt lat="44.12188" lon="6.69659">
        <ele>2057.1999511719</ele>
        <time>2022-08-20T06:30:48Z</time>
      </trkpt>
      <trkpt lat="44.12188" lon="6.69659">
        <ele>2057.1999511719</ele>
        <time>2022-08-20T06:30:51Z</time>
      </trkpt>
      <trkpt lat="44.12182" lon="6.69662">
        <ele>2057.1999511719</ele>
        <time>2022-08-20T06:30:58Z</time>
      </trkpt>
      <trkpt lat="44.1218" lon="6.69664">
        <ele>2057.1999511719</ele>
        <time>2022-08-20T06:30:59Z</time>
      </trkpt>
      <trkpt lat="44.12176" lon="6.69666">
        <ele>2057.3999023438</ele>
        <time>2022-08-20T06:31:01Z</time>
      </trkpt>
      <trkpt lat="44.12174" lon="6.69668">
        <ele>2057.8000488281</ele>
        <time>2022-08-20T06:31:03Z</time>
      </trkpt>
      <trkpt lat="44.12168" lon="6.69671">
        <ele>2058.1999511719</ele>
        <time>2022-08-20T06:31:06Z</time>
      </trkpt>
      <trkpt lat="44.12166" lon="6.69672">
        <ele>2058.3999023438</ele>
        <time>2022-08-20T06:31:07Z</time>
      </trkpt>
      <trkpt lat="44.12162" lon="6.69673">
        <ele>2058.6000976562</ele>
        <time>2022-08-20T06:31:09Z</time>
      </trkpt>
      <trkpt lat="44.12154" lon="6.69679">
        <ele>2059.3999023438</ele>
        <time>2022-08-20T06:31:13Z</time>
      </trkpt>
      <trkpt lat="44.12149" lon="6.69683">
        <ele>2059.6000976562</ele>
        <time>2022-08-20T06:31:15Z</time>
      </trkpt>
      <trkpt lat="44.12134" lon="6.69698">
        <ele>2060.3999023438</ele>
        <time>2022-08-20T06:31:23Z</time>
      </trkpt>
      <trkpt lat="44.12133" lon="6.69699">
        <ele>2060.6000976562</ele>
        <time>2022-08-20T06:31:24Z</time>
      </trkpt>
      <trkpt lat="44.12129" lon="6.69706">
        <ele>2061.1999511719</ele>
        <time>2022-08-20T06:31:28Z</time>
      </trkpt>
      <trkpt lat="44.12127" lon="6.69708">
        <ele>2061.6000976562</ele>
        <time>2022-08-20T06:31:30Z</time>
      </trkpt>
      <trkpt lat="44.12125" lon="6.69713">
        <ele>2062.1999511719</ele>
        <time>2022-08-20T06:31:33Z</time>
      </trkpt>
      <trkpt lat="44.12123" lon="6.69717">
        <ele>2062.8000488281</ele>
        <time>2022-08-20T06:31:36Z</time>
      </trkpt>
      <trkpt lat="44.12123" lon="6.69725">
        <ele>2063.6000976562</ele>
        <time>2022-08-20T06:31:41Z</time>
      </trkpt>
      <trkpt lat="44.12124" lon="6.69727">
        <ele>2063.8000488281</ele>
        <time>2022-08-20T06:31:42Z</time>
      </trkpt>
      <trkpt lat="44.12123" lon="6.6973">
        <ele>2064.1999511719</ele>
        <time>2022-08-20T06:31:44Z</time>
      </trkpt>
      <trkpt lat="44.12122" lon="6.69735">
        <ele>2065</ele>
        <time>2022-08-20T06:31:47Z</time>
      </trkpt>
      <trkpt lat="44.1212" lon="6.69739">
        <ele>2065.6000976562</ele>
        <time>2022-08-20T06:31:49Z</time>
      </trkpt>
      <trkpt lat="44.12118" lon="6.69742">
        <ele>2066</ele>
        <time>2022-08-20T06:31:51Z</time>
      </trkpt>
      <trkpt lat="44.12115" lon="6.69747">
        <ele>2067</ele>
        <time>2022-08-20T06:31:55Z</time>
      </trkpt>
      <trkpt lat="44.12113" lon="6.6975">
        <ele>2067.8000488281</ele>
        <time>2022-08-20T06:31:58Z</time>
      </trkpt>
      <trkpt lat="44.12112" lon="6.69751">
        <ele>2068</ele>
        <time>2022-08-20T06:31:59Z</time>
      </trkpt>
      <trkpt lat="44.12107" lon="6.69756">
        <ele>2069.1999511719</ele>
        <time>2022-08-20T06:32:04Z</time>
      </trkpt>
      <trkpt lat="44.12106" lon="6.69758">
        <ele>2069.8000488281</ele>
        <time>2022-08-20T06:32:06Z</time>
      </trkpt>
      <trkpt lat="44.12103" lon="6.69761">
        <ele>2070.3999023438</ele>
        <time>2022-08-20T06:32:08Z</time>
      </trkpt>
      <trkpt lat="44.12101" lon="6.69764">
        <ele>2071.1999511719</ele>
        <time>2022-08-20T06:32:11Z</time>
      </trkpt>
      <trkpt lat="44.121" lon="6.69765">
        <ele>2071.6000976562</ele>
        <time>2022-08-20T06:32:12Z</time>
      </trkpt>
      <trkpt lat="44.12097" lon="6.69766">
        <ele>2072</ele>
        <time>2022-08-20T06:32:14Z</time>
      </trkpt>
      <trkpt lat="44.12097" lon="6.69768">
        <ele>2072.1999511719</ele>
        <time>2022-08-20T06:32:15Z</time>
      </trkpt>
      <trkpt lat="44.12096" lon="6.69769">
        <ele>2072.6000976562</ele>
        <time>2022-08-20T06:32:16Z</time>
      </trkpt>
      <trkpt lat="44.12096" lon="6.69769">
        <ele>2072.8000488281</ele>
        <time>2022-08-20T06:32:17Z</time>
      </trkpt>
      <trkpt lat="44.12096" lon="6.69769">
        <ele>2073</ele>
        <time>2022-08-20T06:32:18Z</time>
      </trkpt>
      <trkpt lat="44.12096" lon="6.69769">
        <ele>2073.1999511719</ele>
        <time>2022-08-20T06:32:19Z</time>
      </trkpt>
      <trkpt lat="44.12094" lon="6.69771">
        <ele>2073.8000488281</ele>
        <time>2022-08-20T06:32:24Z</time>
      </trkpt>
      <trkpt lat="44.12094" lon="6.69771">
        <ele>2073.8000488281</ele>
        <time>2022-08-20T06:32:25Z</time>
      </trkpt>
      <trkpt lat="44.12094" lon="6.69772">
        <ele>2074</ele>
        <time>2022-08-20T06:32:27Z</time>
      </trkpt>
      <trkpt lat="44.12096" lon="6.69772">
        <ele>2074.8000488281</ele>
        <time>2022-08-20T06:32:36Z</time>
      </trkpt>
      <trkpt lat="44.12096" lon="6.69772">
        <ele>2074.8000488281</ele>
        <time>2022-08-20T06:32:37Z</time>
      </trkpt>
      <trkpt lat="44.12102" lon="6.69772">
        <ele>2076</ele>
        <time>2022-08-20T06:32:45Z</time>
      </trkpt>
      <trkpt lat="44.12104" lon="6.69774">
        <ele>2076.8000488281</ele>
        <time>2022-08-20T06:32:50Z</time>
      </trkpt>
      <trkpt lat="44.12103" lon="6.69776">
        <ele>2077.1999511719</ele>
        <time>2022-08-20T06:32:52Z</time>
      </trkpt>
      <trkpt lat="44.121" lon="6.69778">
        <ele>2078.3999023438</ele>
        <time>2022-08-20T06:32:59Z</time>
      </trkpt>
      <trkpt lat="44.12096" lon="6.69782">
        <ele>2079.3999023438</ele>
        <time>2022-08-20T06:33:06Z</time>
      </trkpt>
      <trkpt lat="44.12093" lon="6.69785">
        <ele>2080.6000976562</ele>
        <time>2022-08-20T06:33:13Z</time>
      </trkpt>
      <trkpt lat="44.12092" lon="6.69785">
        <ele>2081</ele>
        <time>2022-08-20T06:33:15Z</time>
      </trkpt>
      <trkpt lat="44.1209" lon="6.69788">
        <ele>2081.8000488281</ele>
        <time>2022-08-20T06:33:19Z</time>
      </trkpt>
      <trkpt lat="44.12087" lon="6.69792">
        <ele>2082.8000488281</ele>
        <time>2022-08-20T06:33:25Z</time>
      </trkpt>
      <trkpt lat="44.12086" lon="6.69795">
        <ele>2083.8000488281</ele>
        <time>2022-08-20T06:33:31Z</time>
      </trkpt>
      <trkpt lat="44.12086" lon="6.69795">
        <ele>2084</ele>
        <time>2022-08-20T06:33:32Z</time>
      </trkpt>
      <trkpt lat="44.1208" lon="6.69801">
        <ele>2085</ele>
        <time>2022-08-20T06:33:40Z</time>
      </trkpt>
      <trkpt lat="44.12077" lon="6.69803">
        <ele>2085.3999023438</ele>
        <time>2022-08-20T06:33:43Z</time>
      </trkpt>
      <trkpt lat="44.12076" lon="6.69804">
        <ele>2085.6000976562</ele>
        <time>2022-08-20T06:33:45Z</time>
      </trkpt>
      <trkpt lat="44.12075" lon="6.69805">
        <ele>2085.8000488281</ele>
        <time>2022-08-20T06:33:46Z</time>
      </trkpt>
      <trkpt lat="44.12075" lon="6.69806">
        <ele>2086</ele>
        <time>2022-08-20T06:33:47Z</time>
      </trkpt>
      <trkpt lat="44.12072" lon="6.6981">
        <ele>2087</ele>
        <time>2022-08-20T06:33:52Z</time>
      </trkpt>
      <trkpt lat="44.12072" lon="6.6981">
        <ele>2087.1999511719</ele>
        <time>2022-08-20T06:33:53Z</time>
      </trkpt>
      <trkpt lat="44.1207" lon="6.69815">
        <ele>2088.1999511719</ele>
        <time>2022-08-20T06:33:58Z</time>
      </trkpt>
      <trkpt lat="44.12067" lon="6.69818">
        <ele>2089.3999023438</ele>
        <time>2022-08-20T06:34:05Z</time>
      </trkpt>
      <trkpt lat="44.12066" lon="6.69819">
        <ele>2089.6000976562</ele>
        <time>2022-08-20T06:34:07Z</time>
      </trkpt>
      <trkpt lat="44.12066" lon="6.69821">
        <ele>2090.3999023438</ele>
        <time>2022-08-20T06:34:13Z</time>
      </trkpt>
      <trkpt lat="44.12066" lon="6.69821">
        <ele>2090.6000976562</ele>
        <time>2022-08-20T06:34:14Z</time>
      </trkpt>
      <trkpt lat="44.12072" lon="6.6982">
        <ele>2091.3999023438</ele>
        <time>2022-08-20T06:34:20Z</time>
      </trkpt>
      <trkpt lat="44.12078" lon="6.6982">
        <ele>2092.3999023438</ele>
        <time>2022-08-20T06:34:27Z</time>
      </trkpt>
      <trkpt lat="44.12086" lon="6.6982">
        <ele>2093.6000976562</ele>
        <time>2022-08-20T06:34:36Z</time>
      </trkpt>
      <trkpt lat="44.12087" lon="6.69819">
        <ele>2093.8000488281</ele>
        <time>2022-08-20T06:34:38Z</time>
      </trkpt>
      <trkpt lat="44.1209" lon="6.69819">
        <ele>2094.6000976562</ele>
        <time>2022-08-20T06:34:42Z</time>
      </trkpt>
      <trkpt lat="44.12094" lon="6.69821">
        <ele>2095.6000976562</ele>
        <time>2022-08-20T06:34:50Z</time>
      </trkpt>
      <trkpt lat="44.12096" lon="6.69821">
        <ele>2095.8000488281</ele>
        <time>2022-08-20T06:34:52Z</time>
      </trkpt>
      <trkpt lat="44.121" lon="6.69823">
        <ele>2096.6000976562</ele>
        <time>2022-08-20T06:34:58Z</time>
      </trkpt>
      <trkpt lat="44.12103" lon="6.69826">
        <ele>2097.8000488281</ele>
        <time>2022-08-20T06:35:04Z</time>
      </trkpt>
      <trkpt lat="44.12104" lon="6.69827">
        <ele>2098.3999023438</ele>
        <time>2022-08-20T06:35:07Z</time>
      </trkpt>
      <trkpt lat="44.12104" lon="6.69827">
        <ele>2098.6000976562</ele>
        <time>2022-08-20T06:35:09Z</time>
      </trkpt>
      <trkpt lat="44.12102" lon="6.69826">
        <ele>2098.6000976562</ele>
        <time>2022-08-20T06:35:13Z</time>
      </trkpt>
      <trkpt lat="44.12102" lon="6.69829">
        <ele>2098.8000488281</ele>
        <time>2022-08-20T06:35:25Z</time>
      </trkpt>
      <trkpt lat="44.12102" lon="6.6983">
        <ele>2099</ele>
        <time>2022-08-20T06:35:26Z</time>
      </trkpt>
      <trkpt lat="44.12099" lon="6.69834">
        <ele>2100</ele>
        <time>2022-08-20T06:35:33Z</time>
      </trkpt>
      <trkpt lat="44.12096" lon="6.69837">
        <ele>2100.8000488281</ele>
        <time>2022-08-20T06:35:39Z</time>
      </trkpt>
      <trkpt lat="44.12096" lon="6.69838">
        <ele>2101</ele>
        <time>2022-08-20T06:35:41Z</time>
      </trkpt>
      <trkpt lat="44.12096" lon="6.69844">
        <ele>2101.8000488281</ele>
        <time>2022-08-20T06:35:52Z</time>
      </trkpt>
      <trkpt lat="44.12096" lon="6.69845">
        <ele>2102.1999511719</ele>
        <time>2022-08-20T06:35:54Z</time>
      </trkpt>
      <trkpt lat="44.12091" lon="6.6985">
        <ele>2103.1999511719</ele>
        <time>2022-08-20T06:36:02Z</time>
      </trkpt>
      <trkpt lat="44.1209" lon="6.69852">
        <ele>2103.6000976562</ele>
        <time>2022-08-20T06:36:04Z</time>
      </trkpt>
      <trkpt lat="44.12088" lon="6.69853">
        <ele>2104</ele>
        <time>2022-08-20T06:36:06Z</time>
      </trkpt>
      <trkpt lat="44.12086" lon="6.69854">
        <ele>2104.1999511719</ele>
        <time>2022-08-20T06:36:08Z</time>
      </trkpt>
      <trkpt lat="44.12084" lon="6.69858">
        <ele>2105.1999511719</ele>
        <time>2022-08-20T06:36:14Z</time>
      </trkpt>
      <trkpt lat="44.12083" lon="6.69858">
        <ele>2105.3999023438</ele>
        <time>2022-08-20T06:36:15Z</time>
      </trkpt>
      <trkpt lat="44.12081" lon="6.69861">
        <ele>2106.3999023438</ele>
        <time>2022-08-20T06:36:21Z</time>
      </trkpt>
      <trkpt lat="44.12078" lon="6.69865">
        <ele>2107.3999023438</ele>
        <time>2022-08-20T06:36:27Z</time>
      </trkpt>
      <trkpt lat="44.12078" lon="6.69865">
        <ele>2107.3999023438</ele>
        <time>2022-08-20T06:36:28Z</time>
      </trkpt>
      <trkpt lat="44.12077" lon="6.6987">
        <ele>2108.6000976562</ele>
        <time>2022-08-20T06:36:34Z</time>
      </trkpt>
      <trkpt lat="44.12076" lon="6.69872">
        <ele>2108.8000488281</ele>
        <time>2022-08-20T06:36:37Z</time>
      </trkpt>
      <trkpt lat="44.12072" lon="6.69875">
        <ele>2109.8000488281</ele>
        <time>2022-08-20T06:36:43Z</time>
      </trkpt>
      <trkpt lat="44.12068" lon="6.69878">
        <ele>2110.8000488281</ele>
        <time>2022-08-20T06:36:50Z</time>
      </trkpt>
      <trkpt lat="44.12068" lon="6.69879">
        <ele>2110.8000488281</ele>
        <time>2022-08-20T06:36:51Z</time>
      </trkpt>
      <trkpt lat="44.12067" lon="6.69879">
        <ele>2111</ele>
        <time>2022-08-20T06:36:52Z</time>
      </trkpt>
      <trkpt lat="44.12064" lon="6.69883">
        <ele>2111.8000488281</ele>
        <time>2022-08-20T06:36:57Z</time>
      </trkpt>
      <trkpt lat="44.12059" lon="6.69889">
        <ele>2112.8000488281</ele>
        <time>2022-08-20T06:37:05Z</time>
      </trkpt>
      <trkpt lat="44.12059" lon="6.6989">
        <ele>2113</ele>
        <time>2022-08-20T06:37:06Z</time>
      </trkpt>
      <trkpt lat="44.12054" lon="6.69899">
        <ele>2114</ele>
        <time>2022-08-20T06:37:14Z</time>
      </trkpt>
      <trkpt lat="44.12052" lon="6.69903">
        <ele>2114.8000488281</ele>
        <time>2022-08-20T06:37:20Z</time>
      </trkpt>
      <trkpt lat="44.12051" lon="6.69904">
        <ele>2115</ele>
        <time>2022-08-20T06:37:22Z</time>
      </trkpt>
      <trkpt lat="44.12048" lon="6.6991">
        <ele>2116.1999511719</ele>
        <time>2022-08-20T06:37:30Z</time>
      </trkpt>
      <trkpt lat="44.12047" lon="6.69913">
        <ele>2116.6000976562</ele>
        <time>2022-08-20T06:37:33Z</time>
      </trkpt>
      <trkpt lat="44.12047" lon="6.69916">
        <ele>2117.1999511719</ele>
        <time>2022-08-20T06:37:37Z</time>
      </trkpt>
      <trkpt lat="44.12046" lon="6.69922">
        <ele>2118.3999023438</ele>
        <time>2022-08-20T06:37:44Z</time>
      </trkpt>
      <trkpt lat="44.12039" lon="6.69922">
        <ele>2119.3999023438</ele>
        <time>2022-08-20T06:37:51Z</time>
      </trkpt>
      <trkpt lat="44.12038" lon="6.69923">
        <ele>2119.6000976562</ele>
        <time>2022-08-20T06:37:53Z</time>
      </trkpt>
      <trkpt lat="44.12033" lon="6.69923">
        <ele>2120.3999023438</ele>
        <time>2022-08-20T06:37:59Z</time>
      </trkpt>
      <trkpt lat="44.12029" lon="6.69923">
        <ele>2121</ele>
        <time>2022-08-20T06:38:05Z</time>
      </trkpt>
      <trkpt lat="44.12028" lon="6.69923">
        <ele>2121.3999023438</ele>
        <time>2022-08-20T06:38:08Z</time>
      </trkpt>
      <trkpt lat="44.12029" lon="6.69927">
        <ele>2122.3999023438</ele>
        <time>2022-08-20T06:38:16Z</time>
      </trkpt>
      <trkpt lat="44.12029" lon="6.69928">
        <ele>2122.6000976562</ele>
        <time>2022-08-20T06:38:17Z</time>
      </trkpt>
      <trkpt lat="44.12029" lon="6.69929">
        <ele>2122.8000488281</ele>
        <time>2022-08-20T06:38:18Z</time>
      </trkpt>
      <trkpt lat="44.12026" lon="6.6993">
        <ele>2123.6000976562</ele>
        <time>2022-08-20T06:38:23Z</time>
      </trkpt>
      <trkpt lat="44.12024" lon="6.69931">
        <ele>2124.1999511719</ele>
        <time>2022-08-20T06:38:27Z</time>
      </trkpt>
      <trkpt lat="44.12023" lon="6.69932">
        <ele>2124.6000976562</ele>
        <time>2022-08-20T06:38:30Z</time>
      </trkpt>
      <trkpt lat="44.12024" lon="6.69935">
        <ele>2125</ele>
        <time>2022-08-20T06:38:33Z</time>
      </trkpt>
      <trkpt lat="44.12022" lon="6.69939">
        <ele>2125.8000488281</ele>
        <time>2022-08-20T06:38:40Z</time>
      </trkpt>
      <trkpt lat="44.12021" lon="6.69938">
        <ele>2126</ele>
        <time>2022-08-20T06:38:42Z</time>
      </trkpt>
      <trkpt lat="44.12018" lon="6.69937">
        <ele>2127</ele>
        <time>2022-08-20T06:38:49Z</time>
      </trkpt>
      <trkpt lat="44.12017" lon="6.69937">
        <ele>2127.1999511719</ele>
        <time>2022-08-20T06:38:52Z</time>
      </trkpt>
      <trkpt lat="44.12014" lon="6.6994">
        <ele>2128</ele>
        <time>2022-08-20T06:38:58Z</time>
      </trkpt>
      <trkpt lat="44.12012" lon="6.69944">
        <ele>2129.1999511719</ele>
        <time>2022-08-20T06:39:04Z</time>
      </trkpt>
      <trkpt lat="44.12009" lon="6.69947">
        <ele>2130.3999023438</ele>
        <time>2022-08-20T06:39:10Z</time>
      </trkpt>
      <trkpt lat="44.12007" lon="6.69951">
        <ele>2131.3999023438</ele>
        <time>2022-08-20T06:39:18Z</time>
      </trkpt>
      <trkpt lat="44.12005" lon="6.69955">
        <ele>2132.3999023438</ele>
        <time>2022-08-20T06:39:26Z</time>
      </trkpt>
      <trkpt lat="44.12003" lon="6.69958">
        <ele>2133.6000976562</ele>
        <time>2022-08-20T06:39:34Z</time>
      </trkpt>
      <trkpt lat="44.12002" lon="6.69959">
        <ele>2134</ele>
        <time>2022-08-20T06:39:37Z</time>
      </trkpt>
      <trkpt lat="44.12001" lon="6.69961">
        <ele>2134.6000976562</ele>
        <time>2022-08-20T06:39:40Z</time>
      </trkpt>
      <trkpt lat="44.11997" lon="6.69964">
        <ele>2135.8000488281</ele>
        <time>2022-08-20T06:39:49Z</time>
      </trkpt>
      <trkpt lat="44.11998" lon="6.69968">
        <ele>2136.8000488281</ele>
        <time>2022-08-20T06:39:57Z</time>
      </trkpt>
      <trkpt lat="44.11998" lon="6.69974">
        <ele>2137.8000488281</ele>
        <time>2022-08-20T06:40:04Z</time>
      </trkpt>
      <trkpt lat="44.11995" lon="6.69975">
        <ele>2138.3999023438</ele>
        <time>2022-08-20T06:40:09Z</time>
      </trkpt>
      <trkpt lat="44.11994" lon="6.69975">
        <ele>2139</ele>
        <time>2022-08-20T06:40:12Z</time>
      </trkpt>
      <trkpt lat="44.1199" lon="6.69978">
        <ele>2140</ele>
        <time>2022-08-20T06:40:19Z</time>
      </trkpt>
      <trkpt lat="44.11989" lon="6.69982">
        <ele>2141</ele>
        <time>2022-08-20T06:40:26Z</time>
      </trkpt>
      <trkpt lat="44.11988" lon="6.69982">
        <ele>2141</ele>
        <time>2022-08-20T06:40:27Z</time>
      </trkpt>
      <trkpt lat="44.11984" lon="6.69982">
        <ele>2142.1999511719</ele>
        <time>2022-08-20T06:40:34Z</time>
      </trkpt>
      <trkpt lat="44.11981" lon="6.69982">
        <ele>2142.8000488281</ele>
        <time>2022-08-20T06:40:39Z</time>
      </trkpt>
      <trkpt lat="44.11979" lon="6.69982">
        <ele>2143.1999511719</ele>
        <time>2022-08-20T06:40:42Z</time>
      </trkpt>
      <trkpt lat="44.11974" lon="6.69982">
        <ele>2144.1999511719</ele>
        <time>2022-08-20T06:40:50Z</time>
      </trkpt>
      <trkpt lat="44.11973" lon="6.69986">
        <ele>2145</ele>
        <time>2022-08-20T06:40:58Z</time>
      </trkpt>
      <trkpt lat="44.11973" lon="6.69987">
        <ele>2145.3999023438</ele>
        <time>2022-08-20T06:41:00Z</time>
      </trkpt>
      <trkpt lat="44.11974" lon="6.69992">
        <ele>2146.3999023438</ele>
        <time>2022-08-20T06:41:10Z</time>
      </trkpt>
      <trkpt lat="44.11973" lon="6.69993">
        <ele>2146.8000488281</ele>
        <time>2022-08-20T06:41:12Z</time>
      </trkpt>
      <trkpt lat="44.1197" lon="6.69993">
        <ele>2147.6000976562</ele>
        <time>2022-08-20T06:41:16Z</time>
      </trkpt>
      <trkpt lat="44.11965" lon="6.69994">
        <ele>2148.6000976562</ele>
        <time>2022-08-20T06:41:23Z</time>
      </trkpt>
      <trkpt lat="44.11964" lon="6.69994">
        <ele>2148.8000488281</ele>
        <time>2022-08-20T06:41:25Z</time>
      </trkpt>
      <trkpt lat="44.11962" lon="6.69995">
        <ele>2149.8000488281</ele>
        <time>2022-08-20T06:41:32Z</time>
      </trkpt>
      <trkpt lat="44.1196" lon="6.69997">
        <ele>2150.3999023438</ele>
        <time>2022-08-20T06:41:37Z</time>
      </trkpt>
      <trkpt lat="44.11959" lon="6.69997">
        <ele>2150.8000488281</ele>
        <time>2022-08-20T06:41:41Z</time>
      </trkpt>
      <trkpt lat="44.11955" lon="6.69999">
        <ele>2151.8000488281</ele>
        <time>2022-08-20T06:41:52Z</time>
      </trkpt>
      <trkpt lat="44.11955" lon="6.69999">
        <ele>2151.8000488281</ele>
        <time>2022-08-20T06:41:53Z</time>
      </trkpt>
      <trkpt lat="44.1195" lon="6.7">
        <ele>2152.8000488281</ele>
        <time>2022-08-20T06:42:01Z</time>
      </trkpt>
      <trkpt lat="44.11947" lon="6.69998">
        <ele>2153.8000488281</ele>
        <time>2022-08-20T06:42:08Z</time>
      </trkpt>
      <trkpt lat="44.11946" lon="6.69998">
        <ele>2154</ele>
        <time>2022-08-20T06:42:10Z</time>
      </trkpt>
      <trkpt lat="44.11943" lon="6.69997">
        <ele>2155</ele>
        <time>2022-08-20T06:42:21Z</time>
      </trkpt>
      <trkpt lat="44.11942" lon="6.69997">
        <ele>2155.1999511719</ele>
        <time>2022-08-20T06:42:24Z</time>
      </trkpt>
      <trkpt lat="44.11941" lon="6.70001">
        <ele>2156</ele>
        <time>2022-08-20T06:42:32Z</time>
      </trkpt>
      <trkpt lat="44.11942" lon="6.70007">
        <ele>2157</ele>
        <time>2022-08-20T06:42:40Z</time>
      </trkpt>
      <trkpt lat="44.11942" lon="6.70008">
        <ele>2157.1999511719</ele>
        <time>2022-08-20T06:42:41Z</time>
      </trkpt>
      <trkpt lat="44.11944" lon="6.70013">
        <ele>2158.1999511719</ele>
        <time>2022-08-20T06:42:48Z</time>
      </trkpt>
      <trkpt lat="44.11945" lon="6.70016">
        <ele>2159.3999023438</ele>
        <time>2022-08-20T06:42:54Z</time>
      </trkpt>
      <trkpt lat="44.11945" lon="6.70017">
        <ele>2160</ele>
        <time>2022-08-20T06:42:58Z</time>
      </trkpt>
      <trkpt lat="44.11945" lon="6.70018">
        <ele>2160.1999511719</ele>
        <time>2022-08-20T06:43:07Z</time>
      </trkpt>
      <trkpt lat="44.11946" lon="6.7002">
        <ele>2160.3999023438</ele>
        <time>2022-08-20T06:43:11Z</time>
      </trkpt>
      <trkpt lat="44.11947" lon="6.70025">
        <ele>2161.3999023438</ele>
        <time>2022-08-20T06:43:18Z</time>
      </trkpt>
      <trkpt lat="44.11947" lon="6.70027">
        <ele>2161.8000488281</ele>
        <time>2022-08-20T06:43:21Z</time>
      </trkpt>
      <trkpt lat="44.11947" lon="6.70029">
        <ele>2162.3999023438</ele>
        <time>2022-08-20T06:43:26Z</time>
      </trkpt>
      <trkpt lat="44.11949" lon="6.70033">
        <ele>2163.3999023438</ele>
        <time>2022-08-20T06:43:33Z</time>
      </trkpt>
      <trkpt lat="44.11952" lon="6.70037">
        <ele>2164.6000976562</ele>
        <time>2022-08-20T06:43:41Z</time>
      </trkpt>
      <trkpt lat="44.11952" lon="6.70039">
        <ele>2165.1999511719</ele>
        <time>2022-08-20T06:43:46Z</time>
      </trkpt>
      <trkpt lat="44.11953" lon="6.70042">
        <ele>2165.6000976562</ele>
        <time>2022-08-20T06:43:50Z</time>
      </trkpt>
      <trkpt lat="44.11951" lon="6.70046">
        <ele>2166.8000488281</ele>
        <time>2022-08-20T06:43:57Z</time>
      </trkpt>
      <trkpt lat="44.11949" lon="6.70048">
        <ele>2167.6000976562</ele>
        <time>2022-08-20T06:44:04Z</time>
      </trkpt>
      <trkpt lat="44.11948" lon="6.70049">
        <ele>2167.8000488281</ele>
        <time>2022-08-20T06:44:05Z</time>
      </trkpt>
      <trkpt lat="44.11948" lon="6.70049">
        <ele>2167.8000488281</ele>
        <time>2022-08-20T06:44:06Z</time>
      </trkpt>
      <trkpt lat="44.11947" lon="6.70056">
        <ele>2168.8000488281</ele>
        <time>2022-08-20T06:44:13Z</time>
      </trkpt>
      <trkpt lat="44.11947" lon="6.70057">
        <ele>2169</ele>
        <time>2022-08-20T06:44:14Z</time>
      </trkpt>
      <trkpt lat="44.11945" lon="6.70061">
        <ele>2169.8000488281</ele>
        <time>2022-08-20T06:44:19Z</time>
      </trkpt>
      <trkpt lat="44.11944" lon="6.70063">
        <ele>2170</ele>
        <time>2022-08-20T06:44:21Z</time>
      </trkpt>
      <trkpt lat="44.11941" lon="6.70069">
        <ele>2171.1999511719</ele>
        <time>2022-08-20T06:44:28Z</time>
      </trkpt>
      <trkpt lat="44.11939" lon="6.70072">
        <ele>2171.6000976562</ele>
        <time>2022-08-20T06:44:31Z</time>
      </trkpt>
      <trkpt lat="44.11937" lon="6.70075">
        <ele>2172.1999511719</ele>
        <time>2022-08-20T06:44:35Z</time>
      </trkpt>
      <trkpt lat="44.11935" lon="6.70083">
        <ele>2173.1999511719</ele>
        <time>2022-08-20T06:44:42Z</time>
      </trkpt>
      <trkpt lat="44.11935" lon="6.70085">
        <ele>2173.3999023438</ele>
        <time>2022-08-20T06:44:44Z</time>
      </trkpt>
      <trkpt lat="44.11934" lon="6.70087">
        <ele>2173.8000488281</ele>
        <time>2022-08-20T06:44:46Z</time>
      </trkpt>
      <trkpt lat="44.11934" lon="6.70088">
        <ele>2174.1999511719</ele>
        <time>2022-08-20T06:44:51Z</time>
      </trkpt>
      <trkpt lat="44.11934" lon="6.70089">
        <ele>2174.3999023438</ele>
        <time>2022-08-20T06:44:53Z</time>
      </trkpt>
      <trkpt lat="44.11935" lon="6.70091">
        <ele>2174.3999023438</ele>
        <time>2022-08-20T06:44:58Z</time>
      </trkpt>
      <trkpt lat="44.11935" lon="6.70094">
        <ele>2174.1999511719</ele>
        <time>2022-08-20T06:45:04Z</time>
      </trkpt>
      <trkpt lat="44.11933" lon="6.70096">
        <ele>2174.6000976562</ele>
        <time>2022-08-20T06:45:11Z</time>
      </trkpt>
      <trkpt lat="44.11932" lon="6.70098">
        <ele>2174.3999023438</ele>
        <time>2022-08-20T06:45:15Z</time>
      </trkpt>
      <trkpt lat="44.11932" lon="6.70098">
        <ele>2174</ele>
        <time>2022-08-20T06:45:19Z</time>
      </trkpt>
      <trkpt lat="44.11932" lon="6.70097">
        <ele>2174.1999511719</ele>
        <time>2022-08-20T06:45:22Z</time>
      </trkpt>
      <trkpt lat="44.11933" lon="6.70096">
        <ele>2174.3999023438</ele>
        <time>2022-08-20T06:45:28Z</time>
      </trkpt>
      <trkpt lat="44.11932" lon="6.70095">
        <ele>2174.3999023438</ele>
        <time>2022-08-20T06:45:38Z</time>
      </trkpt>
      <trkpt lat="44.11932" lon="6.70094">
        <ele>2174.3999023438</ele>
        <time>2022-08-20T06:45:45Z</time>
      </trkpt>
      <trkpt lat="44.11932" lon="6.70094">
        <ele>2174.6000976562</ele>
        <time>2022-08-20T06:45:47Z</time>
      </trkpt>
      <trkpt lat="44.11933" lon="6.70094">
        <ele>2174.8000488281</ele>
        <time>2022-08-20T06:45:51Z</time>
      </trkpt>
      <trkpt lat="44.11933" lon="6.70094">
        <ele>2174.6000976562</ele>
        <time>2022-08-20T06:45:53Z</time>
      </trkpt>
      <trkpt lat="44.11932" lon="6.70093">
        <ele>2174.3999023438</ele>
        <time>2022-08-20T06:46:03Z</time>
      </trkpt>
      <trkpt lat="44.11932" lon="6.70092">
        <ele>2174.8000488281</ele>
        <time>2022-08-20T06:46:12Z</time>
      </trkpt>
      <trkpt lat="44.11932" lon="6.70094">
        <ele>2174.6000976562</ele>
        <time>2022-08-20T06:46:15Z</time>
      </trkpt>
      <trkpt lat="44.11934" lon="6.70095">
        <ele>2175</ele>
        <time>2022-08-20T06:46:21Z</time>
      </trkpt>
      <trkpt lat="44.11934" lon="6.70095">
        <ele>2175</ele>
        <time>2022-08-20T06:46:23Z</time>
      </trkpt>
      <trkpt lat="44.11935" lon="6.70095">
        <ele>2174.6000976562</ele>
        <time>2022-08-20T06:46:30Z</time>
      </trkpt>
      <trkpt lat="44.11934" lon="6.70093">
        <ele>2174.6000976562</ele>
        <time>2022-08-20T06:46:38Z</time>
      </trkpt>
      <trkpt lat="44.11934" lon="6.70093">
        <ele>2174.1999511719</ele>
        <time>2022-08-20T06:46:45Z</time>
      </trkpt>
      <trkpt lat="44.11933" lon="6.70093">
        <ele>2174.8000488281</ele>
        <time>2022-08-20T06:46:55Z</time>
      </trkpt>
      <trkpt lat="44.11932" lon="6.70095">
        <ele>2174.3999023438</ele>
        <time>2022-08-20T06:47:03Z</time>
      </trkpt>
      <trkpt lat="44.11931" lon="6.70094">
        <ele>2174.3999023438</ele>
        <time>2022-08-20T06:47:06Z</time>
      </trkpt>
      <trkpt lat="44.11931" lon="6.70093">
        <ele>2174.1999511719</ele>
        <time>2022-08-20T06:47:10Z</time>
      </trkpt>
      <trkpt lat="44.11931" lon="6.70091">
        <ele>2174.1999511719</ele>
        <time>2022-08-20T06:47:17Z</time>
      </trkpt>
      <trkpt lat="44.11932" lon="6.70092">
        <ele>2174.3999023438</ele>
        <time>2022-08-20T06:47:26Z</time>
      </trkpt>
      <trkpt lat="44.11932" lon="6.70092">
        <ele>2174.6000976562</ele>
        <time>2022-08-20T06:47:28Z</time>
      </trkpt>
      <trkpt lat="44.11932" lon="6.70092">
        <ele>2174.6000976562</ele>
        <time>2022-08-20T06:47:29Z</time>
      </trkpt>
      <trkpt lat="44.11932" lon="6.70092">
        <ele>2174.6000976562</ele>
        <time>2022-08-20T06:47:30Z</time>
      </trkpt>
      <trkpt lat="44.11933" lon="6.70092">
        <ele>2174.3999023438</ele>
        <time>2022-08-20T06:47:35Z</time>
      </trkpt>
      <trkpt lat="44.11933" lon="6.70093">
        <ele>2174.3999023438</ele>
        <time>2022-08-20T06:47:38Z</time>
      </trkpt>
      <trkpt lat="44.11933" lon="6.70093">
        <ele>2174.6000976562</ele>
        <time>2022-08-20T06:47:42Z</time>
      </trkpt>
      <trkpt lat="44.11934" lon="6.70094">
        <ele>2174.6000976562</ele>
        <time>2022-08-20T06:47:47Z</time>
      </trkpt>
      <trkpt lat="44.11934" lon="6.70094">
        <ele>2174.6000976562</ele>
        <time>2022-08-20T06:47:55Z</time>
      </trkpt>
      <trkpt lat="44.11934" lon="6.70096">
        <ele>2174.6000976562</ele>
        <time>2022-08-20T06:47:58Z</time>
      </trkpt>
      <trkpt lat="44.11934" lon="6.70096">
        <ele>2174.6000976562</ele>
        <time>2022-08-20T06:48:07Z</time>
      </trkpt>
      <trkpt lat="44.11933" lon="6.70096">
        <ele>2174.6000976562</ele>
        <time>2022-08-20T06:48:14Z</time>
      </trkpt>
      <trkpt lat="44.11933" lon="6.70096">
        <ele>2174.6000976562</ele>
        <time>2022-08-20T06:48:15Z</time>
      </trkpt>
      <trkpt lat="44.11933" lon="6.70096">
        <ele>2174.6000976562</ele>
        <time>2022-08-20T06:48:18Z</time>
      </trkpt>
      <trkpt lat="44.11933" lon="6.70096">
        <ele>2174.6000976562</ele>
        <time>2022-08-20T06:48:22Z</time>
      </trkpt>
      <trkpt lat="44.11933" lon="6.70096">
        <ele>2174.6000976562</ele>
        <time>2022-08-20T06:48:24Z</time>
      </trkpt>
      <trkpt lat="44.11933" lon="6.70096">
        <ele>2174.6000976562</ele>
        <time>2022-08-20T06:48:26Z</time>
      </trkpt>
      <trkpt lat="44.11933" lon="6.70096">
        <ele>2174.6000976562</ele>
        <time>2022-08-20T06:48:27Z</time>
      </trkpt>
      <trkpt lat="44.11932" lon="6.70096">
        <ele>2174.6000976562</ele>
        <time>2022-08-20T06:48:33Z</time>
      </trkpt>
      <trkpt lat="44.11932" lon="6.70095">
        <ele>2174.6000976562</ele>
        <time>2022-08-20T06:48:36Z</time>
      </trkpt>
      <trkpt lat="44.11932" lon="6.70095">
        <ele>2174.6000976562</ele>
        <time>2022-08-20T06:48:44Z</time>
      </trkpt>
      <trkpt lat="44.11932" lon="6.70095">
        <ele>2174.6000976562</ele>
        <time>2022-08-20T06:48:48Z</time>
      </trkpt>
      <trkpt lat="44.11932" lon="6.70095">
        <ele>2174.6000976562</ele>
        <time>2022-08-20T06:48:52Z</time>
      </trkpt>
      <trkpt lat="44.11932" lon="6.70095">
        <ele>2174.6000976562</ele>
        <time>2022-08-20T06:48:53Z</time>
      </trkpt>
      <trkpt lat="44.11932" lon="6.70097">
        <ele>2174.6000976562</ele>
        <time>2022-08-20T06:49:01Z</time>
      </trkpt>
      <trkpt lat="44.11932" lon="6.70095">
        <ele>2174.6000976562</ele>
        <time>2022-08-20T06:49:08Z</time>
      </trkpt>
      <trkpt lat="44.11931" lon="6.70095">
        <ele>2174.6000976562</ele>
        <time>2022-08-20T06:49:16Z</time>
      </trkpt>
      <trkpt lat="44.11931" lon="6.70094">
        <ele>2174.6000976562</ele>
        <time>2022-08-20T06:49:27Z</time>
      </trkpt>
      <trkpt lat="44.11931" lon="6.70094">
        <ele>2174.6000976562</ele>
        <time>2022-08-20T06:49:33Z</time>
      </trkpt>
      <trkpt lat="44.11933" lon="6.70095">
        <ele>2174.6000976562</ele>
        <time>2022-08-20T06:49:37Z</time>
      </trkpt>
      <trkpt lat="44.11934" lon="6.70096">
        <ele>2174.6000976562</ele>
        <time>2022-08-20T06:49:42Z</time>
      </trkpt>
      <trkpt lat="44.11933" lon="6.70095">
        <ele>2174.6000976562</ele>
        <time>2022-08-20T06:49:48Z</time>
      </trkpt>
      <trkpt lat="44.11933" lon="6.70095">
        <ele>2174.6000976562</ele>
        <time>2022-08-20T06:49:54Z</time>
      </trkpt>
      <trkpt lat="44.11933" lon="6.70094">
        <ele>2174.6000976562</ele>
        <time>2022-08-20T06:49:57Z</time>
      </trkpt>
      <trkpt lat="44.11933" lon="6.70095">
        <ele>2174.6000976562</ele>
        <time>2022-08-20T06:49:59Z</time>
      </trkpt>
      <trkpt lat="44.11933" lon="6.70095">
        <ele>2174.6000976562</ele>
        <time>2022-08-20T06:50:00Z</time>
      </trkpt>
      <trkpt lat="44.11933" lon="6.70095">
        <ele>2174.6000976562</ele>
        <time>2022-08-20T06:50:01Z</time>
      </trkpt>
      <trkpt lat="44.11933" lon="6.70095">
        <ele>2174.6000976562</ele>
        <time>2022-08-20T06:50:03Z</time>
      </trkpt>
      <trkpt lat="44.11933" lon="6.70095">
        <ele>2174.6000976562</ele>
        <time>2022-08-20T06:50:05Z</time>
      </trkpt>
      <trkpt lat="44.11933" lon="6.70095">
        <ele>2174.6000976562</ele>
        <time>2022-08-20T06:50:11Z</time>
      </trkpt>
      <trkpt lat="44.11933" lon="6.70095">
        <ele>2174.6000976562</ele>
        <time>2022-08-20T06:50:17Z</time>
      </trkpt>
      <trkpt lat="44.11932" lon="6.70095">
        <ele>2174.6000976562</ele>
        <time>2022-08-20T06:50:23Z</time>
      </trkpt>
      <trkpt lat="44.11932" lon="6.70095">
        <ele>2174.6000976562</ele>
        <time>2022-08-20T06:50:32Z</time>
      </trkpt>
      <trkpt lat="44.11932" lon="6.70095">
        <ele>2174.6000976562</ele>
        <time>2022-08-20T06:50:34Z</time>
      </trkpt>
      <trkpt lat="44.11932" lon="6.70096">
        <ele>2174.6000976562</ele>
        <time>2022-08-20T06:50:39Z</time>
      </trkpt>
      <trkpt lat="44.11932" lon="6.70095">
        <ele>2174.6000976562</ele>
        <time>2022-08-20T06:50:40Z</time>
      </trkpt>
      <trkpt lat="44.11932" lon="6.70095">
        <ele>2174.6000976562</ele>
        <time>2022-08-20T06:50:41Z</time>
      </trkpt>
      <trkpt lat="44.11933" lon="6.70096">
        <ele>2174.6000976562</ele>
        <time>2022-08-20T06:50:48Z</time>
      </trkpt>
      <trkpt lat="44.11933" lon="6.70097">
        <ele>2174.6000976562</ele>
        <time>2022-08-20T06:51:00Z</time>
      </trkpt>
      <trkpt lat="44.11933" lon="6.70098">
        <ele>2174.6000976562</ele>
        <time>2022-08-20T06:51:06Z</time>
      </trkpt>
      <trkpt lat="44.11932" lon="6.70099">
        <ele>2174.6000976562</ele>
        <time>2022-08-20T06:51:10Z</time>
      </trkpt>
      <trkpt lat="44.11932" lon="6.70099">
        <ele>2174.6000976562</ele>
        <time>2022-08-20T06:51:15Z</time>
      </trkpt>
      <trkpt lat="44.11934" lon="6.70097">
        <ele>2174.6000976562</ele>
        <time>2022-08-20T06:51:21Z</time>
      </trkpt>
      <trkpt lat="44.11934" lon="6.70097">
        <ele>2174.6000976562</ele>
        <time>2022-08-20T06:51:25Z</time>
      </trkpt>
      <trkpt lat="44.11934" lon="6.70095">
        <ele>2174.6000976562</ele>
        <time>2022-08-20T06:51:33Z</time>
      </trkpt>
      <trkpt lat="44.11934" lon="6.70095">
        <ele>2174.6000976562</ele>
        <time>2022-08-20T06:51:35Z</time>
      </trkpt>
      <trkpt lat="44.11934" lon="6.70094">
        <ele>2174.6000976562</ele>
        <time>2022-08-20T06:51:40Z</time>
      </trkpt>
      <trkpt lat="44.11933" lon="6.70095">
        <ele>2174.6000976562</ele>
        <time>2022-08-20T06:51:51Z</time>
      </trkpt>
      <trkpt lat="44.11933" lon="6.70094">
        <ele>2174.6000976562</ele>
        <time>2022-08-20T06:51:57Z</time>
      </trkpt>
      <trkpt lat="44.11933" lon="6.70094">
        <ele>2174.6000976562</ele>
        <time>2022-08-20T06:52:00Z</time>
      </trkpt>
      <trkpt lat="44.11933" lon="6.70094">
        <ele>2174.6000976562</ele>
        <time>2022-08-20T06:52:01Z</time>
      </trkpt>
      <trkpt lat="44.11933" lon="6.70094">
        <ele>2174.6000976562</ele>
        <time>2022-08-20T06:52:03Z</time>
      </trkpt>
      <trkpt lat="44.11932" lon="6.70094">
        <ele>2174.6000976562</ele>
        <time>2022-08-20T06:52:13Z</time>
      </trkpt>
      <trkpt lat="44.11932" lon="6.70094">
        <ele>2174.6000976562</ele>
        <time>2022-08-20T06:52:15Z</time>
      </trkpt>
      <trkpt lat="44.11932" lon="6.70095">
        <ele>2174.6000976562</ele>
        <time>2022-08-20T06:52:19Z</time>
      </trkpt>
      <trkpt lat="44.11932" lon="6.70095">
        <ele>2174.6000976562</ele>
        <time>2022-08-20T06:52:20Z</time>
      </trkpt>
      <trkpt lat="44.11932" lon="6.70094">
        <ele>2174.6000976562</ele>
        <time>2022-08-20T06:52:22Z</time>
      </trkpt>
      <trkpt lat="44.11934" lon="6.70095">
        <ele>2174.6000976562</ele>
        <time>2022-08-20T06:52:27Z</time>
      </trkpt>
      <trkpt lat="44.11934" lon="6.70095">
        <ele>2174.6000976562</ele>
        <time>2022-08-20T06:52:34Z</time>
      </trkpt>
      <trkpt lat="44.11932" lon="6.70095">
        <ele>2174.6000976562</ele>
        <time>2022-08-20T06:52:45Z</time>
      </trkpt>
      <trkpt lat="44.11932" lon="6.70095">
        <ele>2174.6000976562</ele>
        <time>2022-08-20T06:52:54Z</time>
      </trkpt>
      <trkpt lat="44.11933" lon="6.70095">
        <ele>2174.6000976562</ele>
        <time>2022-08-20T06:53:04Z</time>
      </trkpt>
      <trkpt lat="44.11933" lon="6.70095">
        <ele>2174.6000976562</ele>
        <time>2022-08-20T06:53:05Z</time>
      </trkpt>
      <trkpt lat="44.11933" lon="6.70095">
        <ele>2174.6000976562</ele>
        <time>2022-08-20T06:53:06Z</time>
      </trkpt>
      <trkpt lat="44.11933" lon="6.70095">
        <ele>2174.6000976562</ele>
        <time>2022-08-20T06:53:09Z</time>
      </trkpt>
      <trkpt lat="44.11933" lon="6.70094">
        <ele>2174.6000976562</ele>
        <time>2022-08-20T06:53:22Z</time>
      </trkpt>
      <trkpt lat="44.11935" lon="6.70088">
        <ele>2174.6000976562</ele>
        <time>2022-08-20T06:53:27Z</time>
      </trkpt>
      <trkpt lat="44.11935" lon="6.70087">
        <ele>2174.6000976562</ele>
        <time>2022-08-20T06:53:30Z</time>
      </trkpt>
      <trkpt lat="44.11935" lon="6.70087">
        <ele>2174.6000976562</ele>
        <time>2022-08-20T06:53:32Z</time>
      </trkpt>
      <trkpt lat="44.11935" lon="6.70087">
        <ele>2174.6000976562</ele>
        <time>2022-08-20T06:53:39Z</time>
      </trkpt>
      <trkpt lat="44.11935" lon="6.70087">
        <ele>2174.6000976562</ele>
        <time>2022-08-20T06:53:40Z</time>
      </trkpt>
      <trkpt lat="44.11935" lon="6.70086">
        <ele>2174.6000976562</ele>
        <time>2022-08-20T06:53:49Z</time>
      </trkpt>
      <trkpt lat="44.11934" lon="6.70086">
        <ele>2174.6000976562</ele>
        <time>2022-08-20T06:53:54Z</time>
      </trkpt>
      <trkpt lat="44.11934" lon="6.70086">
        <ele>2174.6000976562</ele>
        <time>2022-08-20T06:53:57Z</time>
      </trkpt>
      <trkpt lat="44.11935" lon="6.70087">
        <ele>2174.6000976562</ele>
        <time>2022-08-20T06:54:08Z</time>
      </trkpt>
      <trkpt lat="44.11933" lon="6.70094">
        <ele>2174.6000976562</ele>
        <time>2022-08-20T06:54:16Z</time>
      </trkpt>
      <trkpt lat="44.11932" lon="6.70099">
        <ele>2174.6000976562</ele>
        <time>2022-08-20T06:54:20Z</time>
      </trkpt>
      <trkpt lat="44.11931" lon="6.70105">
        <ele>2174.6000976562</ele>
        <time>2022-08-20T06:54:23Z</time>
      </trkpt>
      <trkpt lat="44.1193" lon="6.70106">
        <ele>2174.6000976562</ele>
        <time>2022-08-20T06:54:24Z</time>
      </trkpt>
      <trkpt lat="44.11929" lon="6.7011">
        <ele>2174.1999511719</ele>
        <time>2022-08-20T06:54:27Z</time>
      </trkpt>
      <trkpt lat="44.11929" lon="6.70115">
        <ele>2174</ele>
        <time>2022-08-20T06:54:31Z</time>
      </trkpt>
      <trkpt lat="44.1193" lon="6.70122">
        <ele>2174.6000976562</ele>
        <time>2022-08-20T06:54:39Z</time>
      </trkpt>
      <trkpt lat="44.11931" lon="6.70128">
        <ele>2175.6000976562</ele>
        <time>2022-08-20T06:54:44Z</time>
      </trkpt>
      <trkpt lat="44.11928" lon="6.7013">
        <ele>2176</ele>
        <time>2022-08-20T06:54:48Z</time>
      </trkpt>
      <trkpt lat="44.11926" lon="6.7013">
        <ele>2176.3999023438</ele>
        <time>2022-08-20T06:54:50Z</time>
      </trkpt>
      <trkpt lat="44.11925" lon="6.70129">
        <ele>2176.6000976562</ele>
        <time>2022-08-20T06:54:52Z</time>
      </trkpt>
      <trkpt lat="44.11925" lon="6.7013">
        <ele>2177</ele>
        <time>2022-08-20T06:54:55Z</time>
      </trkpt>
      <trkpt lat="44.11924" lon="6.7013">
        <ele>2177.1999511719</ele>
        <time>2022-08-20T06:54:58Z</time>
      </trkpt>
      <trkpt lat="44.11922" lon="6.70132">
        <ele>2177.6000976562</ele>
        <time>2022-08-20T06:55:02Z</time>
      </trkpt>
      <trkpt lat="44.11919" lon="6.70136">
        <ele>2178.3999023438</ele>
        <time>2022-08-20T06:55:07Z</time>
      </trkpt>
      <trkpt lat="44.11916" lon="6.70139">
        <ele>2178.8000488281</ele>
        <time>2022-08-20T06:55:10Z</time>
      </trkpt>
      <trkpt lat="44.11913" lon="6.70142">
        <ele>2179.3999023438</ele>
        <time>2022-08-20T06:55:14Z</time>
      </trkpt>
      <trkpt lat="44.11912" lon="6.70143">
        <ele>2179.3999023438</ele>
        <time>2022-08-20T06:55:15Z</time>
      </trkpt>
      <trkpt lat="44.11909" lon="6.70145">
        <ele>2180</ele>
        <time>2022-08-20T06:55:19Z</time>
      </trkpt>
      <trkpt lat="44.11907" lon="6.70145">
        <ele>2180.1999511719</ele>
        <time>2022-08-20T06:55:21Z</time>
      </trkpt>
      <trkpt lat="44.11905" lon="6.70149">
        <ele>2181</ele>
        <time>2022-08-20T06:55:26Z</time>
      </trkpt>
      <trkpt lat="44.11901" lon="6.70151">
        <ele>2182</ele>
        <time>2022-08-20T06:55:33Z</time>
      </trkpt>
      <trkpt lat="44.11901" lon="6.70151">
        <ele>2182.1999511719</ele>
        <time>2022-08-20T06:55:34Z</time>
      </trkpt>
      <trkpt lat="44.11898" lon="6.70153">
        <ele>2183.1999511719</ele>
        <time>2022-08-20T06:55:40Z</time>
      </trkpt>
      <trkpt lat="44.11895" lon="6.70155">
        <ele>2183.6000976562</ele>
        <time>2022-08-20T06:55:44Z</time>
      </trkpt>
      <trkpt lat="44.11893" lon="6.70158">
        <ele>2184.1999511719</ele>
        <time>2022-08-20T06:55:48Z</time>
      </trkpt>
      <trkpt lat="44.11889" lon="6.7016">
        <ele>2185.3999023438</ele>
        <time>2022-08-20T06:55:55Z</time>
      </trkpt>
      <trkpt lat="44.11888" lon="6.70161">
        <ele>2185.6000976562</ele>
        <time>2022-08-20T06:55:57Z</time>
      </trkpt>
      <trkpt lat="44.11888" lon="6.70161">
        <ele>2185.8000488281</ele>
        <time>2022-08-20T06:55:58Z</time>
      </trkpt>
      <trkpt lat="44.11887" lon="6.70164">
        <ele>2186.3999023438</ele>
        <time>2022-08-20T06:56:02Z</time>
      </trkpt>
      <trkpt lat="44.11885" lon="6.70169">
        <ele>2187.3999023438</ele>
        <time>2022-08-20T06:56:09Z</time>
      </trkpt>
      <trkpt lat="44.11883" lon="6.70171">
        <ele>2188</ele>
        <time>2022-08-20T06:56:12Z</time>
      </trkpt>
      <trkpt lat="44.11881" lon="6.70174">
        <ele>2188.6000976562</ele>
        <time>2022-08-20T06:56:16Z</time>
      </trkpt>
      <trkpt lat="44.11878" lon="6.7018">
        <ele>2189.6000976562</ele>
        <time>2022-08-20T06:56:23Z</time>
      </trkpt>
      <trkpt lat="44.11876" lon="6.70182">
        <ele>2190</ele>
        <time>2022-08-20T06:56:26Z</time>
      </trkpt>
      <trkpt lat="44.11874" lon="6.70185">
        <ele>2190.6000976562</ele>
        <time>2022-08-20T06:56:31Z</time>
      </trkpt>
      <trkpt lat="44.11873" lon="6.70186">
        <ele>2191</ele>
        <time>2022-08-20T06:56:36Z</time>
      </trkpt>
      <trkpt lat="44.11869" lon="6.70191">
        <ele>2191.1999511719</ele>
        <time>2022-08-20T06:56:42Z</time>
      </trkpt>
      <trkpt lat="44.11866" lon="6.70194">
        <ele>2191.3999023438</ele>
        <time>2022-08-20T06:56:45Z</time>
      </trkpt>
      <trkpt lat="44.11863" lon="6.70196">
        <ele>2191.8000488281</ele>
        <time>2022-08-20T06:56:47Z</time>
      </trkpt>
      <trkpt lat="44.1186" lon="6.70199">
        <ele>2192</ele>
        <time>2022-08-20T06:56:49Z</time>
      </trkpt>
      <trkpt lat="44.11856" lon="6.70205">
        <ele>2192.8000488281</ele>
        <time>2022-08-20T06:56:53Z</time>
      </trkpt>
      <trkpt lat="44.11854" lon="6.7021">
        <ele>2193.3999023438</ele>
        <time>2022-08-20T06:56:56Z</time>
      </trkpt>
      <trkpt lat="44.11854" lon="6.70213">
        <ele>2193.8000488281</ele>
        <time>2022-08-20T06:56:58Z</time>
      </trkpt>
      <trkpt lat="44.11853" lon="6.70215">
        <ele>2193.8000488281</ele>
        <time>2022-08-20T06:56:59Z</time>
      </trkpt>
      <trkpt lat="44.1185" lon="6.70221">
        <ele>2194.3999023438</ele>
        <time>2022-08-20T06:57:03Z</time>
      </trkpt>
      <trkpt lat="44.11847" lon="6.70229">
        <ele>2194.6000976562</ele>
        <time>2022-08-20T06:57:07Z</time>
      </trkpt>
      <trkpt lat="44.11845" lon="6.70232">
        <ele>2194.8000488281</ele>
        <time>2022-08-20T06:57:09Z</time>
      </trkpt>
      <trkpt lat="44.11843" lon="6.70238">
        <ele>2195</ele>
        <time>2022-08-20T06:57:12Z</time>
      </trkpt>
      <trkpt lat="44.11843" lon="6.7024">
        <ele>2195</ele>
        <time>2022-08-20T06:57:13Z</time>
      </trkpt>
      <trkpt lat="44.11837" lon="6.70248">
        <ele>2196</ele>
        <time>2022-08-20T06:57:20Z</time>
      </trkpt>
      <trkpt lat="44.11836" lon="6.7025">
        <ele>2196.1999511719</ele>
        <time>2022-08-20T06:57:21Z</time>
      </trkpt>
      <trkpt lat="44.11833" lon="6.70256">
        <ele>2197</ele>
        <time>2022-08-20T06:57:26Z</time>
      </trkpt>
      <trkpt lat="44.1183" lon="6.70263">
        <ele>2197.6000976562</ele>
        <time>2022-08-20T06:57:30Z</time>
      </trkpt>
      <trkpt lat="44.11827" lon="6.70273">
        <ele>2198</ele>
        <time>2022-08-20T06:57:35Z</time>
      </trkpt>
      <trkpt lat="44.11825" lon="6.70279">
        <ele>2198.3999023438</ele>
        <time>2022-08-20T06:57:39Z</time>
      </trkpt>
      <trkpt lat="44.11821" lon="6.70288">
        <ele>2199</ele>
        <time>2022-08-20T06:57:45Z</time>
      </trkpt>
      <trkpt lat="44.11819" lon="6.70291">
        <ele>2199.1999511719</ele>
        <time>2022-08-20T06:57:47Z</time>
      </trkpt>
      <trkpt lat="44.11816" lon="6.70299">
        <ele>2199.8000488281</ele>
        <time>2022-08-20T06:57:52Z</time>
      </trkpt>
      <trkpt lat="44.11815" lon="6.70303">
        <ele>2200</ele>
        <time>2022-08-20T06:57:54Z</time>
      </trkpt>
      <trkpt lat="44.11812" lon="6.70307">
        <ele>2200.1999511719</ele>
        <time>2022-08-20T06:57:57Z</time>
      </trkpt>
      <trkpt lat="44.11808" lon="6.70311">
        <ele>2201</ele>
        <time>2022-08-20T06:58:01Z</time>
      </trkpt>
      <trkpt lat="44.11807" lon="6.70312">
        <ele>2201</ele>
        <time>2022-08-20T06:58:02Z</time>
      </trkpt>
      <trkpt lat="44.11805" lon="6.70314">
        <ele>2201.1999511719</ele>
        <time>2022-08-20T06:58:04Z</time>
      </trkpt>
      <trkpt lat="44.11802" lon="6.70319">
        <ele>2202</ele>
        <time>2022-08-20T06:58:08Z</time>
      </trkpt>
      <trkpt lat="44.118" lon="6.70324">
        <ele>2202.3999023438</ele>
        <time>2022-08-20T06:58:11Z</time>
      </trkpt>
      <trkpt lat="44.11796" lon="6.70332">
        <ele>2203.3999023438</ele>
        <time>2022-08-20T06:58:17Z</time>
      </trkpt>
      <trkpt lat="44.11795" lon="6.70333">
        <ele>2203.6000976562</ele>
        <time>2022-08-20T06:58:18Z</time>
      </trkpt>
      <trkpt lat="44.11792" lon="6.7034">
        <ele>2204.3999023438</ele>
        <time>2022-08-20T06:58:22Z</time>
      </trkpt>
      <trkpt lat="44.11792" lon="6.70342">
        <ele>2204.6000976562</ele>
        <time>2022-08-20T06:58:23Z</time>
      </trkpt>
      <trkpt lat="44.1179" lon="6.70346">
        <ele>2205.1999511719</ele>
        <time>2022-08-20T06:58:26Z</time>
      </trkpt>
      <trkpt lat="44.11787" lon="6.70351">
        <ele>2205.6000976562</ele>
        <time>2022-08-20T06:58:29Z</time>
      </trkpt>
      <trkpt lat="44.1178" lon="6.7036">
        <ele>2206.1999511719</ele>
        <time>2022-08-20T06:58:36Z</time>
      </trkpt>
      <trkpt lat="44.11776" lon="6.70362">
        <ele>2206.3999023438</ele>
        <time>2022-08-20T06:58:42Z</time>
      </trkpt>
      <trkpt lat="44.11776" lon="6.70362">
        <ele>2206.6000976562</ele>
        <time>2022-08-20T06:58:45Z</time>
      </trkpt>
      <trkpt lat="44.11776" lon="6.70362">
        <ele>2206.6000976562</ele>
        <time>2022-08-20T06:58:50Z</time>
      </trkpt>
      <trkpt lat="44.11776" lon="6.70362">
        <ele>2206.6000976562</ele>
        <time>2022-08-20T06:58:53Z</time>
      </trkpt>
      <trkpt lat="44.11776" lon="6.70362">
        <ele>2206.6000976562</ele>
        <time>2022-08-20T06:58:55Z</time>
      </trkpt>
      <trkpt lat="44.11776" lon="6.70363">
        <ele>2206.6000976562</ele>
        <time>2022-08-20T06:59:08Z</time>
      </trkpt>
      <trkpt lat="44.11776" lon="6.70363">
        <ele>2206.6000976562</ele>
        <time>2022-08-20T06:59:15Z</time>
      </trkpt>
      <trkpt lat="44.11776" lon="6.70363">
        <ele>2206.6000976562</ele>
        <time>2022-08-20T06:59:17Z</time>
      </trkpt>
      <trkpt lat="44.11777" lon="6.70363">
        <ele>2206.3999023438</ele>
        <time>2022-08-20T06:59:25Z</time>
      </trkpt>
      <trkpt lat="44.11777" lon="6.70363">
        <ele>2206.6000976562</ele>
        <time>2022-08-20T06:59:26Z</time>
      </trkpt>
      <trkpt lat="44.11777" lon="6.70363">
        <ele>2206.8000488281</ele>
        <time>2022-08-20T06:59:29Z</time>
      </trkpt>
      <trkpt lat="44.11777" lon="6.70363">
        <ele>2206.8000488281</ele>
        <time>2022-08-20T06:59:32Z</time>
      </trkpt>
      <trkpt lat="44.11777" lon="6.70363">
        <ele>2206.8000488281</ele>
        <time>2022-08-20T06:59:34Z</time>
      </trkpt>
      <trkpt lat="44.11777" lon="6.70364">
        <ele>2207</ele>
        <time>2022-08-20T06:59:37Z</time>
      </trkpt>
      <trkpt lat="44.11777" lon="6.70363">
        <ele>2206.6000976562</ele>
        <time>2022-08-20T06:59:45Z</time>
      </trkpt>
      <trkpt lat="44.11777" lon="6.70363">
        <ele>2207</ele>
        <time>2022-08-20T06:59:56Z</time>
      </trkpt>
      <trkpt lat="44.11778" lon="6.70364">
        <ele>2207</ele>
        <time>2022-08-20T07:00:02Z</time>
      </trkpt>
      <trkpt lat="44.11779" lon="6.70365">
        <ele>2207</ele>
        <time>2022-08-20T07:00:05Z</time>
      </trkpt>
      <trkpt lat="44.11776" lon="6.70369">
        <ele>2207</ele>
        <time>2022-08-20T07:00:09Z</time>
      </trkpt>
      <trkpt lat="44.11772" lon="6.70372">
        <ele>2207</ele>
        <time>2022-08-20T07:00:11Z</time>
      </trkpt>
      <trkpt lat="44.11771" lon="6.70373">
        <ele>2207</ele>
        <time>2022-08-20T07:00:13Z</time>
      </trkpt>
      <trkpt lat="44.11758" lon="6.70381">
        <ele>2207.6000976562</ele>
        <time>2022-08-20T07:00:22Z</time>
      </trkpt>
      <trkpt lat="44.11756" lon="6.70382">
        <ele>2207.8000488281</ele>
        <time>2022-08-20T07:00:23Z</time>
      </trkpt>
      <trkpt lat="44.11749" lon="6.70388">
        <ele>2208</ele>
        <time>2022-08-20T07:00:29Z</time>
      </trkpt>
      <trkpt lat="44.11744" lon="6.70393">
        <ele>2208</ele>
        <time>2022-08-20T07:00:32Z</time>
      </trkpt>
      <trkpt lat="44.11739" lon="6.70396">
        <ele>2208</ele>
        <time>2022-08-20T07:00:34Z</time>
      </trkpt>
      <trkpt lat="44.1173" lon="6.704">
        <ele>2207.6000976562</ele>
        <time>2022-08-20T07:00:38Z</time>
      </trkpt>
      <trkpt lat="44.11704" lon="6.70411">
        <ele>2208.3999023438</ele>
        <time>2022-08-20T07:00:49Z</time>
      </trkpt>
      <trkpt lat="44.117" lon="6.70413">
        <ele>2208.8000488281</ele>
        <time>2022-08-20T07:00:51Z</time>
      </trkpt>
      <trkpt lat="44.11689" lon="6.70417">
        <ele>2209.6000976562</ele>
        <time>2022-08-20T07:00:57Z</time>
      </trkpt>
      <trkpt lat="44.11686" lon="6.70418">
        <ele>2209.8000488281</ele>
        <time>2022-08-20T07:00:58Z</time>
      </trkpt>
      <trkpt lat="44.11683" lon="6.70419">
        <ele>2210.3999023438</ele>
        <time>2022-08-20T07:01:01Z</time>
      </trkpt>
      <trkpt lat="44.11677" lon="6.70421">
        <ele>2211</ele>
        <time>2022-08-20T07:01:05Z</time>
      </trkpt>
      <trkpt lat="44.11675" lon="6.70422">
        <ele>2211.1999511719</ele>
        <time>2022-08-20T07:01:06Z</time>
      </trkpt>
      <trkpt lat="44.11665" lon="6.70425">
        <ele>2212</ele>
        <time>2022-08-20T07:01:12Z</time>
      </trkpt>
      <trkpt lat="44.1166" lon="6.70425">
        <ele>2212.6000976562</ele>
        <time>2022-08-20T07:01:15Z</time>
      </trkpt>
      <trkpt lat="44.11657" lon="6.70427">
        <ele>2212.8000488281</ele>
        <time>2022-08-20T07:01:17Z</time>
      </trkpt>
      <trkpt lat="44.11654" lon="6.7043">
        <ele>2213.1999511719</ele>
        <time>2022-08-20T07:01:19Z</time>
      </trkpt>
      <trkpt lat="44.11651" lon="6.70431">
        <ele>2213.6000976562</ele>
        <time>2022-08-20T07:01:21Z</time>
      </trkpt>
      <trkpt lat="44.11646" lon="6.70433">
        <ele>2214.3999023438</ele>
        <time>2022-08-20T07:01:24Z</time>
      </trkpt>
      <trkpt lat="44.11641" lon="6.70434">
        <ele>2215.3999023438</ele>
        <time>2022-08-20T07:01:28Z</time>
      </trkpt>
      <trkpt lat="44.11641" lon="6.70434">
        <ele>2215.6000976562</ele>
        <time>2022-08-20T07:01:29Z</time>
      </trkpt>
      <trkpt lat="44.11641" lon="6.70435">
        <ele>2215.6000976562</ele>
        <time>2022-08-20T07:01:30Z</time>
      </trkpt>
      <trkpt lat="44.1164" lon="6.70436">
        <ele>2215.8000488281</ele>
        <time>2022-08-20T07:01:32Z</time>
      </trkpt>
      <trkpt lat="44.11636" lon="6.70439">
        <ele>2216.3999023438</ele>
        <time>2022-08-20T07:01:37Z</time>
      </trkpt>
      <trkpt lat="44.11635" lon="6.70439">
        <ele>2216.6000976562</ele>
        <time>2022-08-20T07:01:38Z</time>
      </trkpt>
      <trkpt lat="44.11633" lon="6.70441">
        <ele>2217.1999511719</ele>
        <time>2022-08-20T07:01:41Z</time>
      </trkpt>
      <trkpt lat="44.11632" lon="6.70443">
        <ele>2217.8000488281</ele>
        <time>2022-08-20T07:01:44Z</time>
      </trkpt>
      <trkpt lat="44.11629" lon="6.70446">
        <ele>2218.8000488281</ele>
        <time>2022-08-20T07:01:50Z</time>
      </trkpt>
      <trkpt lat="44.11625" lon="6.70449">
        <ele>2219.8000488281</ele>
        <time>2022-08-20T07:01:57Z</time>
      </trkpt>
      <trkpt lat="44.1162" lon="6.70454">
        <ele>2221</ele>
        <time>2022-08-20T07:02:05Z</time>
      </trkpt>
      <trkpt lat="44.11617" lon="6.70456">
        <ele>2221.3999023438</ele>
        <time>2022-08-20T07:02:09Z</time>
      </trkpt>
      <trkpt lat="44.11617" lon="6.70455">
        <ele>2221.3999023438</ele>
        <time>2022-08-20T07:02:14Z</time>
      </trkpt>
      <trkpt lat="44.11609" lon="6.70458">
        <ele>2222</ele>
        <time>2022-08-20T07:02:22Z</time>
      </trkpt>
      <trkpt lat="44.11606" lon="6.70459">
        <ele>2222</ele>
        <time>2022-08-20T07:02:23Z</time>
      </trkpt>
      <trkpt lat="44.11604" lon="6.70459">
        <ele>2222.1999511719</ele>
        <time>2022-08-20T07:02:25Z</time>
      </trkpt>
      <trkpt lat="44.11604" lon="6.70459">
        <ele>2222.1999511719</ele>
        <time>2022-08-20T07:02:27Z</time>
      </trkpt>
      <trkpt lat="44.11604" lon="6.7046">
        <ele>2222.1999511719</ele>
        <time>2022-08-20T07:02:29Z</time>
      </trkpt>
      <trkpt lat="44.11603" lon="6.7046">
        <ele>2222.1999511719</ele>
        <time>2022-08-20T07:02:31Z</time>
      </trkpt>
      <trkpt lat="44.11603" lon="6.7046">
        <ele>2222</ele>
        <time>2022-08-20T07:02:38Z</time>
      </trkpt>
      <trkpt lat="44.11597" lon="6.70457">
        <ele>2222.8000488281</ele>
        <time>2022-08-20T07:02:52Z</time>
      </trkpt>
      <trkpt lat="44.11593" lon="6.70456">
        <ele>2222.8000488281</ele>
        <time>2022-08-20T07:02:54Z</time>
      </trkpt>
      <trkpt lat="44.11583" lon="6.70455">
        <ele>2222.8000488281</ele>
        <time>2022-08-20T07:02:59Z</time>
      </trkpt>
      <trkpt lat="44.11579" lon="6.70457">
        <ele>2223.1999511719</ele>
        <time>2022-08-20T07:03:01Z</time>
      </trkpt>
      <trkpt lat="44.11572" lon="6.70467">
        <ele>2223.6000976562</ele>
        <time>2022-08-20T07:03:06Z</time>
      </trkpt>
      <trkpt lat="44.11566" lon="6.70473">
        <ele>2224</ele>
        <time>2022-08-20T07:03:10Z</time>
      </trkpt>
      <trkpt lat="44.11564" lon="6.70474">
        <ele>2224.1999511719</ele>
        <time>2022-08-20T07:03:11Z</time>
      </trkpt>
      <trkpt lat="44.11561" lon="6.70476">
        <ele>2224.8000488281</ele>
        <time>2022-08-20T07:03:13Z</time>
      </trkpt>
      <trkpt lat="44.11558" lon="6.70478">
        <ele>2225.1999511719</ele>
        <time>2022-08-20T07:03:15Z</time>
      </trkpt>
      <trkpt lat="44.11555" lon="6.70482">
        <ele>2225.8000488281</ele>
        <time>2022-08-20T07:03:18Z</time>
      </trkpt>
      <trkpt lat="44.11552" lon="6.70486">
        <ele>2226.3999023438</ele>
        <time>2022-08-20T07:03:21Z</time>
      </trkpt>
      <trkpt lat="44.11544" lon="6.70492">
        <ele>2227.1999511719</ele>
        <time>2022-08-20T07:03:27Z</time>
      </trkpt>
      <trkpt lat="44.11543" lon="6.70493">
        <ele>2227.3999023438</ele>
        <time>2022-08-20T07:03:28Z</time>
      </trkpt>
      <trkpt lat="44.11539" lon="6.70497">
        <ele>2227.8000488281</ele>
        <time>2022-08-20T07:03:32Z</time>
      </trkpt>
      <trkpt lat="44.11536" lon="6.70501">
        <ele>2228.1999511719</ele>
        <time>2022-08-20T07:03:37Z</time>
      </trkpt>
      <trkpt lat="44.11536" lon="6.70501">
        <ele>2228.1999511719</ele>
        <time>2022-08-20T07:03:38Z</time>
      </trkpt>
      <trkpt lat="44.11536" lon="6.70501">
        <ele>2228.1999511719</ele>
        <time>2022-08-20T07:03:42Z</time>
      </trkpt>
      <trkpt lat="44.11538" lon="6.70499">
        <ele>2228.1999511719</ele>
        <time>2022-08-20T07:03:50Z</time>
      </trkpt>
      <trkpt lat="44.11538" lon="6.70497">
        <ele>2227.8000488281</ele>
        <time>2022-08-20T07:03:58Z</time>
      </trkpt>
      <trkpt lat="44.11534" lon="6.70498">
        <ele>2227</ele>
        <time>2022-08-20T07:04:09Z</time>
      </trkpt>
      <trkpt lat="44.11533" lon="6.70498">
        <ele>2227.1999511719</ele>
        <time>2022-08-20T07:04:10Z</time>
      </trkpt>
      <trkpt lat="44.11531" lon="6.70499">
        <ele>2227.6000976562</ele>
        <time>2022-08-20T07:04:15Z</time>
      </trkpt>
      <trkpt lat="44.11528" lon="6.70503">
        <ele>2228.3999023438</ele>
        <time>2022-08-20T07:04:21Z</time>
      </trkpt>
      <trkpt lat="44.11528" lon="6.70503">
        <ele>2228.6000976562</ele>
        <time>2022-08-20T07:04:22Z</time>
      </trkpt>
      <trkpt lat="44.11525" lon="6.70503">
        <ele>2229.8000488281</ele>
        <time>2022-08-20T07:04:27Z</time>
      </trkpt>
      <trkpt lat="44.11521" lon="6.70501">
        <ele>2230.6000976562</ele>
        <time>2022-08-20T07:04:31Z</time>
      </trkpt>
      <trkpt lat="44.11519" lon="6.70499">
        <ele>2230.8000488281</ele>
        <time>2022-08-20T07:04:34Z</time>
      </trkpt>
      <trkpt lat="44.11518" lon="6.70499">
        <ele>2230.8000488281</ele>
        <time>2022-08-20T07:04:35Z</time>
      </trkpt>
      <trkpt lat="44.11514" lon="6.70497">
        <ele>2231.3999023438</ele>
        <time>2022-08-20T07:04:39Z</time>
      </trkpt>
      <trkpt lat="44.11513" lon="6.70496">
        <ele>2231.6000976562</ele>
        <time>2022-08-20T07:04:40Z</time>
      </trkpt>
      <trkpt lat="44.11512" lon="6.70494">
        <ele>2232</ele>
        <time>2022-08-20T07:04:42Z</time>
      </trkpt>
      <trkpt lat="44.11509" lon="6.70494">
        <ele>2232.6000976562</ele>
        <time>2022-08-20T07:04:50Z</time>
      </trkpt>
      <trkpt lat="44.11509" lon="6.70494">
        <ele>2232.6000976562</ele>
        <time>2022-08-20T07:04:55Z</time>
      </trkpt>
      <trkpt lat="44.115" lon="6.70493">
        <ele>2232.8000488281</ele>
        <time>2022-08-20T07:05:02Z</time>
      </trkpt>
      <trkpt lat="44.11494" lon="6.70495">
        <ele>2232.8000488281</ele>
        <time>2022-08-20T07:05:05Z</time>
      </trkpt>
      <trkpt lat="44.11484" lon="6.70501">
        <ele>2232.8000488281</ele>
        <time>2022-08-20T07:05:12Z</time>
      </trkpt>
      <trkpt lat="44.11481" lon="6.70507">
        <ele>2233</ele>
        <time>2022-08-20T07:05:15Z</time>
      </trkpt>
      <trkpt lat="44.11477" lon="6.70514">
        <ele>2233.8000488281</ele>
        <time>2022-08-20T07:05:19Z</time>
      </trkpt>
      <trkpt lat="44.11476" lon="6.70515">
        <ele>2234</ele>
        <time>2022-08-20T07:05:20Z</time>
      </trkpt>
      <trkpt lat="44.11472" lon="6.70519">
        <ele>2234.6000976562</ele>
        <time>2022-08-20T07:05:23Z</time>
      </trkpt>
      <trkpt lat="44.11469" lon="6.70521">
        <ele>2235</ele>
        <time>2022-08-20T07:05:25Z</time>
      </trkpt>
      <trkpt lat="44.11468" lon="6.70522">
        <ele>2235</ele>
        <time>2022-08-20T07:05:26Z</time>
      </trkpt>
      <trkpt lat="44.11465" lon="6.70524">
        <ele>2235.1999511719</ele>
        <time>2022-08-20T07:05:28Z</time>
      </trkpt>
      <trkpt lat="44.1146" lon="6.70527">
        <ele>2235.8000488281</ele>
        <time>2022-08-20T07:05:31Z</time>
      </trkpt>
      <trkpt lat="44.11459" lon="6.70528">
        <ele>2236.1999511719</ele>
        <time>2022-08-20T07:05:32Z</time>
      </trkpt>
      <trkpt lat="44.11457" lon="6.7053">
        <ele>2236.3999023438</ele>
        <time>2022-08-20T07:05:34Z</time>
      </trkpt>
      <trkpt lat="44.11448" lon="6.70533">
        <ele>2237.1999511719</ele>
        <time>2022-08-20T07:05:40Z</time>
      </trkpt>
      <trkpt lat="44.11442" lon="6.70533">
        <ele>2237.6000976562</ele>
        <time>2022-08-20T07:05:44Z</time>
      </trkpt>
      <trkpt lat="44.11432" lon="6.70535">
        <ele>2238</ele>
        <time>2022-08-20T07:05:51Z</time>
      </trkpt>
      <trkpt lat="44.11426" lon="6.70535">
        <ele>2238.1999511719</ele>
        <time>2022-08-20T07:05:55Z</time>
      </trkpt>
      <trkpt lat="44.11422" lon="6.70532">
        <ele>2238.3999023438</ele>
        <time>2022-08-20T07:05:59Z</time>
      </trkpt>
      <trkpt lat="44.11411" lon="6.70533">
        <ele>2239.1999511719</ele>
        <time>2022-08-20T07:06:08Z</time>
      </trkpt>
      <trkpt lat="44.1141" lon="6.70533">
        <ele>2239.1999511719</ele>
        <time>2022-08-20T07:06:09Z</time>
      </trkpt>
      <trkpt lat="44.11403" lon="6.70535">
        <ele>2239.6000976562</ele>
        <time>2022-08-20T07:06:15Z</time>
      </trkpt>
      <trkpt lat="44.11394" lon="6.70538">
        <ele>2240.3999023438</ele>
        <time>2022-08-20T07:06:22Z</time>
      </trkpt>
      <trkpt lat="44.11388" lon="6.70539">
        <ele>2240.8000488281</ele>
        <time>2022-08-20T07:06:26Z</time>
      </trkpt>
      <trkpt lat="44.11384" lon="6.70538">
        <ele>2241.1999511719</ele>
        <time>2022-08-20T07:06:29Z</time>
      </trkpt>
      <trkpt lat="44.11381" lon="6.70536">
        <ele>2241.3999023438</ele>
        <time>2022-08-20T07:06:31Z</time>
      </trkpt>
      <trkpt lat="44.1138" lon="6.70536">
        <ele>2241.6000976562</ele>
        <time>2022-08-20T07:06:32Z</time>
      </trkpt>
      <trkpt lat="44.11371" lon="6.70533">
        <ele>2242.3999023438</ele>
        <time>2022-08-20T07:06:39Z</time>
      </trkpt>
      <trkpt lat="44.1137" lon="6.70532">
        <ele>2242.6000976562</ele>
        <time>2022-08-20T07:06:40Z</time>
      </trkpt>
      <trkpt lat="44.11366" lon="6.70534">
        <ele>2243</ele>
        <time>2022-08-20T07:06:45Z</time>
      </trkpt>
      <trkpt lat="44.11364" lon="6.70537">
        <ele>2243.3999023438</ele>
        <time>2022-08-20T07:06:47Z</time>
      </trkpt>
      <trkpt lat="44.11362" lon="6.70539">
        <ele>2243.6000976562</ele>
        <time>2022-08-20T07:06:49Z</time>
      </trkpt>
      <trkpt lat="44.11355" lon="6.70543">
        <ele>2244.8000488281</ele>
        <time>2022-08-20T07:06:55Z</time>
      </trkpt>
      <trkpt lat="44.11354" lon="6.70543">
        <ele>2244.8000488281</ele>
        <time>2022-08-20T07:06:56Z</time>
      </trkpt>
      <trkpt lat="44.11347" lon="6.7054">
        <ele>2245.8000488281</ele>
        <time>2022-08-20T07:07:03Z</time>
      </trkpt>
      <trkpt lat="44.11338" lon="6.70538">
        <ele>2246.8000488281</ele>
        <time>2022-08-20T07:07:11Z</time>
      </trkpt>
      <trkpt lat="44.11336" lon="6.70538">
        <ele>2247</ele>
        <time>2022-08-20T07:07:13Z</time>
      </trkpt>
      <trkpt lat="44.11335" lon="6.70538">
        <ele>2247.3999023438</ele>
        <time>2022-08-20T07:07:14Z</time>
      </trkpt>
      <trkpt lat="44.11332" lon="6.70535">
        <ele>2248</ele>
        <time>2022-08-20T07:07:18Z</time>
      </trkpt>
      <trkpt lat="44.11331" lon="6.70534">
        <ele>2248</ele>
        <time>2022-08-20T07:07:19Z</time>
      </trkpt>
      <trkpt lat="44.11328" lon="6.70533">
        <ele>2248.3999023438</ele>
        <time>2022-08-20T07:07:22Z</time>
      </trkpt>
      <trkpt lat="44.11324" lon="6.70533">
        <ele>2249</ele>
        <time>2022-08-20T07:07:26Z</time>
      </trkpt>
      <trkpt lat="44.11317" lon="6.70534">
        <ele>2250</ele>
        <time>2022-08-20T07:07:32Z</time>
      </trkpt>
      <trkpt lat="44.11313" lon="6.70537">
        <ele>2250.8000488281</ele>
        <time>2022-08-20T07:07:36Z</time>
      </trkpt>
      <trkpt lat="44.11311" lon="6.70537">
        <ele>2251.1999511719</ele>
        <time>2022-08-20T07:07:38Z</time>
      </trkpt>
      <trkpt lat="44.1131" lon="6.70538">
        <ele>2251.3999023438</ele>
        <time>2022-08-20T07:07:39Z</time>
      </trkpt>
      <trkpt lat="44.11305" lon="6.70541">
        <ele>2252.1999511719</ele>
        <time>2022-08-20T07:07:45Z</time>
      </trkpt>
      <trkpt lat="44.11305" lon="6.70542">
        <ele>2252.3999023438</ele>
        <time>2022-08-20T07:07:46Z</time>
      </trkpt>
      <trkpt lat="44.11297" lon="6.70545">
        <ele>2253.1999511719</ele>
        <time>2022-08-20T07:07:53Z</time>
      </trkpt>
      <trkpt lat="44.11296" lon="6.70546">
        <ele>2253.3999023438</ele>
        <time>2022-08-20T07:07:54Z</time>
      </trkpt>
      <trkpt lat="44.11293" lon="6.7055">
        <ele>2254</ele>
        <time>2022-08-20T07:07:58Z</time>
      </trkpt>
      <trkpt lat="44.11292" lon="6.70551">
        <ele>2254</ele>
        <time>2022-08-20T07:07:59Z</time>
      </trkpt>
      <trkpt lat="44.11292" lon="6.70552">
        <ele>2254.3999023438</ele>
        <time>2022-08-20T07:08:02Z</time>
      </trkpt>
      <trkpt lat="44.11292" lon="6.70552">
        <ele>2254.3999023438</ele>
        <time>2022-08-20T07:08:03Z</time>
      </trkpt>
      <trkpt lat="44.1129" lon="6.70552">
        <ele>2254.8000488281</ele>
        <time>2022-08-20T07:08:07Z</time>
      </trkpt>
      <trkpt lat="44.11285" lon="6.70551">
        <ele>2255.6000976562</ele>
        <time>2022-08-20T07:08:13Z</time>
      </trkpt>
      <trkpt lat="44.11283" lon="6.70551">
        <ele>2256.1999511719</ele>
        <time>2022-08-20T07:08:20Z</time>
      </trkpt>
      <trkpt lat="44.11283" lon="6.7055">
        <ele>2256.6000976562</ele>
        <time>2022-08-20T07:08:27Z</time>
      </trkpt>
      <trkpt lat="44.11283" lon="6.7055">
        <ele>2256.6000976562</ele>
        <time>2022-08-20T07:08:28Z</time>
      </trkpt>
      <trkpt lat="44.11282" lon="6.70548">
        <ele>2256.6000976562</ele>
        <time>2022-08-20T07:08:38Z</time>
      </trkpt>
      <trkpt lat="44.11277" lon="6.70552">
        <ele>2257.3999023438</ele>
        <time>2022-08-20T07:08:48Z</time>
      </trkpt>
      <trkpt lat="44.11276" lon="6.70553">
        <ele>2257.6000976562</ele>
        <time>2022-08-20T07:08:50Z</time>
      </trkpt>
      <trkpt lat="44.11275" lon="6.70553">
        <ele>2257.8000488281</ele>
        <time>2022-08-20T07:08:51Z</time>
      </trkpt>
      <trkpt lat="44.11272" lon="6.70555">
        <ele>2258.3999023438</ele>
        <time>2022-08-20T07:08:56Z</time>
      </trkpt>
      <trkpt lat="44.11269" lon="6.70557">
        <ele>2258.8000488281</ele>
        <time>2022-08-20T07:08:59Z</time>
      </trkpt>
      <trkpt lat="44.11264" lon="6.7056">
        <ele>2259.3999023438</ele>
        <time>2022-08-20T07:09:05Z</time>
      </trkpt>
      <trkpt lat="44.11263" lon="6.70561">
        <ele>2259.6000976562</ele>
        <time>2022-08-20T07:09:06Z</time>
      </trkpt>
      <trkpt lat="44.11262" lon="6.70562">
        <ele>2259.8000488281</ele>
        <time>2022-08-20T07:09:08Z</time>
      </trkpt>
      <trkpt lat="44.11256" lon="6.70565">
        <ele>2261</ele>
        <time>2022-08-20T07:09:16Z</time>
      </trkpt>
      <trkpt lat="44.11254" lon="6.70566">
        <ele>2261.1999511719</ele>
        <time>2022-08-20T07:09:19Z</time>
      </trkpt>
      <trkpt lat="44.1125" lon="6.70565">
        <ele>2262</ele>
        <time>2022-08-20T07:09:25Z</time>
      </trkpt>
      <trkpt lat="44.11244" lon="6.70565">
        <ele>2263</ele>
        <time>2022-08-20T07:09:32Z</time>
      </trkpt>
      <trkpt lat="44.11239" lon="6.70567">
        <ele>2264</ele>
        <time>2022-08-20T07:09:38Z</time>
      </trkpt>
      <trkpt lat="44.11238" lon="6.70567">
        <ele>2264.1999511719</ele>
        <time>2022-08-20T07:09:39Z</time>
      </trkpt>
      <trkpt lat="44.11233" lon="6.70569">
        <ele>2265</ele>
        <time>2022-08-20T07:09:45Z</time>
      </trkpt>
      <trkpt lat="44.11229" lon="6.70574">
        <ele>2266.1999511719</ele>
        <time>2022-08-20T07:09:54Z</time>
      </trkpt>
      <trkpt lat="44.11228" lon="6.70574">
        <ele>2266.3999023438</ele>
        <time>2022-08-20T07:09:57Z</time>
      </trkpt>
      <trkpt lat="44.11222" lon="6.70575">
        <ele>2267.1999511719</ele>
        <time>2022-08-20T07:10:05Z</time>
      </trkpt>
      <trkpt lat="44.11219" lon="6.70575">
        <ele>2267.3999023438</ele>
        <time>2022-08-20T07:10:09Z</time>
      </trkpt>
      <trkpt lat="44.11215" lon="6.70576">
        <ele>2268</ele>
        <time>2022-08-20T07:10:16Z</time>
      </trkpt>
      <trkpt lat="44.11214" lon="6.70576">
        <ele>2268.1999511719</ele>
        <time>2022-08-20T07:10:18Z</time>
      </trkpt>
      <trkpt lat="44.11209" lon="6.7058">
        <ele>2268.8000488281</ele>
        <time>2022-08-20T07:10:24Z</time>
      </trkpt>
      <trkpt lat="44.11207" lon="6.70582">
        <ele>2269</ele>
        <time>2022-08-20T07:10:30Z</time>
      </trkpt>
      <trkpt lat="44.11207" lon="6.70582">
        <ele>2269</ele>
        <time>2022-08-20T07:10:36Z</time>
      </trkpt>
      <trkpt lat="44.11207" lon="6.70582">
        <ele>2269</ele>
        <time>2022-08-20T07:10:51Z</time>
      </trkpt>
      <trkpt lat="44.11207" lon="6.70582">
        <ele>2269</ele>
        <time>2022-08-20T07:10:58Z</time>
      </trkpt>
      <trkpt lat="44.11207" lon="6.70582">
        <ele>2269</ele>
        <time>2022-08-20T07:11:06Z</time>
      </trkpt>
      <trkpt lat="44.11207" lon="6.70582">
        <ele>2268.6000976562</ele>
        <time>2022-08-20T07:11:10Z</time>
      </trkpt>
      <trkpt lat="44.11207" lon="6.70582">
        <ele>2268.6000976562</ele>
        <time>2022-08-20T07:11:17Z</time>
      </trkpt>
      <trkpt lat="44.11207" lon="6.70582">
        <ele>2268.6000976562</ele>
        <time>2022-08-20T07:11:23Z</time>
      </trkpt>
      <trkpt lat="44.11207" lon="6.70582">
        <ele>2268.8000488281</ele>
        <time>2022-08-20T07:11:41Z</time>
      </trkpt>
      <trkpt lat="44.11207" lon="6.70582">
        <ele>2268.8000488281</ele>
        <time>2022-08-20T07:11:45Z</time>
      </trkpt>
      <trkpt lat="44.11207" lon="6.70582">
        <ele>2268.8000488281</ele>
        <time>2022-08-20T07:11:47Z</time>
      </trkpt>
      <trkpt lat="44.11207" lon="6.70582">
        <ele>2268.8000488281</ele>
        <time>2022-08-20T07:11:53Z</time>
      </trkpt>
      <trkpt lat="44.11199" lon="6.70589">
        <ele>2268.6000976562</ele>
        <time>2022-08-20T07:12:05Z</time>
      </trkpt>
      <trkpt lat="44.11187" lon="6.70597">
        <ele>2269</ele>
        <time>2022-08-20T07:12:12Z</time>
      </trkpt>
      <trkpt lat="44.11185" lon="6.70598">
        <ele>2269.1999511719</ele>
        <time>2022-08-20T07:12:13Z</time>
      </trkpt>
      <trkpt lat="44.11181" lon="6.706">
        <ele>2269.1999511719</ele>
        <time>2022-08-20T07:12:16Z</time>
      </trkpt>
      <trkpt lat="44.1118" lon="6.70601">
        <ele>2269.1999511719</ele>
        <time>2022-08-20T07:12:17Z</time>
      </trkpt>
      <trkpt lat="44.11176" lon="6.70603">
        <ele>2269.1999511719</ele>
        <time>2022-08-20T07:12:19Z</time>
      </trkpt>
      <trkpt lat="44.11166" lon="6.70605">
        <ele>2269.3999023438</ele>
        <time>2022-08-20T07:12:26Z</time>
      </trkpt>
      <trkpt lat="44.11157" lon="6.70601">
        <ele>2269.8000488281</ele>
        <time>2022-08-20T07:12:33Z</time>
      </trkpt>
      <trkpt lat="44.11156" lon="6.70601">
        <ele>2269.8000488281</ele>
        <time>2022-08-20T07:12:35Z</time>
      </trkpt>
      <trkpt lat="44.11153" lon="6.70601">
        <ele>2270</ele>
        <time>2022-08-20T07:12:38Z</time>
      </trkpt>
      <trkpt lat="44.11155" lon="6.70602">
        <ele>2270</ele>
        <time>2022-08-20T07:12:42Z</time>
      </trkpt>
      <trkpt lat="44.11155" lon="6.70603">
        <ele>2270.3999023438</ele>
        <time>2022-08-20T07:12:47Z</time>
      </trkpt>
      <trkpt lat="44.11155" lon="6.70603">
        <ele>2270.3999023438</ele>
        <time>2022-08-20T07:12:48Z</time>
      </trkpt>
      <trkpt lat="44.11155" lon="6.70603">
        <ele>2270.6000976562</ele>
        <time>2022-08-20T07:12:58Z</time>
      </trkpt>
      <trkpt lat="44.11155" lon="6.70603">
        <ele>2270.3999023438</ele>
        <time>2022-08-20T07:13:09Z</time>
      </trkpt>
      <trkpt lat="44.11154" lon="6.70602">
        <ele>2270.6000976562</ele>
        <time>2022-08-20T07:13:20Z</time>
      </trkpt>
      <trkpt lat="44.1115" lon="6.70601">
        <ele>2270</ele>
        <time>2022-08-20T07:13:30Z</time>
      </trkpt>
      <trkpt lat="44.11146" lon="6.70601">
        <ele>2269.8000488281</ele>
        <time>2022-08-20T07:13:32Z</time>
      </trkpt>
      <trkpt lat="44.1114" lon="6.70604">
        <ele>2269.1999511719</ele>
        <time>2022-08-20T07:13:35Z</time>
      </trkpt>
      <trkpt lat="44.11136" lon="6.70605">
        <ele>2268.8000488281</ele>
        <time>2022-08-20T07:13:37Z</time>
      </trkpt>
      <trkpt lat="44.11135" lon="6.70606">
        <ele>2268.6000976562</ele>
        <time>2022-08-20T07:13:38Z</time>
      </trkpt>
      <trkpt lat="44.1113" lon="6.70609">
        <ele>2268.1999511719</ele>
        <time>2022-08-20T07:13:41Z</time>
      </trkpt>
      <trkpt lat="44.11129" lon="6.7061">
        <ele>2267.8000488281</ele>
        <time>2022-08-20T07:13:42Z</time>
      </trkpt>
      <trkpt lat="44.11128" lon="6.70611">
        <ele>2267.6000976562</ele>
        <time>2022-08-20T07:13:43Z</time>
      </trkpt>
      <trkpt lat="44.11124" lon="6.70613">
        <ele>2267</ele>
        <time>2022-08-20T07:13:45Z</time>
      </trkpt>
      <trkpt lat="44.11123" lon="6.70614">
        <ele>2266.6000976562</ele>
        <time>2022-08-20T07:13:46Z</time>
      </trkpt>
      <trkpt lat="44.11122" lon="6.70617">
        <ele>2266.1999511719</ele>
        <time>2022-08-20T07:13:48Z</time>
      </trkpt>
      <trkpt lat="44.1112" lon="6.70619">
        <ele>2266</ele>
        <time>2022-08-20T07:13:49Z</time>
      </trkpt>
      <trkpt lat="44.11113" lon="6.7062">
        <ele>2264.8000488281</ele>
        <time>2022-08-20T07:13:53Z</time>
      </trkpt>
      <trkpt lat="44.11101" lon="6.70624">
        <ele>2263.8000488281</ele>
        <time>2022-08-20T07:13:56Z</time>
      </trkpt>
      <trkpt lat="44.11092" lon="6.70623">
        <ele>2262.6000976562</ele>
        <time>2022-08-20T07:13:58Z</time>
      </trkpt>
      <trkpt lat="44.11086" lon="6.70618">
        <ele>2262</ele>
        <time>2022-08-20T07:14:00Z</time>
      </trkpt>
      <trkpt lat="44.11082" lon="6.70615">
        <ele>2261.6000976562</ele>
        <time>2022-08-20T07:14:01Z</time>
      </trkpt>
      <trkpt lat="44.11079" lon="6.70613">
        <ele>2261.1999511719</ele>
        <time>2022-08-20T07:14:02Z</time>
      </trkpt>
      <trkpt lat="44.11063" lon="6.70613">
        <ele>2260.8000488281</ele>
        <time>2022-08-20T07:14:07Z</time>
      </trkpt>
      <trkpt lat="44.11047" lon="6.70615">
        <ele>2261</ele>
        <time>2022-08-20T07:14:13Z</time>
      </trkpt>
      <trkpt lat="44.11047" lon="6.70613">
        <ele>2261</ele>
        <time>2022-08-20T07:14:15Z</time>
      </trkpt>
      <trkpt lat="44.11048" lon="6.70612">
        <ele>2261</ele>
        <time>2022-08-20T07:14:16Z</time>
      </trkpt>
      <trkpt lat="44.11049" lon="6.70614">
        <ele>2261</ele>
        <time>2022-08-20T07:14:18Z</time>
      </trkpt>
      <trkpt lat="44.11049" lon="6.70614">
        <ele>2261.1999511719</ele>
        <time>2022-08-20T07:14:20Z</time>
      </trkpt>
      <trkpt lat="44.11049" lon="6.70613">
        <ele>2261.3999023438</ele>
        <time>2022-08-20T07:14:21Z</time>
      </trkpt>
      <trkpt lat="44.11049" lon="6.70614">
        <ele>2261.6000976562</ele>
        <time>2022-08-20T07:14:25Z</time>
      </trkpt>
      <trkpt lat="44.11049" lon="6.70616">
        <ele>2262</ele>
        <time>2022-08-20T07:14:41Z</time>
      </trkpt>
      <trkpt lat="44.11049" lon="6.70616">
        <ele>2262</ele>
        <time>2022-08-20T07:14:47Z</time>
      </trkpt>
      <trkpt lat="44.11048" lon="6.70617">
        <ele>2262</ele>
        <time>2022-08-20T07:14:53Z</time>
      </trkpt>
      <trkpt lat="44.11048" lon="6.70617">
        <ele>2262.1999511719</ele>
        <time>2022-08-20T07:14:56Z</time>
      </trkpt>
      <trkpt lat="44.11049" lon="6.70617">
        <ele>2262.1999511719</ele>
        <time>2022-08-20T07:15:08Z</time>
      </trkpt>
      <trkpt lat="44.11046" lon="6.70617">
        <ele>2261.8000488281</ele>
        <time>2022-08-20T07:15:23Z</time>
      </trkpt>
      <trkpt lat="44.11039" lon="6.7062">
        <ele>2262.1999511719</ele>
        <time>2022-08-20T07:15:27Z</time>
      </trkpt>
      <trkpt lat="44.11031" lon="6.70621">
        <ele>2262.1999511719</ele>
        <time>2022-08-20T07:15:30Z</time>
      </trkpt>
      <trkpt lat="44.11024" lon="6.70622">
        <ele>2262.1999511719</ele>
        <time>2022-08-20T07:15:33Z</time>
      </trkpt>
      <trkpt lat="44.11014" lon="6.70621">
        <ele>2262.3999023438</ele>
        <time>2022-08-20T07:15:37Z</time>
      </trkpt>
      <trkpt lat="44.1101" lon="6.70619">
        <ele>2262.8000488281</ele>
        <time>2022-08-20T07:15:40Z</time>
      </trkpt>
      <trkpt lat="44.11008" lon="6.70617">
        <ele>2263</ele>
        <time>2022-08-20T07:15:43Z</time>
      </trkpt>
      <trkpt lat="44.11003" lon="6.70616">
        <ele>2263</ele>
        <time>2022-08-20T07:15:46Z</time>
      </trkpt>
      <trkpt lat="44.10992" lon="6.70617">
        <ele>2262.1999511719</ele>
        <time>2022-08-20T07:15:49Z</time>
      </trkpt>
      <trkpt lat="44.10985" lon="6.7062">
        <ele>2261.8000488281</ele>
        <time>2022-08-20T07:15:51Z</time>
      </trkpt>
      <trkpt lat="44.10972" lon="6.70623">
        <ele>2261.1999511719</ele>
        <time>2022-08-20T07:15:55Z</time>
      </trkpt>
      <trkpt lat="44.10964" lon="6.70622">
        <ele>2261</ele>
        <time>2022-08-20T07:15:58Z</time>
      </trkpt>
      <trkpt lat="44.10962" lon="6.70619">
        <ele>2260.8000488281</ele>
        <time>2022-08-20T07:15:59Z</time>
      </trkpt>
      <trkpt lat="44.1096" lon="6.70611">
        <ele>2260.6000976562</ele>
        <time>2022-08-20T07:16:01Z</time>
      </trkpt>
      <trkpt lat="44.10962" lon="6.70603">
        <ele>2260.6000976562</ele>
        <time>2022-08-20T07:16:03Z</time>
      </trkpt>
      <trkpt lat="44.10968" lon="6.70609">
        <ele>2260.8000488281</ele>
        <time>2022-08-20T07:16:06Z</time>
      </trkpt>
      <trkpt lat="44.10968" lon="6.70613">
        <ele>2260.8000488281</ele>
        <time>2022-08-20T07:16:07Z</time>
      </trkpt>
      <trkpt lat="44.1097" lon="6.70621">
        <ele>2261</ele>
        <time>2022-08-20T07:16:10Z</time>
      </trkpt>
      <trkpt lat="44.10966" lon="6.70626">
        <ele>2261</ele>
        <time>2022-08-20T07:16:12Z</time>
      </trkpt>
      <trkpt lat="44.10963" lon="6.70628">
        <ele>2261</ele>
        <time>2022-08-20T07:16:13Z</time>
      </trkpt>
      <trkpt lat="44.10949" lon="6.70628">
        <ele>2260.3999023438</ele>
        <time>2022-08-20T07:16:17Z</time>
      </trkpt>
      <trkpt lat="44.10934" lon="6.70632">
        <ele>2260.1999511719</ele>
        <time>2022-08-20T07:16:23Z</time>
      </trkpt>
      <trkpt lat="44.10909" lon="6.70641">
        <ele>2260</ele>
        <time>2022-08-20T07:16:32Z</time>
      </trkpt>
      <trkpt lat="44.10895" lon="6.70646">
        <ele>2260.1999511719</ele>
        <time>2022-08-20T07:16:37Z</time>
      </trkpt>
      <trkpt lat="44.10887" lon="6.70649">
        <ele>2260.1999511719</ele>
        <time>2022-08-20T07:16:40Z</time>
      </trkpt>
      <trkpt lat="44.10873" lon="6.70652">
        <ele>2260.8000488281</ele>
        <time>2022-08-20T07:16:46Z</time>
      </trkpt>
      <trkpt lat="44.10868" lon="6.70654">
        <ele>2261</ele>
        <time>2022-08-20T07:16:48Z</time>
      </trkpt>
      <trkpt lat="44.10857" lon="6.70659">
        <ele>2261.8000488281</ele>
        <time>2022-08-20T07:16:53Z</time>
      </trkpt>
      <trkpt lat="44.10853" lon="6.70661">
        <ele>2262.1999511719</ele>
        <time>2022-08-20T07:16:55Z</time>
      </trkpt>
      <trkpt lat="44.10848" lon="6.70661">
        <ele>2262.8000488281</ele>
        <time>2022-08-20T07:16:58Z</time>
      </trkpt>
      <trkpt lat="44.10846" lon="6.70661">
        <ele>2263</ele>
        <time>2022-08-20T07:16:59Z</time>
      </trkpt>
      <trkpt lat="44.10844" lon="6.70661">
        <ele>2263.1999511719</ele>
        <time>2022-08-20T07:17:00Z</time>
      </trkpt>
      <trkpt lat="44.10842" lon="6.70661">
        <ele>2263.1999511719</ele>
        <time>2022-08-20T07:17:01Z</time>
      </trkpt>
      <trkpt lat="44.1084" lon="6.70661">
        <ele>2263.3999023438</ele>
        <time>2022-08-20T07:17:02Z</time>
      </trkpt>
      <trkpt lat="44.10831" lon="6.7066">
        <ele>2264</ele>
        <time>2022-08-20T07:17:06Z</time>
      </trkpt>
      <trkpt lat="44.10825" lon="6.7066">
        <ele>2264.8000488281</ele>
        <time>2022-08-20T07:17:10Z</time>
      </trkpt>
      <trkpt lat="44.10821" lon="6.7066">
        <ele>2265</ele>
        <time>2022-08-20T07:17:12Z</time>
      </trkpt>
      <trkpt lat="44.10813" lon="6.7066">
        <ele>2265.3999023438</ele>
        <time>2022-08-20T07:17:16Z</time>
      </trkpt>
      <trkpt lat="44.10804" lon="6.7066">
        <ele>2265.6000976562</ele>
        <time>2022-08-20T07:17:20Z</time>
      </trkpt>
      <trkpt lat="44.10791" lon="6.70663">
        <ele>2266</ele>
        <time>2022-08-20T07:17:26Z</time>
      </trkpt>
      <trkpt lat="44.10783" lon="6.70666">
        <ele>2266.3999023438</ele>
        <time>2022-08-20T07:17:30Z</time>
      </trkpt>
      <trkpt lat="44.10772" lon="6.70669">
        <ele>2267.1999511719</ele>
        <time>2022-08-20T07:17:37Z</time>
      </trkpt>
      <trkpt lat="44.1076" lon="6.70664">
        <ele>2268.1999511719</ele>
        <time>2022-08-20T07:17:45Z</time>
      </trkpt>
      <trkpt lat="44.10759" lon="6.70663">
        <ele>2268.1999511719</ele>
        <time>2022-08-20T07:17:46Z</time>
      </trkpt>
      <trkpt lat="44.10748" lon="6.7066">
        <ele>2268.6000976562</ele>
        <time>2022-08-20T07:17:53Z</time>
      </trkpt>
      <trkpt lat="44.10734" lon="6.70661">
        <ele>2269.1999511719</ele>
        <time>2022-08-20T07:18:01Z</time>
      </trkpt>
      <trkpt lat="44.10722" lon="6.70658">
        <ele>2270.1999511719</ele>
        <time>2022-08-20T07:18:09Z</time>
      </trkpt>
      <trkpt lat="44.10721" lon="6.70658">
        <ele>2270.3999023438</ele>
        <time>2022-08-20T07:18:10Z</time>
      </trkpt>
      <trkpt lat="44.10719" lon="6.70658">
        <ele>2270.3999023438</ele>
        <time>2022-08-20T07:18:11Z</time>
      </trkpt>
      <trkpt lat="44.10712" lon="6.70656">
        <ele>2271.3999023438</ele>
        <time>2022-08-20T07:18:17Z</time>
      </trkpt>
      <trkpt lat="44.1071" lon="6.70656">
        <ele>2271.3999023438</ele>
        <time>2022-08-20T07:18:18Z</time>
      </trkpt>
      <trkpt lat="44.10698" lon="6.70651">
        <ele>2272</ele>
        <time>2022-08-20T07:18:25Z</time>
      </trkpt>
      <trkpt lat="44.10695" lon="6.70648">
        <ele>2272.1999511719</ele>
        <time>2022-08-20T07:18:27Z</time>
      </trkpt>
      <trkpt lat="44.10692" lon="6.70645">
        <ele>2272.3999023438</ele>
        <time>2022-08-20T07:18:29Z</time>
      </trkpt>
      <trkpt lat="44.10683" lon="6.70638">
        <ele>2273.3999023438</ele>
        <time>2022-08-20T07:18:35Z</time>
      </trkpt>
      <trkpt lat="44.10674" lon="6.70637">
        <ele>2274.1999511719</ele>
        <time>2022-08-20T07:18:41Z</time>
      </trkpt>
      <trkpt lat="44.10672" lon="6.70637">
        <ele>2274.3999023438</ele>
        <time>2022-08-20T07:18:42Z</time>
      </trkpt>
      <trkpt lat="44.10669" lon="6.70635">
        <ele>2274.6000976562</ele>
        <time>2022-08-20T07:18:44Z</time>
      </trkpt>
      <trkpt lat="44.10661" lon="6.7063">
        <ele>2275.1999511719</ele>
        <time>2022-08-20T07:18:50Z</time>
      </trkpt>
      <trkpt lat="44.10657" lon="6.70627">
        <ele>2275.3999023438</ele>
        <time>2022-08-20T07:18:54Z</time>
      </trkpt>
      <trkpt lat="44.10657" lon="6.70626">
        <ele>2275.3999023438</ele>
        <time>2022-08-20T07:18:56Z</time>
      </trkpt>
      <trkpt lat="44.10656" lon="6.70626">
        <ele>2275.3999023438</ele>
        <time>2022-08-20T07:18:57Z</time>
      </trkpt>
      <trkpt lat="44.10657" lon="6.70625">
        <ele>2275.3999023438</ele>
        <time>2022-08-20T07:19:00Z</time>
      </trkpt>
      <trkpt lat="44.10656" lon="6.70627">
        <ele>2275.1999511719</ele>
        <time>2022-08-20T07:19:04Z</time>
      </trkpt>
      <trkpt lat="44.10655" lon="6.70628">
        <ele>2274.1999511719</ele>
        <time>2022-08-20T07:19:16Z</time>
      </trkpt>
      <trkpt lat="44.10655" lon="6.70628">
        <ele>2274.3999023438</ele>
        <time>2022-08-20T07:19:24Z</time>
      </trkpt>
      <trkpt lat="44.10655" lon="6.70628">
        <ele>2274.3999023438</ele>
        <time>2022-08-20T07:19:25Z</time>
      </trkpt>
      <trkpt lat="44.10655" lon="6.70628">
        <ele>2274.3999023438</ele>
        <time>2022-08-20T07:19:26Z</time>
      </trkpt>
      <trkpt lat="44.10655" lon="6.70628">
        <ele>2274.6000976562</ele>
        <time>2022-08-20T07:19:27Z</time>
      </trkpt>
      <trkpt lat="44.10654" lon="6.70628">
        <ele>2274.6000976562</ele>
        <time>2022-08-20T07:19:28Z</time>
      </trkpt>
      <trkpt lat="44.10654" lon="6.70628">
        <ele>2274.8000488281</ele>
        <time>2022-08-20T07:19:29Z</time>
      </trkpt>
      <trkpt lat="44.10654" lon="6.70628">
        <ele>2275</ele>
        <time>2022-08-20T07:19:31Z</time>
      </trkpt>
      <trkpt lat="44.10654" lon="6.70628">
        <ele>2275.6000976562</ele>
        <time>2022-08-20T07:19:35Z</time>
      </trkpt>
      <trkpt lat="44.10655" lon="6.70627">
        <ele>2276</ele>
        <time>2022-08-20T07:19:41Z</time>
      </trkpt>
      <trkpt lat="44.10656" lon="6.70628">
        <ele>2276</ele>
        <time>2022-08-20T07:19:43Z</time>
      </trkpt>
      <trkpt lat="44.10657" lon="6.70627">
        <ele>2276</ele>
        <time>2022-08-20T07:19:44Z</time>
      </trkpt>
      <trkpt lat="44.10658" lon="6.70626">
        <ele>2275.8000488281</ele>
        <time>2022-08-20T07:19:46Z</time>
      </trkpt>
      <trkpt lat="44.10659" lon="6.70628">
        <ele>2275.3999023438</ele>
        <time>2022-08-20T07:19:52Z</time>
      </trkpt>
      <trkpt lat="44.10659" lon="6.70628">
        <ele>2275.3999023438</ele>
        <time>2022-08-20T07:19:54Z</time>
      </trkpt>
      <trkpt lat="44.10659" lon="6.70628">
        <ele>2275.3999023438</ele>
        <time>2022-08-20T07:19:58Z</time>
      </trkpt>
      <trkpt lat="44.10659" lon="6.70629">
        <ele>2275.3999023438</ele>
        <time>2022-08-20T07:20:04Z</time>
      </trkpt>
      <trkpt lat="44.10659" lon="6.70631">
        <ele>2275.6000976562</ele>
        <time>2022-08-20T07:20:17Z</time>
      </trkpt>
      <trkpt lat="44.10658" lon="6.7063">
        <ele>2275.8000488281</ele>
        <time>2022-08-20T07:20:19Z</time>
      </trkpt>
      <trkpt lat="44.10657" lon="6.70629">
        <ele>2275.8000488281</ele>
        <time>2022-08-20T07:20:22Z</time>
      </trkpt>
      <trkpt lat="44.10655" lon="6.70629">
        <ele>2276.1999511719</ele>
        <time>2022-08-20T07:20:28Z</time>
      </trkpt>
      <trkpt lat="44.10648" lon="6.70636">
        <ele>2276.1999511719</ele>
        <time>2022-08-20T07:20:33Z</time>
      </trkpt>
      <trkpt lat="44.10642" lon="6.70636">
        <ele>2276.3999023438</ele>
        <time>2022-08-20T07:20:36Z</time>
      </trkpt>
      <trkpt lat="44.10638" lon="6.70633">
        <ele>2276.3999023438</ele>
        <time>2022-08-20T07:20:38Z</time>
      </trkpt>
      <trkpt lat="44.10629" lon="6.70624">
        <ele>2276.3999023438</ele>
        <time>2022-08-20T07:20:43Z</time>
      </trkpt>
      <trkpt lat="44.10619" lon="6.70619">
        <ele>2276.1999511719</ele>
        <time>2022-08-20T07:20:47Z</time>
      </trkpt>
      <trkpt lat="44.10614" lon="6.70619">
        <ele>2276</ele>
        <time>2022-08-20T07:20:49Z</time>
      </trkpt>
      <trkpt lat="44.10612" lon="6.7062">
        <ele>2276</ele>
        <time>2022-08-20T07:20:50Z</time>
      </trkpt>
      <trkpt lat="44.10609" lon="6.70623">
        <ele>2276</ele>
        <time>2022-08-20T07:20:52Z</time>
      </trkpt>
      <trkpt lat="44.10607" lon="6.70626">
        <ele>2276</ele>
        <time>2022-08-20T07:20:54Z</time>
      </trkpt>
      <trkpt lat="44.10603" lon="6.7063">
        <ele>2276.1999511719</ele>
        <time>2022-08-20T07:20:58Z</time>
      </trkpt>
      <trkpt lat="44.10602" lon="6.7063">
        <ele>2276.1999511719</ele>
        <time>2022-08-20T07:20:59Z</time>
      </trkpt>
      <trkpt lat="44.10599" lon="6.70624">
        <ele>2276</ele>
        <time>2022-08-20T07:21:05Z</time>
      </trkpt>
      <trkpt lat="44.10599" lon="6.70624">
        <ele>2276</ele>
        <time>2022-08-20T07:21:06Z</time>
      </trkpt>
      <trkpt lat="44.10599" lon="6.70625">
        <ele>2276</ele>
        <time>2022-08-20T07:21:08Z</time>
      </trkpt>
      <trkpt lat="44.106" lon="6.70625">
        <ele>2276</ele>
        <time>2022-08-20T07:21:14Z</time>
      </trkpt>
      <trkpt lat="44.106" lon="6.70625">
        <ele>2276</ele>
        <time>2022-08-20T07:21:23Z</time>
      </trkpt>
      <trkpt lat="44.106" lon="6.70625">
        <ele>2276</ele>
        <time>2022-08-20T07:21:29Z</time>
      </trkpt>
      <trkpt lat="44.106" lon="6.70625">
        <ele>2276.1999511719</ele>
        <time>2022-08-20T07:21:36Z</time>
      </trkpt>
      <trkpt lat="44.106" lon="6.70625">
        <ele>2276.3999023438</ele>
        <time>2022-08-20T07:21:38Z</time>
      </trkpt>
      <trkpt lat="44.106" lon="6.70625">
        <ele>2276.3999023438</ele>
        <time>2022-08-20T07:21:41Z</time>
      </trkpt>
      <trkpt lat="44.106" lon="6.70625">
        <ele>2276.3999023438</ele>
        <time>2022-08-20T07:21:49Z</time>
      </trkpt>
      <trkpt lat="44.10595" lon="6.70622">
        <ele>2276</ele>
        <time>2022-08-20T07:22:22Z</time>
      </trkpt>
      <trkpt lat="44.10591" lon="6.7062">
        <ele>2275.8000488281</ele>
        <time>2022-08-20T07:22:24Z</time>
      </trkpt>
      <trkpt lat="44.10586" lon="6.70615">
        <ele>2275</ele>
        <time>2022-08-20T07:22:27Z</time>
      </trkpt>
      <trkpt lat="44.10585" lon="6.70613">
        <ele>2274.8000488281</ele>
        <time>2022-08-20T07:22:28Z</time>
      </trkpt>
      <trkpt lat="44.10584" lon="6.70611">
        <ele>2274.6000976562</ele>
        <time>2022-08-20T07:22:29Z</time>
      </trkpt>
      <trkpt lat="44.10578" lon="6.70607">
        <ele>2273.3999023438</ele>
        <time>2022-08-20T07:22:32Z</time>
      </trkpt>
      <trkpt lat="44.10573" lon="6.70603">
        <ele>2272.6000976562</ele>
        <time>2022-08-20T07:22:34Z</time>
      </trkpt>
      <trkpt lat="44.10571" lon="6.706">
        <ele>2271.8000488281</ele>
        <time>2022-08-20T07:22:35Z</time>
      </trkpt>
      <trkpt lat="44.10566" lon="6.70593">
        <ele>2270.8000488281</ele>
        <time>2022-08-20T07:22:37Z</time>
      </trkpt>
      <trkpt lat="44.10556" lon="6.70583">
        <ele>2270</ele>
        <time>2022-08-20T07:22:42Z</time>
      </trkpt>
      <trkpt lat="44.10551" lon="6.7058">
        <ele>2270.3999023438</ele>
        <time>2022-08-20T07:22:45Z</time>
      </trkpt>
      <trkpt lat="44.10547" lon="6.70577">
        <ele>2270.6000976562</ele>
        <time>2022-08-20T07:22:47Z</time>
      </trkpt>
      <trkpt lat="44.10543" lon="6.70575">
        <ele>2270.8000488281</ele>
        <time>2022-08-20T07:22:49Z</time>
      </trkpt>
      <trkpt lat="44.1054" lon="6.70574">
        <ele>2271</ele>
        <time>2022-08-20T07:22:51Z</time>
      </trkpt>
      <trkpt lat="44.10538" lon="6.70577">
        <ele>2271.1999511719</ele>
        <time>2022-08-20T07:22:53Z</time>
      </trkpt>
      <trkpt lat="44.10536" lon="6.70581">
        <ele>2271.3999023438</ele>
        <time>2022-08-20T07:22:55Z</time>
      </trkpt>
      <trkpt lat="44.10528" lon="6.70589">
        <ele>2271.6000976562</ele>
        <time>2022-08-20T07:23:00Z</time>
      </trkpt>
      <trkpt lat="44.10519" lon="6.70592">
        <ele>2271.8000488281</ele>
        <time>2022-08-20T07:23:06Z</time>
      </trkpt>
      <trkpt lat="44.10519" lon="6.70591">
        <ele>2272</ele>
        <time>2022-08-20T07:23:07Z</time>
      </trkpt>
      <trkpt lat="44.10518" lon="6.7059">
        <ele>2272.3999023438</ele>
        <time>2022-08-20T07:23:12Z</time>
      </trkpt>
      <trkpt lat="44.10516" lon="6.70589">
        <ele>2273</ele>
        <time>2022-08-20T07:23:18Z</time>
      </trkpt>
      <trkpt lat="44.10516" lon="6.7059">
        <ele>2273.3999023438</ele>
        <time>2022-08-20T07:23:21Z</time>
      </trkpt>
      <trkpt lat="44.10516" lon="6.7059">
        <ele>2273.1999511719</ele>
        <time>2022-08-20T07:23:30Z</time>
      </trkpt>
      <trkpt lat="44.10515" lon="6.70589">
        <ele>2273.3999023438</ele>
        <time>2022-08-20T07:23:44Z</time>
      </trkpt>
      <trkpt lat="44.10515" lon="6.70589">
        <ele>2273.6000976562</ele>
        <time>2022-08-20T07:23:49Z</time>
      </trkpt>
      <trkpt lat="44.10515" lon="6.70589">
        <ele>2273.6000976562</ele>
        <time>2022-08-20T07:23:55Z</time>
      </trkpt>
      <trkpt lat="44.10516" lon="6.70589">
        <ele>2273.1999511719</ele>
        <time>2022-08-20T07:24:01Z</time>
      </trkpt>
      <trkpt lat="44.10516" lon="6.70589">
        <ele>2273</ele>
        <time>2022-08-20T07:24:02Z</time>
      </trkpt>
      <trkpt lat="44.10515" lon="6.70589">
        <ele>2273</ele>
        <time>2022-08-20T07:24:17Z</time>
      </trkpt>
      <trkpt lat="44.10506" lon="6.70586">
        <ele>2273</ele>
        <time>2022-08-20T07:24:23Z</time>
      </trkpt>
      <trkpt lat="44.10502" lon="6.70583">
        <ele>2273</ele>
        <time>2022-08-20T07:24:26Z</time>
      </trkpt>
      <trkpt lat="44.10497" lon="6.70576">
        <ele>2273.1999511719</ele>
        <time>2022-08-20T07:24:30Z</time>
      </trkpt>
      <trkpt lat="44.10495" lon="6.70575">
        <ele>2273.6000976562</ele>
        <time>2022-08-20T07:24:32Z</time>
      </trkpt>
      <trkpt lat="44.10495" lon="6.70574">
        <ele>2273.8000488281</ele>
        <time>2022-08-20T07:24:33Z</time>
      </trkpt>
      <trkpt lat="44.10496" lon="6.70574">
        <ele>2274</ele>
        <time>2022-08-20T07:24:34Z</time>
      </trkpt>
      <trkpt lat="44.10496" lon="6.70575">
        <ele>2275</ele>
        <time>2022-08-20T07:24:38Z</time>
      </trkpt>
      <trkpt lat="44.10496" lon="6.70575">
        <ele>2274.3999023438</ele>
        <time>2022-08-20T07:24:44Z</time>
      </trkpt>
      <trkpt lat="44.10496" lon="6.70575">
        <ele>2274.3999023438</ele>
        <time>2022-08-20T07:24:50Z</time>
      </trkpt>
      <trkpt lat="44.10495" lon="6.70573">
        <ele>2274.3999023438</ele>
        <time>2022-08-20T07:24:58Z</time>
      </trkpt>
      <trkpt lat="44.10491" lon="6.70564">
        <ele>2274.3999023438</ele>
        <time>2022-08-20T07:25:02Z</time>
      </trkpt>
      <trkpt lat="44.10491" lon="6.70556">
        <ele>2274.1999511719</ele>
        <time>2022-08-20T07:25:05Z</time>
      </trkpt>
      <trkpt lat="44.10493" lon="6.70535">
        <ele>2275</ele>
        <time>2022-08-20T07:25:13Z</time>
      </trkpt>
      <trkpt lat="44.10497" lon="6.70526">
        <ele>2276.1999511719</ele>
        <time>2022-08-20T07:25:17Z</time>
      </trkpt>
      <trkpt lat="44.10502" lon="6.70516">
        <ele>2277.1999511719</ele>
        <time>2022-08-20T07:25:22Z</time>
      </trkpt>
      <trkpt lat="44.10503" lon="6.70514">
        <ele>2277.3999023438</ele>
        <time>2022-08-20T07:25:23Z</time>
      </trkpt>
      <trkpt lat="44.10505" lon="6.70509">
        <ele>2277.8000488281</ele>
        <time>2022-08-20T07:25:25Z</time>
      </trkpt>
      <trkpt lat="44.10506" lon="6.70504">
        <ele>2278</ele>
        <time>2022-08-20T07:25:27Z</time>
      </trkpt>
      <trkpt lat="44.10506" lon="6.70502">
        <ele>2278.1999511719</ele>
        <time>2022-08-20T07:25:28Z</time>
      </trkpt>
      <trkpt lat="44.10507" lon="6.70496">
        <ele>2279.1999511719</ele>
        <time>2022-08-20T07:25:30Z</time>
      </trkpt>
      <trkpt lat="44.10507" lon="6.70494">
        <ele>2279.3999023438</ele>
        <time>2022-08-20T07:25:31Z</time>
      </trkpt>
      <trkpt lat="44.10508" lon="6.70478">
        <ele>2279.8000488281</ele>
        <time>2022-08-20T07:25:37Z</time>
      </trkpt>
      <trkpt lat="44.10508" lon="6.70468">
        <ele>2280.6000976562</ele>
        <time>2022-08-20T07:25:41Z</time>
      </trkpt>
      <trkpt lat="44.10509" lon="6.70461">
        <ele>2281.1999511719</ele>
        <time>2022-08-20T07:25:44Z</time>
      </trkpt>
      <trkpt lat="44.10509" lon="6.70459">
        <ele>2281.3999023438</ele>
        <time>2022-08-20T07:25:45Z</time>
      </trkpt>
      <trkpt lat="44.10508" lon="6.70458">
        <ele>2281.8000488281</ele>
        <time>2022-08-20T07:25:46Z</time>
      </trkpt>
      <trkpt lat="44.10505" lon="6.70458">
        <ele>2282.6000976562</ele>
        <time>2022-08-20T07:25:48Z</time>
      </trkpt>
      <trkpt lat="44.10504" lon="6.70457">
        <ele>2283</ele>
        <time>2022-08-20T07:25:49Z</time>
      </trkpt>
      <trkpt lat="44.10503" lon="6.70456">
        <ele>2283.1999511719</ele>
        <time>2022-08-20T07:25:50Z</time>
      </trkpt>
      <trkpt lat="44.10499" lon="6.70449">
        <ele>2283.8000488281</ele>
        <time>2022-08-20T07:25:54Z</time>
      </trkpt>
      <trkpt lat="44.10499" lon="6.70436">
        <ele>2284.1999511719</ele>
        <time>2022-08-20T07:25:59Z</time>
      </trkpt>
      <trkpt lat="44.105" lon="6.70432">
        <ele>2284.3999023438</ele>
        <time>2022-08-20T07:26:01Z</time>
      </trkpt>
      <trkpt lat="44.10503" lon="6.70425">
        <ele>2285.1999511719</ele>
        <time>2022-08-20T07:26:05Z</time>
      </trkpt>
      <trkpt lat="44.10505" lon="6.7042">
        <ele>2285.8000488281</ele>
        <time>2022-08-20T07:26:08Z</time>
      </trkpt>
      <trkpt lat="44.10507" lon="6.7041">
        <ele>2286.1999511719</ele>
        <time>2022-08-20T07:26:13Z</time>
      </trkpt>
      <trkpt lat="44.10508" lon="6.70406">
        <ele>2286.6000976562</ele>
        <time>2022-08-20T07:26:15Z</time>
      </trkpt>
      <trkpt lat="44.10513" lon="6.70395">
        <ele>2287.3999023438</ele>
        <time>2022-08-20T07:26:20Z</time>
      </trkpt>
      <trkpt lat="44.10515" lon="6.70391">
        <ele>2287.3999023438</ele>
        <time>2022-08-20T07:26:22Z</time>
      </trkpt>
      <trkpt lat="44.10516" lon="6.70384">
        <ele>2287.6000976562</ele>
        <time>2022-08-20T07:26:25Z</time>
      </trkpt>
      <trkpt lat="44.10516" lon="6.70378">
        <ele>2288</ele>
        <time>2022-08-20T07:26:28Z</time>
      </trkpt>
      <trkpt lat="44.10515" lon="6.70375">
        <ele>2288.3999023438</ele>
        <time>2022-08-20T07:26:30Z</time>
      </trkpt>
      <trkpt lat="44.10515" lon="6.70373">
        <ele>2288.8000488281</ele>
        <time>2022-08-20T07:26:31Z</time>
      </trkpt>
      <trkpt lat="44.1051" lon="6.70373">
        <ele>2289.6000976562</ele>
        <time>2022-08-20T07:26:34Z</time>
      </trkpt>
      <trkpt lat="44.10507" lon="6.70375">
        <ele>2289.8000488281</ele>
        <time>2022-08-20T07:26:36Z</time>
      </trkpt>
      <trkpt lat="44.10502" lon="6.70377">
        <ele>2290.6000976562</ele>
        <time>2022-08-20T07:26:40Z</time>
      </trkpt>
      <trkpt lat="44.10499" lon="6.70375">
        <ele>2290.8000488281</ele>
        <time>2022-08-20T07:26:43Z</time>
      </trkpt>
      <trkpt lat="44.10495" lon="6.70373">
        <ele>2291</ele>
        <time>2022-08-20T07:26:46Z</time>
      </trkpt>
      <trkpt lat="44.10493" lon="6.70371">
        <ele>2291.6000976562</ele>
        <time>2022-08-20T07:26:49Z</time>
      </trkpt>
      <trkpt lat="44.10492" lon="6.70371">
        <ele>2291.6000976562</ele>
        <time>2022-08-20T07:26:50Z</time>
      </trkpt>
      <trkpt lat="44.1049" lon="6.70372">
        <ele>2291.8000488281</ele>
        <time>2022-08-20T07:26:52Z</time>
      </trkpt>
      <trkpt lat="44.10489" lon="6.70372">
        <ele>2291.8000488281</ele>
        <time>2022-08-20T07:26:53Z</time>
      </trkpt>
      <trkpt lat="44.10488" lon="6.7037">
        <ele>2291.6000976562</ele>
        <time>2022-08-20T07:26:55Z</time>
      </trkpt>
      <trkpt lat="44.10489" lon="6.70367">
        <ele>2291.6000976562</ele>
        <time>2022-08-20T07:26:57Z</time>
      </trkpt>
      <trkpt lat="44.10491" lon="6.70365">
        <ele>2291.6000976562</ele>
        <time>2022-08-20T07:26:59Z</time>
      </trkpt>
      <trkpt lat="44.10493" lon="6.70366">
        <ele>2292</ele>
        <time>2022-08-20T07:27:02Z</time>
      </trkpt>
      <trkpt lat="44.10493" lon="6.70366">
        <ele>2292.1999511719</ele>
        <time>2022-08-20T07:27:07Z</time>
      </trkpt>
      <trkpt lat="44.10493" lon="6.70366">
        <ele>2292.1999511719</ele>
        <time>2022-08-20T07:27:09Z</time>
      </trkpt>
      <trkpt lat="44.10493" lon="6.70366">
        <ele>2292</ele>
        <time>2022-08-20T07:27:13Z</time>
      </trkpt>
      <trkpt lat="44.10496" lon="6.7037">
        <ele>2292</ele>
        <time>2022-08-20T07:27:19Z</time>
      </trkpt>
      <trkpt lat="44.10496" lon="6.70369">
        <ele>2291.6000976562</ele>
        <time>2022-08-20T07:27:26Z</time>
      </trkpt>
      <trkpt lat="44.10496" lon="6.70367">
        <ele>2291.3999023438</ele>
        <time>2022-08-20T07:27:33Z</time>
      </trkpt>
      <trkpt lat="44.10496" lon="6.70369">
        <ele>2291.8000488281</ele>
        <time>2022-08-20T07:27:38Z</time>
      </trkpt>
      <trkpt lat="44.10496" lon="6.7037">
        <ele>2292</ele>
        <time>2022-08-20T07:27:41Z</time>
      </trkpt>
      <trkpt lat="44.10495" lon="6.70371">
        <ele>2292</ele>
        <time>2022-08-20T07:27:45Z</time>
      </trkpt>
      <trkpt lat="44.10495" lon="6.7037">
        <ele>2292</ele>
        <time>2022-08-20T07:27:47Z</time>
      </trkpt>
      <trkpt lat="44.10495" lon="6.70369">
        <ele>2292</ele>
        <time>2022-08-20T07:27:50Z</time>
      </trkpt>
      <trkpt lat="44.10495" lon="6.70369">
        <ele>2292</ele>
        <time>2022-08-20T07:27:55Z</time>
      </trkpt>
      <trkpt lat="44.10497" lon="6.70373">
        <ele>2291.8000488281</ele>
        <time>2022-08-20T07:28:04Z</time>
      </trkpt>
      <trkpt lat="44.10501" lon="6.70372">
        <ele>2291.1999511719</ele>
        <time>2022-08-20T07:28:12Z</time>
      </trkpt>
      <trkpt lat="44.10498" lon="6.70372">
        <ele>2291.3999023438</ele>
        <time>2022-08-20T07:28:17Z</time>
      </trkpt>
      <trkpt lat="44.10497" lon="6.70371">
        <ele>2291.6000976562</ele>
        <time>2022-08-20T07:28:18Z</time>
      </trkpt>
      <trkpt lat="44.10496" lon="6.70369">
        <ele>2291.8000488281</ele>
        <time>2022-08-20T07:28:20Z</time>
      </trkpt>
      <trkpt lat="44.10495" lon="6.70369">
        <ele>2292</ele>
        <time>2022-08-20T07:28:23Z</time>
      </trkpt>
      <trkpt lat="44.10495" lon="6.7037">
        <ele>2291.8000488281</ele>
        <time>2022-08-20T07:28:25Z</time>
      </trkpt>
      <trkpt lat="44.10495" lon="6.70369">
        <ele>2291.6000976562</ele>
        <time>2022-08-20T07:28:28Z</time>
      </trkpt>
      <trkpt lat="44.10495" lon="6.70368">
        <ele>2291.6000976562</ele>
        <time>2022-08-20T07:28:29Z</time>
      </trkpt>
      <trkpt lat="44.10496" lon="6.70374">
        <ele>2291.6000976562</ele>
        <time>2022-08-20T07:28:36Z</time>
      </trkpt>
      <trkpt lat="44.10499" lon="6.70375">
        <ele>2291.6000976562</ele>
        <time>2022-08-20T07:28:42Z</time>
      </trkpt>
      <trkpt lat="44.10502" lon="6.70374">
        <ele>2291.3999023438</ele>
        <time>2022-08-20T07:28:50Z</time>
      </trkpt>
      <trkpt lat="44.10503" lon="6.70371">
        <ele>2291.8000488281</ele>
        <time>2022-08-20T07:29:00Z</time>
      </trkpt>
      <trkpt lat="44.10503" lon="6.7037">
        <ele>2291.6000976562</ele>
        <time>2022-08-20T07:29:06Z</time>
      </trkpt>
      <trkpt lat="44.10503" lon="6.70369">
        <ele>2291.3999023438</ele>
        <time>2022-08-20T07:29:12Z</time>
      </trkpt>
      <trkpt lat="44.10503" lon="6.7037">
        <ele>2291.3999023438</ele>
        <time>2022-08-20T07:29:18Z</time>
      </trkpt>
      <trkpt lat="44.10503" lon="6.70371">
        <ele>2291.3999023438</ele>
        <time>2022-08-20T07:29:23Z</time>
      </trkpt>
      <trkpt lat="44.10503" lon="6.70373">
        <ele>2291.3999023438</ele>
        <time>2022-08-20T07:29:32Z</time>
      </trkpt>
      <trkpt lat="44.10503" lon="6.70373">
        <ele>2291.3999023438</ele>
        <time>2022-08-20T07:29:34Z</time>
      </trkpt>
      <trkpt lat="44.10503" lon="6.70374">
        <ele>2291.3999023438</ele>
        <time>2022-08-20T07:29:37Z</time>
      </trkpt>
      <trkpt lat="44.10504" lon="6.70373">
        <ele>2291.3999023438</ele>
        <time>2022-08-20T07:29:41Z</time>
      </trkpt>
      <trkpt lat="44.10504" lon="6.70373">
        <ele>2291.3999023438</ele>
        <time>2022-08-20T07:29:43Z</time>
      </trkpt>
      <trkpt lat="44.10504" lon="6.70373">
        <ele>2291.3999023438</ele>
        <time>2022-08-20T07:29:50Z</time>
      </trkpt>
      <trkpt lat="44.10503" lon="6.70373">
        <ele>2291.3999023438</ele>
        <time>2022-08-20T07:29:55Z</time>
      </trkpt>
      <trkpt lat="44.10503" lon="6.70373">
        <ele>2291.3999023438</ele>
        <time>2022-08-20T07:30:00Z</time>
      </trkpt>
      <trkpt lat="44.10503" lon="6.70373">
        <ele>2291.3999023438</ele>
        <time>2022-08-20T07:30:02Z</time>
      </trkpt>
      <trkpt lat="44.10501" lon="6.70372">
        <ele>2291.3999023438</ele>
        <time>2022-08-20T07:30:10Z</time>
      </trkpt>
      <trkpt lat="44.10502" lon="6.70372">
        <ele>2291.3999023438</ele>
        <time>2022-08-20T07:30:16Z</time>
      </trkpt>
      <trkpt lat="44.10503" lon="6.70371">
        <ele>2291.3999023438</ele>
        <time>2022-08-20T07:30:20Z</time>
      </trkpt>
      <trkpt lat="44.10503" lon="6.70371">
        <ele>2291.3999023438</ele>
        <time>2022-08-20T07:30:27Z</time>
      </trkpt>
      <trkpt lat="44.10502" lon="6.70373">
        <ele>2291.3999023438</ele>
        <time>2022-08-20T07:30:38Z</time>
      </trkpt>
      <trkpt lat="44.10502" lon="6.70373">
        <ele>2291.3999023438</ele>
        <time>2022-08-20T07:30:41Z</time>
      </trkpt>
      <trkpt lat="44.10502" lon="6.70372">
        <ele>2291.3999023438</ele>
        <time>2022-08-20T07:30:44Z</time>
      </trkpt>
      <trkpt lat="44.10503" lon="6.70372">
        <ele>2291.3999023438</ele>
        <time>2022-08-20T07:30:47Z</time>
      </trkpt>
      <trkpt lat="44.10502" lon="6.70372">
        <ele>2291.3999023438</ele>
        <time>2022-08-20T07:30:56Z</time>
      </trkpt>
      <trkpt lat="44.10503" lon="6.70372">
        <ele>2291.3999023438</ele>
        <time>2022-08-20T07:31:02Z</time>
      </trkpt>
      <trkpt lat="44.10502" lon="6.70374">
        <ele>2291.3999023438</ele>
        <time>2022-08-20T07:31:04Z</time>
      </trkpt>
      <trkpt lat="44.10502" lon="6.70375">
        <ele>2291.3999023438</ele>
        <time>2022-08-20T07:31:05Z</time>
      </trkpt>
      <trkpt lat="44.10504" lon="6.70376">
        <ele>2291.3999023438</ele>
        <time>2022-08-20T07:31:13Z</time>
      </trkpt>
      <trkpt lat="44.10503" lon="6.70373">
        <ele>2291.3999023438</ele>
        <time>2022-08-20T07:31:20Z</time>
      </trkpt>
      <trkpt lat="44.10504" lon="6.70371">
        <ele>2291.3999023438</ele>
        <time>2022-08-20T07:31:28Z</time>
      </trkpt>
      <trkpt lat="44.10502" lon="6.70373">
        <ele>2291.3999023438</ele>
        <time>2022-08-20T07:31:35Z</time>
      </trkpt>
      <trkpt lat="44.10504" lon="6.70373">
        <ele>2291.3999023438</ele>
        <time>2022-08-20T07:31:39Z</time>
      </trkpt>
      <trkpt lat="44.10504" lon="6.70375">
        <ele>2291.3999023438</ele>
        <time>2022-08-20T07:31:41Z</time>
      </trkpt>
      <trkpt lat="44.10504" lon="6.70374">
        <ele>2291.3999023438</ele>
        <time>2022-08-20T07:31:47Z</time>
      </trkpt>
      <trkpt lat="44.10504" lon="6.70373">
        <ele>2291.3999023438</ele>
        <time>2022-08-20T07:31:48Z</time>
      </trkpt>
      <trkpt lat="44.10505" lon="6.70371">
        <ele>2291.3999023438</ele>
        <time>2022-08-20T07:31:58Z</time>
      </trkpt>
      <trkpt lat="44.10505" lon="6.7037">
        <ele>2291.3999023438</ele>
        <time>2022-08-20T07:32:04Z</time>
      </trkpt>
      <trkpt lat="44.10505" lon="6.7037">
        <ele>2291.3999023438</ele>
        <time>2022-08-20T07:32:08Z</time>
      </trkpt>
      <trkpt lat="44.10502" lon="6.70373">
        <ele>2291.3999023438</ele>
        <time>2022-08-20T07:32:15Z</time>
      </trkpt>
      <trkpt lat="44.10503" lon="6.70375">
        <ele>2291.3999023438</ele>
        <time>2022-08-20T07:32:23Z</time>
      </trkpt>
      <trkpt lat="44.10502" lon="6.70378">
        <ele>2291.3999023438</ele>
        <time>2022-08-20T07:32:32Z</time>
      </trkpt>
      <trkpt lat="44.10501" lon="6.70381">
        <ele>2291.3999023438</ele>
        <time>2022-08-20T07:32:41Z</time>
      </trkpt>
      <trkpt lat="44.10501" lon="6.70382">
        <ele>2291.3999023438</ele>
        <time>2022-08-20T07:32:48Z</time>
      </trkpt>
      <trkpt lat="44.10501" lon="6.70382">
        <ele>2291.3999023438</ele>
        <time>2022-08-20T07:32:49Z</time>
      </trkpt>
      <trkpt lat="44.105" lon="6.70382">
        <ele>2291.3999023438</ele>
        <time>2022-08-20T07:32:51Z</time>
      </trkpt>
      <trkpt lat="44.10499" lon="6.70384">
        <ele>2291.3999023438</ele>
        <time>2022-08-20T07:32:58Z</time>
      </trkpt>
      <trkpt lat="44.10499" lon="6.70385">
        <ele>2291.3999023438</ele>
        <time>2022-08-20T07:33:08Z</time>
      </trkpt>
      <trkpt lat="44.10499" lon="6.70385">
        <ele>2291.3999023438</ele>
        <time>2022-08-20T07:33:22Z</time>
      </trkpt>
      <trkpt lat="44.10503" lon="6.70385">
        <ele>2291.3999023438</ele>
        <time>2022-08-20T07:33:32Z</time>
      </trkpt>
      <trkpt lat="44.10503" lon="6.70385">
        <ele>2291.3999023438</ele>
        <time>2022-08-20T07:33:34Z</time>
      </trkpt>
      <trkpt lat="44.10504" lon="6.70385">
        <ele>2291.3999023438</ele>
        <time>2022-08-20T07:33:39Z</time>
      </trkpt>
      <trkpt lat="44.10504" lon="6.70385">
        <ele>2291.3999023438</ele>
        <time>2022-08-20T07:33:41Z</time>
      </trkpt>
      <trkpt lat="44.10504" lon="6.70385">
        <ele>2291.3999023438</ele>
        <time>2022-08-20T07:33:45Z</time>
      </trkpt>
      <trkpt lat="44.10504" lon="6.70385">
        <ele>2291.3999023438</ele>
        <time>2022-08-20T07:33:48Z</time>
      </trkpt>
      <trkpt lat="44.10505" lon="6.70379">
        <ele>2291.3999023438</ele>
        <time>2022-08-20T07:34:01Z</time>
      </trkpt>
      <trkpt lat="44.10507" lon="6.7037">
        <ele>2291.3999023438</ele>
        <time>2022-08-20T07:34:08Z</time>
      </trkpt>
      <trkpt lat="44.10507" lon="6.70369">
        <ele>2291.3999023438</ele>
        <time>2022-08-20T07:34:11Z</time>
      </trkpt>
      <trkpt lat="44.10508" lon="6.70369">
        <ele>2291.6000976562</ele>
        <time>2022-08-20T07:34:14Z</time>
      </trkpt>
      <trkpt lat="44.10508" lon="6.70368">
        <ele>2291.8000488281</ele>
        <time>2022-08-20T07:34:16Z</time>
      </trkpt>
      <trkpt lat="44.10508" lon="6.70367">
        <ele>2292.8000488281</ele>
        <time>2022-08-20T07:34:20Z</time>
      </trkpt>
      <trkpt lat="44.10507" lon="6.70367">
        <ele>2293.3999023438</ele>
        <time>2022-08-20T07:34:24Z</time>
      </trkpt>
      <trkpt lat="44.10507" lon="6.70367">
        <ele>2293.8000488281</ele>
        <time>2022-08-20T07:34:32Z</time>
      </trkpt>
      <trkpt lat="44.10508" lon="6.70367">
        <ele>2293.6000976562</ele>
        <time>2022-08-20T07:34:37Z</time>
      </trkpt>
      <trkpt lat="44.10508" lon="6.70367">
        <ele>2293.3999023438</ele>
        <time>2022-08-20T07:34:39Z</time>
      </trkpt>
      <trkpt lat="44.10508" lon="6.70367">
        <ele>2293.1999511719</ele>
        <time>2022-08-20T07:34:43Z</time>
      </trkpt>
      <trkpt lat="44.10506" lon="6.70366">
        <ele>2293.6000976562</ele>
        <time>2022-08-20T07:34:58Z</time>
      </trkpt>
      <trkpt lat="44.10504" lon="6.70364">
        <ele>2293.1999511719</ele>
        <time>2022-08-20T07:35:08Z</time>
      </trkpt>
      <trkpt lat="44.10504" lon="6.70365">
        <ele>2293.1999511719</ele>
        <time>2022-08-20T07:35:10Z</time>
      </trkpt>
      <trkpt lat="44.10504" lon="6.70365">
        <ele>2293.1999511719</ele>
        <time>2022-08-20T07:35:12Z</time>
      </trkpt>
      <trkpt lat="44.105" lon="6.70369">
        <ele>2293.1999511719</ele>
        <time>2022-08-20T07:35:19Z</time>
      </trkpt>
      <trkpt lat="44.10494" lon="6.70374">
        <ele>2293.1999511719</ele>
        <time>2022-08-20T07:35:28Z</time>
      </trkpt>
      <trkpt lat="44.10493" lon="6.70376">
        <ele>2293.1999511719</ele>
        <time>2022-08-20T07:35:30Z</time>
      </trkpt>
      <trkpt lat="44.10493" lon="6.70377">
        <ele>2293.1999511719</ele>
        <time>2022-08-20T07:35:34Z</time>
      </trkpt>
      <trkpt lat="44.10493" lon="6.70377">
        <ele>2293.1999511719</ele>
        <time>2022-08-20T07:35:36Z</time>
      </trkpt>
      <trkpt lat="44.10493" lon="6.70377">
        <ele>2293.1999511719</ele>
        <time>2022-08-20T07:35:38Z</time>
      </trkpt>
      <trkpt lat="44.10493" lon="6.70377">
        <ele>2293.1999511719</ele>
        <time>2022-08-20T07:35:40Z</time>
      </trkpt>
      <trkpt lat="44.10493" lon="6.70378">
        <ele>2293.1999511719</ele>
        <time>2022-08-20T07:35:48Z</time>
      </trkpt>
      <trkpt lat="44.10494" lon="6.70379">
        <ele>2293.1999511719</ele>
        <time>2022-08-20T07:35:54Z</time>
      </trkpt>
      <trkpt lat="44.10494" lon="6.70379">
        <ele>2293.1999511719</ele>
        <time>2022-08-20T07:35:56Z</time>
      </trkpt>
      <trkpt lat="44.10494" lon="6.70379">
        <ele>2293.1999511719</ele>
        <time>2022-08-20T07:35:59Z</time>
      </trkpt>
      <trkpt lat="44.10494" lon="6.70378">
        <ele>2293.1999511719</ele>
        <time>2022-08-20T07:36:07Z</time>
      </trkpt>
      <trkpt lat="44.10495" lon="6.70376">
        <ele>2293.1999511719</ele>
        <time>2022-08-20T07:36:10Z</time>
      </trkpt>
      <trkpt lat="44.10496" lon="6.70374">
        <ele>2293.1999511719</ele>
        <time>2022-08-20T07:36:12Z</time>
      </trkpt>
      <trkpt lat="44.10497" lon="6.70373">
        <ele>2293.1999511719</ele>
        <time>2022-08-20T07:36:19Z</time>
      </trkpt>
      <trkpt lat="44.10497" lon="6.70373">
        <ele>2293.1999511719</ele>
        <time>2022-08-20T07:36:22Z</time>
      </trkpt>
      <trkpt lat="44.10497" lon="6.70372">
        <ele>2293.1999511719</ele>
        <time>2022-08-20T07:36:26Z</time>
      </trkpt>
      <trkpt lat="44.10497" lon="6.70372">
        <ele>2293.1999511719</ele>
        <time>2022-08-20T07:36:29Z</time>
      </trkpt>
      <trkpt lat="44.10497" lon="6.70372">
        <ele>2293.1999511719</ele>
        <time>2022-08-20T07:36:31Z</time>
      </trkpt>
      <trkpt lat="44.10496" lon="6.70373">
        <ele>2293.1999511719</ele>
        <time>2022-08-20T07:36:39Z</time>
      </trkpt>
      <trkpt lat="44.10496" lon="6.70372">
        <ele>2293.1999511719</ele>
        <time>2022-08-20T07:36:48Z</time>
      </trkpt>
      <trkpt lat="44.10496" lon="6.70372">
        <ele>2293.1999511719</ele>
        <time>2022-08-20T07:36:50Z</time>
      </trkpt>
      <trkpt lat="44.10495" lon="6.70371">
        <ele>2293.1999511719</ele>
        <time>2022-08-20T07:36:57Z</time>
      </trkpt>
      <trkpt lat="44.10495" lon="6.7037">
        <ele>2293.1999511719</ele>
        <time>2022-08-20T07:36:59Z</time>
      </trkpt>
      <trkpt lat="44.10494" lon="6.7037">
        <ele>2293.1999511719</ele>
        <time>2022-08-20T07:37:06Z</time>
      </trkpt>
      <trkpt lat="44.10494" lon="6.7037">
        <ele>2293.1999511719</ele>
        <time>2022-08-20T07:37:07Z</time>
      </trkpt>
      <trkpt lat="44.10494" lon="6.7037">
        <ele>2293.1999511719</ele>
        <time>2022-08-20T07:37:13Z</time>
      </trkpt>
      <trkpt lat="44.10494" lon="6.70369">
        <ele>2293.1999511719</ele>
        <time>2022-08-20T07:37:16Z</time>
      </trkpt>
      <trkpt lat="44.10494" lon="6.70369">
        <ele>2293.1999511719</ele>
        <time>2022-08-20T07:37:28Z</time>
      </trkpt>
      <trkpt lat="44.10494" lon="6.70368">
        <ele>2293.1999511719</ele>
        <time>2022-08-20T07:37:29Z</time>
      </trkpt>
      <trkpt lat="44.10494" lon="6.70368">
        <ele>2293.1999511719</ele>
        <time>2022-08-20T07:37:37Z</time>
      </trkpt>
      <trkpt lat="44.10494" lon="6.70369">
        <ele>2293.1999511719</ele>
        <time>2022-08-20T07:37:40Z</time>
      </trkpt>
      <trkpt lat="44.10495" lon="6.7037">
        <ele>2293.1999511719</ele>
        <time>2022-08-20T07:37:47Z</time>
      </trkpt>
      <trkpt lat="44.10496" lon="6.7037">
        <ele>2293.1999511719</ele>
        <time>2022-08-20T07:37:57Z</time>
      </trkpt>
      <trkpt lat="44.10496" lon="6.7037">
        <ele>2293.1999511719</ele>
        <time>2022-08-20T07:38:00Z</time>
      </trkpt>
      <trkpt lat="44.10496" lon="6.7037">
        <ele>2293.1999511719</ele>
        <time>2022-08-20T07:38:02Z</time>
      </trkpt>
      <trkpt lat="44.10496" lon="6.7037">
        <ele>2293.1999511719</ele>
        <time>2022-08-20T07:38:05Z</time>
      </trkpt>
      <trkpt lat="44.10496" lon="6.7037">
        <ele>2293.1999511719</ele>
        <time>2022-08-20T07:38:09Z</time>
      </trkpt>
      <trkpt lat="44.10496" lon="6.7037">
        <ele>2293.1999511719</ele>
        <time>2022-08-20T07:38:12Z</time>
      </trkpt>
      <trkpt lat="44.10496" lon="6.7037">
        <ele>2293.1999511719</ele>
        <time>2022-08-20T07:38:16Z</time>
      </trkpt>
      <trkpt lat="44.10495" lon="6.7037">
        <ele>2293.1999511719</ele>
        <time>2022-08-20T07:38:28Z</time>
      </trkpt>
      <trkpt lat="44.10495" lon="6.7037">
        <ele>2293.1999511719</ele>
        <time>2022-08-20T07:38:43Z</time>
      </trkpt>
      <trkpt lat="44.10495" lon="6.7037">
        <ele>2293.1999511719</ele>
        <time>2022-08-20T07:38:49Z</time>
      </trkpt>
      <trkpt lat="44.10495" lon="6.7037">
        <ele>2293.1999511719</ele>
        <time>2022-08-20T07:38:53Z</time>
      </trkpt>
      <trkpt lat="44.10495" lon="6.7037">
        <ele>2293.1999511719</ele>
        <time>2022-08-20T07:38:55Z</time>
      </trkpt>
      <trkpt lat="44.10494" lon="6.7037">
        <ele>2293.1999511719</ele>
        <time>2022-08-20T07:39:07Z</time>
      </trkpt>
      <trkpt lat="44.10494" lon="6.7037">
        <ele>2293.1999511719</ele>
        <time>2022-08-20T07:39:15Z</time>
      </trkpt>
      <trkpt lat="44.10494" lon="6.7037">
        <ele>2293.1999511719</ele>
        <time>2022-08-20T07:39:17Z</time>
      </trkpt>
      <trkpt lat="44.1049" lon="6.70371">
        <ele>2293.1999511719</ele>
        <time>2022-08-20T07:39:29Z</time>
      </trkpt>
      <trkpt lat="44.10484" lon="6.70375">
        <ele>2293.1999511719</ele>
        <time>2022-08-20T07:39:35Z</time>
      </trkpt>
      <trkpt lat="44.10482" lon="6.70375">
        <ele>2293.1999511719</ele>
        <time>2022-08-20T07:39:37Z</time>
      </trkpt>
      <trkpt lat="44.10481" lon="6.70376">
        <ele>2293.1999511719</ele>
        <time>2022-08-20T07:39:38Z</time>
      </trkpt>
      <trkpt lat="44.1048" lon="6.70377">
        <ele>2293.1999511719</ele>
        <time>2022-08-20T07:39:39Z</time>
      </trkpt>
      <trkpt lat="44.10479" lon="6.70377">
        <ele>2293.3999023438</ele>
        <time>2022-08-20T07:39:41Z</time>
      </trkpt>
      <trkpt lat="44.10476" lon="6.70379">
        <ele>2293.6000976562</ele>
        <time>2022-08-20T07:39:44Z</time>
      </trkpt>
      <trkpt lat="44.10474" lon="6.7038">
        <ele>2293.6000976562</ele>
        <time>2022-08-20T07:39:46Z</time>
      </trkpt>
      <trkpt lat="44.10472" lon="6.70381">
        <ele>2293.6000976562</ele>
        <time>2022-08-20T07:39:49Z</time>
      </trkpt>
      <trkpt lat="44.10469" lon="6.70383">
        <ele>2293.8000488281</ele>
        <time>2022-08-20T07:39:52Z</time>
      </trkpt>
      <trkpt lat="44.10468" lon="6.70384">
        <ele>2294</ele>
        <time>2022-08-20T07:39:53Z</time>
      </trkpt>
      <trkpt lat="44.10467" lon="6.70385">
        <ele>2294</ele>
        <time>2022-08-20T07:39:55Z</time>
      </trkpt>
      <trkpt lat="44.10463" lon="6.70387">
        <ele>2294.1999511719</ele>
        <time>2022-08-20T07:39:59Z</time>
      </trkpt>
      <trkpt lat="44.10462" lon="6.70388">
        <ele>2294.1999511719</ele>
        <time>2022-08-20T07:40:00Z</time>
      </trkpt>
      <trkpt lat="44.10455" lon="6.70391">
        <ele>2294.3999023438</ele>
        <time>2022-08-20T07:40:07Z</time>
      </trkpt>
      <trkpt lat="44.10453" lon="6.70392">
        <ele>2294.6000976562</ele>
        <time>2022-08-20T07:40:09Z</time>
      </trkpt>
      <trkpt lat="44.10451" lon="6.70392">
        <ele>2295.1999511719</ele>
        <time>2022-08-20T07:40:11Z</time>
      </trkpt>
      <trkpt lat="44.10448" lon="6.70392">
        <ele>2295.6000976562</ele>
        <time>2022-08-20T07:40:14Z</time>
      </trkpt>
      <trkpt lat="44.10446" lon="6.70392">
        <ele>2295.8000488281</ele>
        <time>2022-08-20T07:40:16Z</time>
      </trkpt>
      <trkpt lat="44.10442" lon="6.7039">
        <ele>2296.1999511719</ele>
        <time>2022-08-20T07:40:22Z</time>
      </trkpt>
      <trkpt lat="44.1044" lon="6.70389">
        <ele>2296.3999023438</ele>
        <time>2022-08-20T07:40:25Z</time>
      </trkpt>
      <trkpt lat="44.10438" lon="6.70385">
        <ele>2297.3999023438</ele>
        <time>2022-08-20T07:40:33Z</time>
      </trkpt>
      <trkpt lat="44.10438" lon="6.70385">
        <ele>2297.6000976562</ele>
        <time>2022-08-20T07:40:35Z</time>
      </trkpt>
      <trkpt lat="44.10438" lon="6.70385">
        <ele>2297.6000976562</ele>
        <time>2022-08-20T07:40:41Z</time>
      </trkpt>
      <trkpt lat="44.10438" lon="6.70385">
        <ele>2297.8000488281</ele>
        <time>2022-08-20T07:40:51Z</time>
      </trkpt>
      <trkpt lat="44.10438" lon="6.70385">
        <ele>2297.8000488281</ele>
        <time>2022-08-20T07:40:54Z</time>
      </trkpt>
      <trkpt lat="44.10435" lon="6.70385">
        <ele>2297.6000976562</ele>
        <time>2022-08-20T07:41:06Z</time>
      </trkpt>
      <trkpt lat="44.10434" lon="6.70383">
        <ele>2297.8000488281</ele>
        <time>2022-08-20T07:41:13Z</time>
      </trkpt>
      <trkpt lat="44.10428" lon="6.70378">
        <ele>2297.3999023438</ele>
        <time>2022-08-20T07:41:20Z</time>
      </trkpt>
      <trkpt lat="44.10427" lon="6.70376">
        <ele>2297.6000976562</ele>
        <time>2022-08-20T07:41:22Z</time>
      </trkpt>
      <trkpt lat="44.10423" lon="6.70374">
        <ele>2298.3999023438</ele>
        <time>2022-08-20T07:41:26Z</time>
      </trkpt>
      <trkpt lat="44.10421" lon="6.70372">
        <ele>2298.8000488281</ele>
        <time>2022-08-20T07:41:28Z</time>
      </trkpt>
      <trkpt lat="44.10417" lon="6.7037">
        <ele>2299.1999511719</ele>
        <time>2022-08-20T07:41:33Z</time>
      </trkpt>
      <trkpt lat="44.10415" lon="6.70369">
        <ele>2299.6000976562</ele>
        <time>2022-08-20T07:41:35Z</time>
      </trkpt>
      <trkpt lat="44.10413" lon="6.70368">
        <ele>2299.8000488281</ele>
        <time>2022-08-20T07:41:37Z</time>
      </trkpt>
      <trkpt lat="44.1041" lon="6.70365">
        <ele>2300.6000976562</ele>
        <time>2022-08-20T07:41:42Z</time>
      </trkpt>
      <trkpt lat="44.10409" lon="6.70365">
        <ele>2300.8000488281</ele>
        <time>2022-08-20T07:41:43Z</time>
      </trkpt>
      <trkpt lat="44.10406" lon="6.70363">
        <ele>2301</ele>
        <time>2022-08-20T07:41:46Z</time>
      </trkpt>
      <trkpt lat="44.10404" lon="6.70362">
        <ele>2301.3999023438</ele>
        <time>2022-08-20T07:41:49Z</time>
      </trkpt>
      <trkpt lat="44.10402" lon="6.70361">
        <ele>2301.6000976562</ele>
        <time>2022-08-20T07:41:52Z</time>
      </trkpt>
      <trkpt lat="44.104" lon="6.70359">
        <ele>2302.3999023438</ele>
        <time>2022-08-20T07:41:55Z</time>
      </trkpt>
      <trkpt lat="44.10399" lon="6.70359">
        <ele>2302.8000488281</ele>
        <time>2022-08-20T07:41:56Z</time>
      </trkpt>
      <trkpt lat="44.10395" lon="6.70358">
        <ele>2303.3999023438</ele>
        <time>2022-08-20T07:42:04Z</time>
      </trkpt>
      <trkpt lat="44.10395" lon="6.70358">
        <ele>2303.6000976562</ele>
        <time>2022-08-20T07:42:08Z</time>
      </trkpt>
      <trkpt lat="44.10395" lon="6.70358">
        <ele>2303.6000976562</ele>
        <time>2022-08-20T07:42:13Z</time>
      </trkpt>
      <trkpt lat="44.10395" lon="6.70358">
        <ele>2303.8000488281</ele>
        <time>2022-08-20T07:42:17Z</time>
      </trkpt>
      <trkpt lat="44.10393" lon="6.70359">
        <ele>2302.6000976562</ele>
        <time>2022-08-20T07:42:26Z</time>
      </trkpt>
      <trkpt lat="44.1039" lon="6.70361">
        <ele>2303.1999511719</ele>
        <time>2022-08-20T07:42:30Z</time>
      </trkpt>
      <trkpt lat="44.10391" lon="6.70362">
        <ele>2303.6000976562</ele>
        <time>2022-08-20T07:42:33Z</time>
      </trkpt>
      <trkpt lat="44.10391" lon="6.70362">
        <ele>2303.6000976562</ele>
        <time>2022-08-20T07:42:35Z</time>
      </trkpt>
      <trkpt lat="44.10391" lon="6.70362">
        <ele>2303.6000976562</ele>
        <time>2022-08-20T07:42:36Z</time>
      </trkpt>
      <trkpt lat="44.10391" lon="6.70362">
        <ele>2303.6000976562</ele>
        <time>2022-08-20T07:42:41Z</time>
      </trkpt>
      <trkpt lat="44.10391" lon="6.70362">
        <ele>2303.6000976562</ele>
        <time>2022-08-20T07:42:43Z</time>
      </trkpt>
      <trkpt lat="44.10388" lon="6.70359">
        <ele>2303</ele>
        <time>2022-08-20T07:42:58Z</time>
      </trkpt>
      <trkpt lat="44.10379" lon="6.70356">
        <ele>2302.8000488281</ele>
        <time>2022-08-20T07:43:08Z</time>
      </trkpt>
      <trkpt lat="44.10375" lon="6.70354">
        <ele>2302.6000976562</ele>
        <time>2022-08-20T07:43:12Z</time>
      </trkpt>
      <trkpt lat="44.1037" lon="6.70355">
        <ele>2302.1999511719</ele>
        <time>2022-08-20T07:43:17Z</time>
      </trkpt>
      <trkpt lat="44.10369" lon="6.70355">
        <ele>2302</ele>
        <time>2022-08-20T07:43:18Z</time>
      </trkpt>
      <trkpt lat="44.10368" lon="6.70355">
        <ele>2302</ele>
        <time>2022-08-20T07:43:19Z</time>
      </trkpt>
      <trkpt lat="44.10365" lon="6.70355">
        <ele>2301.3999023438</ele>
        <time>2022-08-20T07:43:22Z</time>
      </trkpt>
      <trkpt lat="44.10365" lon="6.70355">
        <ele>2301.1999511719</ele>
        <time>2022-08-20T07:43:23Z</time>
      </trkpt>
      <trkpt lat="44.10356" lon="6.70352">
        <ele>2300.3999023438</ele>
        <time>2022-08-20T07:43:31Z</time>
      </trkpt>
      <trkpt lat="44.10356" lon="6.70351">
        <ele>2300.3999023438</ele>
        <time>2022-08-20T07:43:32Z</time>
      </trkpt>
      <trkpt lat="44.10353" lon="6.70347">
        <ele>2300.1999511719</ele>
        <time>2022-08-20T07:43:36Z</time>
      </trkpt>
      <trkpt lat="44.10353" lon="6.70346">
        <ele>2300.1999511719</ele>
        <time>2022-08-20T07:43:37Z</time>
      </trkpt>
      <trkpt lat="44.10353" lon="6.70346">
        <ele>2300</ele>
        <time>2022-08-20T07:43:38Z</time>
      </trkpt>
      <trkpt lat="44.10353" lon="6.70345">
        <ele>2300</ele>
        <time>2022-08-20T07:43:41Z</time>
      </trkpt>
      <trkpt lat="44.10353" lon="6.70344">
        <ele>2299.8000488281</ele>
        <time>2022-08-20T07:43:48Z</time>
      </trkpt>
      <trkpt lat="44.10354" lon="6.70345">
        <ele>2299.8000488281</ele>
        <time>2022-08-20T07:43:50Z</time>
      </trkpt>
      <trkpt lat="44.10354" lon="6.70345">
        <ele>2299.8000488281</ele>
        <time>2022-08-20T07:43:51Z</time>
      </trkpt>
      <trkpt lat="44.10354" lon="6.70345">
        <ele>2299.6000976562</ele>
        <time>2022-08-20T07:43:54Z</time>
      </trkpt>
      <trkpt lat="44.10353" lon="6.70344">
        <ele>2299.3999023438</ele>
        <time>2022-08-20T07:44:01Z</time>
      </trkpt>
      <trkpt lat="44.10353" lon="6.70344">
        <ele>2301</ele>
        <time>2022-08-20T07:44:08Z</time>
      </trkpt>
      <trkpt lat="44.10353" lon="6.70344">
        <ele>2301</ele>
        <time>2022-08-20T07:44:13Z</time>
      </trkpt>
      <trkpt lat="44.10353" lon="6.70345">
        <ele>2301</ele>
        <time>2022-08-20T07:44:14Z</time>
      </trkpt>
      <trkpt lat="44.10354" lon="6.70343">
        <ele>2301</ele>
        <time>2022-08-20T07:44:26Z</time>
      </trkpt>
      <trkpt lat="44.10354" lon="6.70343">
        <ele>2301</ele>
        <time>2022-08-20T07:44:28Z</time>
      </trkpt>
      <trkpt lat="44.10354" lon="6.70343">
        <ele>2301</ele>
        <time>2022-08-20T07:44:36Z</time>
      </trkpt>
      <trkpt lat="44.10353" lon="6.70342">
        <ele>2300.8000488281</ele>
        <time>2022-08-20T07:44:57Z</time>
      </trkpt>
      <trkpt lat="44.10353" lon="6.70342">
        <ele>2301</ele>
        <time>2022-08-20T07:45:01Z</time>
      </trkpt>
      <trkpt lat="44.10353" lon="6.70341">
        <ele>2300.1999511719</ele>
        <time>2022-08-20T07:45:12Z</time>
      </trkpt>
      <trkpt lat="44.10356" lon="6.70344">
        <ele>2299.8000488281</ele>
        <time>2022-08-20T07:45:29Z</time>
      </trkpt>
      <trkpt lat="44.10358" lon="6.70346">
        <ele>2299.8000488281</ele>
        <time>2022-08-20T07:45:31Z</time>
      </trkpt>
      <trkpt lat="44.10362" lon="6.7035">
        <ele>2300.1999511719</ele>
        <time>2022-08-20T07:45:35Z</time>
      </trkpt>
      <trkpt lat="44.10365" lon="6.70352">
        <ele>2300.3999023438</ele>
        <time>2022-08-20T07:45:38Z</time>
      </trkpt>
      <trkpt lat="44.10367" lon="6.70352">
        <ele>2300.6000976562</ele>
        <time>2022-08-20T07:45:40Z</time>
      </trkpt>
      <trkpt lat="44.10371" lon="6.70353">
        <ele>2300.8000488281</ele>
        <time>2022-08-20T07:45:43Z</time>
      </trkpt>
      <trkpt lat="44.10376" lon="6.70355">
        <ele>2301.1999511719</ele>
        <time>2022-08-20T07:45:47Z</time>
      </trkpt>
      <trkpt lat="44.10376" lon="6.70355">
        <ele>2301.1999511719</ele>
        <time>2022-08-20T07:45:50Z</time>
      </trkpt>
      <trkpt lat="44.10384" lon="6.70357">
        <ele>2301.3999023438</ele>
        <time>2022-08-20T07:45:57Z</time>
      </trkpt>
      <trkpt lat="44.10387" lon="6.70358">
        <ele>2301.3999023438</ele>
        <time>2022-08-20T07:46:00Z</time>
      </trkpt>
      <trkpt lat="44.10395" lon="6.70361">
        <ele>2301.1999511719</ele>
        <time>2022-08-20T07:46:10Z</time>
      </trkpt>
      <trkpt lat="44.10396" lon="6.70361">
        <ele>2301.1999511719</ele>
        <time>2022-08-20T07:46:11Z</time>
      </trkpt>
      <trkpt lat="44.10402" lon="6.70363">
        <ele>2300.6000976562</ele>
        <time>2022-08-20T07:46:17Z</time>
      </trkpt>
      <trkpt lat="44.10405" lon="6.70362">
        <ele>2300.6000976562</ele>
        <time>2022-08-20T07:46:19Z</time>
      </trkpt>
      <trkpt lat="44.10405" lon="6.70362">
        <ele>2300.3999023438</ele>
        <time>2022-08-20T07:46:20Z</time>
      </trkpt>
      <trkpt lat="44.10407" lon="6.70362">
        <ele>2300.3999023438</ele>
        <time>2022-08-20T07:46:22Z</time>
      </trkpt>
      <trkpt lat="44.10412" lon="6.70363">
        <ele>2300.8000488281</ele>
        <time>2022-08-20T07:46:27Z</time>
      </trkpt>
      <trkpt lat="44.10417" lon="6.70362">
        <ele>2300.1999511719</ele>
        <time>2022-08-20T07:46:32Z</time>
      </trkpt>
      <trkpt lat="44.1042" lon="6.70362">
        <ele>2299.8000488281</ele>
        <time>2022-08-20T07:46:35Z</time>
      </trkpt>
      <trkpt lat="44.10424" lon="6.70364">
        <ele>2299.3999023438</ele>
        <time>2022-08-20T07:46:39Z</time>
      </trkpt>
      <trkpt lat="44.10431" lon="6.70368">
        <ele>2298.8000488281</ele>
        <time>2022-08-20T07:46:45Z</time>
      </trkpt>
      <trkpt lat="44.10431" lon="6.7037">
        <ele>2298.8000488281</ele>
        <time>2022-08-20T07:46:46Z</time>
      </trkpt>
      <trkpt lat="44.10434" lon="6.70377">
        <ele>2298.1999511719</ele>
        <time>2022-08-20T07:46:51Z</time>
      </trkpt>
      <trkpt lat="44.10439" lon="6.70383">
        <ele>2297.1999511719</ele>
        <time>2022-08-20T07:46:57Z</time>
      </trkpt>
      <trkpt lat="44.1044" lon="6.70383">
        <ele>2297</ele>
        <time>2022-08-20T07:46:59Z</time>
      </trkpt>
      <trkpt lat="44.10441" lon="6.70383">
        <ele>2296.8000488281</ele>
        <time>2022-08-20T07:47:06Z</time>
      </trkpt>
      <trkpt lat="44.10442" lon="6.70383">
        <ele>2296.8000488281</ele>
        <time>2022-08-20T07:47:07Z</time>
      </trkpt>
      <trkpt lat="44.10445" lon="6.70385">
        <ele>2296.6000976562</ele>
        <time>2022-08-20T07:47:11Z</time>
      </trkpt>
      <trkpt lat="44.10448" lon="6.70385">
        <ele>2296.1999511719</ele>
        <time>2022-08-20T07:47:15Z</time>
      </trkpt>
      <trkpt lat="44.1045" lon="6.70385">
        <ele>2295.8000488281</ele>
        <time>2022-08-20T07:47:17Z</time>
      </trkpt>
      <trkpt lat="44.10457" lon="6.70383">
        <ele>2295.3999023438</ele>
        <time>2022-08-20T07:47:24Z</time>
      </trkpt>
      <trkpt lat="44.10461" lon="6.70383">
        <ele>2295.1999511719</ele>
        <time>2022-08-20T07:47:27Z</time>
      </trkpt>
      <trkpt lat="44.10464" lon="6.70382">
        <ele>2295</ele>
        <time>2022-08-20T07:47:30Z</time>
      </trkpt>
      <trkpt lat="44.1047" lon="6.7038">
        <ele>2294</ele>
        <time>2022-08-20T07:47:36Z</time>
      </trkpt>
      <trkpt lat="44.10473" lon="6.70378">
        <ele>2293.8000488281</ele>
        <time>2022-08-20T07:47:40Z</time>
      </trkpt>
      <trkpt lat="44.1048" lon="6.70373">
        <ele>2293.3999023438</ele>
        <time>2022-08-20T07:47:49Z</time>
      </trkpt>
      <trkpt lat="44.10484" lon="6.7037">
        <ele>2293.8000488281</ele>
        <time>2022-08-20T07:47:56Z</time>
      </trkpt>
      <trkpt lat="44.10486" lon="6.70371">
        <ele>2293.3999023438</ele>
        <time>2022-08-20T07:47:59Z</time>
      </trkpt>
      <trkpt lat="44.10488" lon="6.70372">
        <ele>2293.3999023438</ele>
        <time>2022-08-20T07:48:04Z</time>
      </trkpt>
      <trkpt lat="44.10496" lon="6.70374">
        <ele>2293.1999511719</ele>
        <time>2022-08-20T07:48:14Z</time>
      </trkpt>
      <trkpt lat="44.10497" lon="6.70376">
        <ele>2293.1999511719</ele>
        <time>2022-08-20T07:48:20Z</time>
      </trkpt>
      <trkpt lat="44.10498" lon="6.70377">
        <ele>2293</ele>
        <time>2022-08-20T07:48:21Z</time>
      </trkpt>
      <trkpt lat="44.10503" lon="6.70382">
        <ele>2291.8000488281</ele>
        <time>2022-08-20T07:48:25Z</time>
      </trkpt>
      <trkpt lat="44.10503" lon="6.70384">
        <ele>2291.8000488281</ele>
        <time>2022-08-20T07:48:27Z</time>
      </trkpt>
      <trkpt lat="44.10502" lon="6.70385">
        <ele>2292.8000488281</ele>
        <time>2022-08-20T07:48:32Z</time>
      </trkpt>
      <trkpt lat="44.10502" lon="6.70384">
        <ele>2293</ele>
        <time>2022-08-20T07:48:33Z</time>
      </trkpt>
      <trkpt lat="44.10502" lon="6.70385">
        <ele>2292.8000488281</ele>
        <time>2022-08-20T07:48:39Z</time>
      </trkpt>
      <trkpt lat="44.10502" lon="6.70384">
        <ele>2291.8000488281</ele>
        <time>2022-08-20T07:48:43Z</time>
      </trkpt>
      <trkpt lat="44.105" lon="6.70384">
        <ele>2291.1999511719</ele>
        <time>2022-08-20T07:48:50Z</time>
      </trkpt>
      <trkpt lat="44.105" lon="6.70384">
        <ele>2291</ele>
        <time>2022-08-20T07:48:54Z</time>
      </trkpt>
      <trkpt lat="44.10504" lon="6.70375">
        <ele>2291.1999511719</ele>
        <time>2022-08-20T07:49:04Z</time>
      </trkpt>
      <trkpt lat="44.10504" lon="6.70374">
        <ele>2291</ele>
        <time>2022-08-20T07:49:08Z</time>
      </trkpt>
      <trkpt lat="44.10503" lon="6.70375">
        <ele>2291.1999511719</ele>
        <time>2022-08-20T07:49:13Z</time>
      </trkpt>
      <trkpt lat="44.10503" lon="6.70374">
        <ele>2291.3999023438</ele>
        <time>2022-08-20T07:49:21Z</time>
      </trkpt>
      <trkpt lat="44.10504" lon="6.70374">
        <ele>2291.3999023438</ele>
        <time>2022-08-20T07:49:25Z</time>
      </trkpt>
      <trkpt lat="44.10502" lon="6.70374">
        <ele>2291.3999023438</ele>
        <time>2022-08-20T07:49:28Z</time>
      </trkpt>
      <trkpt lat="44.10502" lon="6.70374">
        <ele>2291.3999023438</ele>
        <time>2022-08-20T07:49:29Z</time>
      </trkpt>
      <trkpt lat="44.10501" lon="6.70374">
        <ele>2291.3999023438</ele>
        <time>2022-08-20T07:49:34Z</time>
      </trkpt>
      <trkpt lat="44.10501" lon="6.70374">
        <ele>2291.6000976562</ele>
        <time>2022-08-20T07:49:39Z</time>
      </trkpt>
      <trkpt lat="44.10501" lon="6.70374">
        <ele>2291</ele>
        <time>2022-08-20T07:49:48Z</time>
      </trkpt>
      <trkpt lat="44.10501" lon="6.70374">
        <ele>2290.6000976562</ele>
        <time>2022-08-20T07:49:50Z</time>
      </trkpt>
      <trkpt lat="44.10501" lon="6.70374">
        <ele>2290.6000976562</ele>
        <time>2022-08-20T07:49:57Z</time>
      </trkpt>
      <trkpt lat="44.10501" lon="6.70373">
        <ele>2290.8000488281</ele>
        <time>2022-08-20T07:50:06Z</time>
      </trkpt>
      <trkpt lat="44.10501" lon="6.70373">
        <ele>2290.8000488281</ele>
        <time>2022-08-20T07:50:07Z</time>
      </trkpt>
      <trkpt lat="44.10501" lon="6.70373">
        <ele>2291</ele>
        <time>2022-08-20T07:50:19Z</time>
      </trkpt>
      <trkpt lat="44.10501" lon="6.70372">
        <ele>2291</ele>
        <time>2022-08-20T07:50:22Z</time>
      </trkpt>
      <trkpt lat="44.10501" lon="6.70372">
        <ele>2291</ele>
        <time>2022-08-20T07:50:24Z</time>
      </trkpt>
      <trkpt lat="44.10501" lon="6.70372">
        <ele>2291</ele>
        <time>2022-08-20T07:50:32Z</time>
      </trkpt>
      <trkpt lat="44.10502" lon="6.70372">
        <ele>2291</ele>
        <time>2022-08-20T07:50:33Z</time>
      </trkpt>
      <trkpt lat="44.10502" lon="6.70372">
        <ele>2291</ele>
        <time>2022-08-20T07:50:36Z</time>
      </trkpt>
      <trkpt lat="44.10502" lon="6.70373">
        <ele>2291</ele>
        <time>2022-08-20T07:50:40Z</time>
      </trkpt>
      <trkpt lat="44.10503" lon="6.70372">
        <ele>2291</ele>
        <time>2022-08-20T07:50:44Z</time>
      </trkpt>
      <trkpt lat="44.10503" lon="6.70371">
        <ele>2291</ele>
        <time>2022-08-20T07:50:48Z</time>
      </trkpt>
      <trkpt lat="44.10503" lon="6.70371">
        <ele>2291</ele>
        <time>2022-08-20T07:50:55Z</time>
      </trkpt>
      <trkpt lat="44.10503" lon="6.70373">
        <ele>2291</ele>
        <time>2022-08-20T07:51:11Z</time>
      </trkpt>
      <trkpt lat="44.10502" lon="6.70373">
        <ele>2291</ele>
        <time>2022-08-20T07:51:23Z</time>
      </trkpt>
      <trkpt lat="44.10502" lon="6.70373">
        <ele>2291</ele>
        <time>2022-08-20T07:51:27Z</time>
      </trkpt>
      <trkpt lat="44.10502" lon="6.70374">
        <ele>2291</ele>
        <time>2022-08-20T07:51:33Z</time>
      </trkpt>
      <trkpt lat="44.10503" lon="6.70374">
        <ele>2291</ele>
        <time>2022-08-20T07:51:38Z</time>
      </trkpt>
      <trkpt lat="44.10503" lon="6.70375">
        <ele>2291</ele>
        <time>2022-08-20T07:51:41Z</time>
      </trkpt>
      <trkpt lat="44.10503" lon="6.70375">
        <ele>2291</ele>
        <time>2022-08-20T07:51:43Z</time>
      </trkpt>
      <trkpt lat="44.10503" lon="6.70374">
        <ele>2291</ele>
        <time>2022-08-20T07:51:45Z</time>
      </trkpt>
      <trkpt lat="44.10502" lon="6.70372">
        <ele>2291</ele>
        <time>2022-08-20T07:51:54Z</time>
      </trkpt>
      <trkpt lat="44.10504" lon="6.70375">
        <ele>2291</ele>
        <time>2022-08-20T07:52:02Z</time>
      </trkpt>
      <trkpt lat="44.10504" lon="6.70376">
        <ele>2291</ele>
        <time>2022-08-20T07:52:06Z</time>
      </trkpt>
      <trkpt lat="44.10504" lon="6.70376">
        <ele>2291</ele>
        <time>2022-08-20T07:52:09Z</time>
      </trkpt>
      <trkpt lat="44.10502" lon="6.70375">
        <ele>2291</ele>
        <time>2022-08-20T07:52:15Z</time>
      </trkpt>
      <trkpt lat="44.10502" lon="6.70374">
        <ele>2291</ele>
        <time>2022-08-20T07:52:22Z</time>
      </trkpt>
      <trkpt lat="44.10501" lon="6.70372">
        <ele>2291</ele>
        <time>2022-08-20T07:52:30Z</time>
      </trkpt>
      <trkpt lat="44.10499" lon="6.7037">
        <ele>2291</ele>
        <time>2022-08-20T07:52:33Z</time>
      </trkpt>
      <trkpt lat="44.10497" lon="6.7037">
        <ele>2291</ele>
        <time>2022-08-20T07:52:35Z</time>
      </trkpt>
      <trkpt lat="44.10495" lon="6.70368">
        <ele>2291</ele>
        <time>2022-08-20T07:52:38Z</time>
      </trkpt>
      <trkpt lat="44.10495" lon="6.70367">
        <ele>2291</ele>
        <time>2022-08-20T07:52:40Z</time>
      </trkpt>
      <trkpt lat="44.10495" lon="6.70367">
        <ele>2291</ele>
        <time>2022-08-20T07:52:43Z</time>
      </trkpt>
      <trkpt lat="44.10494" lon="6.70368">
        <ele>2291</ele>
        <time>2022-08-20T07:52:47Z</time>
      </trkpt>
      <trkpt lat="44.10495" lon="6.70369">
        <ele>2290.8000488281</ele>
        <time>2022-08-20T07:52:53Z</time>
      </trkpt>
      <trkpt lat="44.10496" lon="6.70369">
        <ele>2290.3999023438</ele>
        <time>2022-08-20T07:52:57Z</time>
      </trkpt>
      <trkpt lat="44.10496" lon="6.7037">
        <ele>2290.3999023438</ele>
        <time>2022-08-20T07:53:02Z</time>
      </trkpt>
      <trkpt lat="44.10496" lon="6.70369">
        <ele>2290.8000488281</ele>
        <time>2022-08-20T07:53:06Z</time>
      </trkpt>
      <trkpt lat="44.10496" lon="6.70369">
        <ele>2291.3999023438</ele>
        <time>2022-08-20T07:53:09Z</time>
      </trkpt>
      <trkpt lat="44.10496" lon="6.70369">
        <ele>2291.6000976562</ele>
        <time>2022-08-20T07:53:11Z</time>
      </trkpt>
      <trkpt lat="44.10496" lon="6.70371">
        <ele>2291</ele>
        <time>2022-08-20T07:53:19Z</time>
      </trkpt>
      <trkpt lat="44.10496" lon="6.70371">
        <ele>2291</ele>
        <time>2022-08-20T07:53:21Z</time>
      </trkpt>
      <trkpt lat="44.10496" lon="6.70371">
        <ele>2291.1999511719</ele>
        <time>2022-08-20T07:53:23Z</time>
      </trkpt>
      <trkpt lat="44.10496" lon="6.70371">
        <ele>2291.1999511719</ele>
        <time>2022-08-20T07:53:32Z</time>
      </trkpt>
      <trkpt lat="44.10496" lon="6.70371">
        <ele>2291.1999511719</ele>
        <time>2022-08-20T07:53:34Z</time>
      </trkpt>
      <trkpt lat="44.10495" lon="6.70371">
        <ele>2291.6000976562</ele>
        <time>2022-08-20T07:53:37Z</time>
      </trkpt>
      <trkpt lat="44.10494" lon="6.70371">
        <ele>2291.3999023438</ele>
        <time>2022-08-20T07:53:45Z</time>
      </trkpt>
      <trkpt lat="44.10493" lon="6.70372">
        <ele>2291</ele>
        <time>2022-08-20T07:53:53Z</time>
      </trkpt>
      <trkpt lat="44.10493" lon="6.70372">
        <ele>2291</ele>
        <time>2022-08-20T07:53:57Z</time>
      </trkpt>
      <trkpt lat="44.10493" lon="6.70372">
        <ele>2291</ele>
        <time>2022-08-20T07:54:01Z</time>
      </trkpt>
      <trkpt lat="44.10493" lon="6.70372">
        <ele>2291</ele>
        <time>2022-08-20T07:54:02Z</time>
      </trkpt>
      <trkpt lat="44.10494" lon="6.70373">
        <ele>2291</ele>
        <time>2022-08-20T07:54:03Z</time>
      </trkpt>
      <trkpt lat="44.10494" lon="6.70373">
        <ele>2291</ele>
        <time>2022-08-20T07:54:11Z</time>
      </trkpt>
      <trkpt lat="44.10494" lon="6.70373">
        <ele>2291</ele>
        <time>2022-08-20T07:54:16Z</time>
      </trkpt>
      <trkpt lat="44.10494" lon="6.70373">
        <ele>2291</ele>
        <time>2022-08-20T07:54:23Z</time>
      </trkpt>
      <trkpt lat="44.10495" lon="6.70373">
        <ele>2291</ele>
        <time>2022-08-20T07:54:33Z</time>
      </trkpt>
      <trkpt lat="44.10494" lon="6.70374">
        <ele>2291</ele>
        <time>2022-08-20T07:54:40Z</time>
      </trkpt>
      <trkpt lat="44.10494" lon="6.70374">
        <ele>2291</ele>
        <time>2022-08-20T07:54:43Z</time>
      </trkpt>
      <trkpt lat="44.10494" lon="6.70374">
        <ele>2291</ele>
        <time>2022-08-20T07:54:49Z</time>
      </trkpt>
      <trkpt lat="44.10494" lon="6.70374">
        <ele>2291</ele>
        <time>2022-08-20T07:54:51Z</time>
      </trkpt>
      <trkpt lat="44.10495" lon="6.70375">
        <ele>2291</ele>
        <time>2022-08-20T07:54:58Z</time>
      </trkpt>
      <trkpt lat="44.10495" lon="6.70375">
        <ele>2291</ele>
        <time>2022-08-20T07:55:05Z</time>
      </trkpt>
      <trkpt lat="44.10495" lon="6.70375">
        <ele>2291</ele>
        <time>2022-08-20T07:55:09Z</time>
      </trkpt>
      <trkpt lat="44.10495" lon="6.70375">
        <ele>2291</ele>
        <time>2022-08-20T07:55:14Z</time>
      </trkpt>
      <trkpt lat="44.10495" lon="6.70375">
        <ele>2291</ele>
        <time>2022-08-20T07:55:16Z</time>
      </trkpt>
      <trkpt lat="44.10495" lon="6.70374">
        <ele>2291</ele>
        <time>2022-08-20T07:55:30Z</time>
      </trkpt>
      <trkpt lat="44.10495" lon="6.70375">
        <ele>2291</ele>
        <time>2022-08-20T07:55:42Z</time>
      </trkpt>
      <trkpt lat="44.10495" lon="6.70375">
        <ele>2291</ele>
        <time>2022-08-20T07:55:49Z</time>
      </trkpt>
      <trkpt lat="44.10495" lon="6.70376">
        <ele>2291</ele>
        <time>2022-08-20T07:55:54Z</time>
      </trkpt>
      <trkpt lat="44.10495" lon="6.70376">
        <ele>2291</ele>
        <time>2022-08-20T07:55:56Z</time>
      </trkpt>
      <trkpt lat="44.10495" lon="6.70376">
        <ele>2291</ele>
        <time>2022-08-20T07:56:02Z</time>
      </trkpt>
      <trkpt lat="44.10495" lon="6.70376">
        <ele>2291</ele>
        <time>2022-08-20T07:56:15Z</time>
      </trkpt>
      <trkpt lat="44.10495" lon="6.70376">
        <ele>2291</ele>
        <time>2022-08-20T07:56:30Z</time>
      </trkpt>
      <trkpt lat="44.10496" lon="6.70375">
        <ele>2291</ele>
        <time>2022-08-20T07:56:48Z</time>
      </trkpt>
      <trkpt lat="44.10497" lon="6.70376">
        <ele>2291</ele>
        <time>2022-08-20T07:56:56Z</time>
      </trkpt>
      <trkpt lat="44.10496" lon="6.70376">
        <ele>2291</ele>
        <time>2022-08-20T07:57:02Z</time>
      </trkpt>
      <trkpt lat="44.10497" lon="6.70377">
        <ele>2291</ele>
        <time>2022-08-20T07:57:12Z</time>
      </trkpt>
      <trkpt lat="44.10497" lon="6.70375">
        <ele>2291</ele>
        <time>2022-08-20T07:57:20Z</time>
      </trkpt>
      <trkpt lat="44.10497" lon="6.70375">
        <ele>2291</ele>
        <time>2022-08-20T07:57:22Z</time>
      </trkpt>
      <trkpt lat="44.10497" lon="6.70375">
        <ele>2291</ele>
        <time>2022-08-20T07:57:24Z</time>
      </trkpt>
      <trkpt lat="44.10496" lon="6.70375">
        <ele>2291</ele>
        <time>2022-08-20T07:57:33Z</time>
      </trkpt>
      <trkpt lat="44.10496" lon="6.70375">
        <ele>2291</ele>
        <time>2022-08-20T07:57:37Z</time>
      </trkpt>
      <trkpt lat="44.10496" lon="6.70375">
        <ele>2291</ele>
        <time>2022-08-20T07:57:38Z</time>
      </trkpt>
      <trkpt lat="44.10497" lon="6.70376">
        <ele>2291</ele>
        <time>2022-08-20T07:57:53Z</time>
      </trkpt>
      <trkpt lat="44.10497" lon="6.70376">
        <ele>2291</ele>
        <time>2022-08-20T07:57:56Z</time>
      </trkpt>
      <trkpt lat="44.10498" lon="6.70375">
        <ele>2291</ele>
        <time>2022-08-20T07:58:05Z</time>
      </trkpt>
      <trkpt lat="44.10497" lon="6.70375">
        <ele>2291</ele>
        <time>2022-08-20T07:58:18Z</time>
      </trkpt>
      <trkpt lat="44.10497" lon="6.70375">
        <ele>2291</ele>
        <time>2022-08-20T07:58:21Z</time>
      </trkpt>
      <trkpt lat="44.10497" lon="6.70375">
        <ele>2291</ele>
        <time>2022-08-20T07:58:23Z</time>
      </trkpt>
      <trkpt lat="44.10497" lon="6.70375">
        <ele>2291</ele>
        <time>2022-08-20T07:58:25Z</time>
      </trkpt>
      <trkpt lat="44.10497" lon="6.70375">
        <ele>2291</ele>
        <time>2022-08-20T07:58:26Z</time>
      </trkpt>
      <trkpt lat="44.10497" lon="6.70375">
        <ele>2291</ele>
        <time>2022-08-20T07:58:28Z</time>
      </trkpt>
      <trkpt lat="44.10497" lon="6.70375">
        <ele>2291</ele>
        <time>2022-08-20T07:58:33Z</time>
      </trkpt>
      <trkpt lat="44.10497" lon="6.70374">
        <ele>2291</ele>
        <time>2022-08-20T07:58:45Z</time>
      </trkpt>
      <trkpt lat="44.10496" lon="6.70374">
        <ele>2291</ele>
        <time>2022-08-20T07:58:48Z</time>
      </trkpt>
      <trkpt lat="44.10496" lon="6.70374">
        <ele>2291</ele>
        <time>2022-08-20T07:58:54Z</time>
      </trkpt>
      <trkpt lat="44.10496" lon="6.70374">
        <ele>2291</ele>
        <time>2022-08-20T07:58:59Z</time>
      </trkpt>
      <trkpt lat="44.10497" lon="6.70375">
        <ele>2291</ele>
        <time>2022-08-20T07:59:04Z</time>
      </trkpt>
      <trkpt lat="44.10496" lon="6.70376">
        <ele>2291</ele>
        <time>2022-08-20T07:59:13Z</time>
      </trkpt>
      <trkpt lat="44.10497" lon="6.70377">
        <ele>2291</ele>
        <time>2022-08-20T07:59:26Z</time>
      </trkpt>
      <trkpt lat="44.10497" lon="6.70377">
        <ele>2291</ele>
        <time>2022-08-20T07:59:27Z</time>
      </trkpt>
      <trkpt lat="44.10497" lon="6.70377">
        <ele>2291</ele>
        <time>2022-08-20T07:59:28Z</time>
      </trkpt>
      <trkpt lat="44.10496" lon="6.70377">
        <ele>2291</ele>
        <time>2022-08-20T07:59:33Z</time>
      </trkpt>
      <trkpt lat="44.10496" lon="6.70377">
        <ele>2291</ele>
        <time>2022-08-20T07:59:36Z</time>
      </trkpt>
      <trkpt lat="44.10496" lon="6.70377">
        <ele>2291</ele>
        <time>2022-08-20T07:59:42Z</time>
      </trkpt>
      <trkpt lat="44.10497" lon="6.70377">
        <ele>2291</ele>
        <time>2022-08-20T07:59:56Z</time>
      </trkpt>
      <trkpt lat="44.10497" lon="6.70376">
        <ele>2291</ele>
        <time>2022-08-20T07:59:58Z</time>
      </trkpt>
      <trkpt lat="44.10498" lon="6.70376">
        <ele>2291</ele>
        <time>2022-08-20T08:00:07Z</time>
      </trkpt>
      <trkpt lat="44.10498" lon="6.70376">
        <ele>2291</ele>
        <time>2022-08-20T08:00:09Z</time>
      </trkpt>
      <trkpt lat="44.10498" lon="6.70376">
        <ele>2291</ele>
        <time>2022-08-20T08:00:10Z</time>
      </trkpt>
      <trkpt lat="44.10499" lon="6.70377">
        <ele>2291</ele>
        <time>2022-08-20T08:00:19Z</time>
      </trkpt>
      <trkpt lat="44.10499" lon="6.70378">
        <ele>2291</ele>
        <time>2022-08-20T08:00:22Z</time>
      </trkpt>
      <trkpt lat="44.10499" lon="6.70378">
        <ele>2291</ele>
        <time>2022-08-20T08:00:25Z</time>
      </trkpt>
      <trkpt lat="44.10499" lon="6.70378">
        <ele>2291</ele>
        <time>2022-08-20T08:00:30Z</time>
      </trkpt>
      <trkpt lat="44.10499" lon="6.70378">
        <ele>2291</ele>
        <time>2022-08-20T08:00:33Z</time>
      </trkpt>
      <trkpt lat="44.10499" lon="6.70378">
        <ele>2291</ele>
        <time>2022-08-20T08:00:37Z</time>
      </trkpt>
      <trkpt lat="44.10499" lon="6.70378">
        <ele>2291</ele>
        <time>2022-08-20T08:00:39Z</time>
      </trkpt>
      <trkpt lat="44.10499" lon="6.70378">
        <ele>2291</ele>
        <time>2022-08-20T08:00:41Z</time>
      </trkpt>
      <trkpt lat="44.10499" lon="6.70377">
        <ele>2291</ele>
        <time>2022-08-20T08:00:53Z</time>
      </trkpt>
      <trkpt lat="44.10499" lon="6.70377">
        <ele>2291</ele>
        <time>2022-08-20T08:01:10Z</time>
      </trkpt>
      <trkpt lat="44.10499" lon="6.70378">
        <ele>2291</ele>
        <time>2022-08-20T08:01:24Z</time>
      </trkpt>
      <trkpt lat="44.10499" lon="6.70378">
        <ele>2291</ele>
        <time>2022-08-20T08:01:26Z</time>
      </trkpt>
      <trkpt lat="44.10499" lon="6.70378">
        <ele>2291</ele>
        <time>2022-08-20T08:01:35Z</time>
      </trkpt>
      <trkpt lat="44.10498" lon="6.70378">
        <ele>2291</ele>
        <time>2022-08-20T08:01:38Z</time>
      </trkpt>
      <trkpt lat="44.10497" lon="6.70376">
        <ele>2291</ele>
        <time>2022-08-20T08:01:52Z</time>
      </trkpt>
      <trkpt lat="44.10497" lon="6.70376">
        <ele>2291</ele>
        <time>2022-08-20T08:01:53Z</time>
      </trkpt>
      <trkpt lat="44.10497" lon="6.70375">
        <ele>2291</ele>
        <time>2022-08-20T08:01:59Z</time>
      </trkpt>
      <trkpt lat="44.10497" lon="6.70375">
        <ele>2291</ele>
        <time>2022-08-20T08:02:05Z</time>
      </trkpt>
      <trkpt lat="44.10497" lon="6.70375">
        <ele>2291</ele>
        <time>2022-08-20T08:02:08Z</time>
      </trkpt>
      <trkpt lat="44.10497" lon="6.70375">
        <ele>2291</ele>
        <time>2022-08-20T08:02:15Z</time>
      </trkpt>
      <trkpt lat="44.10497" lon="6.70375">
        <ele>2291</ele>
        <time>2022-08-20T08:02:19Z</time>
      </trkpt>
      <trkpt lat="44.10497" lon="6.70375">
        <ele>2291</ele>
        <time>2022-08-20T08:02:24Z</time>
      </trkpt>
      <trkpt lat="44.10497" lon="6.70375">
        <ele>2291</ele>
        <time>2022-08-20T08:02:38Z</time>
      </trkpt>
      <trkpt lat="44.10497" lon="6.70376">
        <ele>2291</ele>
        <time>2022-08-20T08:03:00Z</time>
      </trkpt>
      <trkpt lat="44.10496" lon="6.70377">
        <ele>2291</ele>
        <time>2022-08-20T08:03:12Z</time>
      </trkpt>
      <trkpt lat="44.10497" lon="6.70377">
        <ele>2291</ele>
        <time>2022-08-20T08:03:29Z</time>
      </trkpt>
      <trkpt lat="44.10497" lon="6.70376">
        <ele>2291</ele>
        <time>2022-08-20T08:03:30Z</time>
      </trkpt>
      <trkpt lat="44.10497" lon="6.70376">
        <ele>2291</ele>
        <time>2022-08-20T08:03:40Z</time>
      </trkpt>
      <trkpt lat="44.10497" lon="6.70376">
        <ele>2291</ele>
        <time>2022-08-20T08:03:45Z</time>
      </trkpt>
      <trkpt lat="44.10497" lon="6.70376">
        <ele>2291</ele>
        <time>2022-08-20T08:03:47Z</time>
      </trkpt>
      <trkpt lat="44.10496" lon="6.70376">
        <ele>2291</ele>
        <time>2022-08-20T08:03:59Z</time>
      </trkpt>
      <trkpt lat="44.10496" lon="6.70378">
        <ele>2291</ele>
        <time>2022-08-20T08:04:02Z</time>
      </trkpt>
      <trkpt lat="44.10495" lon="6.70375">
        <ele>2291</ele>
        <time>2022-08-20T08:04:10Z</time>
      </trkpt>
      <trkpt lat="44.10495" lon="6.70375">
        <ele>2291</ele>
        <time>2022-08-20T08:04:12Z</time>
      </trkpt>
      <trkpt lat="44.10495" lon="6.70375">
        <ele>2291</ele>
        <time>2022-08-20T08:04:20Z</time>
      </trkpt>
      <trkpt lat="44.10495" lon="6.70375">
        <ele>2291</ele>
        <time>2022-08-20T08:04:24Z</time>
      </trkpt>
      <trkpt lat="44.10495" lon="6.70376">
        <ele>2291</ele>
        <time>2022-08-20T08:04:37Z</time>
      </trkpt>
      <trkpt lat="44.10496" lon="6.70377">
        <ele>2291</ele>
        <time>2022-08-20T08:04:40Z</time>
      </trkpt>
      <trkpt lat="44.10496" lon="6.70377">
        <ele>2291</ele>
        <time>2022-08-20T08:04:43Z</time>
      </trkpt>
      <trkpt lat="44.10496" lon="6.70378">
        <ele>2291</ele>
        <time>2022-08-20T08:04:51Z</time>
      </trkpt>
      <trkpt lat="44.10496" lon="6.70378">
        <ele>2291</ele>
        <time>2022-08-20T08:04:54Z</time>
      </trkpt>
      <trkpt lat="44.10497" lon="6.70379">
        <ele>2291</ele>
        <time>2022-08-20T08:05:00Z</time>
      </trkpt>
      <trkpt lat="44.10497" lon="6.70379">
        <ele>2291</ele>
        <time>2022-08-20T08:05:11Z</time>
      </trkpt>
      <trkpt lat="44.10497" lon="6.70378">
        <ele>2291</ele>
        <time>2022-08-20T08:05:19Z</time>
      </trkpt>
      <trkpt lat="44.10497" lon="6.70379">
        <ele>2291</ele>
        <time>2022-08-20T08:05:25Z</time>
      </trkpt>
      <trkpt lat="44.10496" lon="6.70378">
        <ele>2291</ele>
        <time>2022-08-20T08:05:37Z</time>
      </trkpt>
      <trkpt lat="44.10496" lon="6.70378">
        <ele>2291</ele>
        <time>2022-08-20T08:05:44Z</time>
      </trkpt>
      <trkpt lat="44.10497" lon="6.70378">
        <ele>2291</ele>
        <time>2022-08-20T08:05:47Z</time>
      </trkpt>
      <trkpt lat="44.10497" lon="6.70378">
        <ele>2291</ele>
        <time>2022-08-20T08:05:52Z</time>
      </trkpt>
      <trkpt lat="44.10497" lon="6.70377">
        <ele>2291</ele>
        <time>2022-08-20T08:06:03Z</time>
      </trkpt>
      <trkpt lat="44.10498" lon="6.70376">
        <ele>2291</ele>
        <time>2022-08-20T08:06:37Z</time>
      </trkpt>
      <trkpt lat="44.10499" lon="6.70377">
        <ele>2291</ele>
        <time>2022-08-20T08:06:39Z</time>
      </trkpt>
      <trkpt lat="44.10498" lon="6.70379">
        <ele>2291</ele>
        <time>2022-08-20T08:06:43Z</time>
      </trkpt>
      <trkpt lat="44.10499" lon="6.7038">
        <ele>2291</ele>
        <time>2022-08-20T08:06:44Z</time>
      </trkpt>
      <trkpt lat="44.105" lon="6.70381">
        <ele>2291</ele>
        <time>2022-08-20T08:06:52Z</time>
      </trkpt>
      <trkpt lat="44.105" lon="6.70381">
        <ele>2291</ele>
        <time>2022-08-20T08:06:57Z</time>
      </trkpt>
      <trkpt lat="44.10501" lon="6.70381">
        <ele>2291</ele>
        <time>2022-08-20T08:07:01Z</time>
      </trkpt>
      <trkpt lat="44.105" lon="6.70381">
        <ele>2291</ele>
        <time>2022-08-20T08:07:06Z</time>
      </trkpt>
      <trkpt lat="44.105" lon="6.70381">
        <ele>2291</ele>
        <time>2022-08-20T08:07:10Z</time>
      </trkpt>
      <trkpt lat="44.105" lon="6.70381">
        <ele>2291</ele>
        <time>2022-08-20T08:07:14Z</time>
      </trkpt>
      <trkpt lat="44.10502" lon="6.70374">
        <ele>2291</ele>
        <time>2022-08-20T08:07:23Z</time>
      </trkpt>
      <trkpt lat="44.10502" lon="6.70372">
        <ele>2291</ele>
        <time>2022-08-20T08:07:29Z</time>
      </trkpt>
      <trkpt lat="44.10501" lon="6.70371">
        <ele>2291</ele>
        <time>2022-08-20T08:07:35Z</time>
      </trkpt>
      <trkpt lat="44.10501" lon="6.70371">
        <ele>2291</ele>
        <time>2022-08-20T08:07:38Z</time>
      </trkpt>
      <trkpt lat="44.10501" lon="6.70372">
        <ele>2291</ele>
        <time>2022-08-20T08:07:48Z</time>
      </trkpt>
      <trkpt lat="44.10501" lon="6.70371">
        <ele>2291</ele>
        <time>2022-08-20T08:07:52Z</time>
      </trkpt>
      <trkpt lat="44.10496" lon="6.7037">
        <ele>2291</ele>
        <time>2022-08-20T08:07:57Z</time>
      </trkpt>
      <trkpt lat="44.10497" lon="6.70366">
        <ele>2291</ele>
        <time>2022-08-20T08:08:04Z</time>
      </trkpt>
      <trkpt lat="44.10495" lon="6.7037">
        <ele>2291</ele>
        <time>2022-08-20T08:08:10Z</time>
      </trkpt>
      <trkpt lat="44.10495" lon="6.7037">
        <ele>2291</ele>
        <time>2022-08-20T08:08:17Z</time>
      </trkpt>
      <trkpt lat="44.10496" lon="6.7037">
        <ele>2291</ele>
        <time>2022-08-20T08:08:19Z</time>
      </trkpt>
      <trkpt lat="44.10496" lon="6.70371">
        <ele>2291</ele>
        <time>2022-08-20T08:08:20Z</time>
      </trkpt>
      <trkpt lat="44.10496" lon="6.70371">
        <ele>2291</ele>
        <time>2022-08-20T08:08:22Z</time>
      </trkpt>
      <trkpt lat="44.10496" lon="6.70371">
        <ele>2291</ele>
        <time>2022-08-20T08:08:26Z</time>
      </trkpt>
      <trkpt lat="44.10496" lon="6.7037">
        <ele>2291</ele>
        <time>2022-08-20T08:08:35Z</time>
      </trkpt>
      <trkpt lat="44.10497" lon="6.70371">
        <ele>2291</ele>
        <time>2022-08-20T08:08:41Z</time>
      </trkpt>
      <trkpt lat="44.10497" lon="6.70373">
        <ele>2291</ele>
        <time>2022-08-20T08:08:44Z</time>
      </trkpt>
      <trkpt lat="44.10498" lon="6.70375">
        <ele>2291</ele>
        <time>2022-08-20T08:08:52Z</time>
      </trkpt>
      <trkpt lat="44.10498" lon="6.70375">
        <ele>2291</ele>
        <time>2022-08-20T08:08:53Z</time>
      </trkpt>
      <trkpt lat="44.10498" lon="6.70375">
        <ele>2291</ele>
        <time>2022-08-20T08:08:54Z</time>
      </trkpt>
      <trkpt lat="44.10498" lon="6.70375">
        <ele>2291</ele>
        <time>2022-08-20T08:08:56Z</time>
      </trkpt>
      <trkpt lat="44.10498" lon="6.70375">
        <ele>2291</ele>
        <time>2022-08-20T08:09:01Z</time>
      </trkpt>
      <trkpt lat="44.10498" lon="6.70376">
        <ele>2291</ele>
        <time>2022-08-20T08:09:04Z</time>
      </trkpt>
      <trkpt lat="44.10498" lon="6.70376">
        <ele>2291</ele>
        <time>2022-08-20T08:09:05Z</time>
      </trkpt>
      <trkpt lat="44.10498" lon="6.70377">
        <ele>2291</ele>
        <time>2022-08-20T08:09:07Z</time>
      </trkpt>
      <trkpt lat="44.10497" lon="6.70377">
        <ele>2291</ele>
        <time>2022-08-20T08:09:13Z</time>
      </trkpt>
      <trkpt lat="44.10497" lon="6.70377">
        <ele>2291</ele>
        <time>2022-08-20T08:09:17Z</time>
      </trkpt>
      <trkpt lat="44.10497" lon="6.70377">
        <ele>2291</ele>
        <time>2022-08-20T08:09:19Z</time>
      </trkpt>
      <trkpt lat="44.10497" lon="6.70377">
        <ele>2291</ele>
        <time>2022-08-20T08:09:25Z</time>
      </trkpt>
      <trkpt lat="44.10497" lon="6.70378">
        <ele>2291</ele>
        <time>2022-08-20T08:09:36Z</time>
      </trkpt>
      <trkpt lat="44.10497" lon="6.70378">
        <ele>2291</ele>
        <time>2022-08-20T08:09:38Z</time>
      </trkpt>
      <trkpt lat="44.10497" lon="6.70377">
        <ele>2291</ele>
        <time>2022-08-20T08:09:43Z</time>
      </trkpt>
      <trkpt lat="44.10497" lon="6.70378">
        <ele>2291</ele>
        <time>2022-08-20T08:09:59Z</time>
      </trkpt>
      <trkpt lat="44.10496" lon="6.70377">
        <ele>2291</ele>
        <time>2022-08-20T08:10:15Z</time>
      </trkpt>
      <trkpt lat="44.10496" lon="6.70377">
        <ele>2291</ele>
        <time>2022-08-20T08:10:32Z</time>
      </trkpt>
      <trkpt lat="44.10496" lon="6.70377">
        <ele>2291</ele>
        <time>2022-08-20T08:10:39Z</time>
      </trkpt>
      <trkpt lat="44.10496" lon="6.70377">
        <ele>2291</ele>
        <time>2022-08-20T08:11:08Z</time>
      </trkpt>
      <trkpt lat="44.10496" lon="6.70377">
        <ele>2291</ele>
        <time>2022-08-20T08:11:16Z</time>
      </trkpt>
      <trkpt lat="44.10498" lon="6.70376">
        <ele>2291</ele>
        <time>2022-08-20T08:11:26Z</time>
      </trkpt>
      <trkpt lat="44.10498" lon="6.70377">
        <ele>2291</ele>
        <time>2022-08-20T08:11:33Z</time>
      </trkpt>
      <trkpt lat="44.10499" lon="6.70377">
        <ele>2291</ele>
        <time>2022-08-20T08:11:38Z</time>
      </trkpt>
      <trkpt lat="44.10499" lon="6.70377">
        <ele>2291</ele>
        <time>2022-08-20T08:11:39Z</time>
      </trkpt>
      <trkpt lat="44.10499" lon="6.70378">
        <ele>2291</ele>
        <time>2022-08-20T08:11:41Z</time>
      </trkpt>
      <trkpt lat="44.10499" lon="6.70378">
        <ele>2291</ele>
        <time>2022-08-20T08:11:43Z</time>
      </trkpt>
      <trkpt lat="44.10498" lon="6.70378">
        <ele>2291</ele>
        <time>2022-08-20T08:11:53Z</time>
      </trkpt>
      <trkpt lat="44.10498" lon="6.70378">
        <ele>2291</ele>
        <time>2022-08-20T08:11:55Z</time>
      </trkpt>
      <trkpt lat="44.10498" lon="6.70377">
        <ele>2291</ele>
        <time>2022-08-20T08:12:01Z</time>
      </trkpt>
      <trkpt lat="44.10498" lon="6.70377">
        <ele>2291</ele>
        <time>2022-08-20T08:12:06Z</time>
      </trkpt>
      <trkpt lat="44.10497" lon="6.70377">
        <ele>2291</ele>
        <time>2022-08-20T08:12:30Z</time>
      </trkpt>
      <trkpt lat="44.10497" lon="6.70376">
        <ele>2291</ele>
        <time>2022-08-20T08:12:54Z</time>
      </trkpt>
      <trkpt lat="44.10497" lon="6.70376">
        <ele>2291</ele>
        <time>2022-08-20T08:12:57Z</time>
      </trkpt>
      <trkpt lat="44.10497" lon="6.70376">
        <ele>2291</ele>
        <time>2022-08-20T08:13:07Z</time>
      </trkpt>
      <trkpt lat="44.10497" lon="6.70376">
        <ele>2291</ele>
        <time>2022-08-20T08:13:18Z</time>
      </trkpt>
      <trkpt lat="44.10497" lon="6.70376">
        <ele>2291</ele>
        <time>2022-08-20T08:13:43Z</time>
      </trkpt>
      <trkpt lat="44.10496" lon="6.70376">
        <ele>2291</ele>
        <time>2022-08-20T08:13:48Z</time>
      </trkpt>
      <trkpt lat="44.10495" lon="6.70376">
        <ele>2291</ele>
        <time>2022-08-20T08:14:01Z</time>
      </trkpt>
      <trkpt lat="44.10494" lon="6.70376">
        <ele>2291</ele>
        <time>2022-08-20T08:14:12Z</time>
      </trkpt>
      <trkpt lat="44.10495" lon="6.70376">
        <ele>2291</ele>
        <time>2022-08-20T08:14:21Z</time>
      </trkpt>
      <trkpt lat="44.10495" lon="6.70375">
        <ele>2291</ele>
        <time>2022-08-20T08:14:35Z</time>
      </trkpt>
      <trkpt lat="44.10495" lon="6.70376">
        <ele>2291</ele>
        <time>2022-08-20T08:14:53Z</time>
      </trkpt>
      <trkpt lat="44.10495" lon="6.70376">
        <ele>2291</ele>
        <time>2022-08-20T08:14:55Z</time>
      </trkpt>
      <trkpt lat="44.10495" lon="6.70376">
        <ele>2291</ele>
        <time>2022-08-20T08:14:58Z</time>
      </trkpt>
      <trkpt lat="44.10495" lon="6.70377">
        <ele>2291</ele>
        <time>2022-08-20T08:15:11Z</time>
      </trkpt>
      <trkpt lat="44.10495" lon="6.70377">
        <ele>2291</ele>
        <time>2022-08-20T08:15:21Z</time>
      </trkpt>
      <trkpt lat="44.10495" lon="6.70378">
        <ele>2291</ele>
        <time>2022-08-20T08:15:37Z</time>
      </trkpt>
      <trkpt lat="44.10495" lon="6.70378">
        <ele>2291</ele>
        <time>2022-08-20T08:15:44Z</time>
      </trkpt>
      <trkpt lat="44.10495" lon="6.70376">
        <ele>2291</ele>
        <time>2022-08-20T08:15:58Z</time>
      </trkpt>
      <trkpt lat="44.10496" lon="6.70376">
        <ele>2291</ele>
        <time>2022-08-20T08:16:03Z</time>
      </trkpt>
      <trkpt lat="44.10496" lon="6.70376">
        <ele>2291</ele>
        <time>2022-08-20T08:16:13Z</time>
      </trkpt>
      <trkpt lat="44.10496" lon="6.70376">
        <ele>2291</ele>
        <time>2022-08-20T08:16:35Z</time>
      </trkpt>
      <trkpt lat="44.10496" lon="6.70376">
        <ele>2291</ele>
        <time>2022-08-20T08:16:41Z</time>
      </trkpt>
      <trkpt lat="44.10496" lon="6.70377">
        <ele>2291</ele>
        <time>2022-08-20T08:16:45Z</time>
      </trkpt>
      <trkpt lat="44.10496" lon="6.70376">
        <ele>2291</ele>
        <time>2022-08-20T08:17:02Z</time>
      </trkpt>
      <trkpt lat="44.10496" lon="6.70376">
        <ele>2291</ele>
        <time>2022-08-20T08:17:04Z</time>
      </trkpt>
      <trkpt lat="44.10497" lon="6.70372">
        <ele>2291</ele>
        <time>2022-08-20T08:17:29Z</time>
      </trkpt>
      <trkpt lat="44.10497" lon="6.70372">
        <ele>2291</ele>
        <time>2022-08-20T08:17:34Z</time>
      </trkpt>
      <trkpt lat="44.10497" lon="6.70373">
        <ele>2291</ele>
        <time>2022-08-20T08:17:43Z</time>
      </trkpt>
      <trkpt lat="44.10495" lon="6.70373">
        <ele>2291</ele>
        <time>2022-08-20T08:17:54Z</time>
      </trkpt>
      <trkpt lat="44.10496" lon="6.70371">
        <ele>2291</ele>
        <time>2022-08-20T08:18:03Z</time>
      </trkpt>
      <trkpt lat="44.10496" lon="6.70369">
        <ele>2291</ele>
        <time>2022-08-20T08:18:06Z</time>
      </trkpt>
      <trkpt lat="44.10496" lon="6.70369">
        <ele>2291</ele>
        <time>2022-08-20T08:18:08Z</time>
      </trkpt>
      <trkpt lat="44.10493" lon="6.70372">
        <ele>2291</ele>
        <time>2022-08-20T08:18:15Z</time>
      </trkpt>
      <trkpt lat="44.10493" lon="6.70372">
        <ele>2291</ele>
        <time>2022-08-20T08:18:20Z</time>
      </trkpt>
      <trkpt lat="44.10493" lon="6.70372">
        <ele>2291</ele>
        <time>2022-08-20T08:18:22Z</time>
      </trkpt>
      <trkpt lat="44.10493" lon="6.70372">
        <ele>2291</ele>
        <time>2022-08-20T08:18:24Z</time>
      </trkpt>
      <trkpt lat="44.10493" lon="6.70373">
        <ele>2291</ele>
        <time>2022-08-20T08:18:26Z</time>
      </trkpt>
      <trkpt lat="44.10494" lon="6.70373">
        <ele>2291</ele>
        <time>2022-08-20T08:18:29Z</time>
      </trkpt>
      <trkpt lat="44.10494" lon="6.70373">
        <ele>2291</ele>
        <time>2022-08-20T08:18:30Z</time>
      </trkpt>
      <trkpt lat="44.10494" lon="6.70372">
        <ele>2291</ele>
        <time>2022-08-20T08:18:40Z</time>
      </trkpt>
      <trkpt lat="44.10494" lon="6.70372">
        <ele>2291</ele>
        <time>2022-08-20T08:18:52Z</time>
      </trkpt>
      <trkpt lat="44.10494" lon="6.70372">
        <ele>2291</ele>
        <time>2022-08-20T08:19:12Z</time>
      </trkpt>
      <trkpt lat="44.10494" lon="6.70372">
        <ele>2291</ele>
        <time>2022-08-20T08:19:17Z</time>
      </trkpt>
      <trkpt lat="44.10494" lon="6.70372">
        <ele>2291</ele>
        <time>2022-08-20T08:19:20Z</time>
      </trkpt>
      <trkpt lat="44.10494" lon="6.70371">
        <ele>2291</ele>
        <time>2022-08-20T08:19:32Z</time>
      </trkpt>
      <trkpt lat="44.10494" lon="6.70372">
        <ele>2291</ele>
        <time>2022-08-20T08:19:35Z</time>
      </trkpt>
      <trkpt lat="44.10494" lon="6.70372">
        <ele>2291</ele>
        <time>2022-08-20T08:19:45Z</time>
      </trkpt>
      <trkpt lat="44.10501" lon="6.70376">
        <ele>2291</ele>
        <time>2022-08-20T08:19:53Z</time>
      </trkpt>
      <trkpt lat="44.10501" lon="6.70377">
        <ele>2291</ele>
        <time>2022-08-20T08:19:55Z</time>
      </trkpt>
      <trkpt lat="44.10501" lon="6.70377">
        <ele>2291</ele>
        <time>2022-08-20T08:20:02Z</time>
      </trkpt>
      <trkpt lat="44.10501" lon="6.70377">
        <ele>2291</ele>
        <time>2022-08-20T08:20:04Z</time>
      </trkpt>
      <trkpt lat="44.10501" lon="6.70377">
        <ele>2291</ele>
        <time>2022-08-20T08:20:14Z</time>
      </trkpt>
      <trkpt lat="44.105" lon="6.70371">
        <ele>2291</ele>
        <time>2022-08-20T08:20:25Z</time>
      </trkpt>
      <trkpt lat="44.10499" lon="6.70369">
        <ele>2291</ele>
        <time>2022-08-20T08:20:32Z</time>
      </trkpt>
      <trkpt lat="44.10499" lon="6.70369">
        <ele>2291</ele>
        <time>2022-08-20T08:20:34Z</time>
      </trkpt>
      <trkpt lat="44.10499" lon="6.70369">
        <ele>2291</ele>
        <time>2022-08-20T08:20:37Z</time>
      </trkpt>
      <trkpt lat="44.10499" lon="6.70372">
        <ele>2291</ele>
        <time>2022-08-20T08:20:48Z</time>
      </trkpt>
      <trkpt lat="44.10498" lon="6.70374">
        <ele>2291</ele>
        <time>2022-08-20T08:20:58Z</time>
      </trkpt>
      <trkpt lat="44.10498" lon="6.70374">
        <ele>2291</ele>
        <time>2022-08-20T08:21:00Z</time>
      </trkpt>
      <trkpt lat="44.10499" lon="6.70374">
        <ele>2291</ele>
        <time>2022-08-20T08:21:07Z</time>
      </trkpt>
      <trkpt lat="44.10499" lon="6.70374">
        <ele>2291</ele>
        <time>2022-08-20T08:21:16Z</time>
      </trkpt>
      <trkpt lat="44.10499" lon="6.70373">
        <ele>2291</ele>
        <time>2022-08-20T08:21:21Z</time>
      </trkpt>
      <trkpt lat="44.10499" lon="6.70373">
        <ele>2291</ele>
        <time>2022-08-20T08:21:23Z</time>
      </trkpt>
      <trkpt lat="44.10499" lon="6.70373">
        <ele>2291</ele>
        <time>2022-08-20T08:21:26Z</time>
      </trkpt>
      <trkpt lat="44.105" lon="6.70373">
        <ele>2291</ele>
        <time>2022-08-20T08:21:29Z</time>
      </trkpt>
      <trkpt lat="44.10501" lon="6.70373">
        <ele>2291</ele>
        <time>2022-08-20T08:21:37Z</time>
      </trkpt>
      <trkpt lat="44.10501" lon="6.70373">
        <ele>2291</ele>
        <time>2022-08-20T08:21:41Z</time>
      </trkpt>
      <trkpt lat="44.10502" lon="6.70373">
        <ele>2291</ele>
        <time>2022-08-20T08:21:45Z</time>
      </trkpt>
      <trkpt lat="44.10502" lon="6.70373">
        <ele>2291</ele>
        <time>2022-08-20T08:21:52Z</time>
      </trkpt>
      <trkpt lat="44.10502" lon="6.70373">
        <ele>2291</ele>
        <time>2022-08-20T08:22:00Z</time>
      </trkpt>
      <trkpt lat="44.10502" lon="6.70373">
        <ele>2291</ele>
        <time>2022-08-20T08:22:03Z</time>
      </trkpt>
      <trkpt lat="44.10503" lon="6.70372">
        <ele>2291</ele>
        <time>2022-08-20T08:22:06Z</time>
      </trkpt>
      <trkpt lat="44.10504" lon="6.70374">
        <ele>2291</ele>
        <time>2022-08-20T08:22:09Z</time>
      </trkpt>
      <trkpt lat="44.10503" lon="6.70376">
        <ele>2291</ele>
        <time>2022-08-20T08:22:10Z</time>
      </trkpt>
      <trkpt lat="44.10503" lon="6.70375">
        <ele>2291</ele>
        <time>2022-08-20T08:22:15Z</time>
      </trkpt>
      <trkpt lat="44.10502" lon="6.70374">
        <ele>2291</ele>
        <time>2022-08-20T08:22:21Z</time>
      </trkpt>
      <trkpt lat="44.10504" lon="6.70376">
        <ele>2291</ele>
        <time>2022-08-20T08:22:32Z</time>
      </trkpt>
      <trkpt lat="44.10504" lon="6.70376">
        <ele>2291</ele>
        <time>2022-08-20T08:22:35Z</time>
      </trkpt>
      <trkpt lat="44.10504" lon="6.70376">
        <ele>2291</ele>
        <time>2022-08-20T08:22:38Z</time>
      </trkpt>
      <trkpt lat="44.10504" lon="6.70377">
        <ele>2291</ele>
        <time>2022-08-20T08:22:44Z</time>
      </trkpt>
      <trkpt lat="44.10505" lon="6.70374">
        <ele>2291</ele>
        <time>2022-08-20T08:22:55Z</time>
      </trkpt>
      <trkpt lat="44.10505" lon="6.70374">
        <ele>2291</ele>
        <time>2022-08-20T08:22:58Z</time>
      </trkpt>
      <trkpt lat="44.10504" lon="6.70372">
        <ele>2291</ele>
        <time>2022-08-20T08:23:05Z</time>
      </trkpt>
      <trkpt lat="44.10503" lon="6.7037">
        <ele>2291</ele>
        <time>2022-08-20T08:23:13Z</time>
      </trkpt>
      <trkpt lat="44.10503" lon="6.70371">
        <ele>2291</ele>
        <time>2022-08-20T08:23:16Z</time>
      </trkpt>
      <trkpt lat="44.10503" lon="6.70371">
        <ele>2291</ele>
        <time>2022-08-20T08:23:25Z</time>
      </trkpt>
      <trkpt lat="44.10503" lon="6.70372">
        <ele>2291</ele>
        <time>2022-08-20T08:23:28Z</time>
      </trkpt>
      <trkpt lat="44.10504" lon="6.70374">
        <ele>2291</ele>
        <time>2022-08-20T08:23:35Z</time>
      </trkpt>
      <trkpt lat="44.10502" lon="6.70376">
        <ele>2291</ele>
        <time>2022-08-20T08:23:40Z</time>
      </trkpt>
      <trkpt lat="44.10502" lon="6.70376">
        <ele>2291</ele>
        <time>2022-08-20T08:23:42Z</time>
      </trkpt>
      <trkpt lat="44.10502" lon="6.70376">
        <ele>2291</ele>
        <time>2022-08-20T08:23:50Z</time>
      </trkpt>
      <trkpt lat="44.10501" lon="6.70376">
        <ele>2291</ele>
        <time>2022-08-20T08:23:59Z</time>
      </trkpt>
      <trkpt lat="44.10502" lon="6.70376">
        <ele>2291</ele>
        <time>2022-08-20T08:24:06Z</time>
      </trkpt>
      <trkpt lat="44.10503" lon="6.70374">
        <ele>2291</ele>
        <time>2022-08-20T08:24:14Z</time>
      </trkpt>
      <trkpt lat="44.10503" lon="6.70373">
        <ele>2291</ele>
        <time>2022-08-20T08:24:16Z</time>
      </trkpt>
      <trkpt lat="44.10503" lon="6.70372">
        <ele>2291</ele>
        <time>2022-08-20T08:24:24Z</time>
      </trkpt>
      <trkpt lat="44.10504" lon="6.70372">
        <ele>2291</ele>
        <time>2022-08-20T08:24:34Z</time>
      </trkpt>
      <trkpt lat="44.10504" lon="6.70372">
        <ele>2291</ele>
        <time>2022-08-20T08:24:35Z</time>
      </trkpt>
      <trkpt lat="44.10503" lon="6.70373">
        <ele>2291</ele>
        <time>2022-08-20T08:24:42Z</time>
      </trkpt>
      <trkpt lat="44.10503" lon="6.70373">
        <ele>2291</ele>
        <time>2022-08-20T08:24:46Z</time>
      </trkpt>
      <trkpt lat="44.10503" lon="6.70374">
        <ele>2291</ele>
        <time>2022-08-20T08:24:50Z</time>
      </trkpt>
      <trkpt lat="44.10503" lon="6.70374">
        <ele>2291</ele>
        <time>2022-08-20T08:24:52Z</time>
      </trkpt>
      <trkpt lat="44.10503" lon="6.70374">
        <ele>2291</ele>
        <time>2022-08-20T08:25:01Z</time>
      </trkpt>
      <trkpt lat="44.10502" lon="6.70374">
        <ele>2291</ele>
        <time>2022-08-20T08:25:13Z</time>
      </trkpt>
      <trkpt lat="44.10502" lon="6.70373">
        <ele>2291</ele>
        <time>2022-08-20T08:25:19Z</time>
      </trkpt>
      <trkpt lat="44.10502" lon="6.70373">
        <ele>2291</ele>
        <time>2022-08-20T08:25:21Z</time>
      </trkpt>
      <trkpt lat="44.10502" lon="6.70373">
        <ele>2291</ele>
        <time>2022-08-20T08:25:22Z</time>
      </trkpt>
      <trkpt lat="44.10502" lon="6.70374">
        <ele>2291</ele>
        <time>2022-08-20T08:25:36Z</time>
      </trkpt>
      <trkpt lat="44.10501" lon="6.70375">
        <ele>2291</ele>
        <time>2022-08-20T08:25:50Z</time>
      </trkpt>
      <trkpt lat="44.10501" lon="6.70375">
        <ele>2291</ele>
        <time>2022-08-20T08:25:55Z</time>
      </trkpt>
      <trkpt lat="44.10501" lon="6.70375">
        <ele>2291</ele>
        <time>2022-08-20T08:25:58Z</time>
      </trkpt>
      <trkpt lat="44.10501" lon="6.70374">
        <ele>2291</ele>
        <time>2022-08-20T08:26:02Z</time>
      </trkpt>
      <trkpt lat="44.10501" lon="6.70373">
        <ele>2291</ele>
        <time>2022-08-20T08:26:07Z</time>
      </trkpt>
      <trkpt lat="44.10501" lon="6.70373">
        <ele>2291</ele>
        <time>2022-08-20T08:26:08Z</time>
      </trkpt>
      <trkpt lat="44.10501" lon="6.70372">
        <ele>2291</ele>
        <time>2022-08-20T08:26:13Z</time>
      </trkpt>
      <trkpt lat="44.10502" lon="6.70372">
        <ele>2291</ele>
        <time>2022-08-20T08:26:19Z</time>
      </trkpt>
      <trkpt lat="44.10502" lon="6.70372">
        <ele>2291</ele>
        <time>2022-08-20T08:26:29Z</time>
      </trkpt>
      <trkpt lat="44.10502" lon="6.70373">
        <ele>2291</ele>
        <time>2022-08-20T08:26:41Z</time>
      </trkpt>
      <trkpt lat="44.10503" lon="6.70371">
        <ele>2291</ele>
        <time>2022-08-20T08:26:47Z</time>
      </trkpt>
      <trkpt lat="44.10501" lon="6.7037">
        <ele>2291</ele>
        <time>2022-08-20T08:26:53Z</time>
      </trkpt>
      <trkpt lat="44.10501" lon="6.7037">
        <ele>2291</ele>
        <time>2022-08-20T08:26:56Z</time>
      </trkpt>
      <trkpt lat="44.10497" lon="6.70369">
        <ele>2291</ele>
        <time>2022-08-20T08:27:03Z</time>
      </trkpt>
      <trkpt lat="44.10497" lon="6.70369">
        <ele>2291</ele>
        <time>2022-08-20T08:27:06Z</time>
      </trkpt>
      <trkpt lat="44.10496" lon="6.70369">
        <ele>2291</ele>
        <time>2022-08-20T08:27:11Z</time>
      </trkpt>
      <trkpt lat="44.10495" lon="6.70368">
        <ele>2291</ele>
        <time>2022-08-20T08:27:13Z</time>
      </trkpt>
      <trkpt lat="44.10495" lon="6.70368">
        <ele>2291</ele>
        <time>2022-08-20T08:27:18Z</time>
      </trkpt>
      <trkpt lat="44.10496" lon="6.70368">
        <ele>2291</ele>
        <time>2022-08-20T08:27:20Z</time>
      </trkpt>
      <trkpt lat="44.10495" lon="6.70368">
        <ele>2291</ele>
        <time>2022-08-20T08:27:29Z</time>
      </trkpt>
      <trkpt lat="44.10495" lon="6.70368">
        <ele>2291</ele>
        <time>2022-08-20T08:27:35Z</time>
      </trkpt>
      <trkpt lat="44.10495" lon="6.70368">
        <ele>2291</ele>
        <time>2022-08-20T08:27:38Z</time>
      </trkpt>
      <trkpt lat="44.10496" lon="6.70369">
        <ele>2291</ele>
        <time>2022-08-20T08:27:47Z</time>
      </trkpt>
      <trkpt lat="44.10497" lon="6.70369">
        <ele>2291</ele>
        <time>2022-08-20T08:27:58Z</time>
      </trkpt>
      <trkpt lat="44.10496" lon="6.70368">
        <ele>2291</ele>
        <time>2022-08-20T08:28:06Z</time>
      </trkpt>
      <trkpt lat="44.10496" lon="6.70367">
        <ele>2291</ele>
        <time>2022-08-20T08:28:16Z</time>
      </trkpt>
      <trkpt lat="44.10495" lon="6.70368">
        <ele>2291</ele>
        <time>2022-08-20T08:28:28Z</time>
      </trkpt>
      <trkpt lat="44.10495" lon="6.70368">
        <ele>2291</ele>
        <time>2022-08-20T08:28:36Z</time>
      </trkpt>
      <trkpt lat="44.10495" lon="6.70368">
        <ele>2291</ele>
        <time>2022-08-20T08:28:40Z</time>
      </trkpt>
      <trkpt lat="44.10495" lon="6.70368">
        <ele>2291</ele>
        <time>2022-08-20T08:28:42Z</time>
      </trkpt>
      <trkpt lat="44.10494" lon="6.70368">
        <ele>2291</ele>
        <time>2022-08-20T08:28:54Z</time>
      </trkpt>
      <trkpt lat="44.10493" lon="6.7037">
        <ele>2291</ele>
        <time>2022-08-20T08:29:01Z</time>
      </trkpt>
      <trkpt lat="44.10493" lon="6.7037">
        <ele>2291</ele>
        <time>2022-08-20T08:29:06Z</time>
      </trkpt>
      <trkpt lat="44.10493" lon="6.7037">
        <ele>2291</ele>
        <time>2022-08-20T08:29:08Z</time>
      </trkpt>
      <trkpt lat="44.10493" lon="6.7037">
        <ele>2291</ele>
        <time>2022-08-20T08:29:09Z</time>
      </trkpt>
      <trkpt lat="44.10494" lon="6.7037">
        <ele>2291</ele>
        <time>2022-08-20T08:29:14Z</time>
      </trkpt>
      <trkpt lat="44.10494" lon="6.70369">
        <ele>2291</ele>
        <time>2022-08-20T08:29:16Z</time>
      </trkpt>
      <trkpt lat="44.10494" lon="6.7037">
        <ele>2291</ele>
        <time>2022-08-20T08:29:26Z</time>
      </trkpt>
      <trkpt lat="44.10494" lon="6.7037">
        <ele>2291</ele>
        <time>2022-08-20T08:29:28Z</time>
      </trkpt>
      <trkpt lat="44.10494" lon="6.7037">
        <ele>2291</ele>
        <time>2022-08-20T08:29:36Z</time>
      </trkpt>
      <trkpt lat="44.10494" lon="6.7037">
        <ele>2291</ele>
        <time>2022-08-20T08:29:39Z</time>
      </trkpt>
      <trkpt lat="44.10495" lon="6.7037">
        <ele>2291</ele>
        <time>2022-08-20T08:29:47Z</time>
      </trkpt>
      <trkpt lat="44.10495" lon="6.7037">
        <ele>2291</ele>
        <time>2022-08-20T08:29:50Z</time>
      </trkpt>
      <trkpt lat="44.10496" lon="6.7037">
        <ele>2291</ele>
        <time>2022-08-20T08:29:54Z</time>
      </trkpt>
      <trkpt lat="44.10496" lon="6.7037">
        <ele>2291</ele>
        <time>2022-08-20T08:29:56Z</time>
      </trkpt>
      <trkpt lat="44.10496" lon="6.7037">
        <ele>2291</ele>
        <time>2022-08-20T08:29:58Z</time>
      </trkpt>
      <trkpt lat="44.10496" lon="6.70369">
        <ele>2291</ele>
        <time>2022-08-20T08:30:04Z</time>
      </trkpt>
      <trkpt lat="44.10498" lon="6.7037">
        <ele>2291</ele>
        <time>2022-08-20T08:30:07Z</time>
      </trkpt>
      <trkpt lat="44.10499" lon="6.70373">
        <ele>2291</ele>
        <time>2022-08-20T08:30:13Z</time>
      </trkpt>
      <trkpt lat="44.10502" lon="6.70374">
        <ele>2291</ele>
        <time>2022-08-20T08:30:16Z</time>
      </trkpt>
      <trkpt lat="44.10505" lon="6.70371">
        <ele>2291</ele>
        <time>2022-08-20T08:30:18Z</time>
      </trkpt>
      <trkpt lat="44.10512" lon="6.70366">
        <ele>2291</ele>
        <time>2022-08-20T08:30:22Z</time>
      </trkpt>
      <trkpt lat="44.10527" lon="6.70361">
        <ele>2290.6000976562</ele>
        <time>2022-08-20T08:30:30Z</time>
      </trkpt>
      <trkpt lat="44.10536" lon="6.7036">
        <ele>2289.8000488281</ele>
        <time>2022-08-20T08:30:34Z</time>
      </trkpt>
      <trkpt lat="44.10539" lon="6.7036">
        <ele>2289.6000976562</ele>
        <time>2022-08-20T08:30:35Z</time>
      </trkpt>
      <trkpt lat="44.10544" lon="6.7036">
        <ele>2289.1999511719</ele>
        <time>2022-08-20T08:30:37Z</time>
      </trkpt>
      <trkpt lat="44.10553" lon="6.70351">
        <ele>2288.6000976562</ele>
        <time>2022-08-20T08:30:41Z</time>
      </trkpt>
      <trkpt lat="44.10556" lon="6.70348">
        <ele>2288.3999023438</ele>
        <time>2022-08-20T08:30:42Z</time>
      </trkpt>
      <trkpt lat="44.10558" lon="6.70346">
        <ele>2288.1999511719</ele>
        <time>2022-08-20T08:30:43Z</time>
      </trkpt>
      <trkpt lat="44.10565" lon="6.7034">
        <ele>2288</ele>
        <time>2022-08-20T08:30:46Z</time>
      </trkpt>
      <trkpt lat="44.10578" lon="6.70323">
        <ele>2288</ele>
        <time>2022-08-20T08:30:51Z</time>
      </trkpt>
      <trkpt lat="44.10592" lon="6.70308">
        <ele>2287.8000488281</ele>
        <time>2022-08-20T08:30:57Z</time>
      </trkpt>
      <trkpt lat="44.10597" lon="6.70289">
        <ele>2287.3999023438</ele>
        <time>2022-08-20T08:31:02Z</time>
      </trkpt>
      <trkpt lat="44.10597" lon="6.70279">
        <ele>2286.3999023438</ele>
        <time>2022-08-20T08:31:05Z</time>
      </trkpt>
      <trkpt lat="44.10596" lon="6.70265">
        <ele>2285.3999023438</ele>
        <time>2022-08-20T08:31:09Z</time>
      </trkpt>
      <trkpt lat="44.10596" lon="6.70261">
        <ele>2285.1999511719</ele>
        <time>2022-08-20T08:31:10Z</time>
      </trkpt>
      <trkpt lat="44.10589" lon="6.70242">
        <ele>2284.1999511719</ele>
        <time>2022-08-20T08:31:15Z</time>
      </trkpt>
      <trkpt lat="44.10583" lon="6.7024">
        <ele>2284.1999511719</ele>
        <time>2022-08-20T08:31:18Z</time>
      </trkpt>
      <trkpt lat="44.10574" lon="6.70238">
        <ele>2284.6000976562</ele>
        <time>2022-08-20T08:31:22Z</time>
      </trkpt>
      <trkpt lat="44.10562" lon="6.70235">
        <ele>2285.3999023438</ele>
        <time>2022-08-20T08:31:27Z</time>
      </trkpt>
      <trkpt lat="44.10557" lon="6.70233">
        <ele>2285.1999511719</ele>
        <time>2022-08-20T08:31:29Z</time>
      </trkpt>
      <trkpt lat="44.10546" lon="6.70233">
        <ele>2285.1999511719</ele>
        <time>2022-08-20T08:31:35Z</time>
      </trkpt>
      <trkpt lat="44.10547" lon="6.70233">
        <ele>2285</ele>
        <time>2022-08-20T08:31:37Z</time>
      </trkpt>
      <trkpt lat="44.10547" lon="6.70232">
        <ele>2285</ele>
        <time>2022-08-20T08:31:38Z</time>
      </trkpt>
      <trkpt lat="44.10547" lon="6.70232">
        <ele>2285.6000976562</ele>
        <time>2022-08-20T08:31:42Z</time>
      </trkpt>
      <trkpt lat="44.10547" lon="6.70232">
        <ele>2285.8000488281</ele>
        <time>2022-08-20T08:31:43Z</time>
      </trkpt>
      <trkpt lat="44.10547" lon="6.70232">
        <ele>2285.8000488281</ele>
        <time>2022-08-20T08:31:45Z</time>
      </trkpt>
      <trkpt lat="44.10547" lon="6.70232">
        <ele>2285.8000488281</ele>
        <time>2022-08-20T08:31:49Z</time>
      </trkpt>
      <trkpt lat="44.10547" lon="6.70233">
        <ele>2285.8000488281</ele>
        <time>2022-08-20T08:31:51Z</time>
      </trkpt>
      <trkpt lat="44.10547" lon="6.70233">
        <ele>2285.8000488281</ele>
        <time>2022-08-20T08:31:54Z</time>
      </trkpt>
      <trkpt lat="44.10547" lon="6.70234">
        <ele>2285.3999023438</ele>
        <time>2022-08-20T08:32:08Z</time>
      </trkpt>
      <trkpt lat="44.10538" lon="6.70234">
        <ele>2285.1999511719</ele>
        <time>2022-08-20T08:32:18Z</time>
      </trkpt>
      <trkpt lat="44.10536" lon="6.70235">
        <ele>2285</ele>
        <time>2022-08-20T08:32:19Z</time>
      </trkpt>
      <trkpt lat="44.10519" lon="6.70242">
        <ele>2285</ele>
        <time>2022-08-20T08:32:25Z</time>
      </trkpt>
      <trkpt lat="44.10514" lon="6.70239">
        <ele>2285</ele>
        <time>2022-08-20T08:32:27Z</time>
      </trkpt>
      <trkpt lat="44.1051" lon="6.70232">
        <ele>2284.8000488281</ele>
        <time>2022-08-20T08:32:29Z</time>
      </trkpt>
      <trkpt lat="44.10502" lon="6.7022">
        <ele>2284.6000976562</ele>
        <time>2022-08-20T08:32:33Z</time>
      </trkpt>
      <trkpt lat="44.10492" lon="6.702">
        <ele>2284.1999511719</ele>
        <time>2022-08-20T08:32:38Z</time>
      </trkpt>
      <trkpt lat="44.10491" lon="6.70197">
        <ele>2284</ele>
        <time>2022-08-20T08:32:39Z</time>
      </trkpt>
      <trkpt lat="44.10483" lon="6.7017">
        <ele>2283.6000976562</ele>
        <time>2022-08-20T08:32:46Z</time>
      </trkpt>
      <trkpt lat="44.10481" lon="6.70138">
        <ele>2283</ele>
        <time>2022-08-20T08:32:54Z</time>
      </trkpt>
      <trkpt lat="44.10481" lon="6.7013">
        <ele>2283</ele>
        <time>2022-08-20T08:32:56Z</time>
      </trkpt>
      <trkpt lat="44.10483" lon="6.70116">
        <ele>2283.1999511719</ele>
        <time>2022-08-20T08:33:00Z</time>
      </trkpt>
      <trkpt lat="44.10484" lon="6.70112">
        <ele>2283.3999023438</ele>
        <time>2022-08-20T08:33:01Z</time>
      </trkpt>
      <trkpt lat="44.10492" lon="6.70092">
        <ele>2283.8000488281</ele>
        <time>2022-08-20T08:33:08Z</time>
      </trkpt>
      <trkpt lat="44.10493" lon="6.70089">
        <ele>2284</ele>
        <time>2022-08-20T08:33:09Z</time>
      </trkpt>
      <trkpt lat="44.10494" lon="6.70082">
        <ele>2284.6000976562</ele>
        <time>2022-08-20T08:33:12Z</time>
      </trkpt>
      <trkpt lat="44.10496" lon="6.70076">
        <ele>2285</ele>
        <time>2022-08-20T08:33:14Z</time>
      </trkpt>
      <trkpt lat="44.10496" lon="6.70071">
        <ele>2285.1999511719</ele>
        <time>2022-08-20T08:33:16Z</time>
      </trkpt>
      <trkpt lat="44.105" lon="6.70042">
        <ele>2285</ele>
        <time>2022-08-20T08:33:24Z</time>
      </trkpt>
      <trkpt lat="44.10501" lon="6.7003">
        <ele>2285.1999511719</ele>
        <time>2022-08-20T08:33:27Z</time>
      </trkpt>
      <trkpt lat="44.10503" lon="6.70024">
        <ele>2285.3999023438</ele>
        <time>2022-08-20T08:33:29Z</time>
      </trkpt>
      <trkpt lat="44.10506" lon="6.70017">
        <ele>2285.6000976562</ele>
        <time>2022-08-20T08:33:31Z</time>
      </trkpt>
      <trkpt lat="44.10507" lon="6.70013">
        <ele>2285.6000976562</ele>
        <time>2022-08-20T08:33:32Z</time>
      </trkpt>
      <trkpt lat="44.1051" lon="6.70007">
        <ele>2285.6000976562</ele>
        <time>2022-08-20T08:33:34Z</time>
      </trkpt>
      <trkpt lat="44.10517" lon="6.69999">
        <ele>2286.3999023438</ele>
        <time>2022-08-20T08:33:38Z</time>
      </trkpt>
      <trkpt lat="44.10525" lon="6.69992">
        <ele>2287</ele>
        <time>2022-08-20T08:33:43Z</time>
      </trkpt>
      <trkpt lat="44.10532" lon="6.69983">
        <ele>2287.1999511719</ele>
        <time>2022-08-20T08:33:47Z</time>
      </trkpt>
      <trkpt lat="44.10535" lon="6.6998">
        <ele>2287.1999511719</ele>
        <time>2022-08-20T08:33:49Z</time>
      </trkpt>
      <trkpt lat="44.10537" lon="6.69979">
        <ele>2287.1999511719</ele>
        <time>2022-08-20T08:33:50Z</time>
      </trkpt>
      <trkpt lat="44.10541" lon="6.69977">
        <ele>2287.3999023438</ele>
        <time>2022-08-20T08:33:52Z</time>
      </trkpt>
      <trkpt lat="44.10545" lon="6.69977">
        <ele>2287.6000976562</ele>
        <time>2022-08-20T08:33:55Z</time>
      </trkpt>
      <trkpt lat="44.10552" lon="6.69973">
        <ele>2287.8000488281</ele>
        <time>2022-08-20T08:34:00Z</time>
      </trkpt>
      <trkpt lat="44.10553" lon="6.69972">
        <ele>2287.8000488281</ele>
        <time>2022-08-20T08:34:01Z</time>
      </trkpt>
      <trkpt lat="44.10561" lon="6.69963">
        <ele>2287.8000488281</ele>
        <time>2022-08-20T08:34:08Z</time>
      </trkpt>
      <trkpt lat="44.10561" lon="6.69963">
        <ele>2287.8000488281</ele>
        <time>2022-08-20T08:34:09Z</time>
      </trkpt>
      <trkpt lat="44.10561" lon="6.69963">
        <ele>2287.8000488281</ele>
        <time>2022-08-20T08:34:11Z</time>
      </trkpt>
      <trkpt lat="44.10562" lon="6.69962">
        <ele>2287.8000488281</ele>
        <time>2022-08-20T08:34:14Z</time>
      </trkpt>
      <trkpt lat="44.10564" lon="6.69959">
        <ele>2287.8000488281</ele>
        <time>2022-08-20T08:34:17Z</time>
      </trkpt>
      <trkpt lat="44.10568" lon="6.6996">
        <ele>2287.6000976562</ele>
        <time>2022-08-20T08:34:21Z</time>
      </trkpt>
      <trkpt lat="44.10568" lon="6.69961">
        <ele>2287.3999023438</ele>
        <time>2022-08-20T08:34:22Z</time>
      </trkpt>
      <trkpt lat="44.10568" lon="6.69962">
        <ele>2287.3999023438</ele>
        <time>2022-08-20T08:34:23Z</time>
      </trkpt>
      <trkpt lat="44.10569" lon="6.69963">
        <ele>2287.1999511719</ele>
        <time>2022-08-20T08:34:26Z</time>
      </trkpt>
      <trkpt lat="44.1057" lon="6.69965">
        <ele>2287.3999023438</ele>
        <time>2022-08-20T08:34:32Z</time>
      </trkpt>
      <trkpt lat="44.10575" lon="6.69977">
        <ele>2288.1999511719</ele>
        <time>2022-08-20T08:34:43Z</time>
      </trkpt>
      <trkpt lat="44.10575" lon="6.69978">
        <ele>2288.3999023438</ele>
        <time>2022-08-20T08:34:46Z</time>
      </trkpt>
      <trkpt lat="44.10578" lon="6.69981">
        <ele>2288.3999023438</ele>
        <time>2022-08-20T08:34:49Z</time>
      </trkpt>
      <trkpt lat="44.10591" lon="6.69982">
        <ele>2288.6000976562</ele>
        <time>2022-08-20T08:34:57Z</time>
      </trkpt>
      <trkpt lat="44.10595" lon="6.69982">
        <ele>2288.6000976562</ele>
        <time>2022-08-20T08:34:59Z</time>
      </trkpt>
      <trkpt lat="44.10601" lon="6.69982">
        <ele>2288.8000488281</ele>
        <time>2022-08-20T08:35:03Z</time>
      </trkpt>
      <trkpt lat="44.10608" lon="6.69979">
        <ele>2288.6000976562</ele>
        <time>2022-08-20T08:35:08Z</time>
      </trkpt>
      <trkpt lat="44.10609" lon="6.69976">
        <ele>2288.1999511719</ele>
        <time>2022-08-20T08:35:12Z</time>
      </trkpt>
      <trkpt lat="44.1061" lon="6.69976">
        <ele>2288</ele>
        <time>2022-08-20T08:35:15Z</time>
      </trkpt>
      <trkpt lat="44.1061" lon="6.69975">
        <ele>2287.8000488281</ele>
        <time>2022-08-20T08:35:18Z</time>
      </trkpt>
      <trkpt lat="44.10612" lon="6.69975">
        <ele>2287.8000488281</ele>
        <time>2022-08-20T08:35:22Z</time>
      </trkpt>
      <trkpt lat="44.10614" lon="6.69976">
        <ele>2288.1999511719</ele>
        <time>2022-08-20T08:35:25Z</time>
      </trkpt>
      <trkpt lat="44.10618" lon="6.69977">
        <ele>2288.6000976562</ele>
        <time>2022-08-20T08:35:31Z</time>
      </trkpt>
      <trkpt lat="44.10619" lon="6.6998">
        <ele>2288.8000488281</ele>
        <time>2022-08-20T08:35:34Z</time>
      </trkpt>
      <trkpt lat="44.10621" lon="6.6998">
        <ele>2289.1999511719</ele>
        <time>2022-08-20T08:35:38Z</time>
      </trkpt>
      <trkpt lat="44.10629" lon="6.69982">
        <ele>2289</ele>
        <time>2022-08-20T08:35:45Z</time>
      </trkpt>
      <trkpt lat="44.10633" lon="6.69985">
        <ele>2289</ele>
        <time>2022-08-20T08:35:47Z</time>
      </trkpt>
      <trkpt lat="44.10647" lon="6.69991">
        <ele>2289</ele>
        <time>2022-08-20T08:35:54Z</time>
      </trkpt>
      <trkpt lat="44.10655" lon="6.69985">
        <ele>2289</ele>
        <time>2022-08-20T08:35:59Z</time>
      </trkpt>
      <trkpt lat="44.10658" lon="6.69982">
        <ele>2288.6000976562</ele>
        <time>2022-08-20T08:36:01Z</time>
      </trkpt>
      <trkpt lat="44.10659" lon="6.69981">
        <ele>2288.3999023438</ele>
        <time>2022-08-20T08:36:03Z</time>
      </trkpt>
      <trkpt lat="44.10659" lon="6.69981">
        <ele>2288.3999023438</ele>
        <time>2022-08-20T08:36:05Z</time>
      </trkpt>
      <trkpt lat="44.10659" lon="6.6998">
        <ele>2288.3999023438</ele>
        <time>2022-08-20T08:36:06Z</time>
      </trkpt>
      <trkpt lat="44.10659" lon="6.6998">
        <ele>2288.3999023438</ele>
        <time>2022-08-20T08:36:07Z</time>
      </trkpt>
      <trkpt lat="44.10659" lon="6.6998">
        <ele>2288.3999023438</ele>
        <time>2022-08-20T08:36:11Z</time>
      </trkpt>
      <trkpt lat="44.10661" lon="6.6998">
        <ele>2288.3999023438</ele>
        <time>2022-08-20T08:36:15Z</time>
      </trkpt>
      <trkpt lat="44.10664" lon="6.6998">
        <ele>2288.6000976562</ele>
        <time>2022-08-20T08:36:18Z</time>
      </trkpt>
      <trkpt lat="44.10666" lon="6.6998">
        <ele>2288.8000488281</ele>
        <time>2022-08-20T08:36:20Z</time>
      </trkpt>
      <trkpt lat="44.10666" lon="6.6998">
        <ele>2289</ele>
        <time>2022-08-20T08:36:21Z</time>
      </trkpt>
      <trkpt lat="44.1067" lon="6.69979">
        <ele>2289</ele>
        <time>2022-08-20T08:36:29Z</time>
      </trkpt>
      <trkpt lat="44.10676" lon="6.69977">
        <ele>2289.1999511719</ele>
        <time>2022-08-20T08:36:32Z</time>
      </trkpt>
      <trkpt lat="44.1068" lon="6.69975">
        <ele>2289.3999023438</ele>
        <time>2022-08-20T08:36:35Z</time>
      </trkpt>
      <trkpt lat="44.10681" lon="6.69973">
        <ele>2289.3999023438</ele>
        <time>2022-08-20T08:36:36Z</time>
      </trkpt>
      <trkpt lat="44.10682" lon="6.69971">
        <ele>2289.6000976562</ele>
        <time>2022-08-20T08:36:37Z</time>
      </trkpt>
      <trkpt lat="44.10684" lon="6.69969">
        <ele>2289.6000976562</ele>
        <time>2022-08-20T08:36:38Z</time>
      </trkpt>
      <trkpt lat="44.10687" lon="6.69969">
        <ele>2289.6000976562</ele>
        <time>2022-08-20T08:36:40Z</time>
      </trkpt>
      <trkpt lat="44.10687" lon="6.69969">
        <ele>2289.8000488281</ele>
        <time>2022-08-20T08:36:41Z</time>
      </trkpt>
      <trkpt lat="44.10687" lon="6.69971">
        <ele>2289.6000976562</ele>
        <time>2022-08-20T08:36:45Z</time>
      </trkpt>
      <trkpt lat="44.10688" lon="6.69971">
        <ele>2289.6000976562</ele>
        <time>2022-08-20T08:36:50Z</time>
      </trkpt>
      <trkpt lat="44.10688" lon="6.69971">
        <ele>2289.6000976562</ele>
        <time>2022-08-20T08:36:56Z</time>
      </trkpt>
      <trkpt lat="44.10688" lon="6.69971">
        <ele>2289.6000976562</ele>
        <time>2022-08-20T08:37:00Z</time>
      </trkpt>
      <trkpt lat="44.10687" lon="6.6997">
        <ele>2289.6000976562</ele>
        <time>2022-08-20T08:37:10Z</time>
      </trkpt>
      <trkpt lat="44.10688" lon="6.69973">
        <ele>2289.6000976562</ele>
        <time>2022-08-20T08:37:19Z</time>
      </trkpt>
      <trkpt lat="44.1069" lon="6.69972">
        <ele>2289.6000976562</ele>
        <time>2022-08-20T08:37:21Z</time>
      </trkpt>
      <trkpt lat="44.10695" lon="6.69972">
        <ele>2289.6000976562</ele>
        <time>2022-08-20T08:37:24Z</time>
      </trkpt>
      <trkpt lat="44.10703" lon="6.6997">
        <ele>2289.6000976562</ele>
        <time>2022-08-20T08:37:29Z</time>
      </trkpt>
      <trkpt lat="44.1071" lon="6.69965">
        <ele>2289.8000488281</ele>
        <time>2022-08-20T08:37:33Z</time>
      </trkpt>
      <trkpt lat="44.1072" lon="6.69958">
        <ele>2290.1999511719</ele>
        <time>2022-08-20T08:37:38Z</time>
      </trkpt>
      <trkpt lat="44.10723" lon="6.69955">
        <ele>2290.3999023438</ele>
        <time>2022-08-20T08:37:40Z</time>
      </trkpt>
      <trkpt lat="44.10731" lon="6.69945">
        <ele>2291</ele>
        <time>2022-08-20T08:37:45Z</time>
      </trkpt>
      <trkpt lat="44.10736" lon="6.69938">
        <ele>2291.1999511719</ele>
        <time>2022-08-20T08:37:48Z</time>
      </trkpt>
      <trkpt lat="44.10741" lon="6.69934">
        <ele>2291.6000976562</ele>
        <time>2022-08-20T08:37:51Z</time>
      </trkpt>
      <trkpt lat="44.10748" lon="6.69925">
        <ele>2292.8000488281</ele>
        <time>2022-08-20T08:37:57Z</time>
      </trkpt>
      <trkpt lat="44.10756" lon="6.69922">
        <ele>2293.1999511719</ele>
        <time>2022-08-20T08:38:01Z</time>
      </trkpt>
      <trkpt lat="44.1076" lon="6.69921">
        <ele>2293.1999511719</ele>
        <time>2022-08-20T08:38:03Z</time>
      </trkpt>
      <trkpt lat="44.10769" lon="6.6992">
        <ele>2293.6000976562</ele>
        <time>2022-08-20T08:38:10Z</time>
      </trkpt>
      <trkpt lat="44.10768" lon="6.69919">
        <ele>2293.6000976562</ele>
        <time>2022-08-20T08:38:13Z</time>
      </trkpt>
      <trkpt lat="44.10768" lon="6.69918">
        <ele>2293.3999023438</ele>
        <time>2022-08-20T08:38:18Z</time>
      </trkpt>
      <trkpt lat="44.10768" lon="6.69918">
        <ele>2293.8000488281</ele>
        <time>2022-08-20T08:38:20Z</time>
      </trkpt>
      <trkpt lat="44.10768" lon="6.69917">
        <ele>2293.6000976562</ele>
        <time>2022-08-20T08:38:27Z</time>
      </trkpt>
      <trkpt lat="44.10768" lon="6.69917">
        <ele>2293.6000976562</ele>
        <time>2022-08-20T08:38:28Z</time>
      </trkpt>
      <trkpt lat="44.10769" lon="6.69918">
        <ele>2293.6000976562</ele>
        <time>2022-08-20T08:38:33Z</time>
      </trkpt>
      <trkpt lat="44.10769" lon="6.69918">
        <ele>2293.3999023438</ele>
        <time>2022-08-20T08:38:38Z</time>
      </trkpt>
      <trkpt lat="44.10769" lon="6.69918">
        <ele>2293.6000976562</ele>
        <time>2022-08-20T08:38:39Z</time>
      </trkpt>
      <trkpt lat="44.10769" lon="6.69918">
        <ele>2293.6000976562</ele>
        <time>2022-08-20T08:38:43Z</time>
      </trkpt>
      <trkpt lat="44.10769" lon="6.69918">
        <ele>2293.6000976562</ele>
        <time>2022-08-20T08:38:50Z</time>
      </trkpt>
      <trkpt lat="44.10769" lon="6.69918">
        <ele>2293.6000976562</ele>
        <time>2022-08-20T08:38:52Z</time>
      </trkpt>
      <trkpt lat="44.10769" lon="6.69918">
        <ele>2293.6000976562</ele>
        <time>2022-08-20T08:38:53Z</time>
      </trkpt>
      <trkpt lat="44.10769" lon="6.69918">
        <ele>2293.6000976562</ele>
        <time>2022-08-20T08:38:56Z</time>
      </trkpt>
      <trkpt lat="44.10769" lon="6.69918">
        <ele>2293.6000976562</ele>
        <time>2022-08-20T08:38:57Z</time>
      </trkpt>
      <trkpt lat="44.10769" lon="6.69918">
        <ele>2293.6000976562</ele>
        <time>2022-08-20T08:38:58Z</time>
      </trkpt>
      <trkpt lat="44.10769" lon="6.69918">
        <ele>2293.6000976562</ele>
        <time>2022-08-20T08:38:59Z</time>
      </trkpt>
      <trkpt lat="44.10769" lon="6.69918">
        <ele>2293.6000976562</ele>
        <time>2022-08-20T08:39:01Z</time>
      </trkpt>
      <trkpt lat="44.10769" lon="6.69918">
        <ele>2293.8000488281</ele>
        <time>2022-08-20T08:39:03Z</time>
      </trkpt>
      <trkpt lat="44.1077" lon="6.69917">
        <ele>2293.6000976562</ele>
        <time>2022-08-20T08:39:15Z</time>
      </trkpt>
      <trkpt lat="44.10778" lon="6.69913">
        <ele>2293.8000488281</ele>
        <time>2022-08-20T08:39:24Z</time>
      </trkpt>
      <trkpt lat="44.10782" lon="6.6991">
        <ele>2293.8000488281</ele>
        <time>2022-08-20T08:39:26Z</time>
      </trkpt>
      <trkpt lat="44.10788" lon="6.69905">
        <ele>2293.8000488281</ele>
        <time>2022-08-20T08:39:29Z</time>
      </trkpt>
      <trkpt lat="44.10794" lon="6.69898">
        <ele>2293.6000976562</ele>
        <time>2022-08-20T08:39:32Z</time>
      </trkpt>
      <trkpt lat="44.10796" lon="6.69896">
        <ele>2293.6000976562</ele>
        <time>2022-08-20T08:39:33Z</time>
      </trkpt>
      <trkpt lat="44.10808" lon="6.69882">
        <ele>2293.3999023438</ele>
        <time>2022-08-20T08:39:39Z</time>
      </trkpt>
      <trkpt lat="44.10812" lon="6.69868">
        <ele>2294</ele>
        <time>2022-08-20T08:39:45Z</time>
      </trkpt>
      <trkpt lat="44.10812" lon="6.69863">
        <ele>2295</ele>
        <time>2022-08-20T08:39:48Z</time>
      </trkpt>
      <trkpt lat="44.10813" lon="6.69857">
        <ele>2295.6000976562</ele>
        <time>2022-08-20T08:39:51Z</time>
      </trkpt>
      <trkpt lat="44.10814" lon="6.69852">
        <ele>2296</ele>
        <time>2022-08-20T08:39:53Z</time>
      </trkpt>
      <trkpt lat="44.10815" lon="6.69845">
        <ele>2297</ele>
        <time>2022-08-20T08:39:57Z</time>
      </trkpt>
      <trkpt lat="44.10816" lon="6.69841">
        <ele>2297.6000976562</ele>
        <time>2022-08-20T08:40:00Z</time>
      </trkpt>
      <trkpt lat="44.10819" lon="6.69837">
        <ele>2298</ele>
        <time>2022-08-20T08:40:03Z</time>
      </trkpt>
      <trkpt lat="44.10821" lon="6.69835">
        <ele>2298</ele>
        <time>2022-08-20T08:40:04Z</time>
      </trkpt>
      <trkpt lat="44.10827" lon="6.69829">
        <ele>2297.8000488281</ele>
        <time>2022-08-20T08:40:08Z</time>
      </trkpt>
      <trkpt lat="44.10828" lon="6.69827">
        <ele>2297.8000488281</ele>
        <time>2022-08-20T08:40:09Z</time>
      </trkpt>
      <trkpt lat="44.10831" lon="6.69822">
        <ele>2297.8000488281</ele>
        <time>2022-08-20T08:40:11Z</time>
      </trkpt>
      <trkpt lat="44.10833" lon="6.6982">
        <ele>2297.6000976562</ele>
        <time>2022-08-20T08:40:12Z</time>
      </trkpt>
      <trkpt lat="44.10834" lon="6.69817">
        <ele>2297.6000976562</ele>
        <time>2022-08-20T08:40:13Z</time>
      </trkpt>
      <trkpt lat="44.10837" lon="6.69814">
        <ele>2297.6000976562</ele>
        <time>2022-08-20T08:40:15Z</time>
      </trkpt>
      <trkpt lat="44.10842" lon="6.69807">
        <ele>2297.3999023438</ele>
        <time>2022-08-20T08:40:18Z</time>
      </trkpt>
      <trkpt lat="44.10849" lon="6.69786">
        <ele>2297</ele>
        <time>2022-08-20T08:40:25Z</time>
      </trkpt>
      <trkpt lat="44.10856" lon="6.69765">
        <ele>2296.3999023438</ele>
        <time>2022-08-20T08:40:31Z</time>
      </trkpt>
      <trkpt lat="44.10857" lon="6.69758">
        <ele>2296.1999511719</ele>
        <time>2022-08-20T08:40:33Z</time>
      </trkpt>
      <trkpt lat="44.10862" lon="6.69735">
        <ele>2296</ele>
        <time>2022-08-20T08:40:39Z</time>
      </trkpt>
      <trkpt lat="44.10863" lon="6.69723">
        <ele>2296.3999023438</ele>
        <time>2022-08-20T08:40:42Z</time>
      </trkpt>
      <trkpt lat="44.10867" lon="6.69703">
        <ele>2297.1999511719</ele>
        <time>2022-08-20T08:40:47Z</time>
      </trkpt>
      <trkpt lat="44.10868" lon="6.69681">
        <ele>2297.8000488281</ele>
        <time>2022-08-20T08:40:53Z</time>
      </trkpt>
      <trkpt lat="44.1087" lon="6.69674">
        <ele>2298</ele>
        <time>2022-08-20T08:40:55Z</time>
      </trkpt>
      <trkpt lat="44.1087" lon="6.69671">
        <ele>2298.1999511719</ele>
        <time>2022-08-20T08:40:56Z</time>
      </trkpt>
      <trkpt lat="44.10868" lon="6.69661">
        <ele>2298.6000976562</ele>
        <time>2022-08-20T08:40:59Z</time>
      </trkpt>
      <trkpt lat="44.10867" lon="6.69642">
        <ele>2299</ele>
        <time>2022-08-20T08:41:05Z</time>
      </trkpt>
      <trkpt lat="44.10866" lon="6.69639">
        <ele>2299.1999511719</ele>
        <time>2022-08-20T08:41:06Z</time>
      </trkpt>
      <trkpt lat="44.10856" lon="6.69635">
        <ele>2299.1999511719</ele>
        <time>2022-08-20T08:41:10Z</time>
      </trkpt>
      <trkpt lat="44.10837" lon="6.69628">
        <ele>2299.8000488281</ele>
        <time>2022-08-20T08:41:18Z</time>
      </trkpt>
      <trkpt lat="44.10825" lon="6.69618">
        <ele>2300</ele>
        <time>2022-08-20T08:41:24Z</time>
      </trkpt>
      <trkpt lat="44.10812" lon="6.69601">
        <ele>2300.6000976562</ele>
        <time>2022-08-20T08:41:31Z</time>
      </trkpt>
      <trkpt lat="44.10799" lon="6.69586">
        <ele>2301</ele>
        <time>2022-08-20T08:41:39Z</time>
      </trkpt>
      <trkpt lat="44.10795" lon="6.69584">
        <ele>2301</ele>
        <time>2022-08-20T08:41:41Z</time>
      </trkpt>
      <trkpt lat="44.10787" lon="6.69585">
        <ele>2301</ele>
        <time>2022-08-20T08:41:45Z</time>
      </trkpt>
      <trkpt lat="44.10772" lon="6.69596">
        <ele>2301</ele>
        <time>2022-08-20T08:41:52Z</time>
      </trkpt>
      <trkpt lat="44.10761" lon="6.69597">
        <ele>2301.3999023438</ele>
        <time>2022-08-20T08:41:57Z</time>
      </trkpt>
      <trkpt lat="44.10749" lon="6.69581">
        <ele>2301.1999511719</ele>
        <time>2022-08-20T08:42:04Z</time>
      </trkpt>
      <trkpt lat="44.10748" lon="6.69577">
        <ele>2301</ele>
        <time>2022-08-20T08:42:05Z</time>
      </trkpt>
      <trkpt lat="44.10747" lon="6.69566">
        <ele>2301.1999511719</ele>
        <time>2022-08-20T08:42:09Z</time>
      </trkpt>
      <trkpt lat="44.10741" lon="6.69546">
        <ele>2301.6000976562</ele>
        <time>2022-08-20T08:42:16Z</time>
      </trkpt>
      <trkpt lat="44.10733" lon="6.69539">
        <ele>2301.6000976562</ele>
        <time>2022-08-20T08:42:21Z</time>
      </trkpt>
      <trkpt lat="44.10723" lon="6.69527">
        <ele>2301.8000488281</ele>
        <time>2022-08-20T08:42:27Z</time>
      </trkpt>
      <trkpt lat="44.10719" lon="6.69524">
        <ele>2302</ele>
        <time>2022-08-20T08:42:29Z</time>
      </trkpt>
      <trkpt lat="44.10714" lon="6.69521">
        <ele>2302</ele>
        <time>2022-08-20T08:42:31Z</time>
      </trkpt>
      <trkpt lat="44.10708" lon="6.69519">
        <ele>2302.1999511719</ele>
        <time>2022-08-20T08:42:34Z</time>
      </trkpt>
      <trkpt lat="44.10702" lon="6.69512">
        <ele>2302.6000976562</ele>
        <time>2022-08-20T08:42:38Z</time>
      </trkpt>
      <trkpt lat="44.107" lon="6.69507">
        <ele>2302.8000488281</ele>
        <time>2022-08-20T08:42:40Z</time>
      </trkpt>
      <trkpt lat="44.10698" lon="6.69503">
        <ele>2303.1999511719</ele>
        <time>2022-08-20T08:42:42Z</time>
      </trkpt>
      <trkpt lat="44.10696" lon="6.69502">
        <ele>2303.1999511719</ele>
        <time>2022-08-20T08:42:43Z</time>
      </trkpt>
      <trkpt lat="44.10687" lon="6.69494">
        <ele>2303.6000976562</ele>
        <time>2022-08-20T08:42:49Z</time>
      </trkpt>
      <trkpt lat="44.10686" lon="6.69492">
        <ele>2303.6000976562</ele>
        <time>2022-08-20T08:42:50Z</time>
      </trkpt>
      <trkpt lat="44.10682" lon="6.69481">
        <ele>2303.8000488281</ele>
        <time>2022-08-20T08:42:55Z</time>
      </trkpt>
      <trkpt lat="44.1068" lon="6.69476">
        <ele>2304</ele>
        <time>2022-08-20T08:42:57Z</time>
      </trkpt>
      <trkpt lat="44.10676" lon="6.69467">
        <ele>2304</ele>
        <time>2022-08-20T08:43:01Z</time>
      </trkpt>
      <trkpt lat="44.10672" lon="6.69464">
        <ele>2304</ele>
        <time>2022-08-20T08:43:03Z</time>
      </trkpt>
      <trkpt lat="44.10671" lon="6.69458">
        <ele>2304.1999511719</ele>
        <time>2022-08-20T08:43:05Z</time>
      </trkpt>
      <trkpt lat="44.1067" lon="6.6945">
        <ele>2304.8000488281</ele>
        <time>2022-08-20T08:43:08Z</time>
      </trkpt>
      <trkpt lat="44.10664" lon="6.69427">
        <ele>2305.3999023438</ele>
        <time>2022-08-20T08:43:17Z</time>
      </trkpt>
      <trkpt lat="44.10663" lon="6.69425">
        <ele>2305.6000976562</ele>
        <time>2022-08-20T08:43:18Z</time>
      </trkpt>
      <trkpt lat="44.10661" lon="6.69411">
        <ele>2306</ele>
        <time>2022-08-20T08:43:24Z</time>
      </trkpt>
      <trkpt lat="44.1066" lon="6.69409">
        <ele>2306</ele>
        <time>2022-08-20T08:43:25Z</time>
      </trkpt>
      <trkpt lat="44.10657" lon="6.69394">
        <ele>2306.3999023438</ele>
        <time>2022-08-20T08:43:31Z</time>
      </trkpt>
      <trkpt lat="44.10655" lon="6.69386">
        <ele>2306.6000976562</ele>
        <time>2022-08-20T08:43:34Z</time>
      </trkpt>
      <trkpt lat="44.10654" lon="6.69362">
        <ele>2307</ele>
        <time>2022-08-20T08:43:43Z</time>
      </trkpt>
      <trkpt lat="44.10663" lon="6.69351">
        <ele>2307.3999023438</ele>
        <time>2022-08-20T08:43:49Z</time>
      </trkpt>
      <trkpt lat="44.10667" lon="6.69346">
        <ele>2307.3999023438</ele>
        <time>2022-08-20T08:43:52Z</time>
      </trkpt>
      <trkpt lat="44.10671" lon="6.69338">
        <ele>2307.8000488281</ele>
        <time>2022-08-20T08:43:56Z</time>
      </trkpt>
      <trkpt lat="44.10676" lon="6.69319">
        <ele>2308.1999511719</ele>
        <time>2022-08-20T08:44:03Z</time>
      </trkpt>
      <trkpt lat="44.10684" lon="6.69299">
        <ele>2308.3999023438</ele>
        <time>2022-08-20T08:44:09Z</time>
      </trkpt>
      <trkpt lat="44.10684" lon="6.69279">
        <ele>2308.3999023438</ele>
        <time>2022-08-20T08:44:15Z</time>
      </trkpt>
      <trkpt lat="44.10679" lon="6.69269">
        <ele>2308.3999023438</ele>
        <time>2022-08-20T08:44:18Z</time>
      </trkpt>
      <trkpt lat="44.10674" lon="6.69257">
        <ele>2308.6000976562</ele>
        <time>2022-08-20T08:44:22Z</time>
      </trkpt>
      <trkpt lat="44.1067" lon="6.69249">
        <ele>2308.8000488281</ele>
        <time>2022-08-20T08:44:26Z</time>
      </trkpt>
      <trkpt lat="44.1067" lon="6.69245">
        <ele>2308.8000488281</ele>
        <time>2022-08-20T08:44:28Z</time>
      </trkpt>
      <trkpt lat="44.10674" lon="6.69224">
        <ele>2309.3999023438</ele>
        <time>2022-08-20T08:44:37Z</time>
      </trkpt>
      <trkpt lat="44.10674" lon="6.69221">
        <ele>2309.3999023438</ele>
        <time>2022-08-20T08:44:39Z</time>
      </trkpt>
      <trkpt lat="44.10673" lon="6.69219">
        <ele>2309.6000976562</ele>
        <time>2022-08-20T08:44:40Z</time>
      </trkpt>
      <trkpt lat="44.1067" lon="6.69217">
        <ele>2309.6000976562</ele>
        <time>2022-08-20T08:44:42Z</time>
      </trkpt>
      <trkpt lat="44.10665" lon="6.69204">
        <ele>2309.6000976562</ele>
        <time>2022-08-20T08:44:49Z</time>
      </trkpt>
      <trkpt lat="44.10665" lon="6.69201">
        <ele>2309.6000976562</ele>
        <time>2022-08-20T08:44:51Z</time>
      </trkpt>
      <trkpt lat="44.10661" lon="6.69197">
        <ele>2309.6000976562</ele>
        <time>2022-08-20T08:44:54Z</time>
      </trkpt>
      <trkpt lat="44.10658" lon="6.69191">
        <ele>2309.6000976562</ele>
        <time>2022-08-20T08:44:57Z</time>
      </trkpt>
      <trkpt lat="44.10657" lon="6.69186">
        <ele>2309.6000976562</ele>
        <time>2022-08-20T08:45:00Z</time>
      </trkpt>
      <trkpt lat="44.10658" lon="6.69181">
        <ele>2309.6000976562</ele>
        <time>2022-08-20T08:45:04Z</time>
      </trkpt>
      <trkpt lat="44.10657" lon="6.69181">
        <ele>2309.6000976562</ele>
        <time>2022-08-20T08:45:05Z</time>
      </trkpt>
      <trkpt lat="44.10657" lon="6.6918">
        <ele>2309.8000488281</ele>
        <time>2022-08-20T08:45:08Z</time>
      </trkpt>
      <trkpt lat="44.10657" lon="6.69179">
        <ele>2310</ele>
        <time>2022-08-20T08:45:13Z</time>
      </trkpt>
      <trkpt lat="44.10656" lon="6.69172">
        <ele>2310.1999511719</ele>
        <time>2022-08-20T08:45:22Z</time>
      </trkpt>
      <trkpt lat="44.10657" lon="6.69166">
        <ele>2310.1999511719</ele>
        <time>2022-08-20T08:45:25Z</time>
      </trkpt>
      <trkpt lat="44.10658" lon="6.69154">
        <ele>2310.6000976562</ele>
        <time>2022-08-20T08:45:31Z</time>
      </trkpt>
      <trkpt lat="44.10659" lon="6.69152">
        <ele>2310.6000976562</ele>
        <time>2022-08-20T08:45:33Z</time>
      </trkpt>
      <trkpt lat="44.10661" lon="6.69145">
        <ele>2310.8000488281</ele>
        <time>2022-08-20T08:45:37Z</time>
      </trkpt>
      <trkpt lat="44.10664" lon="6.6913">
        <ele>2311</ele>
        <time>2022-08-20T08:45:44Z</time>
      </trkpt>
      <trkpt lat="44.10665" lon="6.69126">
        <ele>2311</ele>
        <time>2022-08-20T08:45:46Z</time>
      </trkpt>
      <trkpt lat="44.10664" lon="6.69115">
        <ele>2311.1999511719</ele>
        <time>2022-08-20T08:45:53Z</time>
      </trkpt>
      <trkpt lat="44.10663" lon="6.69114">
        <ele>2311.1999511719</ele>
        <time>2022-08-20T08:45:59Z</time>
      </trkpt>
      <trkpt lat="44.10663" lon="6.69115">
        <ele>2311.1999511719</ele>
        <time>2022-08-20T08:46:02Z</time>
      </trkpt>
      <trkpt lat="44.10663" lon="6.69115">
        <ele>2311.1999511719</ele>
        <time>2022-08-20T08:46:03Z</time>
      </trkpt>
      <trkpt lat="44.10668" lon="6.69109">
        <ele>2311.1999511719</ele>
        <time>2022-08-20T08:46:12Z</time>
      </trkpt>
      <trkpt lat="44.10666" lon="6.69099">
        <ele>2311.1999511719</ele>
        <time>2022-08-20T08:46:19Z</time>
      </trkpt>
      <trkpt lat="44.10665" lon="6.69098">
        <ele>2311.1999511719</ele>
        <time>2022-08-20T08:46:20Z</time>
      </trkpt>
      <trkpt lat="44.1066" lon="6.69095">
        <ele>2310.8000488281</ele>
        <time>2022-08-20T08:46:24Z</time>
      </trkpt>
      <trkpt lat="44.10659" lon="6.69093">
        <ele>2311</ele>
        <time>2022-08-20T08:46:28Z</time>
      </trkpt>
      <trkpt lat="44.10659" lon="6.69093">
        <ele>2311</ele>
        <time>2022-08-20T08:46:30Z</time>
      </trkpt>
      <trkpt lat="44.10658" lon="6.69093">
        <ele>2311</ele>
        <time>2022-08-20T08:46:36Z</time>
      </trkpt>
      <trkpt lat="44.10659" lon="6.69093">
        <ele>2310.6000976562</ele>
        <time>2022-08-20T08:46:47Z</time>
      </trkpt>
      <trkpt lat="44.10659" lon="6.69092">
        <ele>2310.6000976562</ele>
        <time>2022-08-20T08:46:54Z</time>
      </trkpt>
      <trkpt lat="44.10658" lon="6.69091">
        <ele>2310.3999023438</ele>
        <time>2022-08-20T08:47:00Z</time>
      </trkpt>
      <trkpt lat="44.10658" lon="6.69091">
        <ele>2310.3999023438</ele>
        <time>2022-08-20T08:47:01Z</time>
      </trkpt>
      <trkpt lat="44.10658" lon="6.69091">
        <ele>2310.1999511719</ele>
        <time>2022-08-20T08:47:10Z</time>
      </trkpt>
      <trkpt lat="44.10658" lon="6.69091">
        <ele>2310.3999023438</ele>
        <time>2022-08-20T08:47:12Z</time>
      </trkpt>
      <trkpt lat="44.10658" lon="6.69091">
        <ele>2310.3999023438</ele>
        <time>2022-08-20T08:47:15Z</time>
      </trkpt>
      <trkpt lat="44.10659" lon="6.69091">
        <ele>2310.1999511719</ele>
        <time>2022-08-20T08:47:23Z</time>
      </trkpt>
      <trkpt lat="44.10659" lon="6.69091">
        <ele>2310.1999511719</ele>
        <time>2022-08-20T08:47:33Z</time>
      </trkpt>
      <trkpt lat="44.10659" lon="6.69091">
        <ele>2310.1999511719</ele>
        <time>2022-08-20T08:47:34Z</time>
      </trkpt>
      <trkpt lat="44.10658" lon="6.69092">
        <ele>2310.1999511719</ele>
        <time>2022-08-20T08:47:36Z</time>
      </trkpt>
      <trkpt lat="44.10658" lon="6.69092">
        <ele>2310</ele>
        <time>2022-08-20T08:47:37Z</time>
      </trkpt>
      <trkpt lat="44.10658" lon="6.69092">
        <ele>2309.8000488281</ele>
        <time>2022-08-20T08:47:38Z</time>
      </trkpt>
      <trkpt lat="44.10658" lon="6.69092">
        <ele>2309.8000488281</ele>
        <time>2022-08-20T08:47:39Z</time>
      </trkpt>
      <trkpt lat="44.10658" lon="6.69092">
        <ele>2309.6000976562</ele>
        <time>2022-08-20T08:47:40Z</time>
      </trkpt>
      <trkpt lat="44.10658" lon="6.69092">
        <ele>2309.6000976562</ele>
        <time>2022-08-20T08:47:41Z</time>
      </trkpt>
      <trkpt lat="44.10658" lon="6.69092">
        <ele>2309.6000976562</ele>
        <time>2022-08-20T08:47:42Z</time>
      </trkpt>
      <trkpt lat="44.10658" lon="6.69092">
        <ele>2309.6000976562</ele>
        <time>2022-08-20T08:47:44Z</time>
      </trkpt>
      <trkpt lat="44.10658" lon="6.69092">
        <ele>2309.6000976562</ele>
        <time>2022-08-20T08:47:46Z</time>
      </trkpt>
      <trkpt lat="44.10658" lon="6.69092">
        <ele>2309.3999023438</ele>
        <time>2022-08-20T08:47:53Z</time>
      </trkpt>
      <trkpt lat="44.10658" lon="6.69091">
        <ele>2309.3999023438</ele>
        <time>2022-08-20T08:47:57Z</time>
      </trkpt>
      <trkpt lat="44.10658" lon="6.69091">
        <ele>2309.1999511719</ele>
        <time>2022-08-20T08:48:00Z</time>
      </trkpt>
      <trkpt lat="44.10655" lon="6.69095">
        <ele>2310.3999023438</ele>
        <time>2022-08-20T08:48:10Z</time>
      </trkpt>
      <trkpt lat="44.10655" lon="6.69094">
        <ele>2310</ele>
        <time>2022-08-20T08:48:21Z</time>
      </trkpt>
      <trkpt lat="44.10658" lon="6.69093">
        <ele>2310</ele>
        <time>2022-08-20T08:48:24Z</time>
      </trkpt>
      <trkpt lat="44.1066" lon="6.69093">
        <ele>2310.1999511719</ele>
        <time>2022-08-20T08:48:27Z</time>
      </trkpt>
      <trkpt lat="44.10661" lon="6.69093">
        <ele>2310</ele>
        <time>2022-08-20T08:48:32Z</time>
      </trkpt>
      <trkpt lat="44.1066" lon="6.69093">
        <ele>2310</ele>
        <time>2022-08-20T08:48:35Z</time>
      </trkpt>
      <trkpt lat="44.1066" lon="6.69093">
        <ele>2310</ele>
        <time>2022-08-20T08:48:36Z</time>
      </trkpt>
      <trkpt lat="44.1066" lon="6.69093">
        <ele>2310</ele>
        <time>2022-08-20T08:48:37Z</time>
      </trkpt>
      <trkpt lat="44.1066" lon="6.69093">
        <ele>2310</ele>
        <time>2022-08-20T08:48:38Z</time>
      </trkpt>
      <trkpt lat="44.1066" lon="6.69092">
        <ele>2310</ele>
        <time>2022-08-20T08:48:39Z</time>
      </trkpt>
      <trkpt lat="44.1066" lon="6.69092">
        <ele>2310</ele>
        <time>2022-08-20T08:48:40Z</time>
      </trkpt>
      <trkpt lat="44.1066" lon="6.69091">
        <ele>2310</ele>
        <time>2022-08-20T08:48:41Z</time>
      </trkpt>
      <trkpt lat="44.1066" lon="6.69091">
        <ele>2310</ele>
        <time>2022-08-20T08:48:42Z</time>
      </trkpt>
      <trkpt lat="44.10659" lon="6.69092">
        <ele>2310</ele>
        <time>2022-08-20T08:48:44Z</time>
      </trkpt>
      <trkpt lat="44.10657" lon="6.69092">
        <ele>2309.6000976562</ele>
        <time>2022-08-20T08:48:55Z</time>
      </trkpt>
      <trkpt lat="44.10657" lon="6.69092">
        <ele>2309.6000976562</ele>
        <time>2022-08-20T08:48:56Z</time>
      </trkpt>
      <trkpt lat="44.10657" lon="6.69094">
        <ele>2309.6000976562</ele>
        <time>2022-08-20T08:49:08Z</time>
      </trkpt>
      <trkpt lat="44.10657" lon="6.69094">
        <ele>2309.6000976562</ele>
        <time>2022-08-20T08:49:09Z</time>
      </trkpt>
      <trkpt lat="44.10657" lon="6.69094">
        <ele>2309.6000976562</ele>
        <time>2022-08-20T08:49:11Z</time>
      </trkpt>
      <trkpt lat="44.10657" lon="6.69094">
        <ele>2309.6000976562</ele>
        <time>2022-08-20T08:49:12Z</time>
      </trkpt>
      <trkpt lat="44.10657" lon="6.69094">
        <ele>2309.6000976562</ele>
        <time>2022-08-20T08:49:13Z</time>
      </trkpt>
      <trkpt lat="44.10657" lon="6.69094">
        <ele>2309.3999023438</ele>
        <time>2022-08-20T08:49:14Z</time>
      </trkpt>
      <trkpt lat="44.10657" lon="6.69095">
        <ele>2308.8000488281</ele>
        <time>2022-08-20T08:49:23Z</time>
      </trkpt>
      <trkpt lat="44.10657" lon="6.69095">
        <ele>2309</ele>
        <time>2022-08-20T08:49:29Z</time>
      </trkpt>
      <trkpt lat="44.10658" lon="6.69096">
        <ele>2309.3999023438</ele>
        <time>2022-08-20T08:49:39Z</time>
      </trkpt>
      <trkpt lat="44.10656" lon="6.69094">
        <ele>2309.3999023438</ele>
        <time>2022-08-20T08:49:51Z</time>
      </trkpt>
      <trkpt lat="44.10656" lon="6.69093">
        <ele>2309.3999023438</ele>
        <time>2022-08-20T08:49:59Z</time>
      </trkpt>
      <trkpt lat="44.10656" lon="6.69093">
        <ele>2309.6000976562</ele>
        <time>2022-08-20T08:50:16Z</time>
      </trkpt>
      <trkpt lat="44.1066" lon="6.69097">
        <ele>2309.8000488281</ele>
        <time>2022-08-20T08:50:32Z</time>
      </trkpt>
      <trkpt lat="44.1066" lon="6.69097">
        <ele>2309.8000488281</ele>
        <time>2022-08-20T08:50:41Z</time>
      </trkpt>
      <trkpt lat="44.10661" lon="6.69094">
        <ele>2310.6000976562</ele>
        <time>2022-08-20T08:50:46Z</time>
      </trkpt>
      <trkpt lat="44.10662" lon="6.69094">
        <ele>2310.6000976562</ele>
        <time>2022-08-20T08:50:47Z</time>
      </trkpt>
      <trkpt lat="44.10661" lon="6.69093">
        <ele>2310.3999023438</ele>
        <time>2022-08-20T08:50:50Z</time>
      </trkpt>
      <trkpt lat="44.10661" lon="6.69093">
        <ele>2310.1999511719</ele>
        <time>2022-08-20T08:50:53Z</time>
      </trkpt>
      <trkpt lat="44.1066" lon="6.69092">
        <ele>2310.1999511719</ele>
        <time>2022-08-20T08:50:59Z</time>
      </trkpt>
      <trkpt lat="44.1066" lon="6.69092">
        <ele>2310.1999511719</ele>
        <time>2022-08-20T08:51:02Z</time>
      </trkpt>
      <trkpt lat="44.1066" lon="6.69092">
        <ele>2310</ele>
        <time>2022-08-20T08:51:04Z</time>
      </trkpt>
      <trkpt lat="44.10659" lon="6.69092">
        <ele>2310</ele>
        <time>2022-08-20T08:51:21Z</time>
      </trkpt>
      <trkpt lat="44.10659" lon="6.69093">
        <ele>2310</ele>
        <time>2022-08-20T08:51:25Z</time>
      </trkpt>
      <trkpt lat="44.10659" lon="6.69092">
        <ele>2310</ele>
        <time>2022-08-20T08:51:28Z</time>
      </trkpt>
      <trkpt lat="44.10659" lon="6.69092">
        <ele>2310</ele>
        <time>2022-08-20T08:51:31Z</time>
      </trkpt>
      <trkpt lat="44.10659" lon="6.69093">
        <ele>2310</ele>
        <time>2022-08-20T08:51:35Z</time>
      </trkpt>
      <trkpt lat="44.10659" lon="6.69092">
        <ele>2310</ele>
        <time>2022-08-20T08:51:38Z</time>
      </trkpt>
      <trkpt lat="44.10658" lon="6.69092">
        <ele>2310</ele>
        <time>2022-08-20T08:51:45Z</time>
      </trkpt>
      <trkpt lat="44.10658" lon="6.69092">
        <ele>2310</ele>
        <time>2022-08-20T08:51:49Z</time>
      </trkpt>
      <trkpt lat="44.10658" lon="6.69093">
        <ele>2310</ele>
        <time>2022-08-20T08:51:54Z</time>
      </trkpt>
      <trkpt lat="44.10659" lon="6.69093">
        <ele>2310</ele>
        <time>2022-08-20T08:52:05Z</time>
      </trkpt>
      <trkpt lat="44.10659" lon="6.69093">
        <ele>2310</ele>
        <time>2022-08-20T08:52:07Z</time>
      </trkpt>
      <trkpt lat="44.10659" lon="6.69093">
        <ele>2310</ele>
        <time>2022-08-20T08:52:17Z</time>
      </trkpt>
      <trkpt lat="44.10659" lon="6.69093">
        <ele>2310</ele>
        <time>2022-08-20T08:52:19Z</time>
      </trkpt>
      <trkpt lat="44.10659" lon="6.69093">
        <ele>2310</ele>
        <time>2022-08-20T08:52:20Z</time>
      </trkpt>
      <trkpt lat="44.10658" lon="6.69093">
        <ele>2310</ele>
        <time>2022-08-20T08:52:31Z</time>
      </trkpt>
      <trkpt lat="44.10658" lon="6.69093">
        <ele>2310</ele>
        <time>2022-08-20T08:52:45Z</time>
      </trkpt>
      <trkpt lat="44.10659" lon="6.69091">
        <ele>2310</ele>
        <time>2022-08-20T08:52:56Z</time>
      </trkpt>
      <trkpt lat="44.1066" lon="6.6909">
        <ele>2310</ele>
        <time>2022-08-20T08:53:08Z</time>
      </trkpt>
      <trkpt lat="44.1066" lon="6.6909">
        <ele>2310</ele>
        <time>2022-08-20T08:53:10Z</time>
      </trkpt>
      <trkpt lat="44.1066" lon="6.6909">
        <ele>2310</ele>
        <time>2022-08-20T08:53:14Z</time>
      </trkpt>
      <trkpt lat="44.1066" lon="6.6909">
        <ele>2310</ele>
        <time>2022-08-20T08:53:18Z</time>
      </trkpt>
      <trkpt lat="44.10659" lon="6.69091">
        <ele>2310</ele>
        <time>2022-08-20T08:53:33Z</time>
      </trkpt>
      <trkpt lat="44.10659" lon="6.69091">
        <ele>2310</ele>
        <time>2022-08-20T08:53:40Z</time>
      </trkpt>
      <trkpt lat="44.10659" lon="6.69091">
        <ele>2310</ele>
        <time>2022-08-20T08:53:43Z</time>
      </trkpt>
      <trkpt lat="44.10659" lon="6.69092">
        <ele>2310</ele>
        <time>2022-08-20T08:53:55Z</time>
      </trkpt>
      <trkpt lat="44.10659" lon="6.69093">
        <ele>2310</ele>
        <time>2022-08-20T08:54:02Z</time>
      </trkpt>
      <trkpt lat="44.10659" lon="6.69093">
        <ele>2310</ele>
        <time>2022-08-20T08:54:14Z</time>
      </trkpt>
      <trkpt lat="44.10659" lon="6.69093">
        <ele>2310</ele>
        <time>2022-08-20T08:54:18Z</time>
      </trkpt>
      <trkpt lat="44.10658" lon="6.69093">
        <ele>2310</ele>
        <time>2022-08-20T08:54:21Z</time>
      </trkpt>
      <trkpt lat="44.10659" lon="6.69092">
        <ele>2310</ele>
        <time>2022-08-20T08:54:23Z</time>
      </trkpt>
      <trkpt lat="44.1066" lon="6.69092">
        <ele>2310</ele>
        <time>2022-08-20T08:54:25Z</time>
      </trkpt>
      <trkpt lat="44.10661" lon="6.69092">
        <ele>2310</ele>
        <time>2022-08-20T08:54:27Z</time>
      </trkpt>
      <trkpt lat="44.10661" lon="6.69092">
        <ele>2310</ele>
        <time>2022-08-20T08:54:28Z</time>
      </trkpt>
      <trkpt lat="44.10662" lon="6.69093">
        <ele>2310</ele>
        <time>2022-08-20T08:54:30Z</time>
      </trkpt>
      <trkpt lat="44.10662" lon="6.69093">
        <ele>2310</ele>
        <time>2022-08-20T08:54:31Z</time>
      </trkpt>
      <trkpt lat="44.10665" lon="6.69092">
        <ele>2310</ele>
        <time>2022-08-20T08:54:34Z</time>
      </trkpt>
      <trkpt lat="44.10669" lon="6.69086">
        <ele>2310</ele>
        <time>2022-08-20T08:54:38Z</time>
      </trkpt>
      <trkpt lat="44.1067" lon="6.69084">
        <ele>2310</ele>
        <time>2022-08-20T08:54:39Z</time>
      </trkpt>
      <trkpt lat="44.10672" lon="6.69077">
        <ele>2310</ele>
        <time>2022-08-20T08:54:42Z</time>
      </trkpt>
      <trkpt lat="44.10677" lon="6.69065">
        <ele>2310.1999511719</ele>
        <time>2022-08-20T08:54:47Z</time>
      </trkpt>
      <trkpt lat="44.1068" lon="6.69055">
        <ele>2310.6000976562</ele>
        <time>2022-08-20T08:54:51Z</time>
      </trkpt>
      <trkpt lat="44.10681" lon="6.69049">
        <ele>2310.8000488281</ele>
        <time>2022-08-20T08:54:53Z</time>
      </trkpt>
      <trkpt lat="44.10682" lon="6.69044">
        <ele>2311.1999511719</ele>
        <time>2022-08-20T08:54:55Z</time>
      </trkpt>
      <trkpt lat="44.10683" lon="6.69038">
        <ele>2311.3999023438</ele>
        <time>2022-08-20T08:54:58Z</time>
      </trkpt>
      <trkpt lat="44.10682" lon="6.69034">
        <ele>2311.6000976562</ele>
        <time>2022-08-20T08:55:00Z</time>
      </trkpt>
      <trkpt lat="44.10681" lon="6.69032">
        <ele>2311.6000976562</ele>
        <time>2022-08-20T08:55:01Z</time>
      </trkpt>
      <trkpt lat="44.10678" lon="6.69022">
        <ele>2312</ele>
        <time>2022-08-20T08:55:07Z</time>
      </trkpt>
      <trkpt lat="44.10677" lon="6.69022">
        <ele>2312</ele>
        <time>2022-08-20T08:55:09Z</time>
      </trkpt>
      <trkpt lat="44.10678" lon="6.69021">
        <ele>2312</ele>
        <time>2022-08-20T08:55:11Z</time>
      </trkpt>
      <trkpt lat="44.10678" lon="6.6902">
        <ele>2312</ele>
        <time>2022-08-20T08:55:12Z</time>
      </trkpt>
      <trkpt lat="44.10679" lon="6.69016">
        <ele>2312.1999511719</ele>
        <time>2022-08-20T08:55:17Z</time>
      </trkpt>
      <trkpt lat="44.10679" lon="6.69014">
        <ele>2312.3999023438</ele>
        <time>2022-08-20T08:55:22Z</time>
      </trkpt>
      <trkpt lat="44.10675" lon="6.69002">
        <ele>2312.6000976562</ele>
        <time>2022-08-20T08:55:27Z</time>
      </trkpt>
      <trkpt lat="44.10675" lon="6.68999">
        <ele>2312.8000488281</ele>
        <time>2022-08-20T08:55:29Z</time>
      </trkpt>
      <trkpt lat="44.10675" lon="6.68997">
        <ele>2313</ele>
        <time>2022-08-20T08:55:30Z</time>
      </trkpt>
      <trkpt lat="44.1068" lon="6.6899">
        <ele>2313.3999023438</ele>
        <time>2022-08-20T08:55:34Z</time>
      </trkpt>
      <trkpt lat="44.10683" lon="6.68985">
        <ele>2313.6000976562</ele>
        <time>2022-08-20T08:55:37Z</time>
      </trkpt>
      <trkpt lat="44.10686" lon="6.68976">
        <ele>2314</ele>
        <time>2022-08-20T08:55:42Z</time>
      </trkpt>
      <trkpt lat="44.10689" lon="6.68972">
        <ele>2314.6000976562</ele>
        <time>2022-08-20T08:55:45Z</time>
      </trkpt>
      <trkpt lat="44.10689" lon="6.6897">
        <ele>2315</ele>
        <time>2022-08-20T08:55:48Z</time>
      </trkpt>
      <trkpt lat="44.10695" lon="6.68966">
        <ele>2315.3999023438</ele>
        <time>2022-08-20T08:55:56Z</time>
      </trkpt>
      <trkpt lat="44.10698" lon="6.68962">
        <ele>2315.6000976562</ele>
        <time>2022-08-20T08:56:01Z</time>
      </trkpt>
      <trkpt lat="44.10701" lon="6.68963">
        <ele>2315.8000488281</ele>
        <time>2022-08-20T08:56:03Z</time>
      </trkpt>
      <trkpt lat="44.10702" lon="6.68964">
        <ele>2315.8000488281</ele>
        <time>2022-08-20T08:56:04Z</time>
      </trkpt>
      <trkpt lat="44.10702" lon="6.68965">
        <ele>2315.8000488281</ele>
        <time>2022-08-20T08:56:05Z</time>
      </trkpt>
      <trkpt lat="44.10704" lon="6.68966">
        <ele>2316</ele>
        <time>2022-08-20T08:56:07Z</time>
      </trkpt>
      <trkpt lat="44.10705" lon="6.68967">
        <ele>2316</ele>
        <time>2022-08-20T08:56:08Z</time>
      </trkpt>
      <trkpt lat="44.10708" lon="6.68965">
        <ele>2316.1999511719</ele>
        <time>2022-08-20T08:56:12Z</time>
      </trkpt>
      <trkpt lat="44.10708" lon="6.68963">
        <ele>2316.3999023438</ele>
        <time>2022-08-20T08:56:13Z</time>
      </trkpt>
      <trkpt lat="44.10709" lon="6.6896">
        <ele>2316.6000976562</ele>
        <time>2022-08-20T08:56:16Z</time>
      </trkpt>
      <trkpt lat="44.1071" lon="6.68956">
        <ele>2316.8000488281</ele>
        <time>2022-08-20T08:56:19Z</time>
      </trkpt>
      <trkpt lat="44.1071" lon="6.68944">
        <ele>2317.6000976562</ele>
        <time>2022-08-20T08:56:27Z</time>
      </trkpt>
      <trkpt lat="44.1071" lon="6.68943">
        <ele>2317.8000488281</ele>
        <time>2022-08-20T08:56:28Z</time>
      </trkpt>
      <trkpt lat="44.10711" lon="6.68932">
        <ele>2318.3999023438</ele>
        <time>2022-08-20T08:56:35Z</time>
      </trkpt>
      <trkpt lat="44.10711" lon="6.68931">
        <ele>2318.3999023438</ele>
        <time>2022-08-20T08:56:36Z</time>
      </trkpt>
      <trkpt lat="44.10712" lon="6.68925">
        <ele>2318.8000488281</ele>
        <time>2022-08-20T08:56:41Z</time>
      </trkpt>
      <trkpt lat="44.10712" lon="6.68926">
        <ele>2318.8000488281</ele>
        <time>2022-08-20T08:56:44Z</time>
      </trkpt>
      <trkpt lat="44.10713" lon="6.68918">
        <ele>2319</ele>
        <time>2022-08-20T08:56:49Z</time>
      </trkpt>
      <trkpt lat="44.1071" lon="6.68898">
        <ele>2319.8000488281</ele>
        <time>2022-08-20T08:56:57Z</time>
      </trkpt>
      <trkpt lat="44.1071" lon="6.68882">
        <ele>2320.8000488281</ele>
        <time>2022-08-20T08:57:04Z</time>
      </trkpt>
      <trkpt lat="44.1071" lon="6.6888">
        <ele>2321</ele>
        <time>2022-08-20T08:57:05Z</time>
      </trkpt>
      <trkpt lat="44.10713" lon="6.68866">
        <ele>2321.8000488281</ele>
        <time>2022-08-20T08:57:11Z</time>
      </trkpt>
      <trkpt lat="44.10713" lon="6.68863">
        <ele>2322</ele>
        <time>2022-08-20T08:57:12Z</time>
      </trkpt>
      <trkpt lat="44.10713" lon="6.68861">
        <ele>2322.1999511719</ele>
        <time>2022-08-20T08:57:13Z</time>
      </trkpt>
      <trkpt lat="44.10714" lon="6.6885">
        <ele>2322.8000488281</ele>
        <time>2022-08-20T08:57:18Z</time>
      </trkpt>
      <trkpt lat="44.10713" lon="6.68847">
        <ele>2323</ele>
        <time>2022-08-20T08:57:19Z</time>
      </trkpt>
      <trkpt lat="44.10713" lon="6.68845">
        <ele>2323.3999023438</ele>
        <time>2022-08-20T08:57:21Z</time>
      </trkpt>
      <trkpt lat="44.10713" lon="6.68845">
        <ele>2323.6000976562</ele>
        <time>2022-08-20T08:57:23Z</time>
      </trkpt>
      <trkpt lat="44.10713" lon="6.68845">
        <ele>2323.6000976562</ele>
        <time>2022-08-20T08:57:24Z</time>
      </trkpt>
      <trkpt lat="44.10712" lon="6.68848">
        <ele>2323.8000488281</ele>
        <time>2022-08-20T08:57:26Z</time>
      </trkpt>
      <trkpt lat="44.10711" lon="6.68855">
        <ele>2324.1999511719</ele>
        <time>2022-08-20T08:57:32Z</time>
      </trkpt>
      <trkpt lat="44.1071" lon="6.68857">
        <ele>2324.3999023438</ele>
        <time>2022-08-20T08:57:34Z</time>
      </trkpt>
      <trkpt lat="44.10708" lon="6.68862">
        <ele>2325</ele>
        <time>2022-08-20T08:57:38Z</time>
      </trkpt>
      <trkpt lat="44.10708" lon="6.68863">
        <ele>2325.1999511719</ele>
        <time>2022-08-20T08:57:39Z</time>
      </trkpt>
      <trkpt lat="44.10703" lon="6.68871">
        <ele>2325.8000488281</ele>
        <time>2022-08-20T08:57:46Z</time>
      </trkpt>
      <trkpt lat="44.10702" lon="6.68873">
        <ele>2326.1999511719</ele>
        <time>2022-08-20T08:57:48Z</time>
      </trkpt>
      <trkpt lat="44.10698" lon="6.68882">
        <ele>2327.1999511719</ele>
        <time>2022-08-20T08:57:57Z</time>
      </trkpt>
      <trkpt lat="44.10697" lon="6.68882">
        <ele>2327.6000976562</ele>
        <time>2022-08-20T08:58:02Z</time>
      </trkpt>
      <trkpt lat="44.10697" lon="6.6888">
        <ele>2327.8000488281</ele>
        <time>2022-08-20T08:58:06Z</time>
      </trkpt>
      <trkpt lat="44.10696" lon="6.68873">
        <ele>2328.1999511719</ele>
        <time>2022-08-20T08:58:13Z</time>
      </trkpt>
      <trkpt lat="44.10696" lon="6.6887">
        <ele>2328.6000976562</ele>
        <time>2022-08-20T08:58:19Z</time>
      </trkpt>
      <trkpt lat="44.10697" lon="6.6887">
        <ele>2328.6000976562</ele>
        <time>2022-08-20T08:58:25Z</time>
      </trkpt>
      <trkpt lat="44.10698" lon="6.68863">
        <ele>2328.6000976562</ele>
        <time>2022-08-20T08:58:32Z</time>
      </trkpt>
      <trkpt lat="44.10699" lon="6.68858">
        <ele>2328.6000976562</ele>
        <time>2022-08-20T08:58:34Z</time>
      </trkpt>
      <trkpt lat="44.10699" lon="6.6885">
        <ele>2329.3999023438</ele>
        <time>2022-08-20T08:58:38Z</time>
      </trkpt>
      <trkpt lat="44.10698" lon="6.6884">
        <ele>2330</ele>
        <time>2022-08-20T08:58:42Z</time>
      </trkpt>
      <trkpt lat="44.10696" lon="6.68831">
        <ele>2330.6000976562</ele>
        <time>2022-08-20T08:58:46Z</time>
      </trkpt>
      <trkpt lat="44.10694" lon="6.68823">
        <ele>2331.1999511719</ele>
        <time>2022-08-20T08:58:50Z</time>
      </trkpt>
      <trkpt lat="44.10693" lon="6.68818">
        <ele>2331.8000488281</ele>
        <time>2022-08-20T08:58:52Z</time>
      </trkpt>
      <trkpt lat="44.10692" lon="6.68809">
        <ele>2332.3999023438</ele>
        <time>2022-08-20T08:58:56Z</time>
      </trkpt>
      <trkpt lat="44.10692" lon="6.68806">
        <ele>2332.3999023438</ele>
        <time>2022-08-20T08:58:57Z</time>
      </trkpt>
      <trkpt lat="44.10692" lon="6.68802">
        <ele>2332.8000488281</ele>
        <time>2022-08-20T08:58:59Z</time>
      </trkpt>
      <trkpt lat="44.10691" lon="6.68797">
        <ele>2333</ele>
        <time>2022-08-20T08:59:01Z</time>
      </trkpt>
      <trkpt lat="44.1069" lon="6.68793">
        <ele>2333.3999023438</ele>
        <time>2022-08-20T08:59:03Z</time>
      </trkpt>
      <trkpt lat="44.10688" lon="6.6879">
        <ele>2333.8000488281</ele>
        <time>2022-08-20T08:59:05Z</time>
      </trkpt>
      <trkpt lat="44.10688" lon="6.68789">
        <ele>2334</ele>
        <time>2022-08-20T08:59:06Z</time>
      </trkpt>
      <trkpt lat="44.10688" lon="6.6879">
        <ele>2334.1999511719</ele>
        <time>2022-08-20T08:59:07Z</time>
      </trkpt>
      <trkpt lat="44.10688" lon="6.6879">
        <ele>2334.3999023438</ele>
        <time>2022-08-20T08:59:10Z</time>
      </trkpt>
      <trkpt lat="44.10688" lon="6.6879">
        <ele>2334.6000976562</ele>
        <time>2022-08-20T08:59:15Z</time>
      </trkpt>
      <trkpt lat="44.10688" lon="6.6879">
        <ele>2334.3999023438</ele>
        <time>2022-08-20T08:59:21Z</time>
      </trkpt>
      <trkpt lat="44.10688" lon="6.6879">
        <ele>2334.3999023438</ele>
        <time>2022-08-20T08:59:24Z</time>
      </trkpt>
      <trkpt lat="44.10688" lon="6.6879">
        <ele>2334.1999511719</ele>
        <time>2022-08-20T08:59:26Z</time>
      </trkpt>
      <trkpt lat="44.10688" lon="6.6879">
        <ele>2334.1999511719</ele>
        <time>2022-08-20T08:59:27Z</time>
      </trkpt>
      <trkpt lat="44.10687" lon="6.6879">
        <ele>2334.1999511719</ele>
        <time>2022-08-20T08:59:28Z</time>
      </trkpt>
      <trkpt lat="44.10687" lon="6.6879">
        <ele>2334.1999511719</ele>
        <time>2022-08-20T08:59:30Z</time>
      </trkpt>
      <trkpt lat="44.10688" lon="6.6879">
        <ele>2334.1999511719</ele>
        <time>2022-08-20T08:59:34Z</time>
      </trkpt>
      <trkpt lat="44.10685" lon="6.68784">
        <ele>2334</ele>
        <time>2022-08-20T08:59:43Z</time>
      </trkpt>
      <trkpt lat="44.10682" lon="6.68779">
        <ele>2334.1999511719</ele>
        <time>2022-08-20T08:59:45Z</time>
      </trkpt>
      <trkpt lat="44.10676" lon="6.68771">
        <ele>2334.8000488281</ele>
        <time>2022-08-20T08:59:49Z</time>
      </trkpt>
      <trkpt lat="44.10675" lon="6.6877">
        <ele>2335</ele>
        <time>2022-08-20T08:59:50Z</time>
      </trkpt>
      <trkpt lat="44.10671" lon="6.68766">
        <ele>2335.1999511719</ele>
        <time>2022-08-20T08:59:53Z</time>
      </trkpt>
      <trkpt lat="44.10669" lon="6.68763">
        <ele>2335.1999511719</ele>
        <time>2022-08-20T08:59:55Z</time>
      </trkpt>
      <trkpt lat="44.10667" lon="6.6876">
        <ele>2335.1999511719</ele>
        <time>2022-08-20T08:59:57Z</time>
      </trkpt>
      <trkpt lat="44.10663" lon="6.68754">
        <ele>2336</ele>
        <time>2022-08-20T09:00:01Z</time>
      </trkpt>
      <trkpt lat="44.10657" lon="6.68748">
        <ele>2336.1999511719</ele>
        <time>2022-08-20T09:00:05Z</time>
      </trkpt>
      <trkpt lat="44.10655" lon="6.68745">
        <ele>2336.3999023438</ele>
        <time>2022-08-20T09:00:07Z</time>
      </trkpt>
      <trkpt lat="44.10651" lon="6.6874">
        <ele>2337</ele>
        <time>2022-08-20T09:00:11Z</time>
      </trkpt>
      <trkpt lat="44.10649" lon="6.68737">
        <ele>2337.1999511719</ele>
        <time>2022-08-20T09:00:13Z</time>
      </trkpt>
      <trkpt lat="44.10645" lon="6.68728">
        <ele>2337.3999023438</ele>
        <time>2022-08-20T09:00:18Z</time>
      </trkpt>
      <trkpt lat="44.10643" lon="6.68723">
        <ele>2337.8000488281</ele>
        <time>2022-08-20T09:00:21Z</time>
      </trkpt>
      <trkpt lat="44.10643" lon="6.68722">
        <ele>2338</ele>
        <time>2022-08-20T09:00:22Z</time>
      </trkpt>
      <trkpt lat="44.10643" lon="6.68721">
        <ele>2338</ele>
        <time>2022-08-20T09:00:23Z</time>
      </trkpt>
      <trkpt lat="44.10642" lon="6.68717">
        <ele>2338.1999511719</ele>
        <time>2022-08-20T09:00:25Z</time>
      </trkpt>
      <trkpt lat="44.10641" lon="6.68713">
        <ele>2338.6000976562</ele>
        <time>2022-08-20T09:00:27Z</time>
      </trkpt>
      <trkpt lat="44.10641" lon="6.68711">
        <ele>2338.8000488281</ele>
        <time>2022-08-20T09:00:28Z</time>
      </trkpt>
      <trkpt lat="44.10643" lon="6.68708">
        <ele>2339.1999511719</ele>
        <time>2022-08-20T09:00:30Z</time>
      </trkpt>
      <trkpt lat="44.10646" lon="6.68705">
        <ele>2339.3999023438</ele>
        <time>2022-08-20T09:00:33Z</time>
      </trkpt>
      <trkpt lat="44.10649" lon="6.687">
        <ele>2339.8000488281</ele>
        <time>2022-08-20T09:00:37Z</time>
      </trkpt>
      <trkpt lat="44.1065" lon="6.68695">
        <ele>2340</ele>
        <time>2022-08-20T09:00:40Z</time>
      </trkpt>
      <trkpt lat="44.10649" lon="6.68694">
        <ele>2340.1999511719</ele>
        <time>2022-08-20T09:00:42Z</time>
      </trkpt>
      <trkpt lat="44.10647" lon="6.68694">
        <ele>2340.3999023438</ele>
        <time>2022-08-20T09:00:43Z</time>
      </trkpt>
      <trkpt lat="44.10643" lon="6.68694">
        <ele>2340.8000488281</ele>
        <time>2022-08-20T09:00:45Z</time>
      </trkpt>
      <trkpt lat="44.1064" lon="6.68694">
        <ele>2341.1999511719</ele>
        <time>2022-08-20T09:00:47Z</time>
      </trkpt>
      <trkpt lat="44.10634" lon="6.68697">
        <ele>2342</ele>
        <time>2022-08-20T09:00:53Z</time>
      </trkpt>
      <trkpt lat="44.10632" lon="6.68698">
        <ele>2342.1999511719</ele>
        <time>2022-08-20T09:00:55Z</time>
      </trkpt>
      <trkpt lat="44.10625" lon="6.68698">
        <ele>2343</ele>
        <time>2022-08-20T09:01:01Z</time>
      </trkpt>
      <trkpt lat="44.10624" lon="6.68697">
        <ele>2343</ele>
        <time>2022-08-20T09:01:02Z</time>
      </trkpt>
      <trkpt lat="44.10624" lon="6.68695">
        <ele>2343.1999511719</ele>
        <time>2022-08-20T09:01:03Z</time>
      </trkpt>
      <trkpt lat="44.10625" lon="6.68693">
        <ele>2343.3999023438</ele>
        <time>2022-08-20T09:01:04Z</time>
      </trkpt>
      <trkpt lat="44.10626" lon="6.68692">
        <ele>2343.6000976562</ele>
        <time>2022-08-20T09:01:05Z</time>
      </trkpt>
      <trkpt lat="44.10627" lon="6.68689">
        <ele>2344</ele>
        <time>2022-08-20T09:01:07Z</time>
      </trkpt>
      <trkpt lat="44.1063" lon="6.68678">
        <ele>2344.3999023438</ele>
        <time>2022-08-20T09:01:14Z</time>
      </trkpt>
      <trkpt lat="44.10631" lon="6.68676">
        <ele>2344.6000976562</ele>
        <time>2022-08-20T09:01:15Z</time>
      </trkpt>
      <trkpt lat="44.10637" lon="6.68665">
        <ele>2345.1999511719</ele>
        <time>2022-08-20T09:01:22Z</time>
      </trkpt>
      <trkpt lat="44.10641" lon="6.6866">
        <ele>2345.6000976562</ele>
        <time>2022-08-20T09:01:25Z</time>
      </trkpt>
      <trkpt lat="44.10647" lon="6.68651">
        <ele>2346</ele>
        <time>2022-08-20T09:01:31Z</time>
      </trkpt>
      <trkpt lat="44.10654" lon="6.68645">
        <ele>2346.6000976562</ele>
        <time>2022-08-20T09:01:36Z</time>
      </trkpt>
      <trkpt lat="44.10655" lon="6.68644">
        <ele>2346.6000976562</ele>
        <time>2022-08-20T09:01:37Z</time>
      </trkpt>
      <trkpt lat="44.10662" lon="6.6864">
        <ele>2347.1999511719</ele>
        <time>2022-08-20T09:01:42Z</time>
      </trkpt>
      <trkpt lat="44.10666" lon="6.68641">
        <ele>2347.3999023438</ele>
        <time>2022-08-20T09:01:45Z</time>
      </trkpt>
      <trkpt lat="44.10669" lon="6.68641">
        <ele>2347.6000976562</ele>
        <time>2022-08-20T09:01:47Z</time>
      </trkpt>
      <trkpt lat="44.10677" lon="6.68639">
        <ele>2347.8000488281</ele>
        <time>2022-08-20T09:01:53Z</time>
      </trkpt>
      <trkpt lat="44.1069" lon="6.68627">
        <ele>2348.8000488281</ele>
        <time>2022-08-20T09:02:02Z</time>
      </trkpt>
      <trkpt lat="44.10691" lon="6.68626">
        <ele>2348.8000488281</ele>
        <time>2022-08-20T09:02:03Z</time>
      </trkpt>
      <trkpt lat="44.10701" lon="6.68613">
        <ele>2349.1999511719</ele>
        <time>2022-08-20T09:02:11Z</time>
      </trkpt>
      <trkpt lat="44.10704" lon="6.68604">
        <ele>2349.8000488281</ele>
        <time>2022-08-20T09:02:15Z</time>
      </trkpt>
      <trkpt lat="44.10705" lon="6.68593">
        <ele>2350</ele>
        <time>2022-08-20T09:02:19Z</time>
      </trkpt>
      <trkpt lat="44.10698" lon="6.68579">
        <ele>2350.8000488281</ele>
        <time>2022-08-20T09:02:26Z</time>
      </trkpt>
      <trkpt lat="44.10687" lon="6.6858">
        <ele>2351.3999023438</ele>
        <time>2022-08-20T09:02:32Z</time>
      </trkpt>
      <trkpt lat="44.10683" lon="6.68578">
        <ele>2351.8000488281</ele>
        <time>2022-08-20T09:02:34Z</time>
      </trkpt>
      <trkpt lat="44.10681" lon="6.68574">
        <ele>2352</ele>
        <time>2022-08-20T09:02:36Z</time>
      </trkpt>
      <trkpt lat="44.10681" lon="6.68572">
        <ele>2352.3999023438</ele>
        <time>2022-08-20T09:02:37Z</time>
      </trkpt>
      <trkpt lat="44.10677" lon="6.6856">
        <ele>2353.1999511719</ele>
        <time>2022-08-20T09:02:42Z</time>
      </trkpt>
      <trkpt lat="44.10674" lon="6.68556">
        <ele>2353.3999023438</ele>
        <time>2022-08-20T09:02:44Z</time>
      </trkpt>
      <trkpt lat="44.10669" lon="6.68543">
        <ele>2353.8000488281</ele>
        <time>2022-08-20T09:02:50Z</time>
      </trkpt>
      <trkpt lat="44.10668" lon="6.68539">
        <ele>2354</ele>
        <time>2022-08-20T09:02:52Z</time>
      </trkpt>
      <trkpt lat="44.10667" lon="6.68537">
        <ele>2354.1999511719</ele>
        <time>2022-08-20T09:02:53Z</time>
      </trkpt>
      <trkpt lat="44.1066" lon="6.68523">
        <ele>2354.8000488281</ele>
        <time>2022-08-20T09:03:00Z</time>
      </trkpt>
      <trkpt lat="44.10661" lon="6.68515">
        <ele>2355.1999511719</ele>
        <time>2022-08-20T09:03:03Z</time>
      </trkpt>
      <trkpt lat="44.10662" lon="6.6851">
        <ele>2355.3999023438</ele>
        <time>2022-08-20T09:03:05Z</time>
      </trkpt>
      <trkpt lat="44.10662" lon="6.68508">
        <ele>2355.6000976562</ele>
        <time>2022-08-20T09:03:06Z</time>
      </trkpt>
      <trkpt lat="44.1066" lon="6.685">
        <ele>2356.3999023438</ele>
        <time>2022-08-20T09:03:10Z</time>
      </trkpt>
      <trkpt lat="44.10659" lon="6.68496">
        <ele>2356.6000976562</ele>
        <time>2022-08-20T09:03:12Z</time>
      </trkpt>
      <trkpt lat="44.10658" lon="6.68494">
        <ele>2356.8000488281</ele>
        <time>2022-08-20T09:03:13Z</time>
      </trkpt>
      <trkpt lat="44.10655" lon="6.68488">
        <ele>2357.1999511719</ele>
        <time>2022-08-20T09:03:16Z</time>
      </trkpt>
      <trkpt lat="44.10653" lon="6.68484">
        <ele>2357.3999023438</ele>
        <time>2022-08-20T09:03:18Z</time>
      </trkpt>
      <trkpt lat="44.10646" lon="6.68469">
        <ele>2358</ele>
        <time>2022-08-20T09:03:25Z</time>
      </trkpt>
      <trkpt lat="44.10643" lon="6.68459">
        <ele>2358.6000976562</ele>
        <time>2022-08-20T09:03:29Z</time>
      </trkpt>
      <trkpt lat="44.10642" lon="6.68449">
        <ele>2359.3999023438</ele>
        <time>2022-08-20T09:03:34Z</time>
      </trkpt>
      <trkpt lat="44.10642" lon="6.68447">
        <ele>2359.6000976562</ele>
        <time>2022-08-20T09:03:35Z</time>
      </trkpt>
      <trkpt lat="44.10642" lon="6.68444">
        <ele>2359.6000976562</ele>
        <time>2022-08-20T09:03:36Z</time>
      </trkpt>
      <trkpt lat="44.1064" lon="6.68434">
        <ele>2360.8000488281</ele>
        <time>2022-08-20T09:03:41Z</time>
      </trkpt>
      <trkpt lat="44.1064" lon="6.68432">
        <ele>2361</ele>
        <time>2022-08-20T09:03:42Z</time>
      </trkpt>
      <trkpt lat="44.10636" lon="6.68425">
        <ele>2362</ele>
        <time>2022-08-20T09:03:46Z</time>
      </trkpt>
      <trkpt lat="44.10632" lon="6.68417">
        <ele>2363</ele>
        <time>2022-08-20T09:03:51Z</time>
      </trkpt>
      <trkpt lat="44.10631" lon="6.68415">
        <ele>2363</ele>
        <time>2022-08-20T09:03:52Z</time>
      </trkpt>
      <trkpt lat="44.10629" lon="6.68405">
        <ele>2364</ele>
        <time>2022-08-20T09:03:57Z</time>
      </trkpt>
      <trkpt lat="44.10628" lon="6.68403">
        <ele>2364</ele>
        <time>2022-08-20T09:03:58Z</time>
      </trkpt>
      <trkpt lat="44.10628" lon="6.68402">
        <ele>2364.3999023438</ele>
        <time>2022-08-20T09:03:59Z</time>
      </trkpt>
      <trkpt lat="44.10627" lon="6.684">
        <ele>2364.6000976562</ele>
        <time>2022-08-20T09:04:00Z</time>
      </trkpt>
      <trkpt lat="44.10624" lon="6.68395">
        <ele>2365.1999511719</ele>
        <time>2022-08-20T09:04:03Z</time>
      </trkpt>
      <trkpt lat="44.10619" lon="6.68385">
        <ele>2366.3999023438</ele>
        <time>2022-08-20T09:04:10Z</time>
      </trkpt>
      <trkpt lat="44.10619" lon="6.68383">
        <ele>2366.6000976562</ele>
        <time>2022-08-20T09:04:11Z</time>
      </trkpt>
      <trkpt lat="44.10623" lon="6.68372">
        <ele>2367.6000976562</ele>
        <time>2022-08-20T09:04:18Z</time>
      </trkpt>
      <trkpt lat="44.10623" lon="6.68371">
        <ele>2367.6000976562</ele>
        <time>2022-08-20T09:04:19Z</time>
      </trkpt>
      <trkpt lat="44.10625" lon="6.68357">
        <ele>2368.6000976562</ele>
        <time>2022-08-20T09:04:27Z</time>
      </trkpt>
      <trkpt lat="44.10625" lon="6.68354">
        <ele>2369</ele>
        <time>2022-08-20T09:04:29Z</time>
      </trkpt>
      <trkpt lat="44.10621" lon="6.68344">
        <ele>2369.6000976562</ele>
        <time>2022-08-20T09:04:36Z</time>
      </trkpt>
      <trkpt lat="44.10621" lon="6.68343">
        <ele>2369.6000976562</ele>
        <time>2022-08-20T09:04:37Z</time>
      </trkpt>
      <trkpt lat="44.10617" lon="6.6833">
        <ele>2370.3999023438</ele>
        <time>2022-08-20T09:04:45Z</time>
      </trkpt>
      <trkpt lat="44.10616" lon="6.68327">
        <ele>2370.8000488281</ele>
        <time>2022-08-20T09:04:47Z</time>
      </trkpt>
      <trkpt lat="44.10609" lon="6.68314">
        <ele>2371.6000976562</ele>
        <time>2022-08-20T09:04:56Z</time>
      </trkpt>
      <trkpt lat="44.10608" lon="6.68313">
        <ele>2371.8000488281</ele>
        <time>2022-08-20T09:04:58Z</time>
      </trkpt>
      <trkpt lat="44.10606" lon="6.68311">
        <ele>2372.1999511719</ele>
        <time>2022-08-20T09:05:02Z</time>
      </trkpt>
      <trkpt lat="44.10606" lon="6.68311">
        <ele>2372.3999023438</ele>
        <time>2022-08-20T09:05:03Z</time>
      </trkpt>
      <trkpt lat="44.10606" lon="6.68311">
        <ele>2372.3999023438</ele>
        <time>2022-08-20T09:05:06Z</time>
      </trkpt>
      <trkpt lat="44.10604" lon="6.68307">
        <ele>2372.8000488281</ele>
        <time>2022-08-20T09:05:15Z</time>
      </trkpt>
      <trkpt lat="44.10603" lon="6.68305">
        <ele>2373</ele>
        <time>2022-08-20T09:05:17Z</time>
      </trkpt>
      <trkpt lat="44.10602" lon="6.68301">
        <ele>2373.3999023438</ele>
        <time>2022-08-20T09:05:25Z</time>
      </trkpt>
      <trkpt lat="44.10601" lon="6.68299">
        <ele>2373.6000976562</ele>
        <time>2022-08-20T09:05:29Z</time>
      </trkpt>
      <trkpt lat="44.106" lon="6.68297">
        <ele>2374</ele>
        <time>2022-08-20T09:05:32Z</time>
      </trkpt>
      <trkpt lat="44.10597" lon="6.68289">
        <ele>2374.8000488281</ele>
        <time>2022-08-20T09:05:42Z</time>
      </trkpt>
      <trkpt lat="44.10597" lon="6.68288">
        <ele>2375</ele>
        <time>2022-08-20T09:05:43Z</time>
      </trkpt>
      <trkpt lat="44.10595" lon="6.68283">
        <ele>2375.3999023438</ele>
        <time>2022-08-20T09:05:49Z</time>
      </trkpt>
      <trkpt lat="44.10593" lon="6.68282">
        <ele>2375.6000976562</ele>
        <time>2022-08-20T09:05:52Z</time>
      </trkpt>
      <trkpt lat="44.1059" lon="6.68278">
        <ele>2376</ele>
        <time>2022-08-20T09:06:01Z</time>
      </trkpt>
      <trkpt lat="44.10589" lon="6.68276">
        <ele>2376</ele>
        <time>2022-08-20T09:06:03Z</time>
      </trkpt>
      <trkpt lat="44.10584" lon="6.68271">
        <ele>2377</ele>
        <time>2022-08-20T09:06:12Z</time>
      </trkpt>
      <trkpt lat="44.10583" lon="6.6827">
        <ele>2377.1999511719</ele>
        <time>2022-08-20T09:06:15Z</time>
      </trkpt>
      <trkpt lat="44.10578" lon="6.68267">
        <ele>2378</ele>
        <time>2022-08-20T09:06:25Z</time>
      </trkpt>
      <trkpt lat="44.10577" lon="6.68266">
        <ele>2378.1999511719</ele>
        <time>2022-08-20T09:06:27Z</time>
      </trkpt>
      <trkpt lat="44.1057" lon="6.68262">
        <ele>2379.1999511719</ele>
        <time>2022-08-20T09:06:39Z</time>
      </trkpt>
      <trkpt lat="44.10569" lon="6.6826">
        <ele>2379.6000976562</ele>
        <time>2022-08-20T09:06:43Z</time>
      </trkpt>
      <trkpt lat="44.10573" lon="6.68256">
        <ele>2380.1999511719</ele>
        <time>2022-08-20T09:06:54Z</time>
      </trkpt>
      <trkpt lat="44.10575" lon="6.68256">
        <ele>2380.3999023438</ele>
        <time>2022-08-20T09:06:56Z</time>
      </trkpt>
      <trkpt lat="44.10576" lon="6.68257">
        <ele>2380.6000976562</ele>
        <time>2022-08-20T09:06:59Z</time>
      </trkpt>
      <trkpt lat="44.10581" lon="6.68257">
        <ele>2381.1999511719</ele>
        <time>2022-08-20T09:07:06Z</time>
      </trkpt>
      <trkpt lat="44.10585" lon="6.68259">
        <ele>2381.3999023438</ele>
        <time>2022-08-20T09:07:11Z</time>
      </trkpt>
      <trkpt lat="44.1059" lon="6.68263">
        <ele>2382</ele>
        <time>2022-08-20T09:07:18Z</time>
      </trkpt>
      <trkpt lat="44.10595" lon="6.68266">
        <ele>2382.1999511719</ele>
        <time>2022-08-20T09:07:24Z</time>
      </trkpt>
      <trkpt lat="44.10596" lon="6.68267">
        <ele>2382.1999511719</ele>
        <time>2022-08-20T09:07:26Z</time>
      </trkpt>
      <trkpt lat="44.106" lon="6.68268">
        <ele>2382.6000976562</ele>
        <time>2022-08-20T09:07:30Z</time>
      </trkpt>
      <trkpt lat="44.10603" lon="6.68269">
        <ele>2382.6000976562</ele>
        <time>2022-08-20T09:07:33Z</time>
      </trkpt>
      <trkpt lat="44.10604" lon="6.68269">
        <ele>2382.6000976562</ele>
        <time>2022-08-20T09:07:34Z</time>
      </trkpt>
      <trkpt lat="44.10609" lon="6.68269">
        <ele>2383</ele>
        <time>2022-08-20T09:07:40Z</time>
      </trkpt>
      <trkpt lat="44.1061" lon="6.68269">
        <ele>2383</ele>
        <time>2022-08-20T09:07:41Z</time>
      </trkpt>
      <trkpt lat="44.10611" lon="6.68268">
        <ele>2383</ele>
        <time>2022-08-20T09:07:42Z</time>
      </trkpt>
      <trkpt lat="44.10621" lon="6.68268">
        <ele>2383.6000976562</ele>
        <time>2022-08-20T09:07:52Z</time>
      </trkpt>
      <trkpt lat="44.10623" lon="6.68269">
        <ele>2383.8000488281</ele>
        <time>2022-08-20T09:07:55Z</time>
      </trkpt>
      <trkpt lat="44.10632" lon="6.68271">
        <ele>2384.3999023438</ele>
        <time>2022-08-20T09:08:05Z</time>
      </trkpt>
      <trkpt lat="44.10635" lon="6.68267">
        <ele>2384.6000976562</ele>
        <time>2022-08-20T09:08:10Z</time>
      </trkpt>
      <trkpt lat="44.10637" lon="6.68266">
        <ele>2384.6000976562</ele>
        <time>2022-08-20T09:08:13Z</time>
      </trkpt>
      <trkpt lat="44.10642" lon="6.68259">
        <ele>2385.3999023438</ele>
        <time>2022-08-20T09:08:24Z</time>
      </trkpt>
      <trkpt lat="44.10643" lon="6.68259">
        <ele>2385.3999023438</ele>
        <time>2022-08-20T09:08:25Z</time>
      </trkpt>
      <trkpt lat="44.10649" lon="6.68251">
        <ele>2385.3999023438</ele>
        <time>2022-08-20T09:08:32Z</time>
      </trkpt>
      <trkpt lat="44.10652" lon="6.68246">
        <ele>2385.3999023438</ele>
        <time>2022-08-20T09:08:35Z</time>
      </trkpt>
      <trkpt lat="44.10654" lon="6.6824">
        <ele>2385.6000976562</ele>
        <time>2022-08-20T09:08:38Z</time>
      </trkpt>
      <trkpt lat="44.10661" lon="6.68231">
        <ele>2386</ele>
        <time>2022-08-20T09:08:43Z</time>
      </trkpt>
      <trkpt lat="44.10665" lon="6.68229">
        <ele>2386.8000488281</ele>
        <time>2022-08-20T09:08:47Z</time>
      </trkpt>
      <trkpt lat="44.10667" lon="6.68229">
        <ele>2387</ele>
        <time>2022-08-20T09:08:48Z</time>
      </trkpt>
      <trkpt lat="44.10671" lon="6.68229">
        <ele>2387.6000976562</ele>
        <time>2022-08-20T09:08:51Z</time>
      </trkpt>
      <trkpt lat="44.10672" lon="6.68228">
        <ele>2388</ele>
        <time>2022-08-20T09:08:52Z</time>
      </trkpt>
      <trkpt lat="44.10674" lon="6.68224">
        <ele>2388.6000976562</ele>
        <time>2022-08-20T09:08:55Z</time>
      </trkpt>
      <trkpt lat="44.10676" lon="6.68222">
        <ele>2389</ele>
        <time>2022-08-20T09:08:57Z</time>
      </trkpt>
      <trkpt lat="44.10676" lon="6.6822">
        <ele>2389.1999511719</ele>
        <time>2022-08-20T09:08:58Z</time>
      </trkpt>
      <trkpt lat="44.10677" lon="6.68217">
        <ele>2389.3999023438</ele>
        <time>2022-08-20T09:09:00Z</time>
      </trkpt>
      <trkpt lat="44.1068" lon="6.6821">
        <ele>2389.8000488281</ele>
        <time>2022-08-20T09:09:04Z</time>
      </trkpt>
      <trkpt lat="44.10681" lon="6.68208">
        <ele>2389.8000488281</ele>
        <time>2022-08-20T09:09:05Z</time>
      </trkpt>
      <trkpt lat="44.10686" lon="6.68201">
        <ele>2390</ele>
        <time>2022-08-20T09:09:10Z</time>
      </trkpt>
      <trkpt lat="44.10688" lon="6.68198">
        <ele>2390.1999511719</ele>
        <time>2022-08-20T09:09:12Z</time>
      </trkpt>
      <trkpt lat="44.10694" lon="6.68188">
        <ele>2390.6000976562</ele>
        <time>2022-08-20T09:09:19Z</time>
      </trkpt>
      <trkpt lat="44.10696" lon="6.68184">
        <ele>2390.8000488281</ele>
        <time>2022-08-20T09:09:22Z</time>
      </trkpt>
      <trkpt lat="44.10697" lon="6.68181">
        <ele>2391.1999511719</ele>
        <time>2022-08-20T09:09:24Z</time>
      </trkpt>
      <trkpt lat="44.10698" lon="6.6818">
        <ele>2391.1999511719</ele>
        <time>2022-08-20T09:09:25Z</time>
      </trkpt>
      <trkpt lat="44.10705" lon="6.68171">
        <ele>2392.1999511719</ele>
        <time>2022-08-20T09:09:32Z</time>
      </trkpt>
      <trkpt lat="44.10706" lon="6.6817">
        <ele>2392.1999511719</ele>
        <time>2022-08-20T09:09:33Z</time>
      </trkpt>
      <trkpt lat="44.10707" lon="6.68168">
        <ele>2392.3999023438</ele>
        <time>2022-08-20T09:09:34Z</time>
      </trkpt>
      <trkpt lat="44.10713" lon="6.68162">
        <ele>2392.8000488281</ele>
        <time>2022-08-20T09:09:39Z</time>
      </trkpt>
      <trkpt lat="44.1072" lon="6.68152">
        <ele>2393.1999511719</ele>
        <time>2022-08-20T09:09:46Z</time>
      </trkpt>
      <trkpt lat="44.10723" lon="6.68149">
        <ele>2393.8000488281</ele>
        <time>2022-08-20T09:09:49Z</time>
      </trkpt>
      <trkpt lat="44.10729" lon="6.68142">
        <ele>2394.3999023438</ele>
        <time>2022-08-20T09:09:55Z</time>
      </trkpt>
      <trkpt lat="44.10733" lon="6.68141">
        <ele>2394.8000488281</ele>
        <time>2022-08-20T09:09:58Z</time>
      </trkpt>
      <trkpt lat="44.10736" lon="6.6814">
        <ele>2395.3999023438</ele>
        <time>2022-08-20T09:10:01Z</time>
      </trkpt>
      <trkpt lat="44.1074" lon="6.68138">
        <ele>2395.8000488281</ele>
        <time>2022-08-20T09:10:05Z</time>
      </trkpt>
      <trkpt lat="44.10741" lon="6.68136">
        <ele>2396</ele>
        <time>2022-08-20T09:10:07Z</time>
      </trkpt>
      <trkpt lat="44.10746" lon="6.6813">
        <ele>2396.3999023438</ele>
        <time>2022-08-20T09:10:12Z</time>
      </trkpt>
      <trkpt lat="44.10749" lon="6.68128">
        <ele>2396.3999023438</ele>
        <time>2022-08-20T09:10:15Z</time>
      </trkpt>
      <trkpt lat="44.10754" lon="6.68116">
        <ele>2397.1999511719</ele>
        <time>2022-08-20T09:10:23Z</time>
      </trkpt>
      <trkpt lat="44.10756" lon="6.6811">
        <ele>2397.3999023438</ele>
        <time>2022-08-20T09:10:26Z</time>
      </trkpt>
      <trkpt lat="44.1076" lon="6.68097">
        <ele>2398</ele>
        <time>2022-08-20T09:10:33Z</time>
      </trkpt>
      <trkpt lat="44.1076" lon="6.68096">
        <ele>2398.1999511719</ele>
        <time>2022-08-20T09:10:34Z</time>
      </trkpt>
      <trkpt lat="44.10762" lon="6.68093">
        <ele>2398.3999023438</ele>
        <time>2022-08-20T09:10:36Z</time>
      </trkpt>
      <trkpt lat="44.10765" lon="6.68088">
        <ele>2398.8000488281</ele>
        <time>2022-08-20T09:10:39Z</time>
      </trkpt>
      <trkpt lat="44.10765" lon="6.68086">
        <ele>2398.8000488281</ele>
        <time>2022-08-20T09:10:40Z</time>
      </trkpt>
      <trkpt lat="44.10766" lon="6.68076">
        <ele>2399.3999023438</ele>
        <time>2022-08-20T09:10:45Z</time>
      </trkpt>
      <trkpt lat="44.10766" lon="6.68074">
        <ele>2399.6000976562</ele>
        <time>2022-08-20T09:10:46Z</time>
      </trkpt>
      <trkpt lat="44.10768" lon="6.68066">
        <ele>2400</ele>
        <time>2022-08-20T09:10:50Z</time>
      </trkpt>
      <trkpt lat="44.10769" lon="6.68065">
        <ele>2400</ele>
        <time>2022-08-20T09:10:51Z</time>
      </trkpt>
      <trkpt lat="44.1078" lon="6.68057">
        <ele>2400</ele>
        <time>2022-08-20T09:11:00Z</time>
      </trkpt>
      <trkpt lat="44.10788" lon="6.68052">
        <ele>2400.1999511719</ele>
        <time>2022-08-20T09:11:06Z</time>
      </trkpt>
      <trkpt lat="44.10791" lon="6.68052">
        <ele>2400.3999023438</ele>
        <time>2022-08-20T09:11:08Z</time>
      </trkpt>
      <trkpt lat="44.10793" lon="6.68053">
        <ele>2400.8000488281</ele>
        <time>2022-08-20T09:11:10Z</time>
      </trkpt>
      <trkpt lat="44.10793" lon="6.68054">
        <ele>2401</ele>
        <time>2022-08-20T09:11:11Z</time>
      </trkpt>
      <trkpt lat="44.10793" lon="6.68054">
        <ele>2401.1999511719</ele>
        <time>2022-08-20T09:11:12Z</time>
      </trkpt>
      <trkpt lat="44.10793" lon="6.68054">
        <ele>2401.1999511719</ele>
        <time>2022-08-20T09:11:13Z</time>
      </trkpt>
      <trkpt lat="44.10793" lon="6.68053">
        <ele>2401.3999023438</ele>
        <time>2022-08-20T09:11:15Z</time>
      </trkpt>
      <trkpt lat="44.10795" lon="6.68053">
        <ele>2401.8000488281</ele>
        <time>2022-08-20T09:11:19Z</time>
      </trkpt>
      <trkpt lat="44.10797" lon="6.68053">
        <ele>2402.1999511719</ele>
        <time>2022-08-20T09:11:22Z</time>
      </trkpt>
      <trkpt lat="44.10798" lon="6.68053">
        <ele>2402.1999511719</ele>
        <time>2022-08-20T09:11:24Z</time>
      </trkpt>
      <trkpt lat="44.10798" lon="6.68053">
        <ele>2402.1999511719</ele>
        <time>2022-08-20T09:11:30Z</time>
      </trkpt>
      <trkpt lat="44.10796" lon="6.68053">
        <ele>2402.8000488281</ele>
        <time>2022-08-20T09:11:39Z</time>
      </trkpt>
      <trkpt lat="44.10796" lon="6.68053">
        <ele>2402.8000488281</ele>
        <time>2022-08-20T09:11:40Z</time>
      </trkpt>
      <trkpt lat="44.10796" lon="6.68053">
        <ele>2403</ele>
        <time>2022-08-20T09:11:41Z</time>
      </trkpt>
      <trkpt lat="44.10798" lon="6.68054">
        <ele>2402.6000976562</ele>
        <time>2022-08-20T09:11:51Z</time>
      </trkpt>
      <trkpt lat="44.10798" lon="6.68053">
        <ele>2402.6000976562</ele>
        <time>2022-08-20T09:11:59Z</time>
      </trkpt>
      <trkpt lat="44.10798" lon="6.68053">
        <ele>2402.8000488281</ele>
        <time>2022-08-20T09:12:02Z</time>
      </trkpt>
      <trkpt lat="44.10798" lon="6.68053">
        <ele>2402.8000488281</ele>
        <time>2022-08-20T09:12:04Z</time>
      </trkpt>
      <trkpt lat="44.10798" lon="6.68053">
        <ele>2402.8000488281</ele>
        <time>2022-08-20T09:12:08Z</time>
      </trkpt>
      <trkpt lat="44.10798" lon="6.68053">
        <ele>2402.8000488281</ele>
        <time>2022-08-20T09:12:10Z</time>
      </trkpt>
      <trkpt lat="44.10798" lon="6.68053">
        <ele>2402.8000488281</ele>
        <time>2022-08-20T09:12:15Z</time>
      </trkpt>
      <trkpt lat="44.10798" lon="6.68053">
        <ele>2402.8000488281</ele>
        <time>2022-08-20T09:12:20Z</time>
      </trkpt>
      <trkpt lat="44.10798" lon="6.68053">
        <ele>2402.8000488281</ele>
        <time>2022-08-20T09:12:21Z</time>
      </trkpt>
      <trkpt lat="44.10797" lon="6.68054">
        <ele>2402.8000488281</ele>
        <time>2022-08-20T09:12:35Z</time>
      </trkpt>
      <trkpt lat="44.10799" lon="6.68052">
        <ele>2402.8000488281</ele>
        <time>2022-08-20T09:12:46Z</time>
      </trkpt>
      <trkpt lat="44.10802" lon="6.68052">
        <ele>2402.8000488281</ele>
        <time>2022-08-20T09:12:48Z</time>
      </trkpt>
      <trkpt lat="44.10804" lon="6.68052">
        <ele>2402.8000488281</ele>
        <time>2022-08-20T09:12:50Z</time>
      </trkpt>
      <trkpt lat="44.10806" lon="6.68052">
        <ele>2402.8000488281</ele>
        <time>2022-08-20T09:12:52Z</time>
      </trkpt>
      <trkpt lat="44.1081" lon="6.68052">
        <ele>2402.8000488281</ele>
        <time>2022-08-20T09:12:55Z</time>
      </trkpt>
      <trkpt lat="44.10818" lon="6.68053">
        <ele>2403.8000488281</ele>
        <time>2022-08-20T09:13:03Z</time>
      </trkpt>
      <trkpt lat="44.1082" lon="6.68053">
        <ele>2404.1999511719</ele>
        <time>2022-08-20T09:13:05Z</time>
      </trkpt>
      <trkpt lat="44.10826" lon="6.68055">
        <ele>2405</ele>
        <time>2022-08-20T09:13:11Z</time>
      </trkpt>
      <trkpt lat="44.10827" lon="6.68056">
        <ele>2405</ele>
        <time>2022-08-20T09:13:12Z</time>
      </trkpt>
      <trkpt lat="44.1083" lon="6.68057">
        <ele>2405.3999023438</ele>
        <time>2022-08-20T09:13:15Z</time>
      </trkpt>
      <trkpt lat="44.10834" lon="6.6806">
        <ele>2406</ele>
        <time>2022-08-20T09:13:20Z</time>
      </trkpt>
      <trkpt lat="44.10837" lon="6.68063">
        <ele>2406.1999511719</ele>
        <time>2022-08-20T09:13:24Z</time>
      </trkpt>
      <trkpt lat="44.10838" lon="6.68063">
        <ele>2406.3999023438</ele>
        <time>2022-08-20T09:13:25Z</time>
      </trkpt>
      <trkpt lat="44.10841" lon="6.68066">
        <ele>2407</ele>
        <time>2022-08-20T09:13:30Z</time>
      </trkpt>
      <trkpt lat="44.10845" lon="6.68065">
        <ele>2407.3999023438</ele>
        <time>2022-08-20T09:13:35Z</time>
      </trkpt>
      <trkpt lat="44.10849" lon="6.68062">
        <ele>2408</ele>
        <time>2022-08-20T09:13:41Z</time>
      </trkpt>
      <trkpt lat="44.1085" lon="6.6806">
        <ele>2408.1999511719</ele>
        <time>2022-08-20T09:13:43Z</time>
      </trkpt>
      <trkpt lat="44.10851" lon="6.68059">
        <ele>2408.1999511719</ele>
        <time>2022-08-20T09:13:44Z</time>
      </trkpt>
      <trkpt lat="44.10857" lon="6.68052">
        <ele>2409</ele>
        <time>2022-08-20T09:13:51Z</time>
      </trkpt>
      <trkpt lat="44.10859" lon="6.68051">
        <ele>2409</ele>
        <time>2022-08-20T09:13:53Z</time>
      </trkpt>
      <trkpt lat="44.1086" lon="6.6805">
        <ele>2409</ele>
        <time>2022-08-20T09:13:54Z</time>
      </trkpt>
      <trkpt lat="44.10863" lon="6.68049">
        <ele>2409.6000976562</ele>
        <time>2022-08-20T09:13:57Z</time>
      </trkpt>
      <trkpt lat="44.10868" lon="6.68045">
        <ele>2410</ele>
        <time>2022-08-20T09:14:03Z</time>
      </trkpt>
      <trkpt lat="44.10869" lon="6.68044">
        <ele>2410.1999511719</ele>
        <time>2022-08-20T09:14:04Z</time>
      </trkpt>
      <trkpt lat="44.10879" lon="6.68042">
        <ele>2411</ele>
        <time>2022-08-20T09:14:13Z</time>
      </trkpt>
      <trkpt lat="44.1088" lon="6.68042">
        <ele>2411.1999511719</ele>
        <time>2022-08-20T09:14:14Z</time>
      </trkpt>
      <trkpt lat="44.10886" lon="6.68044">
        <ele>2411.8000488281</ele>
        <time>2022-08-20T09:14:21Z</time>
      </trkpt>
      <trkpt lat="44.10886" lon="6.68043">
        <ele>2412.1999511719</ele>
        <time>2022-08-20T09:14:24Z</time>
      </trkpt>
      <trkpt lat="44.10886" lon="6.6804">
        <ele>2412.6000976562</ele>
        <time>2022-08-20T09:14:27Z</time>
      </trkpt>
      <trkpt lat="44.10884" lon="6.68034">
        <ele>2413.1999511719</ele>
        <time>2022-08-20T09:14:32Z</time>
      </trkpt>
      <trkpt lat="44.10881" lon="6.68028">
        <ele>2414.1999511719</ele>
        <time>2022-08-20T09:14:38Z</time>
      </trkpt>
      <trkpt lat="44.1088" lon="6.68027">
        <ele>2414.6000976562</ele>
        <time>2022-08-20T09:14:39Z</time>
      </trkpt>
      <trkpt lat="44.10879" lon="6.68022">
        <ele>2415.6000976562</ele>
        <time>2022-08-20T09:14:45Z</time>
      </trkpt>
      <trkpt lat="44.10876" lon="6.68015">
        <ele>2416.8000488281</ele>
        <time>2022-08-20T09:14:53Z</time>
      </trkpt>
      <trkpt lat="44.10872" lon="6.68011">
        <ele>2417.6000976562</ele>
        <time>2022-08-20T09:14:59Z</time>
      </trkpt>
      <trkpt lat="44.10871" lon="6.6801">
        <ele>2417.8000488281</ele>
        <time>2022-08-20T09:15:00Z</time>
      </trkpt>
      <trkpt lat="44.10867" lon="6.68005">
        <ele>2418.8000488281</ele>
        <time>2022-08-20T09:15:08Z</time>
      </trkpt>
      <trkpt lat="44.10866" lon="6.68003">
        <ele>2419.1999511719</ele>
        <time>2022-08-20T09:15:11Z</time>
      </trkpt>
      <trkpt lat="44.10864" lon="6.68">
        <ele>2420</ele>
        <time>2022-08-20T09:15:15Z</time>
      </trkpt>
      <trkpt lat="44.10861" lon="6.67994">
        <ele>2421</ele>
        <time>2022-08-20T09:15:26Z</time>
      </trkpt>
      <trkpt lat="44.10858" lon="6.67992">
        <ele>2421.8000488281</ele>
        <time>2022-08-20T09:15:32Z</time>
      </trkpt>
      <trkpt lat="44.10857" lon="6.6799">
        <ele>2422.1999511719</ele>
        <time>2022-08-20T09:15:34Z</time>
      </trkpt>
      <trkpt lat="44.10852" lon="6.67987">
        <ele>2423.1999511719</ele>
        <time>2022-08-20T09:15:43Z</time>
      </trkpt>
      <trkpt lat="44.10852" lon="6.67986">
        <ele>2423.3999023438</ele>
        <time>2022-08-20T09:15:46Z</time>
      </trkpt>
      <trkpt lat="44.10852" lon="6.67986">
        <ele>2423.6000976562</ele>
        <time>2022-08-20T09:15:51Z</time>
      </trkpt>
      <trkpt lat="44.10854" lon="6.67984">
        <ele>2424.1999511719</ele>
        <time>2022-08-20T09:16:04Z</time>
      </trkpt>
      <trkpt lat="44.10857" lon="6.67983">
        <ele>2424.6000976562</ele>
        <time>2022-08-20T09:16:08Z</time>
      </trkpt>
      <trkpt lat="44.10862" lon="6.67983">
        <ele>2425.3999023438</ele>
        <time>2022-08-20T09:16:14Z</time>
      </trkpt>
      <trkpt lat="44.10866" lon="6.67983">
        <ele>2426</ele>
        <time>2022-08-20T09:16:19Z</time>
      </trkpt>
      <trkpt lat="44.10868" lon="6.67983">
        <ele>2426.3999023438</ele>
        <time>2022-08-20T09:16:22Z</time>
      </trkpt>
      <trkpt lat="44.10869" lon="6.67983">
        <ele>2426.6000976562</ele>
        <time>2022-08-20T09:16:23Z</time>
      </trkpt>
      <trkpt lat="44.1087" lon="6.67979">
        <ele>2427.6000976562</ele>
        <time>2022-08-20T09:16:30Z</time>
      </trkpt>
      <trkpt lat="44.10867" lon="6.67976">
        <ele>2428.6000976562</ele>
        <time>2022-08-20T09:16:37Z</time>
      </trkpt>
      <trkpt lat="44.10864" lon="6.67972">
        <ele>2429.1999511719</ele>
        <time>2022-08-20T09:16:43Z</time>
      </trkpt>
      <trkpt lat="44.10864" lon="6.67971">
        <ele>2429.6000976562</ele>
        <time>2022-08-20T09:16:46Z</time>
      </trkpt>
      <trkpt lat="44.1086" lon="6.67966">
        <ele>2430.6000976562</ele>
        <time>2022-08-20T09:16:55Z</time>
      </trkpt>
      <trkpt lat="44.10858" lon="6.67964">
        <ele>2431.1999511719</ele>
        <time>2022-08-20T09:17:00Z</time>
      </trkpt>
      <trkpt lat="44.10859" lon="6.67964">
        <ele>2431.6000976562</ele>
        <time>2022-08-20T09:17:02Z</time>
      </trkpt>
      <trkpt lat="44.1086" lon="6.67964">
        <ele>2431.8000488281</ele>
        <time>2022-08-20T09:17:03Z</time>
      </trkpt>
      <trkpt lat="44.10866" lon="6.67965">
        <ele>2432.8000488281</ele>
        <time>2022-08-20T09:17:14Z</time>
      </trkpt>
      <trkpt lat="44.10867" lon="6.67965">
        <ele>2432.8000488281</ele>
        <time>2022-08-20T09:17:16Z</time>
      </trkpt>
      <trkpt lat="44.10872" lon="6.67964">
        <ele>2433.8000488281</ele>
        <time>2022-08-20T09:17:25Z</time>
      </trkpt>
      <trkpt lat="44.10876" lon="6.67964">
        <ele>2434.8000488281</ele>
        <time>2022-08-20T09:17:30Z</time>
      </trkpt>
      <trkpt lat="44.10877" lon="6.67963">
        <ele>2435</ele>
        <time>2022-08-20T09:17:32Z</time>
      </trkpt>
      <trkpt lat="44.10884" lon="6.67964">
        <ele>2436</ele>
        <time>2022-08-20T09:17:40Z</time>
      </trkpt>
      <trkpt lat="44.10885" lon="6.67964">
        <ele>2436.1999511719</ele>
        <time>2022-08-20T09:17:41Z</time>
      </trkpt>
      <trkpt lat="44.10887" lon="6.67963">
        <ele>2437</ele>
        <time>2022-08-20T09:17:50Z</time>
      </trkpt>
      <trkpt lat="44.10887" lon="6.67963">
        <ele>2437.1999511719</ele>
        <time>2022-08-20T09:17:51Z</time>
      </trkpt>
      <trkpt lat="44.10887" lon="6.67962">
        <ele>2437.1999511719</ele>
        <time>2022-08-20T09:17:57Z</time>
      </trkpt>
      <trkpt lat="44.10886" lon="6.67962">
        <ele>2437.1999511719</ele>
        <time>2022-08-20T09:17:59Z</time>
      </trkpt>
      <trkpt lat="44.10883" lon="6.67958">
        <ele>2438.1999511719</ele>
        <time>2022-08-20T09:18:08Z</time>
      </trkpt>
      <trkpt lat="44.10879" lon="6.67953">
        <ele>2439</ele>
        <time>2022-08-20T09:18:17Z</time>
      </trkpt>
      <trkpt lat="44.10879" lon="6.67952">
        <ele>2439.1999511719</ele>
        <time>2022-08-20T09:18:18Z</time>
      </trkpt>
      <trkpt lat="44.10874" lon="6.67948">
        <ele>2440.1999511719</ele>
        <time>2022-08-20T09:18:25Z</time>
      </trkpt>
      <trkpt lat="44.10871" lon="6.67944">
        <ele>2440.8000488281</ele>
        <time>2022-08-20T09:18:30Z</time>
      </trkpt>
      <trkpt lat="44.10869" lon="6.67942">
        <ele>2441.1999511719</ele>
        <time>2022-08-20T09:18:33Z</time>
      </trkpt>
      <trkpt lat="44.10866" lon="6.67937">
        <ele>2442.3999023438</ele>
        <time>2022-08-20T09:18:42Z</time>
      </trkpt>
      <trkpt lat="44.10867" lon="6.67937">
        <ele>2442.3999023438</ele>
        <time>2022-08-20T09:18:43Z</time>
      </trkpt>
      <trkpt lat="44.1087" lon="6.67937">
        <ele>2443.3999023438</ele>
        <time>2022-08-20T09:18:50Z</time>
      </trkpt>
      <trkpt lat="44.10871" lon="6.67937">
        <ele>2444</ele>
        <time>2022-08-20T09:18:53Z</time>
      </trkpt>
      <trkpt lat="44.10874" lon="6.67938">
        <ele>2444.6000976562</ele>
        <time>2022-08-20T09:18:58Z</time>
      </trkpt>
      <trkpt lat="44.10874" lon="6.67935">
        <ele>2445.1999511719</ele>
        <time>2022-08-20T09:19:04Z</time>
      </trkpt>
      <trkpt lat="44.10874" lon="6.67934">
        <ele>2445.6000976562</ele>
        <time>2022-08-20T09:19:06Z</time>
      </trkpt>
      <trkpt lat="44.1087" lon="6.67929">
        <ele>2446.6000976562</ele>
        <time>2022-08-20T09:19:16Z</time>
      </trkpt>
      <trkpt lat="44.10869" lon="6.67928">
        <ele>2446.6000976562</ele>
        <time>2022-08-20T09:19:17Z</time>
      </trkpt>
      <trkpt lat="44.10864" lon="6.67922">
        <ele>2447.8000488281</ele>
        <time>2022-08-20T09:19:25Z</time>
      </trkpt>
      <trkpt lat="44.10863" lon="6.67921">
        <ele>2448</ele>
        <time>2022-08-20T09:19:28Z</time>
      </trkpt>
      <trkpt lat="44.10861" lon="6.67919">
        <ele>2448.3999023438</ele>
        <time>2022-08-20T09:19:31Z</time>
      </trkpt>
      <trkpt lat="44.10859" lon="6.67917">
        <ele>2448.8000488281</ele>
        <time>2022-08-20T09:19:34Z</time>
      </trkpt>
      <trkpt lat="44.10855" lon="6.67914">
        <ele>2449.8000488281</ele>
        <time>2022-08-20T09:19:39Z</time>
      </trkpt>
      <trkpt lat="44.10854" lon="6.67914">
        <ele>2449.8000488281</ele>
        <time>2022-08-20T09:19:40Z</time>
      </trkpt>
      <trkpt lat="44.10848" lon="6.67907">
        <ele>2450.8000488281</ele>
        <time>2022-08-20T09:19:50Z</time>
      </trkpt>
      <trkpt lat="44.10847" lon="6.67906">
        <ele>2451</ele>
        <time>2022-08-20T09:19:51Z</time>
      </trkpt>
      <trkpt lat="44.10843" lon="6.67904">
        <ele>2452</ele>
        <time>2022-08-20T09:19:55Z</time>
      </trkpt>
      <trkpt lat="44.1084" lon="6.67903">
        <ele>2452.6000976562</ele>
        <time>2022-08-20T09:19:59Z</time>
      </trkpt>
      <trkpt lat="44.10838" lon="6.67901">
        <ele>2452.8000488281</ele>
        <time>2022-08-20T09:20:02Z</time>
      </trkpt>
      <trkpt lat="44.10837" lon="6.679">
        <ele>2453</ele>
        <time>2022-08-20T09:20:04Z</time>
      </trkpt>
      <trkpt lat="44.10833" lon="6.67897">
        <ele>2454.1999511719</ele>
        <time>2022-08-20T09:20:10Z</time>
      </trkpt>
      <trkpt lat="44.10832" lon="6.67898">
        <ele>2454.1999511719</ele>
        <time>2022-08-20T09:20:18Z</time>
      </trkpt>
      <trkpt lat="44.1083" lon="6.67897">
        <ele>2454.6000976562</ele>
        <time>2022-08-20T09:20:23Z</time>
      </trkpt>
      <trkpt lat="44.10824" lon="6.67894">
        <ele>2455</ele>
        <time>2022-08-20T09:20:31Z</time>
      </trkpt>
      <trkpt lat="44.10823" lon="6.67894">
        <ele>2455.1999511719</ele>
        <time>2022-08-20T09:20:32Z</time>
      </trkpt>
      <trkpt lat="44.10818" lon="6.6789">
        <ele>2456.3999023438</ele>
        <time>2022-08-20T09:20:38Z</time>
      </trkpt>
      <trkpt lat="44.10815" lon="6.67888">
        <ele>2456.6000976562</ele>
        <time>2022-08-20T09:20:41Z</time>
      </trkpt>
      <trkpt lat="44.1081" lon="6.67885">
        <ele>2457.3999023438</ele>
        <time>2022-08-20T09:20:47Z</time>
      </trkpt>
      <trkpt lat="44.10807" lon="6.67883">
        <ele>2457.8000488281</ele>
        <time>2022-08-20T09:20:51Z</time>
      </trkpt>
      <trkpt lat="44.10801" lon="6.67877">
        <ele>2458.3999023438</ele>
        <time>2022-08-20T09:20:58Z</time>
      </trkpt>
      <trkpt lat="44.10798" lon="6.67875">
        <ele>2458.6000976562</ele>
        <time>2022-08-20T09:21:02Z</time>
      </trkpt>
      <trkpt lat="44.10791" lon="6.67871">
        <ele>2459</ele>
        <time>2022-08-20T09:21:09Z</time>
      </trkpt>
      <trkpt lat="44.10788" lon="6.6787">
        <ele>2459.3999023438</ele>
        <time>2022-08-20T09:21:12Z</time>
      </trkpt>
      <trkpt lat="44.10788" lon="6.67869">
        <ele>2459.6000976562</ele>
        <time>2022-08-20T09:21:13Z</time>
      </trkpt>
      <trkpt lat="44.10778" lon="6.67864">
        <ele>2460.6000976562</ele>
        <time>2022-08-20T09:21:24Z</time>
      </trkpt>
      <trkpt lat="44.10776" lon="6.67862">
        <ele>2460.6000976562</ele>
        <time>2022-08-20T09:21:27Z</time>
      </trkpt>
      <trkpt lat="44.10769" lon="6.67859">
        <ele>2461.1999511719</ele>
        <time>2022-08-20T09:21:34Z</time>
      </trkpt>
      <trkpt lat="44.10764" lon="6.67856">
        <ele>2461.8000488281</ele>
        <time>2022-08-20T09:21:42Z</time>
      </trkpt>
      <trkpt lat="44.1076" lon="6.67852">
        <ele>2462.1999511719</ele>
        <time>2022-08-20T09:21:48Z</time>
      </trkpt>
      <trkpt lat="44.10758" lon="6.67846">
        <ele>2462</ele>
        <time>2022-08-20T09:21:58Z</time>
      </trkpt>
      <trkpt lat="44.1076" lon="6.67845">
        <ele>2462.6000976562</ele>
        <time>2022-08-20T09:22:04Z</time>
      </trkpt>
      <trkpt lat="44.10759" lon="6.67845">
        <ele>2462.8000488281</ele>
        <time>2022-08-20T09:22:07Z</time>
      </trkpt>
      <trkpt lat="44.1076" lon="6.67846">
        <ele>2462.8000488281</ele>
        <time>2022-08-20T09:22:12Z</time>
      </trkpt>
      <trkpt lat="44.1076" lon="6.67847">
        <ele>2462.1999511719</ele>
        <time>2022-08-20T09:22:20Z</time>
      </trkpt>
      <trkpt lat="44.10759" lon="6.67847">
        <ele>2462.1999511719</ele>
        <time>2022-08-20T09:22:28Z</time>
      </trkpt>
      <trkpt lat="44.1076" lon="6.67848">
        <ele>2463.1999511719</ele>
        <time>2022-08-20T09:22:34Z</time>
      </trkpt>
      <trkpt lat="44.10759" lon="6.67848">
        <ele>2463.1999511719</ele>
        <time>2022-08-20T09:22:35Z</time>
      </trkpt>
      <trkpt lat="44.1076" lon="6.67848">
        <ele>2463.3999023438</ele>
        <time>2022-08-20T09:22:37Z</time>
      </trkpt>
      <trkpt lat="44.1076" lon="6.67848">
        <ele>2463.3999023438</ele>
        <time>2022-08-20T09:22:38Z</time>
      </trkpt>
      <trkpt lat="44.1076" lon="6.67848">
        <ele>2463.3999023438</ele>
        <time>2022-08-20T09:22:39Z</time>
      </trkpt>
      <trkpt lat="44.1076" lon="6.67847">
        <ele>2463.3999023438</ele>
        <time>2022-08-20T09:22:41Z</time>
      </trkpt>
      <trkpt lat="44.1076" lon="6.67848">
        <ele>2463.6000976562</ele>
        <time>2022-08-20T09:22:43Z</time>
      </trkpt>
      <trkpt lat="44.10761" lon="6.67848">
        <ele>2463.8000488281</ele>
        <time>2022-08-20T09:22:45Z</time>
      </trkpt>
      <trkpt lat="44.1076" lon="6.67848">
        <ele>2464</ele>
        <time>2022-08-20T09:22:53Z</time>
      </trkpt>
      <trkpt lat="44.1076" lon="6.67848">
        <ele>2462.8000488281</ele>
        <time>2022-08-20T09:22:56Z</time>
      </trkpt>
      <trkpt lat="44.1076" lon="6.67848">
        <ele>2463.8000488281</ele>
        <time>2022-08-20T09:23:00Z</time>
      </trkpt>
      <trkpt lat="44.1076" lon="6.67848">
        <ele>2464.1999511719</ele>
        <time>2022-08-20T09:23:02Z</time>
      </trkpt>
      <trkpt lat="44.10759" lon="6.67848">
        <ele>2464.6000976562</ele>
        <time>2022-08-20T09:23:10Z</time>
      </trkpt>
      <trkpt lat="44.10759" lon="6.67848">
        <ele>2464.3999023438</ele>
        <time>2022-08-20T09:23:17Z</time>
      </trkpt>
      <trkpt lat="44.10759" lon="6.67848">
        <ele>2464.3999023438</ele>
        <time>2022-08-20T09:23:21Z</time>
      </trkpt>
      <trkpt lat="44.10759" lon="6.67848">
        <ele>2464.6000976562</ele>
        <time>2022-08-20T09:23:28Z</time>
      </trkpt>
      <trkpt lat="44.10759" lon="6.67848">
        <ele>2464.8000488281</ele>
        <time>2022-08-20T09:23:34Z</time>
      </trkpt>
      <trkpt lat="44.10759" lon="6.67847">
        <ele>2465.3999023438</ele>
        <time>2022-08-20T09:23:41Z</time>
      </trkpt>
      <trkpt lat="44.10759" lon="6.67847">
        <ele>2465</ele>
        <time>2022-08-20T09:23:43Z</time>
      </trkpt>
      <trkpt lat="44.10758" lon="6.67844">
        <ele>2465.1999511719</ele>
        <time>2022-08-20T09:23:50Z</time>
      </trkpt>
      <trkpt lat="44.1076" lon="6.67845">
        <ele>2465.8000488281</ele>
        <time>2022-08-20T09:23:56Z</time>
      </trkpt>
      <trkpt lat="44.1076" lon="6.67845">
        <ele>2466</ele>
        <time>2022-08-20T09:23:57Z</time>
      </trkpt>
      <trkpt lat="44.1076" lon="6.67845">
        <ele>2466</ele>
        <time>2022-08-20T09:23:58Z</time>
      </trkpt>
      <trkpt lat="44.1076" lon="6.67845">
        <ele>2466.1999511719</ele>
        <time>2022-08-20T09:24:03Z</time>
      </trkpt>
      <trkpt lat="44.1076" lon="6.67845">
        <ele>2466.1999511719</ele>
        <time>2022-08-20T09:24:07Z</time>
      </trkpt>
      <trkpt lat="44.1076" lon="6.67845">
        <ele>2466.8000488281</ele>
        <time>2022-08-20T09:24:22Z</time>
      </trkpt>
      <trkpt lat="44.1076" lon="6.67845">
        <ele>2466.8000488281</ele>
        <time>2022-08-20T09:24:30Z</time>
      </trkpt>
      <trkpt lat="44.1076" lon="6.67846">
        <ele>2467</ele>
        <time>2022-08-20T09:24:32Z</time>
      </trkpt>
      <trkpt lat="44.1076" lon="6.67846">
        <ele>2467</ele>
        <time>2022-08-20T09:24:33Z</time>
      </trkpt>
      <trkpt lat="44.1076" lon="6.67845">
        <ele>2467.1999511719</ele>
        <time>2022-08-20T09:24:35Z</time>
      </trkpt>
      <trkpt lat="44.1076" lon="6.67845">
        <ele>2467.1999511719</ele>
        <time>2022-08-20T09:24:37Z</time>
      </trkpt>
      <trkpt lat="44.1076" lon="6.67845">
        <ele>2467.1999511719</ele>
        <time>2022-08-20T09:24:39Z</time>
      </trkpt>
      <trkpt lat="44.1076" lon="6.67845">
        <ele>2467.1999511719</ele>
        <time>2022-08-20T09:24:42Z</time>
      </trkpt>
      <trkpt lat="44.1076" lon="6.67846">
        <ele>2467.3999023438</ele>
        <time>2022-08-20T09:24:46Z</time>
      </trkpt>
      <trkpt lat="44.1076" lon="6.67847">
        <ele>2467.3999023438</ele>
        <time>2022-08-20T09:24:47Z</time>
      </trkpt>
      <trkpt lat="44.1076" lon="6.67847">
        <ele>2467.6000976562</ele>
        <time>2022-08-20T09:24:49Z</time>
      </trkpt>
      <trkpt lat="44.10761" lon="6.67847">
        <ele>2468</ele>
        <time>2022-08-20T09:24:54Z</time>
      </trkpt>
      <trkpt lat="44.1076" lon="6.67848">
        <ele>2468</ele>
        <time>2022-08-20T09:24:58Z</time>
      </trkpt>
      <trkpt lat="44.1076" lon="6.67847">
        <ele>2467.8000488281</ele>
        <time>2022-08-20T09:25:03Z</time>
      </trkpt>
      <trkpt lat="44.10761" lon="6.67847">
        <ele>2467.6000976562</ele>
        <time>2022-08-20T09:25:11Z</time>
      </trkpt>
      <trkpt lat="44.10761" lon="6.67847">
        <ele>2467.3999023438</ele>
        <time>2022-08-20T09:25:16Z</time>
      </trkpt>
      <trkpt lat="44.1076" lon="6.67847">
        <ele>2467.3999023438</ele>
        <time>2022-08-20T09:25:18Z</time>
      </trkpt>
      <trkpt lat="44.1076" lon="6.67847">
        <ele>2467.3999023438</ele>
        <time>2022-08-20T09:25:23Z</time>
      </trkpt>
      <trkpt lat="44.1076" lon="6.67847">
        <ele>2467.6000976562</ele>
        <time>2022-08-20T09:25:24Z</time>
      </trkpt>
      <trkpt lat="44.1076" lon="6.67847">
        <ele>2467.6000976562</ele>
        <time>2022-08-20T09:25:27Z</time>
      </trkpt>
      <trkpt lat="44.1076" lon="6.67847">
        <ele>2467.8000488281</ele>
        <time>2022-08-20T09:25:39Z</time>
      </trkpt>
      <trkpt lat="44.10761" lon="6.67847">
        <ele>2467.6000976562</ele>
        <time>2022-08-20T09:25:54Z</time>
      </trkpt>
      <trkpt lat="44.1076" lon="6.67847">
        <ele>2468</ele>
        <time>2022-08-20T09:26:06Z</time>
      </trkpt>
      <trkpt lat="44.1076" lon="6.67847">
        <ele>2468</ele>
        <time>2022-08-20T09:26:08Z</time>
      </trkpt>
      <trkpt lat="44.10759" lon="6.67847">
        <ele>2467.3999023438</ele>
        <time>2022-08-20T09:26:23Z</time>
      </trkpt>
      <trkpt lat="44.1076" lon="6.67847">
        <ele>2467.3999023438</ele>
        <time>2022-08-20T09:26:35Z</time>
      </trkpt>
      <trkpt lat="44.1076" lon="6.67846">
        <ele>2467.3999023438</ele>
        <time>2022-08-20T09:26:39Z</time>
      </trkpt>
      <trkpt lat="44.10761" lon="6.67846">
        <ele>2467.6000976562</ele>
        <time>2022-08-20T09:26:44Z</time>
      </trkpt>
      <trkpt lat="44.1076" lon="6.67846">
        <ele>2467.6000976562</ele>
        <time>2022-08-20T09:26:49Z</time>
      </trkpt>
      <trkpt lat="44.1076" lon="6.67846">
        <ele>2467.3999023438</ele>
        <time>2022-08-20T09:26:54Z</time>
      </trkpt>
      <trkpt lat="44.10761" lon="6.67846">
        <ele>2467</ele>
        <time>2022-08-20T09:26:59Z</time>
      </trkpt>
      <trkpt lat="44.10761" lon="6.67846">
        <ele>2466.8000488281</ele>
        <time>2022-08-20T09:27:04Z</time>
      </trkpt>
      <trkpt lat="44.10761" lon="6.67846">
        <ele>2466.8000488281</ele>
        <time>2022-08-20T09:27:06Z</time>
      </trkpt>
      <trkpt lat="44.10761" lon="6.67846">
        <ele>2466.8000488281</ele>
        <time>2022-08-20T09:27:09Z</time>
      </trkpt>
      <trkpt lat="44.10761" lon="6.67847">
        <ele>2467.1999511719</ele>
        <time>2022-08-20T09:27:15Z</time>
      </trkpt>
      <trkpt lat="44.10761" lon="6.67847">
        <ele>2467.3999023438</ele>
        <time>2022-08-20T09:27:23Z</time>
      </trkpt>
      <trkpt lat="44.10761" lon="6.67847">
        <ele>2467.3999023438</ele>
        <time>2022-08-20T09:27:35Z</time>
      </trkpt>
      <trkpt lat="44.10761" lon="6.67847">
        <ele>2467.1999511719</ele>
        <time>2022-08-20T09:27:47Z</time>
      </trkpt>
      <trkpt lat="44.10761" lon="6.67847">
        <ele>2467.1999511719</ele>
        <time>2022-08-20T09:28:00Z</time>
      </trkpt>
      <trkpt lat="44.10761" lon="6.67846">
        <ele>2467.1999511719</ele>
        <time>2022-08-20T09:28:27Z</time>
      </trkpt>
      <trkpt lat="44.10761" lon="6.67846">
        <ele>2467.1999511719</ele>
        <time>2022-08-20T09:28:30Z</time>
      </trkpt>
      <trkpt lat="44.10761" lon="6.67846">
        <ele>2467.3999023438</ele>
        <time>2022-08-20T09:28:48Z</time>
      </trkpt>
      <trkpt lat="44.10761" lon="6.67846">
        <ele>2467.1999511719</ele>
        <time>2022-08-20T09:29:10Z</time>
      </trkpt>
      <trkpt lat="44.10761" lon="6.67846">
        <ele>2466.3999023438</ele>
        <time>2022-08-20T09:29:19Z</time>
      </trkpt>
      <trkpt lat="44.10761" lon="6.67846">
        <ele>2466.3999023438</ele>
        <time>2022-08-20T09:29:23Z</time>
      </trkpt>
      <trkpt lat="44.10761" lon="6.67846">
        <ele>2466.3999023438</ele>
        <time>2022-08-20T09:29:26Z</time>
      </trkpt>
      <trkpt lat="44.10761" lon="6.67846">
        <ele>2466.3999023438</ele>
        <time>2022-08-20T09:29:29Z</time>
      </trkpt>
      <trkpt lat="44.10761" lon="6.67846">
        <ele>2466.3999023438</ele>
        <time>2022-08-20T09:29:41Z</time>
      </trkpt>
      <trkpt lat="44.10761" lon="6.67846">
        <ele>2466.3999023438</ele>
        <time>2022-08-20T09:29:46Z</time>
      </trkpt>
      <trkpt lat="44.10761" lon="6.67846">
        <ele>2466.3999023438</ele>
        <time>2022-08-20T09:30:00Z</time>
      </trkpt>
      <trkpt lat="44.10761" lon="6.67846">
        <ele>2466.3999023438</ele>
        <time>2022-08-20T09:30:02Z</time>
      </trkpt>
      <trkpt lat="44.10762" lon="6.67846">
        <ele>2466.3999023438</ele>
        <time>2022-08-20T09:30:10Z</time>
      </trkpt>
      <trkpt lat="44.10764" lon="6.67847">
        <ele>2466.3999023438</ele>
        <time>2022-08-20T09:30:13Z</time>
      </trkpt>
      <trkpt lat="44.10764" lon="6.67848">
        <ele>2466.3999023438</ele>
        <time>2022-08-20T09:30:15Z</time>
      </trkpt>
      <trkpt lat="44.10763" lon="6.67848">
        <ele>2466.3999023438</ele>
        <time>2022-08-20T09:30:18Z</time>
      </trkpt>
      <trkpt lat="44.10762" lon="6.67847">
        <ele>2466.3999023438</ele>
        <time>2022-08-20T09:30:27Z</time>
      </trkpt>
      <trkpt lat="44.10762" lon="6.67846">
        <ele>2466.3999023438</ele>
        <time>2022-08-20T09:30:35Z</time>
      </trkpt>
      <trkpt lat="44.10762" lon="6.67848">
        <ele>2466.3999023438</ele>
        <time>2022-08-20T09:30:40Z</time>
      </trkpt>
      <trkpt lat="44.10761" lon="6.67847">
        <ele>2466.3999023438</ele>
        <time>2022-08-20T09:30:45Z</time>
      </trkpt>
      <trkpt lat="44.10761" lon="6.67847">
        <ele>2466.3999023438</ele>
        <time>2022-08-20T09:30:54Z</time>
      </trkpt>
      <trkpt lat="44.10761" lon="6.67847">
        <ele>2466.3999023438</ele>
        <time>2022-08-20T09:31:00Z</time>
      </trkpt>
      <trkpt lat="44.10761" lon="6.67847">
        <ele>2466.3999023438</ele>
        <time>2022-08-20T09:31:04Z</time>
      </trkpt>
      <trkpt lat="44.10761" lon="6.67847">
        <ele>2466.3999023438</ele>
        <time>2022-08-20T09:31:07Z</time>
      </trkpt>
      <trkpt lat="44.10761" lon="6.67847">
        <ele>2466.3999023438</ele>
        <time>2022-08-20T09:31:08Z</time>
      </trkpt>
      <trkpt lat="44.10761" lon="6.67848">
        <ele>2466.3999023438</ele>
        <time>2022-08-20T09:31:12Z</time>
      </trkpt>
      <trkpt lat="44.10761" lon="6.67848">
        <ele>2466.3999023438</ele>
        <time>2022-08-20T09:31:15Z</time>
      </trkpt>
      <trkpt lat="44.10761" lon="6.67848">
        <ele>2466.3999023438</ele>
        <time>2022-08-20T09:31:21Z</time>
      </trkpt>
      <trkpt lat="44.10761" lon="6.67848">
        <ele>2466.3999023438</ele>
        <time>2022-08-20T09:31:35Z</time>
      </trkpt>
      <trkpt lat="44.10761" lon="6.67848">
        <ele>2466.3999023438</ele>
        <time>2022-08-20T09:31:46Z</time>
      </trkpt>
      <trkpt lat="44.10761" lon="6.67849">
        <ele>2466.3999023438</ele>
        <time>2022-08-20T09:31:49Z</time>
      </trkpt>
      <trkpt lat="44.10761" lon="6.67849">
        <ele>2466.3999023438</ele>
        <time>2022-08-20T09:32:05Z</time>
      </trkpt>
      <trkpt lat="44.10762" lon="6.67848">
        <ele>2466.3999023438</ele>
        <time>2022-08-20T09:32:21Z</time>
      </trkpt>
      <trkpt lat="44.10763" lon="6.67849">
        <ele>2466.3999023438</ele>
        <time>2022-08-20T09:32:31Z</time>
      </trkpt>
      <trkpt lat="44.10763" lon="6.67849">
        <ele>2466.3999023438</ele>
        <time>2022-08-20T09:32:33Z</time>
      </trkpt>
      <trkpt lat="44.10764" lon="6.67848">
        <ele>2466.3999023438</ele>
        <time>2022-08-20T09:32:35Z</time>
      </trkpt>
      <trkpt lat="44.10764" lon="6.67847">
        <ele>2466.3999023438</ele>
        <time>2022-08-20T09:32:36Z</time>
      </trkpt>
      <trkpt lat="44.10763" lon="6.67847">
        <ele>2466.3999023438</ele>
        <time>2022-08-20T09:32:47Z</time>
      </trkpt>
      <trkpt lat="44.10763" lon="6.67846">
        <ele>2466.3999023438</ele>
        <time>2022-08-20T09:32:55Z</time>
      </trkpt>
      <trkpt lat="44.10763" lon="6.67846">
        <ele>2466.3999023438</ele>
        <time>2022-08-20T09:33:00Z</time>
      </trkpt>
      <trkpt lat="44.10763" lon="6.67847">
        <ele>2466.3999023438</ele>
        <time>2022-08-20T09:33:09Z</time>
      </trkpt>
      <trkpt lat="44.10763" lon="6.67847">
        <ele>2466.3999023438</ele>
        <time>2022-08-20T09:33:11Z</time>
      </trkpt>
      <trkpt lat="44.10763" lon="6.67847">
        <ele>2466.3999023438</ele>
        <time>2022-08-20T09:33:15Z</time>
      </trkpt>
      <trkpt lat="44.10764" lon="6.67847">
        <ele>2466.3999023438</ele>
        <time>2022-08-20T09:33:24Z</time>
      </trkpt>
      <trkpt lat="44.10764" lon="6.67847">
        <ele>2466.3999023438</ele>
        <time>2022-08-20T09:33:34Z</time>
      </trkpt>
      <trkpt lat="44.10764" lon="6.67848">
        <ele>2466.3999023438</ele>
        <time>2022-08-20T09:33:39Z</time>
      </trkpt>
      <trkpt lat="44.10764" lon="6.67848">
        <ele>2466.3999023438</ele>
        <time>2022-08-20T09:33:50Z</time>
      </trkpt>
      <trkpt lat="44.10764" lon="6.67848">
        <ele>2466.3999023438</ele>
        <time>2022-08-20T09:33:51Z</time>
      </trkpt>
      <trkpt lat="44.10764" lon="6.67849">
        <ele>2466.3999023438</ele>
        <time>2022-08-20T09:34:01Z</time>
      </trkpt>
      <trkpt lat="44.10763" lon="6.67848">
        <ele>2466.3999023438</ele>
        <time>2022-08-20T09:34:07Z</time>
      </trkpt>
      <trkpt lat="44.10763" lon="6.67848">
        <ele>2466.3999023438</ele>
        <time>2022-08-20T09:34:17Z</time>
      </trkpt>
      <trkpt lat="44.10763" lon="6.67848">
        <ele>2466.3999023438</ele>
        <time>2022-08-20T09:34:18Z</time>
      </trkpt>
      <trkpt lat="44.10763" lon="6.67849">
        <ele>2466.3999023438</ele>
        <time>2022-08-20T09:34:26Z</time>
      </trkpt>
      <trkpt lat="44.10763" lon="6.67849">
        <ele>2466.3999023438</ele>
        <time>2022-08-20T09:34:30Z</time>
      </trkpt>
      <trkpt lat="44.10762" lon="6.67848">
        <ele>2466.3999023438</ele>
        <time>2022-08-20T09:34:41Z</time>
      </trkpt>
      <trkpt lat="44.10762" lon="6.67848">
        <ele>2466.3999023438</ele>
        <time>2022-08-20T09:34:53Z</time>
      </trkpt>
      <trkpt lat="44.10762" lon="6.67848">
        <ele>2466.3999023438</ele>
        <time>2022-08-20T09:35:07Z</time>
      </trkpt>
      <trkpt lat="44.10762" lon="6.67847">
        <ele>2466.3999023438</ele>
        <time>2022-08-20T09:35:18Z</time>
      </trkpt>
      <trkpt lat="44.10762" lon="6.67847">
        <ele>2466.3999023438</ele>
        <time>2022-08-20T09:35:20Z</time>
      </trkpt>
      <trkpt lat="44.10762" lon="6.67847">
        <ele>2466.3999023438</ele>
        <time>2022-08-20T09:35:30Z</time>
      </trkpt>
      <trkpt lat="44.10762" lon="6.67847">
        <ele>2466.3999023438</ele>
        <time>2022-08-20T09:35:44Z</time>
      </trkpt>
      <trkpt lat="44.10761" lon="6.67849">
        <ele>2466.3999023438</ele>
        <time>2022-08-20T09:35:57Z</time>
      </trkpt>
      <trkpt lat="44.10761" lon="6.67849">
        <ele>2466.3999023438</ele>
        <time>2022-08-20T09:36:00Z</time>
      </trkpt>
      <trkpt lat="44.10761" lon="6.67848">
        <ele>2466.3999023438</ele>
        <time>2022-08-20T09:36:05Z</time>
      </trkpt>
      <trkpt lat="44.10761" lon="6.67848">
        <ele>2466.3999023438</ele>
        <time>2022-08-20T09:36:08Z</time>
      </trkpt>
      <trkpt lat="44.10761" lon="6.67849">
        <ele>2466.3999023438</ele>
        <time>2022-08-20T09:36:12Z</time>
      </trkpt>
      <trkpt lat="44.10761" lon="6.67849">
        <ele>2466.3999023438</ele>
        <time>2022-08-20T09:36:14Z</time>
      </trkpt>
      <trkpt lat="44.10761" lon="6.67849">
        <ele>2466.3999023438</ele>
        <time>2022-08-20T09:36:22Z</time>
      </trkpt>
      <trkpt lat="44.10761" lon="6.67849">
        <ele>2466.3999023438</ele>
        <time>2022-08-20T09:36:34Z</time>
      </trkpt>
      <trkpt lat="44.10761" lon="6.67849">
        <ele>2466.3999023438</ele>
        <time>2022-08-20T09:36:36Z</time>
      </trkpt>
      <trkpt lat="44.10762" lon="6.67849">
        <ele>2466.3999023438</ele>
        <time>2022-08-20T09:36:51Z</time>
      </trkpt>
      <trkpt lat="44.10762" lon="6.67849">
        <ele>2466.3999023438</ele>
        <time>2022-08-20T09:36:55Z</time>
      </trkpt>
      <trkpt lat="44.10763" lon="6.67849">
        <ele>2466.3999023438</ele>
        <time>2022-08-20T09:37:07Z</time>
      </trkpt>
      <trkpt lat="44.10765" lon="6.67846">
        <ele>2466.3999023438</ele>
        <time>2022-08-20T09:37:18Z</time>
      </trkpt>
      <trkpt lat="44.10764" lon="6.67846">
        <ele>2466.3999023438</ele>
        <time>2022-08-20T09:37:20Z</time>
      </trkpt>
      <trkpt lat="44.10764" lon="6.67846">
        <ele>2466.3999023438</ele>
        <time>2022-08-20T09:37:23Z</time>
      </trkpt>
      <trkpt lat="44.10764" lon="6.67846">
        <ele>2466.3999023438</ele>
        <time>2022-08-20T09:37:28Z</time>
      </trkpt>
      <trkpt lat="44.10765" lon="6.67845">
        <ele>2466.3999023438</ele>
        <time>2022-08-20T09:37:31Z</time>
      </trkpt>
      <trkpt lat="44.10765" lon="6.67845">
        <ele>2466.3999023438</ele>
        <time>2022-08-20T09:37:33Z</time>
      </trkpt>
      <trkpt lat="44.10765" lon="6.67845">
        <ele>2466.3999023438</ele>
        <time>2022-08-20T09:37:35Z</time>
      </trkpt>
      <trkpt lat="44.10764" lon="6.67845">
        <ele>2466.3999023438</ele>
        <time>2022-08-20T09:37:42Z</time>
      </trkpt>
      <trkpt lat="44.10762" lon="6.67845">
        <ele>2466.3999023438</ele>
        <time>2022-08-20T09:37:46Z</time>
      </trkpt>
      <trkpt lat="44.10759" lon="6.67846">
        <ele>2466.3999023438</ele>
        <time>2022-08-20T09:37:54Z</time>
      </trkpt>
      <trkpt lat="44.10759" lon="6.67847">
        <ele>2466.3999023438</ele>
        <time>2022-08-20T09:37:58Z</time>
      </trkpt>
      <trkpt lat="44.10758" lon="6.67848">
        <ele>2466.3999023438</ele>
        <time>2022-08-20T09:38:05Z</time>
      </trkpt>
      <trkpt lat="44.10758" lon="6.67848">
        <ele>2466.3999023438</ele>
        <time>2022-08-20T09:38:19Z</time>
      </trkpt>
      <trkpt lat="44.10757" lon="6.6785">
        <ele>2466.3999023438</ele>
        <time>2022-08-20T09:38:32Z</time>
      </trkpt>
      <trkpt lat="44.10758" lon="6.67849">
        <ele>2466.3999023438</ele>
        <time>2022-08-20T09:38:41Z</time>
      </trkpt>
      <trkpt lat="44.10758" lon="6.67848">
        <ele>2466.3999023438</ele>
        <time>2022-08-20T09:38:53Z</time>
      </trkpt>
      <trkpt lat="44.10759" lon="6.67848">
        <ele>2466.3999023438</ele>
        <time>2022-08-20T09:38:55Z</time>
      </trkpt>
      <trkpt lat="44.10759" lon="6.67847">
        <ele>2466.3999023438</ele>
        <time>2022-08-20T09:39:07Z</time>
      </trkpt>
      <trkpt lat="44.10759" lon="6.67847">
        <ele>2466.3999023438</ele>
        <time>2022-08-20T09:39:09Z</time>
      </trkpt>
      <trkpt lat="44.10759" lon="6.67846">
        <ele>2466.3999023438</ele>
        <time>2022-08-20T09:39:19Z</time>
      </trkpt>
      <trkpt lat="44.10761" lon="6.67845">
        <ele>2466.3999023438</ele>
        <time>2022-08-20T09:39:30Z</time>
      </trkpt>
      <trkpt lat="44.10762" lon="6.67846">
        <ele>2466.3999023438</ele>
        <time>2022-08-20T09:39:36Z</time>
      </trkpt>
      <trkpt lat="44.10762" lon="6.67847">
        <ele>2466.3999023438</ele>
        <time>2022-08-20T09:39:43Z</time>
      </trkpt>
      <trkpt lat="44.10762" lon="6.67846">
        <ele>2466.3999023438</ele>
        <time>2022-08-20T09:39:53Z</time>
      </trkpt>
      <trkpt lat="44.1076" lon="6.67846">
        <ele>2466.3999023438</ele>
        <time>2022-08-20T09:40:08Z</time>
      </trkpt>
      <trkpt lat="44.10762" lon="6.67846">
        <ele>2466.3999023438</ele>
        <time>2022-08-20T09:40:16Z</time>
      </trkpt>
      <trkpt lat="44.10763" lon="6.6785">
        <ele>2466.3999023438</ele>
        <time>2022-08-20T09:40:27Z</time>
      </trkpt>
      <trkpt lat="44.10765" lon="6.67852">
        <ele>2466.3999023438</ele>
        <time>2022-08-20T09:40:42Z</time>
      </trkpt>
      <trkpt lat="44.10762" lon="6.6785">
        <ele>2466.3999023438</ele>
        <time>2022-08-20T09:40:53Z</time>
      </trkpt>
      <trkpt lat="44.10762" lon="6.6785">
        <ele>2466.3999023438</ele>
        <time>2022-08-20T09:40:57Z</time>
      </trkpt>
      <trkpt lat="44.10762" lon="6.6785">
        <ele>2466.3999023438</ele>
        <time>2022-08-20T09:41:01Z</time>
      </trkpt>
      <trkpt lat="44.10762" lon="6.67849">
        <ele>2466.3999023438</ele>
        <time>2022-08-20T09:41:04Z</time>
      </trkpt>
      <trkpt lat="44.10763" lon="6.67849">
        <ele>2466.3999023438</ele>
        <time>2022-08-20T09:41:17Z</time>
      </trkpt>
      <trkpt lat="44.10765" lon="6.67847">
        <ele>2466.3999023438</ele>
        <time>2022-08-20T09:41:30Z</time>
      </trkpt>
      <trkpt lat="44.10765" lon="6.67842">
        <ele>2466.3999023438</ele>
        <time>2022-08-20T09:41:42Z</time>
      </trkpt>
      <trkpt lat="44.10766" lon="6.6784">
        <ele>2466.3999023438</ele>
        <time>2022-08-20T09:41:50Z</time>
      </trkpt>
      <trkpt lat="44.10769" lon="6.67838">
        <ele>2466.3999023438</ele>
        <time>2022-08-20T09:41:56Z</time>
      </trkpt>
      <trkpt lat="44.10766" lon="6.67843">
        <ele>2466.3999023438</ele>
        <time>2022-08-20T09:42:11Z</time>
      </trkpt>
      <trkpt lat="44.10765" lon="6.67849">
        <ele>2466.3999023438</ele>
        <time>2022-08-20T09:42:23Z</time>
      </trkpt>
      <trkpt lat="44.10764" lon="6.67848">
        <ele>2466.3999023438</ele>
        <time>2022-08-20T09:42:32Z</time>
      </trkpt>
      <trkpt lat="44.10764" lon="6.67848">
        <ele>2466.3999023438</ele>
        <time>2022-08-20T09:42:35Z</time>
      </trkpt>
      <trkpt lat="44.10763" lon="6.67849">
        <ele>2466.3999023438</ele>
        <time>2022-08-20T09:42:44Z</time>
      </trkpt>
      <trkpt lat="44.10761" lon="6.6785">
        <ele>2466.3999023438</ele>
        <time>2022-08-20T09:42:56Z</time>
      </trkpt>
      <trkpt lat="44.10761" lon="6.6785">
        <ele>2466.3999023438</ele>
        <time>2022-08-20T09:43:04Z</time>
      </trkpt>
      <trkpt lat="44.10761" lon="6.6785">
        <ele>2466.3999023438</ele>
        <time>2022-08-20T09:43:06Z</time>
      </trkpt>
      <trkpt lat="44.10762" lon="6.6785">
        <ele>2466.3999023438</ele>
        <time>2022-08-20T09:43:14Z</time>
      </trkpt>
      <trkpt lat="44.10762" lon="6.67849">
        <ele>2466.3999023438</ele>
        <time>2022-08-20T09:43:19Z</time>
      </trkpt>
      <trkpt lat="44.10762" lon="6.67849">
        <ele>2466.3999023438</ele>
        <time>2022-08-20T09:43:24Z</time>
      </trkpt>
      <trkpt lat="44.10761" lon="6.67848">
        <ele>2466.3999023438</ele>
        <time>2022-08-20T09:43:29Z</time>
      </trkpt>
      <trkpt lat="44.10761" lon="6.67848">
        <ele>2466.3999023438</ele>
        <time>2022-08-20T09:43:31Z</time>
      </trkpt>
      <trkpt lat="44.1076" lon="6.67845">
        <ele>2466.3999023438</ele>
        <time>2022-08-20T09:43:41Z</time>
      </trkpt>
      <trkpt lat="44.1076" lon="6.67846">
        <ele>2466.3999023438</ele>
        <time>2022-08-20T09:43:48Z</time>
      </trkpt>
      <trkpt lat="44.10761" lon="6.67846">
        <ele>2466.3999023438</ele>
        <time>2022-08-20T09:43:51Z</time>
      </trkpt>
      <trkpt lat="44.10761" lon="6.67846">
        <ele>2466.3999023438</ele>
        <time>2022-08-20T09:43:59Z</time>
      </trkpt>
      <trkpt lat="44.10761" lon="6.67846">
        <ele>2466.3999023438</ele>
        <time>2022-08-20T09:44:01Z</time>
      </trkpt>
      <trkpt lat="44.10761" lon="6.67846">
        <ele>2466.3999023438</ele>
        <time>2022-08-20T09:44:03Z</time>
      </trkpt>
      <trkpt lat="44.10761" lon="6.67846">
        <ele>2466.3999023438</ele>
        <time>2022-08-20T09:44:04Z</time>
      </trkpt>
      <trkpt lat="44.10761" lon="6.67846">
        <ele>2466.3999023438</ele>
        <time>2022-08-20T09:44:05Z</time>
      </trkpt>
      <trkpt lat="44.10761" lon="6.67845">
        <ele>2466.3999023438</ele>
        <time>2022-08-20T09:44:07Z</time>
      </trkpt>
      <trkpt lat="44.10762" lon="6.67842">
        <ele>2466.3999023438</ele>
        <time>2022-08-20T09:44:11Z</time>
      </trkpt>
      <trkpt lat="44.10762" lon="6.67842">
        <ele>2466.3999023438</ele>
        <time>2022-08-20T09:44:12Z</time>
      </trkpt>
      <trkpt lat="44.10765" lon="6.67834">
        <ele>2466.3999023438</ele>
        <time>2022-08-20T09:44:19Z</time>
      </trkpt>
      <trkpt lat="44.10767" lon="6.67831">
        <ele>2466.3999023438</ele>
        <time>2022-08-20T09:44:21Z</time>
      </trkpt>
      <trkpt lat="44.10773" lon="6.67824">
        <ele>2466</ele>
        <time>2022-08-20T09:44:27Z</time>
      </trkpt>
      <trkpt lat="44.10777" lon="6.67818">
        <ele>2465</ele>
        <time>2022-08-20T09:44:32Z</time>
      </trkpt>
      <trkpt lat="44.10778" lon="6.67817">
        <ele>2464.8000488281</ele>
        <time>2022-08-20T09:44:33Z</time>
      </trkpt>
      <trkpt lat="44.10783" lon="6.67815">
        <ele>2464.3999023438</ele>
        <time>2022-08-20T09:44:36Z</time>
      </trkpt>
      <trkpt lat="44.10785" lon="6.67815">
        <ele>2464.1999511719</ele>
        <time>2022-08-20T09:44:37Z</time>
      </trkpt>
      <trkpt lat="44.10788" lon="6.67816">
        <ele>2464</ele>
        <time>2022-08-20T09:44:39Z</time>
      </trkpt>
      <trkpt lat="44.10792" lon="6.67815">
        <ele>2464</ele>
        <time>2022-08-20T09:44:41Z</time>
      </trkpt>
      <trkpt lat="44.10793" lon="6.67814">
        <ele>2463.8000488281</ele>
        <time>2022-08-20T09:44:42Z</time>
      </trkpt>
      <trkpt lat="44.10793" lon="6.67814">
        <ele>2463.8000488281</ele>
        <time>2022-08-20T09:44:43Z</time>
      </trkpt>
      <trkpt lat="44.10793" lon="6.67814">
        <ele>2463.8000488281</ele>
        <time>2022-08-20T09:44:45Z</time>
      </trkpt>
      <trkpt lat="44.10792" lon="6.67814">
        <ele>2463.8000488281</ele>
        <time>2022-08-20T09:44:48Z</time>
      </trkpt>
      <trkpt lat="44.10792" lon="6.67814">
        <ele>2463.6000976562</ele>
        <time>2022-08-20T09:44:51Z</time>
      </trkpt>
      <trkpt lat="44.10792" lon="6.67815">
        <ele>2463.6000976562</ele>
        <time>2022-08-20T09:44:53Z</time>
      </trkpt>
      <trkpt lat="44.10792" lon="6.67815">
        <ele>2463.6000976562</ele>
        <time>2022-08-20T09:44:56Z</time>
      </trkpt>
      <trkpt lat="44.10792" lon="6.67814">
        <ele>2463.6000976562</ele>
        <time>2022-08-20T09:44:57Z</time>
      </trkpt>
      <trkpt lat="44.10792" lon="6.67815">
        <ele>2463.8000488281</ele>
        <time>2022-08-20T09:44:58Z</time>
      </trkpt>
      <trkpt lat="44.10792" lon="6.67815">
        <ele>2463.8000488281</ele>
        <time>2022-08-20T09:44:59Z</time>
      </trkpt>
      <trkpt lat="44.10792" lon="6.67815">
        <ele>2463.8000488281</ele>
        <time>2022-08-20T09:45:00Z</time>
      </trkpt>
      <trkpt lat="44.10792" lon="6.67815">
        <ele>2463.8000488281</ele>
        <time>2022-08-20T09:45:02Z</time>
      </trkpt>
      <trkpt lat="44.10797" lon="6.67812">
        <ele>2463.3999023438</ele>
        <time>2022-08-20T09:45:16Z</time>
      </trkpt>
      <trkpt lat="44.108" lon="6.6781">
        <ele>2463</ele>
        <time>2022-08-20T09:45:22Z</time>
      </trkpt>
      <trkpt lat="44.10802" lon="6.6781">
        <ele>2462.8000488281</ele>
        <time>2022-08-20T09:45:25Z</time>
      </trkpt>
      <trkpt lat="44.10802" lon="6.67809">
        <ele>2462.6000976562</ele>
        <time>2022-08-20T09:45:26Z</time>
      </trkpt>
      <trkpt lat="44.10802" lon="6.67809">
        <ele>2462.3999023438</ele>
        <time>2022-08-20T09:45:27Z</time>
      </trkpt>
      <trkpt lat="44.10803" lon="6.67809">
        <ele>2462.1999511719</ele>
        <time>2022-08-20T09:45:28Z</time>
      </trkpt>
      <trkpt lat="44.10804" lon="6.67807">
        <ele>2461.6000976562</ele>
        <time>2022-08-20T09:45:31Z</time>
      </trkpt>
      <trkpt lat="44.10807" lon="6.67802">
        <ele>2460.6000976562</ele>
        <time>2022-08-20T09:45:37Z</time>
      </trkpt>
      <trkpt lat="44.1081" lon="6.678">
        <ele>2460.8000488281</ele>
        <time>2022-08-20T09:45:42Z</time>
      </trkpt>
      <trkpt lat="44.1081" lon="6.67799">
        <ele>2461</ele>
        <time>2022-08-20T09:45:45Z</time>
      </trkpt>
      <trkpt lat="44.1081" lon="6.67799">
        <ele>2461</ele>
        <time>2022-08-20T09:45:46Z</time>
      </trkpt>
      <trkpt lat="44.10809" lon="6.67798">
        <ele>2461</ele>
        <time>2022-08-20T09:45:47Z</time>
      </trkpt>
      <trkpt lat="44.10808" lon="6.67796">
        <ele>2461</ele>
        <time>2022-08-20T09:45:49Z</time>
      </trkpt>
      <trkpt lat="44.10809" lon="6.67795">
        <ele>2460.8000488281</ele>
        <time>2022-08-20T09:45:52Z</time>
      </trkpt>
      <trkpt lat="44.10808" lon="6.67794">
        <ele>2460.3999023438</ele>
        <time>2022-08-20T09:45:57Z</time>
      </trkpt>
      <trkpt lat="44.10808" lon="6.67794">
        <ele>2460.3999023438</ele>
        <time>2022-08-20T09:45:58Z</time>
      </trkpt>
      <trkpt lat="44.10808" lon="6.67794">
        <ele>2460.3999023438</ele>
        <time>2022-08-20T09:45:59Z</time>
      </trkpt>
      <trkpt lat="44.10808" lon="6.67794">
        <ele>2460.3999023438</ele>
        <time>2022-08-20T09:46:07Z</time>
      </trkpt>
      <trkpt lat="44.10815" lon="6.67787">
        <ele>2460.3999023438</ele>
        <time>2022-08-20T09:46:14Z</time>
      </trkpt>
      <trkpt lat="44.10817" lon="6.67785">
        <ele>2460</ele>
        <time>2022-08-20T09:46:16Z</time>
      </trkpt>
      <trkpt lat="44.10821" lon="6.67781">
        <ele>2459.3999023438</ele>
        <time>2022-08-20T09:46:19Z</time>
      </trkpt>
      <trkpt lat="44.10826" lon="6.67775">
        <ele>2458.8000488281</ele>
        <time>2022-08-20T09:46:23Z</time>
      </trkpt>
      <trkpt lat="44.10829" lon="6.67769">
        <ele>2458.1999511719</ele>
        <time>2022-08-20T09:46:27Z</time>
      </trkpt>
      <trkpt lat="44.10832" lon="6.67766">
        <ele>2458</ele>
        <time>2022-08-20T09:46:29Z</time>
      </trkpt>
      <trkpt lat="44.10833" lon="6.67765">
        <ele>2458</ele>
        <time>2022-08-20T09:46:30Z</time>
      </trkpt>
      <trkpt lat="44.10837" lon="6.67762">
        <ele>2457.3999023438</ele>
        <time>2022-08-20T09:46:33Z</time>
      </trkpt>
      <trkpt lat="44.10837" lon="6.67761">
        <ele>2457.1999511719</ele>
        <time>2022-08-20T09:46:34Z</time>
      </trkpt>
      <trkpt lat="44.10837" lon="6.6776">
        <ele>2457</ele>
        <time>2022-08-20T09:46:35Z</time>
      </trkpt>
      <trkpt lat="44.10839" lon="6.6776">
        <ele>2456.6000976562</ele>
        <time>2022-08-20T09:46:38Z</time>
      </trkpt>
      <trkpt lat="44.10843" lon="6.67757">
        <ele>2456.1999511719</ele>
        <time>2022-08-20T09:46:42Z</time>
      </trkpt>
      <trkpt lat="44.10843" lon="6.67757">
        <ele>2455.6000976562</ele>
        <time>2022-08-20T09:46:44Z</time>
      </trkpt>
      <trkpt lat="44.10843" lon="6.67757">
        <ele>2455</ele>
        <time>2022-08-20T09:46:47Z</time>
      </trkpt>
      <trkpt lat="44.10844" lon="6.67757">
        <ele>2455</ele>
        <time>2022-08-20T09:46:48Z</time>
      </trkpt>
      <trkpt lat="44.10848" lon="6.67751">
        <ele>2454</ele>
        <time>2022-08-20T09:46:57Z</time>
      </trkpt>
      <trkpt lat="44.10849" lon="6.67748">
        <ele>2453.6000976562</ele>
        <time>2022-08-20T09:47:01Z</time>
      </trkpt>
      <trkpt lat="44.1085" lon="6.67744">
        <ele>2453</ele>
        <time>2022-08-20T09:47:06Z</time>
      </trkpt>
      <trkpt lat="44.10848" lon="6.67739">
        <ele>2451.8000488281</ele>
        <time>2022-08-20T09:47:12Z</time>
      </trkpt>
      <trkpt lat="44.10849" lon="6.67738">
        <ele>2451.6000976562</ele>
        <time>2022-08-20T09:47:18Z</time>
      </trkpt>
      <trkpt lat="44.10848" lon="6.67729">
        <ele>2450.6000976562</ele>
        <time>2022-08-20T09:47:25Z</time>
      </trkpt>
      <trkpt lat="44.10848" lon="6.67727">
        <ele>2450.1999511719</ele>
        <time>2022-08-20T09:47:28Z</time>
      </trkpt>
      <trkpt lat="44.10848" lon="6.67727">
        <ele>2450</ele>
        <time>2022-08-20T09:47:29Z</time>
      </trkpt>
      <trkpt lat="44.10848" lon="6.67727">
        <ele>2449.8000488281</ele>
        <time>2022-08-20T09:47:33Z</time>
      </trkpt>
      <trkpt lat="44.10848" lon="6.67726">
        <ele>2449.6000976562</ele>
        <time>2022-08-20T09:47:38Z</time>
      </trkpt>
      <trkpt lat="44.10848" lon="6.67725">
        <ele>2449.6000976562</ele>
        <time>2022-08-20T09:47:39Z</time>
      </trkpt>
      <trkpt lat="44.10849" lon="6.67725">
        <ele>2449.6000976562</ele>
        <time>2022-08-20T09:47:41Z</time>
      </trkpt>
      <trkpt lat="44.10849" lon="6.67724">
        <ele>2449.6000976562</ele>
        <time>2022-08-20T09:47:42Z</time>
      </trkpt>
      <trkpt lat="44.1085" lon="6.67711">
        <ele>2448.6000976562</ele>
        <time>2022-08-20T09:47:51Z</time>
      </trkpt>
      <trkpt lat="44.1085" lon="6.6771">
        <ele>2448.3999023438</ele>
        <time>2022-08-20T09:47:52Z</time>
      </trkpt>
      <trkpt lat="44.10848" lon="6.67704">
        <ele>2447.3999023438</ele>
        <time>2022-08-20T09:47:57Z</time>
      </trkpt>
      <trkpt lat="44.10848" lon="6.67701">
        <ele>2447</ele>
        <time>2022-08-20T09:47:59Z</time>
      </trkpt>
      <trkpt lat="44.10848" lon="6.67697">
        <ele>2446.6000976562</ele>
        <time>2022-08-20T09:48:01Z</time>
      </trkpt>
      <trkpt lat="44.10848" lon="6.67696">
        <ele>2446.1999511719</ele>
        <time>2022-08-20T09:48:02Z</time>
      </trkpt>
      <trkpt lat="44.10849" lon="6.67693">
        <ele>2446</ele>
        <time>2022-08-20T09:48:04Z</time>
      </trkpt>
      <trkpt lat="44.1085" lon="6.67689">
        <ele>2445.8000488281</ele>
        <time>2022-08-20T09:48:06Z</time>
      </trkpt>
      <trkpt lat="44.10851" lon="6.6768">
        <ele>2445.1999511719</ele>
        <time>2022-08-20T09:48:10Z</time>
      </trkpt>
      <trkpt lat="44.10851" lon="6.67678">
        <ele>2444.8000488281</ele>
        <time>2022-08-20T09:48:11Z</time>
      </trkpt>
      <trkpt lat="44.10852" lon="6.67673">
        <ele>2444</ele>
        <time>2022-08-20T09:48:14Z</time>
      </trkpt>
      <trkpt lat="44.10852" lon="6.67672">
        <ele>2443.6000976562</ele>
        <time>2022-08-20T09:48:15Z</time>
      </trkpt>
      <trkpt lat="44.1085" lon="6.6767">
        <ele>2442.8000488281</ele>
        <time>2022-08-20T09:48:18Z</time>
      </trkpt>
      <trkpt lat="44.10849" lon="6.67666">
        <ele>2442.1999511719</ele>
        <time>2022-08-20T09:48:21Z</time>
      </trkpt>
      <trkpt lat="44.10848" lon="6.67662">
        <ele>2441.8000488281</ele>
        <time>2022-08-20T09:48:23Z</time>
      </trkpt>
      <trkpt lat="44.10848" lon="6.67659">
        <ele>2440.8000488281</ele>
        <time>2022-08-20T09:48:28Z</time>
      </trkpt>
      <trkpt lat="44.10849" lon="6.67653">
        <ele>2440.3999023438</ele>
        <time>2022-08-20T09:48:33Z</time>
      </trkpt>
      <trkpt lat="44.10847" lon="6.67645">
        <ele>2439.6000976562</ele>
        <time>2022-08-20T09:48:38Z</time>
      </trkpt>
      <trkpt lat="44.10847" lon="6.67639">
        <ele>2438.1999511719</ele>
        <time>2022-08-20T09:48:41Z</time>
      </trkpt>
      <trkpt lat="44.10847" lon="6.67637">
        <ele>2437.8000488281</ele>
        <time>2022-08-20T09:48:43Z</time>
      </trkpt>
      <trkpt lat="44.10847" lon="6.67637">
        <ele>2437.6000976562</ele>
        <time>2022-08-20T09:48:44Z</time>
      </trkpt>
      <trkpt lat="44.10847" lon="6.67636">
        <ele>2437.1999511719</ele>
        <time>2022-08-20T09:48:46Z</time>
      </trkpt>
      <trkpt lat="44.10846" lon="6.67633">
        <ele>2436.8000488281</ele>
        <time>2022-08-20T09:48:50Z</time>
      </trkpt>
      <trkpt lat="44.10843" lon="6.67624">
        <ele>2436.1999511719</ele>
        <time>2022-08-20T09:48:58Z</time>
      </trkpt>
      <trkpt lat="44.10843" lon="6.6762">
        <ele>2435.8000488281</ele>
        <time>2022-08-20T09:49:02Z</time>
      </trkpt>
      <trkpt lat="44.10843" lon="6.67619">
        <ele>2435.8000488281</ele>
        <time>2022-08-20T09:49:03Z</time>
      </trkpt>
      <trkpt lat="44.10841" lon="6.67614">
        <ele>2435</ele>
        <time>2022-08-20T09:49:07Z</time>
      </trkpt>
      <trkpt lat="44.10842" lon="6.67609">
        <ele>2434.1999511719</ele>
        <time>2022-08-20T09:49:12Z</time>
      </trkpt>
      <trkpt lat="44.10843" lon="6.67608">
        <ele>2434</ele>
        <time>2022-08-20T09:49:13Z</time>
      </trkpt>
      <trkpt lat="44.10843" lon="6.67601">
        <ele>2433</ele>
        <time>2022-08-20T09:49:22Z</time>
      </trkpt>
      <trkpt lat="44.10844" lon="6.67599">
        <ele>2432.8000488281</ele>
        <time>2022-08-20T09:49:24Z</time>
      </trkpt>
      <trkpt lat="44.10844" lon="6.67591">
        <ele>2432.1999511719</ele>
        <time>2022-08-20T09:49:34Z</time>
      </trkpt>
      <trkpt lat="44.10844" lon="6.6759">
        <ele>2432.1999511719</ele>
        <time>2022-08-20T09:49:36Z</time>
      </trkpt>
      <trkpt lat="44.10844" lon="6.67589">
        <ele>2432</ele>
        <time>2022-08-20T09:49:39Z</time>
      </trkpt>
      <trkpt lat="44.10844" lon="6.67589">
        <ele>2431.8000488281</ele>
        <time>2022-08-20T09:49:42Z</time>
      </trkpt>
      <trkpt lat="44.10844" lon="6.67589">
        <ele>2431.6000976562</ele>
        <time>2022-08-20T09:49:44Z</time>
      </trkpt>
      <trkpt lat="44.10843" lon="6.67584">
        <ele>2431.6000976562</ele>
        <time>2022-08-20T09:49:49Z</time>
      </trkpt>
      <trkpt lat="44.10842" lon="6.67579">
        <ele>2431</ele>
        <time>2022-08-20T09:49:52Z</time>
      </trkpt>
      <trkpt lat="44.10842" lon="6.67575">
        <ele>2430.3999023438</ele>
        <time>2022-08-20T09:49:54Z</time>
      </trkpt>
      <trkpt lat="44.10841" lon="6.67571">
        <ele>2430</ele>
        <time>2022-08-20T09:49:56Z</time>
      </trkpt>
      <trkpt lat="44.1084" lon="6.67569">
        <ele>2429.8000488281</ele>
        <time>2022-08-20T09:49:57Z</time>
      </trkpt>
      <trkpt lat="44.1084" lon="6.67566">
        <ele>2429.6000976562</ele>
        <time>2022-08-20T09:50:00Z</time>
      </trkpt>
      <trkpt lat="44.10841" lon="6.67561">
        <ele>2428.8000488281</ele>
        <time>2022-08-20T09:50:07Z</time>
      </trkpt>
      <trkpt lat="44.10841" lon="6.67561">
        <ele>2428.8000488281</ele>
        <time>2022-08-20T09:50:08Z</time>
      </trkpt>
      <trkpt lat="44.10841" lon="6.67561">
        <ele>2428.8000488281</ele>
        <time>2022-08-20T09:50:10Z</time>
      </trkpt>
      <trkpt lat="44.10841" lon="6.67561">
        <ele>2428.6000976562</ele>
        <time>2022-08-20T09:50:11Z</time>
      </trkpt>
      <trkpt lat="44.1084" lon="6.67557">
        <ele>2427.8000488281</ele>
        <time>2022-08-20T09:50:19Z</time>
      </trkpt>
      <trkpt lat="44.10839" lon="6.67555">
        <ele>2427.1999511719</ele>
        <time>2022-08-20T09:50:24Z</time>
      </trkpt>
      <trkpt lat="44.10839" lon="6.67544">
        <ele>2426.6000976562</ele>
        <time>2022-08-20T09:50:30Z</time>
      </trkpt>
      <trkpt lat="44.1084" lon="6.6754">
        <ele>2426.1999511719</ele>
        <time>2022-08-20T09:50:32Z</time>
      </trkpt>
      <trkpt lat="44.1084" lon="6.67535">
        <ele>2425.3999023438</ele>
        <time>2022-08-20T09:50:35Z</time>
      </trkpt>
      <trkpt lat="44.10836" lon="6.67523">
        <ele>2424.3999023438</ele>
        <time>2022-08-20T09:50:40Z</time>
      </trkpt>
      <trkpt lat="44.10835" lon="6.67516">
        <ele>2423.1999511719</ele>
        <time>2022-08-20T09:50:43Z</time>
      </trkpt>
      <trkpt lat="44.10835" lon="6.67509">
        <ele>2422</ele>
        <time>2022-08-20T09:50:47Z</time>
      </trkpt>
      <trkpt lat="44.10833" lon="6.67504">
        <ele>2421</ele>
        <time>2022-08-20T09:50:51Z</time>
      </trkpt>
      <trkpt lat="44.10831" lon="6.67499">
        <ele>2420</ele>
        <time>2022-08-20T09:50:54Z</time>
      </trkpt>
      <trkpt lat="44.10828" lon="6.67492">
        <ele>2418.8000488281</ele>
        <time>2022-08-20T09:50:58Z</time>
      </trkpt>
      <trkpt lat="44.10826" lon="6.67482">
        <ele>2417.8000488281</ele>
        <time>2022-08-20T09:51:02Z</time>
      </trkpt>
      <trkpt lat="44.10825" lon="6.6748">
        <ele>2417.3999023438</ele>
        <time>2022-08-20T09:51:03Z</time>
      </trkpt>
      <trkpt lat="44.10825" lon="6.67474">
        <ele>2416.6000976562</ele>
        <time>2022-08-20T09:51:06Z</time>
      </trkpt>
      <trkpt lat="44.10823" lon="6.6747">
        <ele>2416</ele>
        <time>2022-08-20T09:51:09Z</time>
      </trkpt>
      <trkpt lat="44.10823" lon="6.67471">
        <ele>2415.3999023438</ele>
        <time>2022-08-20T09:51:11Z</time>
      </trkpt>
      <trkpt lat="44.10822" lon="6.6747">
        <ele>2415.1999511719</ele>
        <time>2022-08-20T09:51:13Z</time>
      </trkpt>
      <trkpt lat="44.10822" lon="6.67469">
        <ele>2415</ele>
        <time>2022-08-20T09:51:16Z</time>
      </trkpt>
      <trkpt lat="44.1082" lon="6.67462">
        <ele>2414.3999023438</ele>
        <time>2022-08-20T09:51:21Z</time>
      </trkpt>
      <trkpt lat="44.10819" lon="6.67456">
        <ele>2414</ele>
        <time>2022-08-20T09:51:24Z</time>
      </trkpt>
      <trkpt lat="44.10818" lon="6.67453">
        <ele>2413.6000976562</ele>
        <time>2022-08-20T09:51:26Z</time>
      </trkpt>
      <trkpt lat="44.10817" lon="6.67453">
        <ele>2413.3999023438</ele>
        <time>2022-08-20T09:51:27Z</time>
      </trkpt>
      <trkpt lat="44.10816" lon="6.67452">
        <ele>2413.1999511719</ele>
        <time>2022-08-20T09:51:28Z</time>
      </trkpt>
      <trkpt lat="44.10816" lon="6.67449">
        <ele>2412.6000976562</ele>
        <time>2022-08-20T09:51:30Z</time>
      </trkpt>
      <trkpt lat="44.10815" lon="6.67448">
        <ele>2412.3999023438</ele>
        <time>2022-08-20T09:51:31Z</time>
      </trkpt>
      <trkpt lat="44.10815" lon="6.67448">
        <ele>2412</ele>
        <time>2022-08-20T09:51:32Z</time>
      </trkpt>
      <trkpt lat="44.10814" lon="6.67445">
        <ele>2411.1999511719</ele>
        <time>2022-08-20T09:51:35Z</time>
      </trkpt>
      <trkpt lat="44.1081" lon="6.67432">
        <ele>2409.8000488281</ele>
        <time>2022-08-20T09:51:40Z</time>
      </trkpt>
      <trkpt lat="44.10809" lon="6.67428">
        <ele>2409.1999511719</ele>
        <time>2022-08-20T09:51:43Z</time>
      </trkpt>
      <trkpt lat="44.10809" lon="6.67428">
        <ele>2409</ele>
        <time>2022-08-20T09:51:45Z</time>
      </trkpt>
      <trkpt lat="44.10808" lon="6.67429">
        <ele>2408.8000488281</ele>
        <time>2022-08-20T09:51:47Z</time>
      </trkpt>
      <trkpt lat="44.10809" lon="6.67429">
        <ele>2408.8000488281</ele>
        <time>2022-08-20T09:51:51Z</time>
      </trkpt>
      <trkpt lat="44.10809" lon="6.67429">
        <ele>2408.6000976562</ele>
        <time>2022-08-20T09:51:59Z</time>
      </trkpt>
      <trkpt lat="44.10806" lon="6.67426">
        <ele>2408</ele>
        <time>2022-08-20T09:52:04Z</time>
      </trkpt>
      <trkpt lat="44.10805" lon="6.67425">
        <ele>2407.8000488281</ele>
        <time>2022-08-20T09:52:05Z</time>
      </trkpt>
      <trkpt lat="44.10804" lon="6.67423">
        <ele>2407.1999511719</ele>
        <time>2022-08-20T09:52:07Z</time>
      </trkpt>
      <trkpt lat="44.10805" lon="6.67416">
        <ele>2406.8000488281</ele>
        <time>2022-08-20T09:52:14Z</time>
      </trkpt>
      <trkpt lat="44.10803" lon="6.67412">
        <ele>2406.8000488281</ele>
        <time>2022-08-20T09:52:19Z</time>
      </trkpt>
      <trkpt lat="44.10802" lon="6.6741">
        <ele>2406.6000976562</ele>
        <time>2022-08-20T09:52:20Z</time>
      </trkpt>
      <trkpt lat="44.108" lon="6.67406">
        <ele>2406.1999511719</ele>
        <time>2022-08-20T09:52:22Z</time>
      </trkpt>
      <trkpt lat="44.10797" lon="6.67401">
        <ele>2405.6000976562</ele>
        <time>2022-08-20T09:52:25Z</time>
      </trkpt>
      <trkpt lat="44.10795" lon="6.67394">
        <ele>2404.6000976562</ele>
        <time>2022-08-20T09:52:28Z</time>
      </trkpt>
      <trkpt lat="44.10794" lon="6.67392">
        <ele>2404.3999023438</ele>
        <time>2022-08-20T09:52:29Z</time>
      </trkpt>
      <trkpt lat="44.10794" lon="6.6739">
        <ele>2404</ele>
        <time>2022-08-20T09:52:30Z</time>
      </trkpt>
      <trkpt lat="44.10791" lon="6.67387">
        <ele>2403.3999023438</ele>
        <time>2022-08-20T09:52:32Z</time>
      </trkpt>
      <trkpt lat="44.1079" lon="6.67385">
        <ele>2403</ele>
        <time>2022-08-20T09:52:33Z</time>
      </trkpt>
      <trkpt lat="44.10788" lon="6.67379">
        <ele>2401.8000488281</ele>
        <time>2022-08-20T09:52:36Z</time>
      </trkpt>
      <trkpt lat="44.10786" lon="6.67368">
        <ele>2400.6000976562</ele>
        <time>2022-08-20T09:52:40Z</time>
      </trkpt>
      <trkpt lat="44.10785" lon="6.67365">
        <ele>2400.1999511719</ele>
        <time>2022-08-20T09:52:42Z</time>
      </trkpt>
      <trkpt lat="44.10782" lon="6.67362">
        <ele>2399.6000976562</ele>
        <time>2022-08-20T09:52:45Z</time>
      </trkpt>
      <trkpt lat="44.10781" lon="6.67361">
        <ele>2399.1999511719</ele>
        <time>2022-08-20T09:52:46Z</time>
      </trkpt>
      <trkpt lat="44.10779" lon="6.67358">
        <ele>2398.8000488281</ele>
        <time>2022-08-20T09:52:48Z</time>
      </trkpt>
      <trkpt lat="44.10778" lon="6.67357">
        <ele>2398.3999023438</ele>
        <time>2022-08-20T09:52:49Z</time>
      </trkpt>
      <trkpt lat="44.10777" lon="6.67355">
        <ele>2398</ele>
        <time>2022-08-20T09:52:50Z</time>
      </trkpt>
      <trkpt lat="44.10775" lon="6.6735">
        <ele>2397.1999511719</ele>
        <time>2022-08-20T09:52:53Z</time>
      </trkpt>
      <trkpt lat="44.10773" lon="6.67342">
        <ele>2395.8000488281</ele>
        <time>2022-08-20T09:52:57Z</time>
      </trkpt>
      <trkpt lat="44.1077" lon="6.67334">
        <ele>2394.6000976562</ele>
        <time>2022-08-20T09:53:00Z</time>
      </trkpt>
      <trkpt lat="44.10769" lon="6.6733">
        <ele>2394</ele>
        <time>2022-08-20T09:53:02Z</time>
      </trkpt>
      <trkpt lat="44.10768" lon="6.67324">
        <ele>2393.6000976562</ele>
        <time>2022-08-20T09:53:04Z</time>
      </trkpt>
      <trkpt lat="44.10768" lon="6.67323">
        <ele>2393.3999023438</ele>
        <time>2022-08-20T09:53:05Z</time>
      </trkpt>
      <trkpt lat="44.10767" lon="6.67321">
        <ele>2392.3999023438</ele>
        <time>2022-08-20T09:53:09Z</time>
      </trkpt>
      <trkpt lat="44.10766" lon="6.67321">
        <ele>2392.1999511719</ele>
        <time>2022-08-20T09:53:10Z</time>
      </trkpt>
      <trkpt lat="44.10763" lon="6.67321">
        <ele>2391.8000488281</ele>
        <time>2022-08-20T09:53:14Z</time>
      </trkpt>
      <trkpt lat="44.10764" lon="6.67322">
        <ele>2391.3999023438</ele>
        <time>2022-08-20T09:53:20Z</time>
      </trkpt>
      <trkpt lat="44.10764" lon="6.67323">
        <ele>2391.3999023438</ele>
        <time>2022-08-20T09:53:26Z</time>
      </trkpt>
      <trkpt lat="44.10764" lon="6.67323">
        <ele>2391.3999023438</ele>
        <time>2022-08-20T09:53:28Z</time>
      </trkpt>
      <trkpt lat="44.10764" lon="6.67323">
        <ele>2391.3999023438</ele>
        <time>2022-08-20T09:53:30Z</time>
      </trkpt>
      <trkpt lat="44.10764" lon="6.67323">
        <ele>2391.3999023438</ele>
        <time>2022-08-20T09:53:32Z</time>
      </trkpt>
      <trkpt lat="44.10764" lon="6.67322">
        <ele>2391.3999023438</ele>
        <time>2022-08-20T09:53:35Z</time>
      </trkpt>
      <trkpt lat="44.10764" lon="6.67322">
        <ele>2391.3999023438</ele>
        <time>2022-08-20T09:53:37Z</time>
      </trkpt>
      <trkpt lat="44.10764" lon="6.67322">
        <ele>2391.3999023438</ele>
        <time>2022-08-20T09:53:38Z</time>
      </trkpt>
      <trkpt lat="44.10764" lon="6.67322">
        <ele>2391.3999023438</ele>
        <time>2022-08-20T09:53:41Z</time>
      </trkpt>
      <trkpt lat="44.10763" lon="6.67322">
        <ele>2391.1999511719</ele>
        <time>2022-08-20T09:53:46Z</time>
      </trkpt>
      <trkpt lat="44.10763" lon="6.6732">
        <ele>2391</ele>
        <time>2022-08-20T09:54:01Z</time>
      </trkpt>
      <trkpt lat="44.10764" lon="6.67319">
        <ele>2390.8000488281</ele>
        <time>2022-08-20T09:54:09Z</time>
      </trkpt>
      <trkpt lat="44.10764" lon="6.67319">
        <ele>2390.8000488281</ele>
        <time>2022-08-20T09:54:12Z</time>
      </trkpt>
      <trkpt lat="44.10765" lon="6.67318">
        <ele>2390.8000488281</ele>
        <time>2022-08-20T09:54:13Z</time>
      </trkpt>
      <trkpt lat="44.10765" lon="6.67318">
        <ele>2390.3999023438</ele>
        <time>2022-08-20T09:54:16Z</time>
      </trkpt>
      <trkpt lat="44.10765" lon="6.67318">
        <ele>2390.1999511719</ele>
        <time>2022-08-20T09:54:18Z</time>
      </trkpt>
      <trkpt lat="44.10765" lon="6.67318">
        <ele>2390.6000976562</ele>
        <time>2022-08-20T09:54:22Z</time>
      </trkpt>
      <trkpt lat="44.10765" lon="6.67318">
        <ele>2390.6000976562</ele>
        <time>2022-08-20T09:54:31Z</time>
      </trkpt>
      <trkpt lat="44.10765" lon="6.67319">
        <ele>2390.6000976562</ele>
        <time>2022-08-20T09:54:32Z</time>
      </trkpt>
      <trkpt lat="44.10765" lon="6.67319">
        <ele>2390.8000488281</ele>
        <time>2022-08-20T09:54:36Z</time>
      </trkpt>
      <trkpt lat="44.10765" lon="6.67318">
        <ele>2391</ele>
        <time>2022-08-20T09:54:37Z</time>
      </trkpt>
      <trkpt lat="44.10765" lon="6.67319">
        <ele>2391</ele>
        <time>2022-08-20T09:54:38Z</time>
      </trkpt>
      <trkpt lat="44.10765" lon="6.67318">
        <ele>2391</ele>
        <time>2022-08-20T09:54:41Z</time>
      </trkpt>
      <trkpt lat="44.10765" lon="6.67318">
        <ele>2391</ele>
        <time>2022-08-20T09:54:43Z</time>
      </trkpt>
      <trkpt lat="44.10766" lon="6.67318">
        <ele>2391</ele>
        <time>2022-08-20T09:54:44Z</time>
      </trkpt>
      <trkpt lat="44.10765" lon="6.67319">
        <ele>2391</ele>
        <time>2022-08-20T09:54:45Z</time>
      </trkpt>
      <trkpt lat="44.10764" lon="6.67319">
        <ele>2391</ele>
        <time>2022-08-20T09:54:47Z</time>
      </trkpt>
      <trkpt lat="44.10765" lon="6.67317">
        <ele>2391.1999511719</ele>
        <time>2022-08-20T09:54:52Z</time>
      </trkpt>
      <trkpt lat="44.10765" lon="6.67317">
        <ele>2391.1999511719</ele>
        <time>2022-08-20T09:55:01Z</time>
      </trkpt>
      <trkpt lat="44.10765" lon="6.67317">
        <ele>2391.1999511719</ele>
        <time>2022-08-20T09:55:03Z</time>
      </trkpt>
      <trkpt lat="44.10765" lon="6.67317">
        <ele>2391</ele>
        <time>2022-08-20T09:55:12Z</time>
      </trkpt>
      <trkpt lat="44.10765" lon="6.67317">
        <ele>2390.8000488281</ele>
        <time>2022-08-20T09:55:21Z</time>
      </trkpt>
      <trkpt lat="44.10765" lon="6.67317">
        <ele>2390.8000488281</ele>
        <time>2022-08-20T09:55:22Z</time>
      </trkpt>
      <trkpt lat="44.10765" lon="6.67317">
        <ele>2391.1999511719</ele>
        <time>2022-08-20T09:55:24Z</time>
      </trkpt>
      <trkpt lat="44.10765" lon="6.67317">
        <ele>2391.1999511719</ele>
        <time>2022-08-20T09:55:25Z</time>
      </trkpt>
      <trkpt lat="44.1076" lon="6.67305">
        <ele>2391.1999511719</ele>
        <time>2022-08-20T09:55:35Z</time>
      </trkpt>
      <trkpt lat="44.1076" lon="6.67304">
        <ele>2391.1999511719</ele>
        <time>2022-08-20T09:55:36Z</time>
      </trkpt>
      <trkpt lat="44.10759" lon="6.67302">
        <ele>2391.1999511719</ele>
        <time>2022-08-20T09:55:38Z</time>
      </trkpt>
      <trkpt lat="44.10759" lon="6.67302">
        <ele>2391</ele>
        <time>2022-08-20T09:55:40Z</time>
      </trkpt>
      <trkpt lat="44.1076" lon="6.67303">
        <ele>2390.8000488281</ele>
        <time>2022-08-20T09:55:44Z</time>
      </trkpt>
      <trkpt lat="44.1076" lon="6.67303">
        <ele>2390.6000976562</ele>
        <time>2022-08-20T09:55:46Z</time>
      </trkpt>
      <trkpt lat="44.1076" lon="6.67303">
        <ele>2390.6000976562</ele>
        <time>2022-08-20T09:55:48Z</time>
      </trkpt>
      <trkpt lat="44.1076" lon="6.67303">
        <ele>2390.6000976562</ele>
        <time>2022-08-20T09:55:50Z</time>
      </trkpt>
      <trkpt lat="44.1076" lon="6.67303">
        <ele>2390.6000976562</ele>
        <time>2022-08-20T09:55:52Z</time>
      </trkpt>
      <trkpt lat="44.1076" lon="6.67303">
        <ele>2390.6000976562</ele>
        <time>2022-08-20T09:55:54Z</time>
      </trkpt>
      <trkpt lat="44.10759" lon="6.67303">
        <ele>2390.6000976562</ele>
        <time>2022-08-20T09:56:01Z</time>
      </trkpt>
      <trkpt lat="44.10759" lon="6.67303">
        <ele>2391</ele>
        <time>2022-08-20T09:56:08Z</time>
      </trkpt>
      <trkpt lat="44.10759" lon="6.67304">
        <ele>2390.8000488281</ele>
        <time>2022-08-20T09:56:18Z</time>
      </trkpt>
      <trkpt lat="44.10759" lon="6.67304">
        <ele>2390.8000488281</ele>
        <time>2022-08-20T09:56:20Z</time>
      </trkpt>
      <trkpt lat="44.10759" lon="6.67304">
        <ele>2390.8000488281</ele>
        <time>2022-08-20T09:56:24Z</time>
      </trkpt>
      <trkpt lat="44.10759" lon="6.67304">
        <ele>2391</ele>
        <time>2022-08-20T09:56:30Z</time>
      </trkpt>
      <trkpt lat="44.10759" lon="6.67304">
        <ele>2391</ele>
        <time>2022-08-20T09:56:31Z</time>
      </trkpt>
      <trkpt lat="44.10759" lon="6.67305">
        <ele>2390.8000488281</ele>
        <time>2022-08-20T09:56:34Z</time>
      </trkpt>
      <trkpt lat="44.10759" lon="6.67305">
        <ele>2390.8000488281</ele>
        <time>2022-08-20T09:56:42Z</time>
      </trkpt>
      <trkpt lat="44.10758" lon="6.67306">
        <ele>2390.6000976562</ele>
        <time>2022-08-20T09:56:45Z</time>
      </trkpt>
      <trkpt lat="44.10758" lon="6.67306">
        <ele>2391</ele>
        <time>2022-08-20T09:56:48Z</time>
      </trkpt>
      <trkpt lat="44.10758" lon="6.67306">
        <ele>2391</ele>
        <time>2022-08-20T09:56:50Z</time>
      </trkpt>
      <trkpt lat="44.10758" lon="6.67306">
        <ele>2391</ele>
        <time>2022-08-20T09:56:52Z</time>
      </trkpt>
      <trkpt lat="44.10758" lon="6.67306">
        <ele>2391</ele>
        <time>2022-08-20T09:56:54Z</time>
      </trkpt>
      <trkpt lat="44.10758" lon="6.67305">
        <ele>2391</ele>
        <time>2022-08-20T09:56:59Z</time>
      </trkpt>
      <trkpt lat="44.10759" lon="6.67305">
        <ele>2391</ele>
        <time>2022-08-20T09:57:10Z</time>
      </trkpt>
      <trkpt lat="44.10758" lon="6.67304">
        <ele>2391</ele>
        <time>2022-08-20T09:57:21Z</time>
      </trkpt>
      <trkpt lat="44.10759" lon="6.67304">
        <ele>2391</ele>
        <time>2022-08-20T09:57:24Z</time>
      </trkpt>
      <trkpt lat="44.10759" lon="6.67306">
        <ele>2391</ele>
        <time>2022-08-20T09:57:30Z</time>
      </trkpt>
      <trkpt lat="44.10758" lon="6.67306">
        <ele>2391</ele>
        <time>2022-08-20T09:57:32Z</time>
      </trkpt>
      <trkpt lat="44.10758" lon="6.67306">
        <ele>2391</ele>
        <time>2022-08-20T09:57:33Z</time>
      </trkpt>
      <trkpt lat="44.10755" lon="6.67293">
        <ele>2391</ele>
        <time>2022-08-20T09:57:41Z</time>
      </trkpt>
      <trkpt lat="44.10755" lon="6.67292">
        <ele>2391</ele>
        <time>2022-08-20T09:57:42Z</time>
      </trkpt>
      <trkpt lat="44.10754" lon="6.67289">
        <ele>2391</ele>
        <time>2022-08-20T09:57:45Z</time>
      </trkpt>
      <trkpt lat="44.10752" lon="6.67288">
        <ele>2390.3999023438</ele>
        <time>2022-08-20T09:57:47Z</time>
      </trkpt>
      <trkpt lat="44.1075" lon="6.67285">
        <ele>2389.6000976562</ele>
        <time>2022-08-20T09:57:52Z</time>
      </trkpt>
      <trkpt lat="44.10749" lon="6.6728">
        <ele>2389.1999511719</ele>
        <time>2022-08-20T09:57:54Z</time>
      </trkpt>
      <trkpt lat="44.10749" lon="6.67278">
        <ele>2389</ele>
        <time>2022-08-20T09:57:55Z</time>
      </trkpt>
      <trkpt lat="44.10748" lon="6.67276">
        <ele>2388.8000488281</ele>
        <time>2022-08-20T09:57:56Z</time>
      </trkpt>
      <trkpt lat="44.10747" lon="6.6727">
        <ele>2388</ele>
        <time>2022-08-20T09:57:59Z</time>
      </trkpt>
      <trkpt lat="44.10745" lon="6.67263">
        <ele>2386.8000488281</ele>
        <time>2022-08-20T09:58:03Z</time>
      </trkpt>
      <trkpt lat="44.10743" lon="6.67256">
        <ele>2385.8000488281</ele>
        <time>2022-08-20T09:58:07Z</time>
      </trkpt>
      <trkpt lat="44.10742" lon="6.67255">
        <ele>2385.3999023438</ele>
        <time>2022-08-20T09:58:09Z</time>
      </trkpt>
      <trkpt lat="44.10742" lon="6.67255">
        <ele>2385</ele>
        <time>2022-08-20T09:58:10Z</time>
      </trkpt>
      <trkpt lat="44.10743" lon="6.67254">
        <ele>2384.8000488281</ele>
        <time>2022-08-20T09:58:11Z</time>
      </trkpt>
      <trkpt lat="44.10743" lon="6.67254">
        <ele>2384.8000488281</ele>
        <time>2022-08-20T09:58:12Z</time>
      </trkpt>
      <trkpt lat="44.10742" lon="6.67253">
        <ele>2384.3999023438</ele>
        <time>2022-08-20T09:58:15Z</time>
      </trkpt>
      <trkpt lat="44.10742" lon="6.67251">
        <ele>2384.1999511719</ele>
        <time>2022-08-20T09:58:17Z</time>
      </trkpt>
      <trkpt lat="44.10741" lon="6.67247">
        <ele>2383.8000488281</ele>
        <time>2022-08-20T09:58:21Z</time>
      </trkpt>
      <trkpt lat="44.10739" lon="6.67241">
        <ele>2383</ele>
        <time>2022-08-20T09:58:29Z</time>
      </trkpt>
      <trkpt lat="44.10738" lon="6.67235">
        <ele>2382.6000976562</ele>
        <time>2022-08-20T09:58:33Z</time>
      </trkpt>
      <trkpt lat="44.10736" lon="6.67228">
        <ele>2381.8000488281</ele>
        <time>2022-08-20T09:58:38Z</time>
      </trkpt>
      <trkpt lat="44.10736" lon="6.67227">
        <ele>2381.6000976562</ele>
        <time>2022-08-20T09:58:40Z</time>
      </trkpt>
      <trkpt lat="44.10735" lon="6.67226">
        <ele>2381.6000976562</ele>
        <time>2022-08-20T09:58:44Z</time>
      </trkpt>
      <trkpt lat="44.10732" lon="6.6722">
        <ele>2381.1999511719</ele>
        <time>2022-08-20T09:58:51Z</time>
      </trkpt>
      <trkpt lat="44.1073" lon="6.67216">
        <ele>2380.6000976562</ele>
        <time>2022-08-20T09:58:53Z</time>
      </trkpt>
      <trkpt lat="44.1073" lon="6.67214">
        <ele>2380.3999023438</ele>
        <time>2022-08-20T09:58:54Z</time>
      </trkpt>
      <trkpt lat="44.10728" lon="6.67211">
        <ele>2379.8000488281</ele>
        <time>2022-08-20T09:58:56Z</time>
      </trkpt>
      <trkpt lat="44.10727" lon="6.67209">
        <ele>2379.1999511719</ele>
        <time>2022-08-20T09:58:58Z</time>
      </trkpt>
      <trkpt lat="44.10727" lon="6.67208">
        <ele>2378.1999511719</ele>
        <time>2022-08-20T09:59:02Z</time>
      </trkpt>
      <trkpt lat="44.10725" lon="6.67206">
        <ele>2378</ele>
        <time>2022-08-20T09:59:05Z</time>
      </trkpt>
      <trkpt lat="44.10722" lon="6.67192">
        <ele>2376.8000488281</ele>
        <time>2022-08-20T09:59:11Z</time>
      </trkpt>
      <trkpt lat="44.10722" lon="6.6719">
        <ele>2376.3999023438</ele>
        <time>2022-08-20T09:59:12Z</time>
      </trkpt>
      <trkpt lat="44.10721" lon="6.67185">
        <ele>2375.8000488281</ele>
        <time>2022-08-20T09:59:14Z</time>
      </trkpt>
      <trkpt lat="44.10721" lon="6.67183">
        <ele>2375.8000488281</ele>
        <time>2022-08-20T09:59:15Z</time>
      </trkpt>
      <trkpt lat="44.1072" lon="6.6718">
        <ele>2375.1999511719</ele>
        <time>2022-08-20T09:59:17Z</time>
      </trkpt>
      <trkpt lat="44.10719" lon="6.67178">
        <ele>2374.6000976562</ele>
        <time>2022-08-20T09:59:19Z</time>
      </trkpt>
      <trkpt lat="44.10717" lon="6.67176">
        <ele>2373.8000488281</ele>
        <time>2022-08-20T09:59:22Z</time>
      </trkpt>
      <trkpt lat="44.10717" lon="6.67175">
        <ele>2373.6000976562</ele>
        <time>2022-08-20T09:59:24Z</time>
      </trkpt>
      <trkpt lat="44.10715" lon="6.67173">
        <ele>2372.8000488281</ele>
        <time>2022-08-20T09:59:30Z</time>
      </trkpt>
      <trkpt lat="44.10713" lon="6.67171">
        <ele>2372.6000976562</ele>
        <time>2022-08-20T09:59:34Z</time>
      </trkpt>
      <trkpt lat="44.10711" lon="6.67167">
        <ele>2372</ele>
        <time>2022-08-20T09:59:38Z</time>
      </trkpt>
      <trkpt lat="44.10707" lon="6.6716">
        <ele>2371.3999023438</ele>
        <time>2022-08-20T09:59:42Z</time>
      </trkpt>
      <trkpt lat="44.10706" lon="6.67159">
        <ele>2371.1999511719</ele>
        <time>2022-08-20T09:59:43Z</time>
      </trkpt>
      <trkpt lat="44.10705" lon="6.67157">
        <ele>2370.8000488281</ele>
        <time>2022-08-20T09:59:44Z</time>
      </trkpt>
      <trkpt lat="44.10703" lon="6.6715">
        <ele>2370.1999511719</ele>
        <time>2022-08-20T09:59:47Z</time>
      </trkpt>
      <trkpt lat="44.10701" lon="6.67146">
        <ele>2369.6000976562</ele>
        <time>2022-08-20T09:59:49Z</time>
      </trkpt>
      <trkpt lat="44.10699" lon="6.67143">
        <ele>2369</ele>
        <time>2022-08-20T09:59:51Z</time>
      </trkpt>
      <trkpt lat="44.10696" lon="6.67137">
        <ele>2367.6000976562</ele>
        <time>2022-08-20T09:59:55Z</time>
      </trkpt>
      <trkpt lat="44.10696" lon="6.67137">
        <ele>2367.1999511719</ele>
        <time>2022-08-20T09:59:56Z</time>
      </trkpt>
      <trkpt lat="44.10695" lon="6.67136">
        <ele>2366.8000488281</ele>
        <time>2022-08-20T09:59:59Z</time>
      </trkpt>
      <trkpt lat="44.10695" lon="6.67136">
        <ele>2366.6000976562</ele>
        <time>2022-08-20T10:00:01Z</time>
      </trkpt>
      <trkpt lat="44.10696" lon="6.67136">
        <ele>2366.3999023438</ele>
        <time>2022-08-20T10:00:03Z</time>
      </trkpt>
      <trkpt lat="44.10696" lon="6.67136">
        <ele>2366.1999511719</ele>
        <time>2022-08-20T10:00:05Z</time>
      </trkpt>
      <trkpt lat="44.10693" lon="6.67128">
        <ele>2365.8000488281</ele>
        <time>2022-08-20T10:00:14Z</time>
      </trkpt>
      <trkpt lat="44.10693" lon="6.67128">
        <ele>2365.6000976562</ele>
        <time>2022-08-20T10:00:15Z</time>
      </trkpt>
      <trkpt lat="44.10693" lon="6.67127">
        <ele>2365.6000976562</ele>
        <time>2022-08-20T10:00:16Z</time>
      </trkpt>
      <trkpt lat="44.10693" lon="6.67126">
        <ele>2365.1999511719</ele>
        <time>2022-08-20T10:00:20Z</time>
      </trkpt>
      <trkpt lat="44.10693" lon="6.67125">
        <ele>2365.1999511719</ele>
        <time>2022-08-20T10:00:27Z</time>
      </trkpt>
      <trkpt lat="44.10693" lon="6.67126">
        <ele>2365.1999511719</ele>
        <time>2022-08-20T10:00:29Z</time>
      </trkpt>
      <trkpt lat="44.10691" lon="6.67125">
        <ele>2365.3999023438</ele>
        <time>2022-08-20T10:00:39Z</time>
      </trkpt>
      <trkpt lat="44.10684" lon="6.67115">
        <ele>2364.3999023438</ele>
        <time>2022-08-20T10:00:45Z</time>
      </trkpt>
      <trkpt lat="44.10682" lon="6.67111">
        <ele>2363.6000976562</ele>
        <time>2022-08-20T10:00:47Z</time>
      </trkpt>
      <trkpt lat="44.1068" lon="6.67109">
        <ele>2363</ele>
        <time>2022-08-20T10:00:49Z</time>
      </trkpt>
      <trkpt lat="44.10673" lon="6.67104">
        <ele>2361.6000976562</ele>
        <time>2022-08-20T10:00:53Z</time>
      </trkpt>
      <trkpt lat="44.10669" lon="6.671">
        <ele>2360.1999511719</ele>
        <time>2022-08-20T10:00:57Z</time>
      </trkpt>
      <trkpt lat="44.10665" lon="6.67096">
        <ele>2359</ele>
        <time>2022-08-20T10:01:00Z</time>
      </trkpt>
      <trkpt lat="44.10663" lon="6.67092">
        <ele>2358.1999511719</ele>
        <time>2022-08-20T10:01:02Z</time>
      </trkpt>
      <trkpt lat="44.10661" lon="6.6709">
        <ele>2358</ele>
        <time>2022-08-20T10:01:03Z</time>
      </trkpt>
      <trkpt lat="44.1066" lon="6.67089">
        <ele>2357.6000976562</ele>
        <time>2022-08-20T10:01:04Z</time>
      </trkpt>
      <trkpt lat="44.10654" lon="6.67083">
        <ele>2356.6000976562</ele>
        <time>2022-08-20T10:01:07Z</time>
      </trkpt>
      <trkpt lat="44.10649" lon="6.67078">
        <ele>2355.3999023438</ele>
        <time>2022-08-20T10:01:11Z</time>
      </trkpt>
      <trkpt lat="44.10644" lon="6.67072">
        <ele>2354.3999023438</ele>
        <time>2022-08-20T10:01:14Z</time>
      </trkpt>
      <trkpt lat="44.10643" lon="6.6707">
        <ele>2354</ele>
        <time>2022-08-20T10:01:15Z</time>
      </trkpt>
      <trkpt lat="44.10639" lon="6.67065">
        <ele>2353</ele>
        <time>2022-08-20T10:01:18Z</time>
      </trkpt>
      <trkpt lat="44.10635" lon="6.67058">
        <ele>2351.6000976562</ele>
        <time>2022-08-20T10:01:21Z</time>
      </trkpt>
      <trkpt lat="44.10632" lon="6.6705">
        <ele>2350.3999023438</ele>
        <time>2022-08-20T10:01:25Z</time>
      </trkpt>
      <trkpt lat="44.10626" lon="6.67044">
        <ele>2349.1999511719</ele>
        <time>2022-08-20T10:01:29Z</time>
      </trkpt>
      <trkpt lat="44.10624" lon="6.67041">
        <ele>2348.1999511719</ele>
        <time>2022-08-20T10:01:32Z</time>
      </trkpt>
      <trkpt lat="44.10621" lon="6.67036">
        <ele>2347.1999511719</ele>
        <time>2022-08-20T10:01:35Z</time>
      </trkpt>
      <trkpt lat="44.10619" lon="6.67034">
        <ele>2346.8000488281</ele>
        <time>2022-08-20T10:01:36Z</time>
      </trkpt>
      <trkpt lat="44.10618" lon="6.67032">
        <ele>2346.3999023438</ele>
        <time>2022-08-20T10:01:37Z</time>
      </trkpt>
      <trkpt lat="44.10615" lon="6.67027">
        <ele>2345.6000976562</ele>
        <time>2022-08-20T10:01:39Z</time>
      </trkpt>
      <trkpt lat="44.1061" lon="6.67018">
        <ele>2344.1999511719</ele>
        <time>2022-08-20T10:01:43Z</time>
      </trkpt>
      <trkpt lat="44.10609" lon="6.67015">
        <ele>2344</ele>
        <time>2022-08-20T10:01:44Z</time>
      </trkpt>
      <trkpt lat="44.10605" lon="6.6701">
        <ele>2343</ele>
        <time>2022-08-20T10:01:46Z</time>
      </trkpt>
      <trkpt lat="44.10602" lon="6.67002">
        <ele>2341.6000976562</ele>
        <time>2022-08-20T10:01:49Z</time>
      </trkpt>
      <trkpt lat="44.10601" lon="6.66997">
        <ele>2340.8000488281</ele>
        <time>2022-08-20T10:01:51Z</time>
      </trkpt>
      <trkpt lat="44.106" lon="6.66996">
        <ele>2340.3999023438</ele>
        <time>2022-08-20T10:01:52Z</time>
      </trkpt>
      <trkpt lat="44.10599" lon="6.66986">
        <ele>2339</ele>
        <time>2022-08-20T10:01:55Z</time>
      </trkpt>
      <trkpt lat="44.106" lon="6.66982">
        <ele>2338.6000976562</ele>
        <time>2022-08-20T10:01:56Z</time>
      </trkpt>
      <trkpt lat="44.106" lon="6.66976">
        <ele>2337.8000488281</ele>
        <time>2022-08-20T10:01:58Z</time>
      </trkpt>
      <trkpt lat="44.10599" lon="6.66969">
        <ele>2337.3999023438</ele>
        <time>2022-08-20T10:02:01Z</time>
      </trkpt>
      <trkpt lat="44.10597" lon="6.66962">
        <ele>2336.3999023438</ele>
        <time>2022-08-20T10:02:04Z</time>
      </trkpt>
      <trkpt lat="44.10597" lon="6.66959">
        <ele>2335.6000976562</ele>
        <time>2022-08-20T10:02:07Z</time>
      </trkpt>
      <trkpt lat="44.10596" lon="6.66959">
        <ele>2335.6000976562</ele>
        <time>2022-08-20T10:02:08Z</time>
      </trkpt>
      <trkpt lat="44.10596" lon="6.66959">
        <ele>2335.3999023438</ele>
        <time>2022-08-20T10:02:09Z</time>
      </trkpt>
      <trkpt lat="44.10596" lon="6.66959">
        <ele>2335.1999511719</ele>
        <time>2022-08-20T10:02:10Z</time>
      </trkpt>
      <trkpt lat="44.10596" lon="6.6696">
        <ele>2335</ele>
        <time>2022-08-20T10:02:14Z</time>
      </trkpt>
      <trkpt lat="44.10595" lon="6.66958">
        <ele>2335.6000976562</ele>
        <time>2022-08-20T10:02:24Z</time>
      </trkpt>
      <trkpt lat="44.10594" lon="6.66958">
        <ele>2335.6000976562</ele>
        <time>2022-08-20T10:02:29Z</time>
      </trkpt>
      <trkpt lat="44.10594" lon="6.66958">
        <ele>2335.6000976562</ele>
        <time>2022-08-20T10:02:31Z</time>
      </trkpt>
      <trkpt lat="44.10594" lon="6.66958">
        <ele>2335.6000976562</ele>
        <time>2022-08-20T10:02:35Z</time>
      </trkpt>
      <trkpt lat="44.10594" lon="6.66958">
        <ele>2335.6000976562</ele>
        <time>2022-08-20T10:02:37Z</time>
      </trkpt>
      <trkpt lat="44.10593" lon="6.66959">
        <ele>2334.8000488281</ele>
        <time>2022-08-20T10:02:58Z</time>
      </trkpt>
      <trkpt lat="44.10593" lon="6.66959">
        <ele>2335.3999023438</ele>
        <time>2022-08-20T10:03:09Z</time>
      </trkpt>
      <trkpt lat="44.10593" lon="6.66959">
        <ele>2335.1999511719</ele>
        <time>2022-08-20T10:03:16Z</time>
      </trkpt>
      <trkpt lat="44.10593" lon="6.66958">
        <ele>2334.6000976562</ele>
        <time>2022-08-20T10:03:20Z</time>
      </trkpt>
      <trkpt lat="44.10593" lon="6.66947">
        <ele>2334.1999511719</ele>
        <time>2022-08-20T10:03:28Z</time>
      </trkpt>
      <trkpt lat="44.10594" lon="6.66945">
        <ele>2333.8000488281</ele>
        <time>2022-08-20T10:03:29Z</time>
      </trkpt>
      <trkpt lat="44.10594" lon="6.66943">
        <ele>2333.6000976562</ele>
        <time>2022-08-20T10:03:30Z</time>
      </trkpt>
      <trkpt lat="44.10594" lon="6.66939">
        <ele>2333</ele>
        <time>2022-08-20T10:03:32Z</time>
      </trkpt>
      <trkpt lat="44.10594" lon="6.66936">
        <ele>2332.6000976562</ele>
        <time>2022-08-20T10:03:34Z</time>
      </trkpt>
      <trkpt lat="44.10595" lon="6.66935">
        <ele>2332.3999023438</ele>
        <time>2022-08-20T10:03:36Z</time>
      </trkpt>
      <trkpt lat="44.10595" lon="6.66934">
        <ele>2332.1999511719</ele>
        <time>2022-08-20T10:03:37Z</time>
      </trkpt>
      <trkpt lat="44.10595" lon="6.66934">
        <ele>2332</ele>
        <time>2022-08-20T10:03:38Z</time>
      </trkpt>
      <trkpt lat="44.10597" lon="6.66936">
        <ele>2331.3999023438</ele>
        <time>2022-08-20T10:03:43Z</time>
      </trkpt>
      <trkpt lat="44.10597" lon="6.66936">
        <ele>2330.8000488281</ele>
        <time>2022-08-20T10:03:48Z</time>
      </trkpt>
      <trkpt lat="44.10597" lon="6.66935">
        <ele>2330.8000488281</ele>
        <time>2022-08-20T10:03:49Z</time>
      </trkpt>
      <trkpt lat="44.10597" lon="6.66931">
        <ele>2330.6000976562</ele>
        <time>2022-08-20T10:03:55Z</time>
      </trkpt>
      <trkpt lat="44.10597" lon="6.66931">
        <ele>2330.8000488281</ele>
        <time>2022-08-20T10:03:57Z</time>
      </trkpt>
      <trkpt lat="44.10593" lon="6.66917">
        <ele>2329.8000488281</ele>
        <time>2022-08-20T10:04:06Z</time>
      </trkpt>
      <trkpt lat="44.10593" lon="6.66915">
        <ele>2329.3999023438</ele>
        <time>2022-08-20T10:04:07Z</time>
      </trkpt>
      <trkpt lat="44.10591" lon="6.66906">
        <ele>2328.6000976562</ele>
        <time>2022-08-20T10:04:10Z</time>
      </trkpt>
      <trkpt lat="44.10592" lon="6.66892">
        <ele>2327.1999511719</ele>
        <time>2022-08-20T10:04:14Z</time>
      </trkpt>
      <trkpt lat="44.10595" lon="6.66879">
        <ele>2326.1999511719</ele>
        <time>2022-08-20T10:04:20Z</time>
      </trkpt>
      <trkpt lat="44.10596" lon="6.66877">
        <ele>2326.1999511719</ele>
        <time>2022-08-20T10:04:21Z</time>
      </trkpt>
      <trkpt lat="44.10597" lon="6.6687">
        <ele>2325</ele>
        <time>2022-08-20T10:04:27Z</time>
      </trkpt>
      <trkpt lat="44.10597" lon="6.6687">
        <ele>2324.6000976562</ele>
        <time>2022-08-20T10:04:29Z</time>
      </trkpt>
      <trkpt lat="44.10595" lon="6.6687">
        <ele>2324.3999023438</ele>
        <time>2022-08-20T10:04:32Z</time>
      </trkpt>
      <trkpt lat="44.10595" lon="6.66869">
        <ele>2324.6000976562</ele>
        <time>2022-08-20T10:04:34Z</time>
      </trkpt>
      <trkpt lat="44.10595" lon="6.66868">
        <ele>2324.6000976562</ele>
        <time>2022-08-20T10:04:36Z</time>
      </trkpt>
      <trkpt lat="44.10595" lon="6.66868">
        <ele>2324.6000976562</ele>
        <time>2022-08-20T10:04:39Z</time>
      </trkpt>
      <trkpt lat="44.10595" lon="6.66868">
        <ele>2324.8000488281</ele>
        <time>2022-08-20T10:04:43Z</time>
      </trkpt>
      <trkpt lat="44.10595" lon="6.66869">
        <ele>2324.6000976562</ele>
        <time>2022-08-20T10:04:45Z</time>
      </trkpt>
      <trkpt lat="44.10595" lon="6.66869">
        <ele>2324.6000976562</ele>
        <time>2022-08-20T10:04:47Z</time>
      </trkpt>
      <trkpt lat="44.10595" lon="6.66869">
        <ele>2324.6000976562</ele>
        <time>2022-08-20T10:04:53Z</time>
      </trkpt>
      <trkpt lat="44.10595" lon="6.66869">
        <ele>2324.6000976562</ele>
        <time>2022-08-20T10:04:55Z</time>
      </trkpt>
      <trkpt lat="44.10595" lon="6.66869">
        <ele>2324.6000976562</ele>
        <time>2022-08-20T10:04:56Z</time>
      </trkpt>
      <trkpt lat="44.10595" lon="6.66868">
        <ele>2324.6000976562</ele>
        <time>2022-08-20T10:04:58Z</time>
      </trkpt>
      <trkpt lat="44.10594" lon="6.66866">
        <ele>2324.6000976562</ele>
        <time>2022-08-20T10:04:59Z</time>
      </trkpt>
      <trkpt lat="44.1059" lon="6.66856">
        <ele>2324.6000976562</ele>
        <time>2022-08-20T10:05:03Z</time>
      </trkpt>
      <trkpt lat="44.10588" lon="6.66853">
        <ele>2324.3999023438</ele>
        <time>2022-08-20T10:05:04Z</time>
      </trkpt>
      <trkpt lat="44.10585" lon="6.66851">
        <ele>2324.3999023438</ele>
        <time>2022-08-20T10:05:05Z</time>
      </trkpt>
      <trkpt lat="44.10583" lon="6.66848">
        <ele>2324</ele>
        <time>2022-08-20T10:05:06Z</time>
      </trkpt>
      <trkpt lat="44.10577" lon="6.66844">
        <ele>2323.6000976562</ele>
        <time>2022-08-20T10:05:08Z</time>
      </trkpt>
      <trkpt lat="44.10572" lon="6.66839">
        <ele>2323</ele>
        <time>2022-08-20T10:05:11Z</time>
      </trkpt>
      <trkpt lat="44.10569" lon="6.66827">
        <ele>2321.8000488281</ele>
        <time>2022-08-20T10:05:16Z</time>
      </trkpt>
      <trkpt lat="44.10567" lon="6.66823">
        <ele>2321.6000976562</ele>
        <time>2022-08-20T10:05:17Z</time>
      </trkpt>
      <trkpt lat="44.10557" lon="6.6681">
        <ele>2320.6000976562</ele>
        <time>2022-08-20T10:05:20Z</time>
      </trkpt>
      <trkpt lat="44.10547" lon="6.66803">
        <ele>2319.3999023438</ele>
        <time>2022-08-20T10:05:24Z</time>
      </trkpt>
      <trkpt lat="44.10545" lon="6.668">
        <ele>2318.3999023438</ele>
        <time>2022-08-20T10:05:27Z</time>
      </trkpt>
      <trkpt lat="44.10545" lon="6.668">
        <ele>2318.1999511719</ele>
        <time>2022-08-20T10:05:28Z</time>
      </trkpt>
      <trkpt lat="44.10546" lon="6.66801">
        <ele>2318</ele>
        <time>2022-08-20T10:05:29Z</time>
      </trkpt>
      <trkpt lat="44.10546" lon="6.66801">
        <ele>2317.8000488281</ele>
        <time>2022-08-20T10:05:32Z</time>
      </trkpt>
      <trkpt lat="44.10546" lon="6.66802">
        <ele>2317.6000976562</ele>
        <time>2022-08-20T10:05:34Z</time>
      </trkpt>
      <trkpt lat="44.10546" lon="6.66802">
        <ele>2317.6000976562</ele>
        <time>2022-08-20T10:05:35Z</time>
      </trkpt>
      <trkpt lat="44.10546" lon="6.66802">
        <ele>2317.6000976562</ele>
        <time>2022-08-20T10:05:36Z</time>
      </trkpt>
      <trkpt lat="44.10546" lon="6.66802">
        <ele>2317.3999023438</ele>
        <time>2022-08-20T10:05:43Z</time>
      </trkpt>
      <trkpt lat="44.10546" lon="6.66802">
        <ele>2317.1999511719</ele>
        <time>2022-08-20T10:05:44Z</time>
      </trkpt>
      <trkpt lat="44.10546" lon="6.66802">
        <ele>2317.1999511719</ele>
        <time>2022-08-20T10:05:53Z</time>
      </trkpt>
      <trkpt lat="44.10546" lon="6.66802">
        <ele>2317.1999511719</ele>
        <time>2022-08-20T10:05:55Z</time>
      </trkpt>
      <trkpt lat="44.10542" lon="6.66793">
        <ele>2316.8000488281</ele>
        <time>2022-08-20T10:06:06Z</time>
      </trkpt>
      <trkpt lat="44.10541" lon="6.6679">
        <ele>2316.6000976562</ele>
        <time>2022-08-20T10:06:07Z</time>
      </trkpt>
      <trkpt lat="44.10539" lon="6.66785">
        <ele>2316</ele>
        <time>2022-08-20T10:06:10Z</time>
      </trkpt>
      <trkpt lat="44.10533" lon="6.66772">
        <ele>2315.1999511719</ele>
        <time>2022-08-20T10:06:13Z</time>
      </trkpt>
      <trkpt lat="44.10533" lon="6.66772">
        <ele>2314.8000488281</ele>
        <time>2022-08-20T10:06:14Z</time>
      </trkpt>
      <trkpt lat="44.10525" lon="6.66766">
        <ele>2313.3999023438</ele>
        <time>2022-08-20T10:06:18Z</time>
      </trkpt>
      <trkpt lat="44.10518" lon="6.66759">
        <ele>2312.3999023438</ele>
        <time>2022-08-20T10:06:21Z</time>
      </trkpt>
      <trkpt lat="44.10513" lon="6.66748">
        <ele>2311.1999511719</ele>
        <time>2022-08-20T10:06:24Z</time>
      </trkpt>
      <trkpt lat="44.10511" lon="6.66744">
        <ele>2309.8000488281</ele>
        <time>2022-08-20T10:06:26Z</time>
      </trkpt>
      <trkpt lat="44.10505" lon="6.66733">
        <ele>2308.3999023438</ele>
        <time>2022-08-20T10:06:28Z</time>
      </trkpt>
      <trkpt lat="44.10499" lon="6.66717">
        <ele>2307.3999023438</ele>
        <time>2022-08-20T10:06:29Z</time>
      </trkpt>
      <trkpt lat="44.10497" lon="6.66709">
        <ele>2306.1999511719</ele>
        <time>2022-08-20T10:06:30Z</time>
      </trkpt>
      <trkpt lat="44.10494" lon="6.667">
        <ele>2305</ele>
        <time>2022-08-20T10:06:31Z</time>
      </trkpt>
      <trkpt lat="44.10494" lon="6.667">
        <ele>2304.1999511719</ele>
        <time>2022-08-20T10:06:32Z</time>
      </trkpt>
      <trkpt lat="44.1049" lon="6.66684">
        <ele>2303.3999023438</ele>
        <time>2022-08-20T10:06:33Z</time>
      </trkpt>
      <trkpt lat="44.10485" lon="6.66671">
        <ele>2302.6000976562</ele>
        <time>2022-08-20T10:06:35Z</time>
      </trkpt>
      <trkpt lat="44.10483" lon="6.66665">
        <ele>2302.1999511719</ele>
        <time>2022-08-20T10:06:36Z</time>
      </trkpt>
      <trkpt lat="44.10482" lon="6.66659">
        <ele>2301.6000976562</ele>
        <time>2022-08-20T10:06:37Z</time>
      </trkpt>
      <trkpt lat="44.10479" lon="6.66648">
        <ele>2301</ele>
        <time>2022-08-20T10:06:39Z</time>
      </trkpt>
      <trkpt lat="44.10479" lon="6.66637">
        <ele>2300.6000976562</ele>
        <time>2022-08-20T10:06:41Z</time>
      </trkpt>
      <trkpt lat="44.1048" lon="6.66632">
        <ele>2300.3999023438</ele>
        <time>2022-08-20T10:06:42Z</time>
      </trkpt>
      <trkpt lat="44.10481" lon="6.66627">
        <ele>2300</ele>
        <time>2022-08-20T10:06:43Z</time>
      </trkpt>
      <trkpt lat="44.10481" lon="6.66627">
        <ele>2300</ele>
        <time>2022-08-20T10:06:44Z</time>
      </trkpt>
      <trkpt lat="44.10484" lon="6.66616">
        <ele>2299.8000488281</ele>
        <time>2022-08-20T10:06:45Z</time>
      </trkpt>
      <trkpt lat="44.10487" lon="6.66606">
        <ele>2299.6000976562</ele>
        <time>2022-08-20T10:06:47Z</time>
      </trkpt>
      <trkpt lat="44.10486" lon="6.66585">
        <ele>2299.1999511719</ele>
        <time>2022-08-20T10:06:51Z</time>
      </trkpt>
      <trkpt lat="44.10486" lon="6.66585">
        <ele>2299.1999511719</ele>
        <time>2022-08-20T10:06:52Z</time>
      </trkpt>
      <trkpt lat="44.10491" lon="6.66577">
        <ele>2299.1999511719</ele>
        <time>2022-08-20T10:06:53Z</time>
      </trkpt>
      <trkpt lat="44.10496" lon="6.6657">
        <ele>2299.1999511719</ele>
        <time>2022-08-20T10:06:55Z</time>
      </trkpt>
      <trkpt lat="44.10499" lon="6.66562">
        <ele>2299.3999023438</ele>
        <time>2022-08-20T10:06:57Z</time>
      </trkpt>
      <trkpt lat="44.10502" lon="6.66548">
        <ele>2299.1999511719</ele>
        <time>2022-08-20T10:07:00Z</time>
      </trkpt>
      <trkpt lat="44.10505" lon="6.66534">
        <ele>2299</ele>
        <time>2022-08-20T10:07:04Z</time>
      </trkpt>
      <trkpt lat="44.10507" lon="6.66521">
        <ele>2299</ele>
        <time>2022-08-20T10:07:06Z</time>
      </trkpt>
      <trkpt lat="44.10507" lon="6.66518">
        <ele>2298.8000488281</ele>
        <time>2022-08-20T10:07:07Z</time>
      </trkpt>
      <trkpt lat="44.10503" lon="6.66508">
        <ele>2298.8000488281</ele>
        <time>2022-08-20T10:07:11Z</time>
      </trkpt>
      <trkpt lat="44.10498" lon="6.66504">
        <ele>2298.6000976562</ele>
        <time>2022-08-20T10:07:12Z</time>
      </trkpt>
      <trkpt lat="44.10489" lon="6.66499">
        <ele>2297.8000488281</ele>
        <time>2022-08-20T10:07:15Z</time>
      </trkpt>
      <trkpt lat="44.10482" lon="6.66493">
        <ele>2296.6000976562</ele>
        <time>2022-08-20T10:07:19Z</time>
      </trkpt>
      <trkpt lat="44.10475" lon="6.66488">
        <ele>2295.1999511719</ele>
        <time>2022-08-20T10:07:23Z</time>
      </trkpt>
      <trkpt lat="44.10468" lon="6.66485">
        <ele>2294</ele>
        <time>2022-08-20T10:07:27Z</time>
      </trkpt>
      <trkpt lat="44.1046" lon="6.66481">
        <ele>2292.8000488281</ele>
        <time>2022-08-20T10:07:31Z</time>
      </trkpt>
      <trkpt lat="44.10456" lon="6.66479">
        <ele>2291.3999023438</ele>
        <time>2022-08-20T10:07:34Z</time>
      </trkpt>
      <trkpt lat="44.10447" lon="6.66474">
        <ele>2290</ele>
        <time>2022-08-20T10:07:37Z</time>
      </trkpt>
      <trkpt lat="44.10446" lon="6.66473">
        <ele>2289</ele>
        <time>2022-08-20T10:07:39Z</time>
      </trkpt>
      <trkpt lat="44.10444" lon="6.66473">
        <ele>2288.3999023438</ele>
        <time>2022-08-20T10:07:41Z</time>
      </trkpt>
      <trkpt lat="44.10443" lon="6.66472">
        <ele>2288</ele>
        <time>2022-08-20T10:07:44Z</time>
      </trkpt>
      <trkpt lat="44.1044" lon="6.66469">
        <ele>2287.8000488281</ele>
        <time>2022-08-20T10:07:45Z</time>
      </trkpt>
      <trkpt lat="44.10432" lon="6.66465">
        <ele>2286.8000488281</ele>
        <time>2022-08-20T10:07:49Z</time>
      </trkpt>
      <trkpt lat="44.10426" lon="6.66461">
        <ele>2285.6000976562</ele>
        <time>2022-08-20T10:07:52Z</time>
      </trkpt>
      <trkpt lat="44.10419" lon="6.66455">
        <ele>2284.3999023438</ele>
        <time>2022-08-20T10:07:55Z</time>
      </trkpt>
      <trkpt lat="44.10415" lon="6.66452">
        <ele>2283.3999023438</ele>
        <time>2022-08-20T10:07:58Z</time>
      </trkpt>
      <trkpt lat="44.1041" lon="6.66446">
        <ele>2282.3999023438</ele>
        <time>2022-08-20T10:08:00Z</time>
      </trkpt>
      <trkpt lat="44.10408" lon="6.66445">
        <ele>2282</ele>
        <time>2022-08-20T10:08:01Z</time>
      </trkpt>
      <trkpt lat="44.10402" lon="6.66441">
        <ele>2280.6000976562</ele>
        <time>2022-08-20T10:08:04Z</time>
      </trkpt>
      <trkpt lat="44.10401" lon="6.6644">
        <ele>2280.1999511719</ele>
        <time>2022-08-20T10:08:05Z</time>
      </trkpt>
      <trkpt lat="44.10397" lon="6.6644">
        <ele>2279.3999023438</ele>
        <time>2022-08-20T10:08:08Z</time>
      </trkpt>
      <trkpt lat="44.10393" lon="6.6644">
        <ele>2279</ele>
        <time>2022-08-20T10:08:09Z</time>
      </trkpt>
      <trkpt lat="44.10393" lon="6.6644">
        <ele>2278.6000976562</ele>
        <time>2022-08-20T10:08:10Z</time>
      </trkpt>
      <trkpt lat="44.10389" lon="6.66441">
        <ele>2278</ele>
        <time>2022-08-20T10:08:11Z</time>
      </trkpt>
      <trkpt lat="44.10389" lon="6.66441">
        <ele>2277.6000976562</ele>
        <time>2022-08-20T10:08:12Z</time>
      </trkpt>
      <trkpt lat="44.10384" lon="6.66445">
        <ele>2276.8000488281</ele>
        <time>2022-08-20T10:08:14Z</time>
      </trkpt>
      <trkpt lat="44.10382" lon="6.66446">
        <ele>2276.3999023438</ele>
        <time>2022-08-20T10:08:15Z</time>
      </trkpt>
      <trkpt lat="44.10378" lon="6.66445">
        <ele>2275.6000976562</ele>
        <time>2022-08-20T10:08:17Z</time>
      </trkpt>
      <trkpt lat="44.10374" lon="6.66441">
        <ele>2274.3999023438</ele>
        <time>2022-08-20T10:08:20Z</time>
      </trkpt>
      <trkpt lat="44.10371" lon="6.66435">
        <ele>2273.1999511719</ele>
        <time>2022-08-20T10:08:22Z</time>
      </trkpt>
      <trkpt lat="44.1037" lon="6.66427">
        <ele>2272.6000976562</ele>
        <time>2022-08-20T10:08:23Z</time>
      </trkpt>
      <trkpt lat="44.1037" lon="6.66422">
        <ele>2271.6000976562</ele>
        <time>2022-08-20T10:08:24Z</time>
      </trkpt>
      <trkpt lat="44.10369" lon="6.66411">
        <ele>2270.3999023438</ele>
        <time>2022-08-20T10:08:26Z</time>
      </trkpt>
      <trkpt lat="44.10369" lon="6.66406">
        <ele>2269.1999511719</ele>
        <time>2022-08-20T10:08:28Z</time>
      </trkpt>
      <trkpt lat="44.10367" lon="6.66388">
        <ele>2268.1999511719</ele>
        <time>2022-08-20T10:08:30Z</time>
      </trkpt>
      <trkpt lat="44.10366" lon="6.66382">
        <ele>2267</ele>
        <time>2022-08-20T10:08:32Z</time>
      </trkpt>
      <trkpt lat="44.10364" lon="6.66377">
        <ele>2266.3999023438</ele>
        <time>2022-08-20T10:08:33Z</time>
      </trkpt>
      <trkpt lat="44.10361" lon="6.66373">
        <ele>2265.8000488281</ele>
        <time>2022-08-20T10:08:34Z</time>
      </trkpt>
      <trkpt lat="44.10356" lon="6.66364">
        <ele>2265.3999023438</ele>
        <time>2022-08-20T10:08:35Z</time>
      </trkpt>
      <trkpt lat="44.10353" lon="6.6636">
        <ele>2264.3999023438</ele>
        <time>2022-08-20T10:08:36Z</time>
      </trkpt>
      <trkpt lat="44.10349" lon="6.66351">
        <ele>2263.1999511719</ele>
        <time>2022-08-20T10:08:38Z</time>
      </trkpt>
      <trkpt lat="44.10348" lon="6.66347">
        <ele>2262</ele>
        <time>2022-08-20T10:08:40Z</time>
      </trkpt>
      <trkpt lat="44.10344" lon="6.66338">
        <ele>2261</ele>
        <time>2022-08-20T10:08:42Z</time>
      </trkpt>
      <trkpt lat="44.10339" lon="6.66329">
        <ele>2260</ele>
        <time>2022-08-20T10:08:45Z</time>
      </trkpt>
      <trkpt lat="44.10339" lon="6.66329">
        <ele>2259.6000976562</ele>
        <time>2022-08-20T10:08:46Z</time>
      </trkpt>
      <trkpt lat="44.10336" lon="6.66321">
        <ele>2258</ele>
        <time>2022-08-20T10:08:49Z</time>
      </trkpt>
      <trkpt lat="44.10332" lon="6.66313">
        <ele>2257.3999023438</ele>
        <time>2022-08-20T10:08:51Z</time>
      </trkpt>
      <trkpt lat="44.1033" lon="6.66309">
        <ele>2257</ele>
        <time>2022-08-20T10:08:52Z</time>
      </trkpt>
      <trkpt lat="44.10323" lon="6.66295">
        <ele>2255.6000976562</ele>
        <time>2022-08-20T10:08:56Z</time>
      </trkpt>
      <trkpt lat="44.10319" lon="6.66282">
        <ele>2254.3999023438</ele>
        <time>2022-08-20T10:08:59Z</time>
      </trkpt>
      <trkpt lat="44.10316" lon="6.66273">
        <ele>2253.1999511719</ele>
        <time>2022-08-20T10:09:01Z</time>
      </trkpt>
      <trkpt lat="44.10314" lon="6.66263">
        <ele>2251.6000976562</ele>
        <time>2022-08-20T10:09:03Z</time>
      </trkpt>
      <trkpt lat="44.10311" lon="6.66254">
        <ele>2250.3999023438</ele>
        <time>2022-08-20T10:09:05Z</time>
      </trkpt>
      <trkpt lat="44.1031" lon="6.66244">
        <ele>2249.1999511719</ele>
        <time>2022-08-20T10:09:07Z</time>
      </trkpt>
      <trkpt lat="44.10308" lon="6.66237">
        <ele>2248.1999511719</ele>
        <time>2022-08-20T10:09:09Z</time>
      </trkpt>
      <trkpt lat="44.10308" lon="6.66237">
        <ele>2247.8000488281</ele>
        <time>2022-08-20T10:09:10Z</time>
      </trkpt>
      <trkpt lat="44.10307" lon="6.66226">
        <ele>2246.6000976562</ele>
        <time>2022-08-20T10:09:13Z</time>
      </trkpt>
      <trkpt lat="44.1031" lon="6.66213">
        <ele>2245.6000976562</ele>
        <time>2022-08-20T10:09:15Z</time>
      </trkpt>
      <trkpt lat="44.10315" lon="6.66204">
        <ele>2244.1999511719</ele>
        <time>2022-08-20T10:09:18Z</time>
      </trkpt>
      <trkpt lat="44.10321" lon="6.66197">
        <ele>2243</ele>
        <time>2022-08-20T10:09:21Z</time>
      </trkpt>
      <trkpt lat="44.10321" lon="6.66197">
        <ele>2242.6000976562</ele>
        <time>2022-08-20T10:09:22Z</time>
      </trkpt>
      <trkpt lat="44.10328" lon="6.66191">
        <ele>2241.8000488281</ele>
        <time>2022-08-20T10:09:24Z</time>
      </trkpt>
      <trkpt lat="44.10335" lon="6.66186">
        <ele>2240.6000976562</ele>
        <time>2022-08-20T10:09:27Z</time>
      </trkpt>
      <trkpt lat="44.10339" lon="6.66183">
        <ele>2239.6000976562</ele>
        <time>2022-08-20T10:09:29Z</time>
      </trkpt>
      <trkpt lat="44.10346" lon="6.66181">
        <ele>2238</ele>
        <time>2022-08-20T10:09:32Z</time>
      </trkpt>
      <trkpt lat="44.10353" lon="6.66181">
        <ele>2237</ele>
        <time>2022-08-20T10:09:34Z</time>
      </trkpt>
      <trkpt lat="44.10361" lon="6.6618">
        <ele>2235.6000976562</ele>
        <time>2022-08-20T10:09:37Z</time>
      </trkpt>
      <trkpt lat="44.10366" lon="6.66179">
        <ele>2234.3999023438</ele>
        <time>2022-08-20T10:09:40Z</time>
      </trkpt>
      <trkpt lat="44.10375" lon="6.6618">
        <ele>2232.8000488281</ele>
        <time>2022-08-20T10:09:43Z</time>
      </trkpt>
      <trkpt lat="44.10376" lon="6.66181">
        <ele>2232.6000976562</ele>
        <time>2022-08-20T10:09:44Z</time>
      </trkpt>
      <trkpt lat="44.10382" lon="6.66181">
        <ele>2231.6000976562</ele>
        <time>2022-08-20T10:09:47Z</time>
      </trkpt>
      <trkpt lat="44.1039" lon="6.66182">
        <ele>2230.3999023438</ele>
        <time>2022-08-20T10:09:51Z</time>
      </trkpt>
      <trkpt lat="44.10396" lon="6.66184">
        <ele>2229.3999023438</ele>
        <time>2022-08-20T10:09:54Z</time>
      </trkpt>
      <trkpt lat="44.10397" lon="6.66185">
        <ele>2229.1999511719</ele>
        <time>2022-08-20T10:09:55Z</time>
      </trkpt>
      <trkpt lat="44.10404" lon="6.66188">
        <ele>2228</ele>
        <time>2022-08-20T10:09:59Z</time>
      </trkpt>
      <trkpt lat="44.10411" lon="6.6619">
        <ele>2227.1999511719</ele>
        <time>2022-08-20T10:10:03Z</time>
      </trkpt>
      <trkpt lat="44.10411" lon="6.6619">
        <ele>2226.8000488281</ele>
        <time>2022-08-20T10:10:04Z</time>
      </trkpt>
      <trkpt lat="44.10422" lon="6.66194">
        <ele>2225.6000976562</ele>
        <time>2022-08-20T10:10:09Z</time>
      </trkpt>
      <trkpt lat="44.10425" lon="6.66195">
        <ele>2225.1999511719</ele>
        <time>2022-08-20T10:10:11Z</time>
      </trkpt>
      <trkpt lat="44.10425" lon="6.66194">
        <ele>2224.6000976562</ele>
        <time>2022-08-20T10:10:13Z</time>
      </trkpt>
      <trkpt lat="44.10425" lon="6.66193">
        <ele>2224.3999023438</ele>
        <time>2022-08-20T10:10:14Z</time>
      </trkpt>
      <trkpt lat="44.10425" lon="6.66193">
        <ele>2224.1999511719</ele>
        <time>2022-08-20T10:10:15Z</time>
      </trkpt>
      <trkpt lat="44.10425" lon="6.66194">
        <ele>2224</ele>
        <time>2022-08-20T10:10:17Z</time>
      </trkpt>
      <trkpt lat="44.10429" lon="6.66196">
        <ele>2223.8000488281</ele>
        <time>2022-08-20T10:10:22Z</time>
      </trkpt>
      <trkpt lat="44.10437" lon="6.66201">
        <ele>2223</ele>
        <time>2022-08-20T10:10:25Z</time>
      </trkpt>
      <trkpt lat="44.10441" lon="6.66204">
        <ele>2222.1999511719</ele>
        <time>2022-08-20T10:10:28Z</time>
      </trkpt>
      <trkpt lat="44.10444" lon="6.66206">
        <ele>2221.8000488281</ele>
        <time>2022-08-20T10:10:29Z</time>
      </trkpt>
      <trkpt lat="44.10449" lon="6.66209">
        <ele>2220.8000488281</ele>
        <time>2022-08-20T10:10:33Z</time>
      </trkpt>
      <trkpt lat="44.1045" lon="6.66209">
        <ele>2220.3999023438</ele>
        <time>2022-08-20T10:10:35Z</time>
      </trkpt>
      <trkpt lat="44.10455" lon="6.66213">
        <ele>2219.8000488281</ele>
        <time>2022-08-20T10:10:38Z</time>
      </trkpt>
      <trkpt lat="44.10464" lon="6.6622">
        <ele>2218.3999023438</ele>
        <time>2022-08-20T10:10:42Z</time>
      </trkpt>
      <trkpt lat="44.10472" lon="6.66227">
        <ele>2217.1999511719</ele>
        <time>2022-08-20T10:10:46Z</time>
      </trkpt>
      <trkpt lat="44.10476" lon="6.6623">
        <ele>2216.6000976562</ele>
        <time>2022-08-20T10:10:48Z</time>
      </trkpt>
      <trkpt lat="44.10479" lon="6.66233">
        <ele>2216</ele>
        <time>2022-08-20T10:10:50Z</time>
      </trkpt>
      <trkpt lat="44.1048" lon="6.66234">
        <ele>2215.8000488281</ele>
        <time>2022-08-20T10:10:51Z</time>
      </trkpt>
      <trkpt lat="44.10482" lon="6.66237">
        <ele>2215.3999023438</ele>
        <time>2022-08-20T10:10:54Z</time>
      </trkpt>
      <trkpt lat="44.10487" lon="6.66241">
        <ele>2214.8000488281</ele>
        <time>2022-08-20T10:10:57Z</time>
      </trkpt>
      <trkpt lat="44.10492" lon="6.66246">
        <ele>2214</ele>
        <time>2022-08-20T10:11:00Z</time>
      </trkpt>
      <trkpt lat="44.10493" lon="6.66248">
        <ele>2213.6000976562</ele>
        <time>2022-08-20T10:11:01Z</time>
      </trkpt>
      <trkpt lat="44.10499" lon="6.66253">
        <ele>2212.3999023438</ele>
        <time>2022-08-20T10:11:05Z</time>
      </trkpt>
      <trkpt lat="44.10502" lon="6.66256">
        <ele>2211.3999023438</ele>
        <time>2022-08-20T10:11:08Z</time>
      </trkpt>
      <trkpt lat="44.10509" lon="6.66266">
        <ele>2210.1999511719</ele>
        <time>2022-08-20T10:11:13Z</time>
      </trkpt>
      <trkpt lat="44.10512" lon="6.66271">
        <ele>2209.8000488281</ele>
        <time>2022-08-20T10:11:15Z</time>
      </trkpt>
      <trkpt lat="44.10516" lon="6.66278">
        <ele>2209.1999511719</ele>
        <time>2022-08-20T10:11:19Z</time>
      </trkpt>
      <trkpt lat="44.10519" lon="6.66281">
        <ele>2208.8000488281</ele>
        <time>2022-08-20T10:11:21Z</time>
      </trkpt>
      <trkpt lat="44.10521" lon="6.66285">
        <ele>2208</ele>
        <time>2022-08-20T10:11:23Z</time>
      </trkpt>
      <trkpt lat="44.10523" lon="6.66287">
        <ele>2207.8000488281</ele>
        <time>2022-08-20T10:11:24Z</time>
      </trkpt>
      <trkpt lat="44.10528" lon="6.66293">
        <ele>2206.8000488281</ele>
        <time>2022-08-20T10:11:28Z</time>
      </trkpt>
      <trkpt lat="44.10536" lon="6.66299">
        <ele>2205.8000488281</ele>
        <time>2022-08-20T10:11:32Z</time>
      </trkpt>
      <trkpt lat="44.10543" lon="6.66304">
        <ele>2204.8000488281</ele>
        <time>2022-08-20T10:11:37Z</time>
      </trkpt>
      <trkpt lat="44.10551" lon="6.66309">
        <ele>2203.6000976562</ele>
        <time>2022-08-20T10:11:41Z</time>
      </trkpt>
      <trkpt lat="44.10552" lon="6.6631">
        <ele>2203.3999023438</ele>
        <time>2022-08-20T10:11:42Z</time>
      </trkpt>
      <trkpt lat="44.10555" lon="6.66312">
        <ele>2202.6000976562</ele>
        <time>2022-08-20T10:11:45Z</time>
      </trkpt>
      <trkpt lat="44.10557" lon="6.66314">
        <ele>2202.1999511719</ele>
        <time>2022-08-20T10:11:47Z</time>
      </trkpt>
      <trkpt lat="44.10564" lon="6.66318">
        <ele>2201.6000976562</ele>
        <time>2022-08-20T10:11:52Z</time>
      </trkpt>
      <trkpt lat="44.10565" lon="6.6632">
        <ele>2201</ele>
        <time>2022-08-20T10:11:55Z</time>
      </trkpt>
      <trkpt lat="44.10566" lon="6.66321">
        <ele>2200.6000976562</ele>
        <time>2022-08-20T10:12:00Z</time>
      </trkpt>
      <trkpt lat="44.10567" lon="6.66321">
        <ele>2200.6000976562</ele>
        <time>2022-08-20T10:12:04Z</time>
      </trkpt>
      <trkpt lat="44.10568" lon="6.66322">
        <ele>2200.6000976562</ele>
        <time>2022-08-20T10:12:05Z</time>
      </trkpt>
      <trkpt lat="44.10573" lon="6.66324">
        <ele>2199.8000488281</ele>
        <time>2022-08-20T10:12:11Z</time>
      </trkpt>
      <trkpt lat="44.10574" lon="6.66324">
        <ele>2199.6000976562</ele>
        <time>2022-08-20T10:12:12Z</time>
      </trkpt>
      <trkpt lat="44.1058" lon="6.66328">
        <ele>2198.3999023438</ele>
        <time>2022-08-20T10:12:17Z</time>
      </trkpt>
      <trkpt lat="44.10582" lon="6.66328">
        <ele>2198</ele>
        <time>2022-08-20T10:12:19Z</time>
      </trkpt>
      <trkpt lat="44.10583" lon="6.66328">
        <ele>2197.8000488281</ele>
        <time>2022-08-20T10:12:20Z</time>
      </trkpt>
      <trkpt lat="44.10585" lon="6.66329">
        <ele>2197.3999023438</ele>
        <time>2022-08-20T10:12:22Z</time>
      </trkpt>
      <trkpt lat="44.10598" lon="6.66335">
        <ele>2196.3999023438</ele>
        <time>2022-08-20T10:12:28Z</time>
      </trkpt>
      <trkpt lat="44.106" lon="6.66336">
        <ele>2196</ele>
        <time>2022-08-20T10:12:29Z</time>
      </trkpt>
      <trkpt lat="44.10602" lon="6.66337">
        <ele>2195.8000488281</ele>
        <time>2022-08-20T10:12:30Z</time>
      </trkpt>
      <trkpt lat="44.10603" lon="6.66337">
        <ele>2195.3999023438</ele>
        <time>2022-08-20T10:12:31Z</time>
      </trkpt>
      <trkpt lat="44.10605" lon="6.66339">
        <ele>2195</ele>
        <time>2022-08-20T10:12:33Z</time>
      </trkpt>
      <trkpt lat="44.10613" lon="6.66342">
        <ele>2193.8000488281</ele>
        <time>2022-08-20T10:12:37Z</time>
      </trkpt>
      <trkpt lat="44.10615" lon="6.66343">
        <ele>2193.6000976562</ele>
        <time>2022-08-20T10:12:38Z</time>
      </trkpt>
      <trkpt lat="44.10619" lon="6.66345">
        <ele>2192.8000488281</ele>
        <time>2022-08-20T10:12:40Z</time>
      </trkpt>
      <trkpt lat="44.10624" lon="6.66348">
        <ele>2191.8000488281</ele>
        <time>2022-08-20T10:12:43Z</time>
      </trkpt>
      <trkpt lat="44.10628" lon="6.6635">
        <ele>2191.1999511719</ele>
        <time>2022-08-20T10:12:45Z</time>
      </trkpt>
      <trkpt lat="44.10632" lon="6.66352">
        <ele>2190.6000976562</ele>
        <time>2022-08-20T10:12:47Z</time>
      </trkpt>
      <trkpt lat="44.1064" lon="6.66357">
        <ele>2189.1999511719</ele>
        <time>2022-08-20T10:12:51Z</time>
      </trkpt>
      <trkpt lat="44.10643" lon="6.66358">
        <ele>2188.8000488281</ele>
        <time>2022-08-20T10:12:52Z</time>
      </trkpt>
      <trkpt lat="44.10649" lon="6.6636">
        <ele>2188.1999511719</ele>
        <time>2022-08-20T10:12:54Z</time>
      </trkpt>
      <trkpt lat="44.10657" lon="6.66366">
        <ele>2187.1999511719</ele>
        <time>2022-08-20T10:12:57Z</time>
      </trkpt>
      <trkpt lat="44.10659" lon="6.66369">
        <ele>2187</ele>
        <time>2022-08-20T10:12:58Z</time>
      </trkpt>
      <trkpt lat="44.10661" lon="6.66371">
        <ele>2186.6000976562</ele>
        <time>2022-08-20T10:12:59Z</time>
      </trkpt>
      <trkpt lat="44.10664" lon="6.66373">
        <ele>2185.8000488281</ele>
        <time>2022-08-20T10:13:01Z</time>
      </trkpt>
      <trkpt lat="44.10665" lon="6.66373">
        <ele>2185.3999023438</ele>
        <time>2022-08-20T10:13:03Z</time>
      </trkpt>
      <trkpt lat="44.10666" lon="6.66373">
        <ele>2184.8000488281</ele>
        <time>2022-08-20T10:13:05Z</time>
      </trkpt>
      <trkpt lat="44.10665" lon="6.66372">
        <ele>2184.6000976562</ele>
        <time>2022-08-20T10:13:06Z</time>
      </trkpt>
      <trkpt lat="44.10664" lon="6.6637">
        <ele>2184.3999023438</ele>
        <time>2022-08-20T10:13:07Z</time>
      </trkpt>
      <trkpt lat="44.10662" lon="6.66367">
        <ele>2183.6000976562</ele>
        <time>2022-08-20T10:13:10Z</time>
      </trkpt>
      <trkpt lat="44.10658" lon="6.66356">
        <ele>2182.1999511719</ele>
        <time>2022-08-20T10:13:14Z</time>
      </trkpt>
      <trkpt lat="44.10657" lon="6.66351">
        <ele>2181</ele>
        <time>2022-08-20T10:13:16Z</time>
      </trkpt>
      <trkpt lat="44.10656" lon="6.66349">
        <ele>2180.6000976562</ele>
        <time>2022-08-20T10:13:17Z</time>
      </trkpt>
      <trkpt lat="44.10654" lon="6.66345">
        <ele>2180</ele>
        <time>2022-08-20T10:13:19Z</time>
      </trkpt>
      <trkpt lat="44.10649" lon="6.66338">
        <ele>2178.8000488281</ele>
        <time>2022-08-20T10:13:22Z</time>
      </trkpt>
      <trkpt lat="44.10647" lon="6.66336">
        <ele>2178.3999023438</ele>
        <time>2022-08-20T10:13:23Z</time>
      </trkpt>
      <trkpt lat="44.10644" lon="6.66331">
        <ele>2177.6000976562</ele>
        <time>2022-08-20T10:13:25Z</time>
      </trkpt>
      <trkpt lat="44.10639" lon="6.66324">
        <ele>2176.6000976562</ele>
        <time>2022-08-20T10:13:28Z</time>
      </trkpt>
      <trkpt lat="44.10636" lon="6.6632">
        <ele>2175.3999023438</ele>
        <time>2022-08-20T10:13:30Z</time>
      </trkpt>
      <trkpt lat="44.10631" lon="6.66314">
        <ele>2174</ele>
        <time>2022-08-20T10:13:33Z</time>
      </trkpt>
      <trkpt lat="44.10629" lon="6.6631">
        <ele>2173</ele>
        <time>2022-08-20T10:13:36Z</time>
      </trkpt>
      <trkpt lat="44.10627" lon="6.66308">
        <ele>2172.1999511719</ele>
        <time>2022-08-20T10:13:38Z</time>
      </trkpt>
      <trkpt lat="44.10626" lon="6.66307">
        <ele>2172</ele>
        <time>2022-08-20T10:13:39Z</time>
      </trkpt>
      <trkpt lat="44.10621" lon="6.663">
        <ele>2171</ele>
        <time>2022-08-20T10:13:42Z</time>
      </trkpt>
      <trkpt lat="44.1062" lon="6.66296">
        <ele>2170.6000976562</ele>
        <time>2022-08-20T10:13:43Z</time>
      </trkpt>
      <trkpt lat="44.10617" lon="6.66287">
        <ele>2169.3999023438</ele>
        <time>2022-08-20T10:13:46Z</time>
      </trkpt>
      <trkpt lat="44.10612" lon="6.66278">
        <ele>2168.1999511719</ele>
        <time>2022-08-20T10:13:49Z</time>
      </trkpt>
      <trkpt lat="44.10609" lon="6.66273">
        <ele>2167.3999023438</ele>
        <time>2022-08-20T10:13:51Z</time>
      </trkpt>
      <trkpt lat="44.10608" lon="6.66271">
        <ele>2167</ele>
        <time>2022-08-20T10:13:52Z</time>
      </trkpt>
      <trkpt lat="44.10606" lon="6.66266">
        <ele>2166.1999511719</ele>
        <time>2022-08-20T10:13:54Z</time>
      </trkpt>
      <trkpt lat="44.10604" lon="6.66264">
        <ele>2165.8000488281</ele>
        <time>2022-08-20T10:13:55Z</time>
      </trkpt>
      <trkpt lat="44.10602" lon="6.66259">
        <ele>2164.8000488281</ele>
        <time>2022-08-20T10:13:58Z</time>
      </trkpt>
      <trkpt lat="44.10596" lon="6.66249">
        <ele>2163.6000976562</ele>
        <time>2022-08-20T10:14:01Z</time>
      </trkpt>
      <trkpt lat="44.10595" lon="6.66246">
        <ele>2163</ele>
        <time>2022-08-20T10:14:02Z</time>
      </trkpt>
      <trkpt lat="44.10594" lon="6.66243">
        <ele>2162</ele>
        <time>2022-08-20T10:14:04Z</time>
      </trkpt>
      <trkpt lat="44.10589" lon="6.66239">
        <ele>2161.3999023438</ele>
        <time>2022-08-20T10:14:05Z</time>
      </trkpt>
      <trkpt lat="44.10586" lon="6.66238">
        <ele>2160.8000488281</ele>
        <time>2022-08-20T10:14:06Z</time>
      </trkpt>
      <trkpt lat="44.10583" lon="6.66237">
        <ele>2160.6000976562</ele>
        <time>2022-08-20T10:14:07Z</time>
      </trkpt>
      <trkpt lat="44.10579" lon="6.66233">
        <ele>2159.8000488281</ele>
        <time>2022-08-20T10:14:09Z</time>
      </trkpt>
      <trkpt lat="44.10578" lon="6.66229">
        <ele>2159</ele>
        <time>2022-08-20T10:14:11Z</time>
      </trkpt>
      <trkpt lat="44.10578" lon="6.66227">
        <ele>2158.6000976562</ele>
        <time>2022-08-20T10:14:12Z</time>
      </trkpt>
      <trkpt lat="44.10576" lon="6.66218">
        <ele>2157.3999023438</ele>
        <time>2022-08-20T10:14:15Z</time>
      </trkpt>
      <trkpt lat="44.10575" lon="6.6621">
        <ele>2156.3999023438</ele>
        <time>2022-08-20T10:14:18Z</time>
      </trkpt>
      <trkpt lat="44.10575" lon="6.66205">
        <ele>2155.6000976562</ele>
        <time>2022-08-20T10:14:20Z</time>
      </trkpt>
      <trkpt lat="44.10574" lon="6.66203">
        <ele>2155.1999511719</ele>
        <time>2022-08-20T10:14:21Z</time>
      </trkpt>
      <trkpt lat="44.10572" lon="6.66197">
        <ele>2154.1999511719</ele>
        <time>2022-08-20T10:14:23Z</time>
      </trkpt>
      <trkpt lat="44.10571" lon="6.66195">
        <ele>2153.8000488281</ele>
        <time>2022-08-20T10:14:24Z</time>
      </trkpt>
      <trkpt lat="44.10569" lon="6.6619">
        <ele>2152.8000488281</ele>
        <time>2022-08-20T10:14:26Z</time>
      </trkpt>
      <trkpt lat="44.10568" lon="6.66189">
        <ele>2152.1999511719</ele>
        <time>2022-08-20T10:14:27Z</time>
      </trkpt>
      <trkpt lat="44.10567" lon="6.66187">
        <ele>2151.1999511719</ele>
        <time>2022-08-20T10:14:30Z</time>
      </trkpt>
      <trkpt lat="44.10568" lon="6.66187">
        <ele>2151.1999511719</ele>
        <time>2022-08-20T10:14:31Z</time>
      </trkpt>
      <trkpt lat="44.10568" lon="6.66186">
        <ele>2151</ele>
        <time>2022-08-20T10:14:32Z</time>
      </trkpt>
      <trkpt lat="44.10568" lon="6.66186">
        <ele>2151</ele>
        <time>2022-08-20T10:14:38Z</time>
      </trkpt>
      <trkpt lat="44.10564" lon="6.66178">
        <ele>2150.3999023438</ele>
        <time>2022-08-20T10:14:50Z</time>
      </trkpt>
      <trkpt lat="44.10563" lon="6.66175">
        <ele>2150</ele>
        <time>2022-08-20T10:14:51Z</time>
      </trkpt>
      <trkpt lat="44.10558" lon="6.66165">
        <ele>2148.8000488281</ele>
        <time>2022-08-20T10:14:54Z</time>
      </trkpt>
      <trkpt lat="44.10556" lon="6.6616">
        <ele>2147.3999023438</ele>
        <time>2022-08-20T10:14:57Z</time>
      </trkpt>
      <trkpt lat="44.10553" lon="6.66154">
        <ele>2146.3999023438</ele>
        <time>2022-08-20T10:15:01Z</time>
      </trkpt>
      <trkpt lat="44.10552" lon="6.66152">
        <ele>2146</ele>
        <time>2022-08-20T10:15:03Z</time>
      </trkpt>
      <trkpt lat="44.1055" lon="6.66148">
        <ele>2145</ele>
        <time>2022-08-20T10:15:06Z</time>
      </trkpt>
      <trkpt lat="44.10546" lon="6.66143">
        <ele>2143.8000488281</ele>
        <time>2022-08-20T10:15:10Z</time>
      </trkpt>
      <trkpt lat="44.10546" lon="6.6614">
        <ele>2142.8000488281</ele>
        <time>2022-08-20T10:15:15Z</time>
      </trkpt>
      <trkpt lat="44.10545" lon="6.66139">
        <ele>2142.6000976562</ele>
        <time>2022-08-20T10:15:17Z</time>
      </trkpt>
      <trkpt lat="44.10542" lon="6.66135">
        <ele>2142.1999511719</ele>
        <time>2022-08-20T10:15:26Z</time>
      </trkpt>
      <trkpt lat="44.1054" lon="6.66133">
        <ele>2141.6000976562</ele>
        <time>2022-08-20T10:15:30Z</time>
      </trkpt>
      <trkpt lat="44.10535" lon="6.66125">
        <ele>2140.6000976562</ele>
        <time>2022-08-20T10:15:37Z</time>
      </trkpt>
      <trkpt lat="44.10535" lon="6.66124">
        <ele>2140.3999023438</ele>
        <time>2022-08-20T10:15:38Z</time>
      </trkpt>
      <trkpt lat="44.10532" lon="6.66122">
        <ele>2139.3999023438</ele>
        <time>2022-08-20T10:15:44Z</time>
      </trkpt>
      <trkpt lat="44.10531" lon="6.66121">
        <ele>2139.3999023438</ele>
        <time>2022-08-20T10:15:47Z</time>
      </trkpt>
      <trkpt lat="44.10527" lon="6.66113">
        <ele>2138.3999023438</ele>
        <time>2022-08-20T10:15:57Z</time>
      </trkpt>
      <trkpt lat="44.10526" lon="6.6611">
        <ele>2138</ele>
        <time>2022-08-20T10:16:00Z</time>
      </trkpt>
      <trkpt lat="44.10525" lon="6.66108">
        <ele>2137.3999023438</ele>
        <time>2022-08-20T10:16:06Z</time>
      </trkpt>
      <trkpt lat="44.10522" lon="6.66101">
        <ele>2136.8000488281</ele>
        <time>2022-08-20T10:16:12Z</time>
      </trkpt>
      <trkpt lat="44.10521" lon="6.66098">
        <ele>2136.1999511719</ele>
        <time>2022-08-20T10:16:15Z</time>
      </trkpt>
      <trkpt lat="44.10519" lon="6.66089">
        <ele>2135.1999511719</ele>
        <time>2022-08-20T10:16:24Z</time>
      </trkpt>
      <trkpt lat="44.10518" lon="6.66087">
        <ele>2135</ele>
        <time>2022-08-20T10:16:25Z</time>
      </trkpt>
      <trkpt lat="44.10517" lon="6.66079">
        <ele>2134.1999511719</ele>
        <time>2022-08-20T10:16:33Z</time>
      </trkpt>
      <trkpt lat="44.10517" lon="6.66078">
        <ele>2134</ele>
        <time>2022-08-20T10:16:36Z</time>
      </trkpt>
      <trkpt lat="44.1052" lon="6.66075">
        <ele>2133</ele>
        <time>2022-08-20T10:16:43Z</time>
      </trkpt>
      <trkpt lat="44.10523" lon="6.66073">
        <ele>2132.3999023438</ele>
        <time>2022-08-20T10:16:48Z</time>
      </trkpt>
      <trkpt lat="44.10525" lon="6.66072">
        <ele>2132</ele>
        <time>2022-08-20T10:16:50Z</time>
      </trkpt>
      <trkpt lat="44.10528" lon="6.66073">
        <ele>2131.3999023438</ele>
        <time>2022-08-20T10:16:53Z</time>
      </trkpt>
      <trkpt lat="44.1053" lon="6.66073">
        <ele>2130.8000488281</ele>
        <time>2022-08-20T10:16:56Z</time>
      </trkpt>
      <trkpt lat="44.10534" lon="6.66074">
        <ele>2130.3999023438</ele>
        <time>2022-08-20T10:16:58Z</time>
      </trkpt>
      <trkpt lat="44.10535" lon="6.66076">
        <ele>2129.8000488281</ele>
        <time>2022-08-20T10:17:01Z</time>
      </trkpt>
      <trkpt lat="44.10536" lon="6.66078">
        <ele>2129.3999023438</ele>
        <time>2022-08-20T10:17:03Z</time>
      </trkpt>
      <trkpt lat="44.10538" lon="6.6608">
        <ele>2128.6000976562</ele>
        <time>2022-08-20T10:17:06Z</time>
      </trkpt>
      <trkpt lat="44.10543" lon="6.66083">
        <ele>2127.6000976562</ele>
        <time>2022-08-20T10:17:11Z</time>
      </trkpt>
      <trkpt lat="44.10545" lon="6.66086">
        <ele>2126.8000488281</ele>
        <time>2022-08-20T10:17:14Z</time>
      </trkpt>
      <trkpt lat="44.10546" lon="6.66086">
        <ele>2126.6000976562</ele>
        <time>2022-08-20T10:17:15Z</time>
      </trkpt>
      <trkpt lat="44.10547" lon="6.66087">
        <ele>2126.3999023438</ele>
        <time>2022-08-20T10:17:16Z</time>
      </trkpt>
      <trkpt lat="44.10553" lon="6.66089">
        <ele>2125.3999023438</ele>
        <time>2022-08-20T10:17:24Z</time>
      </trkpt>
      <trkpt lat="44.10554" lon="6.66091">
        <ele>2124.6000976562</ele>
        <time>2022-08-20T10:17:29Z</time>
      </trkpt>
      <trkpt lat="44.10554" lon="6.66091">
        <ele>2124.3999023438</ele>
        <time>2022-08-20T10:17:31Z</time>
      </trkpt>
      <trkpt lat="44.10556" lon="6.66091">
        <ele>2124.1999511719</ele>
        <time>2022-08-20T10:17:38Z</time>
      </trkpt>
      <trkpt lat="44.10556" lon="6.66091">
        <ele>2124.1999511719</ele>
        <time>2022-08-20T10:17:39Z</time>
      </trkpt>
      <trkpt lat="44.10559" lon="6.66094">
        <ele>2124.1999511719</ele>
        <time>2022-08-20T10:17:46Z</time>
      </trkpt>
      <trkpt lat="44.10571" lon="6.66104">
        <ele>2123.3999023438</ele>
        <time>2022-08-20T10:17:53Z</time>
      </trkpt>
      <trkpt lat="44.10574" lon="6.66107">
        <ele>2123</ele>
        <time>2022-08-20T10:17:57Z</time>
      </trkpt>
      <trkpt lat="44.10574" lon="6.66106">
        <ele>2122.8000488281</ele>
        <time>2022-08-20T10:17:59Z</time>
      </trkpt>
      <trkpt lat="44.10574" lon="6.66106">
        <ele>2122.8000488281</ele>
        <time>2022-08-20T10:18:00Z</time>
      </trkpt>
      <trkpt lat="44.10573" lon="6.66106">
        <ele>2122.6000976562</ele>
        <time>2022-08-20T10:18:04Z</time>
      </trkpt>
      <trkpt lat="44.10573" lon="6.66106">
        <ele>2122.6000976562</ele>
        <time>2022-08-20T10:18:07Z</time>
      </trkpt>
      <trkpt lat="44.10573" lon="6.66106">
        <ele>2122.6000976562</ele>
        <time>2022-08-20T10:18:10Z</time>
      </trkpt>
      <trkpt lat="44.10575" lon="6.66107">
        <ele>2122.6000976562</ele>
        <time>2022-08-20T10:18:14Z</time>
      </trkpt>
      <trkpt lat="44.10575" lon="6.66107">
        <ele>2122.1999511719</ele>
        <time>2022-08-20T10:18:16Z</time>
      </trkpt>
      <trkpt lat="44.10575" lon="6.66108">
        <ele>2122</ele>
        <time>2022-08-20T10:18:20Z</time>
      </trkpt>
      <trkpt lat="44.10575" lon="6.66105">
        <ele>2122</ele>
        <time>2022-08-20T10:18:24Z</time>
      </trkpt>
      <trkpt lat="44.10574" lon="6.66104">
        <ele>2121.6000976562</ele>
        <time>2022-08-20T10:18:28Z</time>
      </trkpt>
      <trkpt lat="44.10573" lon="6.66104">
        <ele>2121.3999023438</ele>
        <time>2022-08-20T10:18:31Z</time>
      </trkpt>
      <trkpt lat="44.1057" lon="6.66097">
        <ele>2121.1999511719</ele>
        <time>2022-08-20T10:18:37Z</time>
      </trkpt>
      <trkpt lat="44.10566" lon="6.6609">
        <ele>2120.3999023438</ele>
        <time>2022-08-20T10:18:40Z</time>
      </trkpt>
      <trkpt lat="44.10563" lon="6.66085">
        <ele>2120</ele>
        <time>2022-08-20T10:18:42Z</time>
      </trkpt>
      <trkpt lat="44.10559" lon="6.66078">
        <ele>2118.6000976562</ele>
        <time>2022-08-20T10:18:45Z</time>
      </trkpt>
      <trkpt lat="44.10556" lon="6.66075">
        <ele>2118</ele>
        <time>2022-08-20T10:18:47Z</time>
      </trkpt>
      <trkpt lat="44.10554" lon="6.66072">
        <ele>2117.3999023438</ele>
        <time>2022-08-20T10:18:49Z</time>
      </trkpt>
      <trkpt lat="44.10554" lon="6.66072">
        <ele>2117.1999511719</ele>
        <time>2022-08-20T10:18:50Z</time>
      </trkpt>
      <trkpt lat="44.10554" lon="6.66072">
        <ele>2117</ele>
        <time>2022-08-20T10:18:51Z</time>
      </trkpt>
      <trkpt lat="44.10554" lon="6.66072">
        <ele>2116.8000488281</ele>
        <time>2022-08-20T10:18:52Z</time>
      </trkpt>
      <trkpt lat="44.10554" lon="6.66072">
        <ele>2116.6000976562</ele>
        <time>2022-08-20T10:18:53Z</time>
      </trkpt>
      <trkpt lat="44.10555" lon="6.6607">
        <ele>2116.3999023438</ele>
        <time>2022-08-20T10:18:56Z</time>
      </trkpt>
      <trkpt lat="44.10557" lon="6.66071">
        <ele>2116.3999023438</ele>
        <time>2022-08-20T10:18:58Z</time>
      </trkpt>
      <trkpt lat="44.10565" lon="6.66073">
        <ele>2115.3999023438</ele>
        <time>2022-08-20T10:19:05Z</time>
      </trkpt>
      <trkpt lat="44.10567" lon="6.66074">
        <ele>2114.8000488281</ele>
        <time>2022-08-20T10:19:07Z</time>
      </trkpt>
      <trkpt lat="44.10568" lon="6.66074">
        <ele>2114.6000976562</ele>
        <time>2022-08-20T10:19:08Z</time>
      </trkpt>
      <trkpt lat="44.10568" lon="6.66074">
        <ele>2114.3999023438</ele>
        <time>2022-08-20T10:19:09Z</time>
      </trkpt>
      <trkpt lat="44.10569" lon="6.66072">
        <ele>2113.3999023438</ele>
        <time>2022-08-20T10:19:14Z</time>
      </trkpt>
      <trkpt lat="44.10569" lon="6.66071">
        <ele>2113.1999511719</ele>
        <time>2022-08-20T10:19:15Z</time>
      </trkpt>
      <trkpt lat="44.10568" lon="6.66066">
        <ele>2112.1999511719</ele>
        <time>2022-08-20T10:19:21Z</time>
      </trkpt>
      <trkpt lat="44.10566" lon="6.66063">
        <ele>2111.3999023438</ele>
        <time>2022-08-20T10:19:25Z</time>
      </trkpt>
      <trkpt lat="44.10566" lon="6.66063">
        <ele>2111</ele>
        <time>2022-08-20T10:19:26Z</time>
      </trkpt>
      <trkpt lat="44.10566" lon="6.66057">
        <ele>2110</ele>
        <time>2022-08-20T10:19:32Z</time>
      </trkpt>
      <trkpt lat="44.10568" lon="6.66051">
        <ele>2109.1999511719</ele>
        <time>2022-08-20T10:19:42Z</time>
      </trkpt>
      <trkpt lat="44.10568" lon="6.66049">
        <ele>2109.1999511719</ele>
        <time>2022-08-20T10:19:47Z</time>
      </trkpt>
      <trkpt lat="44.10568" lon="6.66049">
        <ele>2109</ele>
        <time>2022-08-20T10:19:48Z</time>
      </trkpt>
      <trkpt lat="44.10568" lon="6.6605">
        <ele>2109</ele>
        <time>2022-08-20T10:19:50Z</time>
      </trkpt>
      <trkpt lat="44.10567" lon="6.66048">
        <ele>2108.8000488281</ele>
        <time>2022-08-20T10:19:57Z</time>
      </trkpt>
      <trkpt lat="44.10565" lon="6.66036">
        <ele>2108.3999023438</ele>
        <time>2022-08-20T10:20:02Z</time>
      </trkpt>
      <trkpt lat="44.10566" lon="6.66032">
        <ele>2107.6000976562</ele>
        <time>2022-08-20T10:20:04Z</time>
      </trkpt>
      <trkpt lat="44.10567" lon="6.6603">
        <ele>2107.3999023438</ele>
        <time>2022-08-20T10:20:05Z</time>
      </trkpt>
      <trkpt lat="44.10568" lon="6.66026">
        <ele>2106.6000976562</ele>
        <time>2022-08-20T10:20:08Z</time>
      </trkpt>
      <trkpt lat="44.1057" lon="6.66019">
        <ele>2105.6000976562</ele>
        <time>2022-08-20T10:20:11Z</time>
      </trkpt>
      <trkpt lat="44.10571" lon="6.66017">
        <ele>2105.1999511719</ele>
        <time>2022-08-20T10:20:12Z</time>
      </trkpt>
      <trkpt lat="44.10572" lon="6.66013">
        <ele>2104.1999511719</ele>
        <time>2022-08-20T10:20:14Z</time>
      </trkpt>
      <trkpt lat="44.10572" lon="6.66011">
        <ele>2103.3999023438</ele>
        <time>2022-08-20T10:20:16Z</time>
      </trkpt>
      <trkpt lat="44.10571" lon="6.6601">
        <ele>2103</ele>
        <time>2022-08-20T10:20:18Z</time>
      </trkpt>
      <trkpt lat="44.1057" lon="6.6601">
        <ele>2102.8000488281</ele>
        <time>2022-08-20T10:20:20Z</time>
      </trkpt>
      <trkpt lat="44.10568" lon="6.66005">
        <ele>2102.3999023438</ele>
        <time>2022-08-20T10:20:27Z</time>
      </trkpt>
      <trkpt lat="44.10568" lon="6.66004">
        <ele>2102.3999023438</ele>
        <time>2022-08-20T10:20:30Z</time>
      </trkpt>
      <trkpt lat="44.10568" lon="6.65998">
        <ele>2102.1999511719</ele>
        <time>2022-08-20T10:20:34Z</time>
      </trkpt>
      <trkpt lat="44.10568" lon="6.65995">
        <ele>2101.8000488281</ele>
        <time>2022-08-20T10:20:36Z</time>
      </trkpt>
      <trkpt lat="44.1057" lon="6.65991">
        <ele>2101.1999511719</ele>
        <time>2022-08-20T10:20:38Z</time>
      </trkpt>
      <trkpt lat="44.10571" lon="6.65984">
        <ele>2100.8000488281</ele>
        <time>2022-08-20T10:20:41Z</time>
      </trkpt>
      <trkpt lat="44.10571" lon="6.65983">
        <ele>2100.6000976562</ele>
        <time>2022-08-20T10:20:42Z</time>
      </trkpt>
      <trkpt lat="44.10571" lon="6.65982">
        <ele>2100.3999023438</ele>
        <time>2022-08-20T10:20:43Z</time>
      </trkpt>
      <trkpt lat="44.10572" lon="6.65981">
        <ele>2100.3999023438</ele>
        <time>2022-08-20T10:20:46Z</time>
      </trkpt>
      <trkpt lat="44.10572" lon="6.65981">
        <ele>2100.3999023438</ele>
        <time>2022-08-20T10:20:49Z</time>
      </trkpt>
      <trkpt lat="44.10572" lon="6.65981">
        <ele>2100.3999023438</ele>
        <time>2022-08-20T10:20:50Z</time>
      </trkpt>
      <trkpt lat="44.10572" lon="6.65981">
        <ele>2100.1999511719</ele>
        <time>2022-08-20T10:20:55Z</time>
      </trkpt>
      <trkpt lat="44.10571" lon="6.65979">
        <ele>2100.1999511719</ele>
        <time>2022-08-20T10:20:56Z</time>
      </trkpt>
      <trkpt lat="44.10564" lon="6.65973">
        <ele>2099.8000488281</ele>
        <time>2022-08-20T10:21:02Z</time>
      </trkpt>
      <trkpt lat="44.10561" lon="6.65971">
        <ele>2100</ele>
        <time>2022-08-20T10:21:04Z</time>
      </trkpt>
      <trkpt lat="44.10555" lon="6.65966">
        <ele>2100.8000488281</ele>
        <time>2022-08-20T10:21:08Z</time>
      </trkpt>
      <trkpt lat="44.10553" lon="6.65964">
        <ele>2101.3999023438</ele>
        <time>2022-08-20T10:21:10Z</time>
      </trkpt>
      <trkpt lat="44.10551" lon="6.65961">
        <ele>2101.8000488281</ele>
        <time>2022-08-20T10:21:12Z</time>
      </trkpt>
      <trkpt lat="44.1055" lon="6.6596">
        <ele>2102</ele>
        <time>2022-08-20T10:21:13Z</time>
      </trkpt>
      <trkpt lat="44.10549" lon="6.65957">
        <ele>2102.1999511719</ele>
        <time>2022-08-20T10:21:15Z</time>
      </trkpt>
      <trkpt lat="44.10543" lon="6.65949">
        <ele>2103.1999511719</ele>
        <time>2022-08-20T10:21:21Z</time>
      </trkpt>
      <trkpt lat="44.10538" lon="6.65946">
        <ele>2103.6000976562</ele>
        <time>2022-08-20T10:21:24Z</time>
      </trkpt>
      <trkpt lat="44.10536" lon="6.65945">
        <ele>2104.3999023438</ele>
        <time>2022-08-20T10:21:26Z</time>
      </trkpt>
      <trkpt lat="44.10536" lon="6.65945">
        <ele>2104.6000976562</ele>
        <time>2022-08-20T10:21:27Z</time>
      </trkpt>
      <trkpt lat="44.10537" lon="6.65946">
        <ele>2105.1999511719</ele>
        <time>2022-08-20T10:21:31Z</time>
      </trkpt>
      <trkpt lat="44.10535" lon="6.65944">
        <ele>2105.3999023438</ele>
        <time>2022-08-20T10:21:36Z</time>
      </trkpt>
      <trkpt lat="44.10535" lon="6.65944">
        <ele>2105.3999023438</ele>
        <time>2022-08-20T10:21:38Z</time>
      </trkpt>
      <trkpt lat="44.10534" lon="6.65944">
        <ele>2105.3999023438</ele>
        <time>2022-08-20T10:21:39Z</time>
      </trkpt>
      <trkpt lat="44.1053" lon="6.65942">
        <ele>2106</ele>
        <time>2022-08-20T10:21:45Z</time>
      </trkpt>
      <trkpt lat="44.10528" lon="6.65941">
        <ele>2106.3999023438</ele>
        <time>2022-08-20T10:21:48Z</time>
      </trkpt>
      <trkpt lat="44.10525" lon="6.65937">
        <ele>2107.1999511719</ele>
        <time>2022-08-20T10:21:53Z</time>
      </trkpt>
      <trkpt lat="44.10524" lon="6.65936">
        <ele>2107.6000976562</ele>
        <time>2022-08-20T10:21:55Z</time>
      </trkpt>
      <trkpt lat="44.1052" lon="6.6593">
        <ele>2108.6000976562</ele>
        <time>2022-08-20T10:22:02Z</time>
      </trkpt>
      <trkpt lat="44.10515" lon="6.65925">
        <ele>2109.3999023438</ele>
        <time>2022-08-20T10:22:08Z</time>
      </trkpt>
      <trkpt lat="44.10514" lon="6.65924">
        <ele>2109.6000976562</ele>
        <time>2022-08-20T10:22:09Z</time>
      </trkpt>
      <trkpt lat="44.10507" lon="6.6592">
        <ele>2110.8000488281</ele>
        <time>2022-08-20T10:22:18Z</time>
      </trkpt>
      <trkpt lat="44.10505" lon="6.65918">
        <ele>2111</ele>
        <time>2022-08-20T10:22:20Z</time>
      </trkpt>
      <trkpt lat="44.10503" lon="6.65915">
        <ele>2111.8000488281</ele>
        <time>2022-08-20T10:22:25Z</time>
      </trkpt>
      <trkpt lat="44.105" lon="6.65913">
        <ele>2112</ele>
        <time>2022-08-20T10:22:28Z</time>
      </trkpt>
      <trkpt lat="44.10496" lon="6.65912">
        <ele>2112.1999511719</ele>
        <time>2022-08-20T10:22:38Z</time>
      </trkpt>
      <trkpt lat="44.10495" lon="6.65912">
        <ele>2112.1999511719</ele>
        <time>2022-08-20T10:22:43Z</time>
      </trkpt>
      <trkpt lat="44.10494" lon="6.65912">
        <ele>2112</ele>
        <time>2022-08-20T10:22:45Z</time>
      </trkpt>
      <trkpt lat="44.10493" lon="6.6591">
        <ele>2112</ele>
        <time>2022-08-20T10:22:47Z</time>
      </trkpt>
      <trkpt lat="44.10492" lon="6.65908">
        <ele>2111.8000488281</ele>
        <time>2022-08-20T10:22:48Z</time>
      </trkpt>
      <trkpt lat="44.10486" lon="6.659">
        <ele>2110.8000488281</ele>
        <time>2022-08-20T10:22:52Z</time>
      </trkpt>
      <trkpt lat="44.10485" lon="6.65899">
        <ele>2110.6000976562</ele>
        <time>2022-08-20T10:22:53Z</time>
      </trkpt>
      <trkpt lat="44.10484" lon="6.65897">
        <ele>2110.3999023438</ele>
        <time>2022-08-20T10:22:54Z</time>
      </trkpt>
      <trkpt lat="44.10481" lon="6.65895">
        <ele>2109.6000976562</ele>
        <time>2022-08-20T10:22:57Z</time>
      </trkpt>
      <trkpt lat="44.10481" lon="6.65895">
        <ele>2108.8000488281</ele>
        <time>2022-08-20T10:23:00Z</time>
      </trkpt>
      <trkpt lat="44.10479" lon="6.65895">
        <ele>2108.3999023438</ele>
        <time>2022-08-20T10:23:02Z</time>
      </trkpt>
      <trkpt lat="44.10477" lon="6.65891">
        <ele>2108</ele>
        <time>2022-08-20T10:23:05Z</time>
      </trkpt>
      <trkpt lat="44.10475" lon="6.65889">
        <ele>2107.3999023438</ele>
        <time>2022-08-20T10:23:07Z</time>
      </trkpt>
      <trkpt lat="44.10474" lon="6.65888">
        <ele>2107.1999511719</ele>
        <time>2022-08-20T10:23:08Z</time>
      </trkpt>
      <trkpt lat="44.10472" lon="6.65884">
        <ele>2106.1999511719</ele>
        <time>2022-08-20T10:23:11Z</time>
      </trkpt>
      <trkpt lat="44.10472" lon="6.65884">
        <ele>2106</ele>
        <time>2022-08-20T10:23:12Z</time>
      </trkpt>
      <trkpt lat="44.10472" lon="6.65883">
        <ele>2105.3999023438</ele>
        <time>2022-08-20T10:23:14Z</time>
      </trkpt>
      <trkpt lat="44.10471" lon="6.65882">
        <ele>2105.1999511719</ele>
        <time>2022-08-20T10:23:15Z</time>
      </trkpt>
      <trkpt lat="44.1047" lon="6.65881">
        <ele>2105</ele>
        <time>2022-08-20T10:23:17Z</time>
      </trkpt>
      <trkpt lat="44.10469" lon="6.65877">
        <ele>2104</ele>
        <time>2022-08-20T10:23:22Z</time>
      </trkpt>
      <trkpt lat="44.10468" lon="6.65875">
        <ele>2102.8000488281</ele>
        <time>2022-08-20T10:23:27Z</time>
      </trkpt>
      <trkpt lat="44.10467" lon="6.65872">
        <ele>2101.8000488281</ele>
        <time>2022-08-20T10:23:31Z</time>
      </trkpt>
      <trkpt lat="44.10466" lon="6.65872">
        <ele>2101.3999023438</ele>
        <time>2022-08-20T10:23:32Z</time>
      </trkpt>
      <trkpt lat="44.10464" lon="6.65869">
        <ele>2100.3999023438</ele>
        <time>2022-08-20T10:23:37Z</time>
      </trkpt>
      <trkpt lat="44.10464" lon="6.65869">
        <ele>2099.8000488281</ele>
        <time>2022-08-20T10:23:41Z</time>
      </trkpt>
      <trkpt lat="44.10457" lon="6.65862">
        <ele>2099</ele>
        <time>2022-08-20T10:23:49Z</time>
      </trkpt>
      <trkpt lat="44.10457" lon="6.65862">
        <ele>2098.8000488281</ele>
        <time>2022-08-20T10:23:50Z</time>
      </trkpt>
      <trkpt lat="44.10453" lon="6.6586">
        <ele>2098.3999023438</ele>
        <time>2022-08-20T10:23:51Z</time>
      </trkpt>
      <trkpt lat="44.10453" lon="6.6586">
        <ele>2098</ele>
        <time>2022-08-20T10:23:52Z</time>
      </trkpt>
      <trkpt lat="44.10449" lon="6.65859">
        <ele>2097.1999511719</ele>
        <time>2022-08-20T10:23:54Z</time>
      </trkpt>
      <trkpt lat="44.10448" lon="6.65858">
        <ele>2097</ele>
        <time>2022-08-20T10:23:55Z</time>
      </trkpt>
      <trkpt lat="44.10448" lon="6.65858">
        <ele>2096.6000976562</ele>
        <time>2022-08-20T10:23:56Z</time>
      </trkpt>
      <trkpt lat="44.10446" lon="6.65856">
        <ele>2096.3999023438</ele>
        <time>2022-08-20T10:23:57Z</time>
      </trkpt>
      <trkpt lat="44.10445" lon="6.65854">
        <ele>2095.8000488281</ele>
        <time>2022-08-20T10:23:59Z</time>
      </trkpt>
      <trkpt lat="44.10444" lon="6.65853">
        <ele>2095.3999023438</ele>
        <time>2022-08-20T10:24:01Z</time>
      </trkpt>
      <trkpt lat="44.10442" lon="6.65852">
        <ele>2095.1999511719</ele>
        <time>2022-08-20T10:24:02Z</time>
      </trkpt>
      <trkpt lat="44.10442" lon="6.65851">
        <ele>2094.8000488281</ele>
        <time>2022-08-20T10:24:03Z</time>
      </trkpt>
      <trkpt lat="44.10437" lon="6.65846">
        <ele>2093.8000488281</ele>
        <time>2022-08-20T10:24:07Z</time>
      </trkpt>
      <trkpt lat="44.10432" lon="6.65843">
        <ele>2092.6000976562</ele>
        <time>2022-08-20T10:24:10Z</time>
      </trkpt>
      <trkpt lat="44.10427" lon="6.65837">
        <ele>2091.3999023438</ele>
        <time>2022-08-20T10:24:13Z</time>
      </trkpt>
      <trkpt lat="44.10421" lon="6.65833">
        <ele>2090.1999511719</ele>
        <time>2022-08-20T10:24:16Z</time>
      </trkpt>
      <trkpt lat="44.10415" lon="6.65825">
        <ele>2089</ele>
        <time>2022-08-20T10:24:19Z</time>
      </trkpt>
      <trkpt lat="44.10413" lon="6.65824">
        <ele>2088.6000976562</ele>
        <time>2022-08-20T10:24:20Z</time>
      </trkpt>
      <trkpt lat="44.10408" lon="6.65818">
        <ele>2087.8000488281</ele>
        <time>2022-08-20T10:24:23Z</time>
      </trkpt>
      <trkpt lat="44.10402" lon="6.65813">
        <ele>2086.6000976562</ele>
        <time>2022-08-20T10:24:26Z</time>
      </trkpt>
      <trkpt lat="44.10399" lon="6.6581">
        <ele>2085.6000976562</ele>
        <time>2022-08-20T10:24:29Z</time>
      </trkpt>
      <trkpt lat="44.10399" lon="6.6581">
        <ele>2085.1999511719</ele>
        <time>2022-08-20T10:24:31Z</time>
      </trkpt>
      <trkpt lat="44.10399" lon="6.6581">
        <ele>2085</ele>
        <time>2022-08-20T10:24:32Z</time>
      </trkpt>
      <trkpt lat="44.10399" lon="6.6581">
        <ele>2085</ele>
        <time>2022-08-20T10:24:33Z</time>
      </trkpt>
      <trkpt lat="44.10399" lon="6.6581">
        <ele>2084.8000488281</ele>
        <time>2022-08-20T10:24:35Z</time>
      </trkpt>
      <trkpt lat="44.10397" lon="6.65809">
        <ele>2084.8000488281</ele>
        <time>2022-08-20T10:24:39Z</time>
      </trkpt>
      <trkpt lat="44.10391" lon="6.65803">
        <ele>2084.3999023438</ele>
        <time>2022-08-20T10:24:42Z</time>
      </trkpt>
      <trkpt lat="44.10389" lon="6.65801">
        <ele>2084.1999511719</ele>
        <time>2022-08-20T10:24:43Z</time>
      </trkpt>
      <trkpt lat="44.10385" lon="6.65799">
        <ele>2083.1999511719</ele>
        <time>2022-08-20T10:24:46Z</time>
      </trkpt>
      <trkpt lat="44.10374" lon="6.65788">
        <ele>2082</ele>
        <time>2022-08-20T10:24:50Z</time>
      </trkpt>
      <trkpt lat="44.10364" lon="6.65779">
        <ele>2080.6000976562</ele>
        <time>2022-08-20T10:24:54Z</time>
      </trkpt>
      <trkpt lat="44.10355" lon="6.65773">
        <ele>2079.3999023438</ele>
        <time>2022-08-20T10:24:57Z</time>
      </trkpt>
      <trkpt lat="44.10349" lon="6.65765">
        <ele>2078</ele>
        <time>2022-08-20T10:25:00Z</time>
      </trkpt>
      <trkpt lat="44.10347" lon="6.65763">
        <ele>2077</ele>
        <time>2022-08-20T10:25:02Z</time>
      </trkpt>
      <trkpt lat="44.10344" lon="6.6576">
        <ele>2076.6000976562</ele>
        <time>2022-08-20T10:25:03Z</time>
      </trkpt>
      <trkpt lat="44.10339" lon="6.65757">
        <ele>2076</ele>
        <time>2022-08-20T10:25:05Z</time>
      </trkpt>
      <trkpt lat="44.10331" lon="6.6575">
        <ele>2074.6000976562</ele>
        <time>2022-08-20T10:25:09Z</time>
      </trkpt>
      <trkpt lat="44.10328" lon="6.65747">
        <ele>2074</ele>
        <time>2022-08-20T10:25:11Z</time>
      </trkpt>
      <trkpt lat="44.10326" lon="6.65743">
        <ele>2073.3999023438</ele>
        <time>2022-08-20T10:25:13Z</time>
      </trkpt>
      <trkpt lat="44.10321" lon="6.65737">
        <ele>2072.3999023438</ele>
        <time>2022-08-20T10:25:17Z</time>
      </trkpt>
      <trkpt lat="44.1032" lon="6.65735">
        <ele>2072.1999511719</ele>
        <time>2022-08-20T10:25:18Z</time>
      </trkpt>
      <trkpt lat="44.10319" lon="6.65732">
        <ele>2071.6000976562</ele>
        <time>2022-08-20T10:25:20Z</time>
      </trkpt>
      <trkpt lat="44.10315" lon="6.65725">
        <ele>2071.1999511719</ele>
        <time>2022-08-20T10:25:21Z</time>
      </trkpt>
      <trkpt lat="44.10311" lon="6.65718">
        <ele>2070</ele>
        <time>2022-08-20T10:25:23Z</time>
      </trkpt>
      <trkpt lat="44.10308" lon="6.65712">
        <ele>2069</ele>
        <time>2022-08-20T10:25:25Z</time>
      </trkpt>
      <trkpt lat="44.10308" lon="6.65712">
        <ele>2068.8000488281</ele>
        <time>2022-08-20T10:25:26Z</time>
      </trkpt>
      <trkpt lat="44.10303" lon="6.65702">
        <ele>2067.8000488281</ele>
        <time>2022-08-20T10:25:29Z</time>
      </trkpt>
      <trkpt lat="44.103" lon="6.65698">
        <ele>2067.1999511719</ele>
        <time>2022-08-20T10:25:30Z</time>
      </trkpt>
      <trkpt lat="44.10297" lon="6.65695">
        <ele>2066</ele>
        <time>2022-08-20T10:25:32Z</time>
      </trkpt>
      <trkpt lat="44.10283" lon="6.65682">
        <ele>2064.8000488281</ele>
        <time>2022-08-20T10:25:35Z</time>
      </trkpt>
      <trkpt lat="44.10272" lon="6.6567">
        <ele>2063.6000976562</ele>
        <time>2022-08-20T10:25:39Z</time>
      </trkpt>
      <trkpt lat="44.10265" lon="6.6566">
        <ele>2062.3999023438</ele>
        <time>2022-08-20T10:25:42Z</time>
      </trkpt>
      <trkpt lat="44.10258" lon="6.65653">
        <ele>2061.3999023438</ele>
        <time>2022-08-20T10:25:45Z</time>
      </trkpt>
      <trkpt lat="44.10256" lon="6.65649">
        <ele>2061.1999511719</ele>
        <time>2022-08-20T10:25:47Z</time>
      </trkpt>
      <trkpt lat="44.10249" lon="6.65639">
        <ele>2060.8000488281</ele>
        <time>2022-08-20T10:25:50Z</time>
      </trkpt>
      <trkpt lat="44.10246" lon="6.65635">
        <ele>2060.1999511719</ele>
        <time>2022-08-20T10:25:52Z</time>
      </trkpt>
      <trkpt lat="44.1023" lon="6.65613">
        <ele>2059</ele>
        <time>2022-08-20T10:25:57Z</time>
      </trkpt>
      <trkpt lat="44.10221" lon="6.65601">
        <ele>2058</ele>
        <time>2022-08-20T10:26:00Z</time>
      </trkpt>
      <trkpt lat="44.10214" lon="6.65591">
        <ele>2056.8000488281</ele>
        <time>2022-08-20T10:26:04Z</time>
      </trkpt>
      <trkpt lat="44.10208" lon="6.65585">
        <ele>2056.3999023438</ele>
        <time>2022-08-20T10:26:05Z</time>
      </trkpt>
      <trkpt lat="44.10202" lon="6.65579">
        <ele>2055.8000488281</ele>
        <time>2022-08-20T10:26:08Z</time>
      </trkpt>
      <trkpt lat="44.10188" lon="6.65564">
        <ele>2054.6000976562</ele>
        <time>2022-08-20T10:26:12Z</time>
      </trkpt>
      <trkpt lat="44.1018" lon="6.65558">
        <ele>2054</ele>
        <time>2022-08-20T10:26:15Z</time>
      </trkpt>
      <trkpt lat="44.10176" lon="6.65554">
        <ele>2053.6000976562</ele>
        <time>2022-08-20T10:26:17Z</time>
      </trkpt>
      <trkpt lat="44.10169" lon="6.65545">
        <ele>2052.6000976562</ele>
        <time>2022-08-20T10:26:21Z</time>
      </trkpt>
      <trkpt lat="44.10169" lon="6.65545">
        <ele>2052.3999023438</ele>
        <time>2022-08-20T10:26:22Z</time>
      </trkpt>
      <trkpt lat="44.10162" lon="6.65535">
        <ele>2051.8000488281</ele>
        <time>2022-08-20T10:26:24Z</time>
      </trkpt>
      <trkpt lat="44.10159" lon="6.65532">
        <ele>2051.1999511719</ele>
        <time>2022-08-20T10:26:26Z</time>
      </trkpt>
      <trkpt lat="44.10145" lon="6.65517">
        <ele>2050.3999023438</ele>
        <time>2022-08-20T10:26:30Z</time>
      </trkpt>
      <trkpt lat="44.10142" lon="6.65514">
        <ele>2050.1999511719</ele>
        <time>2022-08-20T10:26:31Z</time>
      </trkpt>
      <trkpt lat="44.10133" lon="6.65502">
        <ele>2049</ele>
        <time>2022-08-20T10:26:35Z</time>
      </trkpt>
      <trkpt lat="44.10128" lon="6.65498">
        <ele>2048.6000976562</ele>
        <time>2022-08-20T10:26:37Z</time>
      </trkpt>
      <trkpt lat="44.10123" lon="6.65493">
        <ele>2047.8000488281</ele>
        <time>2022-08-20T10:26:40Z</time>
      </trkpt>
      <trkpt lat="44.10113" lon="6.65485">
        <ele>2046.8000488281</ele>
        <time>2022-08-20T10:26:44Z</time>
      </trkpt>
      <trkpt lat="44.10109" lon="6.6548">
        <ele>2046.5999755859</ele>
        <time>2022-08-20T10:26:45Z</time>
      </trkpt>
      <trkpt lat="44.101" lon="6.65472">
        <ele>2045.8000488281</ele>
        <time>2022-08-20T10:26:48Z</time>
      </trkpt>
      <trkpt lat="44.10092" lon="6.65462">
        <ele>2044.5999755859</ele>
        <time>2022-08-20T10:26:52Z</time>
      </trkpt>
      <trkpt lat="44.10087" lon="6.65455">
        <ele>2044</ele>
        <time>2022-08-20T10:26:54Z</time>
      </trkpt>
      <trkpt lat="44.10085" lon="6.65452">
        <ele>2043.4000244141</ele>
        <time>2022-08-20T10:26:56Z</time>
      </trkpt>
      <trkpt lat="44.10073" lon="6.65437">
        <ele>2042.1999511719</ele>
        <time>2022-08-20T10:27:00Z</time>
      </trkpt>
      <trkpt lat="44.1007" lon="6.65435">
        <ele>2041.8000488281</ele>
        <time>2022-08-20T10:27:02Z</time>
      </trkpt>
      <trkpt lat="44.10064" lon="6.6543">
        <ele>2041.5999755859</ele>
        <time>2022-08-20T10:27:03Z</time>
      </trkpt>
      <trkpt lat="44.10057" lon="6.65426">
        <ele>2041</ele>
        <time>2022-08-20T10:27:05Z</time>
      </trkpt>
      <trkpt lat="44.10047" lon="6.65417">
        <ele>2039.8000488281</ele>
        <time>2022-08-20T10:27:09Z</time>
      </trkpt>
      <trkpt lat="44.10038" lon="6.65409">
        <ele>2038.5999755859</ele>
        <time>2022-08-20T10:27:12Z</time>
      </trkpt>
      <trkpt lat="44.10026" lon="6.65401">
        <ele>2037.5999755859</ele>
        <time>2022-08-20T10:27:15Z</time>
      </trkpt>
      <trkpt lat="44.10009" lon="6.65392">
        <ele>2036.4000244141</ele>
        <time>2022-08-20T10:27:19Z</time>
      </trkpt>
      <trkpt lat="44.10001" lon="6.6539">
        <ele>2036</ele>
        <time>2022-08-20T10:27:21Z</time>
      </trkpt>
      <trkpt lat="44.09993" lon="6.65389">
        <ele>2035.4000244141</ele>
        <time>2022-08-20T10:27:23Z</time>
      </trkpt>
      <trkpt lat="44.09984" lon="6.65392">
        <ele>2034.8000488281</ele>
        <time>2022-08-20T10:27:26Z</time>
      </trkpt>
      <trkpt lat="44.09981" lon="6.65396">
        <ele>2034.4000244141</ele>
        <time>2022-08-20T10:27:29Z</time>
      </trkpt>
      <trkpt lat="44.0998" lon="6.65398">
        <ele>2034.1999511719</ele>
        <time>2022-08-20T10:27:30Z</time>
      </trkpt>
      <trkpt lat="44.09978" lon="6.65416">
        <ele>2033.4000244141</ele>
        <time>2022-08-20T10:27:34Z</time>
      </trkpt>
      <trkpt lat="44.09978" lon="6.6542">
        <ele>2033</ele>
        <time>2022-08-20T10:27:35Z</time>
      </trkpt>
      <trkpt lat="44.09977" lon="6.65436">
        <ele>2032.1999511719</ele>
        <time>2022-08-20T10:27:39Z</time>
      </trkpt>
      <trkpt lat="44.09976" lon="6.6545">
        <ele>2031.5999755859</ele>
        <time>2022-08-20T10:27:42Z</time>
      </trkpt>
      <trkpt lat="44.09975" lon="6.65453">
        <ele>2031.1999511719</ele>
        <time>2022-08-20T10:27:43Z</time>
      </trkpt>
      <trkpt lat="44.09975" lon="6.65456">
        <ele>2030.8000488281</ele>
        <time>2022-08-20T10:27:44Z</time>
      </trkpt>
      <trkpt lat="44.09974" lon="6.65472">
        <ele>2030.1999511719</ele>
        <time>2022-08-20T10:27:47Z</time>
      </trkpt>
      <trkpt lat="44.09972" lon="6.65482">
        <ele>2029.8000488281</ele>
        <time>2022-08-20T10:27:49Z</time>
      </trkpt>
      <trkpt lat="44.09969" lon="6.65498">
        <ele>2029</ele>
        <time>2022-08-20T10:27:52Z</time>
      </trkpt>
      <trkpt lat="44.09967" lon="6.65506">
        <ele>2028.4000244141</ele>
        <time>2022-08-20T10:27:54Z</time>
      </trkpt>
      <trkpt lat="44.09966" lon="6.65517">
        <ele>2027.8000488281</ele>
        <time>2022-08-20T10:27:56Z</time>
      </trkpt>
      <trkpt lat="44.09963" lon="6.65536">
        <ele>2027</ele>
        <time>2022-08-20T10:28:00Z</time>
      </trkpt>
      <trkpt lat="44.09961" lon="6.65541">
        <ele>2026.5999755859</ele>
        <time>2022-08-20T10:28:01Z</time>
      </trkpt>
      <trkpt lat="44.09957" lon="6.65564">
        <ele>2025.4000244141</ele>
        <time>2022-08-20T10:28:05Z</time>
      </trkpt>
      <trkpt lat="44.09954" lon="6.65576">
        <ele>2024.5999755859</ele>
        <time>2022-08-20T10:28:07Z</time>
      </trkpt>
      <trkpt lat="44.09953" lon="6.65583">
        <ele>2024.4000244141</ele>
        <time>2022-08-20T10:28:08Z</time>
      </trkpt>
      <trkpt lat="44.09949" lon="6.65604">
        <ele>2023.4000244141</ele>
        <time>2022-08-20T10:28:12Z</time>
      </trkpt>
      <trkpt lat="44.09947" lon="6.65607">
        <ele>2023.1999511719</ele>
        <time>2022-08-20T10:28:13Z</time>
      </trkpt>
      <trkpt lat="44.09941" lon="6.6562">
        <ele>2022.4000244141</ele>
        <time>2022-08-20T10:28:17Z</time>
      </trkpt>
      <trkpt lat="44.0994" lon="6.65624">
        <ele>2022.1999511719</ele>
        <time>2022-08-20T10:28:18Z</time>
      </trkpt>
      <trkpt lat="44.09934" lon="6.65642">
        <ele>2021.4000244141</ele>
        <time>2022-08-20T10:28:22Z</time>
      </trkpt>
      <trkpt lat="44.09932" lon="6.65647">
        <ele>2021.1999511719</ele>
        <time>2022-08-20T10:28:23Z</time>
      </trkpt>
      <trkpt lat="44.09926" lon="6.65661">
        <ele>2020.4000244141</ele>
        <time>2022-08-20T10:28:26Z</time>
      </trkpt>
      <trkpt lat="44.09924" lon="6.65667">
        <ele>2020.1999511719</ele>
        <time>2022-08-20T10:28:27Z</time>
      </trkpt>
      <trkpt lat="44.09922" lon="6.65672">
        <ele>2020</ele>
        <time>2022-08-20T10:28:28Z</time>
      </trkpt>
      <trkpt lat="44.09914" lon="6.65689">
        <ele>2019</ele>
        <time>2022-08-20T10:28:31Z</time>
      </trkpt>
      <trkpt lat="44.09908" lon="6.65702">
        <ele>2018.5999755859</ele>
        <time>2022-08-20T10:28:34Z</time>
      </trkpt>
      <trkpt lat="44.09903" lon="6.65711">
        <ele>2018.1999511719</ele>
        <time>2022-08-20T10:28:37Z</time>
      </trkpt>
      <trkpt lat="44.09901" lon="6.65714">
        <ele>2018</ele>
        <time>2022-08-20T10:28:38Z</time>
      </trkpt>
      <trkpt lat="44.09898" lon="6.6572">
        <ele>2017.5999755859</ele>
        <time>2022-08-20T10:28:39Z</time>
      </trkpt>
      <trkpt lat="44.09892" lon="6.6573">
        <ele>2017</ele>
        <time>2022-08-20T10:28:42Z</time>
      </trkpt>
      <trkpt lat="44.09892" lon="6.65731">
        <ele>2016.8000488281</ele>
        <time>2022-08-20T10:28:43Z</time>
      </trkpt>
      <trkpt lat="44.09892" lon="6.65732">
        <ele>2016.5999755859</ele>
        <time>2022-08-20T10:28:44Z</time>
      </trkpt>
      <trkpt lat="44.09892" lon="6.65734">
        <ele>2016.5999755859</ele>
        <time>2022-08-20T10:28:47Z</time>
      </trkpt>
      <trkpt lat="44.09892" lon="6.65734">
        <ele>2016.5999755859</ele>
        <time>2022-08-20T10:28:49Z</time>
      </trkpt>
      <trkpt lat="44.09892" lon="6.65735">
        <ele>2016.4000244141</ele>
        <time>2022-08-20T10:28:55Z</time>
      </trkpt>
      <trkpt lat="44.09892" lon="6.65735">
        <ele>2016.4000244141</ele>
        <time>2022-08-20T10:28:58Z</time>
      </trkpt>
      <trkpt lat="44.09893" lon="6.65737">
        <ele>2016.1999511719</ele>
        <time>2022-08-20T10:29:06Z</time>
      </trkpt>
      <trkpt lat="44.09888" lon="6.65742">
        <ele>2015.8000488281</ele>
        <time>2022-08-20T10:29:19Z</time>
      </trkpt>
      <trkpt lat="44.09884" lon="6.65747">
        <ele>2015.4000244141</ele>
        <time>2022-08-20T10:29:21Z</time>
      </trkpt>
      <trkpt lat="44.09879" lon="6.65753">
        <ele>2014.8000488281</ele>
        <time>2022-08-20T10:29:24Z</time>
      </trkpt>
      <trkpt lat="44.09875" lon="6.65762">
        <ele>2014.1999511719</ele>
        <time>2022-08-20T10:29:27Z</time>
      </trkpt>
      <trkpt lat="44.09871" lon="6.65773">
        <ele>2013.8000488281</ele>
        <time>2022-08-20T10:29:30Z</time>
      </trkpt>
      <trkpt lat="44.09862" lon="6.65795">
        <ele>2012.5999755859</ele>
        <time>2022-08-20T10:29:35Z</time>
      </trkpt>
      <trkpt lat="44.09854" lon="6.6581">
        <ele>2011.5999755859</ele>
        <time>2022-08-20T10:29:39Z</time>
      </trkpt>
      <trkpt lat="44.09852" lon="6.6582">
        <ele>2011</ele>
        <time>2022-08-20T10:29:41Z</time>
      </trkpt>
      <trkpt lat="44.0985" lon="6.65832">
        <ele>2010.4000244141</ele>
        <time>2022-08-20T10:29:44Z</time>
      </trkpt>
      <trkpt lat="44.09848" lon="6.65835">
        <ele>2010.1999511719</ele>
        <time>2022-08-20T10:29:45Z</time>
      </trkpt>
      <trkpt lat="44.09845" lon="6.65838">
        <ele>2009.8000488281</ele>
        <time>2022-08-20T10:29:46Z</time>
      </trkpt>
      <trkpt lat="44.09842" lon="6.6584">
        <ele>2009.1999511719</ele>
        <time>2022-08-20T10:29:48Z</time>
      </trkpt>
      <trkpt lat="44.0984" lon="6.6584">
        <ele>2008.4000244141</ele>
        <time>2022-08-20T10:29:50Z</time>
      </trkpt>
      <trkpt lat="44.09839" lon="6.6584">
        <ele>2008</ele>
        <time>2022-08-20T10:29:51Z</time>
      </trkpt>
      <trkpt lat="44.09835" lon="6.65842">
        <ele>2006.8000488281</ele>
        <time>2022-08-20T10:29:54Z</time>
      </trkpt>
      <trkpt lat="44.09834" lon="6.65843">
        <ele>2006.1999511719</ele>
        <time>2022-08-20T10:29:55Z</time>
      </trkpt>
      <trkpt lat="44.09834" lon="6.65844">
        <ele>2005.8000488281</ele>
        <time>2022-08-20T10:29:56Z</time>
      </trkpt>
      <trkpt lat="44.09834" lon="6.65845">
        <ele>2005.4000244141</ele>
        <time>2022-08-20T10:29:57Z</time>
      </trkpt>
      <trkpt lat="44.09833" lon="6.65848">
        <ele>2005</ele>
        <time>2022-08-20T10:29:58Z</time>
      </trkpt>
      <trkpt lat="44.09834" lon="6.65851">
        <ele>2004.5999755859</ele>
        <time>2022-08-20T10:29:59Z</time>
      </trkpt>
      <trkpt lat="44.09834" lon="6.65855">
        <ele>2004</ele>
        <time>2022-08-20T10:30:00Z</time>
      </trkpt>
      <trkpt lat="44.09835" lon="6.65858">
        <ele>2003.4000244141</ele>
        <time>2022-08-20T10:30:01Z</time>
      </trkpt>
      <trkpt lat="44.09837" lon="6.65868">
        <ele>2002</ele>
        <time>2022-08-20T10:30:04Z</time>
      </trkpt>
      <trkpt lat="44.09841" lon="6.6588">
        <ele>2000.8000488281</ele>
        <time>2022-08-20T10:30:07Z</time>
      </trkpt>
      <trkpt lat="44.09843" lon="6.65885">
        <ele>2000.1999511719</ele>
        <time>2022-08-20T10:30:08Z</time>
      </trkpt>
      <trkpt lat="44.09843" lon="6.6589">
        <ele>1999.8000488281</ele>
        <time>2022-08-20T10:30:09Z</time>
      </trkpt>
      <trkpt lat="44.09842" lon="6.65893">
        <ele>1999.4000244141</ele>
        <time>2022-08-20T10:30:10Z</time>
      </trkpt>
      <trkpt lat="44.09839" lon="6.65898">
        <ele>1998.8000488281</ele>
        <time>2022-08-20T10:30:12Z</time>
      </trkpt>
      <trkpt lat="44.09839" lon="6.659">
        <ele>1998.5999755859</ele>
        <time>2022-08-20T10:30:13Z</time>
      </trkpt>
      <trkpt lat="44.0984" lon="6.65903">
        <ele>1998.5999755859</ele>
        <time>2022-08-20T10:30:14Z</time>
      </trkpt>
      <trkpt lat="44.09843" lon="6.65907">
        <ele>1998.1999511719</ele>
        <time>2022-08-20T10:30:16Z</time>
      </trkpt>
      <trkpt lat="44.09847" lon="6.65913">
        <ele>1997.5999755859</ele>
        <time>2022-08-20T10:30:18Z</time>
      </trkpt>
      <trkpt lat="44.09849" lon="6.65918">
        <ele>1997.4000244141</ele>
        <time>2022-08-20T10:30:19Z</time>
      </trkpt>
      <trkpt lat="44.09852" lon="6.65928">
        <ele>1997</ele>
        <time>2022-08-20T10:30:22Z</time>
      </trkpt>
      <trkpt lat="44.09853" lon="6.6594">
        <ele>1996.4000244141</ele>
        <time>2022-08-20T10:30:26Z</time>
      </trkpt>
      <trkpt lat="44.09852" lon="6.65942">
        <ele>1996.1999511719</ele>
        <time>2022-08-20T10:30:27Z</time>
      </trkpt>
      <trkpt lat="44.09852" lon="6.65945">
        <ele>1995.8000488281</ele>
        <time>2022-08-20T10:30:29Z</time>
      </trkpt>
      <trkpt lat="44.09851" lon="6.65945">
        <ele>1995.5999755859</ele>
        <time>2022-08-20T10:30:31Z</time>
      </trkpt>
      <trkpt lat="44.09849" lon="6.65945">
        <ele>1995.4000244141</ele>
        <time>2022-08-20T10:30:37Z</time>
      </trkpt>
      <trkpt lat="44.09849" lon="6.65945">
        <ele>1995.4000244141</ele>
        <time>2022-08-20T10:30:38Z</time>
      </trkpt>
      <trkpt lat="44.09848" lon="6.65945">
        <ele>1995.4000244141</ele>
        <time>2022-08-20T10:30:39Z</time>
      </trkpt>
      <trkpt lat="44.09845" lon="6.65945">
        <ele>1995</ele>
        <time>2022-08-20T10:30:49Z</time>
      </trkpt>
      <trkpt lat="44.09845" lon="6.65944">
        <ele>1995.1999511719</ele>
        <time>2022-08-20T10:30:54Z</time>
      </trkpt>
      <trkpt lat="44.09843" lon="6.65944">
        <ele>1995.1999511719</ele>
        <time>2022-08-20T10:30:59Z</time>
      </trkpt>
      <trkpt lat="44.09841" lon="6.65945">
        <ele>1995</ele>
        <time>2022-08-20T10:31:01Z</time>
      </trkpt>
      <trkpt lat="44.09835" lon="6.65943">
        <ele>1995.4000244141</ele>
        <time>2022-08-20T10:31:06Z</time>
      </trkpt>
      <trkpt lat="44.09833" lon="6.65943">
        <ele>1995.8000488281</ele>
        <time>2022-08-20T10:31:08Z</time>
      </trkpt>
      <trkpt lat="44.09833" lon="6.65942">
        <ele>1995.8000488281</ele>
        <time>2022-08-20T10:31:09Z</time>
      </trkpt>
      <trkpt lat="44.09826" lon="6.65939">
        <ele>1996.5999755859</ele>
        <time>2022-08-20T10:31:16Z</time>
      </trkpt>
      <trkpt lat="44.09825" lon="6.65938">
        <ele>1996.5999755859</ele>
        <time>2022-08-20T10:31:17Z</time>
      </trkpt>
      <trkpt lat="44.09821" lon="6.65936">
        <ele>1997.1999511719</ele>
        <time>2022-08-20T10:31:22Z</time>
      </trkpt>
      <trkpt lat="44.09818" lon="6.65935">
        <ele>1997.5999755859</ele>
        <time>2022-08-20T10:31:25Z</time>
      </trkpt>
      <trkpt lat="44.09816" lon="6.65932">
        <ele>1998.1999511719</ele>
        <time>2022-08-20T10:31:30Z</time>
      </trkpt>
      <trkpt lat="44.09815" lon="6.65932">
        <ele>1998.8000488281</ele>
        <time>2022-08-20T10:31:33Z</time>
      </trkpt>
      <trkpt lat="44.09813" lon="6.6593">
        <ele>1999.1999511719</ele>
        <time>2022-08-20T10:31:38Z</time>
      </trkpt>
      <trkpt lat="44.0981" lon="6.65929">
        <ele>1999.5999755859</ele>
        <time>2022-08-20T10:31:41Z</time>
      </trkpt>
      <trkpt lat="44.09809" lon="6.65927">
        <ele>1999.8000488281</ele>
        <time>2022-08-20T10:31:43Z</time>
      </trkpt>
      <trkpt lat="44.09804" lon="6.65923">
        <ele>2000.8000488281</ele>
        <time>2022-08-20T10:31:51Z</time>
      </trkpt>
      <trkpt lat="44.09803" lon="6.65922">
        <ele>2001.1999511719</ele>
        <time>2022-08-20T10:31:53Z</time>
      </trkpt>
      <trkpt lat="44.09799" lon="6.65923">
        <ele>2002</ele>
        <time>2022-08-20T10:31:59Z</time>
      </trkpt>
      <trkpt lat="44.09799" lon="6.65923">
        <ele>2002.1999511719</ele>
        <time>2022-08-20T10:32:01Z</time>
      </trkpt>
      <trkpt lat="44.09797" lon="6.65926">
        <ele>2002.8000488281</ele>
        <time>2022-08-20T10:32:06Z</time>
      </trkpt>
      <trkpt lat="44.09796" lon="6.65928">
        <ele>2003.1999511719</ele>
        <time>2022-08-20T10:32:08Z</time>
      </trkpt>
      <trkpt lat="44.09793" lon="6.65933">
        <ele>2003.5999755859</ele>
        <time>2022-08-20T10:32:17Z</time>
      </trkpt>
      <trkpt lat="44.09793" lon="6.65934">
        <ele>2003.5999755859</ele>
        <time>2022-08-20T10:32:20Z</time>
      </trkpt>
      <trkpt lat="44.09793" lon="6.65935">
        <ele>2003.4000244141</ele>
        <time>2022-08-20T10:32:23Z</time>
      </trkpt>
      <trkpt lat="44.09794" lon="6.65934">
        <ele>2002.5999755859</ele>
        <time>2022-08-20T10:32:32Z</time>
      </trkpt>
      <trkpt lat="44.09793" lon="6.65935">
        <ele>2002.5999755859</ele>
        <time>2022-08-20T10:32:35Z</time>
      </trkpt>
      <trkpt lat="44.09793" lon="6.65934">
        <ele>2002.5999755859</ele>
        <time>2022-08-20T10:32:40Z</time>
      </trkpt>
      <trkpt lat="44.09793" lon="6.65934">
        <ele>2002.1999511719</ele>
        <time>2022-08-20T10:32:48Z</time>
      </trkpt>
      <trkpt lat="44.09794" lon="6.65934">
        <ele>2002.1999511719</ele>
        <time>2022-08-20T10:32:51Z</time>
      </trkpt>
      <trkpt lat="44.09795" lon="6.65933">
        <ele>2002</ele>
        <time>2022-08-20T10:32:57Z</time>
      </trkpt>
      <trkpt lat="44.09795" lon="6.65933">
        <ele>2002</ele>
        <time>2022-08-20T10:32:58Z</time>
      </trkpt>
      <trkpt lat="44.09795" lon="6.65934">
        <ele>2001.5999755859</ele>
        <time>2022-08-20T10:33:06Z</time>
      </trkpt>
      <trkpt lat="44.09795" lon="6.65934">
        <ele>2001.4000244141</ele>
        <time>2022-08-20T10:33:12Z</time>
      </trkpt>
      <trkpt lat="44.09795" lon="6.65934">
        <ele>2001.4000244141</ele>
        <time>2022-08-20T10:33:13Z</time>
      </trkpt>
      <trkpt lat="44.09795" lon="6.65933">
        <ele>2001.4000244141</ele>
        <time>2022-08-20T10:33:14Z</time>
      </trkpt>
      <trkpt lat="44.09795" lon="6.65933">
        <ele>2001.4000244141</ele>
        <time>2022-08-20T10:33:15Z</time>
      </trkpt>
      <trkpt lat="44.09795" lon="6.65933">
        <ele>2001.1999511719</ele>
        <time>2022-08-20T10:33:16Z</time>
      </trkpt>
      <trkpt lat="44.09795" lon="6.65933">
        <ele>2001.1999511719</ele>
        <time>2022-08-20T10:33:17Z</time>
      </trkpt>
      <trkpt lat="44.09795" lon="6.65933">
        <ele>2001.1999511719</ele>
        <time>2022-08-20T10:33:18Z</time>
      </trkpt>
      <trkpt lat="44.09795" lon="6.65933">
        <ele>2001.1999511719</ele>
        <time>2022-08-20T10:33:20Z</time>
      </trkpt>
      <trkpt lat="44.09795" lon="6.65934">
        <ele>2001.1999511719</ele>
        <time>2022-08-20T10:33:27Z</time>
      </trkpt>
      <trkpt lat="44.09795" lon="6.65934">
        <ele>2001.1999511719</ele>
        <time>2022-08-20T10:33:31Z</time>
      </trkpt>
      <trkpt lat="44.09794" lon="6.65935">
        <ele>2001</ele>
        <time>2022-08-20T10:33:35Z</time>
      </trkpt>
      <trkpt lat="44.09794" lon="6.65935">
        <ele>2000.5999755859</ele>
        <time>2022-08-20T10:33:50Z</time>
      </trkpt>
      <trkpt lat="44.09794" lon="6.65935">
        <ele>2000.5999755859</ele>
        <time>2022-08-20T10:33:51Z</time>
      </trkpt>
      <trkpt lat="44.09794" lon="6.65936">
        <ele>2000.1999511719</ele>
        <time>2022-08-20T10:34:08Z</time>
      </trkpt>
      <trkpt lat="44.09794" lon="6.65936">
        <ele>2000</ele>
        <time>2022-08-20T10:34:13Z</time>
      </trkpt>
      <trkpt lat="44.09794" lon="6.65935">
        <ele>1999.8000488281</ele>
        <time>2022-08-20T10:34:21Z</time>
      </trkpt>
      <trkpt lat="44.09794" lon="6.65935">
        <ele>1999.8000488281</ele>
        <time>2022-08-20T10:34:23Z</time>
      </trkpt>
      <trkpt lat="44.09794" lon="6.65935">
        <ele>1999.5999755859</ele>
        <time>2022-08-20T10:34:39Z</time>
      </trkpt>
      <trkpt lat="44.09794" lon="6.65935">
        <ele>1999</ele>
        <time>2022-08-20T10:34:55Z</time>
      </trkpt>
      <trkpt lat="44.09794" lon="6.65935">
        <ele>1999</ele>
        <time>2022-08-20T10:34:56Z</time>
      </trkpt>
      <trkpt lat="44.09794" lon="6.65935">
        <ele>1998.4000244141</ele>
        <time>2022-08-20T10:35:12Z</time>
      </trkpt>
      <trkpt lat="44.09794" lon="6.65935">
        <ele>1998.4000244141</ele>
        <time>2022-08-20T10:35:14Z</time>
      </trkpt>
      <trkpt lat="44.09794" lon="6.65935">
        <ele>1998.1999511719</ele>
        <time>2022-08-20T10:35:24Z</time>
      </trkpt>
      <trkpt lat="44.09794" lon="6.65935">
        <ele>1998</ele>
        <time>2022-08-20T10:35:26Z</time>
      </trkpt>
      <trkpt lat="44.09794" lon="6.65935">
        <ele>1998</ele>
        <time>2022-08-20T10:35:30Z</time>
      </trkpt>
      <trkpt lat="44.09794" lon="6.65934">
        <ele>1997.8000488281</ele>
        <time>2022-08-20T10:35:42Z</time>
      </trkpt>
      <trkpt lat="44.09794" lon="6.65934">
        <ele>1997.4000244141</ele>
        <time>2022-08-20T10:35:49Z</time>
      </trkpt>
      <trkpt lat="44.09794" lon="6.65935">
        <ele>1997</ele>
        <time>2022-08-20T10:36:04Z</time>
      </trkpt>
      <trkpt lat="44.09794" lon="6.65935">
        <ele>1996.8000488281</ele>
        <time>2022-08-20T10:36:07Z</time>
      </trkpt>
      <trkpt lat="44.09794" lon="6.65935">
        <ele>1996.5999755859</ele>
        <time>2022-08-20T10:36:24Z</time>
      </trkpt>
      <trkpt lat="44.09794" lon="6.65935">
        <ele>1996.8000488281</ele>
        <time>2022-08-20T10:36:26Z</time>
      </trkpt>
      <trkpt lat="44.09794" lon="6.65935">
        <ele>1996.8000488281</ele>
        <time>2022-08-20T10:36:30Z</time>
      </trkpt>
      <trkpt lat="44.09794" lon="6.65934">
        <ele>1996.8000488281</ele>
        <time>2022-08-20T10:36:46Z</time>
      </trkpt>
      <trkpt lat="44.09794" lon="6.65937">
        <ele>1996.8000488281</ele>
        <time>2022-08-20T10:36:53Z</time>
      </trkpt>
      <trkpt lat="44.09794" lon="6.65937">
        <ele>1996.8000488281</ele>
        <time>2022-08-20T10:36:56Z</time>
      </trkpt>
      <trkpt lat="44.09794" lon="6.65936">
        <ele>1996.8000488281</ele>
        <time>2022-08-20T10:37:02Z</time>
      </trkpt>
      <trkpt lat="44.09794" lon="6.65936">
        <ele>1996.8000488281</ele>
        <time>2022-08-20T10:37:07Z</time>
      </trkpt>
      <trkpt lat="44.09793" lon="6.65937">
        <ele>1996.8000488281</ele>
        <time>2022-08-20T10:37:16Z</time>
      </trkpt>
      <trkpt lat="44.09792" lon="6.65936">
        <ele>1996.8000488281</ele>
        <time>2022-08-20T10:37:27Z</time>
      </trkpt>
      <trkpt lat="44.09792" lon="6.65936">
        <ele>1996.8000488281</ele>
        <time>2022-08-20T10:37:29Z</time>
      </trkpt>
      <trkpt lat="44.09792" lon="6.65936">
        <ele>1996.8000488281</ele>
        <time>2022-08-20T10:37:31Z</time>
      </trkpt>
      <trkpt lat="44.09792" lon="6.65937">
        <ele>1996.8000488281</ele>
        <time>2022-08-20T10:37:37Z</time>
      </trkpt>
      <trkpt lat="44.09792" lon="6.65937">
        <ele>1996.8000488281</ele>
        <time>2022-08-20T10:37:40Z</time>
      </trkpt>
      <trkpt lat="44.09793" lon="6.65935">
        <ele>1996.8000488281</ele>
        <time>2022-08-20T10:37:51Z</time>
      </trkpt>
      <trkpt lat="44.09793" lon="6.65935">
        <ele>1996.8000488281</ele>
        <time>2022-08-20T10:37:54Z</time>
      </trkpt>
      <trkpt lat="44.09793" lon="6.65935">
        <ele>1996.8000488281</ele>
        <time>2022-08-20T10:37:56Z</time>
      </trkpt>
      <trkpt lat="44.09793" lon="6.65935">
        <ele>1996.8000488281</ele>
        <time>2022-08-20T10:38:02Z</time>
      </trkpt>
      <trkpt lat="44.09793" lon="6.65935">
        <ele>1996.8000488281</ele>
        <time>2022-08-20T10:38:06Z</time>
      </trkpt>
      <trkpt lat="44.09793" lon="6.65935">
        <ele>1996.8000488281</ele>
        <time>2022-08-20T10:38:12Z</time>
      </trkpt>
      <trkpt lat="44.09793" lon="6.65935">
        <ele>1996.8000488281</ele>
        <time>2022-08-20T10:38:19Z</time>
      </trkpt>
      <trkpt lat="44.09793" lon="6.65935">
        <ele>1996.8000488281</ele>
        <time>2022-08-20T10:38:28Z</time>
      </trkpt>
      <trkpt lat="44.09793" lon="6.65935">
        <ele>1996.8000488281</ele>
        <time>2022-08-20T10:38:30Z</time>
      </trkpt>
      <trkpt lat="44.09793" lon="6.65934">
        <ele>1996.8000488281</ele>
        <time>2022-08-20T10:38:41Z</time>
      </trkpt>
      <trkpt lat="44.09793" lon="6.65934">
        <ele>1996.8000488281</ele>
        <time>2022-08-20T10:38:51Z</time>
      </trkpt>
      <trkpt lat="44.09793" lon="6.65934">
        <ele>1996.8000488281</ele>
        <time>2022-08-20T10:38:54Z</time>
      </trkpt>
      <trkpt lat="44.09793" lon="6.65934">
        <ele>1996.8000488281</ele>
        <time>2022-08-20T10:39:01Z</time>
      </trkpt>
      <trkpt lat="44.09793" lon="6.65935">
        <ele>1996.8000488281</ele>
        <time>2022-08-20T10:39:17Z</time>
      </trkpt>
      <trkpt lat="44.09793" lon="6.65935">
        <ele>1996.8000488281</ele>
        <time>2022-08-20T10:39:22Z</time>
      </trkpt>
      <trkpt lat="44.09792" lon="6.65935">
        <ele>1996.8000488281</ele>
        <time>2022-08-20T10:39:36Z</time>
      </trkpt>
      <trkpt lat="44.09792" lon="6.65935">
        <ele>1996.8000488281</ele>
        <time>2022-08-20T10:39:43Z</time>
      </trkpt>
      <trkpt lat="44.09792" lon="6.65934">
        <ele>1996.8000488281</ele>
        <time>2022-08-20T10:39:49Z</time>
      </trkpt>
      <trkpt lat="44.09792" lon="6.65934">
        <ele>1996.8000488281</ele>
        <time>2022-08-20T10:39:53Z</time>
      </trkpt>
      <trkpt lat="44.09792" lon="6.65934">
        <ele>1996.8000488281</ele>
        <time>2022-08-20T10:39:54Z</time>
      </trkpt>
      <trkpt lat="44.09792" lon="6.65934">
        <ele>1996.8000488281</ele>
        <time>2022-08-20T10:39:56Z</time>
      </trkpt>
      <trkpt lat="44.09792" lon="6.65934">
        <ele>1996.8000488281</ele>
        <time>2022-08-20T10:39:57Z</time>
      </trkpt>
      <trkpt lat="44.09794" lon="6.65934">
        <ele>1996.8000488281</ele>
        <time>2022-08-20T10:40:06Z</time>
      </trkpt>
      <trkpt lat="44.09796" lon="6.65932">
        <ele>1996.8000488281</ele>
        <time>2022-08-20T10:40:17Z</time>
      </trkpt>
      <trkpt lat="44.09794" lon="6.65932">
        <ele>1996.8000488281</ele>
        <time>2022-08-20T10:40:31Z</time>
      </trkpt>
      <trkpt lat="44.09793" lon="6.65933">
        <ele>1996.8000488281</ele>
        <time>2022-08-20T10:40:35Z</time>
      </trkpt>
      <trkpt lat="44.09788" lon="6.65943">
        <ele>1996.8000488281</ele>
        <time>2022-08-20T10:40:40Z</time>
      </trkpt>
      <trkpt lat="44.09782" lon="6.6596">
        <ele>1997.1999511719</ele>
        <time>2022-08-20T10:40:46Z</time>
      </trkpt>
      <trkpt lat="44.0978" lon="6.65964">
        <ele>1997.1999511719</ele>
        <time>2022-08-20T10:40:47Z</time>
      </trkpt>
      <trkpt lat="44.09772" lon="6.65983">
        <ele>1997</ele>
        <time>2022-08-20T10:40:52Z</time>
      </trkpt>
      <trkpt lat="44.09765" lon="6.65992">
        <ele>1996.8000488281</ele>
        <time>2022-08-20T10:40:55Z</time>
      </trkpt>
      <trkpt lat="44.09759" lon="6.65999">
        <ele>1997.1999511719</ele>
        <time>2022-08-20T10:40:58Z</time>
      </trkpt>
      <trkpt lat="44.09754" lon="6.66008">
        <ele>1997.5999755859</ele>
        <time>2022-08-20T10:41:02Z</time>
      </trkpt>
      <trkpt lat="44.0975" lon="6.66019">
        <ele>1996.4000244141</ele>
        <time>2022-08-20T10:41:08Z</time>
      </trkpt>
      <trkpt lat="44.0975" lon="6.6602">
        <ele>1996</ele>
        <time>2022-08-20T10:41:09Z</time>
      </trkpt>
      <trkpt lat="44.09747" lon="6.66026">
        <ele>1994.8000488281</ele>
        <time>2022-08-20T10:41:12Z</time>
      </trkpt>
      <trkpt lat="44.09744" lon="6.6603">
        <ele>1994.1999511719</ele>
        <time>2022-08-20T10:41:14Z</time>
      </trkpt>
      <trkpt lat="44.09743" lon="6.66034">
        <ele>1993.8000488281</ele>
        <time>2022-08-20T10:41:15Z</time>
      </trkpt>
      <trkpt lat="44.0974" lon="6.66042">
        <ele>1993.1999511719</ele>
        <time>2022-08-20T10:41:18Z</time>
      </trkpt>
      <trkpt lat="44.09738" lon="6.66043">
        <ele>1993</ele>
        <time>2022-08-20T10:41:19Z</time>
      </trkpt>
      <trkpt lat="44.09734" lon="6.66041">
        <ele>1993</ele>
        <time>2022-08-20T10:41:23Z</time>
      </trkpt>
      <trkpt lat="44.09733" lon="6.66041">
        <ele>1993</ele>
        <time>2022-08-20T10:41:24Z</time>
      </trkpt>
      <trkpt lat="44.09733" lon="6.66041">
        <ele>1993.1999511719</ele>
        <time>2022-08-20T10:41:27Z</time>
      </trkpt>
      <trkpt lat="44.09727" lon="6.66035">
        <ele>1994.5999755859</ele>
        <time>2022-08-20T10:41:37Z</time>
      </trkpt>
      <trkpt lat="44.09726" lon="6.66033">
        <ele>1995</ele>
        <time>2022-08-20T10:41:39Z</time>
      </trkpt>
      <trkpt lat="44.09723" lon="6.66031">
        <ele>1996</ele>
        <time>2022-08-20T10:41:44Z</time>
      </trkpt>
      <trkpt lat="44.09722" lon="6.6603">
        <ele>1996.5999755859</ele>
        <time>2022-08-20T10:41:46Z</time>
      </trkpt>
      <trkpt lat="44.09718" lon="6.66027">
        <ele>1997.1999511719</ele>
        <time>2022-08-20T10:41:52Z</time>
      </trkpt>
      <trkpt lat="44.09715" lon="6.66024">
        <ele>1997.8000488281</ele>
        <time>2022-08-20T10:41:57Z</time>
      </trkpt>
      <trkpt lat="44.09713" lon="6.66022">
        <ele>1998.1999511719</ele>
        <time>2022-08-20T10:42:00Z</time>
      </trkpt>
      <trkpt lat="44.0971" lon="6.6602">
        <ele>1998.8000488281</ele>
        <time>2022-08-20T10:42:04Z</time>
      </trkpt>
      <trkpt lat="44.09708" lon="6.66018">
        <ele>1999.1999511719</ele>
        <time>2022-08-20T10:42:08Z</time>
      </trkpt>
      <trkpt lat="44.09707" lon="6.66017">
        <ele>1999.4000244141</ele>
        <time>2022-08-20T10:42:09Z</time>
      </trkpt>
      <trkpt lat="44.09701" lon="6.66008">
        <ele>2000.1999511719</ele>
        <time>2022-08-20T10:42:19Z</time>
      </trkpt>
      <trkpt lat="44.097" lon="6.66007">
        <ele>2000.5999755859</ele>
        <time>2022-08-20T10:42:22Z</time>
      </trkpt>
      <trkpt lat="44.09698" lon="6.66004">
        <ele>2001.4000244141</ele>
        <time>2022-08-20T10:42:26Z</time>
      </trkpt>
      <trkpt lat="44.09696" lon="6.66002">
        <ele>2002.1999511719</ele>
        <time>2022-08-20T10:42:31Z</time>
      </trkpt>
      <trkpt lat="44.09694" lon="6.66">
        <ele>2002.5999755859</ele>
        <time>2022-08-20T10:42:33Z</time>
      </trkpt>
      <trkpt lat="44.09691" lon="6.65993">
        <ele>2003.8000488281</ele>
        <time>2022-08-20T10:42:41Z</time>
      </trkpt>
      <trkpt lat="44.09689" lon="6.6599">
        <ele>2004.1999511719</ele>
        <time>2022-08-20T10:42:44Z</time>
      </trkpt>
      <trkpt lat="44.09686" lon="6.65985">
        <ele>2004.8000488281</ele>
        <time>2022-08-20T10:42:50Z</time>
      </trkpt>
      <trkpt lat="44.09685" lon="6.65982">
        <ele>2005.1999511719</ele>
        <time>2022-08-20T10:42:54Z</time>
      </trkpt>
      <trkpt lat="44.09684" lon="6.65977">
        <ele>2006</ele>
        <time>2022-08-20T10:42:59Z</time>
      </trkpt>
      <trkpt lat="44.09679" lon="6.65971">
        <ele>2007</ele>
        <time>2022-08-20T10:43:08Z</time>
      </trkpt>
      <trkpt lat="44.09675" lon="6.65965">
        <ele>2008.1999511719</ele>
        <time>2022-08-20T10:43:17Z</time>
      </trkpt>
      <trkpt lat="44.09675" lon="6.65964">
        <ele>2008.4000244141</ele>
        <time>2022-08-20T10:43:19Z</time>
      </trkpt>
      <trkpt lat="44.09672" lon="6.65961">
        <ele>2009.1999511719</ele>
        <time>2022-08-20T10:43:25Z</time>
      </trkpt>
      <trkpt lat="44.09669" lon="6.65954">
        <ele>2010.4000244141</ele>
        <time>2022-08-20T10:43:33Z</time>
      </trkpt>
      <trkpt lat="44.09668" lon="6.65953">
        <ele>2010.5999755859</ele>
        <time>2022-08-20T10:43:35Z</time>
      </trkpt>
      <trkpt lat="44.09666" lon="6.65949">
        <ele>2011.4000244141</ele>
        <time>2022-08-20T10:43:41Z</time>
      </trkpt>
      <trkpt lat="44.09663" lon="6.65942">
        <ele>2012.4000244141</ele>
        <time>2022-08-20T10:43:49Z</time>
      </trkpt>
      <trkpt lat="44.09661" lon="6.65937">
        <ele>2013.4000244141</ele>
        <time>2022-08-20T10:43:56Z</time>
      </trkpt>
      <trkpt lat="44.09659" lon="6.65933">
        <ele>2014.1999511719</ele>
        <time>2022-08-20T10:44:02Z</time>
      </trkpt>
      <trkpt lat="44.09658" lon="6.65931">
        <ele>2014.4000244141</ele>
        <time>2022-08-20T10:44:04Z</time>
      </trkpt>
      <trkpt lat="44.09655" lon="6.65926">
        <ele>2015.4000244141</ele>
        <time>2022-08-20T10:44:11Z</time>
      </trkpt>
      <trkpt lat="44.09652" lon="6.65923">
        <ele>2016.1999511719</ele>
        <time>2022-08-20T10:44:18Z</time>
      </trkpt>
      <trkpt lat="44.09651" lon="6.65922">
        <ele>2016.4000244141</ele>
        <time>2022-08-20T10:44:21Z</time>
      </trkpt>
      <trkpt lat="44.09648" lon="6.65914">
        <ele>2017.5999755859</ele>
        <time>2022-08-20T10:44:32Z</time>
      </trkpt>
      <trkpt lat="44.09646" lon="6.65912">
        <ele>2018</ele>
        <time>2022-08-20T10:44:35Z</time>
      </trkpt>
      <trkpt lat="44.09645" lon="6.65908">
        <ele>2018.5999755859</ele>
        <time>2022-08-20T10:44:40Z</time>
      </trkpt>
      <trkpt lat="44.09643" lon="6.65895">
        <ele>2019.1999511719</ele>
        <time>2022-08-20T10:44:49Z</time>
      </trkpt>
      <trkpt lat="44.0964" lon="6.65887">
        <ele>2019.5999755859</ele>
        <time>2022-08-20T10:44:56Z</time>
      </trkpt>
      <trkpt lat="44.09639" lon="6.65884">
        <ele>2020.1999511719</ele>
        <time>2022-08-20T10:45:01Z</time>
      </trkpt>
      <trkpt lat="44.09637" lon="6.6588">
        <ele>2020.5999755859</ele>
        <time>2022-08-20T10:45:05Z</time>
      </trkpt>
      <trkpt lat="44.09636" lon="6.65876">
        <ele>2021.1999511719</ele>
        <time>2022-08-20T10:45:10Z</time>
      </trkpt>
      <trkpt lat="44.09634" lon="6.65875">
        <ele>2021.8000488281</ele>
        <time>2022-08-20T10:45:13Z</time>
      </trkpt>
      <trkpt lat="44.09629" lon="6.6587">
        <ele>2022.5999755859</ele>
        <time>2022-08-20T10:45:20Z</time>
      </trkpt>
      <trkpt lat="44.09629" lon="6.6587">
        <ele>2022.8000488281</ele>
        <time>2022-08-20T10:45:21Z</time>
      </trkpt>
      <trkpt lat="44.09628" lon="6.65866">
        <ele>2023.4000244141</ele>
        <time>2022-08-20T10:45:29Z</time>
      </trkpt>
      <trkpt lat="44.09626" lon="6.65863">
        <ele>2023.8000488281</ele>
        <time>2022-08-20T10:45:34Z</time>
      </trkpt>
      <trkpt lat="44.09624" lon="6.65858">
        <ele>2024.4000244141</ele>
        <time>2022-08-20T10:45:41Z</time>
      </trkpt>
      <trkpt lat="44.0962" lon="6.65856">
        <ele>2025</ele>
        <time>2022-08-20T10:45:47Z</time>
      </trkpt>
      <trkpt lat="44.09619" lon="6.65852">
        <ele>2025.4000244141</ele>
        <time>2022-08-20T10:45:51Z</time>
      </trkpt>
      <trkpt lat="44.09619" lon="6.65849">
        <ele>2026</ele>
        <time>2022-08-20T10:45:55Z</time>
      </trkpt>
      <trkpt lat="44.09617" lon="6.65847">
        <ele>2026.5999755859</ele>
        <time>2022-08-20T10:46:00Z</time>
      </trkpt>
      <trkpt lat="44.09616" lon="6.65846">
        <ele>2027</ele>
        <time>2022-08-20T10:46:03Z</time>
      </trkpt>
      <trkpt lat="44.09613" lon="6.65839">
        <ele>2027.8000488281</ele>
        <time>2022-08-20T10:46:12Z</time>
      </trkpt>
      <trkpt lat="44.09612" lon="6.65838">
        <ele>2028</ele>
        <time>2022-08-20T10:46:14Z</time>
      </trkpt>
      <trkpt lat="44.0961" lon="6.65831">
        <ele>2029.1999511719</ele>
        <time>2022-08-20T10:46:22Z</time>
      </trkpt>
      <trkpt lat="44.09608" lon="6.65827">
        <ele>2029.5999755859</ele>
        <time>2022-08-20T10:46:27Z</time>
      </trkpt>
      <trkpt lat="44.09606" lon="6.65823">
        <ele>2030</ele>
        <time>2022-08-20T10:46:34Z</time>
      </trkpt>
      <trkpt lat="44.09605" lon="6.65823">
        <ele>2030.1999511719</ele>
        <time>2022-08-20T10:46:35Z</time>
      </trkpt>
      <trkpt lat="44.09605" lon="6.65821">
        <ele>2030.4000244141</ele>
        <time>2022-08-20T10:46:38Z</time>
      </trkpt>
      <trkpt lat="44.09603" lon="6.65817">
        <ele>2031.1999511719</ele>
        <time>2022-08-20T10:46:46Z</time>
      </trkpt>
      <trkpt lat="44.09601" lon="6.65814">
        <ele>2031.8000488281</ele>
        <time>2022-08-20T10:46:50Z</time>
      </trkpt>
      <trkpt lat="44.09598" lon="6.65811">
        <ele>2032.4000244141</ele>
        <time>2022-08-20T10:46:55Z</time>
      </trkpt>
      <trkpt lat="44.09597" lon="6.65806">
        <ele>2033.1999511719</ele>
        <time>2022-08-20T10:47:03Z</time>
      </trkpt>
      <trkpt lat="44.09597" lon="6.65806">
        <ele>2033.4000244141</ele>
        <time>2022-08-20T10:47:04Z</time>
      </trkpt>
      <trkpt lat="44.09594" lon="6.65807">
        <ele>2034.1999511719</ele>
        <time>2022-08-20T10:47:14Z</time>
      </trkpt>
      <trkpt lat="44.09594" lon="6.65807">
        <ele>2034.4000244141</ele>
        <time>2022-08-20T10:47:15Z</time>
      </trkpt>
      <trkpt lat="44.09588" lon="6.65809">
        <ele>2035.4000244141</ele>
        <time>2022-08-20T10:47:24Z</time>
      </trkpt>
      <trkpt lat="44.09588" lon="6.65808">
        <ele>2035.5999755859</ele>
        <time>2022-08-20T10:47:25Z</time>
      </trkpt>
      <trkpt lat="44.09586" lon="6.65802">
        <ele>2036.5999755859</ele>
        <time>2022-08-20T10:47:32Z</time>
      </trkpt>
      <trkpt lat="44.09583" lon="6.65795">
        <ele>2037.5999755859</ele>
        <time>2022-08-20T10:47:39Z</time>
      </trkpt>
      <trkpt lat="44.09583" lon="6.65794">
        <ele>2037.8000488281</ele>
        <time>2022-08-20T10:47:40Z</time>
      </trkpt>
      <trkpt lat="44.0958" lon="6.65784">
        <ele>2038.8000488281</ele>
        <time>2022-08-20T10:47:48Z</time>
      </trkpt>
      <trkpt lat="44.09581" lon="6.65782">
        <ele>2038.8000488281</ele>
        <time>2022-08-20T10:47:50Z</time>
      </trkpt>
      <trkpt lat="44.09582" lon="6.65783">
        <ele>2038.8000488281</ele>
        <time>2022-08-20T10:47:55Z</time>
      </trkpt>
      <trkpt lat="44.09581" lon="6.65783">
        <ele>2038.8000488281</ele>
        <time>2022-08-20T10:47:59Z</time>
      </trkpt>
      <trkpt lat="44.09581" lon="6.65783">
        <ele>2038.5999755859</ele>
        <time>2022-08-20T10:48:05Z</time>
      </trkpt>
      <trkpt lat="44.09581" lon="6.65783">
        <ele>2038.5999755859</ele>
        <time>2022-08-20T10:48:07Z</time>
      </trkpt>
      <trkpt lat="44.09581" lon="6.65776">
        <ele>2038.5999755859</ele>
        <time>2022-08-20T10:48:11Z</time>
      </trkpt>
      <trkpt lat="44.09581" lon="6.65771">
        <ele>2038.8000488281</ele>
        <time>2022-08-20T10:48:13Z</time>
      </trkpt>
      <trkpt lat="44.0958" lon="6.65763">
        <ele>2039.5999755859</ele>
        <time>2022-08-20T10:48:17Z</time>
      </trkpt>
      <trkpt lat="44.09578" lon="6.65762">
        <ele>2039.8000488281</ele>
        <time>2022-08-20T10:48:18Z</time>
      </trkpt>
      <trkpt lat="44.09576" lon="6.65757">
        <ele>2040.1999511719</ele>
        <time>2022-08-20T10:48:21Z</time>
      </trkpt>
      <trkpt lat="44.09575" lon="6.65752">
        <ele>2041</ele>
        <time>2022-08-20T10:48:24Z</time>
      </trkpt>
      <trkpt lat="44.09574" lon="6.65747">
        <ele>2041.4000244141</ele>
        <time>2022-08-20T10:48:26Z</time>
      </trkpt>
      <trkpt lat="44.09573" lon="6.65741">
        <ele>2042</ele>
        <time>2022-08-20T10:48:29Z</time>
      </trkpt>
      <trkpt lat="44.09572" lon="6.65735">
        <ele>2043.1999511719</ele>
        <time>2022-08-20T10:48:33Z</time>
      </trkpt>
      <trkpt lat="44.09572" lon="6.65733">
        <ele>2043.4000244141</ele>
        <time>2022-08-20T10:48:34Z</time>
      </trkpt>
      <trkpt lat="44.09572" lon="6.65729">
        <ele>2044</ele>
        <time>2022-08-20T10:48:36Z</time>
      </trkpt>
      <trkpt lat="44.09571" lon="6.65728">
        <ele>2044.1999511719</ele>
        <time>2022-08-20T10:48:37Z</time>
      </trkpt>
      <trkpt lat="44.09569" lon="6.65722">
        <ele>2045.4000244141</ele>
        <time>2022-08-20T10:48:41Z</time>
      </trkpt>
      <trkpt lat="44.09569" lon="6.6572">
        <ele>2045.5999755859</ele>
        <time>2022-08-20T10:48:42Z</time>
      </trkpt>
      <trkpt lat="44.09569" lon="6.65719">
        <ele>2045.8000488281</ele>
        <time>2022-08-20T10:48:43Z</time>
      </trkpt>
      <trkpt lat="44.09567" lon="6.65715">
        <ele>2046.5999755859</ele>
        <time>2022-08-20T10:48:47Z</time>
      </trkpt>
      <trkpt lat="44.09566" lon="6.65712">
        <ele>2046.8000488281</ele>
        <time>2022-08-20T10:48:50Z</time>
      </trkpt>
      <trkpt lat="44.09565" lon="6.65711">
        <ele>2046.8000488281</ele>
        <time>2022-08-20T10:48:51Z</time>
      </trkpt>
      <trkpt lat="44.09565" lon="6.6571">
        <ele>2047</ele>
        <time>2022-08-20T10:48:53Z</time>
      </trkpt>
      <trkpt lat="44.09564" lon="6.65711">
        <ele>2047</ele>
        <time>2022-08-20T10:48:58Z</time>
      </trkpt>
      <trkpt lat="44.09564" lon="6.65712">
        <ele>2046.8000488281</ele>
        <time>2022-08-20T10:49:04Z</time>
      </trkpt>
      <trkpt lat="44.09564" lon="6.65712">
        <ele>2046.8000488281</ele>
        <time>2022-08-20T10:49:12Z</time>
      </trkpt>
      <trkpt lat="44.09564" lon="6.65712">
        <ele>2046.8000488281</ele>
        <time>2022-08-20T10:49:16Z</time>
      </trkpt>
      <trkpt lat="44.09564" lon="6.65712">
        <ele>2046.8000488281</ele>
        <time>2022-08-20T10:49:18Z</time>
      </trkpt>
      <trkpt lat="44.09564" lon="6.65712">
        <ele>2046.8000488281</ele>
        <time>2022-08-20T10:49:20Z</time>
      </trkpt>
      <trkpt lat="44.09564" lon="6.65712">
        <ele>2046.8000488281</ele>
        <time>2022-08-20T10:49:24Z</time>
      </trkpt>
      <trkpt lat="44.09564" lon="6.65712">
        <ele>2046.8000488281</ele>
        <time>2022-08-20T10:49:27Z</time>
      </trkpt>
      <trkpt lat="44.09564" lon="6.65712">
        <ele>2046.8000488281</ele>
        <time>2022-08-20T10:49:30Z</time>
      </trkpt>
      <trkpt lat="44.09564" lon="6.65712">
        <ele>2046.8000488281</ele>
        <time>2022-08-20T10:49:32Z</time>
      </trkpt>
      <trkpt lat="44.09564" lon="6.65712">
        <ele>2046.8000488281</ele>
        <time>2022-08-20T10:49:33Z</time>
      </trkpt>
      <trkpt lat="44.09564" lon="6.65712">
        <ele>2046.8000488281</ele>
        <time>2022-08-20T10:49:34Z</time>
      </trkpt>
      <trkpt lat="44.09564" lon="6.65712">
        <ele>2046.8000488281</ele>
        <time>2022-08-20T10:49:36Z</time>
      </trkpt>
      <trkpt lat="44.09564" lon="6.65711">
        <ele>2046.5999755859</ele>
        <time>2022-08-20T10:49:42Z</time>
      </trkpt>
      <trkpt lat="44.09564" lon="6.65711">
        <ele>2046.8000488281</ele>
        <time>2022-08-20T10:50:04Z</time>
      </trkpt>
      <trkpt lat="44.09565" lon="6.65711">
        <ele>2046.5999755859</ele>
        <time>2022-08-20T10:50:08Z</time>
      </trkpt>
      <trkpt lat="44.09565" lon="6.65711">
        <ele>2046.8000488281</ele>
        <time>2022-08-20T10:50:12Z</time>
      </trkpt>
      <trkpt lat="44.09564" lon="6.65711">
        <ele>2046.8000488281</ele>
        <time>2022-08-20T10:50:22Z</time>
      </trkpt>
      <trkpt lat="44.09564" lon="6.65711">
        <ele>2046.8000488281</ele>
        <time>2022-08-20T10:50:23Z</time>
      </trkpt>
      <trkpt lat="44.09564" lon="6.65711">
        <ele>2046.8000488281</ele>
        <time>2022-08-20T10:50:26Z</time>
      </trkpt>
      <trkpt lat="44.09564" lon="6.65711">
        <ele>2046.8000488281</ele>
        <time>2022-08-20T10:50:37Z</time>
      </trkpt>
      <trkpt lat="44.09564" lon="6.65711">
        <ele>2046.8000488281</ele>
        <time>2022-08-20T10:50:39Z</time>
      </trkpt>
      <trkpt lat="44.09564" lon="6.65711">
        <ele>2046.8000488281</ele>
        <time>2022-08-20T10:50:40Z</time>
      </trkpt>
      <trkpt lat="44.09564" lon="6.65711">
        <ele>2046.8000488281</ele>
        <time>2022-08-20T10:50:42Z</time>
      </trkpt>
      <trkpt lat="44.09564" lon="6.65711">
        <ele>2046.8000488281</ele>
        <time>2022-08-20T10:50:52Z</time>
      </trkpt>
      <trkpt lat="44.09563" lon="6.65711">
        <ele>2046.8000488281</ele>
        <time>2022-08-20T10:50:59Z</time>
      </trkpt>
      <trkpt lat="44.09557" lon="6.65699">
        <ele>2043.1999511719</ele>
        <time>2022-08-20T10:51:04Z</time>
      </trkpt>
      <trkpt lat="44.09544" lon="6.65665">
        <ele>2043</ele>
        <time>2022-08-20T10:51:09Z</time>
      </trkpt>
      <trkpt lat="44.09535" lon="6.65652">
        <ele>2042</ele>
        <time>2022-08-20T10:51:11Z</time>
      </trkpt>
      <trkpt lat="44.09523" lon="6.65637">
        <ele>2041.4000244141</ele>
        <time>2022-08-20T10:51:14Z</time>
      </trkpt>
      <trkpt lat="44.09512" lon="6.65626">
        <ele>2041.5999755859</ele>
        <time>2022-08-20T10:51:18Z</time>
      </trkpt>
      <trkpt lat="44.09508" lon="6.65622">
        <ele>2041.8000488281</ele>
        <time>2022-08-20T10:51:20Z</time>
      </trkpt>
      <trkpt lat="44.09501" lon="6.65616">
        <ele>2042</ele>
        <time>2022-08-20T10:51:23Z</time>
      </trkpt>
      <trkpt lat="44.09498" lon="6.65616">
        <ele>2042</ele>
        <time>2022-08-20T10:51:24Z</time>
      </trkpt>
      <trkpt lat="44.0948" lon="6.65611">
        <ele>2041.8000488281</ele>
        <time>2022-08-20T10:51:29Z</time>
      </trkpt>
      <trkpt lat="44.09475" lon="6.65609">
        <ele>2042.1999511719</ele>
        <time>2022-08-20T10:51:31Z</time>
      </trkpt>
      <trkpt lat="44.09473" lon="6.65607">
        <ele>2042.4000244141</ele>
        <time>2022-08-20T10:51:32Z</time>
      </trkpt>
      <trkpt lat="44.09464" lon="6.65604">
        <ele>2043</ele>
        <time>2022-08-20T10:51:36Z</time>
      </trkpt>
      <trkpt lat="44.0946" lon="6.65602">
        <ele>2043.5999755859</ele>
        <time>2022-08-20T10:51:38Z</time>
      </trkpt>
      <trkpt lat="44.09456" lon="6.65601">
        <ele>2044.1999511719</ele>
        <time>2022-08-20T10:51:40Z</time>
      </trkpt>
      <trkpt lat="44.09448" lon="6.65598">
        <ele>2044.5999755859</ele>
        <time>2022-08-20T10:51:43Z</time>
      </trkpt>
      <trkpt lat="44.09441" lon="6.65596">
        <ele>2044.8000488281</ele>
        <time>2022-08-20T10:51:46Z</time>
      </trkpt>
      <trkpt lat="44.09429" lon="6.65593">
        <ele>2044.8000488281</ele>
        <time>2022-08-20T10:51:51Z</time>
      </trkpt>
      <trkpt lat="44.09425" lon="6.65593">
        <ele>2044.8000488281</ele>
        <time>2022-08-20T10:51:53Z</time>
      </trkpt>
      <trkpt lat="44.09418" lon="6.65592">
        <ele>2044.8000488281</ele>
        <time>2022-08-20T10:51:56Z</time>
      </trkpt>
      <trkpt lat="44.09412" lon="6.65586">
        <ele>2045.4000244141</ele>
        <time>2022-08-20T10:51:59Z</time>
      </trkpt>
      <trkpt lat="44.09407" lon="6.65582">
        <ele>2046</ele>
        <time>2022-08-20T10:52:03Z</time>
      </trkpt>
      <trkpt lat="44.09406" lon="6.65582">
        <ele>2046</ele>
        <time>2022-08-20T10:52:04Z</time>
      </trkpt>
      <trkpt lat="44.09404" lon="6.65582">
        <ele>2046.1999511719</ele>
        <time>2022-08-20T10:52:05Z</time>
      </trkpt>
      <trkpt lat="44.09403" lon="6.65583">
        <ele>2046.1999511719</ele>
        <time>2022-08-20T10:52:06Z</time>
      </trkpt>
      <trkpt lat="44.09399" lon="6.65583">
        <ele>2046.4000244141</ele>
        <time>2022-08-20T10:52:08Z</time>
      </trkpt>
      <trkpt lat="44.09395" lon="6.65581">
        <ele>2047</ele>
        <time>2022-08-20T10:52:11Z</time>
      </trkpt>
      <trkpt lat="44.09389" lon="6.65576">
        <ele>2047.4000244141</ele>
        <time>2022-08-20T10:52:16Z</time>
      </trkpt>
      <trkpt lat="44.09386" lon="6.65573">
        <ele>2047.8000488281</ele>
        <time>2022-08-20T10:52:18Z</time>
      </trkpt>
      <trkpt lat="44.09382" lon="6.65571">
        <ele>2048.1999511719</ele>
        <time>2022-08-20T10:52:21Z</time>
      </trkpt>
      <trkpt lat="44.0938" lon="6.6557">
        <ele>2048.3999023438</ele>
        <time>2022-08-20T10:52:24Z</time>
      </trkpt>
      <trkpt lat="44.09379" lon="6.65569">
        <ele>2048.6000976562</ele>
        <time>2022-08-20T10:52:25Z</time>
      </trkpt>
      <trkpt lat="44.09378" lon="6.65569">
        <ele>2048.8000488281</ele>
        <time>2022-08-20T10:52:26Z</time>
      </trkpt>
      <trkpt lat="44.09373" lon="6.65566">
        <ele>2049.3999023438</ele>
        <time>2022-08-20T10:52:30Z</time>
      </trkpt>
      <trkpt lat="44.0937" lon="6.65565">
        <ele>2049.6000976562</ele>
        <time>2022-08-20T10:52:32Z</time>
      </trkpt>
      <trkpt lat="44.09362" lon="6.65559">
        <ele>2050.1999511719</ele>
        <time>2022-08-20T10:52:38Z</time>
      </trkpt>
      <trkpt lat="44.09359" lon="6.65558">
        <ele>2050.1999511719</ele>
        <time>2022-08-20T10:52:40Z</time>
      </trkpt>
      <trkpt lat="44.09351" lon="6.65555">
        <ele>2050.3999023438</ele>
        <time>2022-08-20T10:52:45Z</time>
      </trkpt>
      <trkpt lat="44.09343" lon="6.65553">
        <ele>2050.6000976562</ele>
        <time>2022-08-20T10:52:51Z</time>
      </trkpt>
      <trkpt lat="44.09341" lon="6.65552">
        <ele>2050.6000976562</ele>
        <time>2022-08-20T10:52:53Z</time>
      </trkpt>
      <trkpt lat="44.09337" lon="6.65548">
        <ele>2050.8000488281</ele>
        <time>2022-08-20T10:52:56Z</time>
      </trkpt>
      <trkpt lat="44.09335" lon="6.65547">
        <ele>2051</ele>
        <time>2022-08-20T10:52:58Z</time>
      </trkpt>
      <trkpt lat="44.09332" lon="6.65546">
        <ele>2051.1999511719</ele>
        <time>2022-08-20T10:53:00Z</time>
      </trkpt>
      <trkpt lat="44.09326" lon="6.65542">
        <ele>2051.6000976562</ele>
        <time>2022-08-20T10:53:05Z</time>
      </trkpt>
      <trkpt lat="44.09317" lon="6.65537">
        <ele>2052</ele>
        <time>2022-08-20T10:53:11Z</time>
      </trkpt>
      <trkpt lat="44.09315" lon="6.65534">
        <ele>2052.3999023438</ele>
        <time>2022-08-20T10:53:13Z</time>
      </trkpt>
      <trkpt lat="44.09311" lon="6.6553">
        <ele>2052.8000488281</ele>
        <time>2022-08-20T10:53:16Z</time>
      </trkpt>
      <trkpt lat="44.09305" lon="6.65526">
        <ele>2053.6000976562</ele>
        <time>2022-08-20T10:53:21Z</time>
      </trkpt>
      <trkpt lat="44.09298" lon="6.65521">
        <ele>2053.8000488281</ele>
        <time>2022-08-20T10:53:26Z</time>
      </trkpt>
      <trkpt lat="44.09294" lon="6.65518">
        <ele>2054.1999511719</ele>
        <time>2022-08-20T10:53:29Z</time>
      </trkpt>
      <trkpt lat="44.09283" lon="6.65516">
        <ele>2054.6000976562</ele>
        <time>2022-08-20T10:53:37Z</time>
      </trkpt>
      <trkpt lat="44.09281" lon="6.65513">
        <ele>2055</ele>
        <time>2022-08-20T10:53:39Z</time>
      </trkpt>
      <trkpt lat="44.09271" lon="6.65508">
        <ele>2055.6000976562</ele>
        <time>2022-08-20T10:53:45Z</time>
      </trkpt>
      <trkpt lat="44.09259" lon="6.65503">
        <ele>2055.8000488281</ele>
        <time>2022-08-20T10:53:52Z</time>
      </trkpt>
      <trkpt lat="44.09248" lon="6.65501">
        <ele>2056</ele>
        <time>2022-08-20T10:53:57Z</time>
      </trkpt>
      <trkpt lat="44.0924" lon="6.65498">
        <ele>2056</ele>
        <time>2022-08-20T10:54:01Z</time>
      </trkpt>
      <trkpt lat="44.0923" lon="6.65492">
        <ele>2056.6000976562</ele>
        <time>2022-08-20T10:54:08Z</time>
      </trkpt>
      <trkpt lat="44.09228" lon="6.65489">
        <ele>2057</ele>
        <time>2022-08-20T10:54:10Z</time>
      </trkpt>
      <trkpt lat="44.09226" lon="6.65488">
        <ele>2057.1999511719</ele>
        <time>2022-08-20T10:54:11Z</time>
      </trkpt>
      <trkpt lat="44.09216" lon="6.65479">
        <ele>2058</ele>
        <time>2022-08-20T10:54:18Z</time>
      </trkpt>
      <trkpt lat="44.09209" lon="6.65474">
        <ele>2058.3999023438</ele>
        <time>2022-08-20T10:54:24Z</time>
      </trkpt>
      <trkpt lat="44.09208" lon="6.65473">
        <ele>2058.3999023438</ele>
        <time>2022-08-20T10:54:25Z</time>
      </trkpt>
      <trkpt lat="44.09198" lon="6.65466">
        <ele>2058.3999023438</ele>
        <time>2022-08-20T10:54:32Z</time>
      </trkpt>
      <trkpt lat="44.09198" lon="6.65465">
        <ele>2058.1999511719</ele>
        <time>2022-08-20T10:54:33Z</time>
      </trkpt>
      <trkpt lat="44.09199" lon="6.65467">
        <ele>2058.1999511719</ele>
        <time>2022-08-20T10:54:36Z</time>
      </trkpt>
      <trkpt lat="44.092" lon="6.65468">
        <ele>2058.1999511719</ele>
        <time>2022-08-20T10:54:39Z</time>
      </trkpt>
      <trkpt lat="44.09201" lon="6.65469">
        <ele>2058.6000976562</ele>
        <time>2022-08-20T10:54:48Z</time>
      </trkpt>
      <trkpt lat="44.09191" lon="6.65468">
        <ele>2057.6000976562</ele>
        <time>2022-08-20T10:54:55Z</time>
      </trkpt>
      <trkpt lat="44.09186" lon="6.65465">
        <ele>2057.6000976562</ele>
        <time>2022-08-20T10:54:57Z</time>
      </trkpt>
      <trkpt lat="44.09172" lon="6.65457">
        <ele>2057.6000976562</ele>
        <time>2022-08-20T10:55:02Z</time>
      </trkpt>
      <trkpt lat="44.0917" lon="6.65455">
        <ele>2057.6000976562</ele>
        <time>2022-08-20T10:55:03Z</time>
      </trkpt>
      <trkpt lat="44.0916" lon="6.65445">
        <ele>2058</ele>
        <time>2022-08-20T10:55:09Z</time>
      </trkpt>
      <trkpt lat="44.09151" lon="6.65438">
        <ele>2058</ele>
        <time>2022-08-20T10:55:13Z</time>
      </trkpt>
      <trkpt lat="44.09146" lon="6.65434">
        <ele>2057.8000488281</ele>
        <time>2022-08-20T10:55:15Z</time>
      </trkpt>
      <trkpt lat="44.09144" lon="6.65431">
        <ele>2057.8000488281</ele>
        <time>2022-08-20T10:55:16Z</time>
      </trkpt>
      <trkpt lat="44.09141" lon="6.65427">
        <ele>2057.8000488281</ele>
        <time>2022-08-20T10:55:18Z</time>
      </trkpt>
      <trkpt lat="44.09132" lon="6.65411">
        <ele>2057.8000488281</ele>
        <time>2022-08-20T10:55:24Z</time>
      </trkpt>
      <trkpt lat="44.09132" lon="6.65409">
        <ele>2057.8000488281</ele>
        <time>2022-08-20T10:55:25Z</time>
      </trkpt>
      <trkpt lat="44.09131" lon="6.65407">
        <ele>2057.8000488281</ele>
        <time>2022-08-20T10:55:26Z</time>
      </trkpt>
      <trkpt lat="44.09131" lon="6.65398">
        <ele>2058.8000488281</ele>
        <time>2022-08-20T10:55:31Z</time>
      </trkpt>
      <trkpt lat="44.09131" lon="6.65394">
        <ele>2059</ele>
        <time>2022-08-20T10:55:33Z</time>
      </trkpt>
      <trkpt lat="44.09132" lon="6.65388">
        <ele>2059.3999023438</ele>
        <time>2022-08-20T10:55:37Z</time>
      </trkpt>
      <trkpt lat="44.09133" lon="6.65386">
        <ele>2059.6000976562</ele>
        <time>2022-08-20T10:55:38Z</time>
      </trkpt>
      <trkpt lat="44.09134" lon="6.65382">
        <ele>2059.8000488281</ele>
        <time>2022-08-20T10:55:40Z</time>
      </trkpt>
      <trkpt lat="44.09135" lon="6.65377">
        <ele>2060.1999511719</ele>
        <time>2022-08-20T10:55:43Z</time>
      </trkpt>
      <trkpt lat="44.09136" lon="6.65372">
        <ele>2060.3999023438</ele>
        <time>2022-08-20T10:55:46Z</time>
      </trkpt>
      <trkpt lat="44.09138" lon="6.65353">
        <ele>2060.8000488281</ele>
        <time>2022-08-20T10:55:55Z</time>
      </trkpt>
      <trkpt lat="44.09134" lon="6.65331">
        <ele>2060.6000976562</ele>
        <time>2022-08-20T10:56:03Z</time>
      </trkpt>
      <trkpt lat="44.09129" lon="6.65313">
        <ele>2060.1999511719</ele>
        <time>2022-08-20T10:56:10Z</time>
      </trkpt>
      <trkpt lat="44.09118" lon="6.65286">
        <ele>2059.1999511719</ele>
        <time>2022-08-20T10:56:19Z</time>
      </trkpt>
      <trkpt lat="44.09117" lon="6.65283">
        <ele>2059</ele>
        <time>2022-08-20T10:56:20Z</time>
      </trkpt>
      <trkpt lat="44.09115" lon="6.65279">
        <ele>2059</ele>
        <time>2022-08-20T10:56:22Z</time>
      </trkpt>
      <trkpt lat="44.09114" lon="6.65274">
        <ele>2059</ele>
        <time>2022-08-20T10:56:24Z</time>
      </trkpt>
      <trkpt lat="44.09114" lon="6.65272">
        <ele>2059</ele>
        <time>2022-08-20T10:56:25Z</time>
      </trkpt>
      <trkpt lat="44.09118" lon="6.65258">
        <ele>2059.6000976562</ele>
        <time>2022-08-20T10:56:32Z</time>
      </trkpt>
      <trkpt lat="44.09124" lon="6.65246">
        <ele>2060</ele>
        <time>2022-08-20T10:56:39Z</time>
      </trkpt>
      <trkpt lat="44.09125" lon="6.65244">
        <ele>2060</ele>
        <time>2022-08-20T10:56:40Z</time>
      </trkpt>
      <trkpt lat="44.09133" lon="6.65229">
        <ele>2060.3999023438</ele>
        <time>2022-08-20T10:56:48Z</time>
      </trkpt>
      <trkpt lat="44.09135" lon="6.65226">
        <ele>2060.6000976562</ele>
        <time>2022-08-20T10:56:50Z</time>
      </trkpt>
      <trkpt lat="44.09142" lon="6.6522">
        <ele>2061.1999511719</ele>
        <time>2022-08-20T10:56:55Z</time>
      </trkpt>
      <trkpt lat="44.0915" lon="6.65215">
        <ele>2061</ele>
        <time>2022-08-20T10:57:00Z</time>
      </trkpt>
      <trkpt lat="44.09151" lon="6.65213">
        <ele>2061</ele>
        <time>2022-08-20T10:57:01Z</time>
      </trkpt>
      <trkpt lat="44.09152" lon="6.6521">
        <ele>2060.8000488281</ele>
        <time>2022-08-20T10:57:02Z</time>
      </trkpt>
      <trkpt lat="44.09149" lon="6.65203">
        <ele>2060.6000976562</ele>
        <time>2022-08-20T10:57:05Z</time>
      </trkpt>
      <trkpt lat="44.09147" lon="6.65199">
        <ele>2060.6000976562</ele>
        <time>2022-08-20T10:57:07Z</time>
      </trkpt>
      <trkpt lat="44.09149" lon="6.65192">
        <ele>2061</ele>
        <time>2022-08-20T10:57:10Z</time>
      </trkpt>
      <trkpt lat="44.09151" lon="6.65179">
        <ele>2060.8000488281</ele>
        <time>2022-08-20T10:57:15Z</time>
      </trkpt>
      <trkpt lat="44.09151" lon="6.65167">
        <ele>2060.6000976562</ele>
        <time>2022-08-20T10:57:18Z</time>
      </trkpt>
      <trkpt lat="44.0916" lon="6.65141">
        <ele>2060.3999023438</ele>
        <time>2022-08-20T10:57:25Z</time>
      </trkpt>
      <trkpt lat="44.0916" lon="6.65137">
        <ele>2060.6000976562</ele>
        <time>2022-08-20T10:57:26Z</time>
      </trkpt>
      <trkpt lat="44.09161" lon="6.65133">
        <ele>2060.8000488281</ele>
        <time>2022-08-20T10:57:27Z</time>
      </trkpt>
      <trkpt lat="44.09164" lon="6.65122">
        <ele>2061</ele>
        <time>2022-08-20T10:57:30Z</time>
      </trkpt>
      <trkpt lat="44.09166" lon="6.65115">
        <ele>2061.1999511719</ele>
        <time>2022-08-20T10:57:32Z</time>
      </trkpt>
      <trkpt lat="44.09175" lon="6.65096">
        <ele>2061.3999023438</ele>
        <time>2022-08-20T10:57:39Z</time>
      </trkpt>
      <trkpt lat="44.09184" lon="6.65083">
        <ele>2061.8000488281</ele>
        <time>2022-08-20T10:57:46Z</time>
      </trkpt>
      <trkpt lat="44.09184" lon="6.65081">
        <ele>2061.8000488281</ele>
        <time>2022-08-20T10:57:47Z</time>
      </trkpt>
      <trkpt lat="44.09182" lon="6.65077">
        <ele>2061.8000488281</ele>
        <time>2022-08-20T10:57:49Z</time>
      </trkpt>
      <trkpt lat="44.09181" lon="6.65076">
        <ele>2061.6000976562</ele>
        <time>2022-08-20T10:57:50Z</time>
      </trkpt>
      <trkpt lat="44.09175" lon="6.6507">
        <ele>2061.6000976562</ele>
        <time>2022-08-20T10:57:54Z</time>
      </trkpt>
      <trkpt lat="44.09172" lon="6.65061">
        <ele>2062.1999511719</ele>
        <time>2022-08-20T10:57:58Z</time>
      </trkpt>
      <trkpt lat="44.09172" lon="6.65058">
        <ele>2062.8000488281</ele>
        <time>2022-08-20T10:58:00Z</time>
      </trkpt>
      <trkpt lat="44.09171" lon="6.65055">
        <ele>2063.1999511719</ele>
        <time>2022-08-20T10:58:02Z</time>
      </trkpt>
      <trkpt lat="44.09171" lon="6.65056">
        <ele>2063.1999511719</ele>
        <time>2022-08-20T10:58:03Z</time>
      </trkpt>
      <trkpt lat="44.09172" lon="6.65056">
        <ele>2063.3999023438</ele>
        <time>2022-08-20T10:58:05Z</time>
      </trkpt>
      <trkpt lat="44.09172" lon="6.65056">
        <ele>2063.3999023438</ele>
        <time>2022-08-20T10:58:10Z</time>
      </trkpt>
      <trkpt lat="44.09173" lon="6.65056">
        <ele>2063.1999511719</ele>
        <time>2022-08-20T10:58:20Z</time>
      </trkpt>
      <trkpt lat="44.09167" lon="6.65045">
        <ele>2063.6000976562</ele>
        <time>2022-08-20T10:58:29Z</time>
      </trkpt>
      <trkpt lat="44.09166" lon="6.65043">
        <ele>2063.6000976562</ele>
        <time>2022-08-20T10:58:30Z</time>
      </trkpt>
      <trkpt lat="44.09163" lon="6.65038">
        <ele>2064</ele>
        <time>2022-08-20T10:58:33Z</time>
      </trkpt>
      <trkpt lat="44.09162" lon="6.65037">
        <ele>2064</ele>
        <time>2022-08-20T10:58:34Z</time>
      </trkpt>
      <trkpt lat="44.09162" lon="6.65036">
        <ele>2064.1999511719</ele>
        <time>2022-08-20T10:58:35Z</time>
      </trkpt>
      <trkpt lat="44.09162" lon="6.65036">
        <ele>2064.1999511719</ele>
        <time>2022-08-20T10:58:38Z</time>
      </trkpt>
      <trkpt lat="44.09161" lon="6.65035">
        <ele>2064.1999511719</ele>
        <time>2022-08-20T10:58:39Z</time>
      </trkpt>
      <trkpt lat="44.09156" lon="6.65026">
        <ele>2064.6000976562</ele>
        <time>2022-08-20T10:58:44Z</time>
      </trkpt>
      <trkpt lat="44.09155" lon="6.65023">
        <ele>2064.8000488281</ele>
        <time>2022-08-20T10:58:46Z</time>
      </trkpt>
      <trkpt lat="44.0915" lon="6.6501">
        <ele>2065.3999023438</ele>
        <time>2022-08-20T10:58:52Z</time>
      </trkpt>
      <trkpt lat="44.09147" lon="6.65004">
        <ele>2065.8000488281</ele>
        <time>2022-08-20T10:58:55Z</time>
      </trkpt>
      <trkpt lat="44.09141" lon="6.64994">
        <ele>2066.6000976562</ele>
        <time>2022-08-20T10:59:00Z</time>
      </trkpt>
      <trkpt lat="44.09141" lon="6.64992">
        <ele>2066.8000488281</ele>
        <time>2022-08-20T10:59:01Z</time>
      </trkpt>
      <trkpt lat="44.0914" lon="6.6499">
        <ele>2067.1999511719</ele>
        <time>2022-08-20T10:59:02Z</time>
      </trkpt>
      <trkpt lat="44.09138" lon="6.64987">
        <ele>2067.6000976562</ele>
        <time>2022-08-20T10:59:04Z</time>
      </trkpt>
      <trkpt lat="44.09136" lon="6.64979">
        <ele>2068.1999511719</ele>
        <time>2022-08-20T10:59:08Z</time>
      </trkpt>
      <trkpt lat="44.09135" lon="6.64976">
        <ele>2068.1999511719</ele>
        <time>2022-08-20T10:59:09Z</time>
      </trkpt>
      <trkpt lat="44.09135" lon="6.64972">
        <ele>2068.8000488281</ele>
        <time>2022-08-20T10:59:11Z</time>
      </trkpt>
      <trkpt lat="44.09134" lon="6.64964">
        <ele>2069.3999023438</ele>
        <time>2022-08-20T10:59:15Z</time>
      </trkpt>
      <trkpt lat="44.09133" lon="6.64961">
        <ele>2069.8000488281</ele>
        <time>2022-08-20T10:59:17Z</time>
      </trkpt>
      <trkpt lat="44.09133" lon="6.64957">
        <ele>2070.1999511719</ele>
        <time>2022-08-20T10:59:19Z</time>
      </trkpt>
      <trkpt lat="44.09132" lon="6.64956">
        <ele>2070.3999023438</ele>
        <time>2022-08-20T10:59:20Z</time>
      </trkpt>
      <trkpt lat="44.09131" lon="6.64956">
        <ele>2070.8000488281</ele>
        <time>2022-08-20T10:59:23Z</time>
      </trkpt>
      <trkpt lat="44.09131" lon="6.64956">
        <ele>2071</ele>
        <time>2022-08-20T10:59:26Z</time>
      </trkpt>
      <trkpt lat="44.09131" lon="6.64956">
        <ele>2071</ele>
        <time>2022-08-20T10:59:27Z</time>
      </trkpt>
      <trkpt lat="44.0913" lon="6.64956">
        <ele>2070.6000976562</ele>
        <time>2022-08-20T10:59:35Z</time>
      </trkpt>
      <trkpt lat="44.0913" lon="6.64956">
        <ele>2070.6000976562</ele>
        <time>2022-08-20T10:59:36Z</time>
      </trkpt>
      <trkpt lat="44.0913" lon="6.64955">
        <ele>2070.6000976562</ele>
        <time>2022-08-20T10:59:39Z</time>
      </trkpt>
      <trkpt lat="44.09127" lon="6.64951">
        <ele>2070.8000488281</ele>
        <time>2022-08-20T10:59:43Z</time>
      </trkpt>
      <trkpt lat="44.09124" lon="6.64948">
        <ele>2070.8000488281</ele>
        <time>2022-08-20T10:59:45Z</time>
      </trkpt>
      <trkpt lat="44.09117" lon="6.64938">
        <ele>2071.3999023438</ele>
        <time>2022-08-20T10:59:51Z</time>
      </trkpt>
      <trkpt lat="44.09114" lon="6.64931">
        <ele>2072</ele>
        <time>2022-08-20T10:59:55Z</time>
      </trkpt>
      <trkpt lat="44.0911" lon="6.64926">
        <ele>2072.6000976562</ele>
        <time>2022-08-20T10:59:59Z</time>
      </trkpt>
      <trkpt lat="44.09105" lon="6.6492">
        <ele>2072.8000488281</ele>
        <time>2022-08-20T11:00:03Z</time>
      </trkpt>
      <trkpt lat="44.09103" lon="6.64916">
        <ele>2073</ele>
        <time>2022-08-20T11:00:05Z</time>
      </trkpt>
      <trkpt lat="44.09099" lon="6.64913">
        <ele>2073.6000976562</ele>
        <time>2022-08-20T11:00:08Z</time>
      </trkpt>
      <trkpt lat="44.09094" lon="6.6491">
        <ele>2074</ele>
        <time>2022-08-20T11:00:13Z</time>
      </trkpt>
      <trkpt lat="44.0909" lon="6.64905">
        <ele>2074.1999511719</ele>
        <time>2022-08-20T11:00:16Z</time>
      </trkpt>
      <trkpt lat="44.09081" lon="6.64895">
        <ele>2075.1999511719</ele>
        <time>2022-08-20T11:00:24Z</time>
      </trkpt>
      <trkpt lat="44.09079" lon="6.6489">
        <ele>2075.6000976562</ele>
        <time>2022-08-20T11:00:27Z</time>
      </trkpt>
      <trkpt lat="44.09077" lon="6.64887">
        <ele>2076.1999511719</ele>
        <time>2022-08-20T11:00:31Z</time>
      </trkpt>
      <trkpt lat="44.09078" lon="6.64887">
        <ele>2076.3999023438</ele>
        <time>2022-08-20T11:00:33Z</time>
      </trkpt>
      <trkpt lat="44.09078" lon="6.64886">
        <ele>2076.3999023438</ele>
        <time>2022-08-20T11:00:37Z</time>
      </trkpt>
      <trkpt lat="44.09073" lon="6.64883">
        <ele>2076.3999023438</ele>
        <time>2022-08-20T11:00:45Z</time>
      </trkpt>
      <trkpt lat="44.09071" lon="6.64882">
        <ele>2076.6000976562</ele>
        <time>2022-08-20T11:00:47Z</time>
      </trkpt>
      <trkpt lat="44.09069" lon="6.64882">
        <ele>2076.8000488281</ele>
        <time>2022-08-20T11:00:48Z</time>
      </trkpt>
      <trkpt lat="44.0906" lon="6.64873">
        <ele>2077.1999511719</ele>
        <time>2022-08-20T11:00:55Z</time>
      </trkpt>
      <trkpt lat="44.09055" lon="6.6487">
        <ele>2077.3999023438</ele>
        <time>2022-08-20T11:00:58Z</time>
      </trkpt>
      <trkpt lat="44.09047" lon="6.64863">
        <ele>2078.1999511719</ele>
        <time>2022-08-20T11:01:04Z</time>
      </trkpt>
      <trkpt lat="44.09044" lon="6.6486">
        <ele>2078.3999023438</ele>
        <time>2022-08-20T11:01:06Z</time>
      </trkpt>
      <trkpt lat="44.09034" lon="6.64852">
        <ele>2079.3999023438</ele>
        <time>2022-08-20T11:01:13Z</time>
      </trkpt>
      <trkpt lat="44.09031" lon="6.6485">
        <ele>2079.6000976562</ele>
        <time>2022-08-20T11:01:16Z</time>
      </trkpt>
      <trkpt lat="44.09025" lon="6.64843">
        <ele>2080.3999023438</ele>
        <time>2022-08-20T11:01:21Z</time>
      </trkpt>
      <trkpt lat="44.09024" lon="6.64841">
        <ele>2080.3999023438</ele>
        <time>2022-08-20T11:01:22Z</time>
      </trkpt>
      <trkpt lat="44.09021" lon="6.64837">
        <ele>2080.8000488281</ele>
        <time>2022-08-20T11:01:25Z</time>
      </trkpt>
      <trkpt lat="44.09013" lon="6.64826">
        <ele>2081.3999023438</ele>
        <time>2022-08-20T11:01:33Z</time>
      </trkpt>
      <trkpt lat="44.09009" lon="6.6482">
        <ele>2081.3999023438</ele>
        <time>2022-08-20T11:01:37Z</time>
      </trkpt>
      <trkpt lat="44.09004" lon="6.64814">
        <ele>2081.3999023438</ele>
        <time>2022-08-20T11:01:42Z</time>
      </trkpt>
      <trkpt lat="44.09002" lon="6.64809">
        <ele>2081.3999023438</ele>
        <time>2022-08-20T11:01:45Z</time>
      </trkpt>
      <trkpt lat="44.08999" lon="6.64806">
        <ele>2081.1999511719</ele>
        <time>2022-08-20T11:01:48Z</time>
      </trkpt>
      <trkpt lat="44.08993" lon="6.64796">
        <ele>2081.3999023438</ele>
        <time>2022-08-20T11:01:55Z</time>
      </trkpt>
      <trkpt lat="44.08992" lon="6.64792">
        <ele>2081.3999023438</ele>
        <time>2022-08-20T11:01:57Z</time>
      </trkpt>
      <trkpt lat="44.0899" lon="6.64782">
        <ele>2081.6000976562</ele>
        <time>2022-08-20T11:02:03Z</time>
      </trkpt>
      <trkpt lat="44.08989" lon="6.6478">
        <ele>2081.6000976562</ele>
        <time>2022-08-20T11:02:05Z</time>
      </trkpt>
      <trkpt lat="44.08988" lon="6.64777">
        <ele>2081.6000976562</ele>
        <time>2022-08-20T11:02:10Z</time>
      </trkpt>
      <trkpt lat="44.08988" lon="6.64777">
        <ele>2081.6000976562</ele>
        <time>2022-08-20T11:02:12Z</time>
      </trkpt>
      <trkpt lat="44.08988" lon="6.64777">
        <ele>2081.6000976562</ele>
        <time>2022-08-20T11:02:17Z</time>
      </trkpt>
      <trkpt lat="44.08988" lon="6.64779">
        <ele>2081.6000976562</ele>
        <time>2022-08-20T11:02:24Z</time>
      </trkpt>
      <trkpt lat="44.08988" lon="6.64779">
        <ele>2081.3999023438</ele>
        <time>2022-08-20T11:02:34Z</time>
      </trkpt>
      <trkpt lat="44.08988" lon="6.64779">
        <ele>2081.6000976562</ele>
        <time>2022-08-20T11:02:37Z</time>
      </trkpt>
      <trkpt lat="44.08988" lon="6.64779">
        <ele>2081.6000976562</ele>
        <time>2022-08-20T11:02:47Z</time>
      </trkpt>
      <trkpt lat="44.08988" lon="6.64779">
        <ele>2081.3999023438</ele>
        <time>2022-08-20T11:02:50Z</time>
      </trkpt>
      <trkpt lat="44.08989" lon="6.6478">
        <ele>2080.8000488281</ele>
        <time>2022-08-20T11:02:57Z</time>
      </trkpt>
      <trkpt lat="44.08988" lon="6.64778">
        <ele>2080.8000488281</ele>
        <time>2022-08-20T11:03:05Z</time>
      </trkpt>
      <trkpt lat="44.08993" lon="6.6478">
        <ele>2081.3999023438</ele>
        <time>2022-08-20T11:03:13Z</time>
      </trkpt>
      <trkpt lat="44.08993" lon="6.64781">
        <ele>2081.3999023438</ele>
        <time>2022-08-20T11:03:20Z</time>
      </trkpt>
      <trkpt lat="44.08993" lon="6.64781">
        <ele>2081.3999023438</ele>
        <time>2022-08-20T11:03:25Z</time>
      </trkpt>
      <trkpt lat="44.08993" lon="6.64781">
        <ele>2081.3999023438</ele>
        <time>2022-08-20T11:03:29Z</time>
      </trkpt>
      <trkpt lat="44.08993" lon="6.64781">
        <ele>2081.1999511719</ele>
        <time>2022-08-20T11:03:32Z</time>
      </trkpt>
      <trkpt lat="44.08993" lon="6.64781">
        <ele>2081.1999511719</ele>
        <time>2022-08-20T11:03:35Z</time>
      </trkpt>
      <trkpt lat="44.0899" lon="6.64781">
        <ele>2081.3999023438</ele>
        <time>2022-08-20T11:03:43Z</time>
      </trkpt>
      <trkpt lat="44.08988" lon="6.64777">
        <ele>2081.6000976562</ele>
        <time>2022-08-20T11:03:46Z</time>
      </trkpt>
      <trkpt lat="44.08989" lon="6.64777">
        <ele>2081</ele>
        <time>2022-08-20T11:03:50Z</time>
      </trkpt>
      <trkpt lat="44.08989" lon="6.64777">
        <ele>2080.6000976562</ele>
        <time>2022-08-20T11:03:53Z</time>
      </trkpt>
      <trkpt lat="44.08989" lon="6.64777">
        <ele>2080.3999023438</ele>
        <time>2022-08-20T11:03:55Z</time>
      </trkpt>
      <trkpt lat="44.08989" lon="6.64777">
        <ele>2080.3999023438</ele>
        <time>2022-08-20T11:03:58Z</time>
      </trkpt>
      <trkpt lat="44.08989" lon="6.64777">
        <ele>2080.3999023438</ele>
        <time>2022-08-20T11:04:05Z</time>
      </trkpt>
      <trkpt lat="44.08989" lon="6.64777">
        <ele>2080.6000976562</ele>
        <time>2022-08-20T11:04:13Z</time>
      </trkpt>
      <trkpt lat="44.08989" lon="6.64777">
        <ele>2080.6000976562</ele>
        <time>2022-08-20T11:04:14Z</time>
      </trkpt>
      <trkpt lat="44.08989" lon="6.64776">
        <ele>2080.6000976562</ele>
        <time>2022-08-20T11:04:16Z</time>
      </trkpt>
      <trkpt lat="44.08989" lon="6.64778">
        <ele>2081</ele>
        <time>2022-08-20T11:04:24Z</time>
      </trkpt>
      <trkpt lat="44.08989" lon="6.64777">
        <ele>2081</ele>
        <time>2022-08-20T11:04:33Z</time>
      </trkpt>
      <trkpt lat="44.08988" lon="6.64778">
        <ele>2081</ele>
        <time>2022-08-20T11:04:34Z</time>
      </trkpt>
      <trkpt lat="44.08988" lon="6.64778">
        <ele>2081</ele>
        <time>2022-08-20T11:04:35Z</time>
      </trkpt>
      <trkpt lat="44.08988" lon="6.64778">
        <ele>2081</ele>
        <time>2022-08-20T11:04:36Z</time>
      </trkpt>
      <trkpt lat="44.08989" lon="6.64777">
        <ele>2081</ele>
        <time>2022-08-20T11:04:46Z</time>
      </trkpt>
      <trkpt lat="44.08989" lon="6.64777">
        <ele>2081</ele>
        <time>2022-08-20T11:04:50Z</time>
      </trkpt>
      <trkpt lat="44.08989" lon="6.64777">
        <ele>2081</ele>
        <time>2022-08-20T11:05:02Z</time>
      </trkpt>
      <trkpt lat="44.08989" lon="6.64777">
        <ele>2081</ele>
        <time>2022-08-20T11:05:06Z</time>
      </trkpt>
      <trkpt lat="44.08989" lon="6.64777">
        <ele>2081</ele>
        <time>2022-08-20T11:05:08Z</time>
      </trkpt>
      <trkpt lat="44.08989" lon="6.64777">
        <ele>2081</ele>
        <time>2022-08-20T11:05:09Z</time>
      </trkpt>
      <trkpt lat="44.08988" lon="6.64777">
        <ele>2081</ele>
        <time>2022-08-20T11:05:11Z</time>
      </trkpt>
      <trkpt lat="44.08988" lon="6.64777">
        <ele>2081</ele>
        <time>2022-08-20T11:05:13Z</time>
      </trkpt>
      <trkpt lat="44.08989" lon="6.64778">
        <ele>2081</ele>
        <time>2022-08-20T11:05:26Z</time>
      </trkpt>
      <trkpt lat="44.08989" lon="6.64777">
        <ele>2081</ele>
        <time>2022-08-20T11:05:34Z</time>
      </trkpt>
      <trkpt lat="44.08989" lon="6.64776">
        <ele>2081</ele>
        <time>2022-08-20T11:05:41Z</time>
      </trkpt>
      <trkpt lat="44.0899" lon="6.64776">
        <ele>2081</ele>
        <time>2022-08-20T11:05:52Z</time>
      </trkpt>
      <trkpt lat="44.0899" lon="6.64776">
        <ele>2081</ele>
        <time>2022-08-20T11:05:59Z</time>
      </trkpt>
      <trkpt lat="44.0899" lon="6.64776">
        <ele>2081</ele>
        <time>2022-08-20T11:06:01Z</time>
      </trkpt>
      <trkpt lat="44.0899" lon="6.64776">
        <ele>2081</ele>
        <time>2022-08-20T11:06:06Z</time>
      </trkpt>
      <trkpt lat="44.0899" lon="6.64776">
        <ele>2081</ele>
        <time>2022-08-20T11:06:09Z</time>
      </trkpt>
      <trkpt lat="44.0899" lon="6.64776">
        <ele>2081</ele>
        <time>2022-08-20T11:06:16Z</time>
      </trkpt>
      <trkpt lat="44.08991" lon="6.64776">
        <ele>2081</ele>
        <time>2022-08-20T11:06:32Z</time>
      </trkpt>
      <trkpt lat="44.08991" lon="6.64776">
        <ele>2081</ele>
        <time>2022-08-20T11:06:38Z</time>
      </trkpt>
      <trkpt lat="44.08991" lon="6.64776">
        <ele>2081</ele>
        <time>2022-08-20T11:06:49Z</time>
      </trkpt>
      <trkpt lat="44.0899" lon="6.64775">
        <ele>2081</ele>
        <time>2022-08-20T11:06:52Z</time>
      </trkpt>
      <trkpt lat="44.0899" lon="6.64776">
        <ele>2081</ele>
        <time>2022-08-20T11:06:59Z</time>
      </trkpt>
      <trkpt lat="44.08989" lon="6.64776">
        <ele>2081</ele>
        <time>2022-08-20T11:07:05Z</time>
      </trkpt>
      <trkpt lat="44.08989" lon="6.64776">
        <ele>2081</ele>
        <time>2022-08-20T11:07:10Z</time>
      </trkpt>
      <trkpt lat="44.0899" lon="6.64776">
        <ele>2081</ele>
        <time>2022-08-20T11:07:13Z</time>
      </trkpt>
      <trkpt lat="44.0899" lon="6.64776">
        <ele>2081</ele>
        <time>2022-08-20T11:07:15Z</time>
      </trkpt>
      <trkpt lat="44.0899" lon="6.64776">
        <ele>2081</ele>
        <time>2022-08-20T11:07:19Z</time>
      </trkpt>
      <trkpt lat="44.0899" lon="6.64776">
        <ele>2081</ele>
        <time>2022-08-20T11:07:23Z</time>
      </trkpt>
      <trkpt lat="44.0899" lon="6.64776">
        <ele>2081</ele>
        <time>2022-08-20T11:07:25Z</time>
      </trkpt>
      <trkpt lat="44.0899" lon="6.64776">
        <ele>2081</ele>
        <time>2022-08-20T11:07:28Z</time>
      </trkpt>
      <trkpt lat="44.0899" lon="6.64776">
        <ele>2081</ele>
        <time>2022-08-20T11:07:29Z</time>
      </trkpt>
      <trkpt lat="44.0899" lon="6.64776">
        <ele>2081</ele>
        <time>2022-08-20T11:07:36Z</time>
      </trkpt>
      <trkpt lat="44.0899" lon="6.64776">
        <ele>2081</ele>
        <time>2022-08-20T11:07:45Z</time>
      </trkpt>
      <trkpt lat="44.0899" lon="6.64776">
        <ele>2081</ele>
        <time>2022-08-20T11:07:54Z</time>
      </trkpt>
      <trkpt lat="44.08989" lon="6.64776">
        <ele>2081</ele>
        <time>2022-08-20T11:08:04Z</time>
      </trkpt>
      <trkpt lat="44.08989" lon="6.64777">
        <ele>2081</ele>
        <time>2022-08-20T11:08:05Z</time>
      </trkpt>
      <trkpt lat="44.08991" lon="6.64777">
        <ele>2081</ele>
        <time>2022-08-20T11:08:08Z</time>
      </trkpt>
      <trkpt lat="44.0899" lon="6.64778">
        <ele>2081</ele>
        <time>2022-08-20T11:08:13Z</time>
      </trkpt>
      <trkpt lat="44.0899" lon="6.64778">
        <ele>2081</ele>
        <time>2022-08-20T11:08:16Z</time>
      </trkpt>
      <trkpt lat="44.0899" lon="6.64777">
        <ele>2081</ele>
        <time>2022-08-20T11:08:18Z</time>
      </trkpt>
      <trkpt lat="44.0899" lon="6.64777">
        <ele>2081</ele>
        <time>2022-08-20T11:08:20Z</time>
      </trkpt>
      <trkpt lat="44.08989" lon="6.64778">
        <ele>2081</ele>
        <time>2022-08-20T11:08:25Z</time>
      </trkpt>
      <trkpt lat="44.08989" lon="6.64778">
        <ele>2081</ele>
        <time>2022-08-20T11:08:27Z</time>
      </trkpt>
      <trkpt lat="44.08989" lon="6.64778">
        <ele>2081</ele>
        <time>2022-08-20T11:08:33Z</time>
      </trkpt>
      <trkpt lat="44.08989" lon="6.64778">
        <ele>2081</ele>
        <time>2022-08-20T11:08:35Z</time>
      </trkpt>
      <trkpt lat="44.08989" lon="6.64778">
        <ele>2081</ele>
        <time>2022-08-20T11:08:36Z</time>
      </trkpt>
      <trkpt lat="44.08988" lon="6.64778">
        <ele>2081</ele>
        <time>2022-08-20T11:08:44Z</time>
      </trkpt>
      <trkpt lat="44.08988" lon="6.64778">
        <ele>2081</ele>
        <time>2022-08-20T11:08:45Z</time>
      </trkpt>
      <trkpt lat="44.08988" lon="6.64777">
        <ele>2081</ele>
        <time>2022-08-20T11:09:03Z</time>
      </trkpt>
      <trkpt lat="44.08988" lon="6.64777">
        <ele>2081</ele>
        <time>2022-08-20T11:09:04Z</time>
      </trkpt>
      <trkpt lat="44.08989" lon="6.64776">
        <ele>2081</ele>
        <time>2022-08-20T11:09:24Z</time>
      </trkpt>
      <trkpt lat="44.08988" lon="6.64776">
        <ele>2081</ele>
        <time>2022-08-20T11:09:31Z</time>
      </trkpt>
      <trkpt lat="44.08989" lon="6.64776">
        <ele>2081</ele>
        <time>2022-08-20T11:10:04Z</time>
      </trkpt>
      <trkpt lat="44.08988" lon="6.64776">
        <ele>2081</ele>
        <time>2022-08-20T11:10:10Z</time>
      </trkpt>
      <trkpt lat="44.08988" lon="6.64776">
        <ele>2081</ele>
        <time>2022-08-20T11:10:22Z</time>
      </trkpt>
      <trkpt lat="44.08988" lon="6.64776">
        <ele>2081</ele>
        <time>2022-08-20T11:10:27Z</time>
      </trkpt>
      <trkpt lat="44.08988" lon="6.64776">
        <ele>2081</ele>
        <time>2022-08-20T11:10:31Z</time>
      </trkpt>
      <trkpt lat="44.08988" lon="6.64776">
        <ele>2081</ele>
        <time>2022-08-20T11:10:37Z</time>
      </trkpt>
      <trkpt lat="44.08989" lon="6.64776">
        <ele>2081</ele>
        <time>2022-08-20T11:10:39Z</time>
      </trkpt>
      <trkpt lat="44.08989" lon="6.64775">
        <ele>2081</ele>
        <time>2022-08-20T11:10:47Z</time>
      </trkpt>
      <trkpt lat="44.0899" lon="6.64777">
        <ele>2081</ele>
        <time>2022-08-20T11:10:57Z</time>
      </trkpt>
      <trkpt lat="44.0899" lon="6.64777">
        <ele>2081</ele>
        <time>2022-08-20T11:10:58Z</time>
      </trkpt>
      <trkpt lat="44.0899" lon="6.64777">
        <ele>2081</ele>
        <time>2022-08-20T11:11:08Z</time>
      </trkpt>
      <trkpt lat="44.08988" lon="6.64778">
        <ele>2081</ele>
        <time>2022-08-20T11:11:15Z</time>
      </trkpt>
      <trkpt lat="44.08987" lon="6.64778">
        <ele>2081</ele>
        <time>2022-08-20T11:11:23Z</time>
      </trkpt>
      <trkpt lat="44.08987" lon="6.64778">
        <ele>2081</ele>
        <time>2022-08-20T11:11:25Z</time>
      </trkpt>
      <trkpt lat="44.08986" lon="6.64778">
        <ele>2081</ele>
        <time>2022-08-20T11:11:26Z</time>
      </trkpt>
      <trkpt lat="44.08987" lon="6.64779">
        <ele>2081</ele>
        <time>2022-08-20T11:11:38Z</time>
      </trkpt>
      <trkpt lat="44.08986" lon="6.6478">
        <ele>2081</ele>
        <time>2022-08-20T11:11:41Z</time>
      </trkpt>
      <trkpt lat="44.08987" lon="6.6478">
        <ele>2081</ele>
        <time>2022-08-20T11:11:44Z</time>
      </trkpt>
      <trkpt lat="44.08988" lon="6.64783">
        <ele>2081</ele>
        <time>2022-08-20T11:11:58Z</time>
      </trkpt>
      <trkpt lat="44.08987" lon="6.64783">
        <ele>2081</ele>
        <time>2022-08-20T11:12:09Z</time>
      </trkpt>
      <trkpt lat="44.08987" lon="6.64783">
        <ele>2081</ele>
        <time>2022-08-20T11:12:11Z</time>
      </trkpt>
      <trkpt lat="44.08986" lon="6.64781">
        <ele>2081</ele>
        <time>2022-08-20T11:12:21Z</time>
      </trkpt>
      <trkpt lat="44.08987" lon="6.64781">
        <ele>2081</ele>
        <time>2022-08-20T11:12:35Z</time>
      </trkpt>
      <trkpt lat="44.08987" lon="6.64781">
        <ele>2081</ele>
        <time>2022-08-20T11:12:38Z</time>
      </trkpt>
      <trkpt lat="44.08987" lon="6.64781">
        <ele>2081</ele>
        <time>2022-08-20T11:12:44Z</time>
      </trkpt>
      <trkpt lat="44.08987" lon="6.64781">
        <ele>2081</ele>
        <time>2022-08-20T11:12:46Z</time>
      </trkpt>
      <trkpt lat="44.08988" lon="6.64782">
        <ele>2081</ele>
        <time>2022-08-20T11:13:01Z</time>
      </trkpt>
      <trkpt lat="44.08988" lon="6.64782">
        <ele>2081</ele>
        <time>2022-08-20T11:13:03Z</time>
      </trkpt>
      <trkpt lat="44.08988" lon="6.64782">
        <ele>2081</ele>
        <time>2022-08-20T11:13:12Z</time>
      </trkpt>
      <trkpt lat="44.08988" lon="6.64781">
        <ele>2081</ele>
        <time>2022-08-20T11:13:15Z</time>
      </trkpt>
      <trkpt lat="44.08988" lon="6.6478">
        <ele>2081</ele>
        <time>2022-08-20T11:13:30Z</time>
      </trkpt>
      <trkpt lat="44.08988" lon="6.6478">
        <ele>2081</ele>
        <time>2022-08-20T11:13:31Z</time>
      </trkpt>
      <trkpt lat="44.0899" lon="6.64779">
        <ele>2081</ele>
        <time>2022-08-20T11:13:44Z</time>
      </trkpt>
      <trkpt lat="44.0899" lon="6.64779">
        <ele>2081</ele>
        <time>2022-08-20T11:13:51Z</time>
      </trkpt>
      <trkpt lat="44.0899" lon="6.64778">
        <ele>2081</ele>
        <time>2022-08-20T11:14:02Z</time>
      </trkpt>
      <trkpt lat="44.0899" lon="6.64778">
        <ele>2081</ele>
        <time>2022-08-20T11:14:04Z</time>
      </trkpt>
      <trkpt lat="44.08991" lon="6.6478">
        <ele>2081</ele>
        <time>2022-08-20T11:14:08Z</time>
      </trkpt>
      <trkpt lat="44.0899" lon="6.64782">
        <ele>2081</ele>
        <time>2022-08-20T11:14:10Z</time>
      </trkpt>
      <trkpt lat="44.0899" lon="6.64782">
        <ele>2081</ele>
        <time>2022-08-20T11:14:13Z</time>
      </trkpt>
      <trkpt lat="44.0899" lon="6.64782">
        <ele>2081</ele>
        <time>2022-08-20T11:14:15Z</time>
      </trkpt>
      <trkpt lat="44.0899" lon="6.64782">
        <ele>2081</ele>
        <time>2022-08-20T11:14:16Z</time>
      </trkpt>
      <trkpt lat="44.0899" lon="6.64782">
        <ele>2081</ele>
        <time>2022-08-20T11:14:17Z</time>
      </trkpt>
      <trkpt lat="44.0899" lon="6.64781">
        <ele>2081</ele>
        <time>2022-08-20T11:14:20Z</time>
      </trkpt>
      <trkpt lat="44.08988" lon="6.64778">
        <ele>2081</ele>
        <time>2022-08-20T11:14:25Z</time>
      </trkpt>
      <trkpt lat="44.08987" lon="6.64778">
        <ele>2085</ele>
        <time>2022-08-20T11:14:27Z</time>
      </trkpt>
      <trkpt lat="44.08987" lon="6.64778">
        <ele>2085</ele>
        <time>2022-08-20T11:14:29Z</time>
      </trkpt>
      <trkpt lat="44.08987" lon="6.64778">
        <ele>2085</ele>
        <time>2022-08-20T11:14:31Z</time>
      </trkpt>
      <trkpt lat="44.08988" lon="6.64778">
        <ele>2085</ele>
        <time>2022-08-20T11:14:34Z</time>
      </trkpt>
      <trkpt lat="44.0899" lon="6.64778">
        <ele>2085.6000976562</ele>
        <time>2022-08-20T11:14:41Z</time>
      </trkpt>
      <trkpt lat="44.0899" lon="6.64778">
        <ele>2085.3999023438</ele>
        <time>2022-08-20T11:14:44Z</time>
      </trkpt>
      <trkpt lat="44.08991" lon="6.64778">
        <ele>2085.3999023438</ele>
        <time>2022-08-20T11:14:46Z</time>
      </trkpt>
      <trkpt lat="44.08991" lon="6.64778">
        <ele>2085.3999023438</ele>
        <time>2022-08-20T11:14:48Z</time>
      </trkpt>
      <trkpt lat="44.08991" lon="6.64779">
        <ele>2085.1999511719</ele>
        <time>2022-08-20T11:14:51Z</time>
      </trkpt>
      <trkpt lat="44.08991" lon="6.6478">
        <ele>2085.1999511719</ele>
        <time>2022-08-20T11:15:00Z</time>
      </trkpt>
      <trkpt lat="44.08991" lon="6.6478">
        <ele>2085.1999511719</ele>
        <time>2022-08-20T11:15:04Z</time>
      </trkpt>
      <trkpt lat="44.08991" lon="6.6478">
        <ele>2085</ele>
        <time>2022-08-20T11:15:13Z</time>
      </trkpt>
      <trkpt lat="44.08991" lon="6.6478">
        <ele>2085.1999511719</ele>
        <time>2022-08-20T11:15:15Z</time>
      </trkpt>
      <trkpt lat="44.08991" lon="6.6478">
        <ele>2085.1999511719</ele>
        <time>2022-08-20T11:15:17Z</time>
      </trkpt>
      <trkpt lat="44.08989" lon="6.6478">
        <ele>2085.1999511719</ele>
        <time>2022-08-20T11:15:25Z</time>
      </trkpt>
      <trkpt lat="44.08988" lon="6.64778">
        <ele>2084.6000976562</ele>
        <time>2022-08-20T11:15:31Z</time>
      </trkpt>
      <trkpt lat="44.08988" lon="6.64777">
        <ele>2084.6000976562</ele>
        <time>2022-08-20T11:15:35Z</time>
      </trkpt>
      <trkpt lat="44.08988" lon="6.64777">
        <ele>2084.6000976562</ele>
        <time>2022-08-20T11:15:36Z</time>
      </trkpt>
      <trkpt lat="44.08988" lon="6.64778">
        <ele>2084.6000976562</ele>
        <time>2022-08-20T11:15:44Z</time>
      </trkpt>
      <trkpt lat="44.08988" lon="6.64778">
        <ele>2084.6000976562</ele>
        <time>2022-08-20T11:15:45Z</time>
      </trkpt>
      <trkpt lat="44.08988" lon="6.64778">
        <ele>2084.6000976562</ele>
        <time>2022-08-20T11:15:51Z</time>
      </trkpt>
      <trkpt lat="44.08988" lon="6.64778">
        <ele>2084.6000976562</ele>
        <time>2022-08-20T11:15:54Z</time>
      </trkpt>
      <trkpt lat="44.08988" lon="6.64778">
        <ele>2084.6000976562</ele>
        <time>2022-08-20T11:15:59Z</time>
      </trkpt>
      <trkpt lat="44.08987" lon="6.64776">
        <ele>2084.6000976562</ele>
        <time>2022-08-20T11:16:03Z</time>
      </trkpt>
      <trkpt lat="44.08988" lon="6.64776">
        <ele>2084.6000976562</ele>
        <time>2022-08-20T11:16:06Z</time>
      </trkpt>
      <trkpt lat="44.08988" lon="6.64776">
        <ele>2084.6000976562</ele>
        <time>2022-08-20T11:16:07Z</time>
      </trkpt>
      <trkpt lat="44.08988" lon="6.64776">
        <ele>2084.6000976562</ele>
        <time>2022-08-20T11:16:09Z</time>
      </trkpt>
      <trkpt lat="44.08988" lon="6.64776">
        <ele>2084.6000976562</ele>
        <time>2022-08-20T11:16:10Z</time>
      </trkpt>
      <trkpt lat="44.08988" lon="6.64776">
        <ele>2084.6000976562</ele>
        <time>2022-08-20T11:16:11Z</time>
      </trkpt>
      <trkpt lat="44.08988" lon="6.64775">
        <ele>2084.6000976562</ele>
        <time>2022-08-20T11:16:14Z</time>
      </trkpt>
      <trkpt lat="44.08988" lon="6.64776">
        <ele>2084.6000976562</ele>
        <time>2022-08-20T11:16:18Z</time>
      </trkpt>
      <trkpt lat="44.08987" lon="6.64777">
        <ele>2084.6000976562</ele>
        <time>2022-08-20T11:16:28Z</time>
      </trkpt>
      <trkpt lat="44.08988" lon="6.64776">
        <ele>2084.6000976562</ele>
        <time>2022-08-20T11:16:41Z</time>
      </trkpt>
      <trkpt lat="44.08988" lon="6.64777">
        <ele>2084.6000976562</ele>
        <time>2022-08-20T11:16:52Z</time>
      </trkpt>
      <trkpt lat="44.08988" lon="6.64777">
        <ele>2084.6000976562</ele>
        <time>2022-08-20T11:16:53Z</time>
      </trkpt>
      <trkpt lat="44.08988" lon="6.64777">
        <ele>2084.6000976562</ele>
        <time>2022-08-20T11:17:06Z</time>
      </trkpt>
      <trkpt lat="44.08988" lon="6.64777">
        <ele>2084.6000976562</ele>
        <time>2022-08-20T11:17:24Z</time>
      </trkpt>
      <trkpt lat="44.08988" lon="6.64777">
        <ele>2084.6000976562</ele>
        <time>2022-08-20T11:17:26Z</time>
      </trkpt>
      <trkpt lat="44.08989" lon="6.64777">
        <ele>2084.6000976562</ele>
        <time>2022-08-20T11:17:38Z</time>
      </trkpt>
      <trkpt lat="44.08989" lon="6.64777">
        <ele>2084.6000976562</ele>
        <time>2022-08-20T11:17:40Z</time>
      </trkpt>
      <trkpt lat="44.08988" lon="6.64778">
        <ele>2084.6000976562</ele>
        <time>2022-08-20T11:17:54Z</time>
      </trkpt>
      <trkpt lat="44.08988" lon="6.64778">
        <ele>2084.6000976562</ele>
        <time>2022-08-20T11:17:57Z</time>
      </trkpt>
      <trkpt lat="44.08988" lon="6.64778">
        <ele>2084.6000976562</ele>
        <time>2022-08-20T11:18:02Z</time>
      </trkpt>
      <trkpt lat="44.08988" lon="6.64778">
        <ele>2084.6000976562</ele>
        <time>2022-08-20T11:18:15Z</time>
      </trkpt>
      <trkpt lat="44.08988" lon="6.64777">
        <ele>2084.6000976562</ele>
        <time>2022-08-20T11:18:23Z</time>
      </trkpt>
      <trkpt lat="44.08987" lon="6.64777">
        <ele>2084.6000976562</ele>
        <time>2022-08-20T11:18:36Z</time>
      </trkpt>
      <trkpt lat="44.08987" lon="6.64777">
        <ele>2084.6000976562</ele>
        <time>2022-08-20T11:18:38Z</time>
      </trkpt>
      <trkpt lat="44.08987" lon="6.64777">
        <ele>2084.6000976562</ele>
        <time>2022-08-20T11:18:42Z</time>
      </trkpt>
      <trkpt lat="44.08988" lon="6.64777">
        <ele>2084.6000976562</ele>
        <time>2022-08-20T11:18:45Z</time>
      </trkpt>
      <trkpt lat="44.08988" lon="6.64777">
        <ele>2084.6000976562</ele>
        <time>2022-08-20T11:18:47Z</time>
      </trkpt>
      <trkpt lat="44.08988" lon="6.64776">
        <ele>2084.6000976562</ele>
        <time>2022-08-20T11:18:50Z</time>
      </trkpt>
      <trkpt lat="44.08988" lon="6.64776">
        <ele>2084.6000976562</ele>
        <time>2022-08-20T11:18:55Z</time>
      </trkpt>
      <trkpt lat="44.08989" lon="6.64776">
        <ele>2084.6000976562</ele>
        <time>2022-08-20T11:18:59Z</time>
      </trkpt>
      <trkpt lat="44.08989" lon="6.64776">
        <ele>2084.6000976562</ele>
        <time>2022-08-20T11:19:02Z</time>
      </trkpt>
      <trkpt lat="44.08989" lon="6.64776">
        <ele>2084.6000976562</ele>
        <time>2022-08-20T11:19:04Z</time>
      </trkpt>
      <trkpt lat="44.08989" lon="6.64775">
        <ele>2084.6000976562</ele>
        <time>2022-08-20T11:19:06Z</time>
      </trkpt>
      <trkpt lat="44.08989" lon="6.64775">
        <ele>2084.6000976562</ele>
        <time>2022-08-20T11:19:10Z</time>
      </trkpt>
      <trkpt lat="44.08989" lon="6.64776">
        <ele>2084.6000976562</ele>
        <time>2022-08-20T11:19:29Z</time>
      </trkpt>
      <trkpt lat="44.08989" lon="6.64777">
        <ele>2084.6000976562</ele>
        <time>2022-08-20T11:19:33Z</time>
      </trkpt>
      <trkpt lat="44.0899" lon="6.64777">
        <ele>2084.6000976562</ele>
        <time>2022-08-20T11:19:37Z</time>
      </trkpt>
      <trkpt lat="44.08989" lon="6.64778">
        <ele>2084.6000976562</ele>
        <time>2022-08-20T11:19:47Z</time>
      </trkpt>
      <trkpt lat="44.08989" lon="6.64778">
        <ele>2084.6000976562</ele>
        <time>2022-08-20T11:19:50Z</time>
      </trkpt>
      <trkpt lat="44.08989" lon="6.64777">
        <ele>2084.6000976562</ele>
        <time>2022-08-20T11:19:56Z</time>
      </trkpt>
      <trkpt lat="44.08989" lon="6.64777">
        <ele>2084.6000976562</ele>
        <time>2022-08-20T11:19:57Z</time>
      </trkpt>
      <trkpt lat="44.08989" lon="6.64777">
        <ele>2084.6000976562</ele>
        <time>2022-08-20T11:20:03Z</time>
      </trkpt>
      <trkpt lat="44.08989" lon="6.64777">
        <ele>2084.6000976562</ele>
        <time>2022-08-20T11:20:15Z</time>
      </trkpt>
      <trkpt lat="44.08989" lon="6.64777">
        <ele>2084.6000976562</ele>
        <time>2022-08-20T11:20:18Z</time>
      </trkpt>
      <trkpt lat="44.08989" lon="6.64778">
        <ele>2084.6000976562</ele>
        <time>2022-08-20T11:20:25Z</time>
      </trkpt>
      <trkpt lat="44.08989" lon="6.64778">
        <ele>2084.6000976562</ele>
        <time>2022-08-20T11:20:35Z</time>
      </trkpt>
      <trkpt lat="44.08989" lon="6.64777">
        <ele>2084.6000976562</ele>
        <time>2022-08-20T11:20:57Z</time>
      </trkpt>
      <trkpt lat="44.0899" lon="6.64775">
        <ele>2084.6000976562</ele>
        <time>2022-08-20T11:21:13Z</time>
      </trkpt>
      <trkpt lat="44.0899" lon="6.64775">
        <ele>2084.6000976562</ele>
        <time>2022-08-20T11:21:14Z</time>
      </trkpt>
      <trkpt lat="44.08991" lon="6.64775">
        <ele>2084.6000976562</ele>
        <time>2022-08-20T11:21:23Z</time>
      </trkpt>
      <trkpt lat="44.08991" lon="6.64775">
        <ele>2084.6000976562</ele>
        <time>2022-08-20T11:21:28Z</time>
      </trkpt>
      <trkpt lat="44.0899" lon="6.64776">
        <ele>2084.6000976562</ele>
        <time>2022-08-20T11:21:35Z</time>
      </trkpt>
      <trkpt lat="44.0899" lon="6.64776">
        <ele>2084.6000976562</ele>
        <time>2022-08-20T11:21:36Z</time>
      </trkpt>
      <trkpt lat="44.0899" lon="6.64777">
        <ele>2084.6000976562</ele>
        <time>2022-08-20T11:21:42Z</time>
      </trkpt>
      <trkpt lat="44.0899" lon="6.64777">
        <ele>2084.6000976562</ele>
        <time>2022-08-20T11:21:45Z</time>
      </trkpt>
      <trkpt lat="44.0899" lon="6.64777">
        <ele>2084.6000976562</ele>
        <time>2022-08-20T11:21:47Z</time>
      </trkpt>
      <trkpt lat="44.08991" lon="6.64776">
        <ele>2084.6000976562</ele>
        <time>2022-08-20T11:22:05Z</time>
      </trkpt>
      <trkpt lat="44.08992" lon="6.64775">
        <ele>2084.6000976562</ele>
        <time>2022-08-20T11:22:07Z</time>
      </trkpt>
      <trkpt lat="44.08992" lon="6.64775">
        <ele>2084.6000976562</ele>
        <time>2022-08-20T11:22:12Z</time>
      </trkpt>
      <trkpt lat="44.08992" lon="6.64774">
        <ele>2084.6000976562</ele>
        <time>2022-08-20T11:22:22Z</time>
      </trkpt>
      <trkpt lat="44.08989" lon="6.64772">
        <ele>2084.6000976562</ele>
        <time>2022-08-20T11:22:35Z</time>
      </trkpt>
      <trkpt lat="44.08989" lon="6.64772">
        <ele>2084.6000976562</ele>
        <time>2022-08-20T11:22:36Z</time>
      </trkpt>
      <trkpt lat="44.0899" lon="6.64772">
        <ele>2084.6000976562</ele>
        <time>2022-08-20T11:22:38Z</time>
      </trkpt>
      <trkpt lat="44.08991" lon="6.6477">
        <ele>2084.6000976562</ele>
        <time>2022-08-20T11:22:49Z</time>
      </trkpt>
      <trkpt lat="44.08991" lon="6.6477">
        <ele>2084.6000976562</ele>
        <time>2022-08-20T11:22:50Z</time>
      </trkpt>
      <trkpt lat="44.08991" lon="6.6477">
        <ele>2084.6000976562</ele>
        <time>2022-08-20T11:22:54Z</time>
      </trkpt>
      <trkpt lat="44.08991" lon="6.64769">
        <ele>2084.6000976562</ele>
        <time>2022-08-20T11:22:57Z</time>
      </trkpt>
      <trkpt lat="44.0899" lon="6.64771">
        <ele>2084.6000976562</ele>
        <time>2022-08-20T11:23:01Z</time>
      </trkpt>
      <trkpt lat="44.08989" lon="6.64772">
        <ele>2084.6000976562</ele>
        <time>2022-08-20T11:23:11Z</time>
      </trkpt>
      <trkpt lat="44.0899" lon="6.64773">
        <ele>2084.6000976562</ele>
        <time>2022-08-20T11:23:23Z</time>
      </trkpt>
      <trkpt lat="44.08989" lon="6.64773">
        <ele>2084.6000976562</ele>
        <time>2022-08-20T11:23:32Z</time>
      </trkpt>
      <trkpt lat="44.08989" lon="6.64774">
        <ele>2084.6000976562</ele>
        <time>2022-08-20T11:23:37Z</time>
      </trkpt>
      <trkpt lat="44.08988" lon="6.64774">
        <ele>2084.6000976562</ele>
        <time>2022-08-20T11:23:44Z</time>
      </trkpt>
      <trkpt lat="44.08989" lon="6.64774">
        <ele>2084.6000976562</ele>
        <time>2022-08-20T11:23:47Z</time>
      </trkpt>
      <trkpt lat="44.08991" lon="6.64773">
        <ele>2084.6000976562</ele>
        <time>2022-08-20T11:24:03Z</time>
      </trkpt>
      <trkpt lat="44.08991" lon="6.64774">
        <ele>2084.6000976562</ele>
        <time>2022-08-20T11:24:06Z</time>
      </trkpt>
      <trkpt lat="44.08991" lon="6.64774">
        <ele>2084.6000976562</ele>
        <time>2022-08-20T11:24:10Z</time>
      </trkpt>
      <trkpt lat="44.08992" lon="6.64773">
        <ele>2084.6000976562</ele>
        <time>2022-08-20T11:24:24Z</time>
      </trkpt>
      <trkpt lat="44.08992" lon="6.64773">
        <ele>2084.6000976562</ele>
        <time>2022-08-20T11:24:32Z</time>
      </trkpt>
      <trkpt lat="44.08992" lon="6.64772">
        <ele>2084.6000976562</ele>
        <time>2022-08-20T11:24:37Z</time>
      </trkpt>
      <trkpt lat="44.08991" lon="6.64772">
        <ele>2084.6000976562</ele>
        <time>2022-08-20T11:24:48Z</time>
      </trkpt>
      <trkpt lat="44.08991" lon="6.64772">
        <ele>2084.6000976562</ele>
        <time>2022-08-20T11:24:49Z</time>
      </trkpt>
      <trkpt lat="44.0899" lon="6.64772">
        <ele>2084.6000976562</ele>
        <time>2022-08-20T11:25:00Z</time>
      </trkpt>
      <trkpt lat="44.08991" lon="6.64772">
        <ele>2084.6000976562</ele>
        <time>2022-08-20T11:25:13Z</time>
      </trkpt>
      <trkpt lat="44.08991" lon="6.64772">
        <ele>2084.6000976562</ele>
        <time>2022-08-20T11:25:23Z</time>
      </trkpt>
      <trkpt lat="44.08991" lon="6.64772">
        <ele>2084.6000976562</ele>
        <time>2022-08-20T11:25:33Z</time>
      </trkpt>
      <trkpt lat="44.08991" lon="6.64773">
        <ele>2084.6000976562</ele>
        <time>2022-08-20T11:25:46Z</time>
      </trkpt>
      <trkpt lat="44.0899" lon="6.64773">
        <ele>2084.6000976562</ele>
        <time>2022-08-20T11:25:49Z</time>
      </trkpt>
      <trkpt lat="44.0899" lon="6.64773">
        <ele>2084.6000976562</ele>
        <time>2022-08-20T11:26:02Z</time>
      </trkpt>
      <trkpt lat="44.0899" lon="6.64774">
        <ele>2084.6000976562</ele>
        <time>2022-08-20T11:26:17Z</time>
      </trkpt>
      <trkpt lat="44.0899" lon="6.64774">
        <ele>2084.6000976562</ele>
        <time>2022-08-20T11:26:59Z</time>
      </trkpt>
      <trkpt lat="44.08989" lon="6.64774">
        <ele>2084.6000976562</ele>
        <time>2022-08-20T11:27:35Z</time>
      </trkpt>
      <trkpt lat="44.08989" lon="6.64774">
        <ele>2084.6000976562</ele>
        <time>2022-08-20T11:27:39Z</time>
      </trkpt>
      <trkpt lat="44.08989" lon="6.64774">
        <ele>2084.6000976562</ele>
        <time>2022-08-20T11:27:42Z</time>
      </trkpt>
      <trkpt lat="44.08989" lon="6.64775">
        <ele>2084.6000976562</ele>
        <time>2022-08-20T11:27:55Z</time>
      </trkpt>
      <trkpt lat="44.08989" lon="6.64775">
        <ele>2084.6000976562</ele>
        <time>2022-08-20T11:28:00Z</time>
      </trkpt>
      <trkpt lat="44.08989" lon="6.64775">
        <ele>2084.6000976562</ele>
        <time>2022-08-20T11:28:32Z</time>
      </trkpt>
      <trkpt lat="44.08989" lon="6.64776">
        <ele>2084.6000976562</ele>
        <time>2022-08-20T11:29:01Z</time>
      </trkpt>
      <trkpt lat="44.08989" lon="6.64776">
        <ele>2084.6000976562</ele>
        <time>2022-08-20T11:29:07Z</time>
      </trkpt>
      <trkpt lat="44.08989" lon="6.64776">
        <ele>2084.6000976562</ele>
        <time>2022-08-20T11:29:13Z</time>
      </trkpt>
      <trkpt lat="44.08989" lon="6.64776">
        <ele>2084.6000976562</ele>
        <time>2022-08-20T11:29:22Z</time>
      </trkpt>
      <trkpt lat="44.0899" lon="6.64776">
        <ele>2084.6000976562</ele>
        <time>2022-08-20T11:29:35Z</time>
      </trkpt>
      <trkpt lat="44.0899" lon="6.64777">
        <ele>2084.6000976562</ele>
        <time>2022-08-20T11:29:57Z</time>
      </trkpt>
      <trkpt lat="44.0899" lon="6.64777">
        <ele>2084.6000976562</ele>
        <time>2022-08-20T11:30:03Z</time>
      </trkpt>
      <trkpt lat="44.08989" lon="6.64777">
        <ele>2084.6000976562</ele>
        <time>2022-08-20T11:30:08Z</time>
      </trkpt>
      <trkpt lat="44.08989" lon="6.64777">
        <ele>2084.6000976562</ele>
        <time>2022-08-20T11:30:16Z</time>
      </trkpt>
      <trkpt lat="44.08989" lon="6.64776">
        <ele>2084.6000976562</ele>
        <time>2022-08-20T11:30:18Z</time>
      </trkpt>
      <trkpt lat="44.08989" lon="6.64776">
        <ele>2084.6000976562</ele>
        <time>2022-08-20T11:30:21Z</time>
      </trkpt>
      <trkpt lat="44.08989" lon="6.64777">
        <ele>2084.6000976562</ele>
        <time>2022-08-20T11:30:27Z</time>
      </trkpt>
      <trkpt lat="44.08989" lon="6.64777">
        <ele>2084.6000976562</ele>
        <time>2022-08-20T11:30:49Z</time>
      </trkpt>
      <trkpt lat="44.08989" lon="6.64777">
        <ele>2084.6000976562</ele>
        <time>2022-08-20T11:30:50Z</time>
      </trkpt>
      <trkpt lat="44.08989" lon="6.64777">
        <ele>2084.6000976562</ele>
        <time>2022-08-20T11:31:07Z</time>
      </trkpt>
      <trkpt lat="44.08989" lon="6.64777">
        <ele>2084.6000976562</ele>
        <time>2022-08-20T11:31:16Z</time>
      </trkpt>
      <trkpt lat="44.08989" lon="6.64777">
        <ele>2084.6000976562</ele>
        <time>2022-08-20T11:31:25Z</time>
      </trkpt>
      <trkpt lat="44.08988" lon="6.64777">
        <ele>2084.6000976562</ele>
        <time>2022-08-20T11:31:42Z</time>
      </trkpt>
      <trkpt lat="44.08988" lon="6.64777">
        <ele>2084.6000976562</ele>
        <time>2022-08-20T11:31:46Z</time>
      </trkpt>
      <trkpt lat="44.08988" lon="6.64777">
        <ele>2084.6000976562</ele>
        <time>2022-08-20T11:31:48Z</time>
      </trkpt>
      <trkpt lat="44.08989" lon="6.64777">
        <ele>2084.6000976562</ele>
        <time>2022-08-20T11:31:58Z</time>
      </trkpt>
      <trkpt lat="44.08989" lon="6.64777">
        <ele>2084.6000976562</ele>
        <time>2022-08-20T11:32:08Z</time>
      </trkpt>
      <trkpt lat="44.08989" lon="6.64777">
        <ele>2084.6000976562</ele>
        <time>2022-08-20T11:32:10Z</time>
      </trkpt>
      <trkpt lat="44.08989" lon="6.64777">
        <ele>2084.6000976562</ele>
        <time>2022-08-20T11:32:20Z</time>
      </trkpt>
      <trkpt lat="44.08989" lon="6.64777">
        <ele>2084.6000976562</ele>
        <time>2022-08-20T11:32:40Z</time>
      </trkpt>
      <trkpt lat="44.08989" lon="6.64777">
        <ele>2084.6000976562</ele>
        <time>2022-08-20T11:33:08Z</time>
      </trkpt>
      <trkpt lat="44.08989" lon="6.64777">
        <ele>2084.6000976562</ele>
        <time>2022-08-20T11:33:14Z</time>
      </trkpt>
      <trkpt lat="44.0899" lon="6.64777">
        <ele>2084.6000976562</ele>
        <time>2022-08-20T11:33:18Z</time>
      </trkpt>
      <trkpt lat="44.08989" lon="6.64777">
        <ele>2084.6000976562</ele>
        <time>2022-08-20T11:33:42Z</time>
      </trkpt>
      <trkpt lat="44.08989" lon="6.64777">
        <ele>2084.6000976562</ele>
        <time>2022-08-20T11:33:43Z</time>
      </trkpt>
      <trkpt lat="44.08988" lon="6.64776">
        <ele>2084.6000976562</ele>
        <time>2022-08-20T11:34:00Z</time>
      </trkpt>
      <trkpt lat="44.08989" lon="6.64775">
        <ele>2084.6000976562</ele>
        <time>2022-08-20T11:34:07Z</time>
      </trkpt>
      <trkpt lat="44.0899" lon="6.64776">
        <ele>2084.6000976562</ele>
        <time>2022-08-20T11:34:20Z</time>
      </trkpt>
      <trkpt lat="44.0899" lon="6.64776">
        <ele>2084.6000976562</ele>
        <time>2022-08-20T11:34:25Z</time>
      </trkpt>
      <trkpt lat="44.08992" lon="6.64775">
        <ele>2084.6000976562</ele>
        <time>2022-08-20T11:34:41Z</time>
      </trkpt>
      <trkpt lat="44.08992" lon="6.64775">
        <ele>2084.6000976562</ele>
        <time>2022-08-20T11:34:46Z</time>
      </trkpt>
      <trkpt lat="44.08993" lon="6.64775">
        <ele>2084.6000976562</ele>
        <time>2022-08-20T11:34:53Z</time>
      </trkpt>
      <trkpt lat="44.08994" lon="6.64775">
        <ele>2084.6000976562</ele>
        <time>2022-08-20T11:34:56Z</time>
      </trkpt>
      <trkpt lat="44.08995" lon="6.64774">
        <ele>2084.6000976562</ele>
        <time>2022-08-20T11:35:07Z</time>
      </trkpt>
      <trkpt lat="44.08994" lon="6.64774">
        <ele>2084.6000976562</ele>
        <time>2022-08-20T11:35:19Z</time>
      </trkpt>
      <trkpt lat="44.08993" lon="6.64774">
        <ele>2084.6000976562</ele>
        <time>2022-08-20T11:35:43Z</time>
      </trkpt>
      <trkpt lat="44.08993" lon="6.64774">
        <ele>2084.6000976562</ele>
        <time>2022-08-20T11:35:45Z</time>
      </trkpt>
      <trkpt lat="44.08994" lon="6.64776">
        <ele>2084.6000976562</ele>
        <time>2022-08-20T11:35:57Z</time>
      </trkpt>
      <trkpt lat="44.08994" lon="6.64775">
        <ele>2084.6000976562</ele>
        <time>2022-08-20T11:36:01Z</time>
      </trkpt>
      <trkpt lat="44.08995" lon="6.64775">
        <ele>2084.6000976562</ele>
        <time>2022-08-20T11:36:11Z</time>
      </trkpt>
      <trkpt lat="44.08994" lon="6.64774">
        <ele>2084.6000976562</ele>
        <time>2022-08-20T11:36:23Z</time>
      </trkpt>
      <trkpt lat="44.08994" lon="6.64774">
        <ele>2084.6000976562</ele>
        <time>2022-08-20T11:36:40Z</time>
      </trkpt>
      <trkpt lat="44.08994" lon="6.64774">
        <ele>2084.6000976562</ele>
        <time>2022-08-20T11:36:53Z</time>
      </trkpt>
      <trkpt lat="44.08994" lon="6.64775">
        <ele>2084.6000976562</ele>
        <time>2022-08-20T11:36:59Z</time>
      </trkpt>
      <trkpt lat="44.08993" lon="6.64775">
        <ele>2084.6000976562</ele>
        <time>2022-08-20T11:37:01Z</time>
      </trkpt>
      <trkpt lat="44.08993" lon="6.64774">
        <ele>2084.6000976562</ele>
        <time>2022-08-20T11:37:03Z</time>
      </trkpt>
      <trkpt lat="44.08994" lon="6.64772">
        <ele>2084.6000976562</ele>
        <time>2022-08-20T11:37:12Z</time>
      </trkpt>
      <trkpt lat="44.08992" lon="6.64772">
        <ele>2084.6000976562</ele>
        <time>2022-08-20T11:37:36Z</time>
      </trkpt>
      <trkpt lat="44.08992" lon="6.64772">
        <ele>2084.6000976562</ele>
        <time>2022-08-20T11:37:39Z</time>
      </trkpt>
      <trkpt lat="44.08992" lon="6.64773">
        <ele>2084.6000976562</ele>
        <time>2022-08-20T11:37:45Z</time>
      </trkpt>
      <trkpt lat="44.08989" lon="6.64776">
        <ele>2084.6000976562</ele>
        <time>2022-08-20T11:37:51Z</time>
      </trkpt>
      <trkpt lat="44.08989" lon="6.64775">
        <ele>2084.6000976562</ele>
        <time>2022-08-20T11:37:57Z</time>
      </trkpt>
      <trkpt lat="44.08989" lon="6.64776">
        <ele>2084.6000976562</ele>
        <time>2022-08-20T11:38:01Z</time>
      </trkpt>
      <trkpt lat="44.08988" lon="6.64776">
        <ele>2084.6000976562</ele>
        <time>2022-08-20T11:38:03Z</time>
      </trkpt>
      <trkpt lat="44.08988" lon="6.64776">
        <ele>2084.6000976562</ele>
        <time>2022-08-20T11:38:05Z</time>
      </trkpt>
      <trkpt lat="44.08989" lon="6.64775">
        <ele>2084.6000976562</ele>
        <time>2022-08-20T11:38:21Z</time>
      </trkpt>
      <trkpt lat="44.08989" lon="6.64776">
        <ele>2084.6000976562</ele>
        <time>2022-08-20T11:38:25Z</time>
      </trkpt>
      <trkpt lat="44.08989" lon="6.64776">
        <ele>2084.6000976562</ele>
        <time>2022-08-20T11:38:37Z</time>
      </trkpt>
      <trkpt lat="44.08988" lon="6.64776">
        <ele>2084.6000976562</ele>
        <time>2022-08-20T11:38:44Z</time>
      </trkpt>
      <trkpt lat="44.08988" lon="6.64776">
        <ele>2084.6000976562</ele>
        <time>2022-08-20T11:38:50Z</time>
      </trkpt>
      <trkpt lat="44.08988" lon="6.64776">
        <ele>2084.6000976562</ele>
        <time>2022-08-20T11:38:52Z</time>
      </trkpt>
      <trkpt lat="44.08988" lon="6.64776">
        <ele>2084.6000976562</ele>
        <time>2022-08-20T11:38:57Z</time>
      </trkpt>
      <trkpt lat="44.08988" lon="6.64776">
        <ele>2084.6000976562</ele>
        <time>2022-08-20T11:39:06Z</time>
      </trkpt>
      <trkpt lat="44.08988" lon="6.64776">
        <ele>2084.6000976562</ele>
        <time>2022-08-20T11:39:08Z</time>
      </trkpt>
      <trkpt lat="44.08988" lon="6.64776">
        <ele>2084.6000976562</ele>
        <time>2022-08-20T11:39:13Z</time>
      </trkpt>
      <trkpt lat="44.08988" lon="6.64776">
        <ele>2084.6000976562</ele>
        <time>2022-08-20T11:39:15Z</time>
      </trkpt>
      <trkpt lat="44.08988" lon="6.64776">
        <ele>2084.6000976562</ele>
        <time>2022-08-20T11:39:37Z</time>
      </trkpt>
      <trkpt lat="44.08988" lon="6.64776">
        <ele>2084.6000976562</ele>
        <time>2022-08-20T11:39:38Z</time>
      </trkpt>
      <trkpt lat="44.08988" lon="6.64776">
        <ele>2084.6000976562</ele>
        <time>2022-08-20T11:39:49Z</time>
      </trkpt>
      <trkpt lat="44.08988" lon="6.64776">
        <ele>2084.6000976562</ele>
        <time>2022-08-20T11:39:51Z</time>
      </trkpt>
      <trkpt lat="44.08988" lon="6.64776">
        <ele>2084.6000976562</ele>
        <time>2022-08-20T11:40:05Z</time>
      </trkpt>
      <trkpt lat="44.08989" lon="6.64776">
        <ele>2084.6000976562</ele>
        <time>2022-08-20T11:40:15Z</time>
      </trkpt>
      <trkpt lat="44.08989" lon="6.64776">
        <ele>2084.6000976562</ele>
        <time>2022-08-20T11:40:19Z</time>
      </trkpt>
      <trkpt lat="44.08988" lon="6.64776">
        <ele>2084.6000976562</ele>
        <time>2022-08-20T11:40:30Z</time>
      </trkpt>
      <trkpt lat="44.08989" lon="6.64776">
        <ele>2084.6000976562</ele>
        <time>2022-08-20T11:40:32Z</time>
      </trkpt>
      <trkpt lat="44.08988" lon="6.64777">
        <ele>2084.6000976562</ele>
        <time>2022-08-20T11:40:58Z</time>
      </trkpt>
      <trkpt lat="44.08988" lon="6.64777">
        <ele>2084.6000976562</ele>
        <time>2022-08-20T11:41:09Z</time>
      </trkpt>
      <trkpt lat="44.08988" lon="6.64777">
        <ele>2084.6000976562</ele>
        <time>2022-08-20T11:41:12Z</time>
      </trkpt>
      <trkpt lat="44.08988" lon="6.64777">
        <ele>2084.6000976562</ele>
        <time>2022-08-20T11:41:24Z</time>
      </trkpt>
      <trkpt lat="44.08988" lon="6.64777">
        <ele>2084.6000976562</ele>
        <time>2022-08-20T11:41:29Z</time>
      </trkpt>
      <trkpt lat="44.08988" lon="6.64777">
        <ele>2084.6000976562</ele>
        <time>2022-08-20T11:41:34Z</time>
      </trkpt>
      <trkpt lat="44.08988" lon="6.64777">
        <ele>2084.6000976562</ele>
        <time>2022-08-20T11:41:36Z</time>
      </trkpt>
      <trkpt lat="44.08988" lon="6.64777">
        <ele>2084.6000976562</ele>
        <time>2022-08-20T11:41:37Z</time>
      </trkpt>
      <trkpt lat="44.08988" lon="6.64777">
        <ele>2084.6000976562</ele>
        <time>2022-08-20T11:41:41Z</time>
      </trkpt>
      <trkpt lat="44.08988" lon="6.64777">
        <ele>2084.6000976562</ele>
        <time>2022-08-20T11:41:57Z</time>
      </trkpt>
      <trkpt lat="44.08988" lon="6.64777">
        <ele>2084.6000976562</ele>
        <time>2022-08-20T11:42:04Z</time>
      </trkpt>
      <trkpt lat="44.08988" lon="6.64777">
        <ele>2084.6000976562</ele>
        <time>2022-08-20T11:42:16Z</time>
      </trkpt>
      <trkpt lat="44.08988" lon="6.64777">
        <ele>2084.6000976562</ele>
        <time>2022-08-20T11:42:30Z</time>
      </trkpt>
      <trkpt lat="44.08988" lon="6.64777">
        <ele>2084.6000976562</ele>
        <time>2022-08-20T11:42:36Z</time>
      </trkpt>
      <trkpt lat="44.08988" lon="6.64777">
        <ele>2084.6000976562</ele>
        <time>2022-08-20T11:42:44Z</time>
      </trkpt>
      <trkpt lat="44.08988" lon="6.64776">
        <ele>2084.6000976562</ele>
        <time>2022-08-20T11:43:10Z</time>
      </trkpt>
      <trkpt lat="44.08989" lon="6.64776">
        <ele>2084.6000976562</ele>
        <time>2022-08-20T11:43:20Z</time>
      </trkpt>
      <trkpt lat="44.08989" lon="6.64777">
        <ele>2084.6000976562</ele>
        <time>2022-08-20T11:43:23Z</time>
      </trkpt>
      <trkpt lat="44.08989" lon="6.64777">
        <ele>2084.6000976562</ele>
        <time>2022-08-20T11:43:30Z</time>
      </trkpt>
      <trkpt lat="44.08989" lon="6.64777">
        <ele>2084.6000976562</ele>
        <time>2022-08-20T11:43:32Z</time>
      </trkpt>
      <trkpt lat="44.08989" lon="6.64776">
        <ele>2084.6000976562</ele>
        <time>2022-08-20T11:43:49Z</time>
      </trkpt>
      <trkpt lat="44.08989" lon="6.64776">
        <ele>2084.6000976562</ele>
        <time>2022-08-20T11:43:52Z</time>
      </trkpt>
      <trkpt lat="44.08989" lon="6.64776">
        <ele>2084.6000976562</ele>
        <time>2022-08-20T11:43:56Z</time>
      </trkpt>
      <trkpt lat="44.0899" lon="6.64776">
        <ele>2084.6000976562</ele>
        <time>2022-08-20T11:44:06Z</time>
      </trkpt>
      <trkpt lat="44.0899" lon="6.64776">
        <ele>2084.6000976562</ele>
        <time>2022-08-20T11:44:13Z</time>
      </trkpt>
      <trkpt lat="44.0899" lon="6.64776">
        <ele>2084.6000976562</ele>
        <time>2022-08-20T11:44:14Z</time>
      </trkpt>
      <trkpt lat="44.0899" lon="6.64776">
        <ele>2084.6000976562</ele>
        <time>2022-08-20T11:44:17Z</time>
      </trkpt>
      <trkpt lat="44.0899" lon="6.64776">
        <ele>2084.6000976562</ele>
        <time>2022-08-20T11:44:19Z</time>
      </trkpt>
      <trkpt lat="44.0899" lon="6.64776">
        <ele>2084.6000976562</ele>
        <time>2022-08-20T11:44:27Z</time>
      </trkpt>
      <trkpt lat="44.0899" lon="6.64776">
        <ele>2084.6000976562</ele>
        <time>2022-08-20T11:44:29Z</time>
      </trkpt>
      <trkpt lat="44.0899" lon="6.64777">
        <ele>2084.6000976562</ele>
        <time>2022-08-20T11:44:37Z</time>
      </trkpt>
      <trkpt lat="44.0899" lon="6.64777">
        <ele>2084.6000976562</ele>
        <time>2022-08-20T11:44:38Z</time>
      </trkpt>
      <trkpt lat="44.0899" lon="6.64777">
        <ele>2084.6000976562</ele>
        <time>2022-08-20T11:44:47Z</time>
      </trkpt>
      <trkpt lat="44.0899" lon="6.64777">
        <ele>2084.6000976562</ele>
        <time>2022-08-20T11:44:52Z</time>
      </trkpt>
      <trkpt lat="44.0899" lon="6.64777">
        <ele>2084.6000976562</ele>
        <time>2022-08-20T11:44:55Z</time>
      </trkpt>
      <trkpt lat="44.0899" lon="6.64777">
        <ele>2084.6000976562</ele>
        <time>2022-08-20T11:44:59Z</time>
      </trkpt>
      <trkpt lat="44.0899" lon="6.64777">
        <ele>2084.6000976562</ele>
        <time>2022-08-20T11:45:02Z</time>
      </trkpt>
      <trkpt lat="44.0899" lon="6.64777">
        <ele>2084.6000976562</ele>
        <time>2022-08-20T11:45:05Z</time>
      </trkpt>
      <trkpt lat="44.0899" lon="6.64777">
        <ele>2084.6000976562</ele>
        <time>2022-08-20T11:45:06Z</time>
      </trkpt>
      <trkpt lat="44.0899" lon="6.64777">
        <ele>2084.6000976562</ele>
        <time>2022-08-20T11:45:13Z</time>
      </trkpt>
      <trkpt lat="44.0899" lon="6.64777">
        <ele>2084.6000976562</ele>
        <time>2022-08-20T11:45:35Z</time>
      </trkpt>
      <trkpt lat="44.0899" lon="6.64777">
        <ele>2084.6000976562</ele>
        <time>2022-08-20T11:45:39Z</time>
      </trkpt>
      <trkpt lat="44.0899" lon="6.64777">
        <ele>2084.6000976562</ele>
        <time>2022-08-20T11:45:49Z</time>
      </trkpt>
      <trkpt lat="44.0899" lon="6.64777">
        <ele>2084.6000976562</ele>
        <time>2022-08-20T11:45:53Z</time>
      </trkpt>
      <trkpt lat="44.0899" lon="6.64777">
        <ele>2084.6000976562</ele>
        <time>2022-08-20T11:46:05Z</time>
      </trkpt>
      <trkpt lat="44.0899" lon="6.64777">
        <ele>2084.6000976562</ele>
        <time>2022-08-20T11:46:09Z</time>
      </trkpt>
      <trkpt lat="44.08991" lon="6.64777">
        <ele>2084.6000976562</ele>
        <time>2022-08-20T11:46:18Z</time>
      </trkpt>
      <trkpt lat="44.08991" lon="6.64777">
        <ele>2084.6000976562</ele>
        <time>2022-08-20T11:46:21Z</time>
      </trkpt>
      <trkpt lat="44.08991" lon="6.64776">
        <ele>2084.6000976562</ele>
        <time>2022-08-20T11:46:34Z</time>
      </trkpt>
      <trkpt lat="44.0899" lon="6.64776">
        <ele>2084.6000976562</ele>
        <time>2022-08-20T11:46:45Z</time>
      </trkpt>
      <trkpt lat="44.0899" lon="6.64776">
        <ele>2084.6000976562</ele>
        <time>2022-08-20T11:46:55Z</time>
      </trkpt>
      <trkpt lat="44.0899" lon="6.64776">
        <ele>2084.6000976562</ele>
        <time>2022-08-20T11:47:10Z</time>
      </trkpt>
      <trkpt lat="44.0899" lon="6.64776">
        <ele>2084.6000976562</ele>
        <time>2022-08-20T11:47:28Z</time>
      </trkpt>
      <trkpt lat="44.0899" lon="6.64776">
        <ele>2084.6000976562</ele>
        <time>2022-08-20T11:47:37Z</time>
      </trkpt>
      <trkpt lat="44.0899" lon="6.64777">
        <ele>2084.6000976562</ele>
        <time>2022-08-20T11:47:48Z</time>
      </trkpt>
      <trkpt lat="44.08989" lon="6.64777">
        <ele>2084.6000976562</ele>
        <time>2022-08-20T11:47:59Z</time>
      </trkpt>
      <trkpt lat="44.08989" lon="6.64776">
        <ele>2084.6000976562</ele>
        <time>2022-08-20T11:48:07Z</time>
      </trkpt>
      <trkpt lat="44.08989" lon="6.64777">
        <ele>2084.6000976562</ele>
        <time>2022-08-20T11:48:10Z</time>
      </trkpt>
      <trkpt lat="44.08989" lon="6.64778">
        <ele>2084.6000976562</ele>
        <time>2022-08-20T11:48:14Z</time>
      </trkpt>
      <trkpt lat="44.08989" lon="6.64778">
        <ele>2084.6000976562</ele>
        <time>2022-08-20T11:48:16Z</time>
      </trkpt>
      <trkpt lat="44.08988" lon="6.64778">
        <ele>2084.6000976562</ele>
        <time>2022-08-20T11:48:22Z</time>
      </trkpt>
      <trkpt lat="44.08988" lon="6.64778">
        <ele>2084.6000976562</ele>
        <time>2022-08-20T11:48:35Z</time>
      </trkpt>
      <trkpt lat="44.08989" lon="6.64778">
        <ele>2084.6000976562</ele>
        <time>2022-08-20T11:48:40Z</time>
      </trkpt>
      <trkpt lat="44.08989" lon="6.64778">
        <ele>2084.6000976562</ele>
        <time>2022-08-20T11:48:41Z</time>
      </trkpt>
      <trkpt lat="44.08989" lon="6.64778">
        <ele>2084.6000976562</ele>
        <time>2022-08-20T11:48:43Z</time>
      </trkpt>
      <trkpt lat="44.08988" lon="6.64778">
        <ele>2084.6000976562</ele>
        <time>2022-08-20T11:48:56Z</time>
      </trkpt>
      <trkpt lat="44.08989" lon="6.64777">
        <ele>2084.6000976562</ele>
        <time>2022-08-20T11:49:03Z</time>
      </trkpt>
      <trkpt lat="44.08989" lon="6.64778">
        <ele>2084.6000976562</ele>
        <time>2022-08-20T11:49:08Z</time>
      </trkpt>
      <trkpt lat="44.08989" lon="6.64776">
        <ele>2084.6000976562</ele>
        <time>2022-08-20T11:49:22Z</time>
      </trkpt>
      <trkpt lat="44.08989" lon="6.64776">
        <ele>2084.6000976562</ele>
        <time>2022-08-20T11:49:23Z</time>
      </trkpt>
      <trkpt lat="44.08989" lon="6.64777">
        <ele>2084.6000976562</ele>
        <time>2022-08-20T11:49:30Z</time>
      </trkpt>
      <trkpt lat="44.08989" lon="6.64778">
        <ele>2084.6000976562</ele>
        <time>2022-08-20T11:49:40Z</time>
      </trkpt>
      <trkpt lat="44.0899" lon="6.64778">
        <ele>2084.6000976562</ele>
        <time>2022-08-20T11:49:53Z</time>
      </trkpt>
      <trkpt lat="44.0899" lon="6.64778">
        <ele>2084.6000976562</ele>
        <time>2022-08-20T11:50:06Z</time>
      </trkpt>
      <trkpt lat="44.0899" lon="6.64778">
        <ele>2084.6000976562</ele>
        <time>2022-08-20T11:50:09Z</time>
      </trkpt>
      <trkpt lat="44.0899" lon="6.64778">
        <ele>2084.6000976562</ele>
        <time>2022-08-20T11:50:13Z</time>
      </trkpt>
      <trkpt lat="44.0899" lon="6.64778">
        <ele>2084.6000976562</ele>
        <time>2022-08-20T11:50:14Z</time>
      </trkpt>
      <trkpt lat="44.0899" lon="6.64778">
        <ele>2084.6000976562</ele>
        <time>2022-08-20T11:50:18Z</time>
      </trkpt>
      <trkpt lat="44.0899" lon="6.64778">
        <ele>2084.6000976562</ele>
        <time>2022-08-20T11:50:21Z</time>
      </trkpt>
      <trkpt lat="44.0899" lon="6.64778">
        <ele>2084.6000976562</ele>
        <time>2022-08-20T11:50:28Z</time>
      </trkpt>
      <trkpt lat="44.0899" lon="6.64778">
        <ele>2084.6000976562</ele>
        <time>2022-08-20T11:50:32Z</time>
      </trkpt>
      <trkpt lat="44.0899" lon="6.64778">
        <ele>2084.6000976562</ele>
        <time>2022-08-20T11:50:34Z</time>
      </trkpt>
      <trkpt lat="44.0899" lon="6.64778">
        <ele>2084.6000976562</ele>
        <time>2022-08-20T11:50:35Z</time>
      </trkpt>
      <trkpt lat="44.0899" lon="6.64778">
        <ele>2084.6000976562</ele>
        <time>2022-08-20T11:50:36Z</time>
      </trkpt>
      <trkpt lat="44.0899" lon="6.64778">
        <ele>2084.6000976562</ele>
        <time>2022-08-20T11:50:37Z</time>
      </trkpt>
      <trkpt lat="44.0899" lon="6.64778">
        <ele>2084.6000976562</ele>
        <time>2022-08-20T11:50:43Z</time>
      </trkpt>
      <trkpt lat="44.0899" lon="6.64778">
        <ele>2084.6000976562</ele>
        <time>2022-08-20T11:50:45Z</time>
      </trkpt>
      <trkpt lat="44.0899" lon="6.64778">
        <ele>2084.6000976562</ele>
        <time>2022-08-20T11:50:57Z</time>
      </trkpt>
      <trkpt lat="44.0899" lon="6.64777">
        <ele>2084.6000976562</ele>
        <time>2022-08-20T11:51:03Z</time>
      </trkpt>
      <trkpt lat="44.0899" lon="6.64777">
        <ele>2084.6000976562</ele>
        <time>2022-08-20T11:51:27Z</time>
      </trkpt>
      <trkpt lat="44.0899" lon="6.64777">
        <ele>2084.6000976562</ele>
        <time>2022-08-20T11:51:31Z</time>
      </trkpt>
      <trkpt lat="44.0899" lon="6.64777">
        <ele>2084.6000976562</ele>
        <time>2022-08-20T11:51:33Z</time>
      </trkpt>
      <trkpt lat="44.0899" lon="6.64778">
        <ele>2084.6000976562</ele>
        <time>2022-08-20T11:51:43Z</time>
      </trkpt>
      <trkpt lat="44.0899" lon="6.64778">
        <ele>2084.6000976562</ele>
        <time>2022-08-20T11:51:47Z</time>
      </trkpt>
      <trkpt lat="44.0899" lon="6.64778">
        <ele>2084.6000976562</ele>
        <time>2022-08-20T11:51:49Z</time>
      </trkpt>
      <trkpt lat="44.08989" lon="6.64778">
        <ele>2084.6000976562</ele>
        <time>2022-08-20T11:52:01Z</time>
      </trkpt>
      <trkpt lat="44.08989" lon="6.64778">
        <ele>2084.6000976562</ele>
        <time>2022-08-20T11:52:04Z</time>
      </trkpt>
      <trkpt lat="44.08988" lon="6.64779">
        <ele>2084.6000976562</ele>
        <time>2022-08-20T11:52:09Z</time>
      </trkpt>
      <trkpt lat="44.08988" lon="6.64779">
        <ele>2084.6000976562</ele>
        <time>2022-08-20T11:52:10Z</time>
      </trkpt>
      <trkpt lat="44.08988" lon="6.64779">
        <ele>2084.6000976562</ele>
        <time>2022-08-20T11:52:17Z</time>
      </trkpt>
      <trkpt lat="44.08988" lon="6.64779">
        <ele>2084.6000976562</ele>
        <time>2022-08-20T11:52:19Z</time>
      </trkpt>
      <trkpt lat="44.08989" lon="6.64779">
        <ele>2084.6000976562</ele>
        <time>2022-08-20T11:52:28Z</time>
      </trkpt>
      <trkpt lat="44.08989" lon="6.64779">
        <ele>2084.6000976562</ele>
        <time>2022-08-20T11:52:36Z</time>
      </trkpt>
      <trkpt lat="44.08989" lon="6.64778">
        <ele>2084.6000976562</ele>
        <time>2022-08-20T11:52:46Z</time>
      </trkpt>
      <trkpt lat="44.08989" lon="6.64778">
        <ele>2084.6000976562</ele>
        <time>2022-08-20T11:52:52Z</time>
      </trkpt>
      <trkpt lat="44.08989" lon="6.64778">
        <ele>2084.6000976562</ele>
        <time>2022-08-20T11:52:58Z</time>
      </trkpt>
      <trkpt lat="44.08989" lon="6.64779">
        <ele>2084.6000976562</ele>
        <time>2022-08-20T11:53:10Z</time>
      </trkpt>
      <trkpt lat="44.08989" lon="6.64779">
        <ele>2084.6000976562</ele>
        <time>2022-08-20T11:53:11Z</time>
      </trkpt>
      <trkpt lat="44.08989" lon="6.6478">
        <ele>2084.6000976562</ele>
        <time>2022-08-20T11:53:23Z</time>
      </trkpt>
      <trkpt lat="44.08988" lon="6.64778">
        <ele>2084.6000976562</ele>
        <time>2022-08-20T11:53:32Z</time>
      </trkpt>
      <trkpt lat="44.08989" lon="6.64778">
        <ele>2084.6000976562</ele>
        <time>2022-08-20T11:53:43Z</time>
      </trkpt>
      <trkpt lat="44.08986" lon="6.64774">
        <ele>2084.6000976562</ele>
        <time>2022-08-20T11:53:55Z</time>
      </trkpt>
      <trkpt lat="44.08983" lon="6.64769">
        <ele>2084.6000976562</ele>
        <time>2022-08-20T11:53:58Z</time>
      </trkpt>
      <trkpt lat="44.08975" lon="6.6476">
        <ele>2084.6000976562</ele>
        <time>2022-08-20T11:54:02Z</time>
      </trkpt>
      <trkpt lat="44.08966" lon="6.64752">
        <ele>2084</ele>
        <time>2022-08-20T11:54:06Z</time>
      </trkpt>
      <trkpt lat="44.08959" lon="6.64741">
        <ele>2083</ele>
        <time>2022-08-20T11:54:09Z</time>
      </trkpt>
      <trkpt lat="44.08957" lon="6.64736">
        <ele>2082.8000488281</ele>
        <time>2022-08-20T11:54:10Z</time>
      </trkpt>
      <trkpt lat="44.08953" lon="6.64724">
        <ele>2082.3999023438</ele>
        <time>2022-08-20T11:54:13Z</time>
      </trkpt>
      <trkpt lat="44.08949" lon="6.64711">
        <ele>2082</ele>
        <time>2022-08-20T11:54:16Z</time>
      </trkpt>
      <trkpt lat="44.08947" lon="6.64706">
        <ele>2081.8000488281</ele>
        <time>2022-08-20T11:54:17Z</time>
      </trkpt>
      <trkpt lat="44.08939" lon="6.64692">
        <ele>2080.8000488281</ele>
        <time>2022-08-20T11:54:20Z</time>
      </trkpt>
      <trkpt lat="44.08931" lon="6.64675">
        <ele>2080.1999511719</ele>
        <time>2022-08-20T11:54:23Z</time>
      </trkpt>
      <trkpt lat="44.08924" lon="6.64659">
        <ele>2079.8000488281</ele>
        <time>2022-08-20T11:54:26Z</time>
      </trkpt>
      <trkpt lat="44.08912" lon="6.64631">
        <ele>2079.1999511719</ele>
        <time>2022-08-20T11:54:32Z</time>
      </trkpt>
      <trkpt lat="44.08899" lon="6.64609">
        <ele>2079</ele>
        <time>2022-08-20T11:54:39Z</time>
      </trkpt>
      <trkpt lat="44.08893" lon="6.646">
        <ele>2078.8000488281</ele>
        <time>2022-08-20T11:54:42Z</time>
      </trkpt>
      <trkpt lat="44.0889" lon="6.64594">
        <ele>2078.8000488281</ele>
        <time>2022-08-20T11:54:44Z</time>
      </trkpt>
      <trkpt lat="44.08887" lon="6.64588">
        <ele>2078.8000488281</ele>
        <time>2022-08-20T11:54:46Z</time>
      </trkpt>
      <trkpt lat="44.08883" lon="6.64582">
        <ele>2078.6000976562</ele>
        <time>2022-08-20T11:54:48Z</time>
      </trkpt>
      <trkpt lat="44.08879" lon="6.64576">
        <ele>2078.6000976562</ele>
        <time>2022-08-20T11:54:50Z</time>
      </trkpt>
      <trkpt lat="44.08868" lon="6.64561">
        <ele>2078.3999023438</ele>
        <time>2022-08-20T11:54:55Z</time>
      </trkpt>
      <trkpt lat="44.08848" lon="6.6454">
        <ele>2077.6000976562</ele>
        <time>2022-08-20T11:55:02Z</time>
      </trkpt>
      <trkpt lat="44.08845" lon="6.64536">
        <ele>2077.3999023438</ele>
        <time>2022-08-20T11:55:03Z</time>
      </trkpt>
      <trkpt lat="44.08834" lon="6.64519">
        <ele>2076.6000976562</ele>
        <time>2022-08-20T11:55:07Z</time>
      </trkpt>
      <trkpt lat="44.08825" lon="6.64507">
        <ele>2075.6000976562</ele>
        <time>2022-08-20T11:55:10Z</time>
      </trkpt>
      <trkpt lat="44.08822" lon="6.64502">
        <ele>2075.3999023438</ele>
        <time>2022-08-20T11:55:11Z</time>
      </trkpt>
      <trkpt lat="44.08815" lon="6.64484">
        <ele>2074.6000976562</ele>
        <time>2022-08-20T11:55:14Z</time>
      </trkpt>
      <trkpt lat="44.08812" lon="6.64479">
        <ele>2074.3999023438</ele>
        <time>2022-08-20T11:55:15Z</time>
      </trkpt>
      <trkpt lat="44.08809" lon="6.64474">
        <ele>2074.3999023438</ele>
        <time>2022-08-20T11:55:16Z</time>
      </trkpt>
      <trkpt lat="44.08798" lon="6.6446">
        <ele>2073.3999023438</ele>
        <time>2022-08-20T11:55:19Z</time>
      </trkpt>
      <trkpt lat="44.08794" lon="6.64455">
        <ele>2073.1999511719</ele>
        <time>2022-08-20T11:55:20Z</time>
      </trkpt>
      <trkpt lat="44.08782" lon="6.64438">
        <ele>2072</ele>
        <time>2022-08-20T11:55:23Z</time>
      </trkpt>
      <trkpt lat="44.08774" lon="6.64425">
        <ele>2071.1999511719</ele>
        <time>2022-08-20T11:55:25Z</time>
      </trkpt>
      <trkpt lat="44.0877" lon="6.6442">
        <ele>2070.6000976562</ele>
        <time>2022-08-20T11:55:26Z</time>
      </trkpt>
      <trkpt lat="44.08759" lon="6.64405">
        <ele>2069.3999023438</ele>
        <time>2022-08-20T11:55:29Z</time>
      </trkpt>
      <trkpt lat="44.08751" lon="6.64394">
        <ele>2068.6000976562</ele>
        <time>2022-08-20T11:55:32Z</time>
      </trkpt>
      <trkpt lat="44.08748" lon="6.64391">
        <ele>2068.1999511719</ele>
        <time>2022-08-20T11:55:33Z</time>
      </trkpt>
      <trkpt lat="44.08741" lon="6.64378">
        <ele>2067</ele>
        <time>2022-08-20T11:55:36Z</time>
      </trkpt>
      <trkpt lat="44.08739" lon="6.64373">
        <ele>2066.6000976562</ele>
        <time>2022-08-20T11:55:37Z</time>
      </trkpt>
      <trkpt lat="44.08739" lon="6.64368">
        <ele>2066.3999023438</ele>
        <time>2022-08-20T11:55:38Z</time>
      </trkpt>
      <trkpt lat="44.08741" lon="6.64359">
        <ele>2066.1999511719</ele>
        <time>2022-08-20T11:55:40Z</time>
      </trkpt>
      <trkpt lat="44.08743" lon="6.64357">
        <ele>2066.1999511719</ele>
        <time>2022-08-20T11:55:41Z</time>
      </trkpt>
      <trkpt lat="44.08753" lon="6.6434">
        <ele>2066.3999023438</ele>
        <time>2022-08-20T11:55:48Z</time>
      </trkpt>
      <trkpt lat="44.08755" lon="6.64339">
        <ele>2066.3999023438</ele>
        <time>2022-08-20T11:55:51Z</time>
      </trkpt>
      <trkpt lat="44.08755" lon="6.64339">
        <ele>2066.6000976562</ele>
        <time>2022-08-20T11:55:52Z</time>
      </trkpt>
      <trkpt lat="44.08755" lon="6.64339">
        <ele>2066.6000976562</ele>
        <time>2022-08-20T11:55:53Z</time>
      </trkpt>
      <trkpt lat="44.08755" lon="6.64339">
        <ele>2066.6000976562</ele>
        <time>2022-08-20T11:55:55Z</time>
      </trkpt>
      <trkpt lat="44.08755" lon="6.64339">
        <ele>2066.6000976562</ele>
        <time>2022-08-20T11:55:57Z</time>
      </trkpt>
      <trkpt lat="44.08755" lon="6.64339">
        <ele>2066.6000976562</ele>
        <time>2022-08-20T11:55:59Z</time>
      </trkpt>
      <trkpt lat="44.08755" lon="6.6434">
        <ele>2066.6000976562</ele>
        <time>2022-08-20T11:56:04Z</time>
      </trkpt>
      <trkpt lat="44.08755" lon="6.6434">
        <ele>2066.6000976562</ele>
        <time>2022-08-20T11:56:05Z</time>
      </trkpt>
      <trkpt lat="44.08755" lon="6.6434">
        <ele>2066.6000976562</ele>
        <time>2022-08-20T11:56:06Z</time>
      </trkpt>
      <trkpt lat="44.08755" lon="6.6434">
        <ele>2066.3999023438</ele>
        <time>2022-08-20T11:56:08Z</time>
      </trkpt>
      <trkpt lat="44.08755" lon="6.6434">
        <ele>2066.1999511719</ele>
        <time>2022-08-20T11:56:13Z</time>
      </trkpt>
      <trkpt lat="44.08761" lon="6.64332">
        <ele>2066.3999023438</ele>
        <time>2022-08-20T11:56:19Z</time>
      </trkpt>
      <trkpt lat="44.08765" lon="6.64327">
        <ele>2066.1999511719</ele>
        <time>2022-08-20T11:56:21Z</time>
      </trkpt>
      <trkpt lat="44.08768" lon="6.64324">
        <ele>2066.1999511719</ele>
        <time>2022-08-20T11:56:22Z</time>
      </trkpt>
      <trkpt lat="44.08774" lon="6.64305">
        <ele>2065.8000488281</ele>
        <time>2022-08-20T11:56:27Z</time>
      </trkpt>
      <trkpt lat="44.08783" lon="6.64284">
        <ele>2064.3999023438</ele>
        <time>2022-08-20T11:56:31Z</time>
      </trkpt>
      <trkpt lat="44.08789" lon="6.64273">
        <ele>2063.3999023438</ele>
        <time>2022-08-20T11:56:33Z</time>
      </trkpt>
      <trkpt lat="44.08792" lon="6.64266">
        <ele>2063</ele>
        <time>2022-08-20T11:56:34Z</time>
      </trkpt>
      <trkpt lat="44.08802" lon="6.64247">
        <ele>2061.3999023438</ele>
        <time>2022-08-20T11:56:37Z</time>
      </trkpt>
      <trkpt lat="44.08809" lon="6.64235">
        <ele>2060.6000976562</ele>
        <time>2022-08-20T11:56:39Z</time>
      </trkpt>
      <trkpt lat="44.08811" lon="6.6423">
        <ele>2060.3999023438</ele>
        <time>2022-08-20T11:56:40Z</time>
      </trkpt>
      <trkpt lat="44.08819" lon="6.64215">
        <ele>2058.8000488281</ele>
        <time>2022-08-20T11:56:43Z</time>
      </trkpt>
      <trkpt lat="44.08821" lon="6.64209">
        <ele>2058.1999511719</ele>
        <time>2022-08-20T11:56:44Z</time>
      </trkpt>
      <trkpt lat="44.08823" lon="6.64199">
        <ele>2057.3999023438</ele>
        <time>2022-08-20T11:56:46Z</time>
      </trkpt>
      <trkpt lat="44.08828" lon="6.64167">
        <ele>2056</ele>
        <time>2022-08-20T11:56:51Z</time>
      </trkpt>
      <trkpt lat="44.08831" lon="6.64148">
        <ele>2055</ele>
        <time>2022-08-20T11:56:54Z</time>
      </trkpt>
      <trkpt lat="44.08837" lon="6.64099">
        <ele>2054.1999511719</ele>
        <time>2022-08-20T11:57:02Z</time>
      </trkpt>
      <trkpt lat="44.08839" lon="6.64089">
        <ele>2053.8000488281</ele>
        <time>2022-08-20T11:57:04Z</time>
      </trkpt>
      <trkpt lat="44.0884" lon="6.64084">
        <ele>2053.6000976562</ele>
        <time>2022-08-20T11:57:05Z</time>
      </trkpt>
      <trkpt lat="44.08841" lon="6.64076">
        <ele>2053</ele>
        <time>2022-08-20T11:57:07Z</time>
      </trkpt>
      <trkpt lat="44.08841" lon="6.6407">
        <ele>2052.6000976562</ele>
        <time>2022-08-20T11:57:09Z</time>
      </trkpt>
      <trkpt lat="44.08842" lon="6.64067">
        <ele>2052.3999023438</ele>
        <time>2022-08-20T11:57:10Z</time>
      </trkpt>
      <trkpt lat="44.08843" lon="6.64064">
        <ele>2052.3999023438</ele>
        <time>2022-08-20T11:57:11Z</time>
      </trkpt>
      <trkpt lat="44.08845" lon="6.64053">
        <ele>2051.3999023438</ele>
        <time>2022-08-20T11:57:14Z</time>
      </trkpt>
      <trkpt lat="44.08846" lon="6.64044">
        <ele>2050.1999511719</ele>
        <time>2022-08-20T11:57:16Z</time>
      </trkpt>
      <trkpt lat="44.08846" lon="6.64038">
        <ele>2049.3999023438</ele>
        <time>2022-08-20T11:57:17Z</time>
      </trkpt>
      <trkpt lat="44.08845" lon="6.64032">
        <ele>2048.8000488281</ele>
        <time>2022-08-20T11:57:18Z</time>
      </trkpt>
      <trkpt lat="44.08845" lon="6.64022">
        <ele>2047.5999755859</ele>
        <time>2022-08-20T11:57:20Z</time>
      </trkpt>
      <trkpt lat="44.08846" lon="6.64015">
        <ele>2046.5999755859</ele>
        <time>2022-08-20T11:57:22Z</time>
      </trkpt>
      <trkpt lat="44.08846" lon="6.6401">
        <ele>2046.4000244141</ele>
        <time>2022-08-20T11:57:23Z</time>
      </trkpt>
      <trkpt lat="44.0885" lon="6.63987">
        <ele>2045.1999511719</ele>
        <time>2022-08-20T11:57:27Z</time>
      </trkpt>
      <trkpt lat="44.08851" lon="6.63981">
        <ele>2044.8000488281</ele>
        <time>2022-08-20T11:57:28Z</time>
      </trkpt>
      <trkpt lat="44.08852" lon="6.63971">
        <ele>2044</ele>
        <time>2022-08-20T11:57:30Z</time>
      </trkpt>
      <trkpt lat="44.08852" lon="6.63956">
        <ele>2042.8000488281</ele>
        <time>2022-08-20T11:57:33Z</time>
      </trkpt>
      <trkpt lat="44.0885" lon="6.63946">
        <ele>2041.8000488281</ele>
        <time>2022-08-20T11:57:35Z</time>
      </trkpt>
      <trkpt lat="44.08849" lon="6.63941">
        <ele>2041.4000244141</ele>
        <time>2022-08-20T11:57:36Z</time>
      </trkpt>
      <trkpt lat="44.08848" lon="6.63933">
        <ele>2040.8000488281</ele>
        <time>2022-08-20T11:57:38Z</time>
      </trkpt>
      <trkpt lat="44.08846" lon="6.63929">
        <ele>2040.4000244141</ele>
        <time>2022-08-20T11:57:39Z</time>
      </trkpt>
      <trkpt lat="44.08845" lon="6.63925">
        <ele>2040</ele>
        <time>2022-08-20T11:57:40Z</time>
      </trkpt>
      <trkpt lat="44.08843" lon="6.63915">
        <ele>2039.1999511719</ele>
        <time>2022-08-20T11:57:42Z</time>
      </trkpt>
      <trkpt lat="44.08841" lon="6.63902">
        <ele>2038.4000244141</ele>
        <time>2022-08-20T11:57:45Z</time>
      </trkpt>
      <trkpt lat="44.08841" lon="6.63894">
        <ele>2037.8000488281</ele>
        <time>2022-08-20T11:57:47Z</time>
      </trkpt>
      <trkpt lat="44.08841" lon="6.6389">
        <ele>2037.4000244141</ele>
        <time>2022-08-20T11:57:48Z</time>
      </trkpt>
      <trkpt lat="44.08843" lon="6.6388">
        <ele>2036.8000488281</ele>
        <time>2022-08-20T11:57:51Z</time>
      </trkpt>
      <trkpt lat="44.08844" lon="6.63876">
        <ele>2036.8000488281</ele>
        <time>2022-08-20T11:57:53Z</time>
      </trkpt>
      <trkpt lat="44.08848" lon="6.63868">
        <ele>2036.4000244141</ele>
        <time>2022-08-20T11:57:58Z</time>
      </trkpt>
      <trkpt lat="44.08849" lon="6.63866">
        <ele>2036.4000244141</ele>
        <time>2022-08-20T11:57:59Z</time>
      </trkpt>
      <trkpt lat="44.08851" lon="6.63859">
        <ele>2036.1999511719</ele>
        <time>2022-08-20T11:58:02Z</time>
      </trkpt>
      <trkpt lat="44.08854" lon="6.63849">
        <ele>2036</ele>
        <time>2022-08-20T11:58:05Z</time>
      </trkpt>
      <trkpt lat="44.08856" lon="6.63843">
        <ele>2036</ele>
        <time>2022-08-20T11:58:07Z</time>
      </trkpt>
      <trkpt lat="44.08861" lon="6.63834">
        <ele>2035.8000488281</ele>
        <time>2022-08-20T11:58:10Z</time>
      </trkpt>
      <trkpt lat="44.08866" lon="6.6382">
        <ele>2035.4000244141</ele>
        <time>2022-08-20T11:58:14Z</time>
      </trkpt>
      <trkpt lat="44.08871" lon="6.63797">
        <ele>2035</ele>
        <time>2022-08-20T11:58:19Z</time>
      </trkpt>
      <trkpt lat="44.08874" lon="6.6379">
        <ele>2034.8000488281</ele>
        <time>2022-08-20T11:58:21Z</time>
      </trkpt>
      <trkpt lat="44.08877" lon="6.63779">
        <ele>2034.5999755859</ele>
        <time>2022-08-20T11:58:24Z</time>
      </trkpt>
      <trkpt lat="44.08884" lon="6.63751">
        <ele>2034.1999511719</ele>
        <time>2022-08-20T11:58:30Z</time>
      </trkpt>
      <trkpt lat="44.08885" lon="6.63742">
        <ele>2034</ele>
        <time>2022-08-20T11:58:32Z</time>
      </trkpt>
      <trkpt lat="44.08888" lon="6.63726">
        <ele>2033.8000488281</ele>
        <time>2022-08-20T11:58:35Z</time>
      </trkpt>
      <trkpt lat="44.0889" lon="6.63694">
        <ele>2033.4000244141</ele>
        <time>2022-08-20T11:58:41Z</time>
      </trkpt>
      <trkpt lat="44.08892" lon="6.63664">
        <ele>2032.8000488281</ele>
        <time>2022-08-20T11:58:47Z</time>
      </trkpt>
      <trkpt lat="44.08892" lon="6.6366">
        <ele>2032.5999755859</ele>
        <time>2022-08-20T11:58:48Z</time>
      </trkpt>
      <trkpt lat="44.08887" lon="6.63633">
        <ele>2032.4000244141</ele>
        <time>2022-08-20T11:58:53Z</time>
      </trkpt>
      <trkpt lat="44.08881" lon="6.63613">
        <ele>2031.5999755859</ele>
        <time>2022-08-20T11:58:56Z</time>
      </trkpt>
      <trkpt lat="44.08876" lon="6.63601">
        <ele>2031.1999511719</ele>
        <time>2022-08-20T11:58:58Z</time>
      </trkpt>
      <trkpt lat="44.08871" lon="6.63589">
        <ele>2030.8000488281</ele>
        <time>2022-08-20T11:59:00Z</time>
      </trkpt>
      <trkpt lat="44.08866" lon="6.63577">
        <ele>2030.5999755859</ele>
        <time>2022-08-20T11:59:02Z</time>
      </trkpt>
      <trkpt lat="44.08856" lon="6.63552">
        <ele>2029.8000488281</ele>
        <time>2022-08-20T11:59:06Z</time>
      </trkpt>
      <trkpt lat="44.08853" lon="6.63542">
        <ele>2029.5999755859</ele>
        <time>2022-08-20T11:59:08Z</time>
      </trkpt>
      <trkpt lat="44.08852" lon="6.63537">
        <ele>2029.5999755859</ele>
        <time>2022-08-20T11:59:09Z</time>
      </trkpt>
      <trkpt lat="44.08851" lon="6.63523">
        <ele>2029.4000244141</ele>
        <time>2022-08-20T11:59:12Z</time>
      </trkpt>
      <trkpt lat="44.08854" lon="6.635">
        <ele>2029</ele>
        <time>2022-08-20T11:59:17Z</time>
      </trkpt>
      <trkpt lat="44.08852" lon="6.6348">
        <ele>2028.8000488281</ele>
        <time>2022-08-20T11:59:20Z</time>
      </trkpt>
      <trkpt lat="44.08852" lon="6.63462">
        <ele>2028.5999755859</ele>
        <time>2022-08-20T11:59:23Z</time>
      </trkpt>
      <trkpt lat="44.08853" lon="6.63455">
        <ele>2028.4000244141</ele>
        <time>2022-08-20T11:59:24Z</time>
      </trkpt>
      <trkpt lat="44.08852" lon="6.63448">
        <ele>2028.1999511719</ele>
        <time>2022-08-20T11:59:25Z</time>
      </trkpt>
      <trkpt lat="44.08858" lon="6.63432">
        <ele>2027.4000244141</ele>
        <time>2022-08-20T11:59:28Z</time>
      </trkpt>
      <trkpt lat="44.0886" lon="6.6342">
        <ele>2027</ele>
        <time>2022-08-20T11:59:30Z</time>
      </trkpt>
      <trkpt lat="44.08863" lon="6.63416">
        <ele>2027</ele>
        <time>2022-08-20T11:59:31Z</time>
      </trkpt>
      <trkpt lat="44.08871" lon="6.63402">
        <ele>2026.4000244141</ele>
        <time>2022-08-20T11:59:34Z</time>
      </trkpt>
      <trkpt lat="44.08874" lon="6.63396">
        <ele>2026.4000244141</ele>
        <time>2022-08-20T11:59:35Z</time>
      </trkpt>
      <trkpt lat="44.08878" lon="6.63387">
        <ele>2026.4000244141</ele>
        <time>2022-08-20T11:59:37Z</time>
      </trkpt>
      <trkpt lat="44.08885" lon="6.63369">
        <ele>2026.8000488281</ele>
        <time>2022-08-20T11:59:41Z</time>
      </trkpt>
      <trkpt lat="44.08891" lon="6.63347">
        <ele>2027.4000244141</ele>
        <time>2022-08-20T11:59:46Z</time>
      </trkpt>
      <trkpt lat="44.08892" lon="6.63342">
        <ele>2027.4000244141</ele>
        <time>2022-08-20T11:59:47Z</time>
      </trkpt>
      <trkpt lat="44.08896" lon="6.63323">
        <ele>2027.8000488281</ele>
        <time>2022-08-20T11:59:51Z</time>
      </trkpt>
      <trkpt lat="44.08902" lon="6.63304">
        <ele>2028.1999511719</ele>
        <time>2022-08-20T11:59:55Z</time>
      </trkpt>
      <trkpt lat="44.08905" lon="6.63297">
        <ele>2028.4000244141</ele>
        <time>2022-08-20T11:59:57Z</time>
      </trkpt>
      <trkpt lat="44.08913" lon="6.63292">
        <ele>2029.1999511719</ele>
        <time>2022-08-20T12:00:00Z</time>
      </trkpt>
      <trkpt lat="44.08916" lon="6.63291">
        <ele>2029.4000244141</ele>
        <time>2022-08-20T12:00:01Z</time>
      </trkpt>
      <trkpt lat="44.08923" lon="6.63291">
        <ele>2029.5999755859</ele>
        <time>2022-08-20T12:00:03Z</time>
      </trkpt>
      <trkpt lat="44.08932" lon="6.6329">
        <ele>2030.1999511719</ele>
        <time>2022-08-20T12:00:06Z</time>
      </trkpt>
      <trkpt lat="44.0894" lon="6.63289">
        <ele>2030.8000488281</ele>
        <time>2022-08-20T12:00:09Z</time>
      </trkpt>
      <trkpt lat="44.08947" lon="6.63288">
        <ele>2031.5999755859</ele>
        <time>2022-08-20T12:00:13Z</time>
      </trkpt>
      <trkpt lat="44.08948" lon="6.63287">
        <ele>2032</ele>
        <time>2022-08-20T12:00:14Z</time>
      </trkpt>
      <trkpt lat="44.08957" lon="6.63283">
        <ele>2033</ele>
        <time>2022-08-20T12:00:20Z</time>
      </trkpt>
      <trkpt lat="44.08969" lon="6.63264">
        <ele>2033.8000488281</ele>
        <time>2022-08-20T12:00:29Z</time>
      </trkpt>
      <trkpt lat="44.08971" lon="6.63261">
        <ele>2034.1999511719</ele>
        <time>2022-08-20T12:00:31Z</time>
      </trkpt>
      <trkpt lat="44.08974" lon="6.63257">
        <ele>2034.5999755859</ele>
        <time>2022-08-20T12:00:34Z</time>
      </trkpt>
      <trkpt lat="44.08975" lon="6.63255">
        <ele>2034.8000488281</ele>
        <time>2022-08-20T12:00:35Z</time>
      </trkpt>
      <trkpt lat="44.08976" lon="6.63252">
        <ele>2035</ele>
        <time>2022-08-20T12:00:37Z</time>
      </trkpt>
      <trkpt lat="44.08977" lon="6.63251">
        <ele>2035.1999511719</ele>
        <time>2022-08-20T12:00:38Z</time>
      </trkpt>
      <trkpt lat="44.08978" lon="6.63249">
        <ele>2035.4000244141</ele>
        <time>2022-08-20T12:00:39Z</time>
      </trkpt>
      <trkpt lat="44.08982" lon="6.63246">
        <ele>2035.5999755859</ele>
        <time>2022-08-20T12:00:42Z</time>
      </trkpt>
      <trkpt lat="44.08986" lon="6.63241">
        <ele>2036.1999511719</ele>
        <time>2022-08-20T12:00:46Z</time>
      </trkpt>
      <trkpt lat="44.08987" lon="6.6324">
        <ele>2036.1999511719</ele>
        <time>2022-08-20T12:00:47Z</time>
      </trkpt>
      <trkpt lat="44.08993" lon="6.63233">
        <ele>2036.5999755859</ele>
        <time>2022-08-20T12:00:52Z</time>
      </trkpt>
      <trkpt lat="44.09002" lon="6.63222">
        <ele>2037.4000244141</ele>
        <time>2022-08-20T12:01:00Z</time>
      </trkpt>
      <trkpt lat="44.09014" lon="6.6321">
        <ele>2038</ele>
        <time>2022-08-20T12:01:08Z</time>
      </trkpt>
      <trkpt lat="44.09018" lon="6.63204">
        <ele>2038.4000244141</ele>
        <time>2022-08-20T12:01:11Z</time>
      </trkpt>
      <trkpt lat="44.09024" lon="6.63198">
        <ele>2038.5999755859</ele>
        <time>2022-08-20T12:01:16Z</time>
      </trkpt>
      <trkpt lat="44.09033" lon="6.63186">
        <ele>2039.1999511719</ele>
        <time>2022-08-20T12:01:24Z</time>
      </trkpt>
      <trkpt lat="44.09036" lon="6.6318">
        <ele>2039.4000244141</ele>
        <time>2022-08-20T12:01:27Z</time>
      </trkpt>
      <trkpt lat="44.09043" lon="6.63171">
        <ele>2039.1999511719</ele>
        <time>2022-08-20T12:01:31Z</time>
      </trkpt>
      <trkpt lat="44.09045" lon="6.63169">
        <ele>2039.1999511719</ele>
        <time>2022-08-20T12:01:32Z</time>
      </trkpt>
      <trkpt lat="44.09058" lon="6.63156">
        <ele>2039.1999511719</ele>
        <time>2022-08-20T12:01:39Z</time>
      </trkpt>
      <trkpt lat="44.09062" lon="6.63153">
        <ele>2039</ele>
        <time>2022-08-20T12:01:41Z</time>
      </trkpt>
      <trkpt lat="44.09067" lon="6.63145">
        <ele>2038.4000244141</ele>
        <time>2022-08-20T12:01:44Z</time>
      </trkpt>
      <trkpt lat="44.09069" lon="6.63142">
        <ele>2038.1999511719</ele>
        <time>2022-08-20T12:01:45Z</time>
      </trkpt>
      <trkpt lat="44.09071" lon="6.63139">
        <ele>2037.8000488281</ele>
        <time>2022-08-20T12:01:46Z</time>
      </trkpt>
      <trkpt lat="44.09075" lon="6.63132">
        <ele>2037</ele>
        <time>2022-08-20T12:01:49Z</time>
      </trkpt>
      <trkpt lat="44.09079" lon="6.63123">
        <ele>2036.1999511719</ele>
        <time>2022-08-20T12:01:52Z</time>
      </trkpt>
      <trkpt lat="44.09081" lon="6.63119">
        <ele>2036</ele>
        <time>2022-08-20T12:01:53Z</time>
      </trkpt>
      <trkpt lat="44.09083" lon="6.63113">
        <ele>2035.1999511719</ele>
        <time>2022-08-20T12:01:55Z</time>
      </trkpt>
      <trkpt lat="44.09084" lon="6.63109">
        <ele>2034.8000488281</ele>
        <time>2022-08-20T12:01:56Z</time>
      </trkpt>
      <trkpt lat="44.09085" lon="6.63101">
        <ele>2033.8000488281</ele>
        <time>2022-08-20T12:01:58Z</time>
      </trkpt>
      <trkpt lat="44.09085" lon="6.63098">
        <ele>2033.4000244141</ele>
        <time>2022-08-20T12:01:59Z</time>
      </trkpt>
      <trkpt lat="44.09084" lon="6.63087">
        <ele>2032.1999511719</ele>
        <time>2022-08-20T12:02:02Z</time>
      </trkpt>
      <trkpt lat="44.0908" lon="6.63078">
        <ele>2031.4000244141</ele>
        <time>2022-08-20T12:02:04Z</time>
      </trkpt>
      <trkpt lat="44.09078" lon="6.63075">
        <ele>2031</ele>
        <time>2022-08-20T12:02:05Z</time>
      </trkpt>
      <trkpt lat="44.09071" lon="6.63064">
        <ele>2030.1999511719</ele>
        <time>2022-08-20T12:02:08Z</time>
      </trkpt>
      <trkpt lat="44.09069" lon="6.63061">
        <ele>2030</ele>
        <time>2022-08-20T12:02:09Z</time>
      </trkpt>
      <trkpt lat="44.09066" lon="6.63057">
        <ele>2029.8000488281</ele>
        <time>2022-08-20T12:02:10Z</time>
      </trkpt>
      <trkpt lat="44.09063" lon="6.63053">
        <ele>2029.5999755859</ele>
        <time>2022-08-20T12:02:11Z</time>
      </trkpt>
      <trkpt lat="44.09056" lon="6.63043">
        <ele>2029.4000244141</ele>
        <time>2022-08-20T12:02:14Z</time>
      </trkpt>
      <trkpt lat="44.09049" lon="6.63035">
        <ele>2029</ele>
        <time>2022-08-20T12:02:17Z</time>
      </trkpt>
      <trkpt lat="44.09045" lon="6.6303">
        <ele>2028.5999755859</ele>
        <time>2022-08-20T12:02:19Z</time>
      </trkpt>
      <trkpt lat="44.09038" lon="6.63019">
        <ele>2027.8000488281</ele>
        <time>2022-08-20T12:02:23Z</time>
      </trkpt>
      <trkpt lat="44.09033" lon="6.63011">
        <ele>2027</ele>
        <time>2022-08-20T12:02:25Z</time>
      </trkpt>
      <trkpt lat="44.09031" lon="6.63007">
        <ele>2026.8000488281</ele>
        <time>2022-08-20T12:02:26Z</time>
      </trkpt>
      <trkpt lat="44.09023" lon="6.62993">
        <ele>2026.1999511719</ele>
        <time>2022-08-20T12:02:29Z</time>
      </trkpt>
      <trkpt lat="44.09017" lon="6.6298">
        <ele>2026</ele>
        <time>2022-08-20T12:02:32Z</time>
      </trkpt>
      <trkpt lat="44.09015" lon="6.62972">
        <ele>2026</ele>
        <time>2022-08-20T12:02:34Z</time>
      </trkpt>
      <trkpt lat="44.09012" lon="6.62961">
        <ele>2025.8000488281</ele>
        <time>2022-08-20T12:02:36Z</time>
      </trkpt>
      <trkpt lat="44.09012" lon="6.6295">
        <ele>2025.1999511719</ele>
        <time>2022-08-20T12:02:38Z</time>
      </trkpt>
      <trkpt lat="44.09011" lon="6.62936">
        <ele>2024.5999755859</ele>
        <time>2022-08-20T12:02:40Z</time>
      </trkpt>
      <trkpt lat="44.09011" lon="6.62923">
        <ele>2024.1999511719</ele>
        <time>2022-08-20T12:02:42Z</time>
      </trkpt>
      <trkpt lat="44.09017" lon="6.629">
        <ele>2024.1999511719</ele>
        <time>2022-08-20T12:02:48Z</time>
      </trkpt>
      <trkpt lat="44.0902" lon="6.62888">
        <ele>2023.5999755859</ele>
        <time>2022-08-20T12:02:51Z</time>
      </trkpt>
      <trkpt lat="44.0902" lon="6.62885">
        <ele>2023.4000244141</ele>
        <time>2022-08-20T12:02:52Z</time>
      </trkpt>
      <trkpt lat="44.0902" lon="6.6288">
        <ele>2023</ele>
        <time>2022-08-20T12:02:53Z</time>
      </trkpt>
      <trkpt lat="44.0902" lon="6.62875">
        <ele>2023</ele>
        <time>2022-08-20T12:02:54Z</time>
      </trkpt>
      <trkpt lat="44.09018" lon="6.62853">
        <ele>2022.4000244141</ele>
        <time>2022-08-20T12:02:58Z</time>
      </trkpt>
      <trkpt lat="44.09016" lon="6.62843">
        <ele>2022.1999511719</ele>
        <time>2022-08-20T12:03:00Z</time>
      </trkpt>
      <trkpt lat="44.09015" lon="6.62814">
        <ele>2021.4000244141</ele>
        <time>2022-08-20T12:03:06Z</time>
      </trkpt>
      <trkpt lat="44.09018" lon="6.62797">
        <ele>2021</ele>
        <time>2022-08-20T12:03:09Z</time>
      </trkpt>
      <trkpt lat="44.09021" lon="6.62784">
        <ele>2020</ele>
        <time>2022-08-20T12:03:12Z</time>
      </trkpt>
      <trkpt lat="44.09023" lon="6.6278">
        <ele>2019.8000488281</ele>
        <time>2022-08-20T12:03:13Z</time>
      </trkpt>
      <trkpt lat="44.09022" lon="6.62767">
        <ele>2019</ele>
        <time>2022-08-20T12:03:16Z</time>
      </trkpt>
      <trkpt lat="44.09023" lon="6.62759">
        <ele>2018.5999755859</ele>
        <time>2022-08-20T12:03:18Z</time>
      </trkpt>
      <trkpt lat="44.0903" lon="6.62736">
        <ele>2018</ele>
        <time>2022-08-20T12:03:24Z</time>
      </trkpt>
      <trkpt lat="44.0904" lon="6.62721">
        <ele>2017.5999755859</ele>
        <time>2022-08-20T12:03:28Z</time>
      </trkpt>
      <trkpt lat="44.09045" lon="6.62713">
        <ele>2017</ele>
        <time>2022-08-20T12:03:30Z</time>
      </trkpt>
      <trkpt lat="44.09056" lon="6.62691">
        <ele>2016.8000488281</ele>
        <time>2022-08-20T12:03:37Z</time>
      </trkpt>
      <trkpt lat="44.09064" lon="6.62679">
        <ele>2016.4000244141</ele>
        <time>2022-08-20T12:03:41Z</time>
      </trkpt>
      <trkpt lat="44.0907" lon="6.62668">
        <ele>2016.1999511719</ele>
        <time>2022-08-20T12:03:44Z</time>
      </trkpt>
      <trkpt lat="44.09077" lon="6.62655">
        <ele>2016</ele>
        <time>2022-08-20T12:03:47Z</time>
      </trkpt>
      <trkpt lat="44.09081" lon="6.62648">
        <ele>2016</ele>
        <time>2022-08-20T12:03:49Z</time>
      </trkpt>
      <trkpt lat="44.09083" lon="6.62647">
        <ele>2016</ele>
        <time>2022-08-20T12:03:50Z</time>
      </trkpt>
      <trkpt lat="44.09085" lon="6.62646">
        <ele>2016</ele>
        <time>2022-08-20T12:03:51Z</time>
      </trkpt>
      <trkpt lat="44.09093" lon="6.62642">
        <ele>2015.1999511719</ele>
        <time>2022-08-20T12:03:54Z</time>
      </trkpt>
      <trkpt lat="44.09096" lon="6.6264">
        <ele>2014.5999755859</ele>
        <time>2022-08-20T12:03:55Z</time>
      </trkpt>
      <trkpt lat="44.091" lon="6.62639">
        <ele>2014</ele>
        <time>2022-08-20T12:03:56Z</time>
      </trkpt>
      <trkpt lat="44.09107" lon="6.62633">
        <ele>2013</ele>
        <time>2022-08-20T12:03:59Z</time>
      </trkpt>
      <trkpt lat="44.09111" lon="6.62629">
        <ele>2012.5999755859</ele>
        <time>2022-08-20T12:04:01Z</time>
      </trkpt>
      <trkpt lat="44.09118" lon="6.62621">
        <ele>2011.8000488281</ele>
        <time>2022-08-20T12:04:04Z</time>
      </trkpt>
      <trkpt lat="44.09127" lon="6.62614">
        <ele>2011.4000244141</ele>
        <time>2022-08-20T12:04:07Z</time>
      </trkpt>
      <trkpt lat="44.09144" lon="6.62602">
        <ele>2010.8000488281</ele>
        <time>2022-08-20T12:04:12Z</time>
      </trkpt>
      <trkpt lat="44.09152" lon="6.62597">
        <ele>2010.4000244141</ele>
        <time>2022-08-20T12:04:14Z</time>
      </trkpt>
      <trkpt lat="44.09163" lon="6.62585">
        <ele>2010.5999755859</ele>
        <time>2022-08-20T12:04:18Z</time>
      </trkpt>
      <trkpt lat="44.09169" lon="6.62581">
        <ele>2011</ele>
        <time>2022-08-20T12:04:20Z</time>
      </trkpt>
      <trkpt lat="44.09182" lon="6.6257">
        <ele>2011</ele>
        <time>2022-08-20T12:04:25Z</time>
      </trkpt>
      <trkpt lat="44.09185" lon="6.62568">
        <ele>2011</ele>
        <time>2022-08-20T12:04:26Z</time>
      </trkpt>
      <trkpt lat="44.09186" lon="6.62565">
        <ele>2011</ele>
        <time>2022-08-20T12:04:27Z</time>
      </trkpt>
      <trkpt lat="44.09192" lon="6.62558">
        <ele>2011.4000244141</ele>
        <time>2022-08-20T12:04:30Z</time>
      </trkpt>
      <trkpt lat="44.09202" lon="6.62547">
        <ele>2011.5999755859</ele>
        <time>2022-08-20T12:04:34Z</time>
      </trkpt>
      <trkpt lat="44.09209" lon="6.62539">
        <ele>2011.8000488281</ele>
        <time>2022-08-20T12:04:37Z</time>
      </trkpt>
      <trkpt lat="44.09218" lon="6.62531">
        <ele>2012.1999511719</ele>
        <time>2022-08-20T12:04:40Z</time>
      </trkpt>
      <trkpt lat="44.09225" lon="6.62526">
        <ele>2013</ele>
        <time>2022-08-20T12:04:43Z</time>
      </trkpt>
      <trkpt lat="44.09232" lon="6.62521">
        <ele>2013.4000244141</ele>
        <time>2022-08-20T12:04:46Z</time>
      </trkpt>
      <trkpt lat="44.09235" lon="6.62519">
        <ele>2013.5999755859</ele>
        <time>2022-08-20T12:04:47Z</time>
      </trkpt>
      <trkpt lat="44.09243" lon="6.62515">
        <ele>2014</ele>
        <time>2022-08-20T12:04:50Z</time>
      </trkpt>
      <trkpt lat="44.09245" lon="6.62513">
        <ele>2014.1999511719</ele>
        <time>2022-08-20T12:04:51Z</time>
      </trkpt>
      <trkpt lat="44.09254" lon="6.62506">
        <ele>2014.4000244141</ele>
        <time>2022-08-20T12:04:55Z</time>
      </trkpt>
      <trkpt lat="44.09267" lon="6.62486">
        <ele>2013.8000488281</ele>
        <time>2022-08-20T12:05:03Z</time>
      </trkpt>
      <trkpt lat="44.0927" lon="6.62474">
        <ele>2012.5999755859</ele>
        <time>2022-08-20T12:05:06Z</time>
      </trkpt>
      <trkpt lat="44.09271" lon="6.62468">
        <ele>2011.5999755859</ele>
        <time>2022-08-20T12:05:08Z</time>
      </trkpt>
      <trkpt lat="44.0927" lon="6.6246">
        <ele>2010.8000488281</ele>
        <time>2022-08-20T12:05:10Z</time>
      </trkpt>
      <trkpt lat="44.09271" lon="6.62457">
        <ele>2010.1999511719</ele>
        <time>2022-08-20T12:05:11Z</time>
      </trkpt>
      <trkpt lat="44.09271" lon="6.62452">
        <ele>2009.4000244141</ele>
        <time>2022-08-20T12:05:13Z</time>
      </trkpt>
      <trkpt lat="44.09271" lon="6.62449">
        <ele>2009.1999511719</ele>
        <time>2022-08-20T12:05:14Z</time>
      </trkpt>
      <trkpt lat="44.09267" lon="6.62441">
        <ele>2008</ele>
        <time>2022-08-20T12:05:16Z</time>
      </trkpt>
      <trkpt lat="44.09263" lon="6.62435">
        <ele>2006.5999755859</ele>
        <time>2022-08-20T12:05:18Z</time>
      </trkpt>
      <trkpt lat="44.09256" lon="6.62429">
        <ele>2005.4000244141</ele>
        <time>2022-08-20T12:05:21Z</time>
      </trkpt>
      <trkpt lat="44.09247" lon="6.62417">
        <ele>2004.5999755859</ele>
        <time>2022-08-20T12:05:25Z</time>
      </trkpt>
      <trkpt lat="44.09245" lon="6.62414">
        <ele>2004.1999511719</ele>
        <time>2022-08-20T12:05:26Z</time>
      </trkpt>
      <trkpt lat="44.09241" lon="6.62406">
        <ele>2002.8000488281</ele>
        <time>2022-08-20T12:05:28Z</time>
      </trkpt>
      <trkpt lat="44.09236" lon="6.62399">
        <ele>2001.5999755859</ele>
        <time>2022-08-20T12:05:30Z</time>
      </trkpt>
      <trkpt lat="44.09233" lon="6.62392">
        <ele>2000.4000244141</ele>
        <time>2022-08-20T12:05:32Z</time>
      </trkpt>
      <trkpt lat="44.09228" lon="6.62385">
        <ele>1999.4000244141</ele>
        <time>2022-08-20T12:05:34Z</time>
      </trkpt>
      <trkpt lat="44.09224" lon="6.62378">
        <ele>1998.1999511719</ele>
        <time>2022-08-20T12:05:37Z</time>
      </trkpt>
      <trkpt lat="44.09222" lon="6.62371">
        <ele>1997</ele>
        <time>2022-08-20T12:05:40Z</time>
      </trkpt>
      <trkpt lat="44.0922" lon="6.62363">
        <ele>1996</ele>
        <time>2022-08-20T12:05:42Z</time>
      </trkpt>
      <trkpt lat="44.09218" lon="6.62359">
        <ele>1995</ele>
        <time>2022-08-20T12:05:44Z</time>
      </trkpt>
      <trkpt lat="44.09216" lon="6.62354">
        <ele>1994.1999511719</ele>
        <time>2022-08-20T12:05:46Z</time>
      </trkpt>
      <trkpt lat="44.09215" lon="6.62351">
        <ele>1993.8000488281</ele>
        <time>2022-08-20T12:05:47Z</time>
      </trkpt>
      <trkpt lat="44.09211" lon="6.62338">
        <ele>1992.5999755859</ele>
        <time>2022-08-20T12:05:51Z</time>
      </trkpt>
      <trkpt lat="44.09207" lon="6.62328">
        <ele>1991.4000244141</ele>
        <time>2022-08-20T12:05:54Z</time>
      </trkpt>
      <trkpt lat="44.09202" lon="6.62312">
        <ele>1990.4000244141</ele>
        <time>2022-08-20T12:05:58Z</time>
      </trkpt>
      <trkpt lat="44.09199" lon="6.62298">
        <ele>1989.1999511719</ele>
        <time>2022-08-20T12:06:01Z</time>
      </trkpt>
      <trkpt lat="44.09194" lon="6.62282">
        <ele>1988.1999511719</ele>
        <time>2022-08-20T12:06:05Z</time>
      </trkpt>
      <trkpt lat="44.09187" lon="6.62266">
        <ele>1987.5999755859</ele>
        <time>2022-08-20T12:06:08Z</time>
      </trkpt>
      <trkpt lat="44.09183" lon="6.62253">
        <ele>1987</ele>
        <time>2022-08-20T12:06:11Z</time>
      </trkpt>
      <trkpt lat="44.0918" lon="6.62243">
        <ele>1986.4000244141</ele>
        <time>2022-08-20T12:06:13Z</time>
      </trkpt>
      <trkpt lat="44.09177" lon="6.62232">
        <ele>1985.8000488281</ele>
        <time>2022-08-20T12:06:15Z</time>
      </trkpt>
      <trkpt lat="44.09173" lon="6.62215">
        <ele>1984.5999755859</ele>
        <time>2022-08-20T12:06:19Z</time>
      </trkpt>
      <trkpt lat="44.09169" lon="6.62201">
        <ele>1983.4000244141</ele>
        <time>2022-08-20T12:06:22Z</time>
      </trkpt>
      <trkpt lat="44.09167" lon="6.6219">
        <ele>1982</ele>
        <time>2022-08-20T12:06:25Z</time>
      </trkpt>
      <trkpt lat="44.09167" lon="6.62187">
        <ele>1981.8000488281</ele>
        <time>2022-08-20T12:06:26Z</time>
      </trkpt>
      <trkpt lat="44.09165" lon="6.62184">
        <ele>1981.5999755859</ele>
        <time>2022-08-20T12:06:27Z</time>
      </trkpt>
      <trkpt lat="44.09163" lon="6.62172">
        <ele>1980.5999755859</ele>
        <time>2022-08-20T12:06:30Z</time>
      </trkpt>
      <trkpt lat="44.09162" lon="6.62167">
        <ele>1980.1999511719</ele>
        <time>2022-08-20T12:06:31Z</time>
      </trkpt>
      <trkpt lat="44.0916" lon="6.62158">
        <ele>1979.5999755859</ele>
        <time>2022-08-20T12:06:33Z</time>
      </trkpt>
      <trkpt lat="44.09158" lon="6.62145">
        <ele>1978.5999755859</ele>
        <time>2022-08-20T12:06:37Z</time>
      </trkpt>
      <trkpt lat="44.09158" lon="6.62142">
        <ele>1978.1999511719</ele>
        <time>2022-08-20T12:06:38Z</time>
      </trkpt>
      <trkpt lat="44.09159" lon="6.62128">
        <ele>1977.1999511719</ele>
        <time>2022-08-20T12:06:41Z</time>
      </trkpt>
      <trkpt lat="44.09161" lon="6.62117">
        <ele>1976</ele>
        <time>2022-08-20T12:06:44Z</time>
      </trkpt>
      <trkpt lat="44.09166" lon="6.62105">
        <ele>1974.8000488281</ele>
        <time>2022-08-20T12:06:48Z</time>
      </trkpt>
      <trkpt lat="44.09169" lon="6.62099">
        <ele>1974.4000244141</ele>
        <time>2022-08-20T12:06:50Z</time>
      </trkpt>
      <trkpt lat="44.09172" lon="6.62089">
        <ele>1973.5999755859</ele>
        <time>2022-08-20T12:06:52Z</time>
      </trkpt>
      <trkpt lat="44.09177" lon="6.62075">
        <ele>1972.1999511719</ele>
        <time>2022-08-20T12:06:55Z</time>
      </trkpt>
      <trkpt lat="44.09178" lon="6.6207">
        <ele>1971.8000488281</ele>
        <time>2022-08-20T12:06:56Z</time>
      </trkpt>
      <trkpt lat="44.09182" lon="6.62061">
        <ele>1971</ele>
        <time>2022-08-20T12:06:58Z</time>
      </trkpt>
      <trkpt lat="44.09188" lon="6.62047">
        <ele>1970</ele>
        <time>2022-08-20T12:07:01Z</time>
      </trkpt>
      <trkpt lat="44.09196" lon="6.62029">
        <ele>1968.8000488281</ele>
        <time>2022-08-20T12:07:05Z</time>
      </trkpt>
      <trkpt lat="44.092" lon="6.62023">
        <ele>1968.4000244141</ele>
        <time>2022-08-20T12:07:07Z</time>
      </trkpt>
      <trkpt lat="44.09208" lon="6.62014">
        <ele>1967.4000244141</ele>
        <time>2022-08-20T12:07:11Z</time>
      </trkpt>
      <trkpt lat="44.09218" lon="6.62002">
        <ele>1966.1999511719</ele>
        <time>2022-08-20T12:07:15Z</time>
      </trkpt>
      <trkpt lat="44.09223" lon="6.61993">
        <ele>1964.8000488281</ele>
        <time>2022-08-20T12:07:18Z</time>
      </trkpt>
      <trkpt lat="44.09224" lon="6.61991">
        <ele>1964.4000244141</ele>
        <time>2022-08-20T12:07:19Z</time>
      </trkpt>
      <trkpt lat="44.09226" lon="6.6199">
        <ele>1964.1999511719</ele>
        <time>2022-08-20T12:07:20Z</time>
      </trkpt>
      <trkpt lat="44.09227" lon="6.61988">
        <ele>1963.8000488281</ele>
        <time>2022-08-20T12:07:21Z</time>
      </trkpt>
      <trkpt lat="44.0923" lon="6.61986">
        <ele>1963.4000244141</ele>
        <time>2022-08-20T12:07:23Z</time>
      </trkpt>
      <trkpt lat="44.09232" lon="6.61984">
        <ele>1963.1999511719</ele>
        <time>2022-08-20T12:07:24Z</time>
      </trkpt>
      <trkpt lat="44.09236" lon="6.61979">
        <ele>1962.8000488281</ele>
        <time>2022-08-20T12:07:26Z</time>
      </trkpt>
      <trkpt lat="44.09242" lon="6.61972">
        <ele>1961.8000488281</ele>
        <time>2022-08-20T12:07:29Z</time>
      </trkpt>
      <trkpt lat="44.09244" lon="6.6197">
        <ele>1961.5999755859</ele>
        <time>2022-08-20T12:07:30Z</time>
      </trkpt>
      <trkpt lat="44.0925" lon="6.61962">
        <ele>1960.4000244141</ele>
        <time>2022-08-20T12:07:33Z</time>
      </trkpt>
      <trkpt lat="44.09259" lon="6.61955">
        <ele>1958.8000488281</ele>
        <time>2022-08-20T12:07:36Z</time>
      </trkpt>
      <trkpt lat="44.09266" lon="6.61951">
        <ele>1957.8000488281</ele>
        <time>2022-08-20T12:07:38Z</time>
      </trkpt>
      <trkpt lat="44.09271" lon="6.61949">
        <ele>1956.4000244141</ele>
        <time>2022-08-20T12:07:40Z</time>
      </trkpt>
      <trkpt lat="44.09277" lon="6.61946">
        <ele>1955.4000244141</ele>
        <time>2022-08-20T12:07:42Z</time>
      </trkpt>
      <trkpt lat="44.09284" lon="6.61943">
        <ele>1954.1999511719</ele>
        <time>2022-08-20T12:07:44Z</time>
      </trkpt>
      <trkpt lat="44.09293" lon="6.61939">
        <ele>1953</ele>
        <time>2022-08-20T12:07:46Z</time>
      </trkpt>
      <trkpt lat="44.09301" lon="6.61936">
        <ele>1951.5999755859</ele>
        <time>2022-08-20T12:07:48Z</time>
      </trkpt>
      <trkpt lat="44.09304" lon="6.61933">
        <ele>1950.8000488281</ele>
        <time>2022-08-20T12:07:49Z</time>
      </trkpt>
      <trkpt lat="44.09308" lon="6.61932">
        <ele>1950.1999511719</ele>
        <time>2022-08-20T12:07:50Z</time>
      </trkpt>
      <trkpt lat="44.09317" lon="6.61929">
        <ele>1948.5999755859</ele>
        <time>2022-08-20T12:07:52Z</time>
      </trkpt>
      <trkpt lat="44.09321" lon="6.61926">
        <ele>1948</ele>
        <time>2022-08-20T12:07:53Z</time>
      </trkpt>
      <trkpt lat="44.09324" lon="6.61924">
        <ele>1947.4000244141</ele>
        <time>2022-08-20T12:07:54Z</time>
      </trkpt>
      <trkpt lat="44.09333" lon="6.61918">
        <ele>1946</ele>
        <time>2022-08-20T12:07:56Z</time>
      </trkpt>
      <trkpt lat="44.09341" lon="6.61914">
        <ele>1945</ele>
        <time>2022-08-20T12:07:58Z</time>
      </trkpt>
      <trkpt lat="44.09351" lon="6.61912">
        <ele>1943.5999755859</ele>
        <time>2022-08-20T12:08:00Z</time>
      </trkpt>
      <trkpt lat="44.09356" lon="6.6191">
        <ele>1943</ele>
        <time>2022-08-20T12:08:01Z</time>
      </trkpt>
      <trkpt lat="44.0936" lon="6.61909">
        <ele>1942.4000244141</ele>
        <time>2022-08-20T12:08:02Z</time>
      </trkpt>
      <trkpt lat="44.09367" lon="6.61907">
        <ele>1941.4000244141</ele>
        <time>2022-08-20T12:08:04Z</time>
      </trkpt>
      <trkpt lat="44.09377" lon="6.61904">
        <ele>1940</ele>
        <time>2022-08-20T12:08:07Z</time>
      </trkpt>
      <trkpt lat="44.09385" lon="6.61901">
        <ele>1939.1999511719</ele>
        <time>2022-08-20T12:08:09Z</time>
      </trkpt>
      <trkpt lat="44.09388" lon="6.619">
        <ele>1938.8000488281</ele>
        <time>2022-08-20T12:08:10Z</time>
      </trkpt>
      <trkpt lat="44.09395" lon="6.61897">
        <ele>1937.5999755859</ele>
        <time>2022-08-20T12:08:12Z</time>
      </trkpt>
      <trkpt lat="44.09404" lon="6.61891">
        <ele>1936.4000244141</ele>
        <time>2022-08-20T12:08:15Z</time>
      </trkpt>
      <trkpt lat="44.09408" lon="6.6189">
        <ele>1935.8000488281</ele>
        <time>2022-08-20T12:08:16Z</time>
      </trkpt>
      <trkpt lat="44.09411" lon="6.61889">
        <ele>1935.1999511719</ele>
        <time>2022-08-20T12:08:17Z</time>
      </trkpt>
      <trkpt lat="44.0942" lon="6.61884">
        <ele>1934</ele>
        <time>2022-08-20T12:08:20Z</time>
      </trkpt>
      <trkpt lat="44.09429" lon="6.61875">
        <ele>1932.8000488281</ele>
        <time>2022-08-20T12:08:23Z</time>
      </trkpt>
      <trkpt lat="44.09442" lon="6.61869">
        <ele>1931.1999511719</ele>
        <time>2022-08-20T12:08:26Z</time>
      </trkpt>
      <trkpt lat="44.09448" lon="6.61866">
        <ele>1930.4000244141</ele>
        <time>2022-08-20T12:08:28Z</time>
      </trkpt>
      <trkpt lat="44.09451" lon="6.61863">
        <ele>1930</ele>
        <time>2022-08-20T12:08:29Z</time>
      </trkpt>
      <trkpt lat="44.09462" lon="6.61855">
        <ele>1929</ele>
        <time>2022-08-20T12:08:34Z</time>
      </trkpt>
      <trkpt lat="44.09465" lon="6.61853">
        <ele>1928.8000488281</ele>
        <time>2022-08-20T12:08:35Z</time>
      </trkpt>
      <trkpt lat="44.09473" lon="6.61848">
        <ele>1927.5999755859</ele>
        <time>2022-08-20T12:08:38Z</time>
      </trkpt>
      <trkpt lat="44.09474" lon="6.61845">
        <ele>1927.4000244141</ele>
        <time>2022-08-20T12:08:39Z</time>
      </trkpt>
      <trkpt lat="44.09474" lon="6.61843">
        <ele>1927.1999511719</ele>
        <time>2022-08-20T12:08:40Z</time>
      </trkpt>
      <trkpt lat="44.09474" lon="6.61838">
        <ele>1926.5999755859</ele>
        <time>2022-08-20T12:08:42Z</time>
      </trkpt>
      <trkpt lat="44.0947" lon="6.61834">
        <ele>1925.8000488281</ele>
        <time>2022-08-20T12:08:44Z</time>
      </trkpt>
      <trkpt lat="44.09468" lon="6.61832">
        <ele>1925.1999511719</ele>
        <time>2022-08-20T12:08:45Z</time>
      </trkpt>
      <trkpt lat="44.09463" lon="6.6183">
        <ele>1924</ele>
        <time>2022-08-20T12:08:48Z</time>
      </trkpt>
      <trkpt lat="44.09459" lon="6.61827">
        <ele>1923</ele>
        <time>2022-08-20T12:08:50Z</time>
      </trkpt>
      <trkpt lat="44.09458" lon="6.61826">
        <ele>1922.5999755859</ele>
        <time>2022-08-20T12:08:51Z</time>
      </trkpt>
      <trkpt lat="44.09453" lon="6.61822">
        <ele>1921.1999511719</ele>
        <time>2022-08-20T12:08:54Z</time>
      </trkpt>
      <trkpt lat="44.09448" lon="6.61819">
        <ele>1920</ele>
        <time>2022-08-20T12:08:57Z</time>
      </trkpt>
      <trkpt lat="44.09445" lon="6.61818">
        <ele>1919</ele>
        <time>2022-08-20T12:08:59Z</time>
      </trkpt>
      <trkpt lat="44.09443" lon="6.61818">
        <ele>1918.5999755859</ele>
        <time>2022-08-20T12:09:00Z</time>
      </trkpt>
      <trkpt lat="44.09437" lon="6.61816">
        <ele>1917.4000244141</ele>
        <time>2022-08-20T12:09:03Z</time>
      </trkpt>
      <trkpt lat="44.09429" lon="6.61814">
        <ele>1916.1999511719</ele>
        <time>2022-08-20T12:09:06Z</time>
      </trkpt>
      <trkpt lat="44.09425" lon="6.61814">
        <ele>1915.1999511719</ele>
        <time>2022-08-20T12:09:08Z</time>
      </trkpt>
      <trkpt lat="44.09422" lon="6.61814">
        <ele>1915</ele>
        <time>2022-08-20T12:09:09Z</time>
      </trkpt>
      <trkpt lat="44.09418" lon="6.61813">
        <ele>1914.1999511719</ele>
        <time>2022-08-20T12:09:11Z</time>
      </trkpt>
      <trkpt lat="44.09416" lon="6.61812">
        <ele>1913.8000488281</ele>
        <time>2022-08-20T12:09:12Z</time>
      </trkpt>
      <trkpt lat="44.09413" lon="6.61811">
        <ele>1913.5999755859</ele>
        <time>2022-08-20T12:09:13Z</time>
      </trkpt>
      <trkpt lat="44.09405" lon="6.61812">
        <ele>1912.5999755859</ele>
        <time>2022-08-20T12:09:16Z</time>
      </trkpt>
      <trkpt lat="44.09403" lon="6.61811">
        <ele>1912.4000244141</ele>
        <time>2022-08-20T12:09:17Z</time>
      </trkpt>
      <trkpt lat="44.09401" lon="6.61811">
        <ele>1912</ele>
        <time>2022-08-20T12:09:18Z</time>
      </trkpt>
      <trkpt lat="44.09395" lon="6.61809">
        <ele>1911.4000244141</ele>
        <time>2022-08-20T12:09:21Z</time>
      </trkpt>
      <trkpt lat="44.09388" lon="6.61808">
        <ele>1910.1999511719</ele>
        <time>2022-08-20T12:09:24Z</time>
      </trkpt>
      <trkpt lat="44.09386" lon="6.61807">
        <ele>1909.8000488281</ele>
        <time>2022-08-20T12:09:25Z</time>
      </trkpt>
      <trkpt lat="44.09383" lon="6.61804">
        <ele>1909.1999511719</ele>
        <time>2022-08-20T12:09:27Z</time>
      </trkpt>
      <trkpt lat="44.09382" lon="6.61804">
        <ele>1909</ele>
        <time>2022-08-20T12:09:28Z</time>
      </trkpt>
      <trkpt lat="44.0938" lon="6.61803">
        <ele>1908.1999511719</ele>
        <time>2022-08-20T12:09:30Z</time>
      </trkpt>
      <trkpt lat="44.09379" lon="6.61803">
        <ele>1907.8000488281</ele>
        <time>2022-08-20T12:09:31Z</time>
      </trkpt>
      <trkpt lat="44.09372" lon="6.618">
        <ele>1906.5999755859</ele>
        <time>2022-08-20T12:09:35Z</time>
      </trkpt>
      <trkpt lat="44.09367" lon="6.61801">
        <ele>1905.1999511719</ele>
        <time>2022-08-20T12:09:38Z</time>
      </trkpt>
      <trkpt lat="44.09359" lon="6.618">
        <ele>1904.1999511719</ele>
        <time>2022-08-20T12:09:42Z</time>
      </trkpt>
      <trkpt lat="44.09352" lon="6.61799">
        <ele>1903</ele>
        <time>2022-08-20T12:09:45Z</time>
      </trkpt>
      <trkpt lat="44.09345" lon="6.61798">
        <ele>1901.8000488281</ele>
        <time>2022-08-20T12:09:47Z</time>
      </trkpt>
      <trkpt lat="44.0934" lon="6.61799">
        <ele>1901</ele>
        <time>2022-08-20T12:09:49Z</time>
      </trkpt>
      <trkpt lat="44.09337" lon="6.61799">
        <ele>1900.5999755859</ele>
        <time>2022-08-20T12:09:50Z</time>
      </trkpt>
      <trkpt lat="44.09329" lon="6.61799">
        <ele>1899.5999755859</ele>
        <time>2022-08-20T12:09:53Z</time>
      </trkpt>
      <trkpt lat="44.09323" lon="6.61798">
        <ele>1898.4000244141</ele>
        <time>2022-08-20T12:09:56Z</time>
      </trkpt>
      <trkpt lat="44.09322" lon="6.61798">
        <ele>1898.1999511719</ele>
        <time>2022-08-20T12:09:57Z</time>
      </trkpt>
      <trkpt lat="44.09322" lon="6.61798">
        <ele>1897.5999755859</ele>
        <time>2022-08-20T12:09:59Z</time>
      </trkpt>
      <trkpt lat="44.09322" lon="6.61797">
        <ele>1897.4000244141</ele>
        <time>2022-08-20T12:10:01Z</time>
      </trkpt>
      <trkpt lat="44.09322" lon="6.61797">
        <ele>1897.4000244141</ele>
        <time>2022-08-20T12:10:03Z</time>
      </trkpt>
      <trkpt lat="44.09322" lon="6.61797">
        <ele>1897.4000244141</ele>
        <time>2022-08-20T12:10:04Z</time>
      </trkpt>
      <trkpt lat="44.0932" lon="6.61797">
        <ele>1897.1999511719</ele>
        <time>2022-08-20T12:10:08Z</time>
      </trkpt>
      <trkpt lat="44.09311" lon="6.61799">
        <ele>1896.8000488281</ele>
        <time>2022-08-20T12:10:11Z</time>
      </trkpt>
      <trkpt lat="44.09306" lon="6.61799">
        <ele>1896</ele>
        <time>2022-08-20T12:10:13Z</time>
      </trkpt>
      <trkpt lat="44.09302" lon="6.618">
        <ele>1895.8000488281</ele>
        <time>2022-08-20T12:10:14Z</time>
      </trkpt>
      <trkpt lat="44.09294" lon="6.61801">
        <ele>1895</ele>
        <time>2022-08-20T12:10:16Z</time>
      </trkpt>
      <trkpt lat="44.09286" lon="6.61801">
        <ele>1894.4000244141</ele>
        <time>2022-08-20T12:10:18Z</time>
      </trkpt>
      <trkpt lat="44.09283" lon="6.61802">
        <ele>1894.1999511719</ele>
        <time>2022-08-20T12:10:19Z</time>
      </trkpt>
      <trkpt lat="44.09277" lon="6.61802">
        <ele>1893.8000488281</ele>
        <time>2022-08-20T12:10:21Z</time>
      </trkpt>
      <trkpt lat="44.09265" lon="6.61801">
        <ele>1893.4000244141</ele>
        <time>2022-08-20T12:10:25Z</time>
      </trkpt>
      <trkpt lat="44.09259" lon="6.61797">
        <ele>1892.5999755859</ele>
        <time>2022-08-20T12:10:29Z</time>
      </trkpt>
      <trkpt lat="44.09259" lon="6.61798">
        <ele>1892.4000244141</ele>
        <time>2022-08-20T12:10:31Z</time>
      </trkpt>
      <trkpt lat="44.09259" lon="6.61798">
        <ele>1892.4000244141</ele>
        <time>2022-08-20T12:10:32Z</time>
      </trkpt>
      <trkpt lat="44.09252" lon="6.61798">
        <ele>1892.1999511719</ele>
        <time>2022-08-20T12:10:37Z</time>
      </trkpt>
      <trkpt lat="44.0924" lon="6.61803">
        <ele>1891.8000488281</ele>
        <time>2022-08-20T12:10:42Z</time>
      </trkpt>
      <trkpt lat="44.0924" lon="6.61802">
        <ele>1891.8000488281</ele>
        <time>2022-08-20T12:10:43Z</time>
      </trkpt>
      <trkpt lat="44.09238" lon="6.618">
        <ele>1892</ele>
        <time>2022-08-20T12:10:45Z</time>
      </trkpt>
      <trkpt lat="44.09238" lon="6.61799">
        <ele>1892.1999511719</ele>
        <time>2022-08-20T12:10:46Z</time>
      </trkpt>
      <trkpt lat="44.09238" lon="6.61795">
        <ele>1892.1999511719</ele>
        <time>2022-08-20T12:10:48Z</time>
      </trkpt>
      <trkpt lat="44.09239" lon="6.61791">
        <ele>1892</ele>
        <time>2022-08-20T12:10:50Z</time>
      </trkpt>
      <trkpt lat="44.0924" lon="6.61786">
        <ele>1891.5999755859</ele>
        <time>2022-08-20T12:10:52Z</time>
      </trkpt>
      <trkpt lat="44.09241" lon="6.61778">
        <ele>1890.4000244141</ele>
        <time>2022-08-20T12:10:55Z</time>
      </trkpt>
      <trkpt lat="44.09241" lon="6.61767">
        <ele>1889.1999511719</ele>
        <time>2022-08-20T12:10:59Z</time>
      </trkpt>
      <trkpt lat="44.09241" lon="6.61762">
        <ele>1888.5999755859</ele>
        <time>2022-08-20T12:11:01Z</time>
      </trkpt>
      <trkpt lat="44.09241" lon="6.61757">
        <ele>1888</ele>
        <time>2022-08-20T12:11:03Z</time>
      </trkpt>
      <trkpt lat="44.09239" lon="6.61748">
        <ele>1887</ele>
        <time>2022-08-20T12:11:06Z</time>
      </trkpt>
      <trkpt lat="44.09237" lon="6.61739">
        <ele>1886.1999511719</ele>
        <time>2022-08-20T12:11:08Z</time>
      </trkpt>
      <trkpt lat="44.09236" lon="6.61736">
        <ele>1885.8000488281</ele>
        <time>2022-08-20T12:11:09Z</time>
      </trkpt>
      <trkpt lat="44.09236" lon="6.61734">
        <ele>1885.4000244141</ele>
        <time>2022-08-20T12:11:10Z</time>
      </trkpt>
      <trkpt lat="44.09236" lon="6.61728">
        <ele>1884.5999755859</ele>
        <time>2022-08-20T12:11:12Z</time>
      </trkpt>
      <trkpt lat="44.09235" lon="6.61723">
        <ele>1883.5999755859</ele>
        <time>2022-08-20T12:11:14Z</time>
      </trkpt>
      <trkpt lat="44.09234" lon="6.61719">
        <ele>1883</ele>
        <time>2022-08-20T12:11:15Z</time>
      </trkpt>
      <trkpt lat="44.09233" lon="6.61712">
        <ele>1882</ele>
        <time>2022-08-20T12:11:17Z</time>
      </trkpt>
      <trkpt lat="44.09232" lon="6.61707">
        <ele>1880.8000488281</ele>
        <time>2022-08-20T12:11:19Z</time>
      </trkpt>
      <trkpt lat="44.09231" lon="6.617">
        <ele>1879.4000244141</ele>
        <time>2022-08-20T12:11:21Z</time>
      </trkpt>
      <trkpt lat="44.0923" lon="6.61696">
        <ele>1878.4000244141</ele>
        <time>2022-08-20T12:11:23Z</time>
      </trkpt>
      <trkpt lat="44.09228" lon="6.61692">
        <ele>1877.1999511719</ele>
        <time>2022-08-20T12:11:25Z</time>
      </trkpt>
      <trkpt lat="44.09227" lon="6.6169">
        <ele>1876.8000488281</ele>
        <time>2022-08-20T12:11:26Z</time>
      </trkpt>
      <trkpt lat="44.09226" lon="6.61685">
        <ele>1876.1999511719</ele>
        <time>2022-08-20T12:11:28Z</time>
      </trkpt>
      <trkpt lat="44.09224" lon="6.61677">
        <ele>1874.8000488281</ele>
        <time>2022-08-20T12:11:31Z</time>
      </trkpt>
      <trkpt lat="44.09221" lon="6.61671">
        <ele>1873.5999755859</ele>
        <time>2022-08-20T12:11:33Z</time>
      </trkpt>
      <trkpt lat="44.09219" lon="6.61668">
        <ele>1873</ele>
        <time>2022-08-20T12:11:34Z</time>
      </trkpt>
      <trkpt lat="44.09218" lon="6.61665">
        <ele>1872.5999755859</ele>
        <time>2022-08-20T12:11:35Z</time>
      </trkpt>
      <trkpt lat="44.09213" lon="6.61656">
        <ele>1871.1999511719</ele>
        <time>2022-08-20T12:11:38Z</time>
      </trkpt>
      <trkpt lat="44.09209" lon="6.61648">
        <ele>1870</ele>
        <time>2022-08-20T12:11:41Z</time>
      </trkpt>
      <trkpt lat="44.09208" lon="6.61646">
        <ele>1869.5999755859</ele>
        <time>2022-08-20T12:11:42Z</time>
      </trkpt>
      <trkpt lat="44.09205" lon="6.6164">
        <ele>1868.8000488281</ele>
        <time>2022-08-20T12:11:44Z</time>
      </trkpt>
      <trkpt lat="44.09197" lon="6.61632">
        <ele>1867.5999755859</ele>
        <time>2022-08-20T12:11:47Z</time>
      </trkpt>
      <trkpt lat="44.09194" lon="6.6163">
        <ele>1867.1999511719</ele>
        <time>2022-08-20T12:11:48Z</time>
      </trkpt>
      <trkpt lat="44.0919" lon="6.61625">
        <ele>1866.4000244141</ele>
        <time>2022-08-20T12:11:50Z</time>
      </trkpt>
      <trkpt lat="44.09184" lon="6.61617">
        <ele>1865</ele>
        <time>2022-08-20T12:11:53Z</time>
      </trkpt>
      <trkpt lat="44.09179" lon="6.61611">
        <ele>1864.4000244141</ele>
        <time>2022-08-20T12:11:55Z</time>
      </trkpt>
      <trkpt lat="44.09176" lon="6.61608">
        <ele>1863.8000488281</ele>
        <time>2022-08-20T12:11:56Z</time>
      </trkpt>
      <trkpt lat="44.09169" lon="6.61601">
        <ele>1862.4000244141</ele>
        <time>2022-08-20T12:11:59Z</time>
      </trkpt>
      <trkpt lat="44.09161" lon="6.61593">
        <ele>1861.5999755859</ele>
        <time>2022-08-20T12:12:03Z</time>
      </trkpt>
      <trkpt lat="44.09159" lon="6.61591">
        <ele>1861.1999511719</ele>
        <time>2022-08-20T12:12:04Z</time>
      </trkpt>
      <trkpt lat="44.09156" lon="6.6159">
        <ele>1860.8000488281</ele>
        <time>2022-08-20T12:12:05Z</time>
      </trkpt>
      <trkpt lat="44.09151" lon="6.61587">
        <ele>1860</ele>
        <time>2022-08-20T12:12:07Z</time>
      </trkpt>
      <trkpt lat="44.09149" lon="6.61585">
        <ele>1859.5999755859</ele>
        <time>2022-08-20T12:12:08Z</time>
      </trkpt>
      <trkpt lat="44.09145" lon="6.61579">
        <ele>1858.8000488281</ele>
        <time>2022-08-20T12:12:10Z</time>
      </trkpt>
      <trkpt lat="44.09141" lon="6.61574">
        <ele>1857.5999755859</ele>
        <time>2022-08-20T12:12:12Z</time>
      </trkpt>
      <trkpt lat="44.09137" lon="6.61569">
        <ele>1856.5999755859</ele>
        <time>2022-08-20T12:12:14Z</time>
      </trkpt>
      <trkpt lat="44.09134" lon="6.61565">
        <ele>1856.1999511719</ele>
        <time>2022-08-20T12:12:15Z</time>
      </trkpt>
      <trkpt lat="44.0913" lon="6.61556">
        <ele>1854.5999755859</ele>
        <time>2022-08-20T12:12:18Z</time>
      </trkpt>
      <trkpt lat="44.09127" lon="6.61551">
        <ele>1853.4000244141</ele>
        <time>2022-08-20T12:12:20Z</time>
      </trkpt>
      <trkpt lat="44.09124" lon="6.61543">
        <ele>1852.1999511719</ele>
        <time>2022-08-20T12:12:22Z</time>
      </trkpt>
      <trkpt lat="44.09121" lon="6.61537">
        <ele>1851</ele>
        <time>2022-08-20T12:12:24Z</time>
      </trkpt>
      <trkpt lat="44.09117" lon="6.6153">
        <ele>1849.8000488281</ele>
        <time>2022-08-20T12:12:26Z</time>
      </trkpt>
      <trkpt lat="44.09114" lon="6.61523">
        <ele>1848.5999755859</ele>
        <time>2022-08-20T12:12:28Z</time>
      </trkpt>
      <trkpt lat="44.09111" lon="6.61515">
        <ele>1847.4000244141</ele>
        <time>2022-08-20T12:12:31Z</time>
      </trkpt>
      <trkpt lat="44.09109" lon="6.61512">
        <ele>1846.8000488281</ele>
        <time>2022-08-20T12:12:32Z</time>
      </trkpt>
      <trkpt lat="44.09108" lon="6.6151">
        <ele>1846.1999511719</ele>
        <time>2022-08-20T12:12:33Z</time>
      </trkpt>
      <trkpt lat="44.09104" lon="6.61505">
        <ele>1845</ele>
        <time>2022-08-20T12:12:35Z</time>
      </trkpt>
      <trkpt lat="44.09101" lon="6.61501">
        <ele>1843.8000488281</ele>
        <time>2022-08-20T12:12:37Z</time>
      </trkpt>
      <trkpt lat="44.09097" lon="6.61497">
        <ele>1843</ele>
        <time>2022-08-20T12:12:39Z</time>
      </trkpt>
      <trkpt lat="44.09095" lon="6.61496">
        <ele>1842.5999755859</ele>
        <time>2022-08-20T12:12:40Z</time>
      </trkpt>
      <trkpt lat="44.09091" lon="6.61493">
        <ele>1841.4000244141</ele>
        <time>2022-08-20T12:12:42Z</time>
      </trkpt>
      <trkpt lat="44.09088" lon="6.6149">
        <ele>1840.4000244141</ele>
        <time>2022-08-20T12:12:44Z</time>
      </trkpt>
      <trkpt lat="44.09087" lon="6.61486">
        <ele>1839.5999755859</ele>
        <time>2022-08-20T12:12:45Z</time>
      </trkpt>
      <trkpt lat="44.09085" lon="6.61483">
        <ele>1839</ele>
        <time>2022-08-20T12:12:46Z</time>
      </trkpt>
      <trkpt lat="44.09081" lon="6.61477">
        <ele>1837.5999755859</ele>
        <time>2022-08-20T12:12:48Z</time>
      </trkpt>
      <trkpt lat="44.09078" lon="6.61472">
        <ele>1836.4000244141</ele>
        <time>2022-08-20T12:12:50Z</time>
      </trkpt>
      <trkpt lat="44.09075" lon="6.61468">
        <ele>1835.4000244141</ele>
        <time>2022-08-20T12:12:52Z</time>
      </trkpt>
      <trkpt lat="44.09071" lon="6.61463">
        <ele>1834.4000244141</ele>
        <time>2022-08-20T12:12:54Z</time>
      </trkpt>
      <trkpt lat="44.09067" lon="6.61456">
        <ele>1833.1999511719</ele>
        <time>2022-08-20T12:12:57Z</time>
      </trkpt>
      <trkpt lat="44.09067" lon="6.61455">
        <ele>1832.8000488281</ele>
        <time>2022-08-20T12:13:00Z</time>
      </trkpt>
      <trkpt lat="44.09066" lon="6.61456">
        <ele>1832.8000488281</ele>
        <time>2022-08-20T12:13:05Z</time>
      </trkpt>
      <trkpt lat="44.09064" lon="6.61452">
        <ele>1832</ele>
        <time>2022-08-20T12:13:08Z</time>
      </trkpt>
      <trkpt lat="44.09061" lon="6.61445">
        <ele>1830.4000244141</ele>
        <time>2022-08-20T12:13:11Z</time>
      </trkpt>
      <trkpt lat="44.0906" lon="6.61442">
        <ele>1828.8000488281</ele>
        <time>2022-08-20T12:13:13Z</time>
      </trkpt>
      <trkpt lat="44.09059" lon="6.61439">
        <ele>1827.8000488281</ele>
        <time>2022-08-20T12:13:15Z</time>
      </trkpt>
      <trkpt lat="44.09058" lon="6.61438">
        <ele>1826.5999755859</ele>
        <time>2022-08-20T12:13:17Z</time>
      </trkpt>
      <trkpt lat="44.09055" lon="6.61435">
        <ele>1825.4000244141</ele>
        <time>2022-08-20T12:13:19Z</time>
      </trkpt>
      <trkpt lat="44.09053" lon="6.61433">
        <ele>1824.8000488281</ele>
        <time>2022-08-20T12:13:20Z</time>
      </trkpt>
      <trkpt lat="44.09052" lon="6.61432">
        <ele>1824.1999511719</ele>
        <time>2022-08-20T12:13:21Z</time>
      </trkpt>
      <trkpt lat="44.09049" lon="6.6143">
        <ele>1823.1999511719</ele>
        <time>2022-08-20T12:13:23Z</time>
      </trkpt>
      <trkpt lat="44.09045" lon="6.61424">
        <ele>1821.8000488281</ele>
        <time>2022-08-20T12:13:26Z</time>
      </trkpt>
      <trkpt lat="44.09041" lon="6.61421">
        <ele>1820.4000244141</ele>
        <time>2022-08-20T12:13:28Z</time>
      </trkpt>
      <trkpt lat="44.0904" lon="6.6142">
        <ele>1820</ele>
        <time>2022-08-20T12:13:29Z</time>
      </trkpt>
      <trkpt lat="44.09037" lon="6.61418">
        <ele>1819</ele>
        <time>2022-08-20T12:13:31Z</time>
      </trkpt>
      <trkpt lat="44.09034" lon="6.61414">
        <ele>1818</ele>
        <time>2022-08-20T12:13:33Z</time>
      </trkpt>
      <trkpt lat="44.0903" lon="6.61411">
        <ele>1816.5999755859</ele>
        <time>2022-08-20T12:13:35Z</time>
      </trkpt>
      <trkpt lat="44.09028" lon="6.61409">
        <ele>1816.1999511719</ele>
        <time>2022-08-20T12:13:36Z</time>
      </trkpt>
      <trkpt lat="44.09027" lon="6.61408">
        <ele>1815.5999755859</ele>
        <time>2022-08-20T12:13:37Z</time>
      </trkpt>
      <trkpt lat="44.09022" lon="6.61402">
        <ele>1814.1999511719</ele>
        <time>2022-08-20T12:13:40Z</time>
      </trkpt>
      <trkpt lat="44.09021" lon="6.61401">
        <ele>1814</ele>
        <time>2022-08-20T12:13:41Z</time>
      </trkpt>
      <trkpt lat="44.0902" lon="6.61401">
        <ele>1813.5999755859</ele>
        <time>2022-08-20T12:13:42Z</time>
      </trkpt>
      <trkpt lat="44.09019" lon="6.61401">
        <ele>1813.1999511719</ele>
        <time>2022-08-20T12:13:44Z</time>
      </trkpt>
      <trkpt lat="44.09019" lon="6.61401">
        <ele>1813.1999511719</ele>
        <time>2022-08-20T12:13:45Z</time>
      </trkpt>
      <trkpt lat="44.09018" lon="6.61399">
        <ele>1813</ele>
        <time>2022-08-20T12:13:49Z</time>
      </trkpt>
      <trkpt lat="44.09017" lon="6.61398">
        <ele>1813</ele>
        <time>2022-08-20T12:13:53Z</time>
      </trkpt>
      <trkpt lat="44.09017" lon="6.61398">
        <ele>1812.8000488281</ele>
        <time>2022-08-20T12:13:56Z</time>
      </trkpt>
      <trkpt lat="44.09013" lon="6.61392">
        <ele>1812.5999755859</ele>
        <time>2022-08-20T12:14:09Z</time>
      </trkpt>
      <trkpt lat="44.0901" lon="6.61389">
        <ele>1812.1999511719</ele>
        <time>2022-08-20T12:14:15Z</time>
      </trkpt>
      <trkpt lat="44.09004" lon="6.61385">
        <ele>1811.4000244141</ele>
        <time>2022-08-20T12:14:21Z</time>
      </trkpt>
      <trkpt lat="44.08993" lon="6.61382">
        <ele>1811.1999511719</ele>
        <time>2022-08-20T12:14:32Z</time>
      </trkpt>
      <trkpt lat="44.08982" lon="6.61378">
        <ele>1810</ele>
        <time>2022-08-20T12:14:38Z</time>
      </trkpt>
      <trkpt lat="44.0898" lon="6.61377">
        <ele>1809.8000488281</ele>
        <time>2022-08-20T12:14:39Z</time>
      </trkpt>
      <trkpt lat="44.08974" lon="6.61375">
        <ele>1809</ele>
        <time>2022-08-20T12:14:41Z</time>
      </trkpt>
      <trkpt lat="44.08965" lon="6.61372">
        <ele>1807.5999755859</ele>
        <time>2022-08-20T12:14:44Z</time>
      </trkpt>
      <trkpt lat="44.08962" lon="6.61371">
        <ele>1807.1999511719</ele>
        <time>2022-08-20T12:14:45Z</time>
      </trkpt>
      <trkpt lat="44.08953" lon="6.61367">
        <ele>1806.4000244141</ele>
        <time>2022-08-20T12:14:48Z</time>
      </trkpt>
      <trkpt lat="44.08944" lon="6.61363">
        <ele>1805.5999755859</ele>
        <time>2022-08-20T12:14:51Z</time>
      </trkpt>
      <trkpt lat="44.08941" lon="6.61362">
        <ele>1805.1999511719</ele>
        <time>2022-08-20T12:14:52Z</time>
      </trkpt>
      <trkpt lat="44.08933" lon="6.61361">
        <ele>1804</ele>
        <time>2022-08-20T12:14:55Z</time>
      </trkpt>
      <trkpt lat="44.08921" lon="6.61358">
        <ele>1802.5999755859</ele>
        <time>2022-08-20T12:14:58Z</time>
      </trkpt>
      <trkpt lat="44.08917" lon="6.61356">
        <ele>1802.1999511719</ele>
        <time>2022-08-20T12:14:59Z</time>
      </trkpt>
      <trkpt lat="44.08909" lon="6.61352">
        <ele>1801.4000244141</ele>
        <time>2022-08-20T12:15:01Z</time>
      </trkpt>
      <trkpt lat="44.08898" lon="6.61343">
        <ele>1799.8000488281</ele>
        <time>2022-08-20T12:15:04Z</time>
      </trkpt>
      <trkpt lat="44.08894" lon="6.61338">
        <ele>1799.4000244141</ele>
        <time>2022-08-20T12:15:05Z</time>
      </trkpt>
      <trkpt lat="44.08891" lon="6.61333">
        <ele>1799</ele>
        <time>2022-08-20T12:15:06Z</time>
      </trkpt>
      <trkpt lat="44.08888" lon="6.61328">
        <ele>1798.8000488281</ele>
        <time>2022-08-20T12:15:07Z</time>
      </trkpt>
      <trkpt lat="44.08886" lon="6.61326">
        <ele>1798.5999755859</ele>
        <time>2022-08-20T12:15:08Z</time>
      </trkpt>
      <trkpt lat="44.08884" lon="6.61326">
        <ele>1798.4000244141</ele>
        <time>2022-08-20T12:15:09Z</time>
      </trkpt>
      <trkpt lat="44.08883" lon="6.61329">
        <ele>1798.1999511719</ele>
        <time>2022-08-20T12:15:11Z</time>
      </trkpt>
      <trkpt lat="44.08883" lon="6.61329">
        <ele>1798.1999511719</ele>
        <time>2022-08-20T12:15:13Z</time>
      </trkpt>
      <trkpt lat="44.08882" lon="6.61329">
        <ele>1798.1999511719</ele>
        <time>2022-08-20T12:15:14Z</time>
      </trkpt>
      <trkpt lat="44.08882" lon="6.61329">
        <ele>1798.4000244141</ele>
        <time>2022-08-20T12:15:15Z</time>
      </trkpt>
      <trkpt lat="44.08881" lon="6.61329">
        <ele>1798.4000244141</ele>
        <time>2022-08-20T12:15:16Z</time>
      </trkpt>
      <trkpt lat="44.08881" lon="6.61329">
        <ele>1798.5999755859</ele>
        <time>2022-08-20T12:15:20Z</time>
      </trkpt>
      <trkpt lat="44.08881" lon="6.61329">
        <ele>1798.5999755859</ele>
        <time>2022-08-20T12:15:24Z</time>
      </trkpt>
      <trkpt lat="44.08881" lon="6.61329">
        <ele>1798</ele>
        <time>2022-08-20T12:15:32Z</time>
      </trkpt>
      <trkpt lat="44.08881" lon="6.61329">
        <ele>1797.8000488281</ele>
        <time>2022-08-20T12:15:37Z</time>
      </trkpt>
      <trkpt lat="44.08881" lon="6.61329">
        <ele>1798.1999511719</ele>
        <time>2022-08-20T12:15:47Z</time>
      </trkpt>
      <trkpt lat="44.0888" lon="6.61329">
        <ele>1798.4000244141</ele>
        <time>2022-08-20T12:15:56Z</time>
      </trkpt>
      <trkpt lat="44.0888" lon="6.61329">
        <ele>1797.4000244141</ele>
        <time>2022-08-20T12:16:06Z</time>
      </trkpt>
      <trkpt lat="44.0888" lon="6.6133">
        <ele>1797.4000244141</ele>
        <time>2022-08-20T12:16:11Z</time>
      </trkpt>
      <trkpt lat="44.0888" lon="6.6133">
        <ele>1797.4000244141</ele>
        <time>2022-08-20T12:16:14Z</time>
      </trkpt>
      <trkpt lat="44.0888" lon="6.6133">
        <ele>1797.4000244141</ele>
        <time>2022-08-20T12:16:16Z</time>
      </trkpt>
      <trkpt lat="44.0888" lon="6.61331">
        <ele>1798.1999511719</ele>
        <time>2022-08-20T12:16:23Z</time>
      </trkpt>
      <trkpt lat="44.08881" lon="6.61332">
        <ele>1798</ele>
        <time>2022-08-20T12:16:30Z</time>
      </trkpt>
      <trkpt lat="44.08881" lon="6.61333">
        <ele>1797.8000488281</ele>
        <time>2022-08-20T12:16:32Z</time>
      </trkpt>
      <trkpt lat="44.08882" lon="6.61332">
        <ele>1797.4000244141</ele>
        <time>2022-08-20T12:16:36Z</time>
      </trkpt>
      <trkpt lat="44.08882" lon="6.61332">
        <ele>1797</ele>
        <time>2022-08-20T12:16:40Z</time>
      </trkpt>
      <trkpt lat="44.08882" lon="6.61333">
        <ele>1797.1999511719</ele>
        <time>2022-08-20T12:16:43Z</time>
      </trkpt>
      <trkpt lat="44.08881" lon="6.61334">
        <ele>1797.4000244141</ele>
        <time>2022-08-20T12:16:47Z</time>
      </trkpt>
      <trkpt lat="44.08881" lon="6.61335">
        <ele>1797.5999755859</ele>
        <time>2022-08-20T12:16:52Z</time>
      </trkpt>
      <trkpt lat="44.08881" lon="6.61335">
        <ele>1797.5999755859</ele>
        <time>2022-08-20T12:16:55Z</time>
      </trkpt>
      <trkpt lat="44.08881" lon="6.61335">
        <ele>1797.5999755859</ele>
        <time>2022-08-20T12:16:57Z</time>
      </trkpt>
      <trkpt lat="44.08881" lon="6.61335">
        <ele>1797.5999755859</ele>
        <time>2022-08-20T12:16:59Z</time>
      </trkpt>
      <trkpt lat="44.0888" lon="6.61335">
        <ele>1797.5999755859</ele>
        <time>2022-08-20T12:17:03Z</time>
      </trkpt>
      <trkpt lat="44.08871" lon="6.61339">
        <ele>1797.5999755859</ele>
        <time>2022-08-20T12:17:08Z</time>
      </trkpt>
      <trkpt lat="44.08869" lon="6.6134">
        <ele>1797.5999755859</ele>
        <time>2022-08-20T12:17:09Z</time>
      </trkpt>
      <trkpt lat="44.08859" lon="6.61345">
        <ele>1796.8000488281</ele>
        <time>2022-08-20T12:17:14Z</time>
      </trkpt>
      <trkpt lat="44.08858" lon="6.61346">
        <ele>1796.5999755859</ele>
        <time>2022-08-20T12:17:15Z</time>
      </trkpt>
      <trkpt lat="44.08848" lon="6.61348">
        <ele>1796.4000244141</ele>
        <time>2022-08-20T12:17:20Z</time>
      </trkpt>
      <trkpt lat="44.08832" lon="6.61354">
        <ele>1796.4000244141</ele>
        <time>2022-08-20T12:17:27Z</time>
      </trkpt>
      <trkpt lat="44.08811" lon="6.61357">
        <ele>1795.8000488281</ele>
        <time>2022-08-20T12:17:35Z</time>
      </trkpt>
      <trkpt lat="44.08809" lon="6.61359">
        <ele>1795.8000488281</ele>
        <time>2022-08-20T12:17:36Z</time>
      </trkpt>
      <trkpt lat="44.08798" lon="6.61363">
        <ele>1794.5999755859</ele>
        <time>2022-08-20T12:17:41Z</time>
      </trkpt>
      <trkpt lat="44.08795" lon="6.61361">
        <ele>1794.4000244141</ele>
        <time>2022-08-20T12:17:42Z</time>
      </trkpt>
      <trkpt lat="44.08785" lon="6.61363">
        <ele>1793.5999755859</ele>
        <time>2022-08-20T12:17:45Z</time>
      </trkpt>
      <trkpt lat="44.08771" lon="6.61371">
        <ele>1792.5999755859</ele>
        <time>2022-08-20T12:17:48Z</time>
      </trkpt>
      <trkpt lat="44.08767" lon="6.61375">
        <ele>1792.1999511719</ele>
        <time>2022-08-20T12:17:49Z</time>
      </trkpt>
      <trkpt lat="44.08758" lon="6.61381">
        <ele>1791.1999511719</ele>
        <time>2022-08-20T12:17:51Z</time>
      </trkpt>
      <trkpt lat="44.0875" lon="6.61385">
        <ele>1790.1999511719</ele>
        <time>2022-08-20T12:17:53Z</time>
      </trkpt>
      <trkpt lat="44.08746" lon="6.61386">
        <ele>1789.8000488281</ele>
        <time>2022-08-20T12:17:54Z</time>
      </trkpt>
      <trkpt lat="44.08735" lon="6.61389">
        <ele>1788.8000488281</ele>
        <time>2022-08-20T12:17:57Z</time>
      </trkpt>
      <trkpt lat="44.08729" lon="6.61389">
        <ele>1787.4000244141</ele>
        <time>2022-08-20T12:17:59Z</time>
      </trkpt>
      <trkpt lat="44.08726" lon="6.61388">
        <ele>1786.8000488281</ele>
        <time>2022-08-20T12:18:00Z</time>
      </trkpt>
      <trkpt lat="44.08724" lon="6.61387">
        <ele>1786.1999511719</ele>
        <time>2022-08-20T12:18:01Z</time>
      </trkpt>
      <trkpt lat="44.08712" lon="6.61382">
        <ele>1785</ele>
        <time>2022-08-20T12:18:04Z</time>
      </trkpt>
      <trkpt lat="44.08707" lon="6.61381">
        <ele>1784.5999755859</ele>
        <time>2022-08-20T12:18:05Z</time>
      </trkpt>
      <trkpt lat="44.08688" lon="6.6138">
        <ele>1784.1999511719</ele>
        <time>2022-08-20T12:18:10Z</time>
      </trkpt>
      <trkpt lat="44.08672" lon="6.61377">
        <ele>1784</ele>
        <time>2022-08-20T12:18:14Z</time>
      </trkpt>
      <trkpt lat="44.08665" lon="6.61376">
        <ele>1783.8000488281</ele>
        <time>2022-08-20T12:18:16Z</time>
      </trkpt>
      <trkpt lat="44.08653" lon="6.61373">
        <ele>1783.4000244141</ele>
        <time>2022-08-20T12:18:19Z</time>
      </trkpt>
      <trkpt lat="44.08645" lon="6.6137">
        <ele>1783</ele>
        <time>2022-08-20T12:18:21Z</time>
      </trkpt>
      <trkpt lat="44.08633" lon="6.61364">
        <ele>1782.5999755859</ele>
        <time>2022-08-20T12:18:24Z</time>
      </trkpt>
      <trkpt lat="44.08624" lon="6.61358">
        <ele>1783</ele>
        <time>2022-08-20T12:18:27Z</time>
      </trkpt>
      <trkpt lat="44.08622" lon="6.61353">
        <ele>1783.4000244141</ele>
        <time>2022-08-20T12:18:29Z</time>
      </trkpt>
      <trkpt lat="44.08622" lon="6.6135">
        <ele>1783.8000488281</ele>
        <time>2022-08-20T12:18:30Z</time>
      </trkpt>
      <trkpt lat="44.08622" lon="6.61347">
        <ele>1784</ele>
        <time>2022-08-20T12:18:31Z</time>
      </trkpt>
      <trkpt lat="44.08626" lon="6.6134">
        <ele>1784.4000244141</ele>
        <time>2022-08-20T12:18:34Z</time>
      </trkpt>
      <trkpt lat="44.08627" lon="6.61337">
        <ele>1784.4000244141</ele>
        <time>2022-08-20T12:18:35Z</time>
      </trkpt>
      <trkpt lat="44.08631" lon="6.61334">
        <ele>1784.4000244141</ele>
        <time>2022-08-20T12:18:37Z</time>
      </trkpt>
      <trkpt lat="44.08631" lon="6.61333">
        <ele>1784.4000244141</ele>
        <time>2022-08-20T12:18:40Z</time>
      </trkpt>
      <trkpt lat="44.08631" lon="6.61334">
        <ele>1784.4000244141</ele>
        <time>2022-08-20T12:18:41Z</time>
      </trkpt>
      <trkpt lat="44.08631" lon="6.61334">
        <ele>1784.1999511719</ele>
        <time>2022-08-20T12:18:45Z</time>
      </trkpt>
      <trkpt lat="44.08631" lon="6.61334">
        <ele>1784.1999511719</ele>
        <time>2022-08-20T12:18:52Z</time>
      </trkpt>
      <trkpt lat="44.08631" lon="6.61334">
        <ele>1784</ele>
        <time>2022-08-20T12:18:54Z</time>
      </trkpt>
      <trkpt lat="44.08631" lon="6.61334">
        <ele>1783.8000488281</ele>
        <time>2022-08-20T12:19:10Z</time>
      </trkpt>
      <trkpt lat="44.08631" lon="6.61334">
        <ele>1784</ele>
        <time>2022-08-20T12:19:12Z</time>
      </trkpt>
      <trkpt lat="44.0863" lon="6.61334">
        <ele>1783.8000488281</ele>
        <time>2022-08-20T12:19:14Z</time>
      </trkpt>
      <trkpt lat="44.0863" lon="6.61335">
        <ele>1784</ele>
        <time>2022-08-20T12:19:17Z</time>
      </trkpt>
      <trkpt lat="44.0863" lon="6.61335">
        <ele>1783.8000488281</ele>
        <time>2022-08-20T12:19:34Z</time>
      </trkpt>
      <trkpt lat="44.0863" lon="6.61335">
        <ele>1783.5999755859</ele>
        <time>2022-08-20T12:19:41Z</time>
      </trkpt>
      <trkpt lat="44.0863" lon="6.61336">
        <ele>1783.8000488281</ele>
        <time>2022-08-20T12:19:54Z</time>
      </trkpt>
      <trkpt lat="44.08629" lon="6.61335">
        <ele>1783.8000488281</ele>
        <time>2022-08-20T12:20:23Z</time>
      </trkpt>
      <trkpt lat="44.08629" lon="6.61335">
        <ele>1783.8000488281</ele>
        <time>2022-08-20T12:20:24Z</time>
      </trkpt>
      <trkpt lat="44.08625" lon="6.61342">
        <ele>1783.8000488281</ele>
        <time>2022-08-20T12:20:33Z</time>
      </trkpt>
      <trkpt lat="44.08623" lon="6.61346">
        <ele>1783.8000488281</ele>
        <time>2022-08-20T12:20:34Z</time>
      </trkpt>
      <trkpt lat="44.08623" lon="6.61354">
        <ele>1783.8000488281</ele>
        <time>2022-08-20T12:20:37Z</time>
      </trkpt>
      <trkpt lat="44.08625" lon="6.61359">
        <ele>1783.8000488281</ele>
        <time>2022-08-20T12:20:39Z</time>
      </trkpt>
      <trkpt lat="44.08643" lon="6.61372">
        <ele>1782.8000488281</ele>
        <time>2022-08-20T12:20:45Z</time>
      </trkpt>
      <trkpt lat="44.08659" lon="6.61378">
        <ele>1782</ele>
        <time>2022-08-20T12:20:49Z</time>
      </trkpt>
      <trkpt lat="44.08662" lon="6.61379">
        <ele>1782</ele>
        <time>2022-08-20T12:20:50Z</time>
      </trkpt>
      <trkpt lat="44.08673" lon="6.61383">
        <ele>1782.5999755859</ele>
        <time>2022-08-20T12:20:54Z</time>
      </trkpt>
      <trkpt lat="44.08675" lon="6.61385">
        <ele>1782.5999755859</ele>
        <time>2022-08-20T12:20:55Z</time>
      </trkpt>
      <trkpt lat="44.08677" lon="6.61387">
        <ele>1782.5999755859</ele>
        <time>2022-08-20T12:20:56Z</time>
      </trkpt>
      <trkpt lat="44.08678" lon="6.61391">
        <ele>1782.5999755859</ele>
        <time>2022-08-20T12:20:58Z</time>
      </trkpt>
      <trkpt lat="44.08679" lon="6.61396">
        <ele>1782.4000244141</ele>
        <time>2022-08-20T12:21:00Z</time>
      </trkpt>
      <trkpt lat="44.08679" lon="6.61399">
        <ele>1782.4000244141</ele>
        <time>2022-08-20T12:21:01Z</time>
      </trkpt>
      <trkpt lat="44.08678" lon="6.61405">
        <ele>1781.5999755859</ele>
        <time>2022-08-20T12:21:03Z</time>
      </trkpt>
      <trkpt lat="44.08677" lon="6.6141">
        <ele>1780.5999755859</ele>
        <time>2022-08-20T12:21:05Z</time>
      </trkpt>
      <trkpt lat="44.08675" lon="6.61412">
        <ele>1780.1999511719</ele>
        <time>2022-08-20T12:21:06Z</time>
      </trkpt>
      <trkpt lat="44.08673" lon="6.61414">
        <ele>1779.8000488281</ele>
        <time>2022-08-20T12:21:07Z</time>
      </trkpt>
      <trkpt lat="44.0867" lon="6.61417">
        <ele>1779.1999511719</ele>
        <time>2022-08-20T12:21:09Z</time>
      </trkpt>
      <trkpt lat="44.08668" lon="6.61424">
        <ele>1779</ele>
        <time>2022-08-20T12:21:12Z</time>
      </trkpt>
      <trkpt lat="44.08667" lon="6.61428">
        <ele>1778.8000488281</ele>
        <time>2022-08-20T12:21:14Z</time>
      </trkpt>
      <trkpt lat="44.08665" lon="6.61433">
        <ele>1778.8000488281</ele>
        <time>2022-08-20T12:21:16Z</time>
      </trkpt>
      <trkpt lat="44.0866" lon="6.61434">
        <ele>1778.4000244141</ele>
        <time>2022-08-20T12:21:18Z</time>
      </trkpt>
      <trkpt lat="44.08653" lon="6.61437">
        <ele>1778</ele>
        <time>2022-08-20T12:21:21Z</time>
      </trkpt>
      <trkpt lat="44.0864" lon="6.61439">
        <ele>1776.8000488281</ele>
        <time>2022-08-20T12:21:25Z</time>
      </trkpt>
      <trkpt lat="44.08636" lon="6.6144">
        <ele>1776.4000244141</ele>
        <time>2022-08-20T12:21:26Z</time>
      </trkpt>
      <trkpt lat="44.08628" lon="6.61445">
        <ele>1775.5999755859</ele>
        <time>2022-08-20T12:21:28Z</time>
      </trkpt>
      <trkpt lat="44.08609" lon="6.61457">
        <ele>1774.5999755859</ele>
        <time>2022-08-20T12:21:33Z</time>
      </trkpt>
      <trkpt lat="44.08602" lon="6.61462">
        <ele>1774.4000244141</ele>
        <time>2022-08-20T12:21:35Z</time>
      </trkpt>
      <trkpt lat="44.0859" lon="6.61467">
        <ele>1774.4000244141</ele>
        <time>2022-08-20T12:21:38Z</time>
      </trkpt>
      <trkpt lat="44.08572" lon="6.61476">
        <ele>1773.8000488281</ele>
        <time>2022-08-20T12:21:43Z</time>
      </trkpt>
      <trkpt lat="44.08567" lon="6.61478">
        <ele>1773.5999755859</ele>
        <time>2022-08-20T12:21:44Z</time>
      </trkpt>
      <trkpt lat="44.08559" lon="6.61484">
        <ele>1773.1999511719</ele>
        <time>2022-08-20T12:21:46Z</time>
      </trkpt>
      <trkpt lat="44.08552" lon="6.61489">
        <ele>1773.1999511719</ele>
        <time>2022-08-20T12:21:48Z</time>
      </trkpt>
      <trkpt lat="44.08549" lon="6.61491">
        <ele>1773.1999511719</ele>
        <time>2022-08-20T12:21:49Z</time>
      </trkpt>
      <trkpt lat="44.08546" lon="6.61494">
        <ele>1773.1999511719</ele>
        <time>2022-08-20T12:21:50Z</time>
      </trkpt>
      <trkpt lat="44.08543" lon="6.61495">
        <ele>1773.1999511719</ele>
        <time>2022-08-20T12:21:51Z</time>
      </trkpt>
      <trkpt lat="44.08533" lon="6.61498">
        <ele>1773</ele>
        <time>2022-08-20T12:21:55Z</time>
      </trkpt>
      <trkpt lat="44.08522" lon="6.61503">
        <ele>1772.8000488281</ele>
        <time>2022-08-20T12:22:00Z</time>
      </trkpt>
      <trkpt lat="44.0852" lon="6.61504">
        <ele>1772.8000488281</ele>
        <time>2022-08-20T12:22:01Z</time>
      </trkpt>
      <trkpt lat="44.08511" lon="6.61509">
        <ele>1772.5999755859</ele>
        <time>2022-08-20T12:22:06Z</time>
      </trkpt>
      <trkpt lat="44.08505" lon="6.61513">
        <ele>1772.1999511719</ele>
        <time>2022-08-20T12:22:09Z</time>
      </trkpt>
      <trkpt lat="44.08493" lon="6.6152">
        <ele>1771.8000488281</ele>
        <time>2022-08-20T12:22:15Z</time>
      </trkpt>
      <trkpt lat="44.08485" lon="6.61525">
        <ele>1771.5999755859</ele>
        <time>2022-08-20T12:22:20Z</time>
      </trkpt>
      <trkpt lat="44.08484" lon="6.61526">
        <ele>1771.4000244141</ele>
        <time>2022-08-20T12:22:21Z</time>
      </trkpt>
      <trkpt lat="44.08473" lon="6.6153">
        <ele>1770.4000244141</ele>
        <time>2022-08-20T12:22:25Z</time>
      </trkpt>
      <trkpt lat="44.0847" lon="6.6153">
        <ele>1770</ele>
        <time>2022-08-20T12:22:26Z</time>
      </trkpt>
      <trkpt lat="44.08463" lon="6.6153">
        <ele>1769.4000244141</ele>
        <time>2022-08-20T12:22:28Z</time>
      </trkpt>
      <trkpt lat="44.08452" lon="6.61531">
        <ele>1769.1999511719</ele>
        <time>2022-08-20T12:22:32Z</time>
      </trkpt>
      <trkpt lat="44.08435" lon="6.61534">
        <ele>1769</ele>
        <time>2022-08-20T12:22:38Z</time>
      </trkpt>
      <trkpt lat="44.08428" lon="6.61538">
        <ele>1768.1999511719</ele>
        <time>2022-08-20T12:22:41Z</time>
      </trkpt>
      <trkpt lat="44.08422" lon="6.61539">
        <ele>1767.8000488281</ele>
        <time>2022-08-20T12:22:43Z</time>
      </trkpt>
      <trkpt lat="44.08417" lon="6.6154">
        <ele>1767</ele>
        <time>2022-08-20T12:22:45Z</time>
      </trkpt>
      <trkpt lat="44.08407" lon="6.6154">
        <ele>1766</ele>
        <time>2022-08-20T12:22:49Z</time>
      </trkpt>
      <trkpt lat="44.08404" lon="6.6154">
        <ele>1765.5999755859</ele>
        <time>2022-08-20T12:22:50Z</time>
      </trkpt>
      <trkpt lat="44.08397" lon="6.61541">
        <ele>1764.5999755859</ele>
        <time>2022-08-20T12:22:53Z</time>
      </trkpt>
      <trkpt lat="44.08389" lon="6.61546">
        <ele>1763.4000244141</ele>
        <time>2022-08-20T12:22:57Z</time>
      </trkpt>
      <trkpt lat="44.08379" lon="6.61546">
        <ele>1762</ele>
        <time>2022-08-20T12:23:01Z</time>
      </trkpt>
      <trkpt lat="44.08375" lon="6.61546">
        <ele>1761.1999511719</ele>
        <time>2022-08-20T12:23:03Z</time>
      </trkpt>
      <trkpt lat="44.08372" lon="6.61546">
        <ele>1760.5999755859</ele>
        <time>2022-08-20T12:23:04Z</time>
      </trkpt>
      <trkpt lat="44.08366" lon="6.61545">
        <ele>1759.1999511719</ele>
        <time>2022-08-20T12:23:07Z</time>
      </trkpt>
      <trkpt lat="44.0836" lon="6.61544">
        <ele>1757.5999755859</ele>
        <time>2022-08-20T12:23:10Z</time>
      </trkpt>
      <trkpt lat="44.08358" lon="6.61544">
        <ele>1757.1999511719</ele>
        <time>2022-08-20T12:23:11Z</time>
      </trkpt>
      <trkpt lat="44.08354" lon="6.61544">
        <ele>1756.4000244141</ele>
        <time>2022-08-20T12:23:13Z</time>
      </trkpt>
      <trkpt lat="44.0835" lon="6.61544">
        <ele>1755.1999511719</ele>
        <time>2022-08-20T12:23:16Z</time>
      </trkpt>
      <trkpt lat="44.08345" lon="6.61544">
        <ele>1754.5999755859</ele>
        <time>2022-08-20T12:23:18Z</time>
      </trkpt>
      <trkpt lat="44.08343" lon="6.61544">
        <ele>1754</ele>
        <time>2022-08-20T12:23:19Z</time>
      </trkpt>
      <trkpt lat="44.08337" lon="6.61545">
        <ele>1752.8000488281</ele>
        <time>2022-08-20T12:23:21Z</time>
      </trkpt>
      <trkpt lat="44.08331" lon="6.61546">
        <ele>1751.5999755859</ele>
        <time>2022-08-20T12:23:24Z</time>
      </trkpt>
      <trkpt lat="44.08324" lon="6.61546">
        <ele>1750.1999511719</ele>
        <time>2022-08-20T12:23:27Z</time>
      </trkpt>
      <trkpt lat="44.08322" lon="6.61546">
        <ele>1749.4000244141</ele>
        <time>2022-08-20T12:23:29Z</time>
      </trkpt>
      <trkpt lat="44.08318" lon="6.61545">
        <ele>1749</ele>
        <time>2022-08-20T12:23:31Z</time>
      </trkpt>
      <trkpt lat="44.08312" lon="6.61544">
        <ele>1747.5999755859</ele>
        <time>2022-08-20T12:23:34Z</time>
      </trkpt>
      <trkpt lat="44.08311" lon="6.61545">
        <ele>1747.1999511719</ele>
        <time>2022-08-20T12:23:35Z</time>
      </trkpt>
      <trkpt lat="44.08308" lon="6.61546">
        <ele>1746.5999755859</ele>
        <time>2022-08-20T12:23:36Z</time>
      </trkpt>
      <trkpt lat="44.08304" lon="6.61548">
        <ele>1745.4000244141</ele>
        <time>2022-08-20T12:23:38Z</time>
      </trkpt>
      <trkpt lat="44.08297" lon="6.61551">
        <ele>1744.1999511719</ele>
        <time>2022-08-20T12:23:41Z</time>
      </trkpt>
      <trkpt lat="44.08296" lon="6.61552">
        <ele>1743.8000488281</ele>
        <time>2022-08-20T12:23:42Z</time>
      </trkpt>
      <trkpt lat="44.08293" lon="6.61553">
        <ele>1743.4000244141</ele>
        <time>2022-08-20T12:23:43Z</time>
      </trkpt>
      <trkpt lat="44.08292" lon="6.61553">
        <ele>1743</ele>
        <time>2022-08-20T12:23:44Z</time>
      </trkpt>
      <trkpt lat="44.0829" lon="6.61553">
        <ele>1742.5999755859</ele>
        <time>2022-08-20T12:23:45Z</time>
      </trkpt>
      <trkpt lat="44.08287" lon="6.61554">
        <ele>1742</ele>
        <time>2022-08-20T12:23:47Z</time>
      </trkpt>
      <trkpt lat="44.08285" lon="6.61554">
        <ele>1741</ele>
        <time>2022-08-20T12:23:50Z</time>
      </trkpt>
      <trkpt lat="44.08284" lon="6.61555">
        <ele>1740.5999755859</ele>
        <time>2022-08-20T12:23:51Z</time>
      </trkpt>
      <trkpt lat="44.08283" lon="6.61556">
        <ele>1740</ele>
        <time>2022-08-20T12:23:53Z</time>
      </trkpt>
      <trkpt lat="44.08282" lon="6.61556">
        <ele>1739.5999755859</ele>
        <time>2022-08-20T12:23:55Z</time>
      </trkpt>
      <trkpt lat="44.08281" lon="6.61554">
        <ele>1738.8000488281</ele>
        <time>2022-08-20T12:23:59Z</time>
      </trkpt>
      <trkpt lat="44.08281" lon="6.61552">
        <ele>1738.5999755859</ele>
        <time>2022-08-20T12:24:01Z</time>
      </trkpt>
      <trkpt lat="44.08278" lon="6.6155">
        <ele>1738</ele>
        <time>2022-08-20T12:24:04Z</time>
      </trkpt>
      <trkpt lat="44.08275" lon="6.61549">
        <ele>1737.5999755859</ele>
        <time>2022-08-20T12:24:06Z</time>
      </trkpt>
      <trkpt lat="44.08273" lon="6.61549">
        <ele>1737.4000244141</ele>
        <time>2022-08-20T12:24:07Z</time>
      </trkpt>
      <trkpt lat="44.08265" lon="6.6155">
        <ele>1736.1999511719</ele>
        <time>2022-08-20T12:24:10Z</time>
      </trkpt>
      <trkpt lat="44.08255" lon="6.6155">
        <ele>1734.5999755859</ele>
        <time>2022-08-20T12:24:13Z</time>
      </trkpt>
      <trkpt lat="44.08248" lon="6.61546">
        <ele>1733</ele>
        <time>2022-08-20T12:24:16Z</time>
      </trkpt>
      <trkpt lat="44.08245" lon="6.61544">
        <ele>1731.8000488281</ele>
        <time>2022-08-20T12:24:18Z</time>
      </trkpt>
      <trkpt lat="44.08244" lon="6.61543">
        <ele>1731</ele>
        <time>2022-08-20T12:24:19Z</time>
      </trkpt>
      <trkpt lat="44.08243" lon="6.61543">
        <ele>1730.4000244141</ele>
        <time>2022-08-20T12:24:20Z</time>
      </trkpt>
      <trkpt lat="44.08238" lon="6.61541">
        <ele>1729.4000244141</ele>
        <time>2022-08-20T12:24:22Z</time>
      </trkpt>
      <trkpt lat="44.08233" lon="6.61541">
        <ele>1728.4000244141</ele>
        <time>2022-08-20T12:24:24Z</time>
      </trkpt>
      <trkpt lat="44.08227" lon="6.6154">
        <ele>1726.8000488281</ele>
        <time>2022-08-20T12:24:26Z</time>
      </trkpt>
      <trkpt lat="44.08222" lon="6.61539">
        <ele>1725.4000244141</ele>
        <time>2022-08-20T12:24:28Z</time>
      </trkpt>
      <trkpt lat="44.08216" lon="6.61538">
        <ele>1724.1999511719</ele>
        <time>2022-08-20T12:24:30Z</time>
      </trkpt>
      <trkpt lat="44.08212" lon="6.61538">
        <ele>1723.5999755859</ele>
        <time>2022-08-20T12:24:31Z</time>
      </trkpt>
      <trkpt lat="44.08209" lon="6.61538">
        <ele>1723.1999511719</ele>
        <time>2022-08-20T12:24:32Z</time>
      </trkpt>
      <trkpt lat="44.08201" lon="6.61539">
        <ele>1722</ele>
        <time>2022-08-20T12:24:34Z</time>
      </trkpt>
      <trkpt lat="44.08194" lon="6.61539">
        <ele>1720.4000244141</ele>
        <time>2022-08-20T12:24:36Z</time>
      </trkpt>
      <trkpt lat="44.08187" lon="6.61539">
        <ele>1718.8000488281</ele>
        <time>2022-08-20T12:24:38Z</time>
      </trkpt>
      <trkpt lat="44.08177" lon="6.61539">
        <ele>1717.1999511719</ele>
        <time>2022-08-20T12:24:40Z</time>
      </trkpt>
      <trkpt lat="44.0817" lon="6.61538">
        <ele>1715.4000244141</ele>
        <time>2022-08-20T12:24:42Z</time>
      </trkpt>
      <trkpt lat="44.08164" lon="6.61539">
        <ele>1714</ele>
        <time>2022-08-20T12:24:44Z</time>
      </trkpt>
      <trkpt lat="44.08161" lon="6.61539">
        <ele>1713.4000244141</ele>
        <time>2022-08-20T12:24:45Z</time>
      </trkpt>
      <trkpt lat="44.08158" lon="6.61539">
        <ele>1712.5999755859</ele>
        <time>2022-08-20T12:24:46Z</time>
      </trkpt>
      <trkpt lat="44.08152" lon="6.6154">
        <ele>1711.1999511719</ele>
        <time>2022-08-20T12:24:48Z</time>
      </trkpt>
      <trkpt lat="44.08147" lon="6.61542">
        <ele>1710.1999511719</ele>
        <time>2022-08-20T12:24:50Z</time>
      </trkpt>
      <trkpt lat="44.08144" lon="6.61542">
        <ele>1709.8000488281</ele>
        <time>2022-08-20T12:24:51Z</time>
      </trkpt>
      <trkpt lat="44.08138" lon="6.61542">
        <ele>1709.1999511719</ele>
        <time>2022-08-20T12:24:53Z</time>
      </trkpt>
      <trkpt lat="44.08132" lon="6.61542">
        <ele>1708</ele>
        <time>2022-08-20T12:24:55Z</time>
      </trkpt>
      <trkpt lat="44.08127" lon="6.61543">
        <ele>1706.8000488281</ele>
        <time>2022-08-20T12:24:57Z</time>
      </trkpt>
      <trkpt lat="44.08124" lon="6.61543">
        <ele>1706.5999755859</ele>
        <time>2022-08-20T12:24:58Z</time>
      </trkpt>
      <trkpt lat="44.08119" lon="6.61542">
        <ele>1705.8000488281</ele>
        <time>2022-08-20T12:25:00Z</time>
      </trkpt>
      <trkpt lat="44.08109" lon="6.61541">
        <ele>1704.4000244141</ele>
        <time>2022-08-20T12:25:03Z</time>
      </trkpt>
      <trkpt lat="44.08098" lon="6.61539">
        <ele>1703</ele>
        <time>2022-08-20T12:25:06Z</time>
      </trkpt>
      <trkpt lat="44.08092" lon="6.61537">
        <ele>1701.5999755859</ele>
        <time>2022-08-20T12:25:08Z</time>
      </trkpt>
      <trkpt lat="44.08087" lon="6.61538">
        <ele>1700.4000244141</ele>
        <time>2022-08-20T12:25:10Z</time>
      </trkpt>
      <trkpt lat="44.08081" lon="6.61538">
        <ele>1699.5999755859</ele>
        <time>2022-08-20T12:25:12Z</time>
      </trkpt>
      <trkpt lat="44.08079" lon="6.61538">
        <ele>1699.1999511719</ele>
        <time>2022-08-20T12:25:13Z</time>
      </trkpt>
      <trkpt lat="44.08071" lon="6.61539">
        <ele>1698</ele>
        <time>2022-08-20T12:25:16Z</time>
      </trkpt>
      <trkpt lat="44.08069" lon="6.61541">
        <ele>1697.8000488281</ele>
        <time>2022-08-20T12:25:17Z</time>
      </trkpt>
      <trkpt lat="44.08068" lon="6.61542">
        <ele>1697.1999511719</ele>
        <time>2022-08-20T12:25:18Z</time>
      </trkpt>
      <trkpt lat="44.08067" lon="6.61542">
        <ele>1697</ele>
        <time>2022-08-20T12:25:19Z</time>
      </trkpt>
      <trkpt lat="44.08066" lon="6.61543">
        <ele>1696.8000488281</ele>
        <time>2022-08-20T12:25:20Z</time>
      </trkpt>
      <trkpt lat="44.08059" lon="6.61544">
        <ele>1696</ele>
        <time>2022-08-20T12:25:23Z</time>
      </trkpt>
      <trkpt lat="44.08046" lon="6.61542">
        <ele>1694.5999755859</ele>
        <time>2022-08-20T12:25:27Z</time>
      </trkpt>
      <trkpt lat="44.08033" lon="6.61542">
        <ele>1693.1999511719</ele>
        <time>2022-08-20T12:25:30Z</time>
      </trkpt>
      <trkpt lat="44.08028" lon="6.61542">
        <ele>1692.5999755859</ele>
        <time>2022-08-20T12:25:31Z</time>
      </trkpt>
      <trkpt lat="44.08025" lon="6.61542">
        <ele>1692</ele>
        <time>2022-08-20T12:25:32Z</time>
      </trkpt>
      <trkpt lat="44.08016" lon="6.61542">
        <ele>1690.8000488281</ele>
        <time>2022-08-20T12:25:34Z</time>
      </trkpt>
      <trkpt lat="44.08008" lon="6.61543">
        <ele>1690</ele>
        <time>2022-08-20T12:25:36Z</time>
      </trkpt>
      <trkpt lat="44.08004" lon="6.61544">
        <ele>1689.5999755859</ele>
        <time>2022-08-20T12:25:37Z</time>
      </trkpt>
      <trkpt lat="44.07988" lon="6.61545">
        <ele>1688.5999755859</ele>
        <time>2022-08-20T12:25:41Z</time>
      </trkpt>
      <trkpt lat="44.07983" lon="6.61546">
        <ele>1688.4000244141</ele>
        <time>2022-08-20T12:25:42Z</time>
      </trkpt>
      <trkpt lat="44.07972" lon="6.61546">
        <ele>1687.4000244141</ele>
        <time>2022-08-20T12:25:45Z</time>
      </trkpt>
      <trkpt lat="44.0797" lon="6.61545">
        <ele>1687</ele>
        <time>2022-08-20T12:25:46Z</time>
      </trkpt>
      <trkpt lat="44.07959" lon="6.61545">
        <ele>1686.4000244141</ele>
        <time>2022-08-20T12:25:49Z</time>
      </trkpt>
      <trkpt lat="44.07953" lon="6.61546">
        <ele>1686</ele>
        <time>2022-08-20T12:25:51Z</time>
      </trkpt>
      <trkpt lat="44.0795" lon="6.61546">
        <ele>1685.5999755859</ele>
        <time>2022-08-20T12:25:52Z</time>
      </trkpt>
      <trkpt lat="44.07939" lon="6.61548">
        <ele>1684.5999755859</ele>
        <time>2022-08-20T12:25:56Z</time>
      </trkpt>
      <trkpt lat="44.07932" lon="6.6155">
        <ele>1684</ele>
        <time>2022-08-20T12:25:58Z</time>
      </trkpt>
      <trkpt lat="44.07926" lon="6.61551">
        <ele>1683.5999755859</ele>
        <time>2022-08-20T12:26:00Z</time>
      </trkpt>
      <trkpt lat="44.07915" lon="6.61553">
        <ele>1682.4000244141</ele>
        <time>2022-08-20T12:26:04Z</time>
      </trkpt>
      <trkpt lat="44.07911" lon="6.61554">
        <ele>1682.1999511719</ele>
        <time>2022-08-20T12:26:05Z</time>
      </trkpt>
      <trkpt lat="44.079" lon="6.61554">
        <ele>1681.1999511719</ele>
        <time>2022-08-20T12:26:08Z</time>
      </trkpt>
      <trkpt lat="44.0789" lon="6.61556">
        <ele>1680.1999511719</ele>
        <time>2022-08-20T12:26:11Z</time>
      </trkpt>
      <trkpt lat="44.07887" lon="6.61557">
        <ele>1680</ele>
        <time>2022-08-20T12:26:12Z</time>
      </trkpt>
      <trkpt lat="44.07876" lon="6.61556">
        <ele>1679</ele>
        <time>2022-08-20T12:26:17Z</time>
      </trkpt>
      <trkpt lat="44.07875" lon="6.61555">
        <ele>1678.8000488281</ele>
        <time>2022-08-20T12:26:18Z</time>
      </trkpt>
      <trkpt lat="44.07871" lon="6.61554">
        <ele>1678.4000244141</ele>
        <time>2022-08-20T12:26:20Z</time>
      </trkpt>
      <trkpt lat="44.07868" lon="6.61553">
        <ele>1678.1999511719</ele>
        <time>2022-08-20T12:26:21Z</time>
      </trkpt>
      <trkpt lat="44.07866" lon="6.61553">
        <ele>1677.8000488281</ele>
        <time>2022-08-20T12:26:22Z</time>
      </trkpt>
      <trkpt lat="44.07859" lon="6.61551">
        <ele>1676.8000488281</ele>
        <time>2022-08-20T12:26:25Z</time>
      </trkpt>
      <trkpt lat="44.07852" lon="6.61549">
        <ele>1675.8000488281</ele>
        <time>2022-08-20T12:26:28Z</time>
      </trkpt>
      <trkpt lat="44.07851" lon="6.61549">
        <ele>1675.5999755859</ele>
        <time>2022-08-20T12:26:29Z</time>
      </trkpt>
      <trkpt lat="44.07844" lon="6.61549">
        <ele>1674.5999755859</ele>
        <time>2022-08-20T12:26:32Z</time>
      </trkpt>
      <trkpt lat="44.07835" lon="6.61545">
        <ele>1673.4000244141</ele>
        <time>2022-08-20T12:26:37Z</time>
      </trkpt>
      <trkpt lat="44.07823" lon="6.61543">
        <ele>1672.1999511719</ele>
        <time>2022-08-20T12:26:41Z</time>
      </trkpt>
      <trkpt lat="44.07815" lon="6.61545">
        <ele>1670.8000488281</ele>
        <time>2022-08-20T12:26:43Z</time>
      </trkpt>
      <trkpt lat="44.07811" lon="6.61546">
        <ele>1670.1999511719</ele>
        <time>2022-08-20T12:26:44Z</time>
      </trkpt>
      <trkpt lat="44.07808" lon="6.61547">
        <ele>1669.5999755859</ele>
        <time>2022-08-20T12:26:45Z</time>
      </trkpt>
      <trkpt lat="44.07799" lon="6.61548">
        <ele>1668.5999755859</ele>
        <time>2022-08-20T12:26:49Z</time>
      </trkpt>
      <trkpt lat="44.07797" lon="6.61549">
        <ele>1668.4000244141</ele>
        <time>2022-08-20T12:26:50Z</time>
      </trkpt>
      <trkpt lat="44.07791" lon="6.6155">
        <ele>1667.4000244141</ele>
        <time>2022-08-20T12:26:53Z</time>
      </trkpt>
      <trkpt lat="44.07784" lon="6.61551">
        <ele>1666.4000244141</ele>
        <time>2022-08-20T12:26:56Z</time>
      </trkpt>
      <trkpt lat="44.07775" lon="6.61552">
        <ele>1665</ele>
        <time>2022-08-20T12:27:00Z</time>
      </trkpt>
      <trkpt lat="44.07773" lon="6.61551">
        <ele>1664.8000488281</ele>
        <time>2022-08-20T12:27:01Z</time>
      </trkpt>
      <trkpt lat="44.07771" lon="6.61551">
        <ele>1664.5999755859</ele>
        <time>2022-08-20T12:27:02Z</time>
      </trkpt>
      <trkpt lat="44.07766" lon="6.61551">
        <ele>1663.8000488281</ele>
        <time>2022-08-20T12:27:04Z</time>
      </trkpt>
      <trkpt lat="44.07762" lon="6.61551">
        <ele>1662.5999755859</ele>
        <time>2022-08-20T12:27:06Z</time>
      </trkpt>
      <trkpt lat="44.07755" lon="6.6155">
        <ele>1661.1999511719</ele>
        <time>2022-08-20T12:27:09Z</time>
      </trkpt>
      <trkpt lat="44.07749" lon="6.6155">
        <ele>1660</ele>
        <time>2022-08-20T12:27:12Z</time>
      </trkpt>
      <trkpt lat="44.07743" lon="6.61551">
        <ele>1659</ele>
        <time>2022-08-20T12:27:14Z</time>
      </trkpt>
      <trkpt lat="44.07735" lon="6.61551">
        <ele>1657.5999755859</ele>
        <time>2022-08-20T12:27:17Z</time>
      </trkpt>
      <trkpt lat="44.07729" lon="6.61554">
        <ele>1656.4000244141</ele>
        <time>2022-08-20T12:27:20Z</time>
      </trkpt>
      <trkpt lat="44.07725" lon="6.61559">
        <ele>1656</ele>
        <time>2022-08-20T12:27:22Z</time>
      </trkpt>
      <trkpt lat="44.07711" lon="6.61571">
        <ele>1655.4000244141</ele>
        <time>2022-08-20T12:27:28Z</time>
      </trkpt>
      <trkpt lat="44.07708" lon="6.61572">
        <ele>1655.1999511719</ele>
        <time>2022-08-20T12:27:29Z</time>
      </trkpt>
      <trkpt lat="44.077" lon="6.61577">
        <ele>1654.1999511719</ele>
        <time>2022-08-20T12:27:32Z</time>
      </trkpt>
      <trkpt lat="44.0769" lon="6.61586">
        <ele>1653.1999511719</ele>
        <time>2022-08-20T12:27:36Z</time>
      </trkpt>
      <trkpt lat="44.07685" lon="6.61588">
        <ele>1652.4000244141</ele>
        <time>2022-08-20T12:27:39Z</time>
      </trkpt>
      <trkpt lat="44.07681" lon="6.6159">
        <ele>1652</ele>
        <time>2022-08-20T12:27:41Z</time>
      </trkpt>
      <trkpt lat="44.07677" lon="6.61592">
        <ele>1651.4000244141</ele>
        <time>2022-08-20T12:27:43Z</time>
      </trkpt>
      <trkpt lat="44.07675" lon="6.61592">
        <ele>1651</ele>
        <time>2022-08-20T12:27:44Z</time>
      </trkpt>
      <trkpt lat="44.07666" lon="6.61596">
        <ele>1650</ele>
        <time>2022-08-20T12:27:48Z</time>
      </trkpt>
      <trkpt lat="44.07663" lon="6.61596">
        <ele>1649.4000244141</ele>
        <time>2022-08-20T12:27:49Z</time>
      </trkpt>
      <trkpt lat="44.07658" lon="6.61598">
        <ele>1648.5999755859</ele>
        <time>2022-08-20T12:27:51Z</time>
      </trkpt>
      <trkpt lat="44.07651" lon="6.61597">
        <ele>1647.4000244141</ele>
        <time>2022-08-20T12:27:55Z</time>
      </trkpt>
      <trkpt lat="44.07649" lon="6.61598">
        <ele>1646.8000488281</ele>
        <time>2022-08-20T12:27:57Z</time>
      </trkpt>
      <trkpt lat="44.07648" lon="6.61597">
        <ele>1646.4000244141</ele>
        <time>2022-08-20T12:27:58Z</time>
      </trkpt>
      <trkpt lat="44.07648" lon="6.61597">
        <ele>1646.1999511719</ele>
        <time>2022-08-20T12:27:59Z</time>
      </trkpt>
      <trkpt lat="44.07645" lon="6.61597">
        <ele>1645.8000488281</ele>
        <time>2022-08-20T12:28:03Z</time>
      </trkpt>
      <trkpt lat="44.07643" lon="6.61596">
        <ele>1645.8000488281</ele>
        <time>2022-08-20T12:28:04Z</time>
      </trkpt>
      <trkpt lat="44.07641" lon="6.61596">
        <ele>1645.4000244141</ele>
        <time>2022-08-20T12:28:06Z</time>
      </trkpt>
      <trkpt lat="44.07636" lon="6.61595">
        <ele>1644.1999511719</ele>
        <time>2022-08-20T12:28:09Z</time>
      </trkpt>
      <trkpt lat="44.07632" lon="6.61595">
        <ele>1643</ele>
        <time>2022-08-20T12:28:13Z</time>
      </trkpt>
      <trkpt lat="44.07626" lon="6.61596">
        <ele>1642.1999511719</ele>
        <time>2022-08-20T12:28:16Z</time>
      </trkpt>
      <trkpt lat="44.07625" lon="6.61596">
        <ele>1641.5999755859</ele>
        <time>2022-08-20T12:28:17Z</time>
      </trkpt>
      <trkpt lat="44.07621" lon="6.61598">
        <ele>1640.4000244141</ele>
        <time>2022-08-20T12:28:20Z</time>
      </trkpt>
      <trkpt lat="44.07617" lon="6.616">
        <ele>1639.5999755859</ele>
        <time>2022-08-20T12:28:23Z</time>
      </trkpt>
      <trkpt lat="44.07616" lon="6.616">
        <ele>1639.4000244141</ele>
        <time>2022-08-20T12:28:24Z</time>
      </trkpt>
      <trkpt lat="44.07612" lon="6.61601">
        <ele>1638.8000488281</ele>
        <time>2022-08-20T12:28:26Z</time>
      </trkpt>
      <trkpt lat="44.07608" lon="6.616">
        <ele>1638</ele>
        <time>2022-08-20T12:28:28Z</time>
      </trkpt>
      <trkpt lat="44.07604" lon="6.61601">
        <ele>1637.4000244141</ele>
        <time>2022-08-20T12:28:31Z</time>
      </trkpt>
      <trkpt lat="44.07601" lon="6.61601">
        <ele>1637</ele>
        <time>2022-08-20T12:28:34Z</time>
      </trkpt>
      <trkpt lat="44.07599" lon="6.61601">
        <ele>1636.5999755859</ele>
        <time>2022-08-20T12:28:37Z</time>
      </trkpt>
      <trkpt lat="44.07596" lon="6.61601">
        <ele>1636</ele>
        <time>2022-08-20T12:28:40Z</time>
      </trkpt>
      <trkpt lat="44.07595" lon="6.61601">
        <ele>1636</ele>
        <time>2022-08-20T12:28:41Z</time>
      </trkpt>
      <trkpt lat="44.07588" lon="6.61601">
        <ele>1635</ele>
        <time>2022-08-20T12:28:47Z</time>
      </trkpt>
      <trkpt lat="44.07587" lon="6.61602">
        <ele>1634.1999511719</ele>
        <time>2022-08-20T12:28:53Z</time>
      </trkpt>
      <trkpt lat="44.07585" lon="6.61605">
        <ele>1634</ele>
        <time>2022-08-20T12:28:57Z</time>
      </trkpt>
      <trkpt lat="44.07584" lon="6.61607">
        <ele>1633.8000488281</ele>
        <time>2022-08-20T12:28:59Z</time>
      </trkpt>
      <trkpt lat="44.07577" lon="6.6161">
        <ele>1633.1999511719</ele>
        <time>2022-08-20T12:29:04Z</time>
      </trkpt>
      <trkpt lat="44.07574" lon="6.61612">
        <ele>1632.8000488281</ele>
        <time>2022-08-20T12:29:06Z</time>
      </trkpt>
      <trkpt lat="44.07565" lon="6.61619">
        <ele>1631.5999755859</ele>
        <time>2022-08-20T12:29:10Z</time>
      </trkpt>
      <trkpt lat="44.07563" lon="6.61621">
        <ele>1631.1999511719</ele>
        <time>2022-08-20T12:29:11Z</time>
      </trkpt>
      <trkpt lat="44.07561" lon="6.61622">
        <ele>1630.5999755859</ele>
        <time>2022-08-20T12:29:13Z</time>
      </trkpt>
      <trkpt lat="44.0756" lon="6.61622">
        <ele>1630.5999755859</ele>
        <time>2022-08-20T12:29:14Z</time>
      </trkpt>
      <trkpt lat="44.0756" lon="6.61623">
        <ele>1630.4000244141</ele>
        <time>2022-08-20T12:29:15Z</time>
      </trkpt>
      <trkpt lat="44.0756" lon="6.61623">
        <ele>1630.4000244141</ele>
        <time>2022-08-20T12:29:16Z</time>
      </trkpt>
      <trkpt lat="44.0756" lon="6.61623">
        <ele>1630.4000244141</ele>
        <time>2022-08-20T12:29:19Z</time>
      </trkpt>
      <trkpt lat="44.0756" lon="6.61623">
        <ele>1630.4000244141</ele>
        <time>2022-08-20T12:29:21Z</time>
      </trkpt>
      <trkpt lat="44.0756" lon="6.61623">
        <ele>1630.4000244141</ele>
        <time>2022-08-20T12:29:23Z</time>
      </trkpt>
      <trkpt lat="44.0756" lon="6.61623">
        <ele>1630.4000244141</ele>
        <time>2022-08-20T12:29:28Z</time>
      </trkpt>
      <trkpt lat="44.0756" lon="6.61623">
        <ele>1630.1999511719</ele>
        <time>2022-08-20T12:29:34Z</time>
      </trkpt>
      <trkpt lat="44.0756" lon="6.61623">
        <ele>1630</ele>
        <time>2022-08-20T12:29:45Z</time>
      </trkpt>
      <trkpt lat="44.0756" lon="6.61623">
        <ele>1629.5999755859</ele>
        <time>2022-08-20T12:29:51Z</time>
      </trkpt>
      <trkpt lat="44.0756" lon="6.61623">
        <ele>1629.4000244141</ele>
        <time>2022-08-20T12:29:54Z</time>
      </trkpt>
      <trkpt lat="44.0756" lon="6.61623">
        <ele>1629.4000244141</ele>
        <time>2022-08-20T12:29:57Z</time>
      </trkpt>
      <trkpt lat="44.07559" lon="6.61623">
        <ele>1629.4000244141</ele>
        <time>2022-08-20T12:29:58Z</time>
      </trkpt>
      <trkpt lat="44.07559" lon="6.61623">
        <ele>1629.1999511719</ele>
        <time>2022-08-20T12:30:07Z</time>
      </trkpt>
      <trkpt lat="44.07559" lon="6.61623">
        <ele>1629.1999511719</ele>
        <time>2022-08-20T12:30:09Z</time>
      </trkpt>
      <trkpt lat="44.07559" lon="6.61623">
        <ele>1629.1999511719</ele>
        <time>2022-08-20T12:30:10Z</time>
      </trkpt>
      <trkpt lat="44.07549" lon="6.61621">
        <ele>1629.1999511719</ele>
        <time>2022-08-20T12:30:15Z</time>
      </trkpt>
      <trkpt lat="44.07543" lon="6.61621">
        <ele>1629</ele>
        <time>2022-08-20T12:30:17Z</time>
      </trkpt>
      <trkpt lat="44.07537" lon="6.61621">
        <ele>1628.4000244141</ele>
        <time>2022-08-20T12:30:19Z</time>
      </trkpt>
      <trkpt lat="44.07528" lon="6.61623">
        <ele>1627.4000244141</ele>
        <time>2022-08-20T12:30:21Z</time>
      </trkpt>
      <trkpt lat="44.0752" lon="6.61626">
        <ele>1625.8000488281</ele>
        <time>2022-08-20T12:30:23Z</time>
      </trkpt>
      <trkpt lat="44.07506" lon="6.61629">
        <ele>1624.8000488281</ele>
        <time>2022-08-20T12:30:27Z</time>
      </trkpt>
      <trkpt lat="44.07503" lon="6.6163">
        <ele>1624.4000244141</ele>
        <time>2022-08-20T12:30:28Z</time>
      </trkpt>
      <trkpt lat="44.07492" lon="6.61631">
        <ele>1623.4000244141</ele>
        <time>2022-08-20T12:30:31Z</time>
      </trkpt>
      <trkpt lat="44.07484" lon="6.61632">
        <ele>1622</ele>
        <time>2022-08-20T12:30:34Z</time>
      </trkpt>
      <trkpt lat="44.0748" lon="6.61636">
        <ele>1621.4000244141</ele>
        <time>2022-08-20T12:30:36Z</time>
      </trkpt>
      <trkpt lat="44.07469" lon="6.61635">
        <ele>1620.5999755859</ele>
        <time>2022-08-20T12:30:39Z</time>
      </trkpt>
      <trkpt lat="44.07465" lon="6.61634">
        <ele>1620.1999511719</ele>
        <time>2022-08-20T12:30:40Z</time>
      </trkpt>
      <trkpt lat="44.0746" lon="6.61634">
        <ele>1619.5999755859</ele>
        <time>2022-08-20T12:30:41Z</time>
      </trkpt>
      <trkpt lat="44.07445" lon="6.61629">
        <ele>1618.1999511719</ele>
        <time>2022-08-20T12:30:44Z</time>
      </trkpt>
      <trkpt lat="44.07441" lon="6.61628">
        <ele>1618</ele>
        <time>2022-08-20T12:30:45Z</time>
      </trkpt>
      <trkpt lat="44.07435" lon="6.61627">
        <ele>1617.8000488281</ele>
        <time>2022-08-20T12:30:47Z</time>
      </trkpt>
      <trkpt lat="44.07417" lon="6.61623">
        <ele>1617.1999511719</ele>
        <time>2022-08-20T12:30:52Z</time>
      </trkpt>
      <trkpt lat="44.07399" lon="6.61613">
        <ele>1617.1999511719</ele>
        <time>2022-08-20T12:30:58Z</time>
      </trkpt>
      <trkpt lat="44.0739" lon="6.61612">
        <ele>1616.8000488281</ele>
        <time>2022-08-20T12:31:02Z</time>
      </trkpt>
      <trkpt lat="44.07386" lon="6.61614">
        <ele>1616</ele>
        <time>2022-08-20T12:31:04Z</time>
      </trkpt>
      <trkpt lat="44.07378" lon="6.61615">
        <ele>1615</ele>
        <time>2022-08-20T12:31:07Z</time>
      </trkpt>
      <trkpt lat="44.07376" lon="6.61615">
        <ele>1614.8000488281</ele>
        <time>2022-08-20T12:31:08Z</time>
      </trkpt>
      <trkpt lat="44.07372" lon="6.61616">
        <ele>1614</ele>
        <time>2022-08-20T12:31:11Z</time>
      </trkpt>
      <trkpt lat="44.0737" lon="6.61617">
        <ele>1613.8000488281</ele>
        <time>2022-08-20T12:31:12Z</time>
      </trkpt>
      <trkpt lat="44.07366" lon="6.61619">
        <ele>1613.1999511719</ele>
        <time>2022-08-20T12:31:14Z</time>
      </trkpt>
      <trkpt lat="44.07363" lon="6.61619">
        <ele>1612.5999755859</ele>
        <time>2022-08-20T12:31:15Z</time>
      </trkpt>
      <trkpt lat="44.0735" lon="6.61612">
        <ele>1611.5999755859</ele>
        <time>2022-08-20T12:31:19Z</time>
      </trkpt>
      <trkpt lat="44.07334" lon="6.61601">
        <ele>1610.4000244141</ele>
        <time>2022-08-20T12:31:24Z</time>
      </trkpt>
      <trkpt lat="44.07331" lon="6.61599">
        <ele>1610</ele>
        <time>2022-08-20T12:31:25Z</time>
      </trkpt>
      <trkpt lat="44.07325" lon="6.61596">
        <ele>1609.4000244141</ele>
        <time>2022-08-20T12:31:27Z</time>
      </trkpt>
      <trkpt lat="44.07314" lon="6.61591">
        <ele>1608.1999511719</ele>
        <time>2022-08-20T12:31:31Z</time>
      </trkpt>
      <trkpt lat="44.07304" lon="6.6159">
        <ele>1607</ele>
        <time>2022-08-20T12:31:34Z</time>
      </trkpt>
      <trkpt lat="44.07295" lon="6.61586">
        <ele>1606.4000244141</ele>
        <time>2022-08-20T12:31:37Z</time>
      </trkpt>
      <trkpt lat="44.07284" lon="6.61581">
        <ele>1606</ele>
        <time>2022-08-20T12:31:41Z</time>
      </trkpt>
      <trkpt lat="44.07276" lon="6.61579">
        <ele>1605.8000488281</ele>
        <time>2022-08-20T12:31:43Z</time>
      </trkpt>
      <trkpt lat="44.07266" lon="6.61577">
        <ele>1605.1999511719</ele>
        <time>2022-08-20T12:31:45Z</time>
      </trkpt>
      <trkpt lat="44.07262" lon="6.61577">
        <ele>1605</ele>
        <time>2022-08-20T12:31:46Z</time>
      </trkpt>
      <trkpt lat="44.07253" lon="6.61577">
        <ele>1604.4000244141</ele>
        <time>2022-08-20T12:31:48Z</time>
      </trkpt>
      <trkpt lat="44.07245" lon="6.61578">
        <ele>1603.5999755859</ele>
        <time>2022-08-20T12:31:50Z</time>
      </trkpt>
      <trkpt lat="44.07227" lon="6.61577">
        <ele>1602.5999755859</ele>
        <time>2022-08-20T12:31:55Z</time>
      </trkpt>
      <trkpt lat="44.07218" lon="6.61574">
        <ele>1602.5999755859</ele>
        <time>2022-08-20T12:31:57Z</time>
      </trkpt>
      <trkpt lat="44.07202" lon="6.61569">
        <ele>1602.4000244141</ele>
        <time>2022-08-20T12:32:02Z</time>
      </trkpt>
      <trkpt lat="44.07192" lon="6.61565">
        <ele>1601.5999755859</ele>
        <time>2022-08-20T12:32:06Z</time>
      </trkpt>
      <trkpt lat="44.07188" lon="6.61563">
        <ele>1601</ele>
        <time>2022-08-20T12:32:08Z</time>
      </trkpt>
      <trkpt lat="44.0718" lon="6.61559">
        <ele>1600.5999755859</ele>
        <time>2022-08-20T12:32:14Z</time>
      </trkpt>
      <trkpt lat="44.07178" lon="6.61558">
        <ele>1600.4000244141</ele>
        <time>2022-08-20T12:32:15Z</time>
      </trkpt>
      <trkpt lat="44.07173" lon="6.61555">
        <ele>1599.8000488281</ele>
        <time>2022-08-20T12:32:18Z</time>
      </trkpt>
      <trkpt lat="44.07168" lon="6.61554">
        <ele>1599.4000244141</ele>
        <time>2022-08-20T12:32:21Z</time>
      </trkpt>
      <trkpt lat="44.07164" lon="6.61553">
        <ele>1599</ele>
        <time>2022-08-20T12:32:23Z</time>
      </trkpt>
      <trkpt lat="44.07163" lon="6.61553">
        <ele>1599</ele>
        <time>2022-08-20T12:32:24Z</time>
      </trkpt>
      <trkpt lat="44.07162" lon="6.61553">
        <ele>1598.8000488281</ele>
        <time>2022-08-20T12:32:27Z</time>
      </trkpt>
      <trkpt lat="44.07161" lon="6.61554">
        <ele>1598.8000488281</ele>
        <time>2022-08-20T12:32:31Z</time>
      </trkpt>
      <trkpt lat="44.07161" lon="6.61554">
        <ele>1598.5999755859</ele>
        <time>2022-08-20T12:32:33Z</time>
      </trkpt>
      <trkpt lat="44.0716" lon="6.61553">
        <ele>1598.1999511719</ele>
        <time>2022-08-20T12:32:36Z</time>
      </trkpt>
      <trkpt lat="44.07158" lon="6.61552">
        <ele>1597.4000244141</ele>
        <time>2022-08-20T12:32:42Z</time>
      </trkpt>
      <trkpt lat="44.07156" lon="6.61552">
        <ele>1597.1999511719</ele>
        <time>2022-08-20T12:32:45Z</time>
      </trkpt>
      <trkpt lat="44.07155" lon="6.6155">
        <ele>1597.1999511719</ele>
        <time>2022-08-20T12:32:47Z</time>
      </trkpt>
      <trkpt lat="44.07153" lon="6.61549">
        <ele>1597.1999511719</ele>
        <time>2022-08-20T12:32:49Z</time>
      </trkpt>
      <trkpt lat="44.07151" lon="6.61547">
        <ele>1596.8000488281</ele>
        <time>2022-08-20T12:32:51Z</time>
      </trkpt>
      <trkpt lat="44.07147" lon="6.61544">
        <ele>1596</ele>
        <time>2022-08-20T12:32:54Z</time>
      </trkpt>
      <trkpt lat="44.07146" lon="6.61543">
        <ele>1596</ele>
        <time>2022-08-20T12:32:55Z</time>
      </trkpt>
      <trkpt lat="44.07144" lon="6.61542">
        <ele>1595.8000488281</ele>
        <time>2022-08-20T12:32:56Z</time>
      </trkpt>
      <trkpt lat="44.07141" lon="6.61537">
        <ele>1594.8000488281</ele>
        <time>2022-08-20T12:33:00Z</time>
      </trkpt>
      <trkpt lat="44.07139" lon="6.61536">
        <ele>1594.1999511719</ele>
        <time>2022-08-20T12:33:02Z</time>
      </trkpt>
      <trkpt lat="44.07139" lon="6.61534">
        <ele>1593.8000488281</ele>
        <time>2022-08-20T12:33:04Z</time>
      </trkpt>
      <trkpt lat="44.07138" lon="6.61533">
        <ele>1593</ele>
        <time>2022-08-20T12:33:08Z</time>
      </trkpt>
      <trkpt lat="44.07137" lon="6.61532">
        <ele>1592.8000488281</ele>
        <time>2022-08-20T12:33:10Z</time>
      </trkpt>
      <trkpt lat="44.07137" lon="6.61531">
        <ele>1592.5999755859</ele>
        <time>2022-08-20T12:33:11Z</time>
      </trkpt>
      <trkpt lat="44.07137" lon="6.61528">
        <ele>1591.4000244141</ele>
        <time>2022-08-20T12:33:16Z</time>
      </trkpt>
      <trkpt lat="44.07137" lon="6.61527">
        <ele>1590.8000488281</ele>
        <time>2022-08-20T12:33:18Z</time>
      </trkpt>
      <trkpt lat="44.07137" lon="6.61526">
        <ele>1590.4000244141</ele>
        <time>2022-08-20T12:33:20Z</time>
      </trkpt>
      <trkpt lat="44.07133" lon="6.61516">
        <ele>1590</ele>
        <time>2022-08-20T12:33:24Z</time>
      </trkpt>
      <trkpt lat="44.07125" lon="6.61501">
        <ele>1589.4000244141</ele>
        <time>2022-08-20T12:33:29Z</time>
      </trkpt>
      <trkpt lat="44.07123" lon="6.61499">
        <ele>1589.4000244141</ele>
        <time>2022-08-20T12:33:30Z</time>
      </trkpt>
      <trkpt lat="44.07119" lon="6.61493">
        <ele>1589.4000244141</ele>
        <time>2022-08-20T12:33:32Z</time>
      </trkpt>
      <trkpt lat="44.07117" lon="6.61486">
        <ele>1589.4000244141</ele>
        <time>2022-08-20T12:33:34Z</time>
      </trkpt>
      <trkpt lat="44.07115" lon="6.61482">
        <ele>1589.1999511719</ele>
        <time>2022-08-20T12:33:35Z</time>
      </trkpt>
      <trkpt lat="44.07107" lon="6.61472">
        <ele>1588.1999511719</ele>
        <time>2022-08-20T12:33:39Z</time>
      </trkpt>
      <trkpt lat="44.07103" lon="6.61468">
        <ele>1587.5999755859</ele>
        <time>2022-08-20T12:33:41Z</time>
      </trkpt>
      <trkpt lat="44.07096" lon="6.61463">
        <ele>1587</ele>
        <time>2022-08-20T12:33:44Z</time>
      </trkpt>
      <trkpt lat="44.07088" lon="6.6146">
        <ele>1586.4000244141</ele>
        <time>2022-08-20T12:33:48Z</time>
      </trkpt>
      <trkpt lat="44.07082" lon="6.61458">
        <ele>1586</ele>
        <time>2022-08-20T12:33:51Z</time>
      </trkpt>
      <trkpt lat="44.07077" lon="6.61458">
        <ele>1585.8000488281</ele>
        <time>2022-08-20T12:33:54Z</time>
      </trkpt>
      <trkpt lat="44.07072" lon="6.61456">
        <ele>1585.5999755859</ele>
        <time>2022-08-20T12:33:58Z</time>
      </trkpt>
      <trkpt lat="44.07068" lon="6.61453">
        <ele>1585.5999755859</ele>
        <time>2022-08-20T12:34:00Z</time>
      </trkpt>
      <trkpt lat="44.07064" lon="6.61452">
        <ele>1585.1999511719</ele>
        <time>2022-08-20T12:34:02Z</time>
      </trkpt>
      <trkpt lat="44.07063" lon="6.61452">
        <ele>1585</ele>
        <time>2022-08-20T12:34:04Z</time>
      </trkpt>
      <trkpt lat="44.07062" lon="6.61452">
        <ele>1584.8000488281</ele>
        <time>2022-08-20T12:34:05Z</time>
      </trkpt>
      <trkpt lat="44.07059" lon="6.61451">
        <ele>1584.4000244141</ele>
        <time>2022-08-20T12:34:09Z</time>
      </trkpt>
      <trkpt lat="44.07057" lon="6.61448">
        <ele>1584.1999511719</ele>
        <time>2022-08-20T12:34:13Z</time>
      </trkpt>
      <trkpt lat="44.07055" lon="6.61446">
        <ele>1584</ele>
        <time>2022-08-20T12:34:15Z</time>
      </trkpt>
      <trkpt lat="44.07051" lon="6.61444">
        <ele>1582.8000488281</ele>
        <time>2022-08-20T12:34:20Z</time>
      </trkpt>
      <trkpt lat="44.07049" lon="6.61444">
        <ele>1582.1999511719</ele>
        <time>2022-08-20T12:34:22Z</time>
      </trkpt>
      <trkpt lat="44.0704" lon="6.61444">
        <ele>1581.4000244141</ele>
        <time>2022-08-20T12:34:25Z</time>
      </trkpt>
      <trkpt lat="44.07035" lon="6.61445">
        <ele>1580.1999511719</ele>
        <time>2022-08-20T12:34:28Z</time>
      </trkpt>
      <trkpt lat="44.07032" lon="6.61445">
        <ele>1580</ele>
        <time>2022-08-20T12:34:30Z</time>
      </trkpt>
      <trkpt lat="44.07027" lon="6.61443">
        <ele>1579</ele>
        <time>2022-08-20T12:34:35Z</time>
      </trkpt>
      <trkpt lat="44.07026" lon="6.61443">
        <ele>1578.8000488281</ele>
        <time>2022-08-20T12:34:36Z</time>
      </trkpt>
      <trkpt lat="44.07024" lon="6.61443">
        <ele>1578.5999755859</ele>
        <time>2022-08-20T12:34:37Z</time>
      </trkpt>
      <trkpt lat="44.07021" lon="6.6144">
        <ele>1578</ele>
        <time>2022-08-20T12:34:39Z</time>
      </trkpt>
      <trkpt lat="44.07016" lon="6.61436">
        <ele>1576.8000488281</ele>
        <time>2022-08-20T12:34:43Z</time>
      </trkpt>
      <trkpt lat="44.07011" lon="6.61433">
        <ele>1575.8000488281</ele>
        <time>2022-08-20T12:34:46Z</time>
      </trkpt>
      <trkpt lat="44.07005" lon="6.61429">
        <ele>1574.1999511719</ele>
        <time>2022-08-20T12:34:49Z</time>
      </trkpt>
      <trkpt lat="44.06998" lon="6.61425">
        <ele>1573</ele>
        <time>2022-08-20T12:34:52Z</time>
      </trkpt>
      <trkpt lat="44.06993" lon="6.6142">
        <ele>1571.8000488281</ele>
        <time>2022-08-20T12:34:54Z</time>
      </trkpt>
      <trkpt lat="44.06991" lon="6.61418">
        <ele>1571.1999511719</ele>
        <time>2022-08-20T12:34:55Z</time>
      </trkpt>
      <trkpt lat="44.06989" lon="6.61416">
        <ele>1570.8000488281</ele>
        <time>2022-08-20T12:34:56Z</time>
      </trkpt>
      <trkpt lat="44.06985" lon="6.61414">
        <ele>1569.1999511719</ele>
        <time>2022-08-20T12:34:58Z</time>
      </trkpt>
      <trkpt lat="44.06976" lon="6.61412">
        <ele>1568</ele>
        <time>2022-08-20T12:35:01Z</time>
      </trkpt>
      <trkpt lat="44.06965" lon="6.61411">
        <ele>1566.8000488281</ele>
        <time>2022-08-20T12:35:05Z</time>
      </trkpt>
      <trkpt lat="44.06957" lon="6.61411">
        <ele>1565.5999755859</ele>
        <time>2022-08-20T12:35:08Z</time>
      </trkpt>
      <trkpt lat="44.06952" lon="6.6141">
        <ele>1565</ele>
        <time>2022-08-20T12:35:10Z</time>
      </trkpt>
      <trkpt lat="44.06949" lon="6.61407">
        <ele>1564.5999755859</ele>
        <time>2022-08-20T12:35:12Z</time>
      </trkpt>
      <trkpt lat="44.06946" lon="6.61403">
        <ele>1563.5999755859</ele>
        <time>2022-08-20T12:35:15Z</time>
      </trkpt>
      <trkpt lat="44.06945" lon="6.61401">
        <ele>1563.1999511719</ele>
        <time>2022-08-20T12:35:16Z</time>
      </trkpt>
      <trkpt lat="44.06944" lon="6.614">
        <ele>1562.5999755859</ele>
        <time>2022-08-20T12:35:18Z</time>
      </trkpt>
      <trkpt lat="44.06944" lon="6.61399">
        <ele>1562.4000244141</ele>
        <time>2022-08-20T12:35:19Z</time>
      </trkpt>
      <trkpt lat="44.06944" lon="6.614">
        <ele>1562.4000244141</ele>
        <time>2022-08-20T12:35:20Z</time>
      </trkpt>
      <trkpt lat="44.06943" lon="6.61399">
        <ele>1562.4000244141</ele>
        <time>2022-08-20T12:35:22Z</time>
      </trkpt>
      <trkpt lat="44.06938" lon="6.61394">
        <ele>1562.1999511719</ele>
        <time>2022-08-20T12:35:25Z</time>
      </trkpt>
      <trkpt lat="44.06936" lon="6.61393">
        <ele>1562.1999511719</ele>
        <time>2022-08-20T12:35:26Z</time>
      </trkpt>
      <trkpt lat="44.06927" lon="6.61386">
        <ele>1561</ele>
        <time>2022-08-20T12:35:30Z</time>
      </trkpt>
      <trkpt lat="44.06924" lon="6.61383">
        <ele>1560.1999511719</ele>
        <time>2022-08-20T12:35:32Z</time>
      </trkpt>
      <trkpt lat="44.06922" lon="6.61381">
        <ele>1560</ele>
        <time>2022-08-20T12:35:33Z</time>
      </trkpt>
      <trkpt lat="44.06919" lon="6.61379">
        <ele>1559.1999511719</ele>
        <time>2022-08-20T12:35:35Z</time>
      </trkpt>
      <trkpt lat="44.06918" lon="6.6138">
        <ele>1559</ele>
        <time>2022-08-20T12:35:36Z</time>
      </trkpt>
      <trkpt lat="44.06916" lon="6.61386">
        <ele>1558.4000244141</ele>
        <time>2022-08-20T12:35:40Z</time>
      </trkpt>
      <trkpt lat="44.06914" lon="6.61391">
        <ele>1557.8000488281</ele>
        <time>2022-08-20T12:35:43Z</time>
      </trkpt>
      <trkpt lat="44.06914" lon="6.61392">
        <ele>1557.5999755859</ele>
        <time>2022-08-20T12:35:45Z</time>
      </trkpt>
      <trkpt lat="44.06914" lon="6.61393">
        <ele>1557.4000244141</ele>
        <time>2022-08-20T12:35:46Z</time>
      </trkpt>
      <trkpt lat="44.06914" lon="6.61393">
        <ele>1556.8000488281</ele>
        <time>2022-08-20T12:35:50Z</time>
      </trkpt>
      <trkpt lat="44.06914" lon="6.61393">
        <ele>1556.8000488281</ele>
        <time>2022-08-20T12:35:52Z</time>
      </trkpt>
      <trkpt lat="44.06915" lon="6.61395">
        <ele>1556</ele>
        <time>2022-08-20T12:36:04Z</time>
      </trkpt>
      <trkpt lat="44.06914" lon="6.61401">
        <ele>1555.8000488281</ele>
        <time>2022-08-20T12:36:08Z</time>
      </trkpt>
      <trkpt lat="44.06912" lon="6.61415">
        <ele>1554.5999755859</ele>
        <time>2022-08-20T12:36:11Z</time>
      </trkpt>
      <trkpt lat="44.06912" lon="6.6142">
        <ele>1554.1999511719</ele>
        <time>2022-08-20T12:36:12Z</time>
      </trkpt>
      <trkpt lat="44.0691" lon="6.61436">
        <ele>1553.5999755859</ele>
        <time>2022-08-20T12:36:15Z</time>
      </trkpt>
      <trkpt lat="44.06907" lon="6.61447">
        <ele>1553.1999511719</ele>
        <time>2022-08-20T12:36:17Z</time>
      </trkpt>
      <trkpt lat="44.06902" lon="6.61465">
        <ele>1552.5999755859</ele>
        <time>2022-08-20T12:36:20Z</time>
      </trkpt>
      <trkpt lat="44.069" lon="6.61472">
        <ele>1552.4000244141</ele>
        <time>2022-08-20T12:36:21Z</time>
      </trkpt>
      <trkpt lat="44.06897" lon="6.61485">
        <ele>1552.1999511719</ele>
        <time>2022-08-20T12:36:23Z</time>
      </trkpt>
      <trkpt lat="44.06892" lon="6.61507">
        <ele>1551.5999755859</ele>
        <time>2022-08-20T12:36:26Z</time>
      </trkpt>
      <trkpt lat="44.06891" lon="6.61515">
        <ele>1551.4000244141</ele>
        <time>2022-08-20T12:36:27Z</time>
      </trkpt>
      <trkpt lat="44.06885" lon="6.61547">
        <ele>1550.5999755859</ele>
        <time>2022-08-20T12:36:31Z</time>
      </trkpt>
      <trkpt lat="44.06883" lon="6.61555">
        <ele>1550.4000244141</ele>
        <time>2022-08-20T12:36:32Z</time>
      </trkpt>
      <trkpt lat="44.0688" lon="6.61563">
        <ele>1550.1999511719</ele>
        <time>2022-08-20T12:36:33Z</time>
      </trkpt>
      <trkpt lat="44.06874" lon="6.61576">
        <ele>1549.8000488281</ele>
        <time>2022-08-20T12:36:35Z</time>
      </trkpt>
      <trkpt lat="44.0687" lon="6.61582">
        <ele>1549.8000488281</ele>
        <time>2022-08-20T12:36:36Z</time>
      </trkpt>
      <trkpt lat="44.06859" lon="6.61598">
        <ele>1549.5999755859</ele>
        <time>2022-08-20T12:36:39Z</time>
      </trkpt>
      <trkpt lat="44.06845" lon="6.6162">
        <ele>1549.4000244141</ele>
        <time>2022-08-20T12:36:43Z</time>
      </trkpt>
      <trkpt lat="44.06824" lon="6.61653">
        <ele>1549.5999755859</ele>
        <time>2022-08-20T12:36:50Z</time>
      </trkpt>
      <trkpt lat="44.0681" lon="6.61668">
        <ele>1549.4000244141</ele>
        <time>2022-08-20T12:36:54Z</time>
      </trkpt>
      <trkpt lat="44.06795" lon="6.61684">
        <ele>1548.5999755859</ele>
        <time>2022-08-20T12:36:58Z</time>
      </trkpt>
      <trkpt lat="44.06792" lon="6.61689">
        <ele>1548.1999511719</ele>
        <time>2022-08-20T12:36:59Z</time>
      </trkpt>
      <trkpt lat="44.06784" lon="6.617">
        <ele>1547.5999755859</ele>
        <time>2022-08-20T12:37:01Z</time>
      </trkpt>
      <trkpt lat="44.06775" lon="6.6171">
        <ele>1547.1999511719</ele>
        <time>2022-08-20T12:37:03Z</time>
      </trkpt>
      <trkpt lat="44.06757" lon="6.61725">
        <ele>1547.4000244141</ele>
        <time>2022-08-20T12:37:07Z</time>
      </trkpt>
      <trkpt lat="44.06749" lon="6.61733">
        <ele>1547.8000488281</ele>
        <time>2022-08-20T12:37:10Z</time>
      </trkpt>
      <trkpt lat="44.06744" lon="6.61738">
        <ele>1548</ele>
        <time>2022-08-20T12:37:12Z</time>
      </trkpt>
      <trkpt lat="44.06742" lon="6.6174">
        <ele>1548.1999511719</ele>
        <time>2022-08-20T12:37:13Z</time>
      </trkpt>
      <trkpt lat="44.0674" lon="6.61742">
        <ele>1548.4000244141</ele>
        <time>2022-08-20T12:37:14Z</time>
      </trkpt>
      <trkpt lat="44.06735" lon="6.61749">
        <ele>1548.5999755859</ele>
        <time>2022-08-20T12:37:18Z</time>
      </trkpt>
      <trkpt lat="44.06734" lon="6.6175">
        <ele>1548.8000488281</ele>
        <time>2022-08-20T12:37:19Z</time>
      </trkpt>
      <trkpt lat="44.06731" lon="6.61752">
        <ele>1548.8000488281</ele>
        <time>2022-08-20T12:37:21Z</time>
      </trkpt>
      <trkpt lat="44.06726" lon="6.61754">
        <ele>1548.4000244141</ele>
        <time>2022-08-20T12:37:24Z</time>
      </trkpt>
      <trkpt lat="44.06726" lon="6.6176">
        <ele>1548.1999511719</ele>
        <time>2022-08-20T12:37:27Z</time>
      </trkpt>
      <trkpt lat="44.06727" lon="6.61761">
        <ele>1548.1999511719</ele>
        <time>2022-08-20T12:37:28Z</time>
      </trkpt>
      <trkpt lat="44.06727" lon="6.61763">
        <ele>1548.1999511719</ele>
        <time>2022-08-20T12:37:29Z</time>
      </trkpt>
      <trkpt lat="44.06726" lon="6.61766">
        <ele>1548.1999511719</ele>
        <time>2022-08-20T12:37:31Z</time>
      </trkpt>
      <trkpt lat="44.06724" lon="6.61767">
        <ele>1548.1999511719</ele>
        <time>2022-08-20T12:37:32Z</time>
      </trkpt>
      <trkpt lat="44.06723" lon="6.61769">
        <ele>1548</ele>
        <time>2022-08-20T12:37:33Z</time>
      </trkpt>
      <trkpt lat="44.06723" lon="6.61775">
        <ele>1548</ele>
        <time>2022-08-20T12:37:36Z</time>
      </trkpt>
      <trkpt lat="44.06723" lon="6.61776">
        <ele>1547.8000488281</ele>
        <time>2022-08-20T12:37:37Z</time>
      </trkpt>
      <trkpt lat="44.06724" lon="6.61777">
        <ele>1547.8000488281</ele>
        <time>2022-08-20T12:37:38Z</time>
      </trkpt>
      <trkpt lat="44.06726" lon="6.61779">
        <ele>1547.8000488281</ele>
        <time>2022-08-20T12:37:40Z</time>
      </trkpt>
      <trkpt lat="44.06727" lon="6.6178">
        <ele>1547.8000488281</ele>
        <time>2022-08-20T12:37:42Z</time>
      </trkpt>
      <trkpt lat="44.06728" lon="6.61781">
        <ele>1547.8000488281</ele>
        <time>2022-08-20T12:37:49Z</time>
      </trkpt>
      <trkpt lat="44.06728" lon="6.61781">
        <ele>1547.5999755859</ele>
        <time>2022-08-20T12:38:01Z</time>
      </trkpt>
      <trkpt lat="44.06728" lon="6.61781">
        <ele>1547.8000488281</ele>
        <time>2022-08-20T12:38:06Z</time>
      </trkpt>
      <trkpt lat="44.06728" lon="6.61783">
        <ele>1547.8000488281</ele>
        <time>2022-08-20T12:38:14Z</time>
      </trkpt>
      <trkpt lat="44.06727" lon="6.61783">
        <ele>1548</ele>
        <time>2022-08-20T12:38:21Z</time>
      </trkpt>
      <trkpt lat="44.06725" lon="6.61783">
        <ele>1548.4000244141</ele>
        <time>2022-08-20T12:38:34Z</time>
      </trkpt>
      <trkpt lat="44.06725" lon="6.61783">
        <ele>1548.1999511719</ele>
        <time>2022-08-20T12:38:36Z</time>
      </trkpt>
      <trkpt lat="44.06724" lon="6.61784">
        <ele>1547.8000488281</ele>
        <time>2022-08-20T12:38:41Z</time>
      </trkpt>
      <trkpt lat="44.06724" lon="6.61783">
        <ele>1548</ele>
        <time>2022-08-20T12:38:47Z</time>
      </trkpt>
      <trkpt lat="44.06726" lon="6.61784">
        <ele>1547.8000488281</ele>
        <time>2022-08-20T12:38:52Z</time>
      </trkpt>
      <trkpt lat="44.06725" lon="6.61783">
        <ele>1548.1999511719</ele>
        <time>2022-08-20T12:38:57Z</time>
      </trkpt>
      <trkpt lat="44.06724" lon="6.61783">
        <ele>1548.1999511719</ele>
        <time>2022-08-20T12:39:04Z</time>
      </trkpt>
      <trkpt lat="44.06725" lon="6.61785">
        <ele>1547.8000488281</ele>
        <time>2022-08-20T12:39:08Z</time>
      </trkpt>
      <trkpt lat="44.06726" lon="6.61785">
        <ele>1547.4000244141</ele>
        <time>2022-08-20T12:39:11Z</time>
      </trkpt>
      <trkpt lat="44.06729" lon="6.61786">
        <ele>1547.1999511719</ele>
        <time>2022-08-20T12:39:14Z</time>
      </trkpt>
      <trkpt lat="44.06729" lon="6.61786">
        <ele>1547.1999511719</ele>
        <time>2022-08-20T12:39:15Z</time>
      </trkpt>
      <trkpt lat="44.06729" lon="6.61787">
        <ele>1547.1999511719</ele>
        <time>2022-08-20T12:39:16Z</time>
      </trkpt>
      <trkpt lat="44.06727" lon="6.61784">
        <ele>1546.8000488281</ele>
        <time>2022-08-20T12:39:21Z</time>
      </trkpt>
      <trkpt lat="44.06727" lon="6.61783">
        <ele>1546.8000488281</ele>
        <time>2022-08-20T12:39:22Z</time>
      </trkpt>
      <trkpt lat="44.06726" lon="6.61783">
        <ele>1546.8000488281</ele>
        <time>2022-08-20T12:39:28Z</time>
      </trkpt>
      <trkpt lat="44.06724" lon="6.61784">
        <ele>1546.1999511719</ele>
        <time>2022-08-20T12:39:41Z</time>
      </trkpt>
      <trkpt lat="44.06724" lon="6.61784">
        <ele>1546.1999511719</ele>
        <time>2022-08-20T12:39:46Z</time>
      </trkpt>
      <trkpt lat="44.06724" lon="6.61784">
        <ele>1546</ele>
        <time>2022-08-20T12:39:53Z</time>
      </trkpt>
      <trkpt lat="44.06724" lon="6.61784">
        <ele>1546</ele>
        <time>2022-08-20T12:39:56Z</time>
      </trkpt>
      <trkpt lat="44.06724" lon="6.61784">
        <ele>1545.5999755859</ele>
        <time>2022-08-20T12:40:01Z</time>
      </trkpt>
      <trkpt lat="44.06725" lon="6.61784">
        <ele>1545.5999755859</ele>
        <time>2022-08-20T12:40:10Z</time>
      </trkpt>
      <trkpt lat="44.06725" lon="6.61783">
        <ele>1545.5999755859</ele>
        <time>2022-08-20T12:40:19Z</time>
      </trkpt>
      <trkpt lat="44.06723" lon="6.61781">
        <ele>1545.1999511719</ele>
        <time>2022-08-20T12:40:24Z</time>
      </trkpt>
      <trkpt lat="44.06723" lon="6.6178">
        <ele>1544.5999755859</ele>
        <time>2022-08-20T12:40:27Z</time>
      </trkpt>
      <trkpt lat="44.06723" lon="6.61779">
        <ele>1544.4000244141</ele>
        <time>2022-08-20T12:40:31Z</time>
      </trkpt>
      <trkpt lat="44.06722" lon="6.61779">
        <ele>1544.1999511719</ele>
        <time>2022-08-20T12:40:38Z</time>
      </trkpt>
      <trkpt lat="44.06722" lon="6.6178">
        <ele>1544.1999511719</ele>
        <time>2022-08-20T12:40:40Z</time>
      </trkpt>
      <trkpt lat="44.06722" lon="6.6178">
        <ele>1544.4000244141</ele>
        <time>2022-08-20T12:40:48Z</time>
      </trkpt>
      <trkpt lat="44.06722" lon="6.61781">
        <ele>1544.1999511719</ele>
        <time>2022-08-20T12:40:51Z</time>
      </trkpt>
      <trkpt lat="44.06722" lon="6.6178">
        <ele>1544</ele>
        <time>2022-08-20T12:40:52Z</time>
      </trkpt>
      <trkpt lat="44.06721" lon="6.61777">
        <ele>1543.8000488281</ele>
        <time>2022-08-20T12:40:56Z</time>
      </trkpt>
      <trkpt lat="44.0672" lon="6.61774">
        <ele>1543.8000488281</ele>
        <time>2022-08-20T12:40:58Z</time>
      </trkpt>
      <trkpt lat="44.06719" lon="6.61771">
        <ele>1543.5999755859</ele>
        <time>2022-08-20T12:41:01Z</time>
      </trkpt>
      <trkpt lat="44.06712" lon="6.61764">
        <ele>1543.4000244141</ele>
        <time>2022-08-20T12:41:12Z</time>
      </trkpt>
      <trkpt lat="44.0671" lon="6.61765">
        <ele>1543.4000244141</ele>
        <time>2022-08-20T12:41:17Z</time>
      </trkpt>
      <trkpt lat="44.06708" lon="6.61765">
        <ele>1543.4000244141</ele>
        <time>2022-08-20T12:41:23Z</time>
      </trkpt>
      <trkpt lat="44.06707" lon="6.61765">
        <ele>1543.1999511719</ele>
        <time>2022-08-20T12:41:25Z</time>
      </trkpt>
      <trkpt lat="44.06712" lon="6.61766">
        <ele>1543.1999511719</ele>
        <time>2022-08-20T12:41:32Z</time>
      </trkpt>
      <trkpt lat="44.06716" lon="6.61767">
        <ele>1543.1999511719</ele>
        <time>2022-08-20T12:41:35Z</time>
      </trkpt>
      <trkpt lat="44.06721" lon="6.61768">
        <ele>1543.1999511719</ele>
        <time>2022-08-20T12:41:42Z</time>
      </trkpt>
      <trkpt lat="44.06722" lon="6.61767">
        <ele>1543</ele>
        <time>2022-08-20T12:41:45Z</time>
      </trkpt>
      <trkpt lat="44.06723" lon="6.61767">
        <ele>1543</ele>
        <time>2022-08-20T12:41:50Z</time>
      </trkpt>
      <trkpt lat="44.0673" lon="6.61768">
        <ele>1542.8000488281</ele>
        <time>2022-08-20T12:42:05Z</time>
      </trkpt>
      <trkpt lat="44.06733" lon="6.61766">
        <ele>1542.8000488281</ele>
        <time>2022-08-20T12:42:11Z</time>
      </trkpt>
      <trkpt lat="44.06735" lon="6.61766">
        <ele>1542.8000488281</ele>
        <time>2022-08-20T12:42:18Z</time>
      </trkpt>
      <trkpt lat="44.06736" lon="6.61763">
        <ele>1542.8000488281</ele>
        <time>2022-08-20T12:42:24Z</time>
      </trkpt>
      <trkpt lat="44.06736" lon="6.61763">
        <ele>1542.8000488281</ele>
        <time>2022-08-20T12:42:28Z</time>
      </trkpt>
      <trkpt lat="44.06736" lon="6.61763">
        <ele>1542.8000488281</ele>
        <time>2022-08-20T12:42:30Z</time>
      </trkpt>
      <trkpt lat="44.06735" lon="6.61764">
        <ele>1542.8000488281</ele>
        <time>2022-08-20T12:42:33Z</time>
      </trkpt>
      <trkpt lat="44.06734" lon="6.61763">
        <ele>1542.8000488281</ele>
        <time>2022-08-20T12:42:37Z</time>
      </trkpt>
      <trkpt lat="44.0673" lon="6.61757">
        <ele>1542.8000488281</ele>
        <time>2022-08-20T12:42:40Z</time>
      </trkpt>
      <trkpt lat="44.06728" lon="6.61754">
        <ele>1542.8000488281</ele>
        <time>2022-08-20T12:42:44Z</time>
      </trkpt>
      <trkpt lat="44.06728" lon="6.61755">
        <ele>1542.8000488281</ele>
        <time>2022-08-20T12:42:48Z</time>
      </trkpt>
      <trkpt lat="44.06728" lon="6.61759">
        <ele>1542.8000488281</ele>
        <time>2022-08-20T12:42:50Z</time>
      </trkpt>
      <trkpt lat="44.0673" lon="6.61764">
        <ele>1542.8000488281</ele>
        <time>2022-08-20T12:42:53Z</time>
      </trkpt>
      <trkpt lat="44.0673" lon="6.61764">
        <ele>1542.8000488281</ele>
        <time>2022-08-20T12:42:55Z</time>
      </trkpt>
      <trkpt lat="44.06725" lon="6.6177">
        <ele>1542.8000488281</ele>
        <time>2022-08-20T12:43:03Z</time>
      </trkpt>
      <trkpt lat="44.06723" lon="6.61771">
        <ele>1542.8000488281</ele>
        <time>2022-08-20T12:43:08Z</time>
      </trkpt>
      <trkpt lat="44.06724" lon="6.61771">
        <ele>1542.8000488281</ele>
        <time>2022-08-20T12:43:11Z</time>
      </trkpt>
      <trkpt lat="44.06723" lon="6.61771">
        <ele>1542.8000488281</ele>
        <time>2022-08-20T12:43:13Z</time>
      </trkpt>
      <trkpt lat="44.06724" lon="6.61771">
        <ele>1542.8000488281</ele>
        <time>2022-08-20T12:43:23Z</time>
      </trkpt>
      <trkpt lat="44.06724" lon="6.61771">
        <ele>1542.8000488281</ele>
        <time>2022-08-20T12:43:29Z</time>
      </trkpt>
      <trkpt lat="44.06723" lon="6.61771">
        <ele>1542.8000488281</ele>
        <time>2022-08-20T12:43:33Z</time>
      </trkpt>
      <trkpt lat="44.06721" lon="6.61771">
        <ele>1542.8000488281</ele>
        <time>2022-08-20T12:43:38Z</time>
      </trkpt>
      <trkpt lat="44.0672" lon="6.61772">
        <ele>1542.8000488281</ele>
        <time>2022-08-20T12:43:41Z</time>
      </trkpt>
      <trkpt lat="44.06719" lon="6.61772">
        <ele>1542.8000488281</ele>
        <time>2022-08-20T12:43:46Z</time>
      </trkpt>
      <trkpt lat="44.06717" lon="6.61773">
        <ele>1542.8000488281</ele>
        <time>2022-08-20T12:43:59Z</time>
      </trkpt>
      <trkpt lat="44.06717" lon="6.61773">
        <ele>1542.8000488281</ele>
        <time>2022-08-20T12:44:00Z</time>
      </trkpt>
      <trkpt lat="44.06717" lon="6.61773">
        <ele>1542.8000488281</ele>
        <time>2022-08-20T12:44:02Z</time>
      </trkpt>
      <trkpt lat="44.06717" lon="6.61774">
        <ele>1542.8000488281</ele>
        <time>2022-08-20T12:44:09Z</time>
      </trkpt>
      <trkpt lat="44.06717" lon="6.61774">
        <ele>1542.8000488281</ele>
        <time>2022-08-20T12:44:11Z</time>
      </trkpt>
      <trkpt lat="44.06714" lon="6.6178">
        <ele>1542.8000488281</ele>
        <time>2022-08-20T12:44:20Z</time>
      </trkpt>
      <trkpt lat="44.06714" lon="6.61781">
        <ele>1542.8000488281</ele>
        <time>2022-08-20T12:44:26Z</time>
      </trkpt>
      <trkpt lat="44.06714" lon="6.61781">
        <ele>1542.8000488281</ele>
        <time>2022-08-20T12:44:27Z</time>
      </trkpt>
      <trkpt lat="44.06714" lon="6.61781">
        <ele>1542.8000488281</ele>
        <time>2022-08-20T12:44:28Z</time>
      </trkpt>
      <trkpt lat="44.06715" lon="6.61781">
        <ele>1542.8000488281</ele>
        <time>2022-08-20T12:44:36Z</time>
      </trkpt>
      <trkpt lat="44.06715" lon="6.61781">
        <ele>1542.8000488281</ele>
        <time>2022-08-20T12:44:38Z</time>
      </trkpt>
      <trkpt lat="44.06715" lon="6.6178">
        <ele>1542.8000488281</ele>
        <time>2022-08-20T12:44:45Z</time>
      </trkpt>
      <trkpt lat="44.06715" lon="6.6178">
        <ele>1542.8000488281</ele>
        <time>2022-08-20T12:44:49Z</time>
      </trkpt>
      <trkpt lat="44.06715" lon="6.61781">
        <ele>1542.8000488281</ele>
        <time>2022-08-20T12:44:51Z</time>
      </trkpt>
      <trkpt lat="44.06714" lon="6.61785">
        <ele>1545.5999755859</ele>
        <time>2022-08-20T12:44:56Z</time>
      </trkpt>
      <trkpt lat="44.06712" lon="6.61786">
        <ele>1545.4000244141</ele>
        <time>2022-08-20T12:45:02Z</time>
      </trkpt>
      <trkpt lat="44.06712" lon="6.61786">
        <ele>1545.1999511719</ele>
        <time>2022-08-20T12:45:03Z</time>
      </trkpt>
      <trkpt lat="44.06712" lon="6.61785">
        <ele>1545.4000244141</ele>
        <time>2022-08-20T12:45:07Z</time>
      </trkpt>
      <trkpt lat="44.06712" lon="6.61786">
        <ele>1545.5999755859</ele>
        <time>2022-08-20T12:45:12Z</time>
      </trkpt>
      <trkpt lat="44.06712" lon="6.61786">
        <ele>1545.5999755859</ele>
        <time>2022-08-20T12:45:16Z</time>
      </trkpt>
      <trkpt lat="44.06712" lon="6.61786">
        <ele>1545.5999755859</ele>
        <time>2022-08-20T12:45:21Z</time>
      </trkpt>
      <trkpt lat="44.06712" lon="6.61786">
        <ele>1545.5999755859</ele>
        <time>2022-08-20T12:45:26Z</time>
      </trkpt>
      <trkpt lat="44.06712" lon="6.61786">
        <ele>1545.5999755859</ele>
        <time>2022-08-20T12:45:29Z</time>
      </trkpt>
      <trkpt lat="44.06712" lon="6.61787">
        <ele>1545.1999511719</ele>
        <time>2022-08-20T12:45:34Z</time>
      </trkpt>
      <trkpt lat="44.06711" lon="6.61787">
        <ele>1545</ele>
        <time>2022-08-20T12:45:38Z</time>
      </trkpt>
      <trkpt lat="44.06711" lon="6.6179">
        <ele>1545</ele>
        <time>2022-08-20T12:45:50Z</time>
      </trkpt>
      <trkpt lat="44.06711" lon="6.6179">
        <ele>1545.1999511719</ele>
        <time>2022-08-20T12:45:51Z</time>
      </trkpt>
      <trkpt lat="44.06711" lon="6.6179">
        <ele>1545.1999511719</ele>
        <time>2022-08-20T12:45:53Z</time>
      </trkpt>
      <trkpt lat="44.06711" lon="6.6179">
        <ele>1545.1999511719</ele>
        <time>2022-08-20T12:45:59Z</time>
      </trkpt>
      <trkpt lat="44.06711" lon="6.61791">
        <ele>1545.1999511719</ele>
        <time>2022-08-20T12:46:01Z</time>
      </trkpt>
      <trkpt lat="44.06712" lon="6.6179">
        <ele>1545.1999511719</ele>
        <time>2022-08-20T12:46:05Z</time>
      </trkpt>
      <trkpt lat="44.06715" lon="6.61783">
        <ele>1545.1999511719</ele>
        <time>2022-08-20T12:46:16Z</time>
      </trkpt>
      <trkpt lat="44.06716" lon="6.61779">
        <ele>1545.1999511719</ele>
        <time>2022-08-20T12:46:23Z</time>
      </trkpt>
      <trkpt lat="44.06719" lon="6.61779">
        <ele>1545.1999511719</ele>
        <time>2022-08-20T12:46:27Z</time>
      </trkpt>
      <trkpt lat="44.06719" lon="6.61778">
        <ele>1545.1999511719</ele>
        <time>2022-08-20T12:46:31Z</time>
      </trkpt>
      <trkpt lat="44.06719" lon="6.61778">
        <ele>1545.1999511719</ele>
        <time>2022-08-20T12:46:41Z</time>
      </trkpt>
      <trkpt lat="44.0672" lon="6.61779">
        <ele>1545.1999511719</ele>
        <time>2022-08-20T12:46:49Z</time>
      </trkpt>
      <trkpt lat="44.0672" lon="6.6178">
        <ele>1545.1999511719</ele>
        <time>2022-08-20T12:46:52Z</time>
      </trkpt>
      <trkpt lat="44.0672" lon="6.6178">
        <ele>1545.1999511719</ele>
        <time>2022-08-20T12:46:57Z</time>
      </trkpt>
      <trkpt lat="44.06721" lon="6.61781">
        <ele>1545.1999511719</ele>
        <time>2022-08-20T12:46:59Z</time>
      </trkpt>
      <trkpt lat="44.06719" lon="6.61781">
        <ele>1545.1999511719</ele>
        <time>2022-08-20T12:47:04Z</time>
      </trkpt>
      <trkpt lat="44.06719" lon="6.61782">
        <ele>1545.1999511719</ele>
        <time>2022-08-20T12:47:07Z</time>
      </trkpt>
      <trkpt lat="44.06719" lon="6.61782">
        <ele>1545.1999511719</ele>
        <time>2022-08-20T12:47:12Z</time>
      </trkpt>
      <trkpt lat="44.06719" lon="6.61783">
        <ele>1545.1999511719</ele>
        <time>2022-08-20T12:47:17Z</time>
      </trkpt>
      <trkpt lat="44.06721" lon="6.61784">
        <ele>1545.1999511719</ele>
        <time>2022-08-20T12:47:28Z</time>
      </trkpt>
      <trkpt lat="44.06721" lon="6.61784">
        <ele>1545.1999511719</ele>
        <time>2022-08-20T12:47:36Z</time>
      </trkpt>
      <trkpt lat="44.06723" lon="6.61784">
        <ele>1545.1999511719</ele>
        <time>2022-08-20T12:47:44Z</time>
      </trkpt>
      <trkpt lat="44.06724" lon="6.61784">
        <ele>1545.1999511719</ele>
        <time>2022-08-20T12:47:48Z</time>
      </trkpt>
      <trkpt lat="44.06724" lon="6.61785">
        <ele>1545.1999511719</ele>
        <time>2022-08-20T12:47:50Z</time>
      </trkpt>
      <trkpt lat="44.06724" lon="6.61785">
        <ele>1545.1999511719</ele>
        <time>2022-08-20T12:47:54Z</time>
      </trkpt>
      <trkpt lat="44.06723" lon="6.61785">
        <ele>1545.1999511719</ele>
        <time>2022-08-20T12:48:05Z</time>
      </trkpt>
      <trkpt lat="44.06723" lon="6.61785">
        <ele>1545.1999511719</ele>
        <time>2022-08-20T12:48:11Z</time>
      </trkpt>
      <trkpt lat="44.06722" lon="6.61784">
        <ele>1545.1999511719</ele>
        <time>2022-08-20T12:48:15Z</time>
      </trkpt>
      <trkpt lat="44.06722" lon="6.61784">
        <ele>1545.1999511719</ele>
        <time>2022-08-20T12:48:27Z</time>
      </trkpt>
      <trkpt lat="44.06724" lon="6.61783">
        <ele>1545.1999511719</ele>
        <time>2022-08-20T12:48:39Z</time>
      </trkpt>
      <trkpt lat="44.06724" lon="6.61783">
        <ele>1545.1999511719</ele>
        <time>2022-08-20T12:48:40Z</time>
      </trkpt>
      <trkpt lat="44.06725" lon="6.61784">
        <ele>1545.1999511719</ele>
        <time>2022-08-20T12:48:51Z</time>
      </trkpt>
      <trkpt lat="44.06724" lon="6.61783">
        <ele>1545.1999511719</ele>
        <time>2022-08-20T12:48:52Z</time>
      </trkpt>
      <trkpt lat="44.06722" lon="6.61784">
        <ele>1545.1999511719</ele>
        <time>2022-08-20T12:49:03Z</time>
      </trkpt>
      <trkpt lat="44.06722" lon="6.61784">
        <ele>1545.1999511719</ele>
        <time>2022-08-20T12:49:04Z</time>
      </trkpt>
      <trkpt lat="44.0672" lon="6.61784">
        <ele>1545.1999511719</ele>
        <time>2022-08-20T12:49:15Z</time>
      </trkpt>
      <trkpt lat="44.0672" lon="6.61784">
        <ele>1545.1999511719</ele>
        <time>2022-08-20T12:49:17Z</time>
      </trkpt>
      <trkpt lat="44.0672" lon="6.61784">
        <ele>1545.1999511719</ele>
        <time>2022-08-20T12:49:23Z</time>
      </trkpt>
      <trkpt lat="44.0672" lon="6.61783">
        <ele>1545.1999511719</ele>
        <time>2022-08-20T12:49:25Z</time>
      </trkpt>
      <trkpt lat="44.06721" lon="6.6178">
        <ele>1545.1999511719</ele>
        <time>2022-08-20T12:49:40Z</time>
      </trkpt>
      <trkpt lat="44.06723" lon="6.6178">
        <ele>1545.1999511719</ele>
        <time>2022-08-20T12:49:56Z</time>
      </trkpt>
      <trkpt lat="44.06723" lon="6.61778">
        <ele>1545.1999511719</ele>
        <time>2022-08-20T12:50:10Z</time>
      </trkpt>
      <trkpt lat="44.06723" lon="6.61779">
        <ele>1545.1999511719</ele>
        <time>2022-08-20T12:50:16Z</time>
      </trkpt>
      <trkpt lat="44.06725" lon="6.61778">
        <ele>1545.1999511719</ele>
        <time>2022-08-20T12:50:22Z</time>
      </trkpt>
      <trkpt lat="44.06725" lon="6.61778">
        <ele>1545.1999511719</ele>
        <time>2022-08-20T12:50:34Z</time>
      </trkpt>
      <trkpt lat="44.06725" lon="6.61778">
        <ele>1545.1999511719</ele>
        <time>2022-08-20T12:50:48Z</time>
      </trkpt>
      <trkpt lat="44.06724" lon="6.61781">
        <ele>1545.1999511719</ele>
        <time>2022-08-20T12:51:04Z</time>
      </trkpt>
      <trkpt lat="44.06724" lon="6.61783">
        <ele>1545.1999511719</ele>
        <time>2022-08-20T12:51:13Z</time>
      </trkpt>
      <trkpt lat="44.06724" lon="6.61783">
        <ele>1545.1999511719</ele>
        <time>2022-08-20T12:51:15Z</time>
      </trkpt>
      <trkpt lat="44.06725" lon="6.61783">
        <ele>1545.1999511719</ele>
        <time>2022-08-20T12:51:21Z</time>
      </trkpt>
      <trkpt lat="44.06725" lon="6.61783">
        <ele>1545.1999511719</ele>
        <time>2022-08-20T12:51:22Z</time>
      </trkpt>
      <trkpt lat="44.06725" lon="6.61783">
        <ele>1545.1999511719</ele>
        <time>2022-08-20T12:51:28Z</time>
      </trkpt>
      <trkpt lat="44.06723" lon="6.61784">
        <ele>1545.1999511719</ele>
        <time>2022-08-20T12:51:39Z</time>
      </trkpt>
      <trkpt lat="44.06723" lon="6.61783">
        <ele>1545.1999511719</ele>
        <time>2022-08-20T12:51:48Z</time>
      </trkpt>
      <trkpt lat="44.06723" lon="6.61783">
        <ele>1545.1999511719</ele>
        <time>2022-08-20T12:51:51Z</time>
      </trkpt>
      <trkpt lat="44.06726" lon="6.61781">
        <ele>1545.1999511719</ele>
        <time>2022-08-20T12:52:03Z</time>
      </trkpt>
      <trkpt lat="44.06726" lon="6.6178">
        <ele>1545.1999511719</ele>
        <time>2022-08-20T12:52:12Z</time>
      </trkpt>
      <trkpt lat="44.06726" lon="6.6178">
        <ele>1545.1999511719</ele>
        <time>2022-08-20T12:52:24Z</time>
      </trkpt>
      <trkpt lat="44.06726" lon="6.61779">
        <ele>1545.1999511719</ele>
        <time>2022-08-20T12:52:31Z</time>
      </trkpt>
      <trkpt lat="44.06726" lon="6.61779">
        <ele>1545.1999511719</ele>
        <time>2022-08-20T12:52:35Z</time>
      </trkpt>
      <trkpt lat="44.06726" lon="6.61779">
        <ele>1545.1999511719</ele>
        <time>2022-08-20T12:52:37Z</time>
      </trkpt>
      <trkpt lat="44.06726" lon="6.6178">
        <ele>1545.1999511719</ele>
        <time>2022-08-20T12:52:44Z</time>
      </trkpt>
      <trkpt lat="44.06725" lon="6.61781">
        <ele>1545.1999511719</ele>
        <time>2022-08-20T12:52:52Z</time>
      </trkpt>
      <trkpt lat="44.06725" lon="6.61782">
        <ele>1545.1999511719</ele>
        <time>2022-08-20T12:52:54Z</time>
      </trkpt>
      <trkpt lat="44.06724" lon="6.61781">
        <ele>1545.1999511719</ele>
        <time>2022-08-20T12:53:06Z</time>
      </trkpt>
      <trkpt lat="44.06723" lon="6.61783">
        <ele>1545.1999511719</ele>
        <time>2022-08-20T12:53:16Z</time>
      </trkpt>
      <trkpt lat="44.06724" lon="6.61783">
        <ele>1545.1999511719</ele>
        <time>2022-08-20T12:53:18Z</time>
      </trkpt>
      <trkpt lat="44.06723" lon="6.61783">
        <ele>1545.1999511719</ele>
        <time>2022-08-20T12:53:28Z</time>
      </trkpt>
      <trkpt lat="44.06722" lon="6.61784">
        <ele>1545.1999511719</ele>
        <time>2022-08-20T12:53:41Z</time>
      </trkpt>
      <trkpt lat="44.06722" lon="6.61784">
        <ele>1545.1999511719</ele>
        <time>2022-08-20T12:53:42Z</time>
      </trkpt>
      <trkpt lat="44.06723" lon="6.61784">
        <ele>1545.1999511719</ele>
        <time>2022-08-20T12:53:48Z</time>
      </trkpt>
      <trkpt lat="44.06724" lon="6.61784">
        <ele>1545.1999511719</ele>
        <time>2022-08-20T12:53:53Z</time>
      </trkpt>
      <trkpt lat="44.06727" lon="6.61784">
        <ele>1545.1999511719</ele>
        <time>2022-08-20T12:54:05Z</time>
      </trkpt>
      <trkpt lat="44.06726" lon="6.61783">
        <ele>1545.1999511719</ele>
        <time>2022-08-20T12:54:13Z</time>
      </trkpt>
      <trkpt lat="44.06726" lon="6.61783">
        <ele>1545.1999511719</ele>
        <time>2022-08-20T12:54:15Z</time>
      </trkpt>
      <trkpt lat="44.06727" lon="6.61784">
        <ele>1545.1999511719</ele>
        <time>2022-08-20T12:54:31Z</time>
      </trkpt>
      <trkpt lat="44.06727" lon="6.61783">
        <ele>1545.1999511719</ele>
        <time>2022-08-20T12:54:34Z</time>
      </trkpt>
      <trkpt lat="44.06727" lon="6.61784">
        <ele>1545.1999511719</ele>
        <time>2022-08-20T12:54:38Z</time>
      </trkpt>
      <trkpt lat="44.06727" lon="6.61784">
        <ele>1545.1999511719</ele>
        <time>2022-08-20T12:54:49Z</time>
      </trkpt>
      <trkpt lat="44.06728" lon="6.61785">
        <ele>1545.1999511719</ele>
        <time>2022-08-20T12:54:54Z</time>
      </trkpt>
      <trkpt lat="44.06728" lon="6.61786">
        <ele>1545.1999511719</ele>
        <time>2022-08-20T12:54:57Z</time>
      </trkpt>
      <trkpt lat="44.06728" lon="6.61786">
        <ele>1545.1999511719</ele>
        <time>2022-08-20T12:55:00Z</time>
      </trkpt>
      <trkpt lat="44.06728" lon="6.61785">
        <ele>1545.1999511719</ele>
        <time>2022-08-20T12:55:03Z</time>
      </trkpt>
      <trkpt lat="44.06728" lon="6.61785">
        <ele>1545.1999511719</ele>
        <time>2022-08-20T12:55:09Z</time>
      </trkpt>
      <trkpt lat="44.06728" lon="6.61785">
        <ele>1545.1999511719</ele>
        <time>2022-08-20T12:55:14Z</time>
      </trkpt>
      <trkpt lat="44.06728" lon="6.61782">
        <ele>1545.1999511719</ele>
        <time>2022-08-20T12:55:27Z</time>
      </trkpt>
      <trkpt lat="44.06729" lon="6.61782">
        <ele>1545.1999511719</ele>
        <time>2022-08-20T12:55:34Z</time>
      </trkpt>
      <trkpt lat="44.06729" lon="6.61783">
        <ele>1545.1999511719</ele>
        <time>2022-08-20T12:55:36Z</time>
      </trkpt>
      <trkpt lat="44.06727" lon="6.61783">
        <ele>1545.1999511719</ele>
        <time>2022-08-20T12:55:37Z</time>
      </trkpt>
      <trkpt lat="44.06727" lon="6.61784">
        <ele>1545.1999511719</ele>
        <time>2022-08-20T12:55:43Z</time>
      </trkpt>
      <trkpt lat="44.06727" lon="6.61784">
        <ele>1545.1999511719</ele>
        <time>2022-08-20T12:55:49Z</time>
      </trkpt>
      <trkpt lat="44.06727" lon="6.61783">
        <ele>1545.1999511719</ele>
        <time>2022-08-20T12:55:58Z</time>
      </trkpt>
      <trkpt lat="44.06726" lon="6.61781">
        <ele>1545.1999511719</ele>
        <time>2022-08-20T12:56:10Z</time>
      </trkpt>
      <trkpt lat="44.06724" lon="6.61783">
        <ele>1545.1999511719</ele>
        <time>2022-08-20T12:56:23Z</time>
      </trkpt>
      <trkpt lat="44.06724" lon="6.61783">
        <ele>1545.1999511719</ele>
        <time>2022-08-20T12:56:30Z</time>
      </trkpt>
      <trkpt lat="44.06723" lon="6.61782">
        <ele>1545.1999511719</ele>
        <time>2022-08-20T12:56:39Z</time>
      </trkpt>
      <trkpt lat="44.06723" lon="6.61783">
        <ele>1545.1999511719</ele>
        <time>2022-08-20T12:56:41Z</time>
      </trkpt>
      <trkpt lat="44.06721" lon="6.61781">
        <ele>1545.1999511719</ele>
        <time>2022-08-20T12:56:46Z</time>
      </trkpt>
      <trkpt lat="44.06722" lon="6.61772">
        <ele>1545.1999511719</ele>
        <time>2022-08-20T12:56:49Z</time>
      </trkpt>
      <trkpt lat="44.06725" lon="6.61764">
        <ele>1545.1999511719</ele>
        <time>2022-08-20T12:56:51Z</time>
      </trkpt>
      <trkpt lat="44.06726" lon="6.61761">
        <ele>1545.1999511719</ele>
        <time>2022-08-20T12:56:52Z</time>
      </trkpt>
      <trkpt lat="44.06736" lon="6.61747">
        <ele>1546.1999511719</ele>
        <time>2022-08-20T12:56:58Z</time>
      </trkpt>
      <trkpt lat="44.06741" lon="6.61742">
        <ele>1546.5999755859</ele>
        <time>2022-08-20T12:57:01Z</time>
      </trkpt>
      <trkpt lat="44.06751" lon="6.61733">
        <ele>1546.4000244141</ele>
        <time>2022-08-20T12:57:05Z</time>
      </trkpt>
      <trkpt lat="44.06766" lon="6.61719">
        <ele>1546</ele>
        <time>2022-08-20T12:57:10Z</time>
      </trkpt>
      <trkpt lat="44.06769" lon="6.61715">
        <ele>1546</ele>
        <time>2022-08-20T12:57:11Z</time>
      </trkpt>
      <trkpt lat="44.06792" lon="6.61692">
        <ele>1546</ele>
        <time>2022-08-20T12:57:18Z</time>
      </trkpt>
      <trkpt lat="44.06802" lon="6.61677">
        <ele>1546.4000244141</ele>
        <time>2022-08-20T12:57:24Z</time>
      </trkpt>
      <trkpt lat="44.06812" lon="6.6167">
        <ele>1547.1999511719</ele>
        <time>2022-08-20T12:57:30Z</time>
      </trkpt>
      <trkpt lat="44.06814" lon="6.6167">
        <ele>1547.5999755859</ele>
        <time>2022-08-20T12:57:31Z</time>
      </trkpt>
      <trkpt lat="44.06815" lon="6.61669">
        <ele>1547.8000488281</ele>
        <time>2022-08-20T12:57:32Z</time>
      </trkpt>
      <trkpt lat="44.06816" lon="6.6167">
        <ele>1548</ele>
        <time>2022-08-20T12:57:34Z</time>
      </trkpt>
      <trkpt lat="44.06816" lon="6.61669">
        <ele>1548.1999511719</ele>
        <time>2022-08-20T12:57:35Z</time>
      </trkpt>
      <trkpt lat="44.06816" lon="6.61669">
        <ele>1548.1999511719</ele>
        <time>2022-08-20T12:57:37Z</time>
      </trkpt>
      <trkpt lat="44.06816" lon="6.61669">
        <ele>1548.1999511719</ele>
        <time>2022-08-20T12:57:39Z</time>
      </trkpt>
      <trkpt lat="44.06819" lon="6.61668">
        <ele>1548.4000244141</ele>
        <time>2022-08-20T12:57:45Z</time>
      </trkpt>
      <trkpt lat="44.06818" lon="6.61668">
        <ele>1548.5999755859</ele>
        <time>2022-08-20T12:57:52Z</time>
      </trkpt>
      <trkpt lat="44.06819" lon="6.61666">
        <ele>1548.4000244141</ele>
        <time>2022-08-20T12:58:02Z</time>
      </trkpt>
      <trkpt lat="44.06818" lon="6.61666">
        <ele>1548.4000244141</ele>
        <time>2022-08-20T12:58:07Z</time>
      </trkpt>
      <trkpt lat="44.06819" lon="6.61666">
        <ele>1548.1999511719</ele>
        <time>2022-08-20T12:58:14Z</time>
      </trkpt>
      <trkpt lat="44.06819" lon="6.61665">
        <ele>1548</ele>
        <time>2022-08-20T12:58:18Z</time>
      </trkpt>
      <trkpt lat="44.06819" lon="6.61665">
        <ele>1548.1999511719</ele>
        <time>2022-08-20T12:58:24Z</time>
      </trkpt>
      <trkpt lat="44.06819" lon="6.61665">
        <ele>1548.1999511719</ele>
        <time>2022-08-20T12:58:27Z</time>
      </trkpt>
      <trkpt lat="44.06819" lon="6.61665">
        <ele>1548.1999511719</ele>
        <time>2022-08-20T12:58:30Z</time>
      </trkpt>
      <trkpt lat="44.0682" lon="6.61665">
        <ele>1548.1999511719</ele>
        <time>2022-08-20T12:58:33Z</time>
      </trkpt>
      <trkpt lat="44.0682" lon="6.61665">
        <ele>1548.1999511719</ele>
        <time>2022-08-20T12:58:36Z</time>
      </trkpt>
      <trkpt lat="44.06822" lon="6.61661">
        <ele>1548.1999511719</ele>
        <time>2022-08-20T12:58:40Z</time>
      </trkpt>
      <trkpt lat="44.06825" lon="6.61657">
        <ele>1548.1999511719</ele>
        <time>2022-08-20T12:58:42Z</time>
      </trkpt>
      <trkpt lat="44.06826" lon="6.61654">
        <ele>1548.1999511719</ele>
        <time>2022-08-20T12:58:43Z</time>
      </trkpt>
      <trkpt lat="44.06829" lon="6.61649">
        <ele>1548.4000244141</ele>
        <time>2022-08-20T12:58:45Z</time>
      </trkpt>
      <trkpt lat="44.06833" lon="6.61644">
        <ele>1548.5999755859</ele>
        <time>2022-08-20T12:58:47Z</time>
      </trkpt>
      <trkpt lat="44.06833" lon="6.61643">
        <ele>1548.5999755859</ele>
        <time>2022-08-20T12:58:48Z</time>
      </trkpt>
      <trkpt lat="44.06833" lon="6.61643">
        <ele>1548.8000488281</ele>
        <time>2022-08-20T12:58:49Z</time>
      </trkpt>
      <trkpt lat="44.06833" lon="6.61643">
        <ele>1549</ele>
        <time>2022-08-20T12:58:51Z</time>
      </trkpt>
      <trkpt lat="44.06833" lon="6.61642">
        <ele>1548.5999755859</ele>
        <time>2022-08-20T12:58:57Z</time>
      </trkpt>
      <trkpt lat="44.06839" lon="6.61634">
        <ele>1548.5999755859</ele>
        <time>2022-08-20T12:59:04Z</time>
      </trkpt>
      <trkpt lat="44.06841" lon="6.61632">
        <ele>1548.5999755859</ele>
        <time>2022-08-20T12:59:05Z</time>
      </trkpt>
      <trkpt lat="44.06852" lon="6.61614">
        <ele>1549.4000244141</ele>
        <time>2022-08-20T12:59:10Z</time>
      </trkpt>
      <trkpt lat="44.06857" lon="6.61607">
        <ele>1549.5999755859</ele>
        <time>2022-08-20T12:59:12Z</time>
      </trkpt>
      <trkpt lat="44.06862" lon="6.616">
        <ele>1549.5999755859</ele>
        <time>2022-08-20T12:59:14Z</time>
      </trkpt>
      <trkpt lat="44.06869" lon="6.61587">
        <ele>1549.8000488281</ele>
        <time>2022-08-20T12:59:17Z</time>
      </trkpt>
      <trkpt lat="44.06871" lon="6.61582">
        <ele>1549.8000488281</ele>
        <time>2022-08-20T12:59:18Z</time>
      </trkpt>
      <trkpt lat="44.06884" lon="6.61553">
        <ele>1550.5999755859</ele>
        <time>2022-08-20T12:59:24Z</time>
      </trkpt>
      <trkpt lat="44.06885" lon="6.61547">
        <ele>1550.8000488281</ele>
        <time>2022-08-20T12:59:25Z</time>
      </trkpt>
      <trkpt lat="44.06887" lon="6.61541">
        <ele>1550.8000488281</ele>
        <time>2022-08-20T12:59:26Z</time>
      </trkpt>
      <trkpt lat="44.06892" lon="6.61517">
        <ele>1551</ele>
        <time>2022-08-20T12:59:30Z</time>
      </trkpt>
      <trkpt lat="44.06899" lon="6.61476">
        <ele>1551.8000488281</ele>
        <time>2022-08-20T12:59:37Z</time>
      </trkpt>
      <trkpt lat="44.069" lon="6.61471">
        <ele>1552</ele>
        <time>2022-08-20T12:59:38Z</time>
      </trkpt>
      <trkpt lat="44.06904" lon="6.61456">
        <ele>1552.4000244141</ele>
        <time>2022-08-20T12:59:41Z</time>
      </trkpt>
      <trkpt lat="44.06912" lon="6.61429">
        <ele>1553</ele>
        <time>2022-08-20T12:59:47Z</time>
      </trkpt>
      <trkpt lat="44.06912" lon="6.61425">
        <ele>1553.1999511719</ele>
        <time>2022-08-20T12:59:48Z</time>
      </trkpt>
      <trkpt lat="44.06911" lon="6.61402">
        <ele>1553.4000244141</ele>
        <time>2022-08-20T12:59:53Z</time>
      </trkpt>
      <trkpt lat="44.06911" lon="6.61393">
        <ele>1553.8000488281</ele>
        <time>2022-08-20T12:59:55Z</time>
      </trkpt>
      <trkpt lat="44.06911" lon="6.61379">
        <ele>1554</ele>
        <time>2022-08-20T12:59:58Z</time>
      </trkpt>
      <trkpt lat="44.06914" lon="6.6137">
        <ele>1554.1999511719</ele>
        <time>2022-08-20T13:00:00Z</time>
      </trkpt>
      <trkpt lat="44.06917" lon="6.61366">
        <ele>1554.4000244141</ele>
        <time>2022-08-20T13:00:01Z</time>
      </trkpt>
      <trkpt lat="44.06934" lon="6.61356">
        <ele>1555</ele>
        <time>2022-08-20T13:00:06Z</time>
      </trkpt>
      <trkpt lat="44.06974" lon="6.61345">
        <ele>1554</ele>
        <time>2022-08-20T13:00:14Z</time>
      </trkpt>
      <trkpt lat="44.06981" lon="6.61345">
        <ele>1553.8000488281</ele>
        <time>2022-08-20T13:00:15Z</time>
      </trkpt>
      <trkpt lat="44.07001" lon="6.6135">
        <ele>1553</ele>
        <time>2022-08-20T13:00:18Z</time>
      </trkpt>
      <trkpt lat="44.07008" lon="6.61354">
        <ele>1552.5999755859</ele>
        <time>2022-08-20T13:00:19Z</time>
      </trkpt>
      <trkpt lat="44.07022" lon="6.6136">
        <ele>1551.8000488281</ele>
        <time>2022-08-20T13:00:21Z</time>
      </trkpt>
      <trkpt lat="44.07028" lon="6.61361">
        <ele>1551.5999755859</ele>
        <time>2022-08-20T13:00:22Z</time>
      </trkpt>
      <trkpt lat="44.07037" lon="6.61355">
        <ele>1551.4000244141</ele>
        <time>2022-08-20T13:00:24Z</time>
      </trkpt>
      <trkpt lat="44.07041" lon="6.61338">
        <ele>1551.1999511719</ele>
        <time>2022-08-20T13:00:26Z</time>
      </trkpt>
      <trkpt lat="44.07043" lon="6.6133">
        <ele>1551</ele>
        <time>2022-08-20T13:00:27Z</time>
      </trkpt>
      <trkpt lat="44.07047" lon="6.61322">
        <ele>1550.8000488281</ele>
        <time>2022-08-20T13:00:28Z</time>
      </trkpt>
      <trkpt lat="44.07052" lon="6.61314">
        <ele>1550.4000244141</ele>
        <time>2022-08-20T13:00:29Z</time>
      </trkpt>
      <trkpt lat="44.07062" lon="6.61301">
        <ele>1549.8000488281</ele>
        <time>2022-08-20T13:00:31Z</time>
      </trkpt>
      <trkpt lat="44.07069" lon="6.61296">
        <ele>1549.4000244141</ele>
        <time>2022-08-20T13:00:32Z</time>
      </trkpt>
      <trkpt lat="44.07084" lon="6.61286">
        <ele>1548.5999755859</ele>
        <time>2022-08-20T13:00:34Z</time>
      </trkpt>
      <trkpt lat="44.07092" lon="6.61281">
        <ele>1548.4000244141</ele>
        <time>2022-08-20T13:00:35Z</time>
      </trkpt>
      <trkpt lat="44.071" lon="6.61276">
        <ele>1548</ele>
        <time>2022-08-20T13:00:36Z</time>
      </trkpt>
      <trkpt lat="44.07109" lon="6.61271">
        <ele>1547.4000244141</ele>
        <time>2022-08-20T13:00:37Z</time>
      </trkpt>
      <trkpt lat="44.07126" lon="6.61262">
        <ele>1546.4000244141</ele>
        <time>2022-08-20T13:00:39Z</time>
      </trkpt>
      <trkpt lat="44.07135" lon="6.61257">
        <ele>1545.8000488281</ele>
        <time>2022-08-20T13:00:40Z</time>
      </trkpt>
      <trkpt lat="44.07153" lon="6.61246">
        <ele>1544</ele>
        <time>2022-08-20T13:00:42Z</time>
      </trkpt>
      <trkpt lat="44.07172" lon="6.61236">
        <ele>1542.5999755859</ele>
        <time>2022-08-20T13:00:44Z</time>
      </trkpt>
      <trkpt lat="44.07181" lon="6.61232">
        <ele>1542.1999511719</ele>
        <time>2022-08-20T13:00:45Z</time>
      </trkpt>
      <trkpt lat="44.0719" lon="6.61227">
        <ele>1541.5999755859</ele>
        <time>2022-08-20T13:00:46Z</time>
      </trkpt>
      <trkpt lat="44.072" lon="6.61223">
        <ele>1541.1999511719</ele>
        <time>2022-08-20T13:00:47Z</time>
      </trkpt>
      <trkpt lat="44.07227" lon="6.6121">
        <ele>1540</ele>
        <time>2022-08-20T13:00:50Z</time>
      </trkpt>
      <trkpt lat="44.07252" lon="6.61197">
        <ele>1539.5999755859</ele>
        <time>2022-08-20T13:00:53Z</time>
      </trkpt>
      <trkpt lat="44.07267" lon="6.61188">
        <ele>1539.8000488281</ele>
        <time>2022-08-20T13:00:55Z</time>
      </trkpt>
      <trkpt lat="44.07275" lon="6.61184">
        <ele>1540</ele>
        <time>2022-08-20T13:00:56Z</time>
      </trkpt>
      <trkpt lat="44.07283" lon="6.61179">
        <ele>1540</ele>
        <time>2022-08-20T13:00:57Z</time>
      </trkpt>
      <trkpt lat="44.07298" lon="6.61169">
        <ele>1540.1999511719</ele>
        <time>2022-08-20T13:00:59Z</time>
      </trkpt>
      <trkpt lat="44.0731" lon="6.61156">
        <ele>1540.1999511719</ele>
        <time>2022-08-20T13:01:01Z</time>
      </trkpt>
      <trkpt lat="44.07318" lon="6.6114">
        <ele>1540.1999511719</ele>
        <time>2022-08-20T13:01:03Z</time>
      </trkpt>
      <trkpt lat="44.07323" lon="6.61123">
        <ele>1540.1999511719</ele>
        <time>2022-08-20T13:01:05Z</time>
      </trkpt>
      <trkpt lat="44.07323" lon="6.61105">
        <ele>1540.4000244141</ele>
        <time>2022-08-20T13:01:07Z</time>
      </trkpt>
      <trkpt lat="44.0732" lon="6.61097">
        <ele>1540.4000244141</ele>
        <time>2022-08-20T13:01:08Z</time>
      </trkpt>
      <trkpt lat="44.07315" lon="6.61092">
        <ele>1540.4000244141</ele>
        <time>2022-08-20T13:01:09Z</time>
      </trkpt>
      <trkpt lat="44.07309" lon="6.6109">
        <ele>1540.4000244141</ele>
        <time>2022-08-20T13:01:10Z</time>
      </trkpt>
      <trkpt lat="44.07304" lon="6.6109">
        <ele>1540.1999511719</ele>
        <time>2022-08-20T13:01:11Z</time>
      </trkpt>
      <trkpt lat="44.07294" lon="6.61091">
        <ele>1540.1999511719</ele>
        <time>2022-08-20T13:01:13Z</time>
      </trkpt>
      <trkpt lat="44.0728" lon="6.61089">
        <ele>1540.1999511719</ele>
        <time>2022-08-20T13:01:16Z</time>
      </trkpt>
      <trkpt lat="44.07272" lon="6.61086">
        <ele>1540.4000244141</ele>
        <time>2022-08-20T13:01:18Z</time>
      </trkpt>
      <trkpt lat="44.07252" lon="6.61077">
        <ele>1541.1999511719</ele>
        <time>2022-08-20T13:01:23Z</time>
      </trkpt>
      <trkpt lat="44.07248" lon="6.61075">
        <ele>1541.5999755859</ele>
        <time>2022-08-20T13:01:24Z</time>
      </trkpt>
      <trkpt lat="44.07237" lon="6.61069">
        <ele>1542.4000244141</ele>
        <time>2022-08-20T13:01:27Z</time>
      </trkpt>
      <trkpt lat="44.07227" lon="6.61062">
        <ele>1543</ele>
        <time>2022-08-20T13:01:30Z</time>
      </trkpt>
      <trkpt lat="44.07221" lon="6.61056">
        <ele>1543.4000244141</ele>
        <time>2022-08-20T13:01:32Z</time>
      </trkpt>
      <trkpt lat="44.07215" lon="6.61051">
        <ele>1543.8000488281</ele>
        <time>2022-08-20T13:01:34Z</time>
      </trkpt>
      <trkpt lat="44.07212" lon="6.61048">
        <ele>1544</ele>
        <time>2022-08-20T13:01:35Z</time>
      </trkpt>
      <trkpt lat="44.07206" lon="6.61042">
        <ele>1544.1999511719</ele>
        <time>2022-08-20T13:01:37Z</time>
      </trkpt>
      <trkpt lat="44.07203" lon="6.61039">
        <ele>1544.4000244141</ele>
        <time>2022-08-20T13:01:38Z</time>
      </trkpt>
      <trkpt lat="44.07197" lon="6.61034">
        <ele>1544.5999755859</ele>
        <time>2022-08-20T13:01:40Z</time>
      </trkpt>
      <trkpt lat="44.07176" lon="6.61015">
        <ele>1545</ele>
        <time>2022-08-20T13:01:47Z</time>
      </trkpt>
      <trkpt lat="44.0717" lon="6.61009">
        <ele>1545.1999511719</ele>
        <time>2022-08-20T13:01:49Z</time>
      </trkpt>
      <trkpt lat="44.07161" lon="6.61002">
        <ele>1545.4000244141</ele>
        <time>2022-08-20T13:01:52Z</time>
      </trkpt>
      <trkpt lat="44.07157" lon="6.60999">
        <ele>1545.4000244141</ele>
        <time>2022-08-20T13:01:53Z</time>
      </trkpt>
      <trkpt lat="44.07144" lon="6.60992">
        <ele>1546</ele>
        <time>2022-08-20T13:01:57Z</time>
      </trkpt>
      <trkpt lat="44.0713" lon="6.60989">
        <ele>1546.4000244141</ele>
        <time>2022-08-20T13:02:01Z</time>
      </trkpt>
      <trkpt lat="44.07126" lon="6.60988">
        <ele>1546.5999755859</ele>
        <time>2022-08-20T13:02:02Z</time>
      </trkpt>
      <trkpt lat="44.07109" lon="6.60987">
        <ele>1547.1999511719</ele>
        <time>2022-08-20T13:02:07Z</time>
      </trkpt>
      <trkpt lat="44.07091" lon="6.60984">
        <ele>1547.5999755859</ele>
        <time>2022-08-20T13:02:12Z</time>
      </trkpt>
      <trkpt lat="44.07081" lon="6.60981">
        <ele>1547.8000488281</ele>
        <time>2022-08-20T13:02:15Z</time>
      </trkpt>
      <trkpt lat="44.07063" lon="6.60966">
        <ele>1548.4000244141</ele>
        <time>2022-08-20T13:02:22Z</time>
      </trkpt>
      <trkpt lat="44.0706" lon="6.6096">
        <ele>1548.5999755859</ele>
        <time>2022-08-20T13:02:24Z</time>
      </trkpt>
      <trkpt lat="44.07058" lon="6.60951">
        <ele>1549</ele>
        <time>2022-08-20T13:02:27Z</time>
      </trkpt>
      <trkpt lat="44.07062" lon="6.60936">
        <ele>1549.1999511719</ele>
        <time>2022-08-20T13:02:31Z</time>
      </trkpt>
      <trkpt lat="44.07064" lon="6.60933">
        <ele>1549</ele>
        <time>2022-08-20T13:02:32Z</time>
      </trkpt>
      <trkpt lat="44.07077" lon="6.60912">
        <ele>1548.4000244141</ele>
        <time>2022-08-20T13:02:38Z</time>
      </trkpt>
      <trkpt lat="44.07079" lon="6.60909">
        <ele>1548.4000244141</ele>
        <time>2022-08-20T13:02:39Z</time>
      </trkpt>
      <trkpt lat="44.07088" lon="6.60893">
        <ele>1548</ele>
        <time>2022-08-20T13:02:44Z</time>
      </trkpt>
      <trkpt lat="44.0709" lon="6.60891">
        <ele>1547.5999755859</ele>
        <time>2022-08-20T13:02:46Z</time>
      </trkpt>
      <trkpt lat="44.0709" lon="6.60891">
        <ele>1547.5999755859</ele>
        <time>2022-08-20T13:02:47Z</time>
      </trkpt>
      <trkpt lat="44.07091" lon="6.60891">
        <ele>1547.4000244141</ele>
        <time>2022-08-20T13:02:49Z</time>
      </trkpt>
      <trkpt lat="44.07091" lon="6.60892">
        <ele>1547.4000244141</ele>
        <time>2022-08-20T13:02:51Z</time>
      </trkpt>
      <trkpt lat="44.07091" lon="6.60892">
        <ele>1547</ele>
        <time>2022-08-20T13:02:54Z</time>
      </trkpt>
      <trkpt lat="44.07091" lon="6.60892">
        <ele>1546.8000488281</ele>
        <time>2022-08-20T13:03:02Z</time>
      </trkpt>
      <trkpt lat="44.07091" lon="6.60892">
        <ele>1546.8000488281</ele>
        <time>2022-08-20T13:03:03Z</time>
      </trkpt>
      <trkpt lat="44.07091" lon="6.60892">
        <ele>1546.8000488281</ele>
        <time>2022-08-20T13:03:05Z</time>
      </trkpt>
      <trkpt lat="44.07091" lon="6.60891">
        <ele>1546.8000488281</ele>
        <time>2022-08-20T13:03:07Z</time>
      </trkpt>
      <trkpt lat="44.07091" lon="6.60892">
        <ele>1546.8000488281</ele>
        <time>2022-08-20T13:03:14Z</time>
      </trkpt>
      <trkpt lat="44.07091" lon="6.60892">
        <ele>1546.8000488281</ele>
        <time>2022-08-20T13:03:19Z</time>
      </trkpt>
      <trkpt lat="44.07091" lon="6.60892">
        <ele>1546.8000488281</ele>
        <time>2022-08-20T13:03:28Z</time>
      </trkpt>
      <trkpt lat="44.07092" lon="6.60892">
        <ele>1546.8000488281</ele>
        <time>2022-08-20T13:03:39Z</time>
      </trkpt>
      <trkpt lat="44.07093" lon="6.60892">
        <ele>1546.8000488281</ele>
        <time>2022-08-20T13:03:46Z</time>
      </trkpt>
      <trkpt lat="44.07093" lon="6.60892">
        <ele>1546.8000488281</ele>
        <time>2022-08-20T13:03:47Z</time>
      </trkpt>
      <trkpt lat="44.07091" lon="6.60891">
        <ele>1546.8000488281</ele>
        <time>2022-08-20T13:03:54Z</time>
      </trkpt>
      <trkpt lat="44.0709" lon="6.6089">
        <ele>1546.8000488281</ele>
        <time>2022-08-20T13:03:58Z</time>
      </trkpt>
      <trkpt lat="44.0709" lon="6.60889">
        <ele>1546.8000488281</ele>
        <time>2022-08-20T13:04:04Z</time>
      </trkpt>
      <trkpt lat="44.07096" lon="6.60881">
        <ele>1546.8000488281</ele>
        <time>2022-08-20T13:04:10Z</time>
      </trkpt>
      <trkpt lat="44.07101" lon="6.60868">
        <ele>1547</ele>
        <time>2022-08-20T13:04:16Z</time>
      </trkpt>
      <trkpt lat="44.07109" lon="6.6085">
        <ele>1548.1999511719</ele>
        <time>2022-08-20T13:04:24Z</time>
      </trkpt>
      <trkpt lat="44.07111" lon="6.60846">
        <ele>1548.8000488281</ele>
        <time>2022-08-20T13:04:26Z</time>
      </trkpt>
      <trkpt lat="44.07112" lon="6.60844">
        <ele>1549</ele>
        <time>2022-08-20T13:04:27Z</time>
      </trkpt>
      <trkpt lat="44.07113" lon="6.60842">
        <ele>1549</ele>
        <time>2022-08-20T13:04:28Z</time>
      </trkpt>
      <trkpt lat="44.07114" lon="6.60839">
        <ele>1549.1999511719</ele>
        <time>2022-08-20T13:04:29Z</time>
      </trkpt>
      <trkpt lat="44.07116" lon="6.60835">
        <ele>1549.4000244141</ele>
        <time>2022-08-20T13:04:31Z</time>
      </trkpt>
      <trkpt lat="44.07117" lon="6.60833">
        <ele>1549.4000244141</ele>
        <time>2022-08-20T13:04:32Z</time>
      </trkpt>
      <trkpt lat="44.07118" lon="6.60829">
        <ele>1549.5999755859</ele>
        <time>2022-08-20T13:04:34Z</time>
      </trkpt>
      <trkpt lat="44.07118" lon="6.60827">
        <ele>1549.8000488281</ele>
        <time>2022-08-20T13:04:35Z</time>
      </trkpt>
      <trkpt lat="44.07119" lon="6.60821">
        <ele>1550.4000244141</ele>
        <time>2022-08-20T13:04:39Z</time>
      </trkpt>
      <trkpt lat="44.07119" lon="6.60822">
        <ele>1550.4000244141</ele>
        <time>2022-08-20T13:04:40Z</time>
      </trkpt>
      <trkpt lat="44.07119" lon="6.60821">
        <ele>1550.5999755859</ele>
        <time>2022-08-20T13:04:42Z</time>
      </trkpt>
      <trkpt lat="44.07118" lon="6.60821">
        <ele>1550.8000488281</ele>
        <time>2022-08-20T13:04:44Z</time>
      </trkpt>
      <trkpt lat="44.07118" lon="6.6082">
        <ele>1550.8000488281</ele>
        <time>2022-08-20T13:04:45Z</time>
      </trkpt>
      <trkpt lat="44.07117" lon="6.60815">
        <ele>1551</ele>
        <time>2022-08-20T13:04:54Z</time>
      </trkpt>
      <trkpt lat="44.07117" lon="6.60813">
        <ele>1551</ele>
        <time>2022-08-20T13:04:56Z</time>
      </trkpt>
      <trkpt lat="44.07112" lon="6.60803">
        <ele>1551.5999755859</ele>
        <time>2022-08-20T13:05:03Z</time>
      </trkpt>
      <trkpt lat="44.07111" lon="6.60802">
        <ele>1551.8000488281</ele>
        <time>2022-08-20T13:05:04Z</time>
      </trkpt>
      <trkpt lat="44.07108" lon="6.60786">
        <ele>1552.5999755859</ele>
        <time>2022-08-20T13:05:13Z</time>
      </trkpt>
      <trkpt lat="44.07107" lon="6.60781">
        <ele>1552.8000488281</ele>
        <time>2022-08-20T13:05:16Z</time>
      </trkpt>
      <trkpt lat="44.07105" lon="6.60769">
        <ele>1553.5999755859</ele>
        <time>2022-08-20T13:05:23Z</time>
      </trkpt>
      <trkpt lat="44.07105" lon="6.60768">
        <ele>1553.5999755859</ele>
        <time>2022-08-20T13:05:24Z</time>
      </trkpt>
      <trkpt lat="44.07104" lon="6.60766">
        <ele>1553.5999755859</ele>
        <time>2022-08-20T13:05:25Z</time>
      </trkpt>
      <trkpt lat="44.07103" lon="6.60763">
        <ele>1554</ele>
        <time>2022-08-20T13:05:27Z</time>
      </trkpt>
      <trkpt lat="44.071" lon="6.60753">
        <ele>1554.5999755859</ele>
        <time>2022-08-20T13:05:32Z</time>
      </trkpt>
      <trkpt lat="44.07099" lon="6.6075">
        <ele>1555</ele>
        <time>2022-08-20T13:05:34Z</time>
      </trkpt>
      <trkpt lat="44.07097" lon="6.60743">
        <ele>1555.4000244141</ele>
        <time>2022-08-20T13:05:38Z</time>
      </trkpt>
      <trkpt lat="44.07094" lon="6.60732">
        <ele>1555.4000244141</ele>
        <time>2022-08-20T13:05:43Z</time>
      </trkpt>
      <trkpt lat="44.07094" lon="6.60726">
        <ele>1555.4000244141</ele>
        <time>2022-08-20T13:05:45Z</time>
      </trkpt>
      <trkpt lat="44.07089" lon="6.60715">
        <ele>1555.8000488281</ele>
        <time>2022-08-20T13:05:51Z</time>
      </trkpt>
      <trkpt lat="44.07086" lon="6.60712">
        <ele>1556.1999511719</ele>
        <time>2022-08-20T13:05:53Z</time>
      </trkpt>
      <trkpt lat="44.0708" lon="6.60704">
        <ele>1556.8000488281</ele>
        <time>2022-08-20T13:05:58Z</time>
      </trkpt>
      <trkpt lat="44.07077" lon="6.60698">
        <ele>1557.1999511719</ele>
        <time>2022-08-20T13:06:01Z</time>
      </trkpt>
      <trkpt lat="44.07076" lon="6.60696">
        <ele>1557.1999511719</ele>
        <time>2022-08-20T13:06:02Z</time>
      </trkpt>
      <trkpt lat="44.07075" lon="6.60692">
        <ele>1557.4000244141</ele>
        <time>2022-08-20T13:06:04Z</time>
      </trkpt>
      <trkpt lat="44.07071" lon="6.60681">
        <ele>1557.8000488281</ele>
        <time>2022-08-20T13:06:09Z</time>
      </trkpt>
      <trkpt lat="44.07067" lon="6.6067">
        <ele>1558.1999511719</ele>
        <time>2022-08-20T13:06:14Z</time>
      </trkpt>
      <trkpt lat="44.07065" lon="6.60661">
        <ele>1558.8000488281</ele>
        <time>2022-08-20T13:06:18Z</time>
      </trkpt>
      <trkpt lat="44.07064" lon="6.60653">
        <ele>1559.1999511719</ele>
        <time>2022-08-20T13:06:22Z</time>
      </trkpt>
      <trkpt lat="44.07062" lon="6.60644">
        <ele>1559.8000488281</ele>
        <time>2022-08-20T13:06:26Z</time>
      </trkpt>
      <trkpt lat="44.07063" lon="6.60637">
        <ele>1560.4000244141</ele>
        <time>2022-08-20T13:06:29Z</time>
      </trkpt>
      <trkpt lat="44.07062" lon="6.60629">
        <ele>1560.5999755859</ele>
        <time>2022-08-20T13:06:33Z</time>
      </trkpt>
      <trkpt lat="44.0706" lon="6.60615">
        <ele>1561.4000244141</ele>
        <time>2022-08-20T13:06:40Z</time>
      </trkpt>
      <trkpt lat="44.0706" lon="6.60612">
        <ele>1561.5999755859</ele>
        <time>2022-08-20T13:06:41Z</time>
      </trkpt>
      <trkpt lat="44.0706" lon="6.6061">
        <ele>1561.8000488281</ele>
        <time>2022-08-20T13:06:42Z</time>
      </trkpt>
      <trkpt lat="44.07057" lon="6.60604">
        <ele>1562.4000244141</ele>
        <time>2022-08-20T13:06:46Z</time>
      </trkpt>
      <trkpt lat="44.07055" lon="6.60602">
        <ele>1562.5999755859</ele>
        <time>2022-08-20T13:06:47Z</time>
      </trkpt>
      <trkpt lat="44.07047" lon="6.60594">
        <ele>1563.4000244141</ele>
        <time>2022-08-20T13:06:53Z</time>
      </trkpt>
      <trkpt lat="44.07045" lon="6.60592">
        <ele>1563.5999755859</ele>
        <time>2022-08-20T13:06:55Z</time>
      </trkpt>
      <trkpt lat="44.07038" lon="6.60587">
        <ele>1564.4000244141</ele>
        <time>2022-08-20T13:07:01Z</time>
      </trkpt>
      <trkpt lat="44.07034" lon="6.60583">
        <ele>1564.5999755859</ele>
        <time>2022-08-20T13:07:04Z</time>
      </trkpt>
      <trkpt lat="44.07033" lon="6.60583">
        <ele>1564.8000488281</ele>
        <time>2022-08-20T13:07:05Z</time>
      </trkpt>
      <trkpt lat="44.07033" lon="6.60582">
        <ele>1564.8000488281</ele>
        <time>2022-08-20T13:07:06Z</time>
      </trkpt>
      <trkpt lat="44.07033" lon="6.60582">
        <ele>1564.8000488281</ele>
        <time>2022-08-20T13:07:07Z</time>
      </trkpt>
      <trkpt lat="44.07032" lon="6.60582">
        <ele>1564.8000488281</ele>
        <time>2022-08-20T13:07:11Z</time>
      </trkpt>
      <trkpt lat="44.07032" lon="6.60581">
        <ele>1564.8000488281</ele>
        <time>2022-08-20T13:07:18Z</time>
      </trkpt>
      <trkpt lat="44.07032" lon="6.60581">
        <ele>1564.8000488281</ele>
        <time>2022-08-20T13:07:19Z</time>
      </trkpt>
      <trkpt lat="44.07032" lon="6.60581">
        <ele>1564.8000488281</ele>
        <time>2022-08-20T13:07:22Z</time>
      </trkpt>
      <trkpt lat="44.07032" lon="6.60581">
        <ele>1564.5999755859</ele>
        <time>2022-08-20T13:07:33Z</time>
      </trkpt>
      <trkpt lat="44.07032" lon="6.60584">
        <ele>1564</ele>
        <time>2022-08-20T13:07:45Z</time>
      </trkpt>
      <trkpt lat="44.07032" lon="6.60584">
        <ele>1564</ele>
        <time>2022-08-20T13:07:46Z</time>
      </trkpt>
      <trkpt lat="44.07032" lon="6.60584">
        <ele>1564.4000244141</ele>
        <time>2022-08-20T13:07:50Z</time>
      </trkpt>
      <trkpt lat="44.07029" lon="6.60582">
        <ele>1564.5999755859</ele>
        <time>2022-08-20T13:07:59Z</time>
      </trkpt>
      <trkpt lat="44.07022" lon="6.60581">
        <ele>1565</ele>
        <time>2022-08-20T13:08:03Z</time>
      </trkpt>
      <trkpt lat="44.07018" lon="6.60579">
        <ele>1565.4000244141</ele>
        <time>2022-08-20T13:08:06Z</time>
      </trkpt>
      <trkpt lat="44.07014" lon="6.60578">
        <ele>1565.8000488281</ele>
        <time>2022-08-20T13:08:08Z</time>
      </trkpt>
      <trkpt lat="44.07005" lon="6.60577">
        <ele>1567</ele>
        <time>2022-08-20T13:08:14Z</time>
      </trkpt>
      <trkpt lat="44.07003" lon="6.60577">
        <ele>1567</ele>
        <time>2022-08-20T13:08:15Z</time>
      </trkpt>
      <trkpt lat="44.06998" lon="6.60576">
        <ele>1567.1999511719</ele>
        <time>2022-08-20T13:08:18Z</time>
      </trkpt>
      <trkpt lat="44.06991" lon="6.6057">
        <ele>1568</ele>
        <time>2022-08-20T13:08:23Z</time>
      </trkpt>
      <trkpt lat="44.0699" lon="6.60568">
        <ele>1568.4000244141</ele>
        <time>2022-08-20T13:08:24Z</time>
      </trkpt>
      <trkpt lat="44.06989" lon="6.60566">
        <ele>1568.5999755859</ele>
        <time>2022-08-20T13:08:26Z</time>
      </trkpt>
      <trkpt lat="44.06987" lon="6.6056">
        <ele>1568.8000488281</ele>
        <time>2022-08-20T13:08:29Z</time>
      </trkpt>
      <trkpt lat="44.06986" lon="6.60558">
        <ele>1568.8000488281</ele>
        <time>2022-08-20T13:08:30Z</time>
      </trkpt>
      <trkpt lat="44.06983" lon="6.60555">
        <ele>1569.1999511719</ele>
        <time>2022-08-20T13:08:32Z</time>
      </trkpt>
      <trkpt lat="44.06981" lon="6.6055">
        <ele>1569.5999755859</ele>
        <time>2022-08-20T13:08:34Z</time>
      </trkpt>
      <trkpt lat="44.06978" lon="6.60543">
        <ele>1570</ele>
        <time>2022-08-20T13:08:37Z</time>
      </trkpt>
      <trkpt lat="44.06976" lon="6.60537">
        <ele>1570</ele>
        <time>2022-08-20T13:08:39Z</time>
      </trkpt>
      <trkpt lat="44.06975" lon="6.60534">
        <ele>1570</ele>
        <time>2022-08-20T13:08:40Z</time>
      </trkpt>
      <trkpt lat="44.06972" lon="6.6052">
        <ele>1570.4000244141</ele>
        <time>2022-08-20T13:08:45Z</time>
      </trkpt>
      <trkpt lat="44.06971" lon="6.60518">
        <ele>1570.4000244141</ele>
        <time>2022-08-20T13:08:46Z</time>
      </trkpt>
      <trkpt lat="44.06968" lon="6.60507">
        <ele>1571.5999755859</ele>
        <time>2022-08-20T13:08:51Z</time>
      </trkpt>
      <trkpt lat="44.06966" lon="6.60505">
        <ele>1572</ele>
        <time>2022-08-20T13:08:52Z</time>
      </trkpt>
      <trkpt lat="44.06958" lon="6.60496">
        <ele>1572.5999755859</ele>
        <time>2022-08-20T13:09:00Z</time>
      </trkpt>
      <trkpt lat="44.06959" lon="6.60496">
        <ele>1572.8000488281</ele>
        <time>2022-08-20T13:09:02Z</time>
      </trkpt>
      <trkpt lat="44.06959" lon="6.60496">
        <ele>1572.8000488281</ele>
        <time>2022-08-20T13:09:03Z</time>
      </trkpt>
      <trkpt lat="44.06958" lon="6.60494">
        <ele>1572.5999755859</ele>
        <time>2022-08-20T13:09:11Z</time>
      </trkpt>
      <trkpt lat="44.06956" lon="6.60491">
        <ele>1573.8000488281</ele>
        <time>2022-08-20T13:09:19Z</time>
      </trkpt>
      <trkpt lat="44.06956" lon="6.6049">
        <ele>1573.8000488281</ele>
        <time>2022-08-20T13:09:20Z</time>
      </trkpt>
      <trkpt lat="44.06957" lon="6.6049">
        <ele>1573.8000488281</ele>
        <time>2022-08-20T13:09:29Z</time>
      </trkpt>
      <trkpt lat="44.06957" lon="6.60485">
        <ele>1574.8000488281</ele>
        <time>2022-08-20T13:09:42Z</time>
      </trkpt>
      <trkpt lat="44.06955" lon="6.60484">
        <ele>1574.8000488281</ele>
        <time>2022-08-20T13:09:47Z</time>
      </trkpt>
      <trkpt lat="44.06956" lon="6.60484">
        <ele>1574.8000488281</ele>
        <time>2022-08-20T13:09:51Z</time>
      </trkpt>
      <trkpt lat="44.06949" lon="6.6048">
        <ele>1574.5999755859</ele>
        <time>2022-08-20T13:10:02Z</time>
      </trkpt>
      <trkpt lat="44.06947" lon="6.60479">
        <ele>1574.5999755859</ele>
        <time>2022-08-20T13:10:03Z</time>
      </trkpt>
      <trkpt lat="44.06936" lon="6.60471">
        <ele>1575.1999511719</ele>
        <time>2022-08-20T13:10:09Z</time>
      </trkpt>
      <trkpt lat="44.06929" lon="6.60468">
        <ele>1575.8000488281</ele>
        <time>2022-08-20T13:10:13Z</time>
      </trkpt>
      <trkpt lat="44.06922" lon="6.60462">
        <ele>1576.1999511719</ele>
        <time>2022-08-20T13:10:17Z</time>
      </trkpt>
      <trkpt lat="44.06917" lon="6.60458">
        <ele>1576.5999755859</ele>
        <time>2022-08-20T13:10:20Z</time>
      </trkpt>
      <trkpt lat="44.06912" lon="6.60454">
        <ele>1577</ele>
        <time>2022-08-20T13:10:23Z</time>
      </trkpt>
      <trkpt lat="44.06903" lon="6.60447">
        <ele>1577.4000244141</ele>
        <time>2022-08-20T13:10:28Z</time>
      </trkpt>
      <trkpt lat="44.06881" lon="6.60437">
        <ele>1576.5999755859</ele>
        <time>2022-08-20T13:10:36Z</time>
      </trkpt>
      <trkpt lat="44.06871" lon="6.6043">
        <ele>1575.5999755859</ele>
        <time>2022-08-20T13:10:39Z</time>
      </trkpt>
      <trkpt lat="44.06862" lon="6.60423">
        <ele>1574.4000244141</ele>
        <time>2022-08-20T13:10:42Z</time>
      </trkpt>
      <trkpt lat="44.06859" lon="6.60421">
        <ele>1574.1999511719</ele>
        <time>2022-08-20T13:10:43Z</time>
      </trkpt>
      <trkpt lat="44.06853" lon="6.60408">
        <ele>1573.4000244141</ele>
        <time>2022-08-20T13:10:46Z</time>
      </trkpt>
      <trkpt lat="44.06853" lon="6.60403">
        <ele>1573</ele>
        <time>2022-08-20T13:10:47Z</time>
      </trkpt>
      <trkpt lat="44.06855" lon="6.60392">
        <ele>1572.1999511719</ele>
        <time>2022-08-20T13:10:49Z</time>
      </trkpt>
      <trkpt lat="44.0686" lon="6.60383">
        <ele>1572</ele>
        <time>2022-08-20T13:10:51Z</time>
      </trkpt>
      <trkpt lat="44.06867" lon="6.60374">
        <ele>1571.5999755859</ele>
        <time>2022-08-20T13:10:53Z</time>
      </trkpt>
      <trkpt lat="44.06875" lon="6.60369">
        <ele>1571.4000244141</ele>
        <time>2022-08-20T13:10:55Z</time>
      </trkpt>
      <trkpt lat="44.06879" lon="6.60367">
        <ele>1571.5999755859</ele>
        <time>2022-08-20T13:10:56Z</time>
      </trkpt>
      <trkpt lat="44.06886" lon="6.60365">
        <ele>1571.5999755859</ele>
        <time>2022-08-20T13:10:58Z</time>
      </trkpt>
      <trkpt lat="44.06895" lon="6.60359">
        <ele>1571.8000488281</ele>
        <time>2022-08-20T13:11:01Z</time>
      </trkpt>
      <trkpt lat="44.06913" lon="6.60347">
        <ele>1571.8000488281</ele>
        <time>2022-08-20T13:11:07Z</time>
      </trkpt>
      <trkpt lat="44.06916" lon="6.60346">
        <ele>1571.8000488281</ele>
        <time>2022-08-20T13:11:08Z</time>
      </trkpt>
      <trkpt lat="44.06931" lon="6.60338">
        <ele>1571.4000244141</ele>
        <time>2022-08-20T13:11:13Z</time>
      </trkpt>
      <trkpt lat="44.06937" lon="6.60336">
        <ele>1571.4000244141</ele>
        <time>2022-08-20T13:11:15Z</time>
      </trkpt>
      <trkpt lat="44.0694" lon="6.60336">
        <ele>1571.5999755859</ele>
        <time>2022-08-20T13:11:16Z</time>
      </trkpt>
      <trkpt lat="44.06946" lon="6.60332">
        <ele>1571.5999755859</ele>
        <time>2022-08-20T13:11:18Z</time>
      </trkpt>
      <trkpt lat="44.06958" lon="6.60326">
        <ele>1571.8000488281</ele>
        <time>2022-08-20T13:11:21Z</time>
      </trkpt>
      <trkpt lat="44.06974" lon="6.60319">
        <ele>1572</ele>
        <time>2022-08-20T13:11:25Z</time>
      </trkpt>
      <trkpt lat="44.06983" lon="6.60315">
        <ele>1572</ele>
        <time>2022-08-20T13:11:27Z</time>
      </trkpt>
      <trkpt lat="44.07" lon="6.60306">
        <ele>1571.8000488281</ele>
        <time>2022-08-20T13:11:31Z</time>
      </trkpt>
      <trkpt lat="44.07015" lon="6.60293">
        <ele>1571.4000244141</ele>
        <time>2022-08-20T13:11:34Z</time>
      </trkpt>
      <trkpt lat="44.07021" lon="6.60289">
        <ele>1571.1999511719</ele>
        <time>2022-08-20T13:11:35Z</time>
      </trkpt>
      <trkpt lat="44.07037" lon="6.60275">
        <ele>1569.8000488281</ele>
        <time>2022-08-20T13:11:38Z</time>
      </trkpt>
      <trkpt lat="44.07048" lon="6.60266">
        <ele>1569.1999511719</ele>
        <time>2022-08-20T13:11:40Z</time>
      </trkpt>
      <trkpt lat="44.07064" lon="6.60253">
        <ele>1568.5999755859</ele>
        <time>2022-08-20T13:11:43Z</time>
      </trkpt>
      <trkpt lat="44.07081" lon="6.6024">
        <ele>1568.1999511719</ele>
        <time>2022-08-20T13:11:46Z</time>
      </trkpt>
      <trkpt lat="44.07087" lon="6.60236">
        <ele>1568</ele>
        <time>2022-08-20T13:11:47Z</time>
      </trkpt>
      <trkpt lat="44.07115" lon="6.60215">
        <ele>1567.8000488281</ele>
        <time>2022-08-20T13:11:52Z</time>
      </trkpt>
      <trkpt lat="44.07125" lon="6.60208">
        <ele>1567.8000488281</ele>
        <time>2022-08-20T13:11:54Z</time>
      </trkpt>
      <trkpt lat="44.07151" lon="6.60198">
        <ele>1568.5999755859</ele>
        <time>2022-08-20T13:11:59Z</time>
      </trkpt>
      <trkpt lat="44.07156" lon="6.60196">
        <ele>1568.8000488281</ele>
        <time>2022-08-20T13:12:00Z</time>
      </trkpt>
      <trkpt lat="44.0716" lon="6.60195">
        <ele>1569.4000244141</ele>
        <time>2022-08-20T13:12:01Z</time>
      </trkpt>
      <trkpt lat="44.07163" lon="6.60194">
        <ele>1569.8000488281</ele>
        <time>2022-08-20T13:12:02Z</time>
      </trkpt>
      <trkpt lat="44.07172" lon="6.6019">
        <ele>1571</ele>
        <time>2022-08-20T13:12:05Z</time>
      </trkpt>
      <trkpt lat="44.07174" lon="6.60189">
        <ele>1571.4000244141</ele>
        <time>2022-08-20T13:12:06Z</time>
      </trkpt>
      <trkpt lat="44.07179" lon="6.60188">
        <ele>1572.1999511719</ele>
        <time>2022-08-20T13:12:08Z</time>
      </trkpt>
      <trkpt lat="44.07184" lon="6.60187">
        <ele>1573</ele>
        <time>2022-08-20T13:12:10Z</time>
      </trkpt>
      <trkpt lat="44.07188" lon="6.60187">
        <ele>1573.5999755859</ele>
        <time>2022-08-20T13:12:12Z</time>
      </trkpt>
      <trkpt lat="44.07195" lon="6.60186">
        <ele>1574.5999755859</ele>
        <time>2022-08-20T13:12:17Z</time>
      </trkpt>
      <trkpt lat="44.07197" lon="6.60186">
        <ele>1574.8000488281</ele>
        <time>2022-08-20T13:12:18Z</time>
      </trkpt>
      <trkpt lat="44.072" lon="6.60186">
        <ele>1575.1999511719</ele>
        <time>2022-08-20T13:12:20Z</time>
      </trkpt>
      <trkpt lat="44.07204" lon="6.60184">
        <ele>1575.5999755859</ele>
        <time>2022-08-20T13:12:22Z</time>
      </trkpt>
      <trkpt lat="44.07205" lon="6.60182">
        <ele>1575.8000488281</ele>
        <time>2022-08-20T13:12:23Z</time>
      </trkpt>
      <trkpt lat="44.07209" lon="6.6018">
        <ele>1576.1999511719</ele>
        <time>2022-08-20T13:12:26Z</time>
      </trkpt>
      <trkpt lat="44.07211" lon="6.6018">
        <ele>1576.4000244141</ele>
        <time>2022-08-20T13:12:27Z</time>
      </trkpt>
      <trkpt lat="44.07217" lon="6.60177">
        <ele>1576.8000488281</ele>
        <time>2022-08-20T13:12:30Z</time>
      </trkpt>
      <trkpt lat="44.07219" lon="6.60176">
        <ele>1576.8000488281</ele>
        <time>2022-08-20T13:12:31Z</time>
      </trkpt>
      <trkpt lat="44.07227" lon="6.60172">
        <ele>1577.4000244141</ele>
        <time>2022-08-20T13:12:36Z</time>
      </trkpt>
      <trkpt lat="44.07233" lon="6.6017">
        <ele>1577.8000488281</ele>
        <time>2022-08-20T13:12:39Z</time>
      </trkpt>
      <trkpt lat="44.07235" lon="6.6017">
        <ele>1578</ele>
        <time>2022-08-20T13:12:40Z</time>
      </trkpt>
      <trkpt lat="44.07247" lon="6.60164">
        <ele>1578.5999755859</ele>
        <time>2022-08-20T13:12:47Z</time>
      </trkpt>
      <trkpt lat="44.07249" lon="6.60163">
        <ele>1578.8000488281</ele>
        <time>2022-08-20T13:12:48Z</time>
      </trkpt>
      <trkpt lat="44.07252" lon="6.60161">
        <ele>1579</ele>
        <time>2022-08-20T13:12:50Z</time>
      </trkpt>
      <trkpt lat="44.07263" lon="6.60152">
        <ele>1579.4000244141</ele>
        <time>2022-08-20T13:12:56Z</time>
      </trkpt>
      <trkpt lat="44.07278" lon="6.60139">
        <ele>1580</ele>
        <time>2022-08-20T13:13:05Z</time>
      </trkpt>
      <trkpt lat="44.07293" lon="6.60133">
        <ele>1580.4000244141</ele>
        <time>2022-08-20T13:13:12Z</time>
      </trkpt>
      <trkpt lat="44.07295" lon="6.60132">
        <ele>1580.5999755859</ele>
        <time>2022-08-20T13:13:13Z</time>
      </trkpt>
      <trkpt lat="44.07303" lon="6.60127">
        <ele>1581</ele>
        <time>2022-08-20T13:13:17Z</time>
      </trkpt>
      <trkpt lat="44.07312" lon="6.60123">
        <ele>1581.5999755859</ele>
        <time>2022-08-20T13:13:21Z</time>
      </trkpt>
      <trkpt lat="44.07319" lon="6.60118">
        <ele>1582</ele>
        <time>2022-08-20T13:13:25Z</time>
      </trkpt>
      <trkpt lat="44.07323" lon="6.60113">
        <ele>1582.4000244141</ele>
        <time>2022-08-20T13:13:28Z</time>
      </trkpt>
      <trkpt lat="44.07334" lon="6.60103">
        <ele>1583.1999511719</ele>
        <time>2022-08-20T13:13:34Z</time>
      </trkpt>
      <trkpt lat="44.07335" lon="6.60101">
        <ele>1583.1999511719</ele>
        <time>2022-08-20T13:13:35Z</time>
      </trkpt>
      <trkpt lat="44.07345" lon="6.60093">
        <ele>1584</ele>
        <time>2022-08-20T13:13:41Z</time>
      </trkpt>
      <trkpt lat="44.07346" lon="6.60092">
        <ele>1584.1999511719</ele>
        <time>2022-08-20T13:13:42Z</time>
      </trkpt>
      <trkpt lat="44.07359" lon="6.60078">
        <ele>1584.8000488281</ele>
        <time>2022-08-20T13:13:50Z</time>
      </trkpt>
      <trkpt lat="44.07364" lon="6.60073">
        <ele>1585.1999511719</ele>
        <time>2022-08-20T13:13:53Z</time>
      </trkpt>
      <trkpt lat="44.07366" lon="6.60072">
        <ele>1585.4000244141</ele>
        <time>2022-08-20T13:13:54Z</time>
      </trkpt>
      <trkpt lat="44.07373" lon="6.60066">
        <ele>1586</ele>
        <time>2022-08-20T13:13:58Z</time>
      </trkpt>
      <trkpt lat="44.07374" lon="6.60065">
        <ele>1586.1999511719</ele>
        <time>2022-08-20T13:13:59Z</time>
      </trkpt>
      <trkpt lat="44.07381" lon="6.6006">
        <ele>1587</ele>
        <time>2022-08-20T13:14:04Z</time>
      </trkpt>
      <trkpt lat="44.07383" lon="6.60057">
        <ele>1587.1999511719</ele>
        <time>2022-08-20T13:14:06Z</time>
      </trkpt>
      <trkpt lat="44.07392" lon="6.6005">
        <ele>1588.1999511719</ele>
        <time>2022-08-20T13:14:13Z</time>
      </trkpt>
      <trkpt lat="44.07393" lon="6.60049">
        <ele>1588.4000244141</ele>
        <time>2022-08-20T13:14:14Z</time>
      </trkpt>
      <trkpt lat="44.07396" lon="6.60045">
        <ele>1588.8000488281</ele>
        <time>2022-08-20T13:14:17Z</time>
      </trkpt>
      <trkpt lat="44.07398" lon="6.60043">
        <ele>1589</ele>
        <time>2022-08-20T13:14:19Z</time>
      </trkpt>
      <trkpt lat="44.07401" lon="6.6004">
        <ele>1589.4000244141</ele>
        <time>2022-08-20T13:14:22Z</time>
      </trkpt>
      <trkpt lat="44.07407" lon="6.60037">
        <ele>1590</ele>
        <time>2022-08-20T13:14:27Z</time>
      </trkpt>
      <trkpt lat="44.07411" lon="6.60033">
        <ele>1590.5999755859</ele>
        <time>2022-08-20T13:14:31Z</time>
      </trkpt>
      <trkpt lat="44.07415" lon="6.60029">
        <ele>1590.8000488281</ele>
        <time>2022-08-20T13:14:34Z</time>
      </trkpt>
      <trkpt lat="44.07419" lon="6.60026">
        <ele>1591.1999511719</ele>
        <time>2022-08-20T13:14:38Z</time>
      </trkpt>
      <trkpt lat="44.07422" lon="6.60023">
        <ele>1591.1999511719</ele>
        <time>2022-08-20T13:14:40Z</time>
      </trkpt>
      <trkpt lat="44.07423" lon="6.60021">
        <ele>1591.4000244141</ele>
        <time>2022-08-20T13:14:41Z</time>
      </trkpt>
      <trkpt lat="44.07424" lon="6.60011">
        <ele>1591.5999755859</ele>
        <time>2022-08-20T13:14:45Z</time>
      </trkpt>
      <trkpt lat="44.07423" lon="6.60003">
        <ele>1592.1999511719</ele>
        <time>2022-08-20T13:14:48Z</time>
      </trkpt>
      <trkpt lat="44.07422" lon="6.59997">
        <ele>1592.8000488281</ele>
        <time>2022-08-20T13:14:51Z</time>
      </trkpt>
      <trkpt lat="44.07419" lon="6.59985">
        <ele>1594</ele>
        <time>2022-08-20T13:14:57Z</time>
      </trkpt>
      <trkpt lat="44.07418" lon="6.59983">
        <ele>1594.1999511719</ele>
        <time>2022-08-20T13:14:58Z</time>
      </trkpt>
      <trkpt lat="44.07414" lon="6.59976">
        <ele>1595.1999511719</ele>
        <time>2022-08-20T13:15:03Z</time>
      </trkpt>
      <trkpt lat="44.07413" lon="6.59975">
        <ele>1595.1999511719</ele>
        <time>2022-08-20T13:15:04Z</time>
      </trkpt>
      <trkpt lat="44.0741" lon="6.59972">
        <ele>1595.4000244141</ele>
        <time>2022-08-20T13:15:07Z</time>
      </trkpt>
      <trkpt lat="44.07403" lon="6.59965">
        <ele>1596.1999511719</ele>
        <time>2022-08-20T13:15:13Z</time>
      </trkpt>
      <trkpt lat="44.07394" lon="6.59956">
        <ele>1597.1999511719</ele>
        <time>2022-08-20T13:15:21Z</time>
      </trkpt>
      <trkpt lat="44.07384" lon="6.59949">
        <ele>1598</ele>
        <time>2022-08-20T13:15:28Z</time>
      </trkpt>
      <trkpt lat="44.07371" lon="6.59941">
        <ele>1598.4000244141</ele>
        <time>2022-08-20T13:15:36Z</time>
      </trkpt>
      <trkpt lat="44.07369" lon="6.59941">
        <ele>1598.4000244141</ele>
        <time>2022-08-20T13:15:37Z</time>
      </trkpt>
      <trkpt lat="44.07359" lon="6.59934">
        <ele>1599</ele>
        <time>2022-08-20T13:15:44Z</time>
      </trkpt>
      <trkpt lat="44.07357" lon="6.5993">
        <ele>1599.4000244141</ele>
        <time>2022-08-20T13:15:46Z</time>
      </trkpt>
      <trkpt lat="44.07355" lon="6.59925">
        <ele>1599.8000488281</ele>
        <time>2022-08-20T13:15:49Z</time>
      </trkpt>
      <trkpt lat="44.07355" lon="6.59921">
        <ele>1600.1999511719</ele>
        <time>2022-08-20T13:15:51Z</time>
      </trkpt>
      <trkpt lat="44.07356" lon="6.5992">
        <ele>1600.4000244141</ele>
        <time>2022-08-20T13:15:52Z</time>
      </trkpt>
      <trkpt lat="44.07358" lon="6.59917">
        <ele>1600.5999755859</ele>
        <time>2022-08-20T13:15:54Z</time>
      </trkpt>
      <trkpt lat="44.07362" lon="6.59916">
        <ele>1601</ele>
        <time>2022-08-20T13:15:56Z</time>
      </trkpt>
      <trkpt lat="44.07371" lon="6.59918">
        <ele>1601.4000244141</ele>
        <time>2022-08-20T13:16:02Z</time>
      </trkpt>
      <trkpt lat="44.07372" lon="6.59919">
        <ele>1601.5999755859</ele>
        <time>2022-08-20T13:16:03Z</time>
      </trkpt>
      <trkpt lat="44.07382" lon="6.59922">
        <ele>1602</ele>
        <time>2022-08-20T13:16:09Z</time>
      </trkpt>
      <trkpt lat="44.074" lon="6.59922">
        <ele>1602.5999755859</ele>
        <time>2022-08-20T13:16:19Z</time>
      </trkpt>
      <trkpt lat="44.07412" lon="6.59917">
        <ele>1603.4000244141</ele>
        <time>2022-08-20T13:16:27Z</time>
      </trkpt>
      <trkpt lat="44.07413" lon="6.59916">
        <ele>1603.4000244141</ele>
        <time>2022-08-20T13:16:28Z</time>
      </trkpt>
      <trkpt lat="44.07415" lon="6.59913">
        <ele>1603.5999755859</ele>
        <time>2022-08-20T13:16:30Z</time>
      </trkpt>
      <trkpt lat="44.0742" lon="6.5991">
        <ele>1603.8000488281</ele>
        <time>2022-08-20T13:16:34Z</time>
      </trkpt>
      <trkpt lat="44.07423" lon="6.59909">
        <ele>1603.8000488281</ele>
        <time>2022-08-20T13:16:38Z</time>
      </trkpt>
      <trkpt lat="44.07423" lon="6.59909">
        <ele>1603.8000488281</ele>
        <time>2022-08-20T13:16:40Z</time>
      </trkpt>
      <trkpt lat="44.07424" lon="6.59908">
        <ele>1603.8000488281</ele>
        <time>2022-08-20T13:16:44Z</time>
      </trkpt>
      <trkpt lat="44.07432" lon="6.59906">
        <ele>1604</ele>
        <time>2022-08-20T13:16:50Z</time>
      </trkpt>
      <trkpt lat="44.07437" lon="6.59904">
        <ele>1604</ele>
        <time>2022-08-20T13:16:53Z</time>
      </trkpt>
      <trkpt lat="44.07452" lon="6.59902">
        <ele>1603.8000488281</ele>
        <time>2022-08-20T13:17:00Z</time>
      </trkpt>
      <trkpt lat="44.07454" lon="6.59901">
        <ele>1603.8000488281</ele>
        <time>2022-08-20T13:17:01Z</time>
      </trkpt>
      <trkpt lat="44.07477" lon="6.59894">
        <ele>1603.4000244141</ele>
        <time>2022-08-20T13:17:10Z</time>
      </trkpt>
      <trkpt lat="44.07479" lon="6.59892">
        <ele>1603.4000244141</ele>
        <time>2022-08-20T13:17:11Z</time>
      </trkpt>
      <trkpt lat="44.07498" lon="6.59883">
        <ele>1603.5999755859</ele>
        <time>2022-08-20T13:17:18Z</time>
      </trkpt>
      <trkpt lat="44.07504" lon="6.59881">
        <ele>1603.8000488281</ele>
        <time>2022-08-20T13:17:21Z</time>
      </trkpt>
      <trkpt lat="44.07508" lon="6.5988">
        <ele>1603.8000488281</ele>
        <time>2022-08-20T13:17:23Z</time>
      </trkpt>
      <trkpt lat="44.07528" lon="6.59873">
        <ele>1604.4000244141</ele>
        <time>2022-08-20T13:17:31Z</time>
      </trkpt>
      <trkpt lat="44.07537" lon="6.59871">
        <ele>1604.5999755859</ele>
        <time>2022-08-20T13:17:34Z</time>
      </trkpt>
      <trkpt lat="44.07549" lon="6.5987">
        <ele>1605.1999511719</ele>
        <time>2022-08-20T13:17:38Z</time>
      </trkpt>
      <trkpt lat="44.07563" lon="6.59867">
        <ele>1605.8000488281</ele>
        <time>2022-08-20T13:17:43Z</time>
      </trkpt>
      <trkpt lat="44.07574" lon="6.59866">
        <ele>1606.1999511719</ele>
        <time>2022-08-20T13:17:47Z</time>
      </trkpt>
      <trkpt lat="44.07598" lon="6.59866">
        <ele>1606.8000488281</ele>
        <time>2022-08-20T13:17:55Z</time>
      </trkpt>
      <trkpt lat="44.07601" lon="6.59866">
        <ele>1606.8000488281</ele>
        <time>2022-08-20T13:17:56Z</time>
      </trkpt>
      <trkpt lat="44.0762" lon="6.5987">
        <ele>1607.8000488281</ele>
        <time>2022-08-20T13:18:03Z</time>
      </trkpt>
      <trkpt lat="44.07625" lon="6.59872">
        <ele>1608</ele>
        <time>2022-08-20T13:18:05Z</time>
      </trkpt>
      <trkpt lat="44.07638" lon="6.59875">
        <ele>1608.5999755859</ele>
        <time>2022-08-20T13:18:10Z</time>
      </trkpt>
      <trkpt lat="44.07652" lon="6.59879">
        <ele>1609</ele>
        <time>2022-08-20T13:18:15Z</time>
      </trkpt>
      <trkpt lat="44.07661" lon="6.59881">
        <ele>1609.1999511719</ele>
        <time>2022-08-20T13:18:18Z</time>
      </trkpt>
      <trkpt lat="44.07683" lon="6.59888">
        <ele>1610</ele>
        <time>2022-08-20T13:18:26Z</time>
      </trkpt>
      <trkpt lat="44.07686" lon="6.59888">
        <ele>1610</ele>
        <time>2022-08-20T13:18:27Z</time>
      </trkpt>
      <trkpt lat="44.07703" lon="6.59892">
        <ele>1610.8000488281</ele>
        <time>2022-08-20T13:18:34Z</time>
      </trkpt>
      <trkpt lat="44.07717" lon="6.59896">
        <ele>1611</ele>
        <time>2022-08-20T13:18:39Z</time>
      </trkpt>
      <trkpt lat="44.07729" lon="6.59897">
        <ele>1611.4000244141</ele>
        <time>2022-08-20T13:18:43Z</time>
      </trkpt>
      <trkpt lat="44.07744" lon="6.59902">
        <ele>1612</ele>
        <time>2022-08-20T13:18:49Z</time>
      </trkpt>
      <trkpt lat="44.07747" lon="6.59903">
        <ele>1612.1999511719</ele>
        <time>2022-08-20T13:18:50Z</time>
      </trkpt>
      <trkpt lat="44.07758" lon="6.59914">
        <ele>1612.4000244141</ele>
        <time>2022-08-20T13:18:55Z</time>
      </trkpt>
      <trkpt lat="44.0777" lon="6.59923">
        <ele>1612.8000488281</ele>
        <time>2022-08-20T13:19:00Z</time>
      </trkpt>
      <trkpt lat="44.07772" lon="6.59923">
        <ele>1612.8000488281</ele>
        <time>2022-08-20T13:19:01Z</time>
      </trkpt>
      <trkpt lat="44.07801" lon="6.59919">
        <ele>1612.8000488281</ele>
        <time>2022-08-20T13:19:11Z</time>
      </trkpt>
      <trkpt lat="44.07812" lon="6.59923">
        <ele>1613.1999511719</ele>
        <time>2022-08-20T13:19:15Z</time>
      </trkpt>
      <trkpt lat="44.07815" lon="6.59924">
        <ele>1613.1999511719</ele>
        <time>2022-08-20T13:19:16Z</time>
      </trkpt>
      <trkpt lat="44.07818" lon="6.59925">
        <ele>1613.4000244141</ele>
        <time>2022-08-20T13:19:17Z</time>
      </trkpt>
      <trkpt lat="44.07829" lon="6.5993">
        <ele>1614</ele>
        <time>2022-08-20T13:19:23Z</time>
      </trkpt>
      <trkpt lat="44.0783" lon="6.5993">
        <ele>1614.1999511719</ele>
        <time>2022-08-20T13:19:24Z</time>
      </trkpt>
      <trkpt lat="44.07834" lon="6.59932">
        <ele>1614.5999755859</ele>
        <time>2022-08-20T13:19:27Z</time>
      </trkpt>
      <trkpt lat="44.07842" lon="6.59934">
        <ele>1615.1999511719</ele>
        <time>2022-08-20T13:19:33Z</time>
      </trkpt>
      <trkpt lat="44.07843" lon="6.59933">
        <ele>1615.4000244141</ele>
        <time>2022-08-20T13:19:34Z</time>
      </trkpt>
      <trkpt lat="44.07852" lon="6.59928">
        <ele>1616</ele>
        <time>2022-08-20T13:19:40Z</time>
      </trkpt>
      <trkpt lat="44.07854" lon="6.59926">
        <ele>1616.1999511719</ele>
        <time>2022-08-20T13:19:42Z</time>
      </trkpt>
      <trkpt lat="44.0786" lon="6.59921">
        <ele>1617</ele>
        <time>2022-08-20T13:19:47Z</time>
      </trkpt>
      <trkpt lat="44.07864" lon="6.59918">
        <ele>1617.4000244141</ele>
        <time>2022-08-20T13:19:50Z</time>
      </trkpt>
      <trkpt lat="44.0787" lon="6.59916">
        <ele>1618</ele>
        <time>2022-08-20T13:19:55Z</time>
      </trkpt>
      <trkpt lat="44.07874" lon="6.59914">
        <ele>1618.4000244141</ele>
        <time>2022-08-20T13:19:58Z</time>
      </trkpt>
      <trkpt lat="44.07884" lon="6.59911">
        <ele>1619.5999755859</ele>
        <time>2022-08-20T13:20:05Z</time>
      </trkpt>
      <trkpt lat="44.07889" lon="6.59907">
        <ele>1620</ele>
        <time>2022-08-20T13:20:09Z</time>
      </trkpt>
      <trkpt lat="44.07897" lon="6.59903">
        <ele>1620.5999755859</ele>
        <time>2022-08-20T13:20:14Z</time>
      </trkpt>
      <trkpt lat="44.07898" lon="6.59901">
        <ele>1620.5999755859</ele>
        <time>2022-08-20T13:20:15Z</time>
      </trkpt>
      <trkpt lat="44.07907" lon="6.59894">
        <ele>1621.5999755859</ele>
        <time>2022-08-20T13:20:22Z</time>
      </trkpt>
      <trkpt lat="44.0791" lon="6.59892">
        <ele>1621.8000488281</ele>
        <time>2022-08-20T13:20:24Z</time>
      </trkpt>
      <trkpt lat="44.0792" lon="6.59888">
        <ele>1622.5999755859</ele>
        <time>2022-08-20T13:20:31Z</time>
      </trkpt>
      <trkpt lat="44.07925" lon="6.59887">
        <ele>1623</ele>
        <time>2022-08-20T13:20:34Z</time>
      </trkpt>
      <trkpt lat="44.0794" lon="6.59879">
        <ele>1623</ele>
        <time>2022-08-20T13:20:41Z</time>
      </trkpt>
      <trkpt lat="44.07947" lon="6.59876">
        <ele>1623</ele>
        <time>2022-08-20T13:20:44Z</time>
      </trkpt>
      <trkpt lat="44.07955" lon="6.59871">
        <ele>1623.4000244141</ele>
        <time>2022-08-20T13:20:48Z</time>
      </trkpt>
      <trkpt lat="44.07956" lon="6.5987">
        <ele>1623.5999755859</ele>
        <time>2022-08-20T13:20:49Z</time>
      </trkpt>
      <trkpt lat="44.07958" lon="6.59868">
        <ele>1623.8000488281</ele>
        <time>2022-08-20T13:20:50Z</time>
      </trkpt>
      <trkpt lat="44.07964" lon="6.5986">
        <ele>1624.1999511719</ele>
        <time>2022-08-20T13:20:54Z</time>
      </trkpt>
      <trkpt lat="44.07965" lon="6.59856">
        <ele>1624.4000244141</ele>
        <time>2022-08-20T13:20:56Z</time>
      </trkpt>
      <trkpt lat="44.07965" lon="6.59855">
        <ele>1624.4000244141</ele>
        <time>2022-08-20T13:20:57Z</time>
      </trkpt>
      <trkpt lat="44.07965" lon="6.59855">
        <ele>1624.5999755859</ele>
        <time>2022-08-20T13:20:59Z</time>
      </trkpt>
      <trkpt lat="44.07966" lon="6.59854">
        <ele>1624.8000488281</ele>
        <time>2022-08-20T13:21:01Z</time>
      </trkpt>
      <trkpt lat="44.07966" lon="6.59854">
        <ele>1624.8000488281</ele>
        <time>2022-08-20T13:21:04Z</time>
      </trkpt>
      <trkpt lat="44.07966" lon="6.59852">
        <ele>1624.5999755859</ele>
        <time>2022-08-20T13:21:12Z</time>
      </trkpt>
      <trkpt lat="44.07967" lon="6.59853">
        <ele>1624.1999511719</ele>
        <time>2022-08-20T13:21:21Z</time>
      </trkpt>
      <trkpt lat="44.07967" lon="6.59852">
        <ele>1624.5999755859</ele>
        <time>2022-08-20T13:21:29Z</time>
      </trkpt>
      <trkpt lat="44.07971" lon="6.59848">
        <ele>1625</ele>
        <time>2022-08-20T13:21:35Z</time>
      </trkpt>
      <trkpt lat="44.07971" lon="6.59842">
        <ele>1625.4000244141</ele>
        <time>2022-08-20T13:21:41Z</time>
      </trkpt>
      <trkpt lat="44.07973" lon="6.59836">
        <ele>1625.5999755859</ele>
        <time>2022-08-20T13:21:44Z</time>
      </trkpt>
      <trkpt lat="44.07974" lon="6.59829">
        <ele>1625.8000488281</ele>
        <time>2022-08-20T13:21:46Z</time>
      </trkpt>
      <trkpt lat="44.07975" lon="6.59819">
        <ele>1626.1999511719</ele>
        <time>2022-08-20T13:21:49Z</time>
      </trkpt>
      <trkpt lat="44.07976" lon="6.59811">
        <ele>1626.5999755859</ele>
        <time>2022-08-20T13:21:52Z</time>
      </trkpt>
      <trkpt lat="44.07977" lon="6.59808">
        <ele>1626.8000488281</ele>
        <time>2022-08-20T13:21:53Z</time>
      </trkpt>
      <trkpt lat="44.07978" lon="6.59803">
        <ele>1627.1999511719</ele>
        <time>2022-08-20T13:21:55Z</time>
      </trkpt>
      <trkpt lat="44.07982" lon="6.5979">
        <ele>1628</ele>
        <time>2022-08-20T13:22:00Z</time>
      </trkpt>
      <trkpt lat="44.07985" lon="6.59775">
        <ele>1629</ele>
        <time>2022-08-20T13:22:06Z</time>
      </trkpt>
      <trkpt lat="44.07988" lon="6.59771">
        <ele>1629.1999511719</ele>
        <time>2022-08-20T13:22:08Z</time>
      </trkpt>
      <trkpt lat="44.08002" lon="6.59753">
        <ele>1630</ele>
        <time>2022-08-20T13:22:17Z</time>
      </trkpt>
      <trkpt lat="44.08004" lon="6.59751">
        <ele>1630.1999511719</ele>
        <time>2022-08-20T13:22:18Z</time>
      </trkpt>
      <trkpt lat="44.08021" lon="6.59739">
        <ele>1631</ele>
        <time>2022-08-20T13:22:27Z</time>
      </trkpt>
      <trkpt lat="44.08026" lon="6.59736">
        <ele>1631.1999511719</ele>
        <time>2022-08-20T13:22:29Z</time>
      </trkpt>
      <trkpt lat="44.08034" lon="6.59731">
        <ele>1631.4000244141</ele>
        <time>2022-08-20T13:22:33Z</time>
      </trkpt>
      <trkpt lat="44.08044" lon="6.59726">
        <ele>1632.1999511719</ele>
        <time>2022-08-20T13:22:38Z</time>
      </trkpt>
      <trkpt lat="44.08047" lon="6.59724">
        <ele>1632.4000244141</ele>
        <time>2022-08-20T13:22:40Z</time>
      </trkpt>
      <trkpt lat="44.08058" lon="6.59719">
        <ele>1633.1999511719</ele>
        <time>2022-08-20T13:22:46Z</time>
      </trkpt>
      <trkpt lat="44.0807" lon="6.59714">
        <ele>1634</ele>
        <time>2022-08-20T13:22:52Z</time>
      </trkpt>
      <trkpt lat="44.08074" lon="6.59713">
        <ele>1634.1999511719</ele>
        <time>2022-08-20T13:22:54Z</time>
      </trkpt>
      <trkpt lat="44.0808" lon="6.59712">
        <ele>1634.5999755859</ele>
        <time>2022-08-20T13:22:57Z</time>
      </trkpt>
      <trkpt lat="44.08094" lon="6.5971">
        <ele>1635.1999511719</ele>
        <time>2022-08-20T13:23:01Z</time>
      </trkpt>
      <trkpt lat="44.08103" lon="6.59708">
        <ele>1635.8000488281</ele>
        <time>2022-08-20T13:23:04Z</time>
      </trkpt>
      <trkpt lat="44.08114" lon="6.59693">
        <ele>1636</ele>
        <time>2022-08-20T13:23:09Z</time>
      </trkpt>
      <trkpt lat="44.08116" lon="6.5969">
        <ele>1636.1999511719</ele>
        <time>2022-08-20T13:23:10Z</time>
      </trkpt>
      <trkpt lat="44.08118" lon="6.59688">
        <ele>1636.4000244141</ele>
        <time>2022-08-20T13:23:11Z</time>
      </trkpt>
      <trkpt lat="44.08129" lon="6.59678">
        <ele>1637</ele>
        <time>2022-08-20T13:23:16Z</time>
      </trkpt>
      <trkpt lat="44.08136" lon="6.59673">
        <ele>1637.4000244141</ele>
        <time>2022-08-20T13:23:19Z</time>
      </trkpt>
      <trkpt lat="44.08142" lon="6.59663">
        <ele>1637.8000488281</ele>
        <time>2022-08-20T13:23:23Z</time>
      </trkpt>
      <trkpt lat="44.08146" lon="6.59646">
        <ele>1638.1999511719</ele>
        <time>2022-08-20T13:23:28Z</time>
      </trkpt>
      <trkpt lat="44.08149" lon="6.5964">
        <ele>1638.4000244141</ele>
        <time>2022-08-20T13:23:30Z</time>
      </trkpt>
      <trkpt lat="44.08154" lon="6.59627">
        <ele>1639</ele>
        <time>2022-08-20T13:23:35Z</time>
      </trkpt>
      <trkpt lat="44.08158" lon="6.59617">
        <ele>1639.5999755859</ele>
        <time>2022-08-20T13:23:39Z</time>
      </trkpt>
      <trkpt lat="44.0816" lon="6.59616">
        <ele>1639.5999755859</ele>
        <time>2022-08-20T13:23:40Z</time>
      </trkpt>
      <trkpt lat="44.08165" lon="6.59611">
        <ele>1640</ele>
        <time>2022-08-20T13:23:43Z</time>
      </trkpt>
      <trkpt lat="44.08175" lon="6.59598">
        <ele>1640.4000244141</ele>
        <time>2022-08-20T13:23:50Z</time>
      </trkpt>
      <trkpt lat="44.08177" lon="6.5959">
        <ele>1640.5999755859</ele>
        <time>2022-08-20T13:23:53Z</time>
      </trkpt>
      <trkpt lat="44.08178" lon="6.59579">
        <ele>1641.1999511719</ele>
        <time>2022-08-20T13:23:57Z</time>
      </trkpt>
      <trkpt lat="44.08178" lon="6.59571">
        <ele>1641.5999755859</ele>
        <time>2022-08-20T13:24:00Z</time>
      </trkpt>
      <trkpt lat="44.08178" lon="6.59562">
        <ele>1642.1999511719</ele>
        <time>2022-08-20T13:24:03Z</time>
      </trkpt>
      <trkpt lat="44.08179" lon="6.59539">
        <ele>1642.4000244141</ele>
        <time>2022-08-20T13:24:10Z</time>
      </trkpt>
      <trkpt lat="44.08178" lon="6.5953">
        <ele>1642.8000488281</ele>
        <time>2022-08-20T13:24:13Z</time>
      </trkpt>
      <trkpt lat="44.08176" lon="6.59522">
        <ele>1643.4000244141</ele>
        <time>2022-08-20T13:24:16Z</time>
      </trkpt>
      <trkpt lat="44.08167" lon="6.59498">
        <ele>1643.8000488281</ele>
        <time>2022-08-20T13:24:25Z</time>
      </trkpt>
      <trkpt lat="44.08158" lon="6.59476">
        <ele>1644.4000244141</ele>
        <time>2022-08-20T13:24:33Z</time>
      </trkpt>
      <trkpt lat="44.08152" lon="6.59454">
        <ele>1645</ele>
        <time>2022-08-20T13:24:40Z</time>
      </trkpt>
      <trkpt lat="44.08148" lon="6.5944">
        <ele>1645.1999511719</ele>
        <time>2022-08-20T13:24:44Z</time>
      </trkpt>
      <trkpt lat="44.08137" lon="6.59418">
        <ele>1645.8000488281</ele>
        <time>2022-08-20T13:24:51Z</time>
      </trkpt>
      <trkpt lat="44.08132" lon="6.59408">
        <ele>1646</ele>
        <time>2022-08-20T13:24:54Z</time>
      </trkpt>
      <trkpt lat="44.08126" lon="6.59394">
        <ele>1646.4000244141</ele>
        <time>2022-08-20T13:24:58Z</time>
      </trkpt>
      <trkpt lat="44.08121" lon="6.59365">
        <ele>1647</ele>
        <time>2022-08-20T13:25:06Z</time>
      </trkpt>
      <trkpt lat="44.08122" lon="6.59342">
        <ele>1647.5999755859</ele>
        <time>2022-08-20T13:25:13Z</time>
      </trkpt>
      <trkpt lat="44.08125" lon="6.5933">
        <ele>1648</ele>
        <time>2022-08-20T13:25:17Z</time>
      </trkpt>
      <trkpt lat="44.08126" lon="6.59323">
        <ele>1648.5999755859</ele>
        <time>2022-08-20T13:25:20Z</time>
      </trkpt>
      <trkpt lat="44.08127" lon="6.59322">
        <ele>1648.5999755859</ele>
        <time>2022-08-20T13:25:21Z</time>
      </trkpt>
      <trkpt lat="44.08129" lon="6.5932">
        <ele>1648.8000488281</ele>
        <time>2022-08-20T13:25:23Z</time>
      </trkpt>
      <trkpt lat="44.08129" lon="6.59319">
        <ele>1648.8000488281</ele>
        <time>2022-08-20T13:25:24Z</time>
      </trkpt>
      <trkpt lat="44.08129" lon="6.59319">
        <ele>1649</ele>
        <time>2022-08-20T13:25:25Z</time>
      </trkpt>
      <trkpt lat="44.08129" lon="6.59319">
        <ele>1649</ele>
        <time>2022-08-20T13:25:28Z</time>
      </trkpt>
      <trkpt lat="44.08129" lon="6.59319">
        <ele>1649</ele>
        <time>2022-08-20T13:25:32Z</time>
      </trkpt>
      <trkpt lat="44.08129" lon="6.59319">
        <ele>1649</ele>
        <time>2022-08-20T13:25:37Z</time>
      </trkpt>
      <trkpt lat="44.0813" lon="6.59318">
        <ele>1649</ele>
        <time>2022-08-20T13:25:45Z</time>
      </trkpt>
      <trkpt lat="44.0813" lon="6.59317">
        <ele>1649</ele>
        <time>2022-08-20T13:25:55Z</time>
      </trkpt>
      <trkpt lat="44.0813" lon="6.59317">
        <ele>1649</ele>
        <time>2022-08-20T13:25:59Z</time>
      </trkpt>
      <trkpt lat="44.08129" lon="6.59318">
        <ele>1648.8000488281</ele>
        <time>2022-08-20T13:26:01Z</time>
      </trkpt>
      <trkpt lat="44.08129" lon="6.59318">
        <ele>1648.8000488281</ele>
        <time>2022-08-20T13:26:05Z</time>
      </trkpt>
      <trkpt lat="44.08129" lon="6.59318">
        <ele>1648.8000488281</ele>
        <time>2022-08-20T13:26:08Z</time>
      </trkpt>
      <trkpt lat="44.08129" lon="6.59317">
        <ele>1648.8000488281</ele>
        <time>2022-08-20T13:26:14Z</time>
      </trkpt>
      <trkpt lat="44.0813" lon="6.59317">
        <ele>1648.8000488281</ele>
        <time>2022-08-20T13:26:23Z</time>
      </trkpt>
      <trkpt lat="44.08129" lon="6.59317">
        <ele>1648.8000488281</ele>
        <time>2022-08-20T13:26:28Z</time>
      </trkpt>
      <trkpt lat="44.0813" lon="6.59318">
        <ele>1648.5999755859</ele>
        <time>2022-08-20T13:26:39Z</time>
      </trkpt>
      <trkpt lat="44.0813" lon="6.59318">
        <ele>1648.5999755859</ele>
        <time>2022-08-20T13:26:41Z</time>
      </trkpt>
      <trkpt lat="44.0813" lon="6.59318">
        <ele>1648.5999755859</ele>
        <time>2022-08-20T13:26:50Z</time>
      </trkpt>
      <trkpt lat="44.0813" lon="6.59319">
        <ele>1648.5999755859</ele>
        <time>2022-08-20T13:26:52Z</time>
      </trkpt>
      <trkpt lat="44.0813" lon="6.59319">
        <ele>1648.5999755859</ele>
        <time>2022-08-20T13:26:57Z</time>
      </trkpt>
      <trkpt lat="44.0813" lon="6.59319">
        <ele>1648.5999755859</ele>
        <time>2022-08-20T13:27:03Z</time>
      </trkpt>
      <trkpt lat="44.08129" lon="6.59319">
        <ele>1648.5999755859</ele>
        <time>2022-08-20T13:27:12Z</time>
      </trkpt>
      <trkpt lat="44.08129" lon="6.59324">
        <ele>1648.5999755859</ele>
        <time>2022-08-20T13:27:24Z</time>
      </trkpt>
      <trkpt lat="44.08128" lon="6.59326">
        <ele>1648.5999755859</ele>
        <time>2022-08-20T13:27:29Z</time>
      </trkpt>
      <trkpt lat="44.08127" lon="6.59327">
        <ele>1648.5999755859</ele>
        <time>2022-08-20T13:27:30Z</time>
      </trkpt>
      <trkpt lat="44.08125" lon="6.5933">
        <ele>1648.5999755859</ele>
        <time>2022-08-20T13:27:34Z</time>
      </trkpt>
      <trkpt lat="44.08124" lon="6.59331">
        <ele>1648.5999755859</ele>
        <time>2022-08-20T13:27:43Z</time>
      </trkpt>
      <trkpt lat="44.08121" lon="6.59332">
        <ele>1648.5999755859</ele>
        <time>2022-08-20T13:27:50Z</time>
      </trkpt>
      <trkpt lat="44.0812" lon="6.59334">
        <ele>1648.5999755859</ele>
        <time>2022-08-20T13:28:00Z</time>
      </trkpt>
      <trkpt lat="44.08118" lon="6.5934">
        <ele>1648.5999755859</ele>
        <time>2022-08-20T13:28:08Z</time>
      </trkpt>
      <trkpt lat="44.08117" lon="6.59342">
        <ele>1648.5999755859</ele>
        <time>2022-08-20T13:28:10Z</time>
      </trkpt>
      <trkpt lat="44.08117" lon="6.59342">
        <ele>1648.5999755859</ele>
        <time>2022-08-20T13:28:16Z</time>
      </trkpt>
      <trkpt lat="44.08117" lon="6.59341">
        <ele>1648.5999755859</ele>
        <time>2022-08-20T13:28:17Z</time>
      </trkpt>
      <trkpt lat="44.08117" lon="6.59341">
        <ele>1648.5999755859</ele>
        <time>2022-08-20T13:28:18Z</time>
      </trkpt>
      <trkpt lat="44.08117" lon="6.59341">
        <ele>1648.5999755859</ele>
        <time>2022-08-20T13:28:20Z</time>
      </trkpt>
      <trkpt lat="44.08117" lon="6.59341">
        <ele>1648.5999755859</ele>
        <time>2022-08-20T13:28:24Z</time>
      </trkpt>
      <trkpt lat="44.08117" lon="6.59341">
        <ele>1648.5999755859</ele>
        <time>2022-08-20T13:28:31Z</time>
      </trkpt>
      <trkpt lat="44.08117" lon="6.59341">
        <ele>1644.5999755859</ele>
        <time>2022-08-20T13:28:34Z</time>
      </trkpt>
      <trkpt lat="44.08117" lon="6.59342">
        <ele>1644.5999755859</ele>
        <time>2022-08-20T13:28:40Z</time>
      </trkpt>
      <trkpt lat="44.08116" lon="6.59346">
        <ele>1644.8000488281</ele>
        <time>2022-08-20T13:28:53Z</time>
      </trkpt>
      <trkpt lat="44.08118" lon="6.59347">
        <ele>1644.8000488281</ele>
        <time>2022-08-20T13:28:58Z</time>
      </trkpt>
      <trkpt lat="44.08118" lon="6.59348">
        <ele>1644.5999755859</ele>
        <time>2022-08-20T13:29:02Z</time>
      </trkpt>
      <trkpt lat="44.08118" lon="6.59347">
        <ele>1644.5999755859</ele>
        <time>2022-08-20T13:29:11Z</time>
      </trkpt>
      <trkpt lat="44.08118" lon="6.59347">
        <ele>1644.5999755859</ele>
        <time>2022-08-20T13:29:24Z</time>
      </trkpt>
      <trkpt lat="44.08117" lon="6.59346">
        <ele>1644.5999755859</ele>
        <time>2022-08-20T13:29:33Z</time>
      </trkpt>
      <trkpt lat="44.08116" lon="6.59346">
        <ele>1644.4000244141</ele>
        <time>2022-08-20T13:29:42Z</time>
      </trkpt>
      <trkpt lat="44.08116" lon="6.59347">
        <ele>1644.4000244141</ele>
        <time>2022-08-20T13:29:50Z</time>
      </trkpt>
      <trkpt lat="44.08116" lon="6.59347">
        <ele>1644.4000244141</ele>
        <time>2022-08-20T13:29:54Z</time>
      </trkpt>
      <trkpt lat="44.08115" lon="6.59347">
        <ele>1644.4000244141</ele>
        <time>2022-08-20T13:30:00Z</time>
      </trkpt>
      <trkpt lat="44.08115" lon="6.59347">
        <ele>1644.4000244141</ele>
        <time>2022-08-20T13:30:03Z</time>
      </trkpt>
      <trkpt lat="44.08115" lon="6.59348">
        <ele>1644.4000244141</ele>
        <time>2022-08-20T13:30:09Z</time>
      </trkpt>
      <trkpt lat="44.08115" lon="6.59348">
        <ele>1644.4000244141</ele>
        <time>2022-08-20T13:30:13Z</time>
      </trkpt>
      <trkpt lat="44.08115" lon="6.59348">
        <ele>1644.4000244141</ele>
        <time>2022-08-20T13:30:17Z</time>
      </trkpt>
      <trkpt lat="44.08116" lon="6.59347">
        <ele>1644.4000244141</ele>
        <time>2022-08-20T13:30:28Z</time>
      </trkpt>
      <trkpt lat="44.08116" lon="6.59347">
        <ele>1644.4000244141</ele>
        <time>2022-08-20T13:30:33Z</time>
      </trkpt>
      <trkpt lat="44.08117" lon="6.59346">
        <ele>1644.4000244141</ele>
        <time>2022-08-20T13:30:42Z</time>
      </trkpt>
      <trkpt lat="44.08117" lon="6.59346">
        <ele>1644.4000244141</ele>
        <time>2022-08-20T13:30:45Z</time>
      </trkpt>
      <trkpt lat="44.08117" lon="6.59346">
        <ele>1644.4000244141</ele>
        <time>2022-08-20T13:30:48Z</time>
      </trkpt>
      <trkpt lat="44.08117" lon="6.59346">
        <ele>1644.4000244141</ele>
        <time>2022-08-20T13:30:50Z</time>
      </trkpt>
      <trkpt lat="44.08118" lon="6.59346">
        <ele>1644.4000244141</ele>
        <time>2022-08-20T13:30:59Z</time>
      </trkpt>
      <trkpt lat="44.08118" lon="6.59347">
        <ele>1644.4000244141</ele>
        <time>2022-08-20T13:31:01Z</time>
      </trkpt>
      <trkpt lat="44.08118" lon="6.59347">
        <ele>1644.4000244141</ele>
        <time>2022-08-20T13:31:15Z</time>
      </trkpt>
      <trkpt lat="44.08118" lon="6.59345">
        <ele>1644.4000244141</ele>
        <time>2022-08-20T13:31:27Z</time>
      </trkpt>
      <trkpt lat="44.08118" lon="6.59345">
        <ele>1644.4000244141</ele>
        <time>2022-08-20T13:31:29Z</time>
      </trkpt>
      <trkpt lat="44.08118" lon="6.59344">
        <ele>1644.4000244141</ele>
        <time>2022-08-20T13:31:35Z</time>
      </trkpt>
      <trkpt lat="44.08119" lon="6.59344">
        <ele>1644.4000244141</ele>
        <time>2022-08-20T13:31:44Z</time>
      </trkpt>
      <trkpt lat="44.08119" lon="6.59344">
        <ele>1644.4000244141</ele>
        <time>2022-08-20T13:31:48Z</time>
      </trkpt>
      <trkpt lat="44.08119" lon="6.59344">
        <ele>1644.4000244141</ele>
        <time>2022-08-20T13:31:50Z</time>
      </trkpt>
      <trkpt lat="44.08119" lon="6.59345">
        <ele>1644.4000244141</ele>
        <time>2022-08-20T13:31:59Z</time>
      </trkpt>
      <trkpt lat="44.08119" lon="6.59346">
        <ele>1644.4000244141</ele>
        <time>2022-08-20T13:32:16Z</time>
      </trkpt>
      <trkpt lat="44.0812" lon="6.59349">
        <ele>1644.4000244141</ele>
        <time>2022-08-20T13:32:31Z</time>
      </trkpt>
      <trkpt lat="44.0812" lon="6.59349">
        <ele>1644.4000244141</ele>
        <time>2022-08-20T13:32:46Z</time>
      </trkpt>
      <trkpt lat="44.0812" lon="6.59349">
        <ele>1644.4000244141</ele>
        <time>2022-08-20T13:32:50Z</time>
      </trkpt>
      <trkpt lat="44.08119" lon="6.59349">
        <ele>1644.4000244141</ele>
        <time>2022-08-20T13:33:04Z</time>
      </trkpt>
      <trkpt lat="44.08119" lon="6.59348">
        <ele>1644.4000244141</ele>
        <time>2022-08-20T13:33:17Z</time>
      </trkpt>
      <trkpt lat="44.08118" lon="6.59347">
        <ele>1644.4000244141</ele>
        <time>2022-08-20T13:33:29Z</time>
      </trkpt>
      <trkpt lat="44.08118" lon="6.59347">
        <ele>1644.4000244141</ele>
        <time>2022-08-20T13:33:30Z</time>
      </trkpt>
      <trkpt lat="44.08119" lon="6.59346">
        <ele>1644.4000244141</ele>
        <time>2022-08-20T13:33:36Z</time>
      </trkpt>
      <trkpt lat="44.08117" lon="6.59348">
        <ele>1644.4000244141</ele>
        <time>2022-08-20T13:33:39Z</time>
      </trkpt>
      <trkpt lat="44.08112" lon="6.59357">
        <ele>1641.8000488281</ele>
        <time>2022-08-20T13:33:43Z</time>
      </trkpt>
      <trkpt lat="44.0811" lon="6.59363">
        <ele>1641.8000488281</ele>
        <time>2022-08-20T13:33:45Z</time>
      </trkpt>
      <trkpt lat="44.0811" lon="6.59365">
        <ele>1641.8000488281</ele>
        <time>2022-08-20T13:33:46Z</time>
      </trkpt>
      <trkpt lat="44.0811" lon="6.59375">
        <ele>1641.1999511719</ele>
        <time>2022-08-20T13:33:52Z</time>
      </trkpt>
      <trkpt lat="44.0811" lon="6.59376">
        <ele>1640.8000488281</ele>
        <time>2022-08-20T13:33:54Z</time>
      </trkpt>
      <trkpt lat="44.0811" lon="6.59378">
        <ele>1640.4000244141</ele>
        <time>2022-08-20T13:33:58Z</time>
      </trkpt>
      <trkpt lat="44.0811" lon="6.59378">
        <ele>1640.1999511719</ele>
        <time>2022-08-20T13:34:00Z</time>
      </trkpt>
      <trkpt lat="44.08111" lon="6.59379">
        <ele>1640</ele>
        <time>2022-08-20T13:34:05Z</time>
      </trkpt>
      <trkpt lat="44.08112" lon="6.59379">
        <ele>1640</ele>
        <time>2022-08-20T13:34:08Z</time>
      </trkpt>
      <trkpt lat="44.08112" lon="6.59379">
        <ele>1640</ele>
        <time>2022-08-20T13:34:12Z</time>
      </trkpt>
      <trkpt lat="44.08111" lon="6.59383">
        <ele>1639.8000488281</ele>
        <time>2022-08-20T13:34:19Z</time>
      </trkpt>
      <trkpt lat="44.0811" lon="6.59384">
        <ele>1639.8000488281</ele>
        <time>2022-08-20T13:34:20Z</time>
      </trkpt>
      <trkpt lat="44.08109" lon="6.59385">
        <ele>1639.5999755859</ele>
        <time>2022-08-20T13:34:21Z</time>
      </trkpt>
      <trkpt lat="44.08108" lon="6.59398">
        <ele>1638.4000244141</ele>
        <time>2022-08-20T13:34:28Z</time>
      </trkpt>
      <trkpt lat="44.08109" lon="6.594">
        <ele>1638.1999511719</ele>
        <time>2022-08-20T13:34:29Z</time>
      </trkpt>
      <trkpt lat="44.08111" lon="6.59409">
        <ele>1637.4000244141</ele>
        <time>2022-08-20T13:34:34Z</time>
      </trkpt>
      <trkpt lat="44.08112" lon="6.59411">
        <ele>1637</ele>
        <time>2022-08-20T13:34:38Z</time>
      </trkpt>
      <trkpt lat="44.08114" lon="6.59415">
        <ele>1636.4000244141</ele>
        <time>2022-08-20T13:34:46Z</time>
      </trkpt>
      <trkpt lat="44.08114" lon="6.59417">
        <ele>1636.1999511719</ele>
        <time>2022-08-20T13:34:48Z</time>
      </trkpt>
      <trkpt lat="44.08116" lon="6.59426">
        <ele>1635.4000244141</ele>
        <time>2022-08-20T13:34:52Z</time>
      </trkpt>
      <trkpt lat="44.08119" lon="6.59438">
        <ele>1634.1999511719</ele>
        <time>2022-08-20T13:34:56Z</time>
      </trkpt>
      <trkpt lat="44.0812" lon="6.59441">
        <ele>1633.8000488281</ele>
        <time>2022-08-20T13:34:57Z</time>
      </trkpt>
      <trkpt lat="44.08121" lon="6.59449">
        <ele>1633</ele>
        <time>2022-08-20T13:34:59Z</time>
      </trkpt>
      <trkpt lat="44.08122" lon="6.59456">
        <ele>1632</ele>
        <time>2022-08-20T13:35:01Z</time>
      </trkpt>
      <trkpt lat="44.08122" lon="6.59459">
        <ele>1631.4000244141</ele>
        <time>2022-08-20T13:35:02Z</time>
      </trkpt>
      <trkpt lat="44.08123" lon="6.59464">
        <ele>1630.8000488281</ele>
        <time>2022-08-20T13:35:04Z</time>
      </trkpt>
      <trkpt lat="44.08123" lon="6.59472">
        <ele>1629.8000488281</ele>
        <time>2022-08-20T13:35:07Z</time>
      </trkpt>
      <trkpt lat="44.08124" lon="6.59475">
        <ele>1629.5999755859</ele>
        <time>2022-08-20T13:35:08Z</time>
      </trkpt>
      <trkpt lat="44.08124" lon="6.59483">
        <ele>1628.8000488281</ele>
        <time>2022-08-20T13:35:10Z</time>
      </trkpt>
      <trkpt lat="44.08123" lon="6.59486">
        <ele>1628.4000244141</ele>
        <time>2022-08-20T13:35:11Z</time>
      </trkpt>
      <trkpt lat="44.08121" lon="6.59493">
        <ele>1627.4000244141</ele>
        <time>2022-08-20T13:35:14Z</time>
      </trkpt>
      <trkpt lat="44.08122" lon="6.595">
        <ele>1626.1999511719</ele>
        <time>2022-08-20T13:35:17Z</time>
      </trkpt>
      <trkpt lat="44.08122" lon="6.59501">
        <ele>1625.8000488281</ele>
        <time>2022-08-20T13:35:18Z</time>
      </trkpt>
      <trkpt lat="44.08119" lon="6.59499">
        <ele>1625.1999511719</ele>
        <time>2022-08-20T13:35:20Z</time>
      </trkpt>
      <trkpt lat="44.08116" lon="6.59497">
        <ele>1623.8000488281</ele>
        <time>2022-08-20T13:35:23Z</time>
      </trkpt>
      <trkpt lat="44.08116" lon="6.59497">
        <ele>1623.4000244141</ele>
        <time>2022-08-20T13:35:25Z</time>
      </trkpt>
      <trkpt lat="44.08115" lon="6.59496">
        <ele>1622.8000488281</ele>
        <time>2022-08-20T13:35:30Z</time>
      </trkpt>
      <trkpt lat="44.08115" lon="6.59496">
        <ele>1622.5999755859</ele>
        <time>2022-08-20T13:35:32Z</time>
      </trkpt>
      <trkpt lat="44.08114" lon="6.59496">
        <ele>1622.4000244141</ele>
        <time>2022-08-20T13:35:34Z</time>
      </trkpt>
      <trkpt lat="44.08113" lon="6.59496">
        <ele>1622</ele>
        <time>2022-08-20T13:35:37Z</time>
      </trkpt>
      <trkpt lat="44.08113" lon="6.59496">
        <ele>1621.8000488281</ele>
        <time>2022-08-20T13:35:38Z</time>
      </trkpt>
      <trkpt lat="44.08112" lon="6.59496">
        <ele>1621.8000488281</ele>
        <time>2022-08-20T13:35:39Z</time>
      </trkpt>
      <trkpt lat="44.08108" lon="6.59491">
        <ele>1621</ele>
        <time>2022-08-20T13:35:44Z</time>
      </trkpt>
      <trkpt lat="44.08107" lon="6.59489">
        <ele>1620.8000488281</ele>
        <time>2022-08-20T13:35:46Z</time>
      </trkpt>
      <trkpt lat="44.08103" lon="6.59488">
        <ele>1619.5999755859</ele>
        <time>2022-08-20T13:35:51Z</time>
      </trkpt>
      <trkpt lat="44.08103" lon="6.59489">
        <ele>1619.4000244141</ele>
        <time>2022-08-20T13:35:52Z</time>
      </trkpt>
      <trkpt lat="44.08101" lon="6.59498">
        <ele>1618.5999755859</ele>
        <time>2022-08-20T13:35:58Z</time>
      </trkpt>
      <trkpt lat="44.08101" lon="6.59498">
        <ele>1618.4000244141</ele>
        <time>2022-08-20T13:35:59Z</time>
      </trkpt>
      <trkpt lat="44.081" lon="6.59498">
        <ele>1618.1999511719</ele>
        <time>2022-08-20T13:36:00Z</time>
      </trkpt>
      <trkpt lat="44.08099" lon="6.59496">
        <ele>1617.1999511719</ele>
        <time>2022-08-20T13:36:04Z</time>
      </trkpt>
      <trkpt lat="44.08097" lon="6.59498">
        <ele>1616.1999511719</ele>
        <time>2022-08-20T13:36:09Z</time>
      </trkpt>
      <trkpt lat="44.08095" lon="6.59501">
        <ele>1615.5999755859</ele>
        <time>2022-08-20T13:36:12Z</time>
      </trkpt>
      <trkpt lat="44.08095" lon="6.59505">
        <ele>1615</ele>
        <time>2022-08-20T13:36:15Z</time>
      </trkpt>
      <trkpt lat="44.08093" lon="6.59507">
        <ele>1614.5999755859</ele>
        <time>2022-08-20T13:36:17Z</time>
      </trkpt>
      <trkpt lat="44.08092" lon="6.59506">
        <ele>1614.1999511719</ele>
        <time>2022-08-20T13:36:19Z</time>
      </trkpt>
      <trkpt lat="44.08092" lon="6.59506">
        <ele>1614</ele>
        <time>2022-08-20T13:36:20Z</time>
      </trkpt>
      <trkpt lat="44.08091" lon="6.59509">
        <ele>1612.8000488281</ele>
        <time>2022-08-20T13:36:26Z</time>
      </trkpt>
      <trkpt lat="44.08089" lon="6.59511">
        <ele>1611.8000488281</ele>
        <time>2022-08-20T13:36:31Z</time>
      </trkpt>
      <trkpt lat="44.08089" lon="6.5951">
        <ele>1611.4000244141</ele>
        <time>2022-08-20T13:36:33Z</time>
      </trkpt>
      <trkpt lat="44.08089" lon="6.5951">
        <ele>1611.1999511719</ele>
        <time>2022-08-20T13:36:38Z</time>
      </trkpt>
      <trkpt lat="44.08085" lon="6.59504">
        <ele>1610.5999755859</ele>
        <time>2022-08-20T13:36:44Z</time>
      </trkpt>
      <trkpt lat="44.08084" lon="6.59502">
        <ele>1609.5999755859</ele>
        <time>2022-08-20T13:36:48Z</time>
      </trkpt>
      <trkpt lat="44.08083" lon="6.59503">
        <ele>1609.4000244141</ele>
        <time>2022-08-20T13:36:49Z</time>
      </trkpt>
      <trkpt lat="44.0808" lon="6.59505">
        <ele>1608.5999755859</ele>
        <time>2022-08-20T13:36:54Z</time>
      </trkpt>
      <trkpt lat="44.08077" lon="6.59507">
        <ele>1607.8000488281</ele>
        <time>2022-08-20T13:36:57Z</time>
      </trkpt>
      <trkpt lat="44.08076" lon="6.59507">
        <ele>1607.4000244141</ele>
        <time>2022-08-20T13:36:58Z</time>
      </trkpt>
      <trkpt lat="44.08074" lon="6.59515">
        <ele>1606.1999511719</ele>
        <time>2022-08-20T13:37:03Z</time>
      </trkpt>
      <trkpt lat="44.08073" lon="6.59517">
        <ele>1605.5999755859</ele>
        <time>2022-08-20T13:37:05Z</time>
      </trkpt>
      <trkpt lat="44.08072" lon="6.59518">
        <ele>1605.1999511719</ele>
        <time>2022-08-20T13:37:07Z</time>
      </trkpt>
      <trkpt lat="44.08066" lon="6.59518">
        <ele>1604</ele>
        <time>2022-08-20T13:37:14Z</time>
      </trkpt>
      <trkpt lat="44.08065" lon="6.59516">
        <ele>1603.1999511719</ele>
        <time>2022-08-20T13:37:20Z</time>
      </trkpt>
      <trkpt lat="44.08061" lon="6.59512">
        <ele>1602.8000488281</ele>
        <time>2022-08-20T13:37:25Z</time>
      </trkpt>
      <trkpt lat="44.08059" lon="6.59507">
        <ele>1602.1999511719</ele>
        <time>2022-08-20T13:37:27Z</time>
      </trkpt>
      <trkpt lat="44.08057" lon="6.59502">
        <ele>1601.5999755859</ele>
        <time>2022-08-20T13:37:29Z</time>
      </trkpt>
      <trkpt lat="44.08058" lon="6.59495">
        <ele>1600.5999755859</ele>
        <time>2022-08-20T13:37:33Z</time>
      </trkpt>
      <trkpt lat="44.08057" lon="6.59493">
        <ele>1600.5999755859</ele>
        <time>2022-08-20T13:37:34Z</time>
      </trkpt>
      <trkpt lat="44.08056" lon="6.5949">
        <ele>1600</ele>
        <time>2022-08-20T13:37:36Z</time>
      </trkpt>
      <trkpt lat="44.08052" lon="6.59487">
        <ele>1599.1999511719</ele>
        <time>2022-08-20T13:37:38Z</time>
      </trkpt>
      <trkpt lat="44.08049" lon="6.59484">
        <ele>1598.4000244141</ele>
        <time>2022-08-20T13:37:40Z</time>
      </trkpt>
      <trkpt lat="44.08047" lon="6.59483">
        <ele>1597.8000488281</ele>
        <time>2022-08-20T13:37:41Z</time>
      </trkpt>
      <trkpt lat="44.08044" lon="6.5948">
        <ele>1596.5999755859</ele>
        <time>2022-08-20T13:37:44Z</time>
      </trkpt>
      <trkpt lat="44.08039" lon="6.59477">
        <ele>1595.5999755859</ele>
        <time>2022-08-20T13:37:47Z</time>
      </trkpt>
      <trkpt lat="44.08035" lon="6.59473">
        <ele>1594.8000488281</ele>
        <time>2022-08-20T13:37:49Z</time>
      </trkpt>
      <trkpt lat="44.08033" lon="6.59471">
        <ele>1594.4000244141</ele>
        <time>2022-08-20T13:37:50Z</time>
      </trkpt>
      <trkpt lat="44.08029" lon="6.59466">
        <ele>1593.5999755859</ele>
        <time>2022-08-20T13:37:53Z</time>
      </trkpt>
      <trkpt lat="44.08025" lon="6.59463">
        <ele>1593</ele>
        <time>2022-08-20T13:37:55Z</time>
      </trkpt>
      <trkpt lat="44.08022" lon="6.59457">
        <ele>1592</ele>
        <time>2022-08-20T13:37:58Z</time>
      </trkpt>
      <trkpt lat="44.08021" lon="6.59456">
        <ele>1591.5999755859</ele>
        <time>2022-08-20T13:37:59Z</time>
      </trkpt>
      <trkpt lat="44.08019" lon="6.59452">
        <ele>1590.8000488281</ele>
        <time>2022-08-20T13:38:01Z</time>
      </trkpt>
      <trkpt lat="44.08016" lon="6.59446">
        <ele>1589.5999755859</ele>
        <time>2022-08-20T13:38:04Z</time>
      </trkpt>
      <trkpt lat="44.08012" lon="6.59441">
        <ele>1588.1999511719</ele>
        <time>2022-08-20T13:38:07Z</time>
      </trkpt>
      <trkpt lat="44.0801" lon="6.59439">
        <ele>1587.1999511719</ele>
        <time>2022-08-20T13:38:09Z</time>
      </trkpt>
      <trkpt lat="44.08005" lon="6.59436">
        <ele>1586.1999511719</ele>
        <time>2022-08-20T13:38:12Z</time>
      </trkpt>
      <trkpt lat="44.08004" lon="6.59435">
        <ele>1585.8000488281</ele>
        <time>2022-08-20T13:38:13Z</time>
      </trkpt>
      <trkpt lat="44.08003" lon="6.59435">
        <ele>1585.5999755859</ele>
        <time>2022-08-20T13:38:14Z</time>
      </trkpt>
      <trkpt lat="44.08002" lon="6.59434">
        <ele>1585.1999511719</ele>
        <time>2022-08-20T13:38:15Z</time>
      </trkpt>
      <trkpt lat="44.08" lon="6.59433">
        <ele>1585</ele>
        <time>2022-08-20T13:38:16Z</time>
      </trkpt>
      <trkpt lat="44.07996" lon="6.59428">
        <ele>1584.1999511719</ele>
        <time>2022-08-20T13:38:19Z</time>
      </trkpt>
      <trkpt lat="44.07994" lon="6.59427">
        <ele>1583.8000488281</ele>
        <time>2022-08-20T13:38:20Z</time>
      </trkpt>
      <trkpt lat="44.07986" lon="6.59423">
        <ele>1582.5999755859</ele>
        <time>2022-08-20T13:38:25Z</time>
      </trkpt>
      <trkpt lat="44.07979" lon="6.59419">
        <ele>1581.5999755859</ele>
        <time>2022-08-20T13:38:28Z</time>
      </trkpt>
      <trkpt lat="44.0797" lon="6.59419">
        <ele>1580.4000244141</ele>
        <time>2022-08-20T13:38:32Z</time>
      </trkpt>
      <trkpt lat="44.07963" lon="6.59416">
        <ele>1579.5999755859</ele>
        <time>2022-08-20T13:38:35Z</time>
      </trkpt>
      <trkpt lat="44.07962" lon="6.59415">
        <ele>1579.4000244141</ele>
        <time>2022-08-20T13:38:36Z</time>
      </trkpt>
      <trkpt lat="44.07953" lon="6.59411">
        <ele>1578</ele>
        <time>2022-08-20T13:38:41Z</time>
      </trkpt>
      <trkpt lat="44.07951" lon="6.5941">
        <ele>1577.5999755859</ele>
        <time>2022-08-20T13:38:43Z</time>
      </trkpt>
      <trkpt lat="44.07947" lon="6.59408">
        <ele>1577</ele>
        <time>2022-08-20T13:38:46Z</time>
      </trkpt>
      <trkpt lat="44.07939" lon="6.59403">
        <ele>1575.8000488281</ele>
        <time>2022-08-20T13:38:50Z</time>
      </trkpt>
      <trkpt lat="44.07938" lon="6.59402">
        <ele>1575.4000244141</ele>
        <time>2022-08-20T13:38:51Z</time>
      </trkpt>
      <trkpt lat="44.07936" lon="6.59401">
        <ele>1575</ele>
        <time>2022-08-20T13:38:52Z</time>
      </trkpt>
      <trkpt lat="44.07933" lon="6.594">
        <ele>1574.5999755859</ele>
        <time>2022-08-20T13:38:54Z</time>
      </trkpt>
      <trkpt lat="44.07932" lon="6.594">
        <ele>1574.1999511719</ele>
        <time>2022-08-20T13:38:55Z</time>
      </trkpt>
      <trkpt lat="44.07927" lon="6.594">
        <ele>1573.1999511719</ele>
        <time>2022-08-20T13:38:58Z</time>
      </trkpt>
      <trkpt lat="44.07926" lon="6.59398">
        <ele>1573</ele>
        <time>2022-08-20T13:38:59Z</time>
      </trkpt>
      <trkpt lat="44.07923" lon="6.59394">
        <ele>1572.1999511719</ele>
        <time>2022-08-20T13:39:01Z</time>
      </trkpt>
      <trkpt lat="44.07916" lon="6.59387">
        <ele>1571</ele>
        <time>2022-08-20T13:39:05Z</time>
      </trkpt>
      <trkpt lat="44.07914" lon="6.59385">
        <ele>1570.5999755859</ele>
        <time>2022-08-20T13:39:06Z</time>
      </trkpt>
      <trkpt lat="44.07909" lon="6.59377">
        <ele>1570</ele>
        <time>2022-08-20T13:39:10Z</time>
      </trkpt>
      <trkpt lat="44.07908" lon="6.59373">
        <ele>1569.5999755859</ele>
        <time>2022-08-20T13:39:13Z</time>
      </trkpt>
      <trkpt lat="44.07907" lon="6.59372">
        <ele>1569.4000244141</ele>
        <time>2022-08-20T13:39:14Z</time>
      </trkpt>
      <trkpt lat="44.07906" lon="6.59366">
        <ele>1568.8000488281</ele>
        <time>2022-08-20T13:39:17Z</time>
      </trkpt>
      <trkpt lat="44.07905" lon="6.59356">
        <ele>1568</ele>
        <time>2022-08-20T13:39:21Z</time>
      </trkpt>
      <trkpt lat="44.07905" lon="6.59353">
        <ele>1567.8000488281</ele>
        <time>2022-08-20T13:39:22Z</time>
      </trkpt>
      <trkpt lat="44.07904" lon="6.59343">
        <ele>1566.8000488281</ele>
        <time>2022-08-20T13:39:26Z</time>
      </trkpt>
      <trkpt lat="44.07904" lon="6.59332">
        <ele>1565.5999755859</ele>
        <time>2022-08-20T13:39:30Z</time>
      </trkpt>
      <trkpt lat="44.07903" lon="6.59321">
        <ele>1564.5999755859</ele>
        <time>2022-08-20T13:39:35Z</time>
      </trkpt>
      <trkpt lat="44.079" lon="6.59314">
        <ele>1563.4000244141</ele>
        <time>2022-08-20T13:39:38Z</time>
      </trkpt>
      <trkpt lat="44.07898" lon="6.59304">
        <ele>1562.1999511719</ele>
        <time>2022-08-20T13:39:41Z</time>
      </trkpt>
      <trkpt lat="44.07893" lon="6.59297">
        <ele>1561.5999755859</ele>
        <time>2022-08-20T13:39:44Z</time>
      </trkpt>
      <trkpt lat="44.07891" lon="6.59296">
        <ele>1561.1999511719</ele>
        <time>2022-08-20T13:39:47Z</time>
      </trkpt>
      <trkpt lat="44.07891" lon="6.59296">
        <ele>1560.8000488281</ele>
        <time>2022-08-20T13:39:49Z</time>
      </trkpt>
      <trkpt lat="44.07889" lon="6.59297">
        <ele>1560.5999755859</ele>
        <time>2022-08-20T13:39:52Z</time>
      </trkpt>
      <trkpt lat="44.07885" lon="6.59297">
        <ele>1560</ele>
        <time>2022-08-20T13:39:55Z</time>
      </trkpt>
      <trkpt lat="44.07884" lon="6.59297">
        <ele>1559.5999755859</ele>
        <time>2022-08-20T13:39:56Z</time>
      </trkpt>
      <trkpt lat="44.07881" lon="6.59297">
        <ele>1558.8000488281</ele>
        <time>2022-08-20T13:40:03Z</time>
      </trkpt>
      <trkpt lat="44.07879" lon="6.59297">
        <ele>1558.5999755859</ele>
        <time>2022-08-20T13:40:05Z</time>
      </trkpt>
      <trkpt lat="44.07878" lon="6.59297">
        <ele>1557.8000488281</ele>
        <time>2022-08-20T13:40:08Z</time>
      </trkpt>
      <trkpt lat="44.07872" lon="6.59297">
        <ele>1556.5999755859</ele>
        <time>2022-08-20T13:40:14Z</time>
      </trkpt>
      <trkpt lat="44.0787" lon="6.59298">
        <ele>1556.4000244141</ele>
        <time>2022-08-20T13:40:16Z</time>
      </trkpt>
      <trkpt lat="44.07867" lon="6.59299">
        <ele>1555.4000244141</ele>
        <time>2022-08-20T13:40:20Z</time>
      </trkpt>
      <trkpt lat="44.07861" lon="6.59301">
        <ele>1554.4000244141</ele>
        <time>2022-08-20T13:40:25Z</time>
      </trkpt>
      <trkpt lat="44.07858" lon="6.59303">
        <ele>1553.8000488281</ele>
        <time>2022-08-20T13:40:29Z</time>
      </trkpt>
      <trkpt lat="44.07856" lon="6.59304">
        <ele>1553.1999511719</ele>
        <time>2022-08-20T13:40:31Z</time>
      </trkpt>
      <trkpt lat="44.07852" lon="6.59304">
        <ele>1552.1999511719</ele>
        <time>2022-08-20T13:40:35Z</time>
      </trkpt>
      <trkpt lat="44.07851" lon="6.59304">
        <ele>1551.5999755859</ele>
        <time>2022-08-20T13:40:37Z</time>
      </trkpt>
      <trkpt lat="44.07849" lon="6.59304">
        <ele>1550.8000488281</ele>
        <time>2022-08-20T13:40:39Z</time>
      </trkpt>
      <trkpt lat="44.07845" lon="6.59304">
        <ele>1549.8000488281</ele>
        <time>2022-08-20T13:40:43Z</time>
      </trkpt>
      <trkpt lat="44.07841" lon="6.59304">
        <ele>1549.1999511719</ele>
        <time>2022-08-20T13:40:47Z</time>
      </trkpt>
      <trkpt lat="44.07839" lon="6.59304">
        <ele>1548.5999755859</ele>
        <time>2022-08-20T13:40:49Z</time>
      </trkpt>
      <trkpt lat="44.07835" lon="6.59304">
        <ele>1547.5999755859</ele>
        <time>2022-08-20T13:40:52Z</time>
      </trkpt>
      <trkpt lat="44.07831" lon="6.59303">
        <ele>1546.4000244141</ele>
        <time>2022-08-20T13:40:56Z</time>
      </trkpt>
      <trkpt lat="44.0783" lon="6.59302">
        <ele>1546.1999511719</ele>
        <time>2022-08-20T13:40:57Z</time>
      </trkpt>
      <trkpt lat="44.07828" lon="6.593">
        <ele>1545.4000244141</ele>
        <time>2022-08-20T13:41:00Z</time>
      </trkpt>
      <trkpt lat="44.07828" lon="6.59299">
        <ele>1544.5999755859</ele>
        <time>2022-08-20T13:41:03Z</time>
      </trkpt>
      <trkpt lat="44.07828" lon="6.59298">
        <ele>1544.1999511719</ele>
        <time>2022-08-20T13:41:05Z</time>
      </trkpt>
      <trkpt lat="44.07828" lon="6.59297">
        <ele>1544</ele>
        <time>2022-08-20T13:41:07Z</time>
      </trkpt>
      <trkpt lat="44.07829" lon="6.59298">
        <ele>1543.4000244141</ele>
        <time>2022-08-20T13:41:15Z</time>
      </trkpt>
      <trkpt lat="44.07829" lon="6.59298">
        <ele>1543.4000244141</ele>
        <time>2022-08-20T13:41:17Z</time>
      </trkpt>
      <trkpt lat="44.07829" lon="6.59298">
        <ele>1543.1999511719</ele>
        <time>2022-08-20T13:41:25Z</time>
      </trkpt>
      <trkpt lat="44.07829" lon="6.59297">
        <ele>1543.1999511719</ele>
        <time>2022-08-20T13:41:27Z</time>
      </trkpt>
      <trkpt lat="44.07829" lon="6.59296">
        <ele>1542.4000244141</ele>
        <time>2022-08-20T13:41:33Z</time>
      </trkpt>
      <trkpt lat="44.07829" lon="6.59295">
        <ele>1542.1999511719</ele>
        <time>2022-08-20T13:41:35Z</time>
      </trkpt>
      <trkpt lat="44.07829" lon="6.59295">
        <ele>1542</ele>
        <time>2022-08-20T13:41:36Z</time>
      </trkpt>
      <trkpt lat="44.07829" lon="6.59291">
        <ele>1541.1999511719</ele>
        <time>2022-08-20T13:41:41Z</time>
      </trkpt>
      <trkpt lat="44.07829" lon="6.59291">
        <ele>1541</ele>
        <time>2022-08-20T13:41:42Z</time>
      </trkpt>
      <trkpt lat="44.0783" lon="6.59288">
        <ele>1540</ele>
        <time>2022-08-20T13:41:48Z</time>
      </trkpt>
      <trkpt lat="44.07833" lon="6.59282">
        <ele>1539.8000488281</ele>
        <time>2022-08-20T13:41:51Z</time>
      </trkpt>
      <trkpt lat="44.07838" lon="6.59277">
        <ele>1539.1999511719</ele>
        <time>2022-08-20T13:41:53Z</time>
      </trkpt>
      <trkpt lat="44.07841" lon="6.59275">
        <ele>1539</ele>
        <time>2022-08-20T13:41:54Z</time>
      </trkpt>
      <trkpt lat="44.0785" lon="6.59265">
        <ele>1538</ele>
        <time>2022-08-20T13:41:57Z</time>
      </trkpt>
      <trkpt lat="44.07854" lon="6.59261">
        <ele>1537.8000488281</ele>
        <time>2022-08-20T13:41:58Z</time>
      </trkpt>
      <trkpt lat="44.07866" lon="6.59245">
        <ele>1536.8000488281</ele>
        <time>2022-08-20T13:42:02Z</time>
      </trkpt>
      <trkpt lat="44.07868" lon="6.59241">
        <ele>1536.5999755859</ele>
        <time>2022-08-20T13:42:03Z</time>
      </trkpt>
      <trkpt lat="44.07879" lon="6.59226">
        <ele>1536.1999511719</ele>
        <time>2022-08-20T13:42:07Z</time>
      </trkpt>
      <trkpt lat="44.07883" lon="6.59224">
        <ele>1536</ele>
        <time>2022-08-20T13:42:08Z</time>
      </trkpt>
      <trkpt lat="44.0789" lon="6.59219">
        <ele>1535.5999755859</ele>
        <time>2022-08-20T13:42:10Z</time>
      </trkpt>
      <trkpt lat="44.07896" lon="6.59211">
        <ele>1535</ele>
        <time>2022-08-20T13:42:13Z</time>
      </trkpt>
      <trkpt lat="44.07893" lon="6.59205">
        <ele>1534.5999755859</ele>
        <time>2022-08-20T13:42:16Z</time>
      </trkpt>
      <trkpt lat="44.07892" lon="6.59203">
        <ele>1534.5999755859</ele>
        <time>2022-08-20T13:42:17Z</time>
      </trkpt>
      <trkpt lat="44.0789" lon="6.59202">
        <ele>1534.5999755859</ele>
        <time>2022-08-20T13:42:19Z</time>
      </trkpt>
      <trkpt lat="44.0789" lon="6.59202">
        <ele>1534.8000488281</ele>
        <time>2022-08-20T13:42:20Z</time>
      </trkpt>
      <trkpt lat="44.07889" lon="6.59203">
        <ele>1534.8000488281</ele>
        <time>2022-08-20T13:42:25Z</time>
      </trkpt>
      <trkpt lat="44.07889" lon="6.59203">
        <ele>1534.8000488281</ele>
        <time>2022-08-20T13:42:26Z</time>
      </trkpt>
      <trkpt lat="44.0789" lon="6.59203">
        <ele>1535.1999511719</ele>
        <time>2022-08-20T13:42:29Z</time>
      </trkpt>
      <trkpt lat="44.07886" lon="6.59201">
        <ele>1535</ele>
        <time>2022-08-20T13:42:34Z</time>
      </trkpt>
      <trkpt lat="44.07878" lon="6.59199">
        <ele>1534.4000244141</ele>
        <time>2022-08-20T13:42:38Z</time>
      </trkpt>
      <trkpt lat="44.0787" lon="6.59198">
        <ele>1534</ele>
        <time>2022-08-20T13:42:41Z</time>
      </trkpt>
      <trkpt lat="44.07864" lon="6.59198">
        <ele>1533.5999755859</ele>
        <time>2022-08-20T13:42:43Z</time>
      </trkpt>
      <trkpt lat="44.07861" lon="6.59198">
        <ele>1533.4000244141</ele>
        <time>2022-08-20T13:42:44Z</time>
      </trkpt>
      <trkpt lat="44.07854" lon="6.59197">
        <ele>1532.8000488281</ele>
        <time>2022-08-20T13:42:46Z</time>
      </trkpt>
      <trkpt lat="44.07847" lon="6.59194">
        <ele>1532.4000244141</ele>
        <time>2022-08-20T13:42:48Z</time>
      </trkpt>
      <trkpt lat="44.0784" lon="6.59191">
        <ele>1532.4000244141</ele>
        <time>2022-08-20T13:42:51Z</time>
      </trkpt>
      <trkpt lat="44.07837" lon="6.5919">
        <ele>1532.4000244141</ele>
        <time>2022-08-20T13:42:52Z</time>
      </trkpt>
      <trkpt lat="44.07817" lon="6.59183">
        <ele>1532.4000244141</ele>
        <time>2022-08-20T13:43:00Z</time>
      </trkpt>
      <trkpt lat="44.07794" lon="6.59168">
        <ele>1532.5999755859</ele>
        <time>2022-08-20T13:43:10Z</time>
      </trkpt>
      <trkpt lat="44.07778" lon="6.5916">
        <ele>1532.1999511719</ele>
        <time>2022-08-20T13:43:15Z</time>
      </trkpt>
      <trkpt lat="44.07761" lon="6.59153">
        <ele>1531.8000488281</ele>
        <time>2022-08-20T13:43:20Z</time>
      </trkpt>
      <trkpt lat="44.07753" lon="6.59149">
        <ele>1531.1999511719</ele>
        <time>2022-08-20T13:43:22Z</time>
      </trkpt>
      <trkpt lat="44.07745" lon="6.5914">
        <ele>1531.1999511719</ele>
        <time>2022-08-20T13:43:26Z</time>
      </trkpt>
      <trkpt lat="44.07743" lon="6.59123">
        <ele>1531.1999511719</ele>
        <time>2022-08-20T13:43:32Z</time>
      </trkpt>
      <trkpt lat="44.07741" lon="6.59114">
        <ele>1530</ele>
        <time>2022-08-20T13:43:35Z</time>
      </trkpt>
      <trkpt lat="44.07737" lon="6.59109">
        <ele>1528.5999755859</ele>
        <time>2022-08-20T13:43:38Z</time>
      </trkpt>
      <trkpt lat="44.07735" lon="6.59106">
        <ele>1527.4000244141</ele>
        <time>2022-08-20T13:43:41Z</time>
      </trkpt>
      <trkpt lat="44.07732" lon="6.59102">
        <ele>1526.1999511719</ele>
        <time>2022-08-20T13:43:44Z</time>
      </trkpt>
      <trkpt lat="44.07726" lon="6.59093">
        <ele>1525.1999511719</ele>
        <time>2022-08-20T13:43:48Z</time>
      </trkpt>
      <trkpt lat="44.0772" lon="6.59083">
        <ele>1523.5999755859</ele>
        <time>2022-08-20T13:43:52Z</time>
      </trkpt>
      <trkpt lat="44.07714" lon="6.59078">
        <ele>1522.5999755859</ele>
        <time>2022-08-20T13:43:55Z</time>
      </trkpt>
      <trkpt lat="44.07708" lon="6.5907">
        <ele>1521.4000244141</ele>
        <time>2022-08-20T13:43:58Z</time>
      </trkpt>
      <trkpt lat="44.07705" lon="6.59065">
        <ele>1520.5999755859</ele>
        <time>2022-08-20T13:44:00Z</time>
      </trkpt>
      <trkpt lat="44.07703" lon="6.59063">
        <ele>1520.1999511719</ele>
        <time>2022-08-20T13:44:01Z</time>
      </trkpt>
      <trkpt lat="44.07699" lon="6.59056">
        <ele>1519</ele>
        <time>2022-08-20T13:44:05Z</time>
      </trkpt>
      <trkpt lat="44.07697" lon="6.59054">
        <ele>1518.1999511719</ele>
        <time>2022-08-20T13:44:07Z</time>
      </trkpt>
      <trkpt lat="44.07695" lon="6.59052">
        <ele>1517.8000488281</ele>
        <time>2022-08-20T13:44:09Z</time>
      </trkpt>
      <trkpt lat="44.07691" lon="6.59048">
        <ele>1516.5999755859</ele>
        <time>2022-08-20T13:44:13Z</time>
      </trkpt>
      <trkpt lat="44.07689" lon="6.59045">
        <ele>1516.1999511719</ele>
        <time>2022-08-20T13:44:15Z</time>
      </trkpt>
      <trkpt lat="44.07687" lon="6.5904">
        <ele>1515.5999755859</ele>
        <time>2022-08-20T13:44:18Z</time>
      </trkpt>
      <trkpt lat="44.07684" lon="6.59036">
        <ele>1515</ele>
        <time>2022-08-20T13:44:20Z</time>
      </trkpt>
      <trkpt lat="44.07681" lon="6.59031">
        <ele>1514.4000244141</ele>
        <time>2022-08-20T13:44:23Z</time>
      </trkpt>
      <trkpt lat="44.0768" lon="6.59029">
        <ele>1514</ele>
        <time>2022-08-20T13:44:27Z</time>
      </trkpt>
      <trkpt lat="44.07678" lon="6.59024">
        <ele>1513.4000244141</ele>
        <time>2022-08-20T13:44:31Z</time>
      </trkpt>
      <trkpt lat="44.07676" lon="6.59019">
        <ele>1512.8000488281</ele>
        <time>2022-08-20T13:44:34Z</time>
      </trkpt>
      <trkpt lat="44.07675" lon="6.59015">
        <ele>1512.4000244141</ele>
        <time>2022-08-20T13:44:36Z</time>
      </trkpt>
      <trkpt lat="44.07674" lon="6.59006">
        <ele>1511.1999511719</ele>
        <time>2022-08-20T13:44:39Z</time>
      </trkpt>
      <trkpt lat="44.07675" lon="6.59">
        <ele>1510.5999755859</ele>
        <time>2022-08-20T13:44:41Z</time>
      </trkpt>
      <trkpt lat="44.07675" lon="6.58995">
        <ele>1510</ele>
        <time>2022-08-20T13:44:43Z</time>
      </trkpt>
      <trkpt lat="44.07678" lon="6.58984">
        <ele>1509</ele>
        <time>2022-08-20T13:44:47Z</time>
      </trkpt>
      <trkpt lat="44.07679" lon="6.5898">
        <ele>1508.5999755859</ele>
        <time>2022-08-20T13:44:48Z</time>
      </trkpt>
      <trkpt lat="44.07683" lon="6.58972">
        <ele>1507.8000488281</ele>
        <time>2022-08-20T13:44:51Z</time>
      </trkpt>
      <trkpt lat="44.07684" lon="6.58971">
        <ele>1507.5999755859</ele>
        <time>2022-08-20T13:44:52Z</time>
      </trkpt>
      <trkpt lat="44.07684" lon="6.58971">
        <ele>1507.5999755859</ele>
        <time>2022-08-20T13:44:54Z</time>
      </trkpt>
      <trkpt lat="44.07685" lon="6.58971">
        <ele>1507.5999755859</ele>
        <time>2022-08-20T13:44:55Z</time>
      </trkpt>
      <trkpt lat="44.07685" lon="6.58971">
        <ele>1507.8000488281</ele>
        <time>2022-08-20T13:44:57Z</time>
      </trkpt>
      <trkpt lat="44.07683" lon="6.58967">
        <ele>1507.8000488281</ele>
        <time>2022-08-20T13:45:00Z</time>
      </trkpt>
      <trkpt lat="44.07678" lon="6.58963">
        <ele>1507.5999755859</ele>
        <time>2022-08-20T13:45:03Z</time>
      </trkpt>
      <trkpt lat="44.07676" lon="6.58963">
        <ele>1507.5999755859</ele>
        <time>2022-08-20T13:45:04Z</time>
      </trkpt>
      <trkpt lat="44.07665" lon="6.58963">
        <ele>1507.1999511719</ele>
        <time>2022-08-20T13:45:10Z</time>
      </trkpt>
      <trkpt lat="44.07656" lon="6.58966">
        <ele>1506.8000488281</ele>
        <time>2022-08-20T13:45:15Z</time>
      </trkpt>
      <trkpt lat="44.07654" lon="6.58966">
        <ele>1506.5999755859</ele>
        <time>2022-08-20T13:45:16Z</time>
      </trkpt>
      <trkpt lat="44.07644" lon="6.58964">
        <ele>1505.4000244141</ele>
        <time>2022-08-20T13:45:20Z</time>
      </trkpt>
      <trkpt lat="44.07641" lon="6.58962">
        <ele>1505</ele>
        <time>2022-08-20T13:45:22Z</time>
      </trkpt>
      <trkpt lat="44.07635" lon="6.58962">
        <ele>1504.8000488281</ele>
        <time>2022-08-20T13:45:25Z</time>
      </trkpt>
      <trkpt lat="44.0763" lon="6.58964">
        <ele>1504.1999511719</ele>
        <time>2022-08-20T13:45:27Z</time>
      </trkpt>
      <trkpt lat="44.07625" lon="6.58965">
        <ele>1503.1999511719</ele>
        <time>2022-08-20T13:45:29Z</time>
      </trkpt>
      <trkpt lat="44.07619" lon="6.58965">
        <ele>1502.1999511719</ele>
        <time>2022-08-20T13:45:32Z</time>
      </trkpt>
      <trkpt lat="44.07617" lon="6.58965">
        <ele>1501.8000488281</ele>
        <time>2022-08-20T13:45:33Z</time>
      </trkpt>
      <trkpt lat="44.07612" lon="6.58968">
        <ele>1500.8000488281</ele>
        <time>2022-08-20T13:45:37Z</time>
      </trkpt>
      <trkpt lat="44.0761" lon="6.58969">
        <ele>1500.5999755859</ele>
        <time>2022-08-20T13:45:38Z</time>
      </trkpt>
      <trkpt lat="44.07606" lon="6.5897">
        <ele>1499.8000488281</ele>
        <time>2022-08-20T13:45:41Z</time>
      </trkpt>
      <trkpt lat="44.07604" lon="6.58971">
        <ele>1499.4000244141</ele>
        <time>2022-08-20T13:45:43Z</time>
      </trkpt>
      <trkpt lat="44.07603" lon="6.58972">
        <ele>1499.4000244141</ele>
        <time>2022-08-20T13:45:44Z</time>
      </trkpt>
      <trkpt lat="44.07594" lon="6.58977">
        <ele>1498.8000488281</ele>
        <time>2022-08-20T13:45:49Z</time>
      </trkpt>
      <trkpt lat="44.07591" lon="6.58979">
        <ele>1498.5999755859</ele>
        <time>2022-08-20T13:45:51Z</time>
      </trkpt>
      <trkpt lat="44.0759" lon="6.58981">
        <ele>1498.4000244141</ele>
        <time>2022-08-20T13:45:52Z</time>
      </trkpt>
      <trkpt lat="44.07585" lon="6.58987">
        <ele>1497.5999755859</ele>
        <time>2022-08-20T13:45:55Z</time>
      </trkpt>
      <trkpt lat="44.0758" lon="6.58988">
        <ele>1496.8000488281</ele>
        <time>2022-08-20T13:45:57Z</time>
      </trkpt>
      <trkpt lat="44.07578" lon="6.58988">
        <ele>1496.5999755859</ele>
        <time>2022-08-20T13:45:58Z</time>
      </trkpt>
      <trkpt lat="44.07568" lon="6.58991">
        <ele>1495.4000244141</ele>
        <time>2022-08-20T13:46:04Z</time>
      </trkpt>
      <trkpt lat="44.07564" lon="6.58992">
        <ele>1494.8000488281</ele>
        <time>2022-08-20T13:46:07Z</time>
      </trkpt>
      <trkpt lat="44.0756" lon="6.58992">
        <ele>1494.1999511719</ele>
        <time>2022-08-20T13:46:09Z</time>
      </trkpt>
      <trkpt lat="44.07555" lon="6.58991">
        <ele>1493.5999755859</ele>
        <time>2022-08-20T13:46:11Z</time>
      </trkpt>
      <trkpt lat="44.0755" lon="6.58989">
        <ele>1493.1999511719</ele>
        <time>2022-08-20T13:46:13Z</time>
      </trkpt>
      <trkpt lat="44.07548" lon="6.58988">
        <ele>1492.8000488281</ele>
        <time>2022-08-20T13:46:14Z</time>
      </trkpt>
      <trkpt lat="44.07544" lon="6.58987">
        <ele>1492.5999755859</ele>
        <time>2022-08-20T13:46:16Z</time>
      </trkpt>
      <trkpt lat="44.07539" lon="6.58984">
        <ele>1492.1999511719</ele>
        <time>2022-08-20T13:46:19Z</time>
      </trkpt>
      <trkpt lat="44.07536" lon="6.58983">
        <ele>1491.5999755859</ele>
        <time>2022-08-20T13:46:21Z</time>
      </trkpt>
      <trkpt lat="44.07531" lon="6.58981">
        <ele>1491</ele>
        <time>2022-08-20T13:46:24Z</time>
      </trkpt>
      <trkpt lat="44.07527" lon="6.5898">
        <ele>1490.5999755859</ele>
        <time>2022-08-20T13:46:26Z</time>
      </trkpt>
      <trkpt lat="44.07523" lon="6.58979">
        <ele>1490.4000244141</ele>
        <time>2022-08-20T13:46:28Z</time>
      </trkpt>
      <trkpt lat="44.07513" lon="6.58978">
        <ele>1489.8000488281</ele>
        <time>2022-08-20T13:46:32Z</time>
      </trkpt>
      <trkpt lat="44.07507" lon="6.58976">
        <ele>1489.5999755859</ele>
        <time>2022-08-20T13:46:35Z</time>
      </trkpt>
      <trkpt lat="44.07501" lon="6.58974">
        <ele>1489.4000244141</ele>
        <time>2022-08-20T13:46:38Z</time>
      </trkpt>
      <trkpt lat="44.07489" lon="6.58973">
        <ele>1489.1999511719</ele>
        <time>2022-08-20T13:46:44Z</time>
      </trkpt>
      <trkpt lat="44.07486" lon="6.58974">
        <ele>1488.8000488281</ele>
        <time>2022-08-20T13:46:48Z</time>
      </trkpt>
      <trkpt lat="44.07484" lon="6.58974">
        <ele>1488.4000244141</ele>
        <time>2022-08-20T13:46:52Z</time>
      </trkpt>
      <trkpt lat="44.07482" lon="6.58973">
        <ele>1488</ele>
        <time>2022-08-20T13:46:57Z</time>
      </trkpt>
      <trkpt lat="44.07479" lon="6.58972">
        <ele>1487.8000488281</ele>
        <time>2022-08-20T13:46:59Z</time>
      </trkpt>
      <trkpt lat="44.07475" lon="6.5897">
        <ele>1487.4000244141</ele>
        <time>2022-08-20T13:47:01Z</time>
      </trkpt>
      <trkpt lat="44.07473" lon="6.58968">
        <ele>1487.4000244141</ele>
        <time>2022-08-20T13:47:02Z</time>
      </trkpt>
      <trkpt lat="44.07472" lon="6.58964">
        <ele>1487.1999511719</ele>
        <time>2022-08-20T13:47:04Z</time>
      </trkpt>
      <trkpt lat="44.07471" lon="6.58963">
        <ele>1487.4000244141</ele>
        <time>2022-08-20T13:47:06Z</time>
      </trkpt>
      <trkpt lat="44.07471" lon="6.58963">
        <ele>1487.5999755859</ele>
        <time>2022-08-20T13:47:07Z</time>
      </trkpt>
      <trkpt lat="44.07471" lon="6.58963">
        <ele>1487.5999755859</ele>
        <time>2022-08-20T13:47:08Z</time>
      </trkpt>
      <trkpt lat="44.07471" lon="6.58962">
        <ele>1487.8000488281</ele>
        <time>2022-08-20T13:47:10Z</time>
      </trkpt>
      <trkpt lat="44.07469" lon="6.58958">
        <ele>1487.8000488281</ele>
        <time>2022-08-20T13:47:14Z</time>
      </trkpt>
      <trkpt lat="44.07468" lon="6.58955">
        <ele>1487.8000488281</ele>
        <time>2022-08-20T13:47:16Z</time>
      </trkpt>
      <trkpt lat="44.07467" lon="6.58952">
        <ele>1487.4000244141</ele>
        <time>2022-08-20T13:47:20Z</time>
      </trkpt>
      <trkpt lat="44.07466" lon="6.5895">
        <ele>1486.8000488281</ele>
        <time>2022-08-20T13:47:26Z</time>
      </trkpt>
      <trkpt lat="44.07466" lon="6.58945">
        <ele>1486.5999755859</ele>
        <time>2022-08-20T13:47:29Z</time>
      </trkpt>
      <trkpt lat="44.07465" lon="6.58943">
        <ele>1486.4000244141</ele>
        <time>2022-08-20T13:47:30Z</time>
      </trkpt>
      <trkpt lat="44.07465" lon="6.58935">
        <ele>1486</ele>
        <time>2022-08-20T13:47:34Z</time>
      </trkpt>
      <trkpt lat="44.07465" lon="6.5893">
        <ele>1485.5999755859</ele>
        <time>2022-08-20T13:47:36Z</time>
      </trkpt>
      <trkpt lat="44.07465" lon="6.58927">
        <ele>1485.1999511719</ele>
        <time>2022-08-20T13:47:37Z</time>
      </trkpt>
      <trkpt lat="44.07465" lon="6.58923">
        <ele>1484.5999755859</ele>
        <time>2022-08-20T13:47:40Z</time>
      </trkpt>
      <trkpt lat="44.07464" lon="6.58922">
        <ele>1484.1999511719</ele>
        <time>2022-08-20T13:47:42Z</time>
      </trkpt>
      <trkpt lat="44.07464" lon="6.58921">
        <ele>1484</ele>
        <time>2022-08-20T13:47:43Z</time>
      </trkpt>
      <trkpt lat="44.07464" lon="6.58919">
        <ele>1483.1999511719</ele>
        <time>2022-08-20T13:47:46Z</time>
      </trkpt>
      <trkpt lat="44.07465" lon="6.58913">
        <ele>1482.5999755859</ele>
        <time>2022-08-20T13:47:52Z</time>
      </trkpt>
      <trkpt lat="44.07464" lon="6.5891">
        <ele>1482.1999511719</ele>
        <time>2022-08-20T13:47:54Z</time>
      </trkpt>
      <trkpt lat="44.07463" lon="6.58905">
        <ele>1481</ele>
        <time>2022-08-20T13:47:57Z</time>
      </trkpt>
      <trkpt lat="44.07463" lon="6.589">
        <ele>1480</ele>
        <time>2022-08-20T13:48:01Z</time>
      </trkpt>
      <trkpt lat="44.07463" lon="6.58898">
        <ele>1479.8000488281</ele>
        <time>2022-08-20T13:48:02Z</time>
      </trkpt>
      <trkpt lat="44.07464" lon="6.58892">
        <ele>1478.8000488281</ele>
        <time>2022-08-20T13:48:06Z</time>
      </trkpt>
      <trkpt lat="44.07464" lon="6.58891">
        <ele>1478</ele>
        <time>2022-08-20T13:48:09Z</time>
      </trkpt>
      <trkpt lat="44.07464" lon="6.5889">
        <ele>1477.8000488281</ele>
        <time>2022-08-20T13:48:10Z</time>
      </trkpt>
      <trkpt lat="44.07464" lon="6.58889">
        <ele>1477.5999755859</ele>
        <time>2022-08-20T13:48:11Z</time>
      </trkpt>
      <trkpt lat="44.07462" lon="6.58883">
        <ele>1476.5999755859</ele>
        <time>2022-08-20T13:48:15Z</time>
      </trkpt>
      <trkpt lat="44.07461" lon="6.58879">
        <ele>1476</ele>
        <time>2022-08-20T13:48:18Z</time>
      </trkpt>
      <trkpt lat="44.0746" lon="6.58877">
        <ele>1475.5999755859</ele>
        <time>2022-08-20T13:48:19Z</time>
      </trkpt>
      <trkpt lat="44.0746" lon="6.58875">
        <ele>1475.4000244141</ele>
        <time>2022-08-20T13:48:20Z</time>
      </trkpt>
      <trkpt lat="44.07459" lon="6.58873">
        <ele>1474.5999755859</ele>
        <time>2022-08-20T13:48:22Z</time>
      </trkpt>
      <trkpt lat="44.07459" lon="6.58872">
        <ele>1474</ele>
        <time>2022-08-20T13:48:23Z</time>
      </trkpt>
      <trkpt lat="44.07459" lon="6.58872">
        <ele>1473.5999755859</ele>
        <time>2022-08-20T13:48:25Z</time>
      </trkpt>
      <trkpt lat="44.07459" lon="6.58872">
        <ele>1473.1999511719</ele>
        <time>2022-08-20T13:48:26Z</time>
      </trkpt>
      <trkpt lat="44.07456" lon="6.58877">
        <ele>1472.4000244141</ele>
        <time>2022-08-20T13:48:32Z</time>
      </trkpt>
      <trkpt lat="44.07455" lon="6.5888">
        <ele>1471.8000488281</ele>
        <time>2022-08-20T13:48:34Z</time>
      </trkpt>
      <trkpt lat="44.07455" lon="6.58882">
        <ele>1471.4000244141</ele>
        <time>2022-08-20T13:48:35Z</time>
      </trkpt>
      <trkpt lat="44.07454" lon="6.58884">
        <ele>1471</ele>
        <time>2022-08-20T13:48:36Z</time>
      </trkpt>
      <trkpt lat="44.07454" lon="6.58887">
        <ele>1470.5999755859</ele>
        <time>2022-08-20T13:48:37Z</time>
      </trkpt>
      <trkpt lat="44.07454" lon="6.5889">
        <ele>1470.1999511719</ele>
        <time>2022-08-20T13:48:38Z</time>
      </trkpt>
      <trkpt lat="44.07454" lon="6.58894">
        <ele>1469.8000488281</ele>
        <time>2022-08-20T13:48:40Z</time>
      </trkpt>
      <trkpt lat="44.07453" lon="6.58895">
        <ele>1469.5999755859</ele>
        <time>2022-08-20T13:48:41Z</time>
      </trkpt>
      <trkpt lat="44.07452" lon="6.58896">
        <ele>1469.1999511719</ele>
        <time>2022-08-20T13:48:43Z</time>
      </trkpt>
      <trkpt lat="44.07452" lon="6.58895">
        <ele>1469</ele>
        <time>2022-08-20T13:48:44Z</time>
      </trkpt>
      <trkpt lat="44.07451" lon="6.58896">
        <ele>1468.8000488281</ele>
        <time>2022-08-20T13:48:46Z</time>
      </trkpt>
      <trkpt lat="44.07447" lon="6.58892">
        <ele>1468.1999511719</ele>
        <time>2022-08-20T13:48:54Z</time>
      </trkpt>
      <trkpt lat="44.07446" lon="6.5889">
        <ele>1468</ele>
        <time>2022-08-20T13:48:55Z</time>
      </trkpt>
      <trkpt lat="44.07445" lon="6.58888">
        <ele>1467.5999755859</ele>
        <time>2022-08-20T13:48:56Z</time>
      </trkpt>
      <trkpt lat="44.07445" lon="6.58886">
        <ele>1467</ele>
        <time>2022-08-20T13:48:57Z</time>
      </trkpt>
      <trkpt lat="44.07444" lon="6.58878">
        <ele>1465.8000488281</ele>
        <time>2022-08-20T13:49:00Z</time>
      </trkpt>
      <trkpt lat="44.07443" lon="6.58876">
        <ele>1465.4000244141</ele>
        <time>2022-08-20T13:49:01Z</time>
      </trkpt>
      <trkpt lat="44.07442" lon="6.58872">
        <ele>1464.5999755859</ele>
        <time>2022-08-20T13:49:03Z</time>
      </trkpt>
      <trkpt lat="44.07441" lon="6.58865">
        <ele>1463.5999755859</ele>
        <time>2022-08-20T13:49:06Z</time>
      </trkpt>
      <trkpt lat="44.0744" lon="6.58856">
        <ele>1462.1999511719</ele>
        <time>2022-08-20T13:49:09Z</time>
      </trkpt>
      <trkpt lat="44.0744" lon="6.58853">
        <ele>1461.8000488281</ele>
        <time>2022-08-20T13:49:10Z</time>
      </trkpt>
      <trkpt lat="44.07439" lon="6.5885">
        <ele>1461.1999511719</ele>
        <time>2022-08-20T13:49:11Z</time>
      </trkpt>
      <trkpt lat="44.07437" lon="6.58842">
        <ele>1459.8000488281</ele>
        <time>2022-08-20T13:49:14Z</time>
      </trkpt>
      <trkpt lat="44.07435" lon="6.58833">
        <ele>1458.5999755859</ele>
        <time>2022-08-20T13:49:17Z</time>
      </trkpt>
      <trkpt lat="44.07435" lon="6.5883">
        <ele>1458.1999511719</ele>
        <time>2022-08-20T13:49:18Z</time>
      </trkpt>
      <trkpt lat="44.07435" lon="6.58824">
        <ele>1457.1999511719</ele>
        <time>2022-08-20T13:49:20Z</time>
      </trkpt>
      <trkpt lat="44.07432" lon="6.58814">
        <ele>1456</ele>
        <time>2022-08-20T13:49:23Z</time>
      </trkpt>
      <trkpt lat="44.07431" lon="6.58811">
        <ele>1455.4000244141</ele>
        <time>2022-08-20T13:49:24Z</time>
      </trkpt>
      <trkpt lat="44.0743" lon="6.58808">
        <ele>1454.8000488281</ele>
        <time>2022-08-20T13:49:25Z</time>
      </trkpt>
      <trkpt lat="44.07428" lon="6.58802">
        <ele>1453.4000244141</ele>
        <time>2022-08-20T13:49:27Z</time>
      </trkpt>
      <trkpt lat="44.07427" lon="6.58795">
        <ele>1452.4000244141</ele>
        <time>2022-08-20T13:49:29Z</time>
      </trkpt>
      <trkpt lat="44.07427" lon="6.58789">
        <ele>1451.4000244141</ele>
        <time>2022-08-20T13:49:31Z</time>
      </trkpt>
      <trkpt lat="44.07427" lon="6.58787">
        <ele>1451</ele>
        <time>2022-08-20T13:49:32Z</time>
      </trkpt>
      <trkpt lat="44.07426" lon="6.58785">
        <ele>1450.5999755859</ele>
        <time>2022-08-20T13:49:33Z</time>
      </trkpt>
      <trkpt lat="44.07426" lon="6.58785">
        <ele>1450.4000244141</ele>
        <time>2022-08-20T13:49:34Z</time>
      </trkpt>
      <trkpt lat="44.07427" lon="6.58784">
        <ele>1450</ele>
        <time>2022-08-20T13:49:35Z</time>
      </trkpt>
      <trkpt lat="44.07427" lon="6.58784">
        <ele>1449.1999511719</ele>
        <time>2022-08-20T13:49:38Z</time>
      </trkpt>
      <trkpt lat="44.07427" lon="6.58785">
        <ele>1449</ele>
        <time>2022-08-20T13:49:39Z</time>
      </trkpt>
      <trkpt lat="44.07427" lon="6.58784">
        <ele>1449</ele>
        <time>2022-08-20T13:49:40Z</time>
      </trkpt>
      <trkpt lat="44.07425" lon="6.58791">
        <ele>1448.5999755859</ele>
        <time>2022-08-20T13:49:45Z</time>
      </trkpt>
      <trkpt lat="44.07423" lon="6.58799">
        <ele>1448</ele>
        <time>2022-08-20T13:49:51Z</time>
      </trkpt>
      <trkpt lat="44.07421" lon="6.58799">
        <ele>1447.8000488281</ele>
        <time>2022-08-20T13:49:53Z</time>
      </trkpt>
      <trkpt lat="44.07421" lon="6.58798">
        <ele>1446.8000488281</ele>
        <time>2022-08-20T13:49:57Z</time>
      </trkpt>
      <trkpt lat="44.07421" lon="6.58798">
        <ele>1446.8000488281</ele>
        <time>2022-08-20T13:49:58Z</time>
      </trkpt>
      <trkpt lat="44.07421" lon="6.58783">
        <ele>1446.1999511719</ele>
        <time>2022-08-20T13:50:04Z</time>
      </trkpt>
      <trkpt lat="44.0742" lon="6.58781">
        <ele>1445.8000488281</ele>
        <time>2022-08-20T13:50:05Z</time>
      </trkpt>
      <trkpt lat="44.0742" lon="6.58775">
        <ele>1445.1999511719</ele>
        <time>2022-08-20T13:50:07Z</time>
      </trkpt>
      <trkpt lat="44.07419" lon="6.58772">
        <ele>1444.8000488281</ele>
        <time>2022-08-20T13:50:08Z</time>
      </trkpt>
      <trkpt lat="44.07418" lon="6.58769">
        <ele>1444.5999755859</ele>
        <time>2022-08-20T13:50:09Z</time>
      </trkpt>
      <trkpt lat="44.07417" lon="6.58763">
        <ele>1443.5999755859</ele>
        <time>2022-08-20T13:50:11Z</time>
      </trkpt>
      <trkpt lat="44.07417" lon="6.58759">
        <ele>1443</ele>
        <time>2022-08-20T13:50:12Z</time>
      </trkpt>
      <trkpt lat="44.07417" lon="6.58755">
        <ele>1442.4000244141</ele>
        <time>2022-08-20T13:50:13Z</time>
      </trkpt>
      <trkpt lat="44.07417" lon="6.58748">
        <ele>1441.4000244141</ele>
        <time>2022-08-20T13:50:15Z</time>
      </trkpt>
      <trkpt lat="44.07417" lon="6.58745">
        <ele>1440.5999755859</ele>
        <time>2022-08-20T13:50:17Z</time>
      </trkpt>
      <trkpt lat="44.07417" lon="6.58743">
        <ele>1440.1999511719</ele>
        <time>2022-08-20T13:50:18Z</time>
      </trkpt>
      <trkpt lat="44.07413" lon="6.58739">
        <ele>1439</ele>
        <time>2022-08-20T13:50:21Z</time>
      </trkpt>
      <trkpt lat="44.07408" lon="6.58732">
        <ele>1437.4000244141</ele>
        <time>2022-08-20T13:50:24Z</time>
      </trkpt>
      <trkpt lat="44.07407" lon="6.58728">
        <ele>1437</ele>
        <time>2022-08-20T13:50:25Z</time>
      </trkpt>
      <trkpt lat="44.07406" lon="6.58721">
        <ele>1436.1999511719</ele>
        <time>2022-08-20T13:50:27Z</time>
      </trkpt>
      <trkpt lat="44.07404" lon="6.58708">
        <ele>1435.1999511719</ele>
        <time>2022-08-20T13:50:31Z</time>
      </trkpt>
      <trkpt lat="44.07403" lon="6.58705">
        <ele>1434.8000488281</ele>
        <time>2022-08-20T13:50:32Z</time>
      </trkpt>
      <trkpt lat="44.07401" lon="6.58696">
        <ele>1434</ele>
        <time>2022-08-20T13:50:36Z</time>
      </trkpt>
      <trkpt lat="44.074" lon="6.58692">
        <ele>1433.4000244141</ele>
        <time>2022-08-20T13:50:38Z</time>
      </trkpt>
      <trkpt lat="44.07399" lon="6.58689">
        <ele>1433</ele>
        <time>2022-08-20T13:50:39Z</time>
      </trkpt>
      <trkpt lat="44.07396" lon="6.58676">
        <ele>1431.8000488281</ele>
        <time>2022-08-20T13:50:44Z</time>
      </trkpt>
      <trkpt lat="44.07396" lon="6.58673">
        <ele>1431.5999755859</ele>
        <time>2022-08-20T13:50:45Z</time>
      </trkpt>
      <trkpt lat="44.07396" lon="6.58672">
        <ele>1431.4000244141</ele>
        <time>2022-08-20T13:50:47Z</time>
      </trkpt>
      <trkpt lat="44.07396" lon="6.58672">
        <ele>1431</ele>
        <time>2022-08-20T13:50:49Z</time>
      </trkpt>
      <trkpt lat="44.07395" lon="6.58672">
        <ele>1431</ele>
        <time>2022-08-20T13:50:50Z</time>
      </trkpt>
      <trkpt lat="44.07395" lon="6.58672">
        <ele>1430.8000488281</ele>
        <time>2022-08-20T13:50:51Z</time>
      </trkpt>
      <trkpt lat="44.07395" lon="6.58672">
        <ele>1430.8000488281</ele>
        <time>2022-08-20T13:50:52Z</time>
      </trkpt>
      <trkpt lat="44.07394" lon="6.58671">
        <ele>1430.4000244141</ele>
        <time>2022-08-20T13:50:58Z</time>
      </trkpt>
      <trkpt lat="44.07394" lon="6.58669">
        <ele>1430.1999511719</ele>
        <time>2022-08-20T13:50:59Z</time>
      </trkpt>
      <trkpt lat="44.07393" lon="6.58668">
        <ele>1430.1999511719</ele>
        <time>2022-08-20T13:51:00Z</time>
      </trkpt>
      <trkpt lat="44.07393" lon="6.58666">
        <ele>1430.1999511719</ele>
        <time>2022-08-20T13:51:01Z</time>
      </trkpt>
      <trkpt lat="44.0739" lon="6.58658">
        <ele>1429.5999755859</ele>
        <time>2022-08-20T13:51:04Z</time>
      </trkpt>
      <trkpt lat="44.07388" lon="6.58646">
        <ele>1429</ele>
        <time>2022-08-20T13:51:07Z</time>
      </trkpt>
      <trkpt lat="44.07388" lon="6.58641">
        <ele>1428.5999755859</ele>
        <time>2022-08-20T13:51:09Z</time>
      </trkpt>
      <trkpt lat="44.07388" lon="6.58638">
        <ele>1428.1999511719</ele>
        <time>2022-08-20T13:51:13Z</time>
      </trkpt>
      <trkpt lat="44.07389" lon="6.58636">
        <ele>1428.1999511719</ele>
        <time>2022-08-20T13:51:19Z</time>
      </trkpt>
      <trkpt lat="44.07389" lon="6.58633">
        <ele>1427.4000244141</ele>
        <time>2022-08-20T13:51:27Z</time>
      </trkpt>
      <trkpt lat="44.07389" lon="6.58633">
        <ele>1427.1999511719</ele>
        <time>2022-08-20T13:51:30Z</time>
      </trkpt>
      <trkpt lat="44.07389" lon="6.58631">
        <ele>1427</ele>
        <time>2022-08-20T13:51:35Z</time>
      </trkpt>
      <trkpt lat="44.07389" lon="6.5863">
        <ele>1426.5999755859</ele>
        <time>2022-08-20T13:51:39Z</time>
      </trkpt>
      <trkpt lat="44.07389" lon="6.58629">
        <ele>1426.4000244141</ele>
        <time>2022-08-20T13:51:41Z</time>
      </trkpt>
      <trkpt lat="44.0739" lon="6.58629">
        <ele>1426.4000244141</ele>
        <time>2022-08-20T13:51:42Z</time>
      </trkpt>
      <trkpt lat="44.0739" lon="6.58629">
        <ele>1426.1999511719</ele>
        <time>2022-08-20T13:51:47Z</time>
      </trkpt>
      <trkpt lat="44.0739" lon="6.58629">
        <ele>1426.1999511719</ele>
        <time>2022-08-20T13:51:48Z</time>
      </trkpt>
      <trkpt lat="44.0739" lon="6.58628">
        <ele>1426.1999511719</ele>
        <time>2022-08-20T13:51:50Z</time>
      </trkpt>
      <trkpt lat="44.0739" lon="6.58628">
        <ele>1426.1999511719</ele>
        <time>2022-08-20T13:51:51Z</time>
      </trkpt>
      <trkpt lat="44.0739" lon="6.58628">
        <ele>1426</ele>
        <time>2022-08-20T13:51:55Z</time>
      </trkpt>
      <trkpt lat="44.07389" lon="6.58628">
        <ele>1425.8000488281</ele>
        <time>2022-08-20T13:52:02Z</time>
      </trkpt>
      <trkpt lat="44.07389" lon="6.58628">
        <ele>1426.1999511719</ele>
        <time>2022-08-20T13:52:14Z</time>
      </trkpt>
      <trkpt lat="44.07388" lon="6.58627">
        <ele>1425.8000488281</ele>
        <time>2022-08-20T13:52:20Z</time>
      </trkpt>
      <trkpt lat="44.07388" lon="6.58627">
        <ele>1425.8000488281</ele>
        <time>2022-08-20T13:52:22Z</time>
      </trkpt>
      <trkpt lat="44.07388" lon="6.58627">
        <ele>1425.8000488281</ele>
        <time>2022-08-20T13:52:24Z</time>
      </trkpt>
      <trkpt lat="44.07388" lon="6.58628">
        <ele>1425.5999755859</ele>
        <time>2022-08-20T13:52:28Z</time>
      </trkpt>
      <trkpt lat="44.07388" lon="6.58628">
        <ele>1426</ele>
        <time>2022-08-20T13:52:33Z</time>
      </trkpt>
      <trkpt lat="44.07387" lon="6.58627">
        <ele>1426</ele>
        <time>2022-08-20T13:52:43Z</time>
      </trkpt>
      <trkpt lat="44.07386" lon="6.58615">
        <ele>1425.5999755859</ele>
        <time>2022-08-20T13:52:50Z</time>
      </trkpt>
      <trkpt lat="44.07386" lon="6.58613">
        <ele>1425.4000244141</ele>
        <time>2022-08-20T13:52:51Z</time>
      </trkpt>
      <trkpt lat="44.07386" lon="6.58611">
        <ele>1425.1999511719</ele>
        <time>2022-08-20T13:52:52Z</time>
      </trkpt>
      <trkpt lat="44.07385" lon="6.58606">
        <ele>1425</ele>
        <time>2022-08-20T13:52:54Z</time>
      </trkpt>
      <trkpt lat="44.07385" lon="6.58594">
        <ele>1424.1999511719</ele>
        <time>2022-08-20T13:52:58Z</time>
      </trkpt>
      <trkpt lat="44.07386" lon="6.58592">
        <ele>1424.1999511719</ele>
        <time>2022-08-20T13:52:59Z</time>
      </trkpt>
      <trkpt lat="44.07385" lon="6.58581">
        <ele>1424.1999511719</ele>
        <time>2022-08-20T13:53:03Z</time>
      </trkpt>
      <trkpt lat="44.07385" lon="6.58578">
        <ele>1424.1999511719</ele>
        <time>2022-08-20T13:53:04Z</time>
      </trkpt>
      <trkpt lat="44.07387" lon="6.58561">
        <ele>1424</ele>
        <time>2022-08-20T13:53:09Z</time>
      </trkpt>
      <trkpt lat="44.07388" lon="6.58554">
        <ele>1424.1999511719</ele>
        <time>2022-08-20T13:53:12Z</time>
      </trkpt>
      <trkpt lat="44.07389" lon="6.58529">
        <ele>1423.5999755859</ele>
        <time>2022-08-20T13:53:20Z</time>
      </trkpt>
      <trkpt lat="44.0739" lon="6.58518">
        <ele>1423.1999511719</ele>
        <time>2022-08-20T13:53:24Z</time>
      </trkpt>
      <trkpt lat="44.07388" lon="6.58508">
        <ele>1423</ele>
        <time>2022-08-20T13:53:28Z</time>
      </trkpt>
      <trkpt lat="44.07387" lon="6.58502">
        <ele>1422.5999755859</ele>
        <time>2022-08-20T13:53:30Z</time>
      </trkpt>
      <trkpt lat="44.07387" lon="6.58496">
        <ele>1422.1999511719</ele>
        <time>2022-08-20T13:53:32Z</time>
      </trkpt>
      <trkpt lat="44.07388" lon="6.58489">
        <ele>1421.5999755859</ele>
        <time>2022-08-20T13:53:35Z</time>
      </trkpt>
      <trkpt lat="44.0739" lon="6.58464">
        <ele>1421.1999511719</ele>
        <time>2022-08-20T13:53:44Z</time>
      </trkpt>
      <trkpt lat="44.0739" lon="6.58459">
        <ele>1421</ele>
        <time>2022-08-20T13:53:46Z</time>
      </trkpt>
      <trkpt lat="44.0739" lon="6.58451">
        <ele>1420.8000488281</ele>
        <time>2022-08-20T13:53:49Z</time>
      </trkpt>
      <trkpt lat="44.07391" lon="6.58445">
        <ele>1420.5999755859</ele>
        <time>2022-08-20T13:53:51Z</time>
      </trkpt>
      <trkpt lat="44.07393" lon="6.58435">
        <ele>1420</ele>
        <time>2022-08-20T13:53:55Z</time>
      </trkpt>
      <trkpt lat="44.07394" lon="6.58433">
        <ele>1419.5999755859</ele>
        <time>2022-08-20T13:53:57Z</time>
      </trkpt>
      <trkpt lat="44.07394" lon="6.58433">
        <ele>1419.5999755859</ele>
        <time>2022-08-20T13:53:58Z</time>
      </trkpt>
      <trkpt lat="44.07394" lon="6.58434">
        <ele>1419.4000244141</ele>
        <time>2022-08-20T13:54:00Z</time>
      </trkpt>
      <trkpt lat="44.07394" lon="6.58433">
        <ele>1419.1999511719</ele>
        <time>2022-08-20T13:54:01Z</time>
      </trkpt>
      <trkpt lat="44.07394" lon="6.58433">
        <ele>1419.1999511719</ele>
        <time>2022-08-20T13:54:02Z</time>
      </trkpt>
      <trkpt lat="44.07394" lon="6.58433">
        <ele>1419.8000488281</ele>
        <time>2022-08-20T13:54:07Z</time>
      </trkpt>
      <trkpt lat="44.07394" lon="6.58433">
        <ele>1419.4000244141</ele>
        <time>2022-08-20T13:54:17Z</time>
      </trkpt>
      <trkpt lat="44.07395" lon="6.58428">
        <ele>1419.4000244141</ele>
        <time>2022-08-20T13:54:23Z</time>
      </trkpt>
      <trkpt lat="44.07396" lon="6.58425">
        <ele>1419</ele>
        <time>2022-08-20T13:54:25Z</time>
      </trkpt>
      <trkpt lat="44.07397" lon="6.58422">
        <ele>1418.4000244141</ele>
        <time>2022-08-20T13:54:27Z</time>
      </trkpt>
      <trkpt lat="44.07399" lon="6.58419">
        <ele>1417.8000488281</ele>
        <time>2022-08-20T13:54:29Z</time>
      </trkpt>
      <trkpt lat="44.07401" lon="6.58415">
        <ele>1417.1999511719</ele>
        <time>2022-08-20T13:54:31Z</time>
      </trkpt>
      <trkpt lat="44.07403" lon="6.58413">
        <ele>1416.8000488281</ele>
        <time>2022-08-20T13:54:32Z</time>
      </trkpt>
      <trkpt lat="44.07407" lon="6.58405">
        <ele>1415.5999755859</ele>
        <time>2022-08-20T13:54:35Z</time>
      </trkpt>
      <trkpt lat="44.0741" lon="6.584">
        <ele>1414.5999755859</ele>
        <time>2022-08-20T13:54:37Z</time>
      </trkpt>
      <trkpt lat="44.07413" lon="6.58396">
        <ele>1413.4000244141</ele>
        <time>2022-08-20T13:54:39Z</time>
      </trkpt>
      <trkpt lat="44.07415" lon="6.58394">
        <ele>1413</ele>
        <time>2022-08-20T13:54:40Z</time>
      </trkpt>
      <trkpt lat="44.07419" lon="6.58388">
        <ele>1412</ele>
        <time>2022-08-20T13:54:42Z</time>
      </trkpt>
      <trkpt lat="44.07426" lon="6.58378">
        <ele>1410.8000488281</ele>
        <time>2022-08-20T13:54:45Z</time>
      </trkpt>
      <trkpt lat="44.07433" lon="6.58373">
        <ele>1410</ele>
        <time>2022-08-20T13:54:47Z</time>
      </trkpt>
      <trkpt lat="44.07437" lon="6.5837">
        <ele>1409.5999755859</ele>
        <time>2022-08-20T13:54:48Z</time>
      </trkpt>
      <trkpt lat="44.07448" lon="6.58363">
        <ele>1409</ele>
        <time>2022-08-20T13:54:52Z</time>
      </trkpt>
      <trkpt lat="44.07449" lon="6.58361">
        <ele>1409</ele>
        <time>2022-08-20T13:54:53Z</time>
      </trkpt>
      <trkpt lat="44.07445" lon="6.58349">
        <ele>1408.4000244141</ele>
        <time>2022-08-20T13:54:57Z</time>
      </trkpt>
      <trkpt lat="44.07439" lon="6.58339">
        <ele>1407.1999511719</ele>
        <time>2022-08-20T13:55:01Z</time>
      </trkpt>
      <trkpt lat="44.07436" lon="6.58334">
        <ele>1406.5999755859</ele>
        <time>2022-08-20T13:55:03Z</time>
      </trkpt>
      <trkpt lat="44.07433" lon="6.58328">
        <ele>1406</ele>
        <time>2022-08-20T13:55:05Z</time>
      </trkpt>
      <trkpt lat="44.07429" lon="6.58319">
        <ele>1405</ele>
        <time>2022-08-20T13:55:09Z</time>
      </trkpt>
      <trkpt lat="44.07428" lon="6.58315">
        <ele>1404.1999511719</ele>
        <time>2022-08-20T13:55:11Z</time>
      </trkpt>
      <trkpt lat="44.07428" lon="6.58313">
        <ele>1403.8000488281</ele>
        <time>2022-08-20T13:55:12Z</time>
      </trkpt>
      <trkpt lat="44.07426" lon="6.58308">
        <ele>1402.8000488281</ele>
        <time>2022-08-20T13:55:16Z</time>
      </trkpt>
      <trkpt lat="44.07425" lon="6.58306">
        <ele>1402.5999755859</ele>
        <time>2022-08-20T13:55:17Z</time>
      </trkpt>
      <trkpt lat="44.07425" lon="6.58304">
        <ele>1402.4000244141</ele>
        <time>2022-08-20T13:55:18Z</time>
      </trkpt>
      <trkpt lat="44.07423" lon="6.58299">
        <ele>1401.8000488281</ele>
        <time>2022-08-20T13:55:20Z</time>
      </trkpt>
      <trkpt lat="44.07422" lon="6.58296">
        <ele>1401.5999755859</ele>
        <time>2022-08-20T13:55:21Z</time>
      </trkpt>
      <trkpt lat="44.07421" lon="6.58292">
        <ele>1401.1999511719</ele>
        <time>2022-08-20T13:55:22Z</time>
      </trkpt>
      <trkpt lat="44.0742" lon="6.58283">
        <ele>1400.5999755859</ele>
        <time>2022-08-20T13:55:24Z</time>
      </trkpt>
      <trkpt lat="44.07418" lon="6.58273">
        <ele>1400</ele>
        <time>2022-08-20T13:55:26Z</time>
      </trkpt>
      <trkpt lat="44.07417" lon="6.58264">
        <ele>1399.4000244141</ele>
        <time>2022-08-20T13:55:28Z</time>
      </trkpt>
      <trkpt lat="44.07416" lon="6.58245">
        <ele>1399</ele>
        <time>2022-08-20T13:55:34Z</time>
      </trkpt>
      <trkpt lat="44.07416" lon="6.58238">
        <ele>1398.8000488281</ele>
        <time>2022-08-20T13:55:36Z</time>
      </trkpt>
      <trkpt lat="44.07416" lon="6.58231">
        <ele>1398.1999511719</ele>
        <time>2022-08-20T13:55:38Z</time>
      </trkpt>
      <trkpt lat="44.07417" lon="6.58221">
        <ele>1397.4000244141</ele>
        <time>2022-08-20T13:55:41Z</time>
      </trkpt>
      <trkpt lat="44.07418" lon="6.58218">
        <ele>1397.1999511719</ele>
        <time>2022-08-20T13:55:43Z</time>
      </trkpt>
      <trkpt lat="44.07417" lon="6.58215">
        <ele>1397</ele>
        <time>2022-08-20T13:55:44Z</time>
      </trkpt>
      <trkpt lat="44.07417" lon="6.5821">
        <ele>1396.5999755859</ele>
        <time>2022-08-20T13:55:46Z</time>
      </trkpt>
      <trkpt lat="44.07418" lon="6.58205">
        <ele>1396</ele>
        <time>2022-08-20T13:55:48Z</time>
      </trkpt>
      <trkpt lat="44.07419" lon="6.58198">
        <ele>1395</ele>
        <time>2022-08-20T13:55:51Z</time>
      </trkpt>
      <trkpt lat="44.07419" lon="6.58195">
        <ele>1394.5999755859</ele>
        <time>2022-08-20T13:55:52Z</time>
      </trkpt>
      <trkpt lat="44.0742" lon="6.58187">
        <ele>1393.8000488281</ele>
        <time>2022-08-20T13:55:55Z</time>
      </trkpt>
      <trkpt lat="44.07421" lon="6.58181">
        <ele>1393</ele>
        <time>2022-08-20T13:55:58Z</time>
      </trkpt>
      <trkpt lat="44.07421" lon="6.5818">
        <ele>1392.8000488281</ele>
        <time>2022-08-20T13:55:59Z</time>
      </trkpt>
      <trkpt lat="44.07421" lon="6.58178">
        <ele>1392.5999755859</ele>
        <time>2022-08-20T13:56:00Z</time>
      </trkpt>
      <trkpt lat="44.07422" lon="6.58166">
        <ele>1391.4000244141</ele>
        <time>2022-08-20T13:56:04Z</time>
      </trkpt>
      <trkpt lat="44.07423" lon="6.58164">
        <ele>1390.4000244141</ele>
        <time>2022-08-20T13:56:07Z</time>
      </trkpt>
      <trkpt lat="44.07424" lon="6.58162">
        <ele>1389.5999755859</ele>
        <time>2022-08-20T13:56:14Z</time>
      </trkpt>
      <trkpt lat="44.07424" lon="6.58161">
        <ele>1389.4000244141</ele>
        <time>2022-08-20T13:56:17Z</time>
      </trkpt>
      <trkpt lat="44.07421" lon="6.58153">
        <ele>1388.5999755859</ele>
        <time>2022-08-20T13:56:23Z</time>
      </trkpt>
      <trkpt lat="44.0742" lon="6.58151">
        <ele>1388.4000244141</ele>
        <time>2022-08-20T13:56:24Z</time>
      </trkpt>
      <trkpt lat="44.07419" lon="6.58148">
        <ele>1388</ele>
        <time>2022-08-20T13:56:25Z</time>
      </trkpt>
      <trkpt lat="44.07417" lon="6.58142">
        <ele>1387.1999511719</ele>
        <time>2022-08-20T13:56:27Z</time>
      </trkpt>
      <trkpt lat="44.07417" lon="6.58137">
        <ele>1386.1999511719</ele>
        <time>2022-08-20T13:56:29Z</time>
      </trkpt>
      <trkpt lat="44.07416" lon="6.58131">
        <ele>1385</ele>
        <time>2022-08-20T13:56:32Z</time>
      </trkpt>
      <trkpt lat="44.07415" lon="6.58124">
        <ele>1383.5999755859</ele>
        <time>2022-08-20T13:56:35Z</time>
      </trkpt>
      <trkpt lat="44.07415" lon="6.58117">
        <ele>1382.4000244141</ele>
        <time>2022-08-20T13:56:38Z</time>
      </trkpt>
      <trkpt lat="44.07414" lon="6.5811">
        <ele>1381.4000244141</ele>
        <time>2022-08-20T13:56:41Z</time>
      </trkpt>
      <trkpt lat="44.07412" lon="6.58097">
        <ele>1380</ele>
        <time>2022-08-20T13:56:45Z</time>
      </trkpt>
      <trkpt lat="44.07411" lon="6.58087">
        <ele>1378.5999755859</ele>
        <time>2022-08-20T13:56:48Z</time>
      </trkpt>
      <trkpt lat="44.07411" lon="6.58077">
        <ele>1377.1999511719</ele>
        <time>2022-08-20T13:56:51Z</time>
      </trkpt>
      <trkpt lat="44.07412" lon="6.58071">
        <ele>1376</ele>
        <time>2022-08-20T13:56:53Z</time>
      </trkpt>
      <trkpt lat="44.07414" lon="6.5806">
        <ele>1374.8000488281</ele>
        <time>2022-08-20T13:56:56Z</time>
      </trkpt>
      <trkpt lat="44.07415" lon="6.58054">
        <ele>1374</ele>
        <time>2022-08-20T13:56:58Z</time>
      </trkpt>
      <trkpt lat="44.07416" lon="6.58051">
        <ele>1373.8000488281</ele>
        <time>2022-08-20T13:56:59Z</time>
      </trkpt>
      <trkpt lat="44.07418" lon="6.58045">
        <ele>1372.8000488281</ele>
        <time>2022-08-20T13:57:02Z</time>
      </trkpt>
      <trkpt lat="44.07418" lon="6.58045">
        <ele>1372.5999755859</ele>
        <time>2022-08-20T13:57:03Z</time>
      </trkpt>
      <trkpt lat="44.07418" lon="6.58044">
        <ele>1372.1999511719</ele>
        <time>2022-08-20T13:57:05Z</time>
      </trkpt>
      <trkpt lat="44.07416" lon="6.58044">
        <ele>1371.5999755859</ele>
        <time>2022-08-20T13:57:07Z</time>
      </trkpt>
      <trkpt lat="44.07416" lon="6.58044">
        <ele>1371.4000244141</ele>
        <time>2022-08-20T13:57:08Z</time>
      </trkpt>
      <trkpt lat="44.07414" lon="6.58053">
        <ele>1370.4000244141</ele>
        <time>2022-08-20T13:57:12Z</time>
      </trkpt>
      <trkpt lat="44.07412" lon="6.58057">
        <ele>1370</ele>
        <time>2022-08-20T13:57:13Z</time>
      </trkpt>
      <trkpt lat="44.07411" lon="6.5806">
        <ele>1369.5999755859</ele>
        <time>2022-08-20T13:57:14Z</time>
      </trkpt>
      <trkpt lat="44.07409" lon="6.58062">
        <ele>1369.1999511719</ele>
        <time>2022-08-20T13:57:15Z</time>
      </trkpt>
      <trkpt lat="44.07405" lon="6.58077">
        <ele>1368.1999511719</ele>
        <time>2022-08-20T13:57:19Z</time>
      </trkpt>
      <trkpt lat="44.07403" lon="6.58081">
        <ele>1368</ele>
        <time>2022-08-20T13:57:20Z</time>
      </trkpt>
      <trkpt lat="44.074" lon="6.58089">
        <ele>1367.4000244141</ele>
        <time>2022-08-20T13:57:22Z</time>
      </trkpt>
      <trkpt lat="44.07399" lon="6.58093">
        <ele>1367.1999511719</ele>
        <time>2022-08-20T13:57:23Z</time>
      </trkpt>
      <trkpt lat="44.07397" lon="6.58102">
        <ele>1366</ele>
        <time>2022-08-20T13:57:26Z</time>
      </trkpt>
      <trkpt lat="44.07395" lon="6.58104">
        <ele>1365.5999755859</ele>
        <time>2022-08-20T13:57:27Z</time>
      </trkpt>
      <trkpt lat="44.07392" lon="6.58113">
        <ele>1364.8000488281</ele>
        <time>2022-08-20T13:57:30Z</time>
      </trkpt>
      <trkpt lat="44.07391" lon="6.58123">
        <ele>1363.8000488281</ele>
        <time>2022-08-20T13:57:33Z</time>
      </trkpt>
      <trkpt lat="44.0739" lon="6.58127">
        <ele>1363.4000244141</ele>
        <time>2022-08-20T13:57:34Z</time>
      </trkpt>
      <trkpt lat="44.07389" lon="6.58139">
        <ele>1362.1999511719</ele>
        <time>2022-08-20T13:57:38Z</time>
      </trkpt>
      <trkpt lat="44.07389" lon="6.58139">
        <ele>1362</ele>
        <time>2022-08-20T13:57:39Z</time>
      </trkpt>
      <trkpt lat="44.07388" lon="6.5814">
        <ele>1362</ele>
        <time>2022-08-20T13:57:43Z</time>
      </trkpt>
      <trkpt lat="44.07388" lon="6.58142">
        <ele>1362</ele>
        <time>2022-08-20T13:57:45Z</time>
      </trkpt>
      <trkpt lat="44.07386" lon="6.58143">
        <ele>1361.5999755859</ele>
        <time>2022-08-20T13:57:50Z</time>
      </trkpt>
      <trkpt lat="44.07383" lon="6.5814">
        <ele>1361.1999511719</ele>
        <time>2022-08-20T13:57:53Z</time>
      </trkpt>
      <trkpt lat="44.07382" lon="6.58132">
        <ele>1360.1999511719</ele>
        <time>2022-08-20T13:57:57Z</time>
      </trkpt>
      <trkpt lat="44.07382" lon="6.5813">
        <ele>1359.8000488281</ele>
        <time>2022-08-20T13:57:58Z</time>
      </trkpt>
      <trkpt lat="44.07382" lon="6.58128">
        <ele>1359.5999755859</ele>
        <time>2022-08-20T13:57:59Z</time>
      </trkpt>
      <trkpt lat="44.07381" lon="6.58122">
        <ele>1358.5999755859</ele>
        <time>2022-08-20T13:58:02Z</time>
      </trkpt>
      <trkpt lat="44.0738" lon="6.58116">
        <ele>1358.1999511719</ele>
        <time>2022-08-20T13:58:04Z</time>
      </trkpt>
      <trkpt lat="44.0738" lon="6.58112">
        <ele>1357.8000488281</ele>
        <time>2022-08-20T13:58:06Z</time>
      </trkpt>
      <trkpt lat="44.07379" lon="6.58108">
        <ele>1357.4000244141</ele>
        <time>2022-08-20T13:58:08Z</time>
      </trkpt>
      <trkpt lat="44.07377" lon="6.58097">
        <ele>1356</ele>
        <time>2022-08-20T13:58:12Z</time>
      </trkpt>
      <trkpt lat="44.07377" lon="6.58091">
        <ele>1354.5999755859</ele>
        <time>2022-08-20T13:58:15Z</time>
      </trkpt>
      <trkpt lat="44.07376" lon="6.5808">
        <ele>1353.1999511719</ele>
        <time>2022-08-20T13:58:20Z</time>
      </trkpt>
      <trkpt lat="44.07377" lon="6.58076">
        <ele>1352.4000244141</ele>
        <time>2022-08-20T13:58:22Z</time>
      </trkpt>
      <trkpt lat="44.07377" lon="6.58073">
        <ele>1352</ele>
        <time>2022-08-20T13:58:23Z</time>
      </trkpt>
      <trkpt lat="44.07377" lon="6.58066">
        <ele>1351</ele>
        <time>2022-08-20T13:58:26Z</time>
      </trkpt>
      <trkpt lat="44.07377" lon="6.58059">
        <ele>1349.8000488281</ele>
        <time>2022-08-20T13:58:29Z</time>
      </trkpt>
      <trkpt lat="44.07378" lon="6.58057">
        <ele>1349.4000244141</ele>
        <time>2022-08-20T13:58:30Z</time>
      </trkpt>
      <trkpt lat="44.07378" lon="6.58052">
        <ele>1348.5999755859</ele>
        <time>2022-08-20T13:58:32Z</time>
      </trkpt>
      <trkpt lat="44.07379" lon="6.58045">
        <ele>1347.4000244141</ele>
        <time>2022-08-20T13:58:35Z</time>
      </trkpt>
      <trkpt lat="44.0738" lon="6.58041">
        <ele>1346.8000488281</ele>
        <time>2022-08-20T13:58:37Z</time>
      </trkpt>
      <trkpt lat="44.0738" lon="6.5804">
        <ele>1346.4000244141</ele>
        <time>2022-08-20T13:58:38Z</time>
      </trkpt>
      <trkpt lat="44.0738" lon="6.58038">
        <ele>1346</ele>
        <time>2022-08-20T13:58:39Z</time>
      </trkpt>
      <trkpt lat="44.0738" lon="6.58036">
        <ele>1345.8000488281</ele>
        <time>2022-08-20T13:58:40Z</time>
      </trkpt>
      <trkpt lat="44.0738" lon="6.58032">
        <ele>1345.1999511719</ele>
        <time>2022-08-20T13:58:42Z</time>
      </trkpt>
      <trkpt lat="44.07381" lon="6.58024">
        <ele>1344</ele>
        <time>2022-08-20T13:58:45Z</time>
      </trkpt>
      <trkpt lat="44.07381" lon="6.58017">
        <ele>1342.8000488281</ele>
        <time>2022-08-20T13:58:48Z</time>
      </trkpt>
      <trkpt lat="44.0738" lon="6.58009">
        <ele>1341.8000488281</ele>
        <time>2022-08-20T13:58:51Z</time>
      </trkpt>
      <trkpt lat="44.07378" lon="6.58001">
        <ele>1340.5999755859</ele>
        <time>2022-08-20T13:58:54Z</time>
      </trkpt>
      <trkpt lat="44.07378" lon="6.57992">
        <ele>1339.4000244141</ele>
        <time>2022-08-20T13:58:57Z</time>
      </trkpt>
      <trkpt lat="44.07379" lon="6.57981">
        <ele>1338</ele>
        <time>2022-08-20T13:59:00Z</time>
      </trkpt>
      <trkpt lat="44.07378" lon="6.5797">
        <ele>1337</ele>
        <time>2022-08-20T13:59:03Z</time>
      </trkpt>
      <trkpt lat="44.07375" lon="6.57962">
        <ele>1336.1999511719</ele>
        <time>2022-08-20T13:59:05Z</time>
      </trkpt>
      <trkpt lat="44.07375" lon="6.57958">
        <ele>1335.8000488281</ele>
        <time>2022-08-20T13:59:06Z</time>
      </trkpt>
      <trkpt lat="44.07374" lon="6.57952">
        <ele>1334.5999755859</ele>
        <time>2022-08-20T13:59:08Z</time>
      </trkpt>
      <trkpt lat="44.07375" lon="6.57948">
        <ele>1333.5999755859</ele>
        <time>2022-08-20T13:59:10Z</time>
      </trkpt>
      <trkpt lat="44.07375" lon="6.57946">
        <ele>1333.1999511719</ele>
        <time>2022-08-20T13:59:11Z</time>
      </trkpt>
      <trkpt lat="44.07374" lon="6.57941">
        <ele>1332.4000244141</ele>
        <time>2022-08-20T13:59:13Z</time>
      </trkpt>
      <trkpt lat="44.07375" lon="6.57939">
        <ele>1332</ele>
        <time>2022-08-20T13:59:14Z</time>
      </trkpt>
      <trkpt lat="44.07376" lon="6.57935">
        <ele>1331.1999511719</ele>
        <time>2022-08-20T13:59:16Z</time>
      </trkpt>
      <trkpt lat="44.07376" lon="6.57929">
        <ele>1330</ele>
        <time>2022-08-20T13:59:19Z</time>
      </trkpt>
      <trkpt lat="44.07375" lon="6.57923">
        <ele>1329.1999511719</ele>
        <time>2022-08-20T13:59:21Z</time>
      </trkpt>
      <trkpt lat="44.07376" lon="6.57921">
        <ele>1328.5999755859</ele>
        <time>2022-08-20T13:59:22Z</time>
      </trkpt>
      <trkpt lat="44.07376" lon="6.57919">
        <ele>1328.1999511719</ele>
        <time>2022-08-20T13:59:23Z</time>
      </trkpt>
      <trkpt lat="44.07378" lon="6.57915">
        <ele>1327.4000244141</ele>
        <time>2022-08-20T13:59:25Z</time>
      </trkpt>
      <trkpt lat="44.07379" lon="6.57912">
        <ele>1327</ele>
        <time>2022-08-20T13:59:26Z</time>
      </trkpt>
      <trkpt lat="44.07379" lon="6.57907">
        <ele>1326.1999511719</ele>
        <time>2022-08-20T13:59:28Z</time>
      </trkpt>
      <trkpt lat="44.07381" lon="6.579">
        <ele>1325</ele>
        <time>2022-08-20T13:59:31Z</time>
      </trkpt>
      <trkpt lat="44.07381" lon="6.57898">
        <ele>1324.4000244141</ele>
        <time>2022-08-20T13:59:32Z</time>
      </trkpt>
      <trkpt lat="44.07382" lon="6.57897">
        <ele>1324</ele>
        <time>2022-08-20T13:59:33Z</time>
      </trkpt>
      <trkpt lat="44.07384" lon="6.57891">
        <ele>1322.8000488281</ele>
        <time>2022-08-20T13:59:36Z</time>
      </trkpt>
      <trkpt lat="44.07385" lon="6.57886">
        <ele>1322</ele>
        <time>2022-08-20T13:59:38Z</time>
      </trkpt>
      <trkpt lat="44.07384" lon="6.57883">
        <ele>1321.5999755859</ele>
        <time>2022-08-20T13:59:39Z</time>
      </trkpt>
      <trkpt lat="44.07383" lon="6.5787">
        <ele>1320.1999511719</ele>
        <time>2022-08-20T13:59:42Z</time>
      </trkpt>
      <trkpt lat="44.07381" lon="6.57859">
        <ele>1318.8000488281</ele>
        <time>2022-08-20T13:59:45Z</time>
      </trkpt>
      <trkpt lat="44.07381" lon="6.57855">
        <ele>1318.5999755859</ele>
        <time>2022-08-20T13:59:46Z</time>
      </trkpt>
      <trkpt lat="44.07379" lon="6.57845">
        <ele>1317.5999755859</ele>
        <time>2022-08-20T13:59:48Z</time>
      </trkpt>
      <trkpt lat="44.07377" lon="6.57836">
        <ele>1316.5999755859</ele>
        <time>2022-08-20T13:59:50Z</time>
      </trkpt>
      <trkpt lat="44.07374" lon="6.5783">
        <ele>1315.8000488281</ele>
        <time>2022-08-20T13:59:52Z</time>
      </trkpt>
      <trkpt lat="44.07373" lon="6.57824">
        <ele>1315.4000244141</ele>
        <time>2022-08-20T13:59:54Z</time>
      </trkpt>
      <trkpt lat="44.07367" lon="6.57807">
        <ele>1315</ele>
        <time>2022-08-20T14:00:00Z</time>
      </trkpt>
      <trkpt lat="44.07365" lon="6.57794">
        <ele>1314.5999755859</ele>
        <time>2022-08-20T14:00:04Z</time>
      </trkpt>
      <trkpt lat="44.07364" lon="6.57786">
        <ele>1314.4000244141</ele>
        <time>2022-08-20T14:00:06Z</time>
      </trkpt>
      <trkpt lat="44.07364" lon="6.57782">
        <ele>1314</ele>
        <time>2022-08-20T14:00:07Z</time>
      </trkpt>
      <trkpt lat="44.07364" lon="6.57774">
        <ele>1313.4000244141</ele>
        <time>2022-08-20T14:00:10Z</time>
      </trkpt>
      <trkpt lat="44.07366" lon="6.57765">
        <ele>1312.1999511719</ele>
        <time>2022-08-20T14:00:14Z</time>
      </trkpt>
      <trkpt lat="44.07368" lon="6.57757">
        <ele>1311</ele>
        <time>2022-08-20T14:00:17Z</time>
      </trkpt>
      <trkpt lat="44.07369" lon="6.57753">
        <ele>1310</ele>
        <time>2022-08-20T14:00:19Z</time>
      </trkpt>
      <trkpt lat="44.07371" lon="6.57751">
        <ele>1309.8000488281</ele>
        <time>2022-08-20T14:00:20Z</time>
      </trkpt>
      <trkpt lat="44.07375" lon="6.57744">
        <ele>1308.8000488281</ele>
        <time>2022-08-20T14:00:23Z</time>
      </trkpt>
      <trkpt lat="44.07383" lon="6.57736">
        <ele>1307.4000244141</ele>
        <time>2022-08-20T14:00:27Z</time>
      </trkpt>
      <trkpt lat="44.0739" lon="6.57728">
        <ele>1306</ele>
        <time>2022-08-20T14:00:31Z</time>
      </trkpt>
      <trkpt lat="44.07393" lon="6.57724">
        <ele>1305.4000244141</ele>
        <time>2022-08-20T14:00:33Z</time>
      </trkpt>
      <trkpt lat="44.07396" lon="6.57721">
        <ele>1305</ele>
        <time>2022-08-20T14:00:34Z</time>
      </trkpt>
      <trkpt lat="44.07402" lon="6.57715">
        <ele>1303.4000244141</ele>
        <time>2022-08-20T14:00:37Z</time>
      </trkpt>
      <trkpt lat="44.07409" lon="6.57709">
        <ele>1302.1999511719</ele>
        <time>2022-08-20T14:00:40Z</time>
      </trkpt>
      <trkpt lat="44.07414" lon="6.57703">
        <ele>1300.5999755859</ele>
        <time>2022-08-20T14:00:43Z</time>
      </trkpt>
      <trkpt lat="44.07417" lon="6.577">
        <ele>1299.5999755859</ele>
        <time>2022-08-20T14:00:45Z</time>
      </trkpt>
      <trkpt lat="44.07418" lon="6.57699">
        <ele>1299.1999511719</ele>
        <time>2022-08-20T14:00:46Z</time>
      </trkpt>
      <trkpt lat="44.07422" lon="6.57695">
        <ele>1298.4000244141</ele>
        <time>2022-08-20T14:00:48Z</time>
      </trkpt>
      <trkpt lat="44.07429" lon="6.5769">
        <ele>1297</ele>
        <time>2022-08-20T14:00:51Z</time>
      </trkpt>
      <trkpt lat="44.07436" lon="6.57684">
        <ele>1295.5999755859</ele>
        <time>2022-08-20T14:00:54Z</time>
      </trkpt>
      <trkpt lat="44.07442" lon="6.57681">
        <ele>1294.5999755859</ele>
        <time>2022-08-20T14:00:56Z</time>
      </trkpt>
      <trkpt lat="44.07446" lon="6.5768">
        <ele>1293.4000244141</ele>
        <time>2022-08-20T14:00:58Z</time>
      </trkpt>
      <trkpt lat="44.07451" lon="6.57679">
        <ele>1292.4000244141</ele>
        <time>2022-08-20T14:01:00Z</time>
      </trkpt>
      <trkpt lat="44.07453" lon="6.57679">
        <ele>1291.8000488281</ele>
        <time>2022-08-20T14:01:01Z</time>
      </trkpt>
      <trkpt lat="44.07454" lon="6.57678">
        <ele>1291.4000244141</ele>
        <time>2022-08-20T14:01:02Z</time>
      </trkpt>
      <trkpt lat="44.07453" lon="6.57677">
        <ele>1291</ele>
        <time>2022-08-20T14:01:03Z</time>
      </trkpt>
      <trkpt lat="44.07453" lon="6.57676">
        <ele>1290.8000488281</ele>
        <time>2022-08-20T14:01:04Z</time>
      </trkpt>
      <trkpt lat="44.0745" lon="6.57675">
        <ele>1290.1999511719</ele>
        <time>2022-08-20T14:01:07Z</time>
      </trkpt>
      <trkpt lat="44.07448" lon="6.57675">
        <ele>1289.8000488281</ele>
        <time>2022-08-20T14:01:08Z</time>
      </trkpt>
      <trkpt lat="44.07446" lon="6.57674">
        <ele>1289.4000244141</ele>
        <time>2022-08-20T14:01:09Z</time>
      </trkpt>
      <trkpt lat="44.07442" lon="6.57674">
        <ele>1288.8000488281</ele>
        <time>2022-08-20T14:01:11Z</time>
      </trkpt>
      <trkpt lat="44.07435" lon="6.57674">
        <ele>1287.4000244141</ele>
        <time>2022-08-20T14:01:14Z</time>
      </trkpt>
      <trkpt lat="44.07433" lon="6.57673">
        <ele>1287</ele>
        <time>2022-08-20T14:01:15Z</time>
      </trkpt>
      <trkpt lat="44.07429" lon="6.57672">
        <ele>1286</ele>
        <time>2022-08-20T14:01:17Z</time>
      </trkpt>
      <trkpt lat="44.07423" lon="6.57668">
        <ele>1284.5999755859</ele>
        <time>2022-08-20T14:01:20Z</time>
      </trkpt>
      <trkpt lat="44.07418" lon="6.57669">
        <ele>1283.5999755859</ele>
        <time>2022-08-20T14:01:22Z</time>
      </trkpt>
      <trkpt lat="44.0741" lon="6.5767">
        <ele>1282.4000244141</ele>
        <time>2022-08-20T14:01:25Z</time>
      </trkpt>
      <trkpt lat="44.07405" lon="6.57672">
        <ele>1281.4000244141</ele>
        <time>2022-08-20T14:01:27Z</time>
      </trkpt>
      <trkpt lat="44.074" lon="6.57673">
        <ele>1280.4000244141</ele>
        <time>2022-08-20T14:01:29Z</time>
      </trkpt>
      <trkpt lat="44.07399" lon="6.57673">
        <ele>1280</ele>
        <time>2022-08-20T14:01:30Z</time>
      </trkpt>
      <trkpt lat="44.07396" lon="6.57672">
        <ele>1279.4000244141</ele>
        <time>2022-08-20T14:01:32Z</time>
      </trkpt>
      <trkpt lat="44.07395" lon="6.57669">
        <ele>1278.8000488281</ele>
        <time>2022-08-20T14:01:34Z</time>
      </trkpt>
      <trkpt lat="44.07399" lon="6.57664">
        <ele>1277.5999755859</ele>
        <time>2022-08-20T14:01:38Z</time>
      </trkpt>
      <trkpt lat="44.07399" lon="6.57664">
        <ele>1277.1999511719</ele>
        <time>2022-08-20T14:01:39Z</time>
      </trkpt>
      <trkpt lat="44.07399" lon="6.57664">
        <ele>1276.8000488281</ele>
        <time>2022-08-20T14:01:40Z</time>
      </trkpt>
      <trkpt lat="44.07399" lon="6.57663">
        <ele>1276.5999755859</ele>
        <time>2022-08-20T14:01:41Z</time>
      </trkpt>
      <trkpt lat="44.07399" lon="6.57663">
        <ele>1276.4000244141</ele>
        <time>2022-08-20T14:01:42Z</time>
      </trkpt>
      <trkpt lat="44.07404" lon="6.57659">
        <ele>1275.4000244141</ele>
        <time>2022-08-20T14:01:47Z</time>
      </trkpt>
      <trkpt lat="44.07408" lon="6.57655">
        <ele>1274.4000244141</ele>
        <time>2022-08-20T14:01:50Z</time>
      </trkpt>
      <trkpt lat="44.0741" lon="6.57652">
        <ele>1273.5999755859</ele>
        <time>2022-08-20T14:01:52Z</time>
      </trkpt>
      <trkpt lat="44.07411" lon="6.57651">
        <ele>1273.1999511719</ele>
        <time>2022-08-20T14:01:53Z</time>
      </trkpt>
      <trkpt lat="44.07414" lon="6.57647">
        <ele>1272</ele>
        <time>2022-08-20T14:01:56Z</time>
      </trkpt>
      <trkpt lat="44.07419" lon="6.57642">
        <ele>1270.8000488281</ele>
        <time>2022-08-20T14:01:59Z</time>
      </trkpt>
      <trkpt lat="44.0742" lon="6.5764">
        <ele>1270.1999511719</ele>
        <time>2022-08-20T14:02:00Z</time>
      </trkpt>
      <trkpt lat="44.07423" lon="6.57638">
        <ele>1269.4000244141</ele>
        <time>2022-08-20T14:02:02Z</time>
      </trkpt>
      <trkpt lat="44.07428" lon="6.57634">
        <ele>1268.1999511719</ele>
        <time>2022-08-20T14:02:05Z</time>
      </trkpt>
      <trkpt lat="44.07432" lon="6.5763">
        <ele>1267.1999511719</ele>
        <time>2022-08-20T14:02:08Z</time>
      </trkpt>
      <trkpt lat="44.07435" lon="6.57628">
        <ele>1266</ele>
        <time>2022-08-20T14:02:11Z</time>
      </trkpt>
      <trkpt lat="44.0744" lon="6.57623">
        <ele>1264.5999755859</ele>
        <time>2022-08-20T14:02:14Z</time>
      </trkpt>
      <trkpt lat="44.07442" lon="6.57622">
        <ele>1264.1999511719</ele>
        <time>2022-08-20T14:02:15Z</time>
      </trkpt>
      <trkpt lat="44.07443" lon="6.57619">
        <ele>1263.8000488281</ele>
        <time>2022-08-20T14:02:16Z</time>
      </trkpt>
      <trkpt lat="44.07444" lon="6.57617">
        <ele>1263.4000244141</ele>
        <time>2022-08-20T14:02:17Z</time>
      </trkpt>
      <trkpt lat="44.07449" lon="6.57611">
        <ele>1262</ele>
        <time>2022-08-20T14:02:20Z</time>
      </trkpt>
      <trkpt lat="44.07451" lon="6.5761">
        <ele>1261.4000244141</ele>
        <time>2022-08-20T14:02:21Z</time>
      </trkpt>
      <trkpt lat="44.07454" lon="6.57607">
        <ele>1260.4000244141</ele>
        <time>2022-08-20T14:02:23Z</time>
      </trkpt>
      <trkpt lat="44.0746" lon="6.57602">
        <ele>1258.8000488281</ele>
        <time>2022-08-20T14:02:26Z</time>
      </trkpt>
      <trkpt lat="44.07461" lon="6.57601">
        <ele>1258.4000244141</ele>
        <time>2022-08-20T14:02:27Z</time>
      </trkpt>
      <trkpt lat="44.07463" lon="6.576">
        <ele>1257.8000488281</ele>
        <time>2022-08-20T14:02:28Z</time>
      </trkpt>
      <trkpt lat="44.07468" lon="6.57595">
        <ele>1256.5999755859</ele>
        <time>2022-08-20T14:02:31Z</time>
      </trkpt>
      <trkpt lat="44.07471" lon="6.57587">
        <ele>1255.5999755859</ele>
        <time>2022-08-20T14:02:34Z</time>
      </trkpt>
      <trkpt lat="44.07475" lon="6.57577">
        <ele>1254.1999511719</ele>
        <time>2022-08-20T14:02:37Z</time>
      </trkpt>
      <trkpt lat="44.07478" lon="6.57573">
        <ele>1253.1999511719</ele>
        <time>2022-08-20T14:02:39Z</time>
      </trkpt>
      <trkpt lat="44.0748" lon="6.57571">
        <ele>1252.8000488281</ele>
        <time>2022-08-20T14:02:40Z</time>
      </trkpt>
      <trkpt lat="44.07481" lon="6.57569">
        <ele>1252.4000244141</ele>
        <time>2022-08-20T14:02:41Z</time>
      </trkpt>
      <trkpt lat="44.07484" lon="6.57563">
        <ele>1251.5999755859</ele>
        <time>2022-08-20T14:02:43Z</time>
      </trkpt>
      <trkpt lat="44.07487" lon="6.57558">
        <ele>1250.4000244141</ele>
        <time>2022-08-20T14:02:46Z</time>
      </trkpt>
      <trkpt lat="44.07487" lon="6.57557">
        <ele>1250.4000244141</ele>
        <time>2022-08-20T14:02:47Z</time>
      </trkpt>
      <trkpt lat="44.07491" lon="6.57551">
        <ele>1249.8000488281</ele>
        <time>2022-08-20T14:02:50Z</time>
      </trkpt>
      <trkpt lat="44.07492" lon="6.57548">
        <ele>1249.4000244141</ele>
        <time>2022-08-20T14:02:51Z</time>
      </trkpt>
      <trkpt lat="44.07494" lon="6.57538">
        <ele>1248.1999511719</ele>
        <time>2022-08-20T14:02:54Z</time>
      </trkpt>
      <trkpt lat="44.07498" lon="6.5753">
        <ele>1246.8000488281</ele>
        <time>2022-08-20T14:02:57Z</time>
      </trkpt>
      <trkpt lat="44.07501" lon="6.57523">
        <ele>1245.8000488281</ele>
        <time>2022-08-20T14:03:00Z</time>
      </trkpt>
      <trkpt lat="44.07502" lon="6.57521">
        <ele>1245.1999511719</ele>
        <time>2022-08-20T14:03:01Z</time>
      </trkpt>
      <trkpt lat="44.07504" lon="6.57515">
        <ele>1244.4000244141</ele>
        <time>2022-08-20T14:03:03Z</time>
      </trkpt>
      <trkpt lat="44.07506" lon="6.57512">
        <ele>1244</ele>
        <time>2022-08-20T14:03:04Z</time>
      </trkpt>
      <trkpt lat="44.07509" lon="6.57507">
        <ele>1243.1999511719</ele>
        <time>2022-08-20T14:03:06Z</time>
      </trkpt>
      <trkpt lat="44.07511" lon="6.57504">
        <ele>1242.5999755859</ele>
        <time>2022-08-20T14:03:07Z</time>
      </trkpt>
      <trkpt lat="44.07514" lon="6.57498">
        <ele>1242</ele>
        <time>2022-08-20T14:03:09Z</time>
      </trkpt>
      <trkpt lat="44.07518" lon="6.57491">
        <ele>1240.8000488281</ele>
        <time>2022-08-20T14:03:12Z</time>
      </trkpt>
      <trkpt lat="44.0752" lon="6.57486">
        <ele>1240</ele>
        <time>2022-08-20T14:03:14Z</time>
      </trkpt>
      <trkpt lat="44.07522" lon="6.57484">
        <ele>1239.5999755859</ele>
        <time>2022-08-20T14:03:15Z</time>
      </trkpt>
      <trkpt lat="44.07525" lon="6.57478">
        <ele>1238.1999511719</ele>
        <time>2022-08-20T14:03:18Z</time>
      </trkpt>
      <trkpt lat="44.07527" lon="6.57472">
        <ele>1236.8000488281</ele>
        <time>2022-08-20T14:03:21Z</time>
      </trkpt>
      <trkpt lat="44.07531" lon="6.57466">
        <ele>1235.4000244141</ele>
        <time>2022-08-20T14:03:24Z</time>
      </trkpt>
      <trkpt lat="44.07533" lon="6.57463">
        <ele>1234.1999511719</ele>
        <time>2022-08-20T14:03:26Z</time>
      </trkpt>
      <trkpt lat="44.07534" lon="6.57461">
        <ele>1233.8000488281</ele>
        <time>2022-08-20T14:03:27Z</time>
      </trkpt>
      <trkpt lat="44.07537" lon="6.57459">
        <ele>1233.1999511719</ele>
        <time>2022-08-20T14:03:29Z</time>
      </trkpt>
      <trkpt lat="44.07539" lon="6.57459">
        <ele>1232.8000488281</ele>
        <time>2022-08-20T14:03:30Z</time>
      </trkpt>
      <trkpt lat="44.07539" lon="6.57459">
        <ele>1232.1999511719</ele>
        <time>2022-08-20T14:03:32Z</time>
      </trkpt>
      <trkpt lat="44.07537" lon="6.57459">
        <ele>1231.8000488281</ele>
        <time>2022-08-20T14:03:34Z</time>
      </trkpt>
      <trkpt lat="44.07531" lon="6.57463">
        <ele>1231.1999511719</ele>
        <time>2022-08-20T14:03:37Z</time>
      </trkpt>
      <trkpt lat="44.07525" lon="6.57466">
        <ele>1230.5999755859</ele>
        <time>2022-08-20T14:03:39Z</time>
      </trkpt>
      <trkpt lat="44.07521" lon="6.57468">
        <ele>1230</ele>
        <time>2022-08-20T14:03:41Z</time>
      </trkpt>
      <trkpt lat="44.07516" lon="6.57471">
        <ele>1229.1999511719</ele>
        <time>2022-08-20T14:03:43Z</time>
      </trkpt>
      <trkpt lat="44.07512" lon="6.57473">
        <ele>1228.5999755859</ele>
        <time>2022-08-20T14:03:45Z</time>
      </trkpt>
      <trkpt lat="44.07508" lon="6.57477">
        <ele>1228</ele>
        <time>2022-08-20T14:03:47Z</time>
      </trkpt>
      <trkpt lat="44.07501" lon="6.5748">
        <ele>1227</ele>
        <time>2022-08-20T14:03:51Z</time>
      </trkpt>
      <trkpt lat="44.07499" lon="6.57481">
        <ele>1226.4000244141</ele>
        <time>2022-08-20T14:03:52Z</time>
      </trkpt>
      <trkpt lat="44.07496" lon="6.57484">
        <ele>1225.8000488281</ele>
        <time>2022-08-20T14:03:54Z</time>
      </trkpt>
      <trkpt lat="44.0749" lon="6.57488">
        <ele>1224.5999755859</ele>
        <time>2022-08-20T14:03:57Z</time>
      </trkpt>
      <trkpt lat="44.07486" lon="6.57491">
        <ele>1223.4000244141</ele>
        <time>2022-08-20T14:04:00Z</time>
      </trkpt>
      <trkpt lat="44.07485" lon="6.57491">
        <ele>1223.1999511719</ele>
        <time>2022-08-20T14:04:01Z</time>
      </trkpt>
      <trkpt lat="44.07481" lon="6.57494">
        <ele>1222.4000244141</ele>
        <time>2022-08-20T14:04:04Z</time>
      </trkpt>
      <trkpt lat="44.07479" lon="6.57492">
        <ele>1221.8000488281</ele>
        <time>2022-08-20T14:04:06Z</time>
      </trkpt>
      <trkpt lat="44.07479" lon="6.57492">
        <ele>1221.5999755859</ele>
        <time>2022-08-20T14:04:07Z</time>
      </trkpt>
      <trkpt lat="44.07478" lon="6.57492">
        <ele>1221.4000244141</ele>
        <time>2022-08-20T14:04:09Z</time>
      </trkpt>
      <trkpt lat="44.07478" lon="6.57491">
        <ele>1221.4000244141</ele>
        <time>2022-08-20T14:04:10Z</time>
      </trkpt>
      <trkpt lat="44.07478" lon="6.5749">
        <ele>1220.8000488281</ele>
        <time>2022-08-20T14:04:15Z</time>
      </trkpt>
      <trkpt lat="44.07478" lon="6.57489">
        <ele>1220.8000488281</ele>
        <time>2022-08-20T14:04:16Z</time>
      </trkpt>
      <trkpt lat="44.07478" lon="6.57489">
        <ele>1220.5999755859</ele>
        <time>2022-08-20T14:04:23Z</time>
      </trkpt>
      <trkpt lat="44.07479" lon="6.57488">
        <ele>1220.5999755859</ele>
        <time>2022-08-20T14:04:24Z</time>
      </trkpt>
      <trkpt lat="44.07483" lon="6.57485">
        <ele>1220.4000244141</ele>
        <time>2022-08-20T14:04:27Z</time>
      </trkpt>
      <trkpt lat="44.07485" lon="6.57482">
        <ele>1219.8000488281</ele>
        <time>2022-08-20T14:04:29Z</time>
      </trkpt>
      <trkpt lat="44.07488" lon="6.57477">
        <ele>1219</ele>
        <time>2022-08-20T14:04:31Z</time>
      </trkpt>
      <trkpt lat="44.07489" lon="6.57475">
        <ele>1218.5999755859</ele>
        <time>2022-08-20T14:04:32Z</time>
      </trkpt>
      <trkpt lat="44.07491" lon="6.57471">
        <ele>1217.8000488281</ele>
        <time>2022-08-20T14:04:34Z</time>
      </trkpt>
      <trkpt lat="44.07494" lon="6.57464">
        <ele>1216.5999755859</ele>
        <time>2022-08-20T14:04:37Z</time>
      </trkpt>
      <trkpt lat="44.07496" lon="6.57457">
        <ele>1215.5999755859</ele>
        <time>2022-08-20T14:04:40Z</time>
      </trkpt>
      <trkpt lat="44.07497" lon="6.57455">
        <ele>1215</ele>
        <time>2022-08-20T14:04:41Z</time>
      </trkpt>
      <trkpt lat="44.07501" lon="6.57449">
        <ele>1213.5999755859</ele>
        <time>2022-08-20T14:04:44Z</time>
      </trkpt>
      <trkpt lat="44.07504" lon="6.57446">
        <ele>1212.8000488281</ele>
        <time>2022-08-20T14:04:46Z</time>
      </trkpt>
      <trkpt lat="44.07505" lon="6.57443">
        <ele>1212.4000244141</ele>
        <time>2022-08-20T14:04:47Z</time>
      </trkpt>
      <trkpt lat="44.0751" lon="6.57435">
        <ele>1211</ele>
        <time>2022-08-20T14:04:50Z</time>
      </trkpt>
      <trkpt lat="44.07514" lon="6.57427">
        <ele>1209.8000488281</ele>
        <time>2022-08-20T14:04:53Z</time>
      </trkpt>
      <trkpt lat="44.07519" lon="6.5742">
        <ele>1208.1999511719</ele>
        <time>2022-08-20T14:04:56Z</time>
      </trkpt>
      <trkpt lat="44.07522" lon="6.57413">
        <ele>1206.8000488281</ele>
        <time>2022-08-20T14:04:59Z</time>
      </trkpt>
      <trkpt lat="44.07523" lon="6.5741">
        <ele>1206.4000244141</ele>
        <time>2022-08-20T14:05:02Z</time>
      </trkpt>
      <trkpt lat="44.07523" lon="6.57411">
        <ele>1206.1999511719</ele>
        <time>2022-08-20T14:05:03Z</time>
      </trkpt>
      <trkpt lat="44.07523" lon="6.57411">
        <ele>1206.1999511719</ele>
        <time>2022-08-20T14:05:04Z</time>
      </trkpt>
      <trkpt lat="44.07523" lon="6.5741">
        <ele>1206.1999511719</ele>
        <time>2022-08-20T14:05:06Z</time>
      </trkpt>
      <trkpt lat="44.07522" lon="6.5741">
        <ele>1206.1999511719</ele>
        <time>2022-08-20T14:05:10Z</time>
      </trkpt>
      <trkpt lat="44.07522" lon="6.57409">
        <ele>1206</ele>
        <time>2022-08-20T14:05:18Z</time>
      </trkpt>
      <trkpt lat="44.07522" lon="6.57409">
        <ele>1205.8000488281</ele>
        <time>2022-08-20T14:05:22Z</time>
      </trkpt>
      <trkpt lat="44.07522" lon="6.57409">
        <ele>1205.8000488281</ele>
        <time>2022-08-20T14:05:27Z</time>
      </trkpt>
      <trkpt lat="44.07522" lon="6.57409">
        <ele>1205.5999755859</ele>
        <time>2022-08-20T14:05:31Z</time>
      </trkpt>
      <trkpt lat="44.07522" lon="6.57409">
        <ele>1205.4000244141</ele>
        <time>2022-08-20T14:05:34Z</time>
      </trkpt>
      <trkpt lat="44.07522" lon="6.57408">
        <ele>1204.8000488281</ele>
        <time>2022-08-20T14:05:47Z</time>
      </trkpt>
      <trkpt lat="44.07522" lon="6.57408">
        <ele>1204.5999755859</ele>
        <time>2022-08-20T14:05:50Z</time>
      </trkpt>
      <trkpt lat="44.07522" lon="6.57408">
        <ele>1204.4000244141</ele>
        <time>2022-08-20T14:05:54Z</time>
      </trkpt>
      <trkpt lat="44.07522" lon="6.57407">
        <ele>1204.4000244141</ele>
        <time>2022-08-20T14:05:56Z</time>
      </trkpt>
      <trkpt lat="44.07523" lon="6.57404">
        <ele>1204.1999511719</ele>
        <time>2022-08-20T14:05:59Z</time>
      </trkpt>
      <trkpt lat="44.07523" lon="6.57403">
        <ele>1204</ele>
        <time>2022-08-20T14:06:00Z</time>
      </trkpt>
      <trkpt lat="44.07523" lon="6.57402">
        <ele>1203.8000488281</ele>
        <time>2022-08-20T14:06:01Z</time>
      </trkpt>
      <trkpt lat="44.07524" lon="6.574">
        <ele>1203.4000244141</ele>
        <time>2022-08-20T14:06:03Z</time>
      </trkpt>
      <trkpt lat="44.07526" lon="6.57398">
        <ele>1202.5999755859</ele>
        <time>2022-08-20T14:06:06Z</time>
      </trkpt>
      <trkpt lat="44.07528" lon="6.57395">
        <ele>1201.8000488281</ele>
        <time>2022-08-20T14:06:10Z</time>
      </trkpt>
      <trkpt lat="44.07529" lon="6.57394">
        <ele>1201.5999755859</ele>
        <time>2022-08-20T14:06:11Z</time>
      </trkpt>
      <trkpt lat="44.07531" lon="6.5739">
        <ele>1200.5999755859</ele>
        <time>2022-08-20T14:06:15Z</time>
      </trkpt>
      <trkpt lat="44.07531" lon="6.57389">
        <ele>1200.4000244141</ele>
        <time>2022-08-20T14:06:16Z</time>
      </trkpt>
      <trkpt lat="44.07532" lon="6.57387">
        <ele>1199.4000244141</ele>
        <time>2022-08-20T14:06:20Z</time>
      </trkpt>
      <trkpt lat="44.07535" lon="6.57384">
        <ele>1198.1999511719</ele>
        <time>2022-08-20T14:06:25Z</time>
      </trkpt>
      <trkpt lat="44.07535" lon="6.57383">
        <ele>1197.8000488281</ele>
        <time>2022-08-20T14:06:27Z</time>
      </trkpt>
      <trkpt lat="44.07536" lon="6.57381">
        <ele>1197.1999511719</ele>
        <time>2022-08-20T14:06:30Z</time>
      </trkpt>
      <trkpt lat="44.07539" lon="6.57377">
        <ele>1196</ele>
        <time>2022-08-20T14:06:36Z</time>
      </trkpt>
      <trkpt lat="44.0754" lon="6.57375">
        <ele>1195.4000244141</ele>
        <time>2022-08-20T14:06:39Z</time>
      </trkpt>
      <trkpt lat="44.07541" lon="6.57373">
        <ele>1195</ele>
        <time>2022-08-20T14:06:42Z</time>
      </trkpt>
      <trkpt lat="44.07542" lon="6.57373">
        <ele>1194.1999511719</ele>
        <time>2022-08-20T14:06:47Z</time>
      </trkpt>
      <trkpt lat="44.07542" lon="6.57372">
        <ele>1194</ele>
        <time>2022-08-20T14:06:49Z</time>
      </trkpt>
      <trkpt lat="44.07548" lon="6.57362">
        <ele>1192.8000488281</ele>
        <time>2022-08-20T14:06:57Z</time>
      </trkpt>
      <trkpt lat="44.0755" lon="6.57359">
        <ele>1192.1999511719</ele>
        <time>2022-08-20T14:06:59Z</time>
      </trkpt>
      <trkpt lat="44.07551" lon="6.57357">
        <ele>1191.8000488281</ele>
        <time>2022-08-20T14:07:00Z</time>
      </trkpt>
      <trkpt lat="44.07555" lon="6.57351">
        <ele>1190.5999755859</ele>
        <time>2022-08-20T14:07:03Z</time>
      </trkpt>
      <trkpt lat="44.07557" lon="6.57344">
        <ele>1189.8000488281</ele>
        <time>2022-08-20T14:07:06Z</time>
      </trkpt>
      <trkpt lat="44.07559" lon="6.57342">
        <ele>1189.4000244141</ele>
        <time>2022-08-20T14:07:07Z</time>
      </trkpt>
      <trkpt lat="44.07562" lon="6.57336">
        <ele>1188.4000244141</ele>
        <time>2022-08-20T14:07:10Z</time>
      </trkpt>
      <trkpt lat="44.07566" lon="6.57329">
        <ele>1187.1999511719</ele>
        <time>2022-08-20T14:07:13Z</time>
      </trkpt>
      <trkpt lat="44.07569" lon="6.57326">
        <ele>1186.1999511719</ele>
        <time>2022-08-20T14:07:15Z</time>
      </trkpt>
      <trkpt lat="44.0757" lon="6.57325">
        <ele>1185.8000488281</ele>
        <time>2022-08-20T14:07:16Z</time>
      </trkpt>
      <trkpt lat="44.07572" lon="6.57323">
        <ele>1184.8000488281</ele>
        <time>2022-08-20T14:07:19Z</time>
      </trkpt>
      <trkpt lat="44.07571" lon="6.57322">
        <ele>1184.5999755859</ele>
        <time>2022-08-20T14:07:20Z</time>
      </trkpt>
      <trkpt lat="44.07571" lon="6.57322">
        <ele>1184.4000244141</ele>
        <time>2022-08-20T14:07:21Z</time>
      </trkpt>
      <trkpt lat="44.07571" lon="6.57321">
        <ele>1183.8000488281</ele>
        <time>2022-08-20T14:07:26Z</time>
      </trkpt>
      <trkpt lat="44.0757" lon="6.57319">
        <ele>1183.1999511719</ele>
        <time>2022-08-20T14:07:35Z</time>
      </trkpt>
      <trkpt lat="44.07567" lon="6.57319">
        <ele>1182.5999755859</ele>
        <time>2022-08-20T14:07:39Z</time>
      </trkpt>
      <trkpt lat="44.07566" lon="6.57319">
        <ele>1182.4000244141</ele>
        <time>2022-08-20T14:07:40Z</time>
      </trkpt>
      <trkpt lat="44.07566" lon="6.57319">
        <ele>1182.1999511719</ele>
        <time>2022-08-20T14:07:41Z</time>
      </trkpt>
      <trkpt lat="44.0756" lon="6.5732">
        <ele>1181.5999755859</ele>
        <time>2022-08-20T14:07:45Z</time>
      </trkpt>
      <trkpt lat="44.07558" lon="6.5732">
        <ele>1181.4000244141</ele>
        <time>2022-08-20T14:07:46Z</time>
      </trkpt>
      <trkpt lat="44.07552" lon="6.57322">
        <ele>1180.1999511719</ele>
        <time>2022-08-20T14:07:49Z</time>
      </trkpt>
      <trkpt lat="44.0755" lon="6.57323">
        <ele>1180</ele>
        <time>2022-08-20T14:07:50Z</time>
      </trkpt>
      <trkpt lat="44.07544" lon="6.57327">
        <ele>1179.1999511719</ele>
        <time>2022-08-20T14:07:53Z</time>
      </trkpt>
      <trkpt lat="44.07538" lon="6.57331">
        <ele>1178</ele>
        <time>2022-08-20T14:07:57Z</time>
      </trkpt>
      <trkpt lat="44.07537" lon="6.57333">
        <ele>1177.8000488281</ele>
        <time>2022-08-20T14:07:58Z</time>
      </trkpt>
      <trkpt lat="44.07532" lon="6.57336">
        <ele>1176.8000488281</ele>
        <time>2022-08-20T14:08:01Z</time>
      </trkpt>
      <trkpt lat="44.07525" lon="6.57343">
        <ele>1175.8000488281</ele>
        <time>2022-08-20T14:08:05Z</time>
      </trkpt>
      <trkpt lat="44.07523" lon="6.57344">
        <ele>1175.4000244141</ele>
        <time>2022-08-20T14:08:06Z</time>
      </trkpt>
      <trkpt lat="44.0752" lon="6.57346">
        <ele>1174.5999755859</ele>
        <time>2022-08-20T14:08:08Z</time>
      </trkpt>
      <trkpt lat="44.07515" lon="6.57349">
        <ele>1173.5999755859</ele>
        <time>2022-08-20T14:08:11Z</time>
      </trkpt>
      <trkpt lat="44.07514" lon="6.5735">
        <ele>1173.4000244141</ele>
        <time>2022-08-20T14:08:12Z</time>
      </trkpt>
      <trkpt lat="44.0751" lon="6.57353">
        <ele>1172.4000244141</ele>
        <time>2022-08-20T14:08:15Z</time>
      </trkpt>
      <trkpt lat="44.07505" lon="6.57355">
        <ele>1171.1999511719</ele>
        <time>2022-08-20T14:08:19Z</time>
      </trkpt>
      <trkpt lat="44.07502" lon="6.57356">
        <ele>1170.4000244141</ele>
        <time>2022-08-20T14:08:21Z</time>
      </trkpt>
      <trkpt lat="44.075" lon="6.57357">
        <ele>1170</ele>
        <time>2022-08-20T14:08:22Z</time>
      </trkpt>
      <trkpt lat="44.07499" lon="6.57357">
        <ele>1169.5999755859</ele>
        <time>2022-08-20T14:08:23Z</time>
      </trkpt>
      <trkpt lat="44.07499" lon="6.57358">
        <ele>1169.4000244141</ele>
        <time>2022-08-20T14:08:24Z</time>
      </trkpt>
      <trkpt lat="44.07497" lon="6.57358">
        <ele>1169</ele>
        <time>2022-08-20T14:08:26Z</time>
      </trkpt>
      <trkpt lat="44.07493" lon="6.57361">
        <ele>1168.5999755859</ele>
        <time>2022-08-20T14:08:30Z</time>
      </trkpt>
      <trkpt lat="44.0749" lon="6.57362">
        <ele>1168</ele>
        <time>2022-08-20T14:08:32Z</time>
      </trkpt>
      <trkpt lat="44.07486" lon="6.57365">
        <ele>1167.1999511719</ele>
        <time>2022-08-20T14:08:35Z</time>
      </trkpt>
      <trkpt lat="44.07483" lon="6.57368">
        <ele>1166.5999755859</ele>
        <time>2022-08-20T14:08:37Z</time>
      </trkpt>
      <trkpt lat="44.07481" lon="6.5737">
        <ele>1166</ele>
        <time>2022-08-20T14:08:39Z</time>
      </trkpt>
      <trkpt lat="44.07478" lon="6.57371">
        <ele>1165.5999755859</ele>
        <time>2022-08-20T14:08:41Z</time>
      </trkpt>
      <trkpt lat="44.07479" lon="6.57366">
        <ele>1165</ele>
        <time>2022-08-20T14:08:44Z</time>
      </trkpt>
      <trkpt lat="44.07481" lon="6.57363">
        <ele>1164.5999755859</ele>
        <time>2022-08-20T14:08:46Z</time>
      </trkpt>
      <trkpt lat="44.07485" lon="6.57357">
        <ele>1163.1999511719</ele>
        <time>2022-08-20T14:08:50Z</time>
      </trkpt>
      <trkpt lat="44.07486" lon="6.57355">
        <ele>1163</ele>
        <time>2022-08-20T14:08:51Z</time>
      </trkpt>
      <trkpt lat="44.0749" lon="6.57347">
        <ele>1162.1999511719</ele>
        <time>2022-08-20T14:08:55Z</time>
      </trkpt>
      <trkpt lat="44.07492" lon="6.57344">
        <ele>1161.5999755859</ele>
        <time>2022-08-20T14:08:57Z</time>
      </trkpt>
      <trkpt lat="44.07492" lon="6.57342">
        <ele>1161.4000244141</ele>
        <time>2022-08-20T14:08:58Z</time>
      </trkpt>
      <trkpt lat="44.07493" lon="6.57341">
        <ele>1161.1999511719</ele>
        <time>2022-08-20T14:08:59Z</time>
      </trkpt>
      <trkpt lat="44.07494" lon="6.57334">
        <ele>1160.1999511719</ele>
        <time>2022-08-20T14:09:04Z</time>
      </trkpt>
      <trkpt lat="44.07494" lon="6.57333">
        <ele>1159.5999755859</ele>
        <time>2022-08-20T14:09:09Z</time>
      </trkpt>
      <trkpt lat="44.07494" lon="6.57332">
        <ele>1159.4000244141</ele>
        <time>2022-08-20T14:09:15Z</time>
      </trkpt>
      <trkpt lat="44.07498" lon="6.57325">
        <ele>1159</ele>
        <time>2022-08-20T14:09:19Z</time>
      </trkpt>
      <trkpt lat="44.07499" lon="6.57323">
        <ele>1158.8000488281</ele>
        <time>2022-08-20T14:09:20Z</time>
      </trkpt>
      <trkpt lat="44.07502" lon="6.57318">
        <ele>1157.8000488281</ele>
        <time>2022-08-20T14:09:23Z</time>
      </trkpt>
      <trkpt lat="44.07505" lon="6.5731">
        <ele>1156.5999755859</ele>
        <time>2022-08-20T14:09:28Z</time>
      </trkpt>
      <trkpt lat="44.07506" lon="6.57309">
        <ele>1156.4000244141</ele>
        <time>2022-08-20T14:09:29Z</time>
      </trkpt>
      <trkpt lat="44.07509" lon="6.57306">
        <ele>1155.5999755859</ele>
        <time>2022-08-20T14:09:33Z</time>
      </trkpt>
      <trkpt lat="44.0751" lon="6.57307">
        <ele>1155.4000244141</ele>
        <time>2022-08-20T14:09:34Z</time>
      </trkpt>
      <trkpt lat="44.0751" lon="6.57306">
        <ele>1155.1999511719</ele>
        <time>2022-08-20T14:09:35Z</time>
      </trkpt>
      <trkpt lat="44.07512" lon="6.57305">
        <ele>1154.5999755859</ele>
        <time>2022-08-20T14:09:41Z</time>
      </trkpt>
      <trkpt lat="44.07513" lon="6.57303">
        <ele>1154.1999511719</ele>
        <time>2022-08-20T14:09:45Z</time>
      </trkpt>
      <trkpt lat="44.07515" lon="6.573">
        <ele>1153.5999755859</ele>
        <time>2022-08-20T14:09:50Z</time>
      </trkpt>
      <trkpt lat="44.07515" lon="6.573">
        <ele>1153.4000244141</ele>
        <time>2022-08-20T14:09:51Z</time>
      </trkpt>
      <trkpt lat="44.07515" lon="6.57299">
        <ele>1153</ele>
        <time>2022-08-20T14:09:53Z</time>
      </trkpt>
      <trkpt lat="44.07516" lon="6.57299">
        <ele>1152.8000488281</ele>
        <time>2022-08-20T14:09:55Z</time>
      </trkpt>
      <trkpt lat="44.07517" lon="6.57297">
        <ele>1152.4000244141</ele>
        <time>2022-08-20T14:09:58Z</time>
      </trkpt>
      <trkpt lat="44.0752" lon="6.57292">
        <ele>1151.4000244141</ele>
        <time>2022-08-20T14:10:04Z</time>
      </trkpt>
      <trkpt lat="44.0752" lon="6.57292">
        <ele>1151</ele>
        <time>2022-08-20T14:10:06Z</time>
      </trkpt>
      <trkpt lat="44.0752" lon="6.57291">
        <ele>1150.8000488281</ele>
        <time>2022-08-20T14:10:10Z</time>
      </trkpt>
      <trkpt lat="44.0752" lon="6.57291">
        <ele>1150.4000244141</ele>
        <time>2022-08-20T14:10:12Z</time>
      </trkpt>
      <trkpt lat="44.07521" lon="6.5729">
        <ele>1150.4000244141</ele>
        <time>2022-08-20T14:10:14Z</time>
      </trkpt>
      <trkpt lat="44.07525" lon="6.57281">
        <ele>1149.1999511719</ele>
        <time>2022-08-20T14:10:21Z</time>
      </trkpt>
      <trkpt lat="44.07525" lon="6.57279">
        <ele>1148.8000488281</ele>
        <time>2022-08-20T14:10:22Z</time>
      </trkpt>
      <trkpt lat="44.07528" lon="6.57275">
        <ele>1148</ele>
        <time>2022-08-20T14:10:25Z</time>
      </trkpt>
      <trkpt lat="44.07532" lon="6.5727">
        <ele>1146.8000488281</ele>
        <time>2022-08-20T14:10:29Z</time>
      </trkpt>
      <trkpt lat="44.07533" lon="6.57268">
        <ele>1146.5999755859</ele>
        <time>2022-08-20T14:10:30Z</time>
      </trkpt>
      <trkpt lat="44.07535" lon="6.57263">
        <ele>1145.5999755859</ele>
        <time>2022-08-20T14:10:33Z</time>
      </trkpt>
      <trkpt lat="44.0754" lon="6.57256">
        <ele>1144.4000244141</ele>
        <time>2022-08-20T14:10:37Z</time>
      </trkpt>
      <trkpt lat="44.07543" lon="6.57253">
        <ele>1143.8000488281</ele>
        <time>2022-08-20T14:10:39Z</time>
      </trkpt>
      <trkpt lat="44.07546" lon="6.57249">
        <ele>1143.1999511719</ele>
        <time>2022-08-20T14:10:41Z</time>
      </trkpt>
      <trkpt lat="44.07551" lon="6.57245">
        <ele>1141.8000488281</ele>
        <time>2022-08-20T14:10:44Z</time>
      </trkpt>
      <trkpt lat="44.07555" lon="6.5724">
        <ele>1140.5999755859</ele>
        <time>2022-08-20T14:10:47Z</time>
      </trkpt>
      <trkpt lat="44.07557" lon="6.57238">
        <ele>1140.1999511719</ele>
        <time>2022-08-20T14:10:48Z</time>
      </trkpt>
      <trkpt lat="44.0756" lon="6.57235">
        <ele>1139.1999511719</ele>
        <time>2022-08-20T14:10:50Z</time>
      </trkpt>
      <trkpt lat="44.07564" lon="6.57229">
        <ele>1137.8000488281</ele>
        <time>2022-08-20T14:10:53Z</time>
      </trkpt>
      <trkpt lat="44.07568" lon="6.57226">
        <ele>1137.1999511719</ele>
        <time>2022-08-20T14:10:55Z</time>
      </trkpt>
      <trkpt lat="44.0757" lon="6.57226">
        <ele>1137</ele>
        <time>2022-08-20T14:10:56Z</time>
      </trkpt>
      <trkpt lat="44.07571" lon="6.57226">
        <ele>1136.5999755859</ele>
        <time>2022-08-20T14:10:57Z</time>
      </trkpt>
      <trkpt lat="44.07572" lon="6.57225">
        <ele>1136</ele>
        <time>2022-08-20T14:10:59Z</time>
      </trkpt>
      <trkpt lat="44.07573" lon="6.57225">
        <ele>1135.5999755859</ele>
        <time>2022-08-20T14:11:01Z</time>
      </trkpt>
      <trkpt lat="44.07573" lon="6.57224">
        <ele>1135.4000244141</ele>
        <time>2022-08-20T14:11:02Z</time>
      </trkpt>
      <trkpt lat="44.07572" lon="6.57222">
        <ele>1134.8000488281</ele>
        <time>2022-08-20T14:11:06Z</time>
      </trkpt>
      <trkpt lat="44.0757" lon="6.57222">
        <ele>1134.5999755859</ele>
        <time>2022-08-20T14:11:08Z</time>
      </trkpt>
      <trkpt lat="44.07567" lon="6.57222">
        <ele>1134</ele>
        <time>2022-08-20T14:11:11Z</time>
      </trkpt>
      <trkpt lat="44.07564" lon="6.57221">
        <ele>1133.5999755859</ele>
        <time>2022-08-20T14:11:14Z</time>
      </trkpt>
      <trkpt lat="44.07563" lon="6.57219">
        <ele>1133.1999511719</ele>
        <time>2022-08-20T14:11:15Z</time>
      </trkpt>
      <trkpt lat="44.07564" lon="6.57218">
        <ele>1133</ele>
        <time>2022-08-20T14:11:16Z</time>
      </trkpt>
      <trkpt lat="44.0757" lon="6.57216">
        <ele>1132.4000244141</ele>
        <time>2022-08-20T14:11:19Z</time>
      </trkpt>
      <trkpt lat="44.0758" lon="6.57211">
        <ele>1131</ele>
        <time>2022-08-20T14:11:23Z</time>
      </trkpt>
      <trkpt lat="44.07581" lon="6.57209">
        <ele>1130.8000488281</ele>
        <time>2022-08-20T14:11:24Z</time>
      </trkpt>
      <trkpt lat="44.07582" lon="6.57207">
        <ele>1130.5999755859</ele>
        <time>2022-08-20T14:11:25Z</time>
      </trkpt>
      <trkpt lat="44.07585" lon="6.57195">
        <ele>1129.8000488281</ele>
        <time>2022-08-20T14:11:31Z</time>
      </trkpt>
      <trkpt lat="44.07589" lon="6.5719">
        <ele>1129.1999511719</ele>
        <time>2022-08-20T14:11:34Z</time>
      </trkpt>
      <trkpt lat="44.0759" lon="6.57188">
        <ele>1128.5999755859</ele>
        <time>2022-08-20T14:11:36Z</time>
      </trkpt>
      <trkpt lat="44.07592" lon="6.57185">
        <ele>1128</ele>
        <time>2022-08-20T14:11:38Z</time>
      </trkpt>
      <trkpt lat="44.07594" lon="6.57183">
        <ele>1127.5999755859</ele>
        <time>2022-08-20T14:11:40Z</time>
      </trkpt>
      <trkpt lat="44.07595" lon="6.57181">
        <ele>1127.4000244141</ele>
        <time>2022-08-20T14:11:41Z</time>
      </trkpt>
      <trkpt lat="44.07598" lon="6.57176">
        <ele>1126.5999755859</ele>
        <time>2022-08-20T14:11:44Z</time>
      </trkpt>
      <trkpt lat="44.07599" lon="6.57174">
        <ele>1126.1999511719</ele>
        <time>2022-08-20T14:11:45Z</time>
      </trkpt>
      <trkpt lat="44.07605" lon="6.57169">
        <ele>1125.4000244141</ele>
        <time>2022-08-20T14:11:48Z</time>
      </trkpt>
      <trkpt lat="44.07611" lon="6.57161">
        <ele>1124.4000244141</ele>
        <time>2022-08-20T14:11:51Z</time>
      </trkpt>
      <trkpt lat="44.07612" lon="6.57159">
        <ele>1124</ele>
        <time>2022-08-20T14:11:52Z</time>
      </trkpt>
      <trkpt lat="44.07618" lon="6.57154">
        <ele>1122.8000488281</ele>
        <time>2022-08-20T14:11:55Z</time>
      </trkpt>
      <trkpt lat="44.07624" lon="6.57148">
        <ele>1121.4000244141</ele>
        <time>2022-08-20T14:11:58Z</time>
      </trkpt>
      <trkpt lat="44.07629" lon="6.57142">
        <ele>1120</ele>
        <time>2022-08-20T14:12:01Z</time>
      </trkpt>
      <trkpt lat="44.07633" lon="6.57139">
        <ele>1119</ele>
        <time>2022-08-20T14:12:03Z</time>
      </trkpt>
      <trkpt lat="44.07637" lon="6.57134">
        <ele>1118</ele>
        <time>2022-08-20T14:12:05Z</time>
      </trkpt>
      <trkpt lat="44.07643" lon="6.57126">
        <ele>1116.5999755859</ele>
        <time>2022-08-20T14:12:08Z</time>
      </trkpt>
      <trkpt lat="44.07646" lon="6.5712">
        <ele>1115.4000244141</ele>
        <time>2022-08-20T14:12:11Z</time>
      </trkpt>
      <trkpt lat="44.07649" lon="6.57114">
        <ele>1114.4000244141</ele>
        <time>2022-08-20T14:12:14Z</time>
      </trkpt>
      <trkpt lat="44.07651" lon="6.57109">
        <ele>1113.1999511719</ele>
        <time>2022-08-20T14:12:17Z</time>
      </trkpt>
      <trkpt lat="44.07652" lon="6.57109">
        <ele>1112.5999755859</ele>
        <time>2022-08-20T14:12:19Z</time>
      </trkpt>
      <trkpt lat="44.07652" lon="6.57108">
        <ele>1112.1999511719</ele>
        <time>2022-08-20T14:12:20Z</time>
      </trkpt>
      <trkpt lat="44.07652" lon="6.57108">
        <ele>1112</ele>
        <time>2022-08-20T14:12:21Z</time>
      </trkpt>
      <trkpt lat="44.07649" lon="6.57108">
        <ele>1111.5999755859</ele>
        <time>2022-08-20T14:12:24Z</time>
      </trkpt>
      <trkpt lat="44.07643" lon="6.57107">
        <ele>1110.8000488281</ele>
        <time>2022-08-20T14:12:27Z</time>
      </trkpt>
      <trkpt lat="44.07637" lon="6.57108">
        <ele>1109.5999755859</ele>
        <time>2022-08-20T14:12:30Z</time>
      </trkpt>
      <trkpt lat="44.07634" lon="6.57111">
        <ele>1108.8000488281</ele>
        <time>2022-08-20T14:12:32Z</time>
      </trkpt>
      <trkpt lat="44.07633" lon="6.57111">
        <ele>1108.4000244141</ele>
        <time>2022-08-20T14:12:33Z</time>
      </trkpt>
      <trkpt lat="44.07632" lon="6.57111">
        <ele>1108.1999511719</ele>
        <time>2022-08-20T14:12:34Z</time>
      </trkpt>
      <trkpt lat="44.0763" lon="6.57111">
        <ele>1107.8000488281</ele>
        <time>2022-08-20T14:12:36Z</time>
      </trkpt>
      <trkpt lat="44.07628" lon="6.57111">
        <ele>1107.5999755859</ele>
        <time>2022-08-20T14:12:37Z</time>
      </trkpt>
      <trkpt lat="44.07628" lon="6.5711">
        <ele>1107.1999511719</ele>
        <time>2022-08-20T14:12:38Z</time>
      </trkpt>
      <trkpt lat="44.07628" lon="6.57108">
        <ele>1106.8000488281</ele>
        <time>2022-08-20T14:12:39Z</time>
      </trkpt>
      <trkpt lat="44.07629" lon="6.57108">
        <ele>1106.4000244141</ele>
        <time>2022-08-20T14:12:40Z</time>
      </trkpt>
      <trkpt lat="44.0763" lon="6.57107">
        <ele>1106.1999511719</ele>
        <time>2022-08-20T14:12:41Z</time>
      </trkpt>
      <trkpt lat="44.07632" lon="6.57102">
        <ele>1105.4000244141</ele>
        <time>2022-08-20T14:12:43Z</time>
      </trkpt>
      <trkpt lat="44.07634" lon="6.57099">
        <ele>1105.1999511719</ele>
        <time>2022-08-20T14:12:44Z</time>
      </trkpt>
      <trkpt lat="44.07638" lon="6.57091">
        <ele>1104.1999511719</ele>
        <time>2022-08-20T14:12:47Z</time>
      </trkpt>
      <trkpt lat="44.07639" lon="6.57088">
        <ele>1104</ele>
        <time>2022-08-20T14:12:48Z</time>
      </trkpt>
      <trkpt lat="44.07639" lon="6.57086">
        <ele>1103.5999755859</ele>
        <time>2022-08-20T14:12:49Z</time>
      </trkpt>
      <trkpt lat="44.07639" lon="6.57084">
        <ele>1103.1999511719</ele>
        <time>2022-08-20T14:12:51Z</time>
      </trkpt>
      <trkpt lat="44.07639" lon="6.57083">
        <ele>1103</ele>
        <time>2022-08-20T14:12:52Z</time>
      </trkpt>
      <trkpt lat="44.07639" lon="6.57082">
        <ele>1102.8000488281</ele>
        <time>2022-08-20T14:12:53Z</time>
      </trkpt>
      <trkpt lat="44.07638" lon="6.57082">
        <ele>1102.5999755859</ele>
        <time>2022-08-20T14:12:54Z</time>
      </trkpt>
      <trkpt lat="44.07638" lon="6.57083">
        <ele>1102.5999755859</ele>
        <time>2022-08-20T14:12:55Z</time>
      </trkpt>
      <trkpt lat="44.07635" lon="6.57086">
        <ele>1102</ele>
        <time>2022-08-20T14:12:58Z</time>
      </trkpt>
      <trkpt lat="44.07634" lon="6.57087">
        <ele>1101.8000488281</ele>
        <time>2022-08-20T14:12:59Z</time>
      </trkpt>
      <trkpt lat="44.07628" lon="6.57088">
        <ele>1100.8000488281</ele>
        <time>2022-08-20T14:13:02Z</time>
      </trkpt>
      <trkpt lat="44.07622" lon="6.57091">
        <ele>1099.4000244141</ele>
        <time>2022-08-20T14:13:05Z</time>
      </trkpt>
      <trkpt lat="44.0762" lon="6.57092">
        <ele>1099</ele>
        <time>2022-08-20T14:13:06Z</time>
      </trkpt>
      <trkpt lat="44.07615" lon="6.57091">
        <ele>1098.4000244141</ele>
        <time>2022-08-20T14:13:08Z</time>
      </trkpt>
      <trkpt lat="44.07607" lon="6.5709">
        <ele>1097.1999511719</ele>
        <time>2022-08-20T14:13:11Z</time>
      </trkpt>
      <trkpt lat="44.07602" lon="6.57088">
        <ele>1096</ele>
        <time>2022-08-20T14:13:13Z</time>
      </trkpt>
      <trkpt lat="44.07594" lon="6.57084">
        <ele>1094.8000488281</ele>
        <time>2022-08-20T14:13:16Z</time>
      </trkpt>
      <trkpt lat="44.07583" lon="6.57084">
        <ele>1093.5999755859</ele>
        <time>2022-08-20T14:13:19Z</time>
      </trkpt>
      <trkpt lat="44.07579" lon="6.57085">
        <ele>1093.1999511719</ele>
        <time>2022-08-20T14:13:20Z</time>
      </trkpt>
      <trkpt lat="44.07571" lon="6.57088">
        <ele>1092.4000244141</ele>
        <time>2022-08-20T14:13:23Z</time>
      </trkpt>
      <trkpt lat="44.07563" lon="6.57096">
        <ele>1091.4000244141</ele>
        <time>2022-08-20T14:13:27Z</time>
      </trkpt>
      <trkpt lat="44.07562" lon="6.57098">
        <ele>1091</ele>
        <time>2022-08-20T14:13:28Z</time>
      </trkpt>
      <trkpt lat="44.07557" lon="6.57104">
        <ele>1089.5999755859</ele>
        <time>2022-08-20T14:13:31Z</time>
      </trkpt>
      <trkpt lat="44.07554" lon="6.57106">
        <ele>1088.8000488281</ele>
        <time>2022-08-20T14:13:33Z</time>
      </trkpt>
      <trkpt lat="44.07552" lon="6.57107">
        <ele>1088.1999511719</ele>
        <time>2022-08-20T14:13:34Z</time>
      </trkpt>
      <trkpt lat="44.07549" lon="6.57112">
        <ele>1087</ele>
        <time>2022-08-20T14:13:37Z</time>
      </trkpt>
      <trkpt lat="44.07548" lon="6.57113">
        <ele>1086.5999755859</ele>
        <time>2022-08-20T14:13:38Z</time>
      </trkpt>
      <trkpt lat="44.07547" lon="6.57114">
        <ele>1086.4000244141</ele>
        <time>2022-08-20T14:13:39Z</time>
      </trkpt>
      <trkpt lat="44.07547" lon="6.57113">
        <ele>1086</ele>
        <time>2022-08-20T14:13:40Z</time>
      </trkpt>
      <trkpt lat="44.07546" lon="6.57111">
        <ele>1085.8000488281</ele>
        <time>2022-08-20T14:13:41Z</time>
      </trkpt>
      <trkpt lat="44.07545" lon="6.57107">
        <ele>1085.1999511719</ele>
        <time>2022-08-20T14:13:43Z</time>
      </trkpt>
      <trkpt lat="44.07543" lon="6.57102">
        <ele>1084.5999755859</ele>
        <time>2022-08-20T14:13:45Z</time>
      </trkpt>
      <trkpt lat="44.0754" lon="6.57098">
        <ele>1084.1999511719</ele>
        <time>2022-08-20T14:13:47Z</time>
      </trkpt>
      <trkpt lat="44.07541" lon="6.57093">
        <ele>1083.4000244141</ele>
        <time>2022-08-20T14:13:49Z</time>
      </trkpt>
      <trkpt lat="44.07545" lon="6.5708">
        <ele>1083.1999511719</ele>
        <time>2022-08-20T14:13:54Z</time>
      </trkpt>
      <trkpt lat="44.07545" lon="6.57077">
        <ele>1083.1999511719</ele>
        <time>2022-08-20T14:13:55Z</time>
      </trkpt>
      <trkpt lat="44.0755" lon="6.5706">
        <ele>1083.5999755859</ele>
        <time>2022-08-20T14:14:01Z</time>
      </trkpt>
      <trkpt lat="44.07553" lon="6.57053">
        <ele>1083.4000244141</ele>
        <time>2022-08-20T14:14:04Z</time>
      </trkpt>
      <trkpt lat="44.07553" lon="6.57052">
        <ele>1083.1999511719</ele>
        <time>2022-08-20T14:14:05Z</time>
      </trkpt>
      <trkpt lat="44.07553" lon="6.57051">
        <ele>1083</ele>
        <time>2022-08-20T14:14:08Z</time>
      </trkpt>
      <trkpt lat="44.07553" lon="6.57051">
        <ele>1083</ele>
        <time>2022-08-20T14:14:11Z</time>
      </trkpt>
      <trkpt lat="44.07553" lon="6.57051">
        <ele>1083.1999511719</ele>
        <time>2022-08-20T14:14:15Z</time>
      </trkpt>
      <trkpt lat="44.07553" lon="6.57052">
        <ele>1083.1999511719</ele>
        <time>2022-08-20T14:14:19Z</time>
      </trkpt>
      <trkpt lat="44.07553" lon="6.57053">
        <ele>1083.1999511719</ele>
        <time>2022-08-20T14:14:23Z</time>
      </trkpt>
      <trkpt lat="44.07554" lon="6.57056">
        <ele>1082.4000244141</ele>
        <time>2022-08-20T14:14:31Z</time>
      </trkpt>
      <trkpt lat="44.07554" lon="6.57056">
        <ele>1082.4000244141</ele>
        <time>2022-08-20T14:14:35Z</time>
      </trkpt>
      <trkpt lat="44.07555" lon="6.57055">
        <ele>1082.1999511719</ele>
        <time>2022-08-20T14:14:42Z</time>
      </trkpt>
      <trkpt lat="44.07555" lon="6.57053">
        <ele>1082.1999511719</ele>
        <time>2022-08-20T14:14:44Z</time>
      </trkpt>
      <trkpt lat="44.07566" lon="6.57034">
        <ele>1081.5999755859</ele>
        <time>2022-08-20T14:14:50Z</time>
      </trkpt>
      <trkpt lat="44.07572" lon="6.57024">
        <ele>1081.4000244141</ele>
        <time>2022-08-20T14:14:52Z</time>
      </trkpt>
      <trkpt lat="44.07582" lon="6.57009">
        <ele>1081</ele>
        <time>2022-08-20T14:14:55Z</time>
      </trkpt>
      <trkpt lat="44.07602" lon="6.56982">
        <ele>1080.1999511719</ele>
        <time>2022-08-20T14:15:00Z</time>
      </trkpt>
      <trkpt lat="44.07606" lon="6.56977">
        <ele>1079.5999755859</ele>
        <time>2022-08-20T14:15:01Z</time>
      </trkpt>
      <trkpt lat="44.07611" lon="6.56971">
        <ele>1079.1999511719</ele>
        <time>2022-08-20T14:15:02Z</time>
      </trkpt>
      <trkpt lat="44.07616" lon="6.56964">
        <ele>1079</ele>
        <time>2022-08-20T14:15:03Z</time>
      </trkpt>
      <trkpt lat="44.0762" lon="6.56955">
        <ele>1078.5999755859</ele>
        <time>2022-08-20T14:15:04Z</time>
      </trkpt>
      <trkpt lat="44.07623" lon="6.56945">
        <ele>1078.4000244141</ele>
        <time>2022-08-20T14:15:05Z</time>
      </trkpt>
      <trkpt lat="44.07625" lon="6.56935">
        <ele>1078</ele>
        <time>2022-08-20T14:15:06Z</time>
      </trkpt>
      <trkpt lat="44.07626" lon="6.56924">
        <ele>1077.5999755859</ele>
        <time>2022-08-20T14:15:07Z</time>
      </trkpt>
      <trkpt lat="44.07626" lon="6.56914">
        <ele>1077.1999511719</ele>
        <time>2022-08-20T14:15:08Z</time>
      </trkpt>
      <trkpt lat="44.07624" lon="6.56894">
        <ele>1076.1999511719</ele>
        <time>2022-08-20T14:15:10Z</time>
      </trkpt>
      <trkpt lat="44.07622" lon="6.5685">
        <ele>1076.1999511719</ele>
        <time>2022-08-20T14:15:15Z</time>
      </trkpt>
      <trkpt lat="44.07622" lon="6.56835">
        <ele>1076.5999755859</ele>
        <time>2022-08-20T14:15:17Z</time>
      </trkpt>
      <trkpt lat="44.07623" lon="6.56829">
        <ele>1076.8000488281</ele>
        <time>2022-08-20T14:15:18Z</time>
      </trkpt>
      <trkpt lat="44.07626" lon="6.56818">
        <ele>1077</ele>
        <time>2022-08-20T14:15:20Z</time>
      </trkpt>
      <trkpt lat="44.07628" lon="6.56814">
        <ele>1077</ele>
        <time>2022-08-20T14:15:21Z</time>
      </trkpt>
      <trkpt lat="44.0763" lon="6.5681">
        <ele>1077.4000244141</ele>
        <time>2022-08-20T14:15:22Z</time>
      </trkpt>
      <trkpt lat="44.07633" lon="6.56806">
        <ele>1077.5999755859</ele>
        <time>2022-08-20T14:15:23Z</time>
      </trkpt>
      <trkpt lat="44.07641" lon="6.56799">
        <ele>1078.4000244141</ele>
        <time>2022-08-20T14:15:26Z</time>
      </trkpt>
      <trkpt lat="44.07647" lon="6.56792">
        <ele>1079</ele>
        <time>2022-08-20T14:15:29Z</time>
      </trkpt>
      <trkpt lat="44.07651" lon="6.56788">
        <ele>1079.4000244141</ele>
        <time>2022-08-20T14:15:31Z</time>
      </trkpt>
      <trkpt lat="44.07658" lon="6.56783">
        <ele>1079.8000488281</ele>
        <time>2022-08-20T14:15:34Z</time>
      </trkpt>
      <trkpt lat="44.0766" lon="6.56781">
        <ele>1080</ele>
        <time>2022-08-20T14:15:35Z</time>
      </trkpt>
      <trkpt lat="44.07662" lon="6.56779">
        <ele>1080</ele>
        <time>2022-08-20T14:15:36Z</time>
      </trkpt>
      <trkpt lat="44.07673" lon="6.56772">
        <ele>1080.5999755859</ele>
        <time>2022-08-20T14:15:40Z</time>
      </trkpt>
      <trkpt lat="44.07679" lon="6.56765">
        <ele>1080.8000488281</ele>
        <time>2022-08-20T14:15:43Z</time>
      </trkpt>
      <trkpt lat="44.07685" lon="6.56759">
        <ele>1081.1999511719</ele>
        <time>2022-08-20T14:15:46Z</time>
      </trkpt>
      <trkpt lat="44.0769" lon="6.56754">
        <ele>1081.5999755859</ele>
        <time>2022-08-20T14:15:48Z</time>
      </trkpt>
      <trkpt lat="44.07696" lon="6.56747">
        <ele>1082</ele>
        <time>2022-08-20T14:15:51Z</time>
      </trkpt>
      <trkpt lat="44.077" lon="6.56741">
        <ele>1082.1999511719</ele>
        <time>2022-08-20T14:15:53Z</time>
      </trkpt>
      <trkpt lat="44.07701" lon="6.56738">
        <ele>1082.4000244141</ele>
        <time>2022-08-20T14:15:54Z</time>
      </trkpt>
      <trkpt lat="44.07703" lon="6.56735">
        <ele>1082.4000244141</ele>
        <time>2022-08-20T14:15:55Z</time>
      </trkpt>
      <trkpt lat="44.07705" lon="6.56732">
        <ele>1082.5999755859</ele>
        <time>2022-08-20T14:15:56Z</time>
      </trkpt>
      <trkpt lat="44.07708" lon="6.56726">
        <ele>1083</ele>
        <time>2022-08-20T14:15:58Z</time>
      </trkpt>
      <trkpt lat="44.07715" lon="6.56716">
        <ele>1083.5999755859</ele>
        <time>2022-08-20T14:16:02Z</time>
      </trkpt>
      <trkpt lat="44.07716" lon="6.56712">
        <ele>1083.8000488281</ele>
        <time>2022-08-20T14:16:03Z</time>
      </trkpt>
      <trkpt lat="44.07721" lon="6.56703">
        <ele>1084.1999511719</ele>
        <time>2022-08-20T14:16:06Z</time>
      </trkpt>
      <trkpt lat="44.07726" lon="6.56695">
        <ele>1084.4000244141</ele>
        <time>2022-08-20T14:16:09Z</time>
      </trkpt>
      <trkpt lat="44.0773" lon="6.56685">
        <ele>1084.8000488281</ele>
        <time>2022-08-20T14:16:12Z</time>
      </trkpt>
      <trkpt lat="44.07731" lon="6.56682">
        <ele>1085</ele>
        <time>2022-08-20T14:16:13Z</time>
      </trkpt>
      <trkpt lat="44.07738" lon="6.5667">
        <ele>1085.4000244141</ele>
        <time>2022-08-20T14:16:17Z</time>
      </trkpt>
      <trkpt lat="44.07743" lon="6.56658">
        <ele>1086</ele>
        <time>2022-08-20T14:16:21Z</time>
      </trkpt>
      <trkpt lat="44.07747" lon="6.56649">
        <ele>1086.1999511719</ele>
        <time>2022-08-20T14:16:24Z</time>
      </trkpt>
      <trkpt lat="44.07755" lon="6.56629">
        <ele>1086.8000488281</ele>
        <time>2022-08-20T14:16:31Z</time>
      </trkpt>
      <trkpt lat="44.07757" lon="6.56623">
        <ele>1087.1999511719</ele>
        <time>2022-08-20T14:16:33Z</time>
      </trkpt>
      <trkpt lat="44.07765" lon="6.56607">
        <ele>1088</ele>
        <time>2022-08-20T14:16:39Z</time>
      </trkpt>
      <trkpt lat="44.07767" lon="6.56601">
        <ele>1088.1999511719</ele>
        <time>2022-08-20T14:16:41Z</time>
      </trkpt>
      <trkpt lat="44.07776" lon="6.56586">
        <ele>1088.8000488281</ele>
        <time>2022-08-20T14:16:47Z</time>
      </trkpt>
      <trkpt lat="44.07784" lon="6.56577">
        <ele>1089.1999511719</ele>
        <time>2022-08-20T14:16:51Z</time>
      </trkpt>
      <trkpt lat="44.07792" lon="6.56566">
        <ele>1089.5999755859</ele>
        <time>2022-08-20T14:16:56Z</time>
      </trkpt>
      <trkpt lat="44.078" lon="6.56556">
        <ele>1090.4000244141</ele>
        <time>2022-08-20T14:17:01Z</time>
      </trkpt>
      <trkpt lat="44.07803" lon="6.56552">
        <ele>1090.5999755859</ele>
        <time>2022-08-20T14:17:03Z</time>
      </trkpt>
      <trkpt lat="44.07815" lon="6.56544">
        <ele>1091.1999511719</ele>
        <time>2022-08-20T14:17:09Z</time>
      </trkpt>
      <trkpt lat="44.07818" lon="6.56542">
        <ele>1091.4000244141</ele>
        <time>2022-08-20T14:17:10Z</time>
      </trkpt>
      <trkpt lat="44.07838" lon="6.56533">
        <ele>1092</ele>
        <time>2022-08-20T14:17:17Z</time>
      </trkpt>
      <trkpt lat="44.07851" lon="6.56525">
        <ele>1092.4000244141</ele>
        <time>2022-08-20T14:17:22Z</time>
      </trkpt>
      <trkpt lat="44.07859" lon="6.56519">
        <ele>1092.8000488281</ele>
        <time>2022-08-20T14:17:25Z</time>
      </trkpt>
      <trkpt lat="44.07873" lon="6.56506">
        <ele>1093.4000244141</ele>
        <time>2022-08-20T14:17:32Z</time>
      </trkpt>
      <trkpt lat="44.07884" lon="6.56489">
        <ele>1094</ele>
        <time>2022-08-20T14:17:39Z</time>
      </trkpt>
      <trkpt lat="44.07895" lon="6.56473">
        <ele>1094.4000244141</ele>
        <time>2022-08-20T14:17:46Z</time>
      </trkpt>
      <trkpt lat="44.07897" lon="6.56471">
        <ele>1094.4000244141</ele>
        <time>2022-08-20T14:17:47Z</time>
      </trkpt>
      <trkpt lat="44.07904" lon="6.5645">
        <ele>1094.5999755859</ele>
        <time>2022-08-20T14:17:53Z</time>
      </trkpt>
      <trkpt lat="44.07913" lon="6.56435">
        <ele>1094.5999755859</ele>
        <time>2022-08-20T14:17:58Z</time>
      </trkpt>
      <trkpt lat="44.07917" lon="6.5643">
        <ele>1094.5999755859</ele>
        <time>2022-08-20T14:18:00Z</time>
      </trkpt>
      <trkpt lat="44.07923" lon="6.56415">
        <ele>1095</ele>
        <time>2022-08-20T14:18:05Z</time>
      </trkpt>
      <trkpt lat="44.07925" lon="6.56413">
        <ele>1095.1999511719</ele>
        <time>2022-08-20T14:18:07Z</time>
      </trkpt>
      <trkpt lat="44.07928" lon="6.56408">
        <ele>1095.4000244141</ele>
        <time>2022-08-20T14:18:09Z</time>
      </trkpt>
      <trkpt lat="44.07935" lon="6.56388">
        <ele>1096.4000244141</ele>
        <time>2022-08-20T14:18:16Z</time>
      </trkpt>
      <trkpt lat="44.07936" lon="6.56386">
        <ele>1096.5999755859</ele>
        <time>2022-08-20T14:18:17Z</time>
      </trkpt>
      <trkpt lat="44.07948" lon="6.56366">
        <ele>1097.8000488281</ele>
        <time>2022-08-20T14:18:25Z</time>
      </trkpt>
      <trkpt lat="44.07956" lon="6.56356">
        <ele>1098.4000244141</ele>
        <time>2022-08-20T14:18:30Z</time>
      </trkpt>
      <trkpt lat="44.07964" lon="6.56348">
        <ele>1098.4000244141</ele>
        <time>2022-08-20T14:18:34Z</time>
      </trkpt>
      <trkpt lat="44.07973" lon="6.56336">
        <ele>1098.8000488281</ele>
        <time>2022-08-20T14:18:40Z</time>
      </trkpt>
      <trkpt lat="44.07977" lon="6.56332">
        <ele>1099.1999511719</ele>
        <time>2022-08-20T14:18:42Z</time>
      </trkpt>
      <trkpt lat="44.07983" lon="6.5632">
        <ele>1100</ele>
        <time>2022-08-20T14:18:47Z</time>
      </trkpt>
      <trkpt lat="44.07987" lon="6.56313">
        <ele>1100.1999511719</ele>
        <time>2022-08-20T14:18:50Z</time>
      </trkpt>
      <trkpt lat="44.07996" lon="6.56297">
        <ele>1101</ele>
        <time>2022-08-20T14:18:57Z</time>
      </trkpt>
      <trkpt lat="44.07997" lon="6.56294">
        <ele>1101</ele>
        <time>2022-08-20T14:18:58Z</time>
      </trkpt>
      <trkpt lat="44.07999" lon="6.56289">
        <ele>1101.1999511719</ele>
        <time>2022-08-20T14:19:00Z</time>
      </trkpt>
      <trkpt lat="44.08007" lon="6.56278">
        <ele>1101.5999755859</ele>
        <time>2022-08-20T14:19:05Z</time>
      </trkpt>
      <trkpt lat="44.08011" lon="6.56274">
        <ele>1102</ele>
        <time>2022-08-20T14:19:07Z</time>
      </trkpt>
      <trkpt lat="44.08017" lon="6.56263">
        <ele>1102.1999511719</ele>
        <time>2022-08-20T14:19:11Z</time>
      </trkpt>
      <trkpt lat="44.0803" lon="6.56251">
        <ele>1103</ele>
        <time>2022-08-20T14:19:18Z</time>
      </trkpt>
      <trkpt lat="44.08047" lon="6.56244">
        <ele>1103.8000488281</ele>
        <time>2022-08-20T14:19:25Z</time>
      </trkpt>
      <trkpt lat="44.08052" lon="6.56242">
        <ele>1104.1999511719</ele>
        <time>2022-08-20T14:19:27Z</time>
      </trkpt>
      <trkpt lat="44.08067" lon="6.56236">
        <ele>1104.8000488281</ele>
        <time>2022-08-20T14:19:35Z</time>
      </trkpt>
      <trkpt lat="44.08079" lon="6.5623">
        <ele>1105.1999511719</ele>
        <time>2022-08-20T14:19:40Z</time>
      </trkpt>
      <trkpt lat="44.08088" lon="6.56224">
        <ele>1105.4000244141</ele>
        <time>2022-08-20T14:19:44Z</time>
      </trkpt>
      <trkpt lat="44.08098" lon="6.56215">
        <ele>1106.1999511719</ele>
        <time>2022-08-20T14:19:50Z</time>
      </trkpt>
      <trkpt lat="44.08105" lon="6.56208">
        <ele>1107</ele>
        <time>2022-08-20T14:19:54Z</time>
      </trkpt>
      <trkpt lat="44.08108" lon="6.56205">
        <ele>1107.4000244141</ele>
        <time>2022-08-20T14:19:56Z</time>
      </trkpt>
      <trkpt lat="44.08119" lon="6.56194">
        <ele>1108.4000244141</ele>
        <time>2022-08-20T14:20:02Z</time>
      </trkpt>
      <trkpt lat="44.08121" lon="6.56192">
        <ele>1108.4000244141</ele>
        <time>2022-08-20T14:20:03Z</time>
      </trkpt>
      <trkpt lat="44.08135" lon="6.56181">
        <ele>1109.4000244141</ele>
        <time>2022-08-20T14:20:10Z</time>
      </trkpt>
      <trkpt lat="44.08147" lon="6.56169">
        <ele>1110.4000244141</ele>
        <time>2022-08-20T14:20:17Z</time>
      </trkpt>
      <trkpt lat="44.08149" lon="6.56167">
        <ele>1110.4000244141</ele>
        <time>2022-08-20T14:20:18Z</time>
      </trkpt>
      <trkpt lat="44.08164" lon="6.56154">
        <ele>1111.4000244141</ele>
        <time>2022-08-20T14:20:26Z</time>
      </trkpt>
      <trkpt lat="44.08166" lon="6.56151">
        <ele>1111.5999755859</ele>
        <time>2022-08-20T14:20:27Z</time>
      </trkpt>
      <trkpt lat="44.08174" lon="6.56143">
        <ele>1112.1999511719</ele>
        <time>2022-08-20T14:20:32Z</time>
      </trkpt>
      <trkpt lat="44.08183" lon="6.56134">
        <ele>1112.5999755859</ele>
        <time>2022-08-20T14:20:38Z</time>
      </trkpt>
      <trkpt lat="44.08189" lon="6.56126">
        <ele>1112.5999755859</ele>
        <time>2022-08-20T14:20:43Z</time>
      </trkpt>
      <trkpt lat="44.08192" lon="6.56123">
        <ele>1112.5999755859</ele>
        <time>2022-08-20T14:20:45Z</time>
      </trkpt>
      <trkpt lat="44.08196" lon="6.56115">
        <ele>1112.5999755859</ele>
        <time>2022-08-20T14:20:49Z</time>
      </trkpt>
      <trkpt lat="44.08199" lon="6.5611">
        <ele>1112.5999755859</ele>
        <time>2022-08-20T14:20:51Z</time>
      </trkpt>
      <trkpt lat="44.08206" lon="6.56091">
        <ele>1112.4000244141</ele>
        <time>2022-08-20T14:20:57Z</time>
      </trkpt>
      <trkpt lat="44.08212" lon="6.56082">
        <ele>1112.4000244141</ele>
        <time>2022-08-20T14:21:00Z</time>
      </trkpt>
      <trkpt lat="44.08217" lon="6.56073">
        <ele>1112.4000244141</ele>
        <time>2022-08-20T14:21:03Z</time>
      </trkpt>
      <trkpt lat="44.0822" lon="6.56067">
        <ele>1112.4000244141</ele>
        <time>2022-08-20T14:21:05Z</time>
      </trkpt>
      <trkpt lat="44.08223" lon="6.5606">
        <ele>1112.4000244141</ele>
        <time>2022-08-20T14:21:07Z</time>
      </trkpt>
      <trkpt lat="44.08226" lon="6.56054">
        <ele>1112.5999755859</ele>
        <time>2022-08-20T14:21:09Z</time>
      </trkpt>
      <trkpt lat="44.08235" lon="6.56046">
        <ele>1112.8000488281</ele>
        <time>2022-08-20T14:21:13Z</time>
      </trkpt>
      <trkpt lat="44.08252" lon="6.56041">
        <ele>1113</ele>
        <time>2022-08-20T14:21:19Z</time>
      </trkpt>
      <trkpt lat="44.08259" lon="6.56036">
        <ele>1113.1999511719</ele>
        <time>2022-08-20T14:21:22Z</time>
      </trkpt>
      <trkpt lat="44.08273" lon="6.56027">
        <ele>1113.5999755859</ele>
        <time>2022-08-20T14:21:27Z</time>
      </trkpt>
      <trkpt lat="44.08278" lon="6.56022">
        <ele>1114</ele>
        <time>2022-08-20T14:21:29Z</time>
      </trkpt>
      <trkpt lat="44.08288" lon="6.56014">
        <ele>1114.8000488281</ele>
        <time>2022-08-20T14:21:34Z</time>
      </trkpt>
      <trkpt lat="44.0829" lon="6.56012">
        <ele>1115</ele>
        <time>2022-08-20T14:21:35Z</time>
      </trkpt>
      <trkpt lat="44.08299" lon="6.56007">
        <ele>1115.4000244141</ele>
        <time>2022-08-20T14:21:38Z</time>
      </trkpt>
      <trkpt lat="44.08306" lon="6.56001">
        <ele>1115.8000488281</ele>
        <time>2022-08-20T14:21:41Z</time>
      </trkpt>
      <trkpt lat="44.08314" lon="6.55996">
        <ele>1116.4000244141</ele>
        <time>2022-08-20T14:21:44Z</time>
      </trkpt>
      <trkpt lat="44.0832" lon="6.5599">
        <ele>1117</ele>
        <time>2022-08-20T14:21:47Z</time>
      </trkpt>
      <trkpt lat="44.08326" lon="6.55986">
        <ele>1117.4000244141</ele>
        <time>2022-08-20T14:21:50Z</time>
      </trkpt>
      <trkpt lat="44.08329" lon="6.55984">
        <ele>1117.4000244141</ele>
        <time>2022-08-20T14:21:51Z</time>
      </trkpt>
      <trkpt lat="44.08342" lon="6.55979">
        <ele>1118</ele>
        <time>2022-08-20T14:21:56Z</time>
      </trkpt>
      <trkpt lat="44.0835" lon="6.55975">
        <ele>1118.4000244141</ele>
        <time>2022-08-20T14:21:59Z</time>
      </trkpt>
      <trkpt lat="44.08372" lon="6.55956">
        <ele>1118.8000488281</ele>
        <time>2022-08-20T14:22:07Z</time>
      </trkpt>
      <trkpt lat="44.08387" lon="6.55924">
        <ele>1118.8000488281</ele>
        <time>2022-08-20T14:22:15Z</time>
      </trkpt>
      <trkpt lat="44.08396" lon="6.55905">
        <ele>1119</ele>
        <time>2022-08-20T14:22:20Z</time>
      </trkpt>
      <trkpt lat="44.08404" lon="6.55886">
        <ele>1119.1999511719</ele>
        <time>2022-08-20T14:22:25Z</time>
      </trkpt>
      <trkpt lat="44.0842" lon="6.55865">
        <ele>1119.8000488281</ele>
        <time>2022-08-20T14:22:32Z</time>
      </trkpt>
      <trkpt lat="44.08431" lon="6.55855">
        <ele>1120</ele>
        <time>2022-08-20T14:22:36Z</time>
      </trkpt>
      <trkpt lat="44.08439" lon="6.55848">
        <ele>1120.4000244141</ele>
        <time>2022-08-20T14:22:39Z</time>
      </trkpt>
      <trkpt lat="44.08458" lon="6.55839">
        <ele>1120.5999755859</ele>
        <time>2022-08-20T14:22:46Z</time>
      </trkpt>
      <trkpt lat="44.08485" lon="6.55832">
        <ele>1121.1999511719</ele>
        <time>2022-08-20T14:22:55Z</time>
      </trkpt>
      <trkpt lat="44.0851" lon="6.55826">
        <ele>1121.5999755859</ele>
        <time>2022-08-20T14:23:05Z</time>
      </trkpt>
      <trkpt lat="44.08533" lon="6.55826">
        <ele>1121.8000488281</ele>
        <time>2022-08-20T14:23:13Z</time>
      </trkpt>
      <trkpt lat="44.08552" lon="6.55822">
        <ele>1122.1999511719</ele>
        <time>2022-08-20T14:23:19Z</time>
      </trkpt>
      <trkpt lat="44.08558" lon="6.5582">
        <ele>1122.1999511719</ele>
        <time>2022-08-20T14:23:21Z</time>
      </trkpt>
      <trkpt lat="44.08574" lon="6.55806">
        <ele>1122.5999755859</ele>
        <time>2022-08-20T14:23:27Z</time>
      </trkpt>
      <trkpt lat="44.08584" lon="6.55782">
        <ele>1123</ele>
        <time>2022-08-20T14:23:33Z</time>
      </trkpt>
      <trkpt lat="44.08588" lon="6.55764">
        <ele>1123.1999511719</ele>
        <time>2022-08-20T14:23:37Z</time>
      </trkpt>
      <trkpt lat="44.08594" lon="6.55753">
        <ele>1123.1999511719</ele>
        <time>2022-08-20T14:23:40Z</time>
      </trkpt>
      <trkpt lat="44.08607" lon="6.55743">
        <ele>1123.1999511719</ele>
        <time>2022-08-20T14:23:44Z</time>
      </trkpt>
      <trkpt lat="44.08638" lon="6.55741">
        <ele>1123.4000244141</ele>
        <time>2022-08-20T14:23:52Z</time>
      </trkpt>
      <trkpt lat="44.08662" lon="6.55741">
        <ele>1123.8000488281</ele>
        <time>2022-08-20T14:23:59Z</time>
      </trkpt>
      <trkpt lat="44.08678" lon="6.5574">
        <ele>1124.1999511719</ele>
        <time>2022-08-20T14:24:04Z</time>
      </trkpt>
      <trkpt lat="44.08684" lon="6.55738">
        <ele>1124.4000244141</ele>
        <time>2022-08-20T14:24:06Z</time>
      </trkpt>
      <trkpt lat="44.08711" lon="6.5573">
        <ele>1125</ele>
        <time>2022-08-20T14:24:15Z</time>
      </trkpt>
      <trkpt lat="44.08731" lon="6.55716">
        <ele>1125.1999511719</ele>
        <time>2022-08-20T14:24:21Z</time>
      </trkpt>
      <trkpt lat="44.08737" lon="6.55711">
        <ele>1125.4000244141</ele>
        <time>2022-08-20T14:24:23Z</time>
      </trkpt>
      <trkpt lat="44.08764" lon="6.55682">
        <ele>1126</ele>
        <time>2022-08-20T14:24:33Z</time>
      </trkpt>
      <trkpt lat="44.08774" lon="6.55672">
        <ele>1126.1999511719</ele>
        <time>2022-08-20T14:24:37Z</time>
      </trkpt>
      <trkpt lat="44.08779" lon="6.55664">
        <ele>1126.5999755859</ele>
        <time>2022-08-20T14:24:40Z</time>
      </trkpt>
      <trkpt lat="44.08784" lon="6.55656">
        <ele>1127</ele>
        <time>2022-08-20T14:24:43Z</time>
      </trkpt>
      <trkpt lat="44.08789" lon="6.55649">
        <ele>1127</ele>
        <time>2022-08-20T14:24:46Z</time>
      </trkpt>
      <trkpt lat="44.08796" lon="6.55639">
        <ele>1127</ele>
        <time>2022-08-20T14:24:50Z</time>
      </trkpt>
      <trkpt lat="44.08803" lon="6.55624">
        <ele>1127.1999511719</ele>
        <time>2022-08-20T14:24:55Z</time>
      </trkpt>
      <trkpt lat="44.08805" lon="6.55619">
        <ele>1127.4000244141</ele>
        <time>2022-08-20T14:24:57Z</time>
      </trkpt>
      <trkpt lat="44.0881" lon="6.55607">
        <ele>1127.4000244141</ele>
        <time>2022-08-20T14:25:01Z</time>
      </trkpt>
      <trkpt lat="44.08822" lon="6.55585">
        <ele>1127.4000244141</ele>
        <time>2022-08-20T14:25:08Z</time>
      </trkpt>
      <trkpt lat="44.08844" lon="6.55569">
        <ele>1126.8000488281</ele>
        <time>2022-08-20T14:25:15Z</time>
      </trkpt>
      <trkpt lat="44.08856" lon="6.55568">
        <ele>1126.5999755859</ele>
        <time>2022-08-20T14:25:18Z</time>
      </trkpt>
      <trkpt lat="44.08871" lon="6.55566">
        <ele>1126.1999511719</ele>
        <time>2022-08-20T14:25:21Z</time>
      </trkpt>
      <trkpt lat="44.08895" lon="6.55565">
        <ele>1125.1999511719</ele>
        <time>2022-08-20T14:25:25Z</time>
      </trkpt>
      <trkpt lat="44.08908" lon="6.55564">
        <ele>1124.5999755859</ele>
        <time>2022-08-20T14:25:27Z</time>
      </trkpt>
      <trkpt lat="44.08923" lon="6.55564">
        <ele>1124.1999511719</ele>
        <time>2022-08-20T14:25:29Z</time>
      </trkpt>
      <trkpt lat="44.08938" lon="6.55564">
        <ele>1123.5999755859</ele>
        <time>2022-08-20T14:25:31Z</time>
      </trkpt>
      <trkpt lat="44.08947" lon="6.55564">
        <ele>1123</ele>
        <time>2022-08-20T14:25:32Z</time>
      </trkpt>
      <trkpt lat="44.08955" lon="6.55564">
        <ele>1122.4000244141</ele>
        <time>2022-08-20T14:25:33Z</time>
      </trkpt>
      <trkpt lat="44.08964" lon="6.55563">
        <ele>1121.5999755859</ele>
        <time>2022-08-20T14:25:34Z</time>
      </trkpt>
      <trkpt lat="44.08982" lon="6.55563">
        <ele>1120.4000244141</ele>
        <time>2022-08-20T14:25:36Z</time>
      </trkpt>
      <trkpt lat="44.09013" lon="6.55563">
        <ele>1119.5999755859</ele>
        <time>2022-08-20T14:25:40Z</time>
      </trkpt>
      <trkpt lat="44.09057" lon="6.5556">
        <ele>1120.8000488281</ele>
        <time>2022-08-20T14:25:47Z</time>
      </trkpt>
      <trkpt lat="44.09071" lon="6.55561">
        <ele>1121.5999755859</ele>
        <time>2022-08-20T14:25:50Z</time>
      </trkpt>
      <trkpt lat="44.09084" lon="6.55562">
        <ele>1122.1999511719</ele>
        <time>2022-08-20T14:25:53Z</time>
      </trkpt>
      <trkpt lat="44.09092" lon="6.55562">
        <ele>1122.5999755859</ele>
        <time>2022-08-20T14:25:55Z</time>
      </trkpt>
      <trkpt lat="44.091" lon="6.55562">
        <ele>1122.8000488281</ele>
        <time>2022-08-20T14:25:57Z</time>
      </trkpt>
      <trkpt lat="44.09104" lon="6.55563">
        <ele>1123</ele>
        <time>2022-08-20T14:25:58Z</time>
      </trkpt>
      <trkpt lat="44.0911" lon="6.55563">
        <ele>1123.1999511719</ele>
        <time>2022-08-20T14:26:00Z</time>
      </trkpt>
      <trkpt lat="44.09119" lon="6.55563">
        <ele>1123.5999755859</ele>
        <time>2022-08-20T14:26:03Z</time>
      </trkpt>
      <trkpt lat="44.09126" lon="6.55563">
        <ele>1124</ele>
        <time>2022-08-20T14:26:06Z</time>
      </trkpt>
      <trkpt lat="44.09139" lon="6.55562">
        <ele>1124.5999755859</ele>
        <time>2022-08-20T14:26:12Z</time>
      </trkpt>
      <trkpt lat="44.09141" lon="6.55561">
        <ele>1124.8000488281</ele>
        <time>2022-08-20T14:26:13Z</time>
      </trkpt>
      <trkpt lat="44.09148" lon="6.55562">
        <ele>1125.1999511719</ele>
        <time>2022-08-20T14:26:16Z</time>
      </trkpt>
      <trkpt lat="44.0916" lon="6.55562">
        <ele>1125.8000488281</ele>
        <time>2022-08-20T14:26:22Z</time>
      </trkpt>
      <trkpt lat="44.09173" lon="6.55562">
        <ele>1126.4000244141</ele>
        <time>2022-08-20T14:26:28Z</time>
      </trkpt>
      <trkpt lat="44.09177" lon="6.55564">
        <ele>1126.5999755859</ele>
        <time>2022-08-20T14:26:30Z</time>
      </trkpt>
      <trkpt lat="44.09179" lon="6.55564">
        <ele>1126.8000488281</ele>
        <time>2022-08-20T14:26:31Z</time>
      </trkpt>
      <trkpt lat="44.09185" lon="6.55563">
        <ele>1127.1999511719</ele>
        <time>2022-08-20T14:26:34Z</time>
      </trkpt>
      <trkpt lat="44.09191" lon="6.55563">
        <ele>1127.5999755859</ele>
        <time>2022-08-20T14:26:37Z</time>
      </trkpt>
      <trkpt lat="44.09196" lon="6.55563">
        <ele>1128</ele>
        <time>2022-08-20T14:26:39Z</time>
      </trkpt>
      <trkpt lat="44.092" lon="6.55563">
        <ele>1128.1999511719</ele>
        <time>2022-08-20T14:26:41Z</time>
      </trkpt>
      <trkpt lat="44.09209" lon="6.55564">
        <ele>1129</ele>
        <time>2022-08-20T14:26:45Z</time>
      </trkpt>
      <trkpt lat="44.09212" lon="6.55564">
        <ele>1129</ele>
        <time>2022-08-20T14:26:46Z</time>
      </trkpt>
      <trkpt lat="44.09231" lon="6.55565">
        <ele>1130</ele>
        <time>2022-08-20T14:26:55Z</time>
      </trkpt>
      <trkpt lat="44.09233" lon="6.55565">
        <ele>1130.1999511719</ele>
        <time>2022-08-20T14:26:56Z</time>
      </trkpt>
      <trkpt lat="44.09247" lon="6.55564">
        <ele>1130.8000488281</ele>
        <time>2022-08-20T14:27:03Z</time>
      </trkpt>
      <trkpt lat="44.09253" lon="6.55565">
        <ele>1131.1999511719</ele>
        <time>2022-08-20T14:27:06Z</time>
      </trkpt>
      <trkpt lat="44.0927" lon="6.55571">
        <ele>1131.8000488281</ele>
        <time>2022-08-20T14:27:14Z</time>
      </trkpt>
      <trkpt lat="44.0928" lon="6.55575">
        <ele>1132.1999511719</ele>
        <time>2022-08-20T14:27:19Z</time>
      </trkpt>
      <trkpt lat="44.09282" lon="6.55576">
        <ele>1132.1999511719</ele>
        <time>2022-08-20T14:27:20Z</time>
      </trkpt>
      <trkpt lat="44.09295" lon="6.55581">
        <ele>1132.5999755859</ele>
        <time>2022-08-20T14:27:26Z</time>
      </trkpt>
      <trkpt lat="44.09302" lon="6.55583">
        <ele>1132.5999755859</ele>
        <time>2022-08-20T14:27:29Z</time>
      </trkpt>
      <trkpt lat="44.09318" lon="6.55585">
        <ele>1133</ele>
        <time>2022-08-20T14:27:36Z</time>
      </trkpt>
      <trkpt lat="44.09328" lon="6.55583">
        <ele>1133.1999511719</ele>
        <time>2022-08-20T14:27:40Z</time>
      </trkpt>
      <trkpt lat="44.09341" lon="6.55578">
        <ele>1133.5999755859</ele>
        <time>2022-08-20T14:27:46Z</time>
      </trkpt>
      <trkpt lat="44.09359" lon="6.5557">
        <ele>1134.1999511719</ele>
        <time>2022-08-20T14:27:54Z</time>
      </trkpt>
      <trkpt lat="44.09364" lon="6.55569">
        <ele>1134.4000244141</ele>
        <time>2022-08-20T14:27:56Z</time>
      </trkpt>
      <trkpt lat="44.09383" lon="6.55565">
        <ele>1135</ele>
        <time>2022-08-20T14:28:04Z</time>
      </trkpt>
      <trkpt lat="44.0939" lon="6.55565">
        <ele>1135.4000244141</ele>
        <time>2022-08-20T14:28:07Z</time>
      </trkpt>
      <trkpt lat="44.09401" lon="6.55568">
        <ele>1136</ele>
        <time>2022-08-20T14:28:12Z</time>
      </trkpt>
      <trkpt lat="44.09409" lon="6.55571">
        <ele>1136.4000244141</ele>
        <time>2022-08-20T14:28:16Z</time>
      </trkpt>
      <trkpt lat="44.09415" lon="6.55576">
        <ele>1136.8000488281</ele>
        <time>2022-08-20T14:28:20Z</time>
      </trkpt>
      <trkpt lat="44.09425" lon="6.55586">
        <ele>1137.5999755859</ele>
        <time>2022-08-20T14:28:27Z</time>
      </trkpt>
      <trkpt lat="44.09429" lon="6.55591">
        <ele>1137.8000488281</ele>
        <time>2022-08-20T14:28:30Z</time>
      </trkpt>
      <trkpt lat="44.09433" lon="6.55596">
        <ele>1138.1999511719</ele>
        <time>2022-08-20T14:28:33Z</time>
      </trkpt>
      <trkpt lat="44.09438" lon="6.55601">
        <ele>1138.5999755859</ele>
        <time>2022-08-20T14:28:36Z</time>
      </trkpt>
      <trkpt lat="44.09441" lon="6.55604">
        <ele>1138.8000488281</ele>
        <time>2022-08-20T14:28:38Z</time>
      </trkpt>
      <trkpt lat="44.09449" lon="6.55611">
        <ele>1139.1999511719</ele>
        <time>2022-08-20T14:28:43Z</time>
      </trkpt>
      <trkpt lat="44.09455" lon="6.55616">
        <ele>1139.5999755859</ele>
        <time>2022-08-20T14:28:46Z</time>
      </trkpt>
      <trkpt lat="44.09471" lon="6.55624">
        <ele>1140.4000244141</ele>
        <time>2022-08-20T14:28:55Z</time>
      </trkpt>
      <trkpt lat="44.09477" lon="6.55625">
        <ele>1140.5999755859</ele>
        <time>2022-08-20T14:28:58Z</time>
      </trkpt>
      <trkpt lat="44.09483" lon="6.55624">
        <ele>1141</ele>
        <time>2022-08-20T14:29:01Z</time>
      </trkpt>
      <trkpt lat="44.09497" lon="6.55621">
        <ele>1141.8000488281</ele>
        <time>2022-08-20T14:29:08Z</time>
      </trkpt>
      <trkpt lat="44.09504" lon="6.55618">
        <ele>1142</ele>
        <time>2022-08-20T14:29:11Z</time>
      </trkpt>
      <trkpt lat="44.09517" lon="6.55612">
        <ele>1142.8000488281</ele>
        <time>2022-08-20T14:29:17Z</time>
      </trkpt>
      <trkpt lat="44.0952" lon="6.55611">
        <ele>1143</ele>
        <time>2022-08-20T14:29:19Z</time>
      </trkpt>
      <trkpt lat="44.09528" lon="6.55605">
        <ele>1143.4000244141</ele>
        <time>2022-08-20T14:29:25Z</time>
      </trkpt>
      <trkpt lat="44.09536" lon="6.556">
        <ele>1144</ele>
        <time>2022-08-20T14:29:30Z</time>
      </trkpt>
      <trkpt lat="44.09541" lon="6.55598">
        <ele>1144.1999511719</ele>
        <time>2022-08-20T14:29:32Z</time>
      </trkpt>
      <trkpt lat="44.09559" lon="6.55587">
        <ele>1145</ele>
        <time>2022-08-20T14:29:41Z</time>
      </trkpt>
      <trkpt lat="44.09574" lon="6.55579">
        <ele>1146</ele>
        <time>2022-08-20T14:29:49Z</time>
      </trkpt>
      <trkpt lat="44.09575" lon="6.55577">
        <ele>1146</ele>
        <time>2022-08-20T14:29:50Z</time>
      </trkpt>
      <trkpt lat="44.09585" lon="6.55572">
        <ele>1146.5999755859</ele>
        <time>2022-08-20T14:29:56Z</time>
      </trkpt>
      <trkpt lat="44.09591" lon="6.55568">
        <ele>1147</ele>
        <time>2022-08-20T14:30:00Z</time>
      </trkpt>
      <trkpt lat="44.096" lon="6.55563">
        <ele>1147.5999755859</ele>
        <time>2022-08-20T14:30:05Z</time>
      </trkpt>
      <trkpt lat="44.09607" lon="6.55557">
        <ele>1148</ele>
        <time>2022-08-20T14:30:09Z</time>
      </trkpt>
      <trkpt lat="44.09611" lon="6.55556">
        <ele>1148.4000244141</ele>
        <time>2022-08-20T14:30:11Z</time>
      </trkpt>
      <trkpt lat="44.09624" lon="6.55548">
        <ele>1149</ele>
        <time>2022-08-20T14:30:19Z</time>
      </trkpt>
      <trkpt lat="44.09627" lon="6.55545">
        <ele>1149.1999511719</ele>
        <time>2022-08-20T14:30:21Z</time>
      </trkpt>
      <trkpt lat="44.09641" lon="6.55537">
        <ele>1149.8000488281</ele>
        <time>2022-08-20T14:30:29Z</time>
      </trkpt>
      <trkpt lat="44.09644" lon="6.55533">
        <ele>1150</ele>
        <time>2022-08-20T14:30:32Z</time>
      </trkpt>
      <trkpt lat="44.09652" lon="6.55527">
        <ele>1150.8000488281</ele>
        <time>2022-08-20T14:30:37Z</time>
      </trkpt>
      <trkpt lat="44.09655" lon="6.55526">
        <ele>1151</ele>
        <time>2022-08-20T14:30:39Z</time>
      </trkpt>
      <trkpt lat="44.09655" lon="6.55527">
        <ele>1151.1999511719</ele>
        <time>2022-08-20T14:30:40Z</time>
      </trkpt>
      <trkpt lat="44.09657" lon="6.5553">
        <ele>1151.1999511719</ele>
        <time>2022-08-20T14:30:42Z</time>
      </trkpt>
      <trkpt lat="44.09666" lon="6.55543">
        <ele>1151.4000244141</ele>
        <time>2022-08-20T14:30:50Z</time>
      </trkpt>
      <trkpt lat="44.09667" lon="6.55545">
        <ele>1151.4000244141</ele>
        <time>2022-08-20T14:30:51Z</time>
      </trkpt>
      <trkpt lat="44.09676" lon="6.55559">
        <ele>1151.4000244141</ele>
        <time>2022-08-20T14:30:59Z</time>
      </trkpt>
      <trkpt lat="44.09682" lon="6.55564">
        <ele>1151.4000244141</ele>
        <time>2022-08-20T14:31:03Z</time>
      </trkpt>
      <trkpt lat="44.09682" lon="6.55566">
        <ele>1151.4000244141</ele>
        <time>2022-08-20T14:31:04Z</time>
      </trkpt>
      <trkpt lat="44.09682" lon="6.55571">
        <ele>1151.4000244141</ele>
        <time>2022-08-20T14:31:07Z</time>
      </trkpt>
      <trkpt lat="44.09682" lon="6.55572">
        <ele>1151.4000244141</ele>
        <time>2022-08-20T14:31:08Z</time>
      </trkpt>
      <trkpt lat="44.09682" lon="6.55573">
        <ele>1151.1999511719</ele>
        <time>2022-08-20T14:31:10Z</time>
      </trkpt>
      <trkpt lat="44.09683" lon="6.55573">
        <ele>1151.4000244141</ele>
        <time>2022-08-20T14:31:12Z</time>
      </trkpt>
      <trkpt lat="44.09686" lon="6.55581">
        <ele>1151.4000244141</ele>
        <time>2022-08-20T14:31:19Z</time>
      </trkpt>
      <trkpt lat="44.09689" lon="6.55592">
        <ele>1151.5999755859</ele>
        <time>2022-08-20T14:31:26Z</time>
      </trkpt>
      <trkpt lat="44.09687" lon="6.55583">
        <ele>1151.4000244141</ele>
        <time>2022-08-20T14:31:31Z</time>
      </trkpt>
      <trkpt lat="44.09691" lon="6.55581">
        <ele>1151.5999755859</ele>
        <time>2022-08-20T14:31:32Z</time>
      </trkpt>
      <trkpt lat="44.09694" lon="6.5558">
        <ele>1151.5999755859</ele>
        <time>2022-08-20T14:31:34Z</time>
      </trkpt>
      <trkpt lat="44.09699" lon="6.55576">
        <ele>1152.1999511719</ele>
        <time>2022-08-20T14:31:38Z</time>
      </trkpt>
      <trkpt lat="44.09701" lon="6.55577">
        <ele>1152.4000244141</ele>
        <time>2022-08-20T14:31:40Z</time>
      </trkpt>
      <trkpt lat="44.097" lon="6.55577">
        <ele>1152.5999755859</ele>
        <time>2022-08-20T14:31:41Z</time>
      </trkpt>
      <trkpt lat="44.097" lon="6.55577">
        <ele>1152.5999755859</ele>
        <time>2022-08-20T14:31:42Z</time>
      </trkpt>
      <trkpt lat="44.09699" lon="6.55577">
        <ele>1153</ele>
        <time>2022-08-20T14:31:47Z</time>
      </trkpt>
      <trkpt lat="44.09699" lon="6.55568">
        <ele>1152.8000488281</ele>
        <time>2022-08-20T14:31:57Z</time>
      </trkpt>
      <trkpt lat="44.097" lon="6.55568">
        <ele>1152.8000488281</ele>
        <time>2022-08-20T14:31:58Z</time>
      </trkpt>
      <trkpt lat="44.097" lon="6.55568">
        <ele>1153</ele>
        <time>2022-08-20T14:32:02Z</time>
      </trkpt>
      <trkpt lat="44.097" lon="6.55568">
        <ele>1153</ele>
        <time>2022-08-20T14:32:08Z</time>
      </trkpt>
      <trkpt lat="44.09702" lon="6.55563">
        <ele>1153.1999511719</ele>
        <time>2022-08-20T14:32:22Z</time>
      </trkpt>
      <trkpt lat="44.09704" lon="6.5556">
        <ele>1153.4000244141</ele>
        <time>2022-08-20T14:32:25Z</time>
      </trkpt>
      <trkpt lat="44.09705" lon="6.5555">
        <ele>1153.8000488281</ele>
        <time>2022-08-20T14:32:30Z</time>
      </trkpt>
      <trkpt lat="44.09707" lon="6.55548">
        <ele>1154</ele>
        <time>2022-08-20T14:32:32Z</time>
      </trkpt>
      <trkpt lat="44.0971" lon="6.55544">
        <ele>1154.4000244141</ele>
        <time>2022-08-20T14:32:35Z</time>
      </trkpt>
      <trkpt lat="44.09715" lon="6.5554">
        <ele>1154.8000488281</ele>
        <time>2022-08-20T14:32:38Z</time>
      </trkpt>
      <trkpt lat="44.09722" lon="6.5554">
        <ele>1155</ele>
        <time>2022-08-20T14:32:40Z</time>
      </trkpt>
      <trkpt lat="44.09727" lon="6.55538">
        <ele>1155.4000244141</ele>
        <time>2022-08-20T14:32:44Z</time>
      </trkpt>
      <trkpt lat="44.09728" lon="6.5554">
        <ele>1155.5999755859</ele>
        <time>2022-08-20T14:32:46Z</time>
      </trkpt>
      <trkpt lat="44.09729" lon="6.55542">
        <ele>1155.5999755859</ele>
        <time>2022-08-20T14:32:47Z</time>
      </trkpt>
      <trkpt lat="44.0973" lon="6.55553">
        <ele>1155.8000488281</ele>
        <time>2022-08-20T14:32:53Z</time>
      </trkpt>
      <trkpt lat="44.09732" lon="6.55559">
        <ele>1155.8000488281</ele>
        <time>2022-08-20T14:32:57Z</time>
      </trkpt>
      <trkpt lat="44.09733" lon="6.55559">
        <ele>1155.8000488281</ele>
        <time>2022-08-20T14:32:59Z</time>
      </trkpt>
      <trkpt lat="44.09732" lon="6.55556">
        <ele>1155.5999755859</ele>
        <time>2022-08-20T14:33:03Z</time>
      </trkpt>
      <trkpt lat="44.09731" lon="6.55556">
        <ele>1155.8000488281</ele>
        <time>2022-08-20T14:33:09Z</time>
      </trkpt>
      <trkpt lat="44.09724" lon="6.5557">
        <ele>1155.5999755859</ele>
        <time>2022-08-20T14:33:20Z</time>
      </trkpt>
      <trkpt lat="44.09725" lon="6.55573">
        <ele>1155.5999755859</ele>
        <time>2022-08-20T14:33:24Z</time>
      </trkpt>
      <trkpt lat="44.09725" lon="6.55575">
        <ele>1155.4000244141</ele>
        <time>2022-08-20T14:33:31Z</time>
      </trkpt>
      <trkpt lat="44.09726" lon="6.55575">
        <ele>1155.5999755859</ele>
        <time>2022-08-20T14:33:38Z</time>
      </trkpt>
      <trkpt lat="44.09725" lon="6.55574">
        <ele>1155.4000244141</ele>
        <time>2022-08-20T14:33:47Z</time>
      </trkpt>
      <trkpt lat="44.09728" lon="6.55576">
        <ele>1155.5999755859</ele>
        <time>2022-08-20T14:33:55Z</time>
      </trkpt>
      <trkpt lat="44.09726" lon="6.55579">
        <ele>1155.4000244141</ele>
        <time>2022-08-20T14:34:03Z</time>
      </trkpt>
      <trkpt lat="44.09725" lon="6.55581">
        <ele>1155.4000244141</ele>
        <time>2022-08-20T14:34:06Z</time>
      </trkpt>
      <trkpt lat="44.09725" lon="6.55583">
        <ele>1155.1999511719</ele>
        <time>2022-08-20T14:34:08Z</time>
      </trkpt>
      <trkpt lat="44.09724" lon="6.55589">
        <ele>1155</ele>
        <time>2022-08-20T14:34:15Z</time>
      </trkpt>
      <trkpt lat="44.09725" lon="6.5559">
        <ele>1155.1999511719</ele>
        <time>2022-08-20T14:34:17Z</time>
      </trkpt>
      <trkpt lat="44.09727" lon="6.55595">
        <ele>1155.1999511719</ele>
        <time>2022-08-20T14:34:21Z</time>
      </trkpt>
      <trkpt lat="44.0973" lon="6.55598">
        <ele>1155.1999511719</ele>
        <time>2022-08-20T14:34:32Z</time>
      </trkpt>
      <trkpt lat="44.0973" lon="6.55598">
        <ele>1155.1999511719</ele>
        <time>2022-08-20T14:34:33Z</time>
      </trkpt>
      <trkpt lat="44.0973" lon="6.55598">
        <ele>1155.1999511719</ele>
        <time>2022-08-20T14:34:34Z</time>
      </trkpt>
      <trkpt lat="44.09732" lon="6.55598">
        <ele>1155.1999511719</ele>
        <time>2022-08-20T14:34:43Z</time>
      </trkpt>
      <trkpt lat="44.09733" lon="6.55601">
        <ele>1155.1999511719</ele>
        <time>2022-08-20T14:34:53Z</time>
      </trkpt>
      <trkpt lat="44.09734" lon="6.55599">
        <ele>1155.1999511719</ele>
        <time>2022-08-20T14:35:01Z</time>
      </trkpt>
      <trkpt lat="44.09734" lon="6.55592">
        <ele>1155.1999511719</ele>
        <time>2022-08-20T14:35:08Z</time>
      </trkpt>
      <trkpt lat="44.09734" lon="6.55586">
        <ele>1155.1999511719</ele>
        <time>2022-08-20T14:35:13Z</time>
      </trkpt>
      <trkpt lat="44.09734" lon="6.55584">
        <ele>1155.1999511719</ele>
        <time>2022-08-20T14:35:17Z</time>
      </trkpt>
      <trkpt lat="44.0973" lon="6.55578">
        <ele>1155.1999511719</ele>
        <time>2022-08-20T14:35:30Z</time>
      </trkpt>
      <trkpt lat="44.09731" lon="6.55573">
        <ele>1155.1999511719</ele>
        <time>2022-08-20T14:35:33Z</time>
      </trkpt>
      <trkpt lat="44.09725" lon="6.55559">
        <ele>1155.1999511719</ele>
        <time>2022-08-20T14:35:40Z</time>
      </trkpt>
      <trkpt lat="44.09723" lon="6.55551">
        <ele>1155.1999511719</ele>
        <time>2022-08-20T14:35:45Z</time>
      </trkpt>
      <trkpt lat="44.09724" lon="6.5555">
        <ele>1155.1999511719</ele>
        <time>2022-08-20T14:35:46Z</time>
      </trkpt>
      <trkpt lat="44.09729" lon="6.55541">
        <ele>1155.1999511719</ele>
        <time>2022-08-20T14:35:49Z</time>
      </trkpt>
      <trkpt lat="44.09731" lon="6.55538">
        <ele>1155.1999511719</ele>
        <time>2022-08-20T14:35:51Z</time>
      </trkpt>
      <trkpt lat="44.09731" lon="6.55537">
        <ele>1155.1999511719</ele>
        <time>2022-08-20T14:35:52Z</time>
      </trkpt>
      <trkpt lat="44.09732" lon="6.55535">
        <ele>1155.1999511719</ele>
        <time>2022-08-20T14:35:53Z</time>
      </trkpt>
      <trkpt lat="44.09733" lon="6.55534">
        <ele>1155.1999511719</ele>
        <time>2022-08-20T14:35:54Z</time>
      </trkpt>
      <trkpt lat="44.09735" lon="6.55532">
        <ele>1155.4000244141</ele>
        <time>2022-08-20T14:35:56Z</time>
      </trkpt>
      <trkpt lat="44.09736" lon="6.55531">
        <ele>1155.4000244141</ele>
        <time>2022-08-20T14:35:57Z</time>
      </trkpt>
      <trkpt lat="44.09738" lon="6.55532">
        <ele>1155.4000244141</ele>
        <time>2022-08-20T14:35:59Z</time>
      </trkpt>
      <trkpt lat="44.09738" lon="6.55532">
        <ele>1155.4000244141</ele>
        <time>2022-08-20T14:36:00Z</time>
      </trkpt>
      <trkpt lat="44.09738" lon="6.55533">
        <ele>1155.4000244141</ele>
        <time>2022-08-20T14:36:01Z</time>
      </trkpt>
      <trkpt lat="44.09738" lon="6.55532">
        <ele>1155.4000244141</ele>
        <time>2022-08-20T14:36:04Z</time>
      </trkpt>
      <trkpt lat="44.09738" lon="6.55532">
        <ele>1155.4000244141</ele>
        <time>2022-08-20T14:36:06Z</time>
      </trkpt>
      <trkpt lat="44.09738" lon="6.55532">
        <ele>1155.4000244141</ele>
        <time>2022-08-20T14:36:09Z</time>
      </trkpt>
      <trkpt lat="44.09738" lon="6.55532">
        <ele>1155.4000244141</ele>
        <time>2022-08-20T14:36:14Z</time>
      </trkpt>
      <trkpt lat="44.09738" lon="6.55534">
        <ele>1155.4000244141</ele>
        <time>2022-08-20T14:36:29Z</time>
      </trkpt>
      <trkpt lat="44.09738" lon="6.55534">
        <ele>1155.4000244141</ele>
        <time>2022-08-20T14:36:35Z</time>
      </trkpt>
      <trkpt lat="44.09736" lon="6.55534">
        <ele>1155.1999511719</ele>
        <time>2022-08-20T14:36:46Z</time>
      </trkpt>
      <trkpt lat="44.09736" lon="6.55533">
        <ele>1155.4000244141</ele>
        <time>2022-08-20T14:36:47Z</time>
      </trkpt>
      <trkpt lat="44.09736" lon="6.55534">
        <ele>1155.5999755859</ele>
        <time>2022-08-20T14:36:50Z</time>
      </trkpt>
      <trkpt lat="44.09736" lon="6.55533">
        <ele>1155.5999755859</ele>
        <time>2022-08-20T14:36:56Z</time>
      </trkpt>
      <trkpt lat="44.09736" lon="6.55533">
        <ele>1155.5999755859</ele>
        <time>2022-08-20T14:36:59Z</time>
      </trkpt>
      <trkpt lat="44.09735" lon="6.55532">
        <ele>1155</ele>
        <time>2022-08-20T14:37:10Z</time>
      </trkpt>
      <trkpt lat="44.09735" lon="6.55531">
        <ele>1155</ele>
        <time>2022-08-20T14:37:19Z</time>
      </trkpt>
      <trkpt lat="44.09736" lon="6.55531">
        <ele>1155</ele>
        <time>2022-08-20T14:37:25Z</time>
      </trkpt>
      <trkpt lat="44.09737" lon="6.55528">
        <ele>1155</ele>
        <time>2022-08-20T14:37:35Z</time>
      </trkpt>
      <trkpt lat="44.09737" lon="6.55528">
        <ele>1155</ele>
        <time>2022-08-20T14:37:41Z</time>
      </trkpt>
      <trkpt lat="44.09738" lon="6.5553">
        <ele>1155</ele>
        <time>2022-08-20T14:37:47Z</time>
      </trkpt>
      <trkpt lat="44.09738" lon="6.5553">
        <ele>1155</ele>
        <time>2022-08-20T14:37:53Z</time>
      </trkpt>
      <trkpt lat="44.09738" lon="6.5553">
        <ele>1155</ele>
        <time>2022-08-20T14:37:55Z</time>
      </trkpt>
      <trkpt lat="44.09738" lon="6.5553">
        <ele>1155</ele>
        <time>2022-08-20T14:37:59Z</time>
      </trkpt>
      <trkpt lat="44.09738" lon="6.5553">
        <ele>1155</ele>
        <time>2022-08-20T14:38:00Z</time>
      </trkpt>
      <trkpt lat="44.09738" lon="6.55531">
        <ele>1155</ele>
        <time>2022-08-20T14:38:02Z</time>
      </trkpt>
      <trkpt lat="44.09738" lon="6.55531">
        <ele>1155</ele>
        <time>2022-08-20T14:38:05Z</time>
      </trkpt>
      <trkpt lat="44.09738" lon="6.55531">
        <ele>1155</ele>
        <time>2022-08-20T14:38:08Z</time>
      </trkpt>
      <trkpt lat="44.09738" lon="6.55533">
        <ele>1155</ele>
        <time>2022-08-20T14:38:26Z</time>
      </trkpt>
      <trkpt lat="44.09737" lon="6.55533">
        <ele>1155</ele>
        <time>2022-08-20T14:38:37Z</time>
      </trkpt>
      <trkpt lat="44.09736" lon="6.55532">
        <ele>1155</ele>
        <time>2022-08-20T14:38:51Z</time>
      </trkpt>
      <trkpt lat="44.09735" lon="6.55533">
        <ele>1155</ele>
        <time>2022-08-20T14:39:07Z</time>
      </trkpt>
      <trkpt lat="44.09735" lon="6.55533">
        <ele>1155</ele>
        <time>2022-08-20T14:39:16Z</time>
      </trkpt>
      <trkpt lat="44.09734" lon="6.55533">
        <ele>1155</ele>
        <time>2022-08-20T14:39:23Z</time>
      </trkpt>
      <trkpt lat="44.09733" lon="6.55533">
        <ele>1155</ele>
        <time>2022-08-20T14:39:39Z</time>
      </trkpt>
      <trkpt lat="44.09733" lon="6.55531">
        <ele>1155</ele>
        <time>2022-08-20T14:39:54Z</time>
      </trkpt>
      <trkpt lat="44.09733" lon="6.55532">
        <ele>1155</ele>
        <time>2022-08-20T14:39:57Z</time>
      </trkpt>
      <trkpt lat="44.09734" lon="6.55532">
        <ele>1155</ele>
        <time>2022-08-20T14:40:01Z</time>
      </trkpt>
      <trkpt lat="44.09734" lon="6.55533">
        <ele>1155</ele>
        <time>2022-08-20T14:40:11Z</time>
      </trkpt>
      <trkpt lat="44.09734" lon="6.55532">
        <ele>1155</ele>
        <time>2022-08-20T14:40:25Z</time>
      </trkpt>
      <trkpt lat="44.09735" lon="6.55533">
        <ele>1155</ele>
        <time>2022-08-20T14:40:45Z</time>
      </trkpt>
      <trkpt lat="44.09734" lon="6.55532">
        <ele>1155</ele>
        <time>2022-08-20T14:41:00Z</time>
      </trkpt>
      <trkpt lat="44.09734" lon="6.55531">
        <ele>1155</ele>
        <time>2022-08-20T14:41:17Z</time>
      </trkpt>
      <trkpt lat="44.09734" lon="6.55529">
        <ele>1155</ele>
        <time>2022-08-20T14:41:30Z</time>
      </trkpt>
      <trkpt lat="44.09734" lon="6.55528">
        <ele>1155</ele>
        <time>2022-08-20T14:41:32Z</time>
      </trkpt>
      <trkpt lat="44.09734" lon="6.55528">
        <ele>1155</ele>
        <time>2022-08-20T14:41:48Z</time>
      </trkpt>
      <trkpt lat="44.09734" lon="6.55528">
        <ele>1155</ele>
        <time>2022-08-20T14:41:58Z</time>
      </trkpt>
      <trkpt lat="44.09734" lon="6.55528">
        <ele>1155</ele>
        <time>2022-08-20T14:42:04Z</time>
      </trkpt>
      <trkpt lat="44.09735" lon="6.55529">
        <ele>1155</ele>
        <time>2022-08-20T14:42:17Z</time>
      </trkpt>
      <trkpt lat="44.09735" lon="6.55529">
        <ele>1155</ele>
        <time>2022-08-20T14:42:31Z</time>
      </trkpt>
      <trkpt lat="44.09735" lon="6.5553">
        <ele>1155</ele>
        <time>2022-08-20T14:42:42Z</time>
      </trkpt>
      <trkpt lat="44.09734" lon="6.55529">
        <ele>1155</ele>
        <time>2022-08-20T14:42:47Z</time>
      </trkpt>
      <trkpt lat="44.0973" lon="6.5553">
        <ele>1155</ele>
        <time>2022-08-20T14:42:52Z</time>
      </trkpt>
      <trkpt lat="44.09729" lon="6.5553">
        <ele>1155</ele>
        <time>2022-08-20T14:42:57Z</time>
      </trkpt>
      <trkpt lat="44.09729" lon="6.5553">
        <ele>1155</ele>
        <time>2022-08-20T14:43:00Z</time>
      </trkpt>
      <trkpt lat="44.09729" lon="6.5553">
        <ele>1155</ele>
        <time>2022-08-20T14:43:02Z</time>
      </trkpt>
      <trkpt lat="44.09729" lon="6.5553">
        <ele>1155</ele>
        <time>2022-08-20T14:43:06Z</time>
      </trkpt>
      <trkpt lat="44.09729" lon="6.55531">
        <ele>1155</ele>
        <time>2022-08-20T14:43:08Z</time>
      </trkpt>
      <trkpt lat="44.0973" lon="6.55531">
        <ele>1155</ele>
        <time>2022-08-20T14:43:20Z</time>
      </trkpt>
      <trkpt lat="44.0973" lon="6.55531">
        <ele>1155</ele>
        <time>2022-08-20T14:43:22Z</time>
      </trkpt>
      <trkpt lat="44.09729" lon="6.55532">
        <ele>1155</ele>
        <time>2022-08-20T14:43:23Z</time>
      </trkpt>
      <trkpt lat="44.09729" lon="6.55532">
        <ele>1155</ele>
        <time>2022-08-20T14:43:25Z</time>
      </trkpt>
      <trkpt lat="44.09729" lon="6.55532">
        <ele>1155</ele>
        <time>2022-08-20T14:43:31Z</time>
      </trkpt>
      <trkpt lat="44.09729" lon="6.55531">
        <ele>1155</ele>
        <time>2022-08-20T14:43:34Z</time>
      </trkpt>
      <trkpt lat="44.09729" lon="6.55531">
        <ele>1155</ele>
        <time>2022-08-20T14:43:36Z</time>
      </trkpt>
      <trkpt lat="44.09729" lon="6.55531">
        <ele>1155</ele>
        <time>2022-08-20T14:43:38Z</time>
      </trkpt>
      <trkpt lat="44.09728" lon="6.55531">
        <ele>1155</ele>
        <time>2022-08-20T14:43:49Z</time>
      </trkpt>
      <trkpt lat="44.09728" lon="6.55531">
        <ele>1155</ele>
        <time>2022-08-20T14:43:53Z</time>
      </trkpt>
      <trkpt lat="44.09728" lon="6.55531">
        <ele>1155</ele>
        <time>2022-08-20T14:43:54Z</time>
      </trkpt>
      <trkpt lat="44.09728" lon="6.55531">
        <ele>1155</ele>
        <time>2022-08-20T14:43:59Z</time>
      </trkpt>
      <trkpt lat="44.09728" lon="6.55531">
        <ele>1155</ele>
        <time>2022-08-20T14:44:01Z</time>
      </trkpt>
      <trkpt lat="44.09728" lon="6.55531">
        <ele>1155</ele>
        <time>2022-08-20T14:44:05Z</time>
      </trkpt>
      <trkpt lat="44.09728" lon="6.55531">
        <ele>1155</ele>
        <time>2022-08-20T14:44:08Z</time>
      </trkpt>
      <trkpt lat="44.09727" lon="6.55531">
        <ele>1155</ele>
        <time>2022-08-20T14:44:14Z</time>
      </trkpt>
      <trkpt lat="44.09727" lon="6.55532">
        <ele>1155</ele>
        <time>2022-08-20T14:44:20Z</time>
      </trkpt>
      <trkpt lat="44.09727" lon="6.55532">
        <ele>1155</ele>
        <time>2022-08-20T14:44:23Z</time>
      </trkpt>
      <trkpt lat="44.09727" lon="6.55532">
        <ele>1155</ele>
        <time>2022-08-20T14:44:30Z</time>
      </trkpt>
      <trkpt lat="44.09727" lon="6.55532">
        <ele>1155</ele>
        <time>2022-08-20T14:44:38Z</time>
      </trkpt>
      <trkpt lat="44.09727" lon="6.55531">
        <ele>1155</ele>
        <time>2022-08-20T14:44:40Z</time>
      </trkpt>
      <trkpt lat="44.09728" lon="6.55532">
        <ele>1155</ele>
        <time>2022-08-20T14:44:56Z</time>
      </trkpt>
      <trkpt lat="44.09727" lon="6.55532">
        <ele>1155</ele>
        <time>2022-08-20T14:45:08Z</time>
      </trkpt>
      <trkpt lat="44.09727" lon="6.55533">
        <ele>1155</ele>
        <time>2022-08-20T14:45:14Z</time>
      </trkpt>
      <trkpt lat="44.09727" lon="6.55534">
        <ele>1155</ele>
        <time>2022-08-20T14:45:17Z</time>
      </trkpt>
      <trkpt lat="44.09726" lon="6.55533">
        <ele>1155</ele>
        <time>2022-08-20T14:45:25Z</time>
      </trkpt>
      <trkpt lat="44.09726" lon="6.55533">
        <ele>1155</ele>
        <time>2022-08-20T14:45:29Z</time>
      </trkpt>
      <trkpt lat="44.09726" lon="6.55533">
        <ele>1155</ele>
        <time>2022-08-20T14:45:32Z</time>
      </trkpt>
      <trkpt lat="44.09726" lon="6.55533">
        <ele>1155</ele>
        <time>2022-08-20T14:45:38Z</time>
      </trkpt>
      <trkpt lat="44.09726" lon="6.55533">
        <ele>1155</ele>
        <time>2022-08-20T14:45:39Z</time>
      </trkpt>
      <trkpt lat="44.09727" lon="6.55532">
        <ele>1155</ele>
        <time>2022-08-20T14:45:51Z</time>
      </trkpt>
      <trkpt lat="44.09727" lon="6.55532">
        <ele>1155</ele>
        <time>2022-08-20T14:45:57Z</time>
      </trkpt>
      <trkpt lat="44.09726" lon="6.55532">
        <ele>1155</ele>
        <time>2022-08-20T14:46:00Z</time>
      </trkpt>
      <trkpt lat="44.09724" lon="6.55534">
        <ele>1155</ele>
        <time>2022-08-20T14:46:03Z</time>
      </trkpt>
      <trkpt lat="44.09718" lon="6.5554">
        <ele>1155</ele>
        <time>2022-08-20T14:46:07Z</time>
      </trkpt>
      <trkpt lat="44.09714" lon="6.55542">
        <ele>1155</ele>
        <time>2022-08-20T14:46:09Z</time>
      </trkpt>
      <trkpt lat="44.09713" lon="6.55542">
        <ele>1155</ele>
        <time>2022-08-20T14:46:10Z</time>
      </trkpt>
      <trkpt lat="44.09711" lon="6.55543">
        <ele>1155</ele>
        <time>2022-08-20T14:46:11Z</time>
      </trkpt>
      <trkpt lat="44.09708" lon="6.55542">
        <ele>1154.4000244141</ele>
        <time>2022-08-20T14:46:13Z</time>
      </trkpt>
      <trkpt lat="44.09706" lon="6.5554">
        <ele>1154.1999511719</ele>
        <time>2022-08-20T14:46:14Z</time>
      </trkpt>
      <trkpt lat="44.09702" lon="6.55535">
        <ele>1154</ele>
        <time>2022-08-20T14:46:16Z</time>
      </trkpt>
      <trkpt lat="44.09701" lon="6.55533">
        <ele>1153.8000488281</ele>
        <time>2022-08-20T14:46:17Z</time>
      </trkpt>
      <trkpt lat="44.09697" lon="6.55523">
        <ele>1154</ele>
        <time>2022-08-20T14:46:21Z</time>
      </trkpt>
      <trkpt lat="44.09694" lon="6.55521">
        <ele>1154.1999511719</ele>
        <time>2022-08-20T14:46:22Z</time>
      </trkpt>
      <trkpt lat="44.09686" lon="6.55509">
        <ele>1154.1999511719</ele>
        <time>2022-08-20T14:46:26Z</time>
      </trkpt>
      <trkpt lat="44.09676" lon="6.55489">
        <ele>1154.1999511719</ele>
        <time>2022-08-20T14:46:32Z</time>
      </trkpt>
      <trkpt lat="44.0967" lon="6.55481">
        <ele>1154.5999755859</ele>
        <time>2022-08-20T14:46:35Z</time>
      </trkpt>
      <trkpt lat="44.09667" lon="6.55475">
        <ele>1154.8000488281</ele>
        <time>2022-08-20T14:46:37Z</time>
      </trkpt>
      <trkpt lat="44.09659" lon="6.55467">
        <ele>1155.4000244141</ele>
        <time>2022-08-20T14:46:41Z</time>
      </trkpt>
      <trkpt lat="44.09658" lon="6.55465">
        <ele>1155.5999755859</ele>
        <time>2022-08-20T14:46:42Z</time>
      </trkpt>
      <trkpt lat="44.09656" lon="6.55461">
        <ele>1155.8000488281</ele>
        <time>2022-08-20T14:46:44Z</time>
      </trkpt>
      <trkpt lat="44.09653" lon="6.55454">
        <ele>1156.4000244141</ele>
        <time>2022-08-20T14:46:48Z</time>
      </trkpt>
      <trkpt lat="44.09653" lon="6.5545">
        <ele>1156.8000488281</ele>
        <time>2022-08-20T14:46:50Z</time>
      </trkpt>
      <trkpt lat="44.09652" lon="6.55446">
        <ele>1157.1999511719</ele>
        <time>2022-08-20T14:46:52Z</time>
      </trkpt>
      <trkpt lat="44.09651" lon="6.55442">
        <ele>1157.5999755859</ele>
        <time>2022-08-20T14:46:54Z</time>
      </trkpt>
      <trkpt lat="44.09648" lon="6.55434">
        <ele>1158.5999755859</ele>
        <time>2022-08-20T14:46:59Z</time>
      </trkpt>
      <trkpt lat="44.09645" lon="6.55424">
        <ele>1159.4000244141</ele>
        <time>2022-08-20T14:47:04Z</time>
      </trkpt>
      <trkpt lat="44.09643" lon="6.55421">
        <ele>1159.5999755859</ele>
        <time>2022-08-20T14:47:06Z</time>
      </trkpt>
      <trkpt lat="44.09641" lon="6.55416">
        <ele>1159.8000488281</ele>
        <time>2022-08-20T14:47:09Z</time>
      </trkpt>
      <trkpt lat="44.09641" lon="6.55413">
        <ele>1159.8000488281</ele>
        <time>2022-08-20T14:47:10Z</time>
      </trkpt>
      <trkpt lat="44.09638" lon="6.55405">
        <ele>1160.5999755859</ele>
        <time>2022-08-20T14:47:15Z</time>
      </trkpt>
      <trkpt lat="44.09636" lon="6.55403">
        <ele>1160.8000488281</ele>
        <time>2022-08-20T14:47:16Z</time>
      </trkpt>
      <trkpt lat="44.09635" lon="6.55402">
        <ele>1161</ele>
        <time>2022-08-20T14:47:17Z</time>
      </trkpt>
      <trkpt lat="44.09632" lon="6.55399">
        <ele>1161.4000244141</ele>
        <time>2022-08-20T14:47:20Z</time>
      </trkpt>
      <trkpt lat="44.09628" lon="6.55394">
        <ele>1161.8000488281</ele>
        <time>2022-08-20T14:47:24Z</time>
      </trkpt>
      <trkpt lat="44.09627" lon="6.55393">
        <ele>1162.1999511719</ele>
        <time>2022-08-20T14:47:25Z</time>
      </trkpt>
      <trkpt lat="44.09625" lon="6.55391">
        <ele>1162.8000488281</ele>
        <time>2022-08-20T14:47:27Z</time>
      </trkpt>
      <trkpt lat="44.09623" lon="6.55391">
        <ele>1163</ele>
        <time>2022-08-20T14:47:28Z</time>
      </trkpt>
      <trkpt lat="44.09621" lon="6.55392">
        <ele>1163.1999511719</ele>
        <time>2022-08-20T14:47:30Z</time>
      </trkpt>
      <trkpt lat="44.09619" lon="6.55394">
        <ele>1163.5999755859</ele>
        <time>2022-08-20T14:47:32Z</time>
      </trkpt>
      <trkpt lat="44.09617" lon="6.55392">
        <ele>1164</ele>
        <time>2022-08-20T14:47:34Z</time>
      </trkpt>
      <trkpt lat="44.09616" lon="6.5539">
        <ele>1164</ele>
        <time>2022-08-20T14:47:35Z</time>
      </trkpt>
      <trkpt lat="44.09609" lon="6.55383">
        <ele>1165.4000244141</ele>
        <time>2022-08-20T14:47:41Z</time>
      </trkpt>
      <trkpt lat="44.09608" lon="6.55382">
        <ele>1165.5999755859</ele>
        <time>2022-08-20T14:47:42Z</time>
      </trkpt>
      <trkpt lat="44.09607" lon="6.5538">
        <ele>1165.8000488281</ele>
        <time>2022-08-20T14:47:43Z</time>
      </trkpt>
      <trkpt lat="44.09606" lon="6.55377">
        <ele>1166.1999511719</ele>
        <time>2022-08-20T14:47:45Z</time>
      </trkpt>
      <trkpt lat="44.09605" lon="6.55375">
        <ele>1166.4000244141</ele>
        <time>2022-08-20T14:47:46Z</time>
      </trkpt>
      <trkpt lat="44.09604" lon="6.55373">
        <ele>1166.5999755859</ele>
        <time>2022-08-20T14:47:47Z</time>
      </trkpt>
      <trkpt lat="44.09603" lon="6.55368">
        <ele>1167.1999511719</ele>
        <time>2022-08-20T14:47:50Z</time>
      </trkpt>
      <trkpt lat="44.09602" lon="6.55366">
        <ele>1167.5999755859</ele>
        <time>2022-08-20T14:47:51Z</time>
      </trkpt>
      <trkpt lat="44.096" lon="6.55365">
        <ele>1167.5999755859</ele>
        <time>2022-08-20T14:47:52Z</time>
      </trkpt>
      <trkpt lat="44.09598" lon="6.55363">
        <ele>1168</ele>
        <time>2022-08-20T14:47:54Z</time>
      </trkpt>
      <trkpt lat="44.09594" lon="6.5536">
        <ele>1168.5999755859</ele>
        <time>2022-08-20T14:47:57Z</time>
      </trkpt>
      <trkpt lat="44.09591" lon="6.55355">
        <ele>1169.1999511719</ele>
        <time>2022-08-20T14:48:00Z</time>
      </trkpt>
      <trkpt lat="44.09591" lon="6.55351">
        <ele>1169.4000244141</ele>
        <time>2022-08-20T14:48:02Z</time>
      </trkpt>
      <trkpt lat="44.09592" lon="6.55349">
        <ele>1169.5999755859</ele>
        <time>2022-08-20T14:48:03Z</time>
      </trkpt>
      <trkpt lat="44.09591" lon="6.55343">
        <ele>1170</ele>
        <time>2022-08-20T14:48:06Z</time>
      </trkpt>
      <trkpt lat="44.09588" lon="6.55342">
        <ele>1170.4000244141</ele>
        <time>2022-08-20T14:48:08Z</time>
      </trkpt>
      <trkpt lat="44.09585" lon="6.55342">
        <ele>1170.5999755859</ele>
        <time>2022-08-20T14:48:10Z</time>
      </trkpt>
      <trkpt lat="44.09583" lon="6.5534">
        <ele>1170.8000488281</ele>
        <time>2022-08-20T14:48:12Z</time>
      </trkpt>
      <trkpt lat="44.09581" lon="6.55337">
        <ele>1171</ele>
        <time>2022-08-20T14:48:14Z</time>
      </trkpt>
      <trkpt lat="44.09576" lon="6.5533">
        <ele>1171.8000488281</ele>
        <time>2022-08-20T14:48:19Z</time>
      </trkpt>
      <trkpt lat="44.0957" lon="6.55323">
        <ele>1172.5999755859</ele>
        <time>2022-08-20T14:48:24Z</time>
      </trkpt>
      <trkpt lat="44.09568" lon="6.5532">
        <ele>1172.8000488281</ele>
        <time>2022-08-20T14:48:26Z</time>
      </trkpt>
      <trkpt lat="44.09564" lon="6.55316">
        <ele>1173.4000244141</ele>
        <time>2022-08-20T14:48:30Z</time>
      </trkpt>
      <trkpt lat="44.0956" lon="6.55315">
        <ele>1173.4000244141</ele>
        <time>2022-08-20T14:48:32Z</time>
      </trkpt>
      <trkpt lat="44.09557" lon="6.55311">
        <ele>1173.1999511719</ele>
        <time>2022-08-20T14:48:36Z</time>
      </trkpt>
      <trkpt lat="44.09557" lon="6.55311">
        <ele>1173.1999511719</ele>
        <time>2022-08-20T14:48:37Z</time>
      </trkpt>
      <trkpt lat="44.09557" lon="6.55312">
        <ele>1173.1999511719</ele>
        <time>2022-08-20T14:48:38Z</time>
      </trkpt>
      <trkpt lat="44.09557" lon="6.55312">
        <ele>1173.1999511719</ele>
        <time>2022-08-20T14:48:42Z</time>
      </trkpt>
      <trkpt lat="44.09557" lon="6.55312">
        <ele>1173</ele>
        <time>2022-08-20T14:48:47Z</time>
      </trkpt>
      <trkpt lat="44.09557" lon="6.55311">
        <ele>1172.4000244141</ele>
        <time>2022-08-20T14:48:51Z</time>
      </trkpt>
      <trkpt lat="44.09557" lon="6.55311">
        <ele>1173</ele>
        <time>2022-08-20T14:48:59Z</time>
      </trkpt>
      <trkpt lat="44.09557" lon="6.55311">
        <ele>1172.8000488281</ele>
        <time>2022-08-20T14:49:03Z</time>
      </trkpt>
      <trkpt lat="44.09557" lon="6.55311">
        <ele>1172.5999755859</ele>
        <time>2022-08-20T14:49:09Z</time>
      </trkpt>
      <trkpt lat="44.09557" lon="6.55311">
        <ele>1172.5999755859</ele>
        <time>2022-08-20T14:49:11Z</time>
      </trkpt>
      <trkpt lat="44.09557" lon="6.55311">
        <ele>1172.5999755859</ele>
        <time>2022-08-20T14:49:12Z</time>
      </trkpt>
      <trkpt lat="44.09557" lon="6.55311">
        <ele>1172.5999755859</ele>
        <time>2022-08-20T14:49:14Z</time>
      </trkpt>
      <trkpt lat="44.09557" lon="6.55311">
        <ele>1172.4000244141</ele>
        <time>2022-08-20T14:49:17Z</time>
      </trkpt>
      <trkpt lat="44.09557" lon="6.55311">
        <ele>1172.4000244141</ele>
        <time>2022-08-20T14:49:20Z</time>
      </trkpt>
      <trkpt lat="44.09557" lon="6.55311">
        <ele>1172.1999511719</ele>
        <time>2022-08-20T14:49:22Z</time>
      </trkpt>
      <trkpt lat="44.09557" lon="6.55311">
        <ele>1172</ele>
        <time>2022-08-20T14:49:39Z</time>
      </trkpt>
      <trkpt lat="44.09557" lon="6.55311">
        <ele>1171.8000488281</ele>
        <time>2022-08-20T14:49:41Z</time>
      </trkpt>
      <trkpt lat="44.09557" lon="6.55311">
        <ele>1172</ele>
        <time>2022-08-20T14:49:57Z</time>
      </trkpt>
      <trkpt lat="44.09557" lon="6.55311">
        <ele>1171.8000488281</ele>
        <time>2022-08-20T14:50:00Z</time>
      </trkpt>
      <trkpt lat="44.09557" lon="6.55312">
        <ele>1171.4000244141</ele>
        <time>2022-08-20T14:50:10Z</time>
      </trkpt>
      <trkpt lat="44.09557" lon="6.55312">
        <ele>1171.1999511719</ele>
        <time>2022-08-20T14:50:16Z</time>
      </trkpt>
      <trkpt lat="44.09556" lon="6.55312">
        <ele>1171.1999511719</ele>
        <time>2022-08-20T14:50:27Z</time>
      </trkpt>
      <trkpt lat="44.09551" lon="6.55314">
        <ele>1171.4000244141</ele>
        <time>2022-08-20T14:50:36Z</time>
      </trkpt>
      <trkpt lat="44.09549" lon="6.55315">
        <ele>1171.4000244141</ele>
        <time>2022-08-20T14:50:38Z</time>
      </trkpt>
      <trkpt lat="44.09547" lon="6.55316">
        <ele>1171.1999511719</ele>
        <time>2022-08-20T14:50:43Z</time>
      </trkpt>
      <trkpt lat="44.09547" lon="6.55317">
        <ele>1171.4000244141</ele>
        <time>2022-08-20T14:50:46Z</time>
      </trkpt>
      <trkpt lat="44.09547" lon="6.55317">
        <ele>1171.4000244141</ele>
        <time>2022-08-20T14:50:50Z</time>
      </trkpt>
      <trkpt lat="44.09547" lon="6.55316">
        <ele>1171.4000244141</ele>
        <time>2022-08-20T14:50:53Z</time>
      </trkpt>
      <trkpt lat="44.09551" lon="6.55313">
        <ele>1171.4000244141</ele>
        <time>2022-08-20T14:51:02Z</time>
      </trkpt>
      <trkpt lat="44.09551" lon="6.55312">
        <ele>1171.4000244141</ele>
        <time>2022-08-20T14:51:05Z</time>
      </trkpt>
      <trkpt lat="44.09551" lon="6.55312">
        <ele>1171.4000244141</ele>
        <time>2022-08-20T14:51:07Z</time>
      </trkpt>
      <trkpt lat="44.09551" lon="6.55311">
        <ele>1171.4000244141</ele>
        <time>2022-08-20T14:51:10Z</time>
      </trkpt>
      <trkpt lat="44.09551" lon="6.5531">
        <ele>1171.4000244141</ele>
        <time>2022-08-20T14:51:12Z</time>
      </trkpt>
      <trkpt lat="44.09549" lon="6.55297">
        <ele>1171.4000244141</ele>
        <time>2022-08-20T14:51:20Z</time>
      </trkpt>
      <trkpt lat="44.09548" lon="6.55295">
        <ele>1171.4000244141</ele>
        <time>2022-08-20T14:51:21Z</time>
      </trkpt>
      <trkpt lat="44.09547" lon="6.55294">
        <ele>1171.4000244141</ele>
        <time>2022-08-20T14:51:22Z</time>
      </trkpt>
      <trkpt lat="44.09547" lon="6.55292">
        <ele>1171.4000244141</ele>
        <time>2022-08-20T14:51:23Z</time>
      </trkpt>
      <trkpt lat="44.09545" lon="6.55287">
        <ele>1171.4000244141</ele>
        <time>2022-08-20T14:51:26Z</time>
      </trkpt>
      <trkpt lat="44.09542" lon="6.55282">
        <ele>1171.1999511719</ele>
        <time>2022-08-20T14:51:29Z</time>
      </trkpt>
      <trkpt lat="44.0954" lon="6.55276">
        <ele>1170.8000488281</ele>
        <time>2022-08-20T14:51:33Z</time>
      </trkpt>
      <trkpt lat="44.09539" lon="6.5527">
        <ele>1170.5999755859</ele>
        <time>2022-08-20T14:51:38Z</time>
      </trkpt>
      <trkpt lat="44.09539" lon="6.5527">
        <ele>1170.4000244141</ele>
        <time>2022-08-20T14:51:42Z</time>
      </trkpt>
      <trkpt lat="44.09538" lon="6.5527">
        <ele>1170.1999511719</ele>
        <time>2022-08-20T14:51:47Z</time>
      </trkpt>
      <trkpt lat="44.09538" lon="6.5527">
        <ele>1170.1999511719</ele>
        <time>2022-08-20T14:51:48Z</time>
      </trkpt>
      <trkpt lat="44.09538" lon="6.5527">
        <ele>1169.8000488281</ele>
        <time>2022-08-20T14:51:50Z</time>
      </trkpt>
      <trkpt lat="44.09531" lon="6.55268">
        <ele>1169.5999755859</ele>
        <time>2022-08-20T14:51:58Z</time>
      </trkpt>
      <trkpt lat="44.09524" lon="6.55264">
        <ele>1170.4000244141</ele>
        <time>2022-08-20T14:52:09Z</time>
      </trkpt>
      <trkpt lat="44.09524" lon="6.55264">
        <ele>1170.4000244141</ele>
        <time>2022-08-20T14:52:11Z</time>
      </trkpt>
      <trkpt lat="44.09523" lon="6.55265">
        <ele>1170.8000488281</ele>
        <time>2022-08-20T14:52:17Z</time>
      </trkpt>
      <trkpt lat="44.09523" lon="6.55265">
        <ele>1170.8000488281</ele>
        <time>2022-08-20T14:52:19Z</time>
      </trkpt>
      <trkpt lat="44.09524" lon="6.55265">
        <ele>1171</ele>
        <time>2022-08-20T14:52:20Z</time>
      </trkpt>
      <trkpt lat="44.09524" lon="6.55265">
        <ele>1171</ele>
        <time>2022-08-20T14:52:22Z</time>
      </trkpt>
      <trkpt lat="44.09524" lon="6.55265">
        <ele>1170.8000488281</ele>
        <time>2022-08-20T14:52:24Z</time>
      </trkpt>
      <trkpt lat="44.0953" lon="6.55261">
        <ele>1169.8000488281</ele>
        <time>2022-08-20T14:52:33Z</time>
      </trkpt>
      <trkpt lat="44.09532" lon="6.55262">
        <ele>1169.5999755859</ele>
        <time>2022-08-20T14:52:35Z</time>
      </trkpt>
      <trkpt lat="44.09534" lon="6.55263">
        <ele>1169.4000244141</ele>
        <time>2022-08-20T14:52:37Z</time>
      </trkpt>
      <trkpt lat="44.09536" lon="6.55269">
        <ele>1169.1999511719</ele>
        <time>2022-08-20T14:52:41Z</time>
      </trkpt>
      <trkpt lat="44.09537" lon="6.5527">
        <ele>1169</ele>
        <time>2022-08-20T14:52:45Z</time>
      </trkpt>
      <trkpt lat="44.09538" lon="6.55271">
        <ele>1168.8000488281</ele>
        <time>2022-08-20T14:52:47Z</time>
      </trkpt>
      <trkpt lat="44.0954" lon="6.55272">
        <ele>1168.8000488281</ele>
        <time>2022-08-20T14:52:56Z</time>
      </trkpt>
      <trkpt lat="44.09541" lon="6.55273">
        <ele>1168.8000488281</ele>
        <time>2022-08-20T14:53:02Z</time>
      </trkpt>
      <trkpt lat="44.0954" lon="6.55272">
        <ele>1168.8000488281</ele>
        <time>2022-08-20T14:53:07Z</time>
      </trkpt>
      <trkpt lat="44.0954" lon="6.55271">
        <ele>1168.8000488281</ele>
        <time>2022-08-20T14:53:08Z</time>
      </trkpt>
      <trkpt lat="44.09539" lon="6.55271">
        <ele>1168.8000488281</ele>
        <time>2022-08-20T14:53:12Z</time>
      </trkpt>
      <trkpt lat="44.09539" lon="6.55271">
        <ele>1168.8000488281</ele>
        <time>2022-08-20T14:53:19Z</time>
      </trkpt>
      <trkpt lat="44.0954" lon="6.55271">
        <ele>1168.8000488281</ele>
        <time>2022-08-20T14:53:27Z</time>
      </trkpt>
      <trkpt lat="44.09539" lon="6.55271">
        <ele>1168.8000488281</ele>
        <time>2022-08-20T14:53:33Z</time>
      </trkpt>
      <trkpt lat="44.0954" lon="6.55268">
        <ele>1168.8000488281</ele>
        <time>2022-08-20T14:53:47Z</time>
      </trkpt>
      <trkpt lat="44.0954" lon="6.55268">
        <ele>1168.8000488281</ele>
        <time>2022-08-20T14:53:53Z</time>
      </trkpt>
      <trkpt lat="44.09538" lon="6.55268">
        <ele>1168.8000488281</ele>
        <time>2022-08-20T14:53:59Z</time>
      </trkpt>
      <trkpt lat="44.09538" lon="6.55268">
        <ele>1168.8000488281</ele>
        <time>2022-08-20T14:54:00Z</time>
      </trkpt>
      <trkpt lat="44.09537" lon="6.55269">
        <ele>1168.8000488281</ele>
        <time>2022-08-20T14:54:11Z</time>
      </trkpt>
      <trkpt lat="44.09537" lon="6.55269">
        <ele>1168.8000488281</ele>
        <time>2022-08-20T14:54:19Z</time>
      </trkpt>
      <trkpt lat="44.09537" lon="6.5527">
        <ele>1168.8000488281</ele>
        <time>2022-08-20T14:54:24Z</time>
      </trkpt>
      <trkpt lat="44.09538" lon="6.55271">
        <ele>1168.8000488281</ele>
        <time>2022-08-20T14:54:28Z</time>
      </trkpt>
      <trkpt lat="44.09538" lon="6.55271">
        <ele>1168.8000488281</ele>
        <time>2022-08-20T14:54:38Z</time>
      </trkpt>
      <trkpt lat="44.09538" lon="6.55271">
        <ele>1168.8000488281</ele>
        <time>2022-08-20T14:54:39Z</time>
      </trkpt>
      <trkpt lat="44.09538" lon="6.5527">
        <ele>1168.8000488281</ele>
        <time>2022-08-20T14:54:45Z</time>
      </trkpt>
      <trkpt lat="44.09538" lon="6.5527">
        <ele>1168.8000488281</ele>
        <time>2022-08-20T14:54:53Z</time>
      </trkpt>
      <trkpt lat="44.09538" lon="6.55269">
        <ele>1168.8000488281</ele>
        <time>2022-08-20T14:54:57Z</time>
      </trkpt>
      <trkpt lat="44.09539" lon="6.55269">
        <ele>1168.8000488281</ele>
        <time>2022-08-20T14:55:04Z</time>
      </trkpt>
      <trkpt lat="44.09539" lon="6.55269">
        <ele>1168.8000488281</ele>
        <time>2022-08-20T14:55:17Z</time>
      </trkpt>
      <trkpt lat="44.09538" lon="6.5527">
        <ele>1168.8000488281</ele>
        <time>2022-08-20T14:55:27Z</time>
      </trkpt>
      <trkpt lat="44.09537" lon="6.5527">
        <ele>1168.8000488281</ele>
        <time>2022-08-20T14:55:39Z</time>
      </trkpt>
      <trkpt lat="44.09537" lon="6.55269">
        <ele>1168.8000488281</ele>
        <time>2022-08-20T14:55:46Z</time>
      </trkpt>
      <trkpt lat="44.09537" lon="6.55269">
        <ele>1168.8000488281</ele>
        <time>2022-08-20T14:55:50Z</time>
      </trkpt>
      <trkpt lat="44.09538" lon="6.55269">
        <ele>1168.8000488281</ele>
        <time>2022-08-20T14:55:53Z</time>
      </trkpt>
      <trkpt lat="44.09538" lon="6.55269">
        <ele>1168.8000488281</ele>
        <time>2022-08-20T14:55:57Z</time>
      </trkpt>
      <trkpt lat="44.09537" lon="6.55267">
        <ele>1168.8000488281</ele>
        <time>2022-08-20T14:56:02Z</time>
      </trkpt>
      <trkpt lat="44.09537" lon="6.55268">
        <ele>1168.8000488281</ele>
        <time>2022-08-20T14:56:09Z</time>
      </trkpt>
      <trkpt lat="44.09537" lon="6.55268">
        <ele>1168.8000488281</ele>
        <time>2022-08-20T14:56:19Z</time>
      </trkpt>
      <trkpt lat="44.09537" lon="6.55269">
        <ele>1168.8000488281</ele>
        <time>2022-08-20T14:56:32Z</time>
      </trkpt>
      <trkpt lat="44.09537" lon="6.5527">
        <ele>1168.8000488281</ele>
        <time>2022-08-20T14:56:38Z</time>
      </trkpt>
      <trkpt lat="44.09537" lon="6.5527">
        <ele>1168.8000488281</ele>
        <time>2022-08-20T14:56:40Z</time>
      </trkpt>
      <trkpt lat="44.0954" lon="6.55271">
        <ele>1168.8000488281</ele>
        <time>2022-08-20T14:56:52Z</time>
      </trkpt>
      <trkpt lat="44.09543" lon="6.55275">
        <ele>1168.8000488281</ele>
        <time>2022-08-20T14:57:00Z</time>
      </trkpt>
      <trkpt lat="44.09545" lon="6.55285">
        <ele>1168.8000488281</ele>
        <time>2022-08-20T14:57:04Z</time>
      </trkpt>
      <trkpt lat="44.09547" lon="6.55291">
        <ele>1168.8000488281</ele>
        <time>2022-08-20T14:57:08Z</time>
      </trkpt>
      <trkpt lat="44.09551" lon="6.55297">
        <ele>1169.4000244141</ele>
        <time>2022-08-20T14:57:12Z</time>
      </trkpt>
      <trkpt lat="44.09552" lon="6.55302">
        <ele>1169.5999755859</ele>
        <time>2022-08-20T14:57:14Z</time>
      </trkpt>
      <trkpt lat="44.09553" lon="6.55305">
        <ele>1169.8000488281</ele>
        <time>2022-08-20T14:57:15Z</time>
      </trkpt>
      <trkpt lat="44.09551" lon="6.55309">
        <ele>1170.4000244141</ele>
        <time>2022-08-20T14:57:17Z</time>
      </trkpt>
      <trkpt lat="44.09549" lon="6.55309">
        <ele>1170.4000244141</ele>
        <time>2022-08-20T14:57:18Z</time>
      </trkpt>
      <trkpt lat="44.09548" lon="6.55308">
        <ele>1170.5999755859</ele>
        <time>2022-08-20T14:57:19Z</time>
      </trkpt>
      <trkpt lat="44.09545" lon="6.55306">
        <ele>1170.8000488281</ele>
        <time>2022-08-20T14:57:21Z</time>
      </trkpt>
      <trkpt lat="44.09536" lon="6.55302">
        <ele>1171.4000244141</ele>
        <time>2022-08-20T14:57:26Z</time>
      </trkpt>
      <trkpt lat="44.09531" lon="6.55301">
        <ele>1171.8000488281</ele>
        <time>2022-08-20T14:57:29Z</time>
      </trkpt>
      <trkpt lat="44.09526" lon="6.553">
        <ele>1172.1999511719</ele>
        <time>2022-08-20T14:57:32Z</time>
      </trkpt>
      <trkpt lat="44.09523" lon="6.55299">
        <ele>1172.4000244141</ele>
        <time>2022-08-20T14:57:34Z</time>
      </trkpt>
      <trkpt lat="44.09517" lon="6.55299">
        <ele>1173</ele>
        <time>2022-08-20T14:57:38Z</time>
      </trkpt>
      <trkpt lat="44.09512" lon="6.553">
        <ele>1173</ele>
        <time>2022-08-20T14:57:41Z</time>
      </trkpt>
      <trkpt lat="44.09499" lon="6.55309">
        <ele>1173.4000244141</ele>
        <time>2022-08-20T14:57:49Z</time>
      </trkpt>
      <trkpt lat="44.0949" lon="6.55316">
        <ele>1173.5999755859</ele>
        <time>2022-08-20T14:57:53Z</time>
      </trkpt>
      <trkpt lat="44.09483" lon="6.5532">
        <ele>1173.4000244141</ele>
        <time>2022-08-20T14:57:56Z</time>
      </trkpt>
      <trkpt lat="44.09464" lon="6.55328">
        <ele>1172.8000488281</ele>
        <time>2022-08-20T14:58:03Z</time>
      </trkpt>
      <trkpt lat="44.09453" lon="6.55334">
        <ele>1172</ele>
        <time>2022-08-20T14:58:06Z</time>
      </trkpt>
      <trkpt lat="44.09446" lon="6.55338">
        <ele>1171.1999511719</ele>
        <time>2022-08-20T14:58:08Z</time>
      </trkpt>
      <trkpt lat="44.09443" lon="6.5534">
        <ele>1171</ele>
        <time>2022-08-20T14:58:09Z</time>
      </trkpt>
      <trkpt lat="44.0944" lon="6.55341">
        <ele>1170.8000488281</ele>
        <time>2022-08-20T14:58:10Z</time>
      </trkpt>
      <trkpt lat="44.09436" lon="6.55343">
        <ele>1170.5999755859</ele>
        <time>2022-08-20T14:58:11Z</time>
      </trkpt>
      <trkpt lat="44.09428" lon="6.55347">
        <ele>1170.1999511719</ele>
        <time>2022-08-20T14:58:14Z</time>
      </trkpt>
      <trkpt lat="44.09422" lon="6.55348">
        <ele>1169.5999755859</ele>
        <time>2022-08-20T14:58:16Z</time>
      </trkpt>
      <trkpt lat="44.09415" lon="6.5535">
        <ele>1169</ele>
        <time>2022-08-20T14:58:18Z</time>
      </trkpt>
      <trkpt lat="44.09408" lon="6.55349">
        <ele>1168.8000488281</ele>
        <time>2022-08-20T14:58:20Z</time>
      </trkpt>
      <trkpt lat="44.09401" lon="6.55348">
        <ele>1168.1999511719</ele>
        <time>2022-08-20T14:58:22Z</time>
      </trkpt>
      <trkpt lat="44.09394" lon="6.55346">
        <ele>1167.5999755859</ele>
        <time>2022-08-20T14:58:24Z</time>
      </trkpt>
      <trkpt lat="44.09387" lon="6.55342">
        <ele>1166.8000488281</ele>
        <time>2022-08-20T14:58:26Z</time>
      </trkpt>
      <trkpt lat="44.09379" lon="6.55334">
        <ele>1165.5999755859</ele>
        <time>2022-08-20T14:58:29Z</time>
      </trkpt>
      <trkpt lat="44.09373" lon="6.55328">
        <ele>1165.1999511719</ele>
        <time>2022-08-20T14:58:31Z</time>
      </trkpt>
      <trkpt lat="44.09367" lon="6.55321">
        <ele>1164.4000244141</ele>
        <time>2022-08-20T14:58:33Z</time>
      </trkpt>
      <trkpt lat="44.09356" lon="6.55299">
        <ele>1163.4000244141</ele>
        <time>2022-08-20T14:58:38Z</time>
      </trkpt>
      <trkpt lat="44.09347" lon="6.55278">
        <ele>1162.1999511719</ele>
        <time>2022-08-20T14:58:42Z</time>
      </trkpt>
      <trkpt lat="44.09336" lon="6.55251">
        <ele>1161</ele>
        <time>2022-08-20T14:58:47Z</time>
      </trkpt>
      <trkpt lat="44.09326" lon="6.55236">
        <ele>1160</ele>
        <time>2022-08-20T14:58:51Z</time>
      </trkpt>
      <trkpt lat="44.09323" lon="6.55234">
        <ele>1159.8000488281</ele>
        <time>2022-08-20T14:58:52Z</time>
      </trkpt>
      <trkpt lat="44.09313" lon="6.55229">
        <ele>1158.5999755859</ele>
        <time>2022-08-20T14:58:56Z</time>
      </trkpt>
      <trkpt lat="44.0931" lon="6.55228">
        <ele>1158.1999511719</ele>
        <time>2022-08-20T14:58:57Z</time>
      </trkpt>
      <trkpt lat="44.09303" lon="6.55224">
        <ele>1157.4000244141</ele>
        <time>2022-08-20T14:59:00Z</time>
      </trkpt>
      <trkpt lat="44.09295" lon="6.55221">
        <ele>1156</ele>
        <time>2022-08-20T14:59:03Z</time>
      </trkpt>
      <trkpt lat="44.09285" lon="6.55219">
        <ele>1154.8000488281</ele>
        <time>2022-08-20T14:59:06Z</time>
      </trkpt>
      <trkpt lat="44.09275" lon="6.55218">
        <ele>1153.5999755859</ele>
        <time>2022-08-20T14:59:09Z</time>
      </trkpt>
      <trkpt lat="44.09264" lon="6.55215">
        <ele>1152.1999511719</ele>
        <time>2022-08-20T14:59:12Z</time>
      </trkpt>
      <trkpt lat="44.09261" lon="6.55213">
        <ele>1151.5999755859</ele>
        <time>2022-08-20T14:59:13Z</time>
      </trkpt>
      <trkpt lat="44.09257" lon="6.55211">
        <ele>1151</ele>
        <time>2022-08-20T14:59:14Z</time>
      </trkpt>
      <trkpt lat="44.09249" lon="6.55207">
        <ele>1149.8000488281</ele>
        <time>2022-08-20T14:59:16Z</time>
      </trkpt>
      <trkpt lat="44.09238" lon="6.55202">
        <ele>1148.4000244141</ele>
        <time>2022-08-20T14:59:19Z</time>
      </trkpt>
      <trkpt lat="44.09232" lon="6.55199">
        <ele>1147.8000488281</ele>
        <time>2022-08-20T14:59:21Z</time>
      </trkpt>
      <trkpt lat="44.09227" lon="6.55197">
        <ele>1147.4000244141</ele>
        <time>2022-08-20T14:59:23Z</time>
      </trkpt>
      <trkpt lat="44.09217" lon="6.55193">
        <ele>1146.1999511719</ele>
        <time>2022-08-20T14:59:26Z</time>
      </trkpt>
      <trkpt lat="44.09211" lon="6.55192">
        <ele>1145.1999511719</ele>
        <time>2022-08-20T14:59:28Z</time>
      </trkpt>
      <trkpt lat="44.09204" lon="6.55192">
        <ele>1144.1999511719</ele>
        <time>2022-08-20T14:59:30Z</time>
      </trkpt>
      <trkpt lat="44.09193" lon="6.55188">
        <ele>1143</ele>
        <time>2022-08-20T14:59:33Z</time>
      </trkpt>
      <trkpt lat="44.09185" lon="6.55182">
        <ele>1141.8000488281</ele>
        <time>2022-08-20T14:59:35Z</time>
      </trkpt>
      <trkpt lat="44.09179" lon="6.55174">
        <ele>1141.1999511719</ele>
        <time>2022-08-20T14:59:37Z</time>
      </trkpt>
      <trkpt lat="44.09176" lon="6.55169">
        <ele>1140.8000488281</ele>
        <time>2022-08-20T14:59:38Z</time>
      </trkpt>
      <trkpt lat="44.09171" lon="6.55158">
        <ele>1140.1999511719</ele>
        <time>2022-08-20T14:59:40Z</time>
      </trkpt>
      <trkpt lat="44.09169" lon="6.55152">
        <ele>1139.8000488281</ele>
        <time>2022-08-20T14:59:41Z</time>
      </trkpt>
      <trkpt lat="44.09158" lon="6.55128">
        <ele>1138.4000244141</ele>
        <time>2022-08-20T14:59:45Z</time>
      </trkpt>
      <trkpt lat="44.09155" lon="6.55121">
        <ele>1138</ele>
        <time>2022-08-20T14:59:46Z</time>
      </trkpt>
      <trkpt lat="44.09153" lon="6.55115">
        <ele>1137.5999755859</ele>
        <time>2022-08-20T14:59:47Z</time>
      </trkpt>
      <trkpt lat="44.0915" lon="6.55109">
        <ele>1137.4000244141</ele>
        <time>2022-08-20T14:59:48Z</time>
      </trkpt>
      <trkpt lat="44.09141" lon="6.55085">
        <ele>1136.1999511719</ele>
        <time>2022-08-20T14:59:52Z</time>
      </trkpt>
      <trkpt lat="44.09134" lon="6.55075">
        <ele>1135.8000488281</ele>
        <time>2022-08-20T14:59:54Z</time>
      </trkpt>
      <trkpt lat="44.09128" lon="6.55066">
        <ele>1135.4000244141</ele>
        <time>2022-08-20T14:59:56Z</time>
      </trkpt>
      <trkpt lat="44.09124" lon="6.55056">
        <ele>1135.4000244141</ele>
        <time>2022-08-20T14:59:58Z</time>
      </trkpt>
      <trkpt lat="44.09123" lon="6.55052">
        <ele>1135.4000244141</ele>
        <time>2022-08-20T14:59:59Z</time>
      </trkpt>
      <trkpt lat="44.09116" lon="6.55028">
        <ele>1135.4000244141</ele>
        <time>2022-08-20T15:00:05Z</time>
      </trkpt>
      <trkpt lat="44.09107" lon="6.55003">
        <ele>1136</ele>
        <time>2022-08-20T15:00:12Z</time>
      </trkpt>
      <trkpt lat="44.09106" lon="6.55001">
        <ele>1136</ele>
        <time>2022-08-20T15:00:13Z</time>
      </trkpt>
      <trkpt lat="44.09104" lon="6.54995">
        <ele>1136.1999511719</ele>
        <time>2022-08-20T15:00:15Z</time>
      </trkpt>
      <trkpt lat="44.09102" lon="6.54988">
        <ele>1136.4000244141</ele>
        <time>2022-08-20T15:00:17Z</time>
      </trkpt>
      <trkpt lat="44.091" lon="6.54979">
        <ele>1136.4000244141</ele>
        <time>2022-08-20T15:00:20Z</time>
      </trkpt>
      <trkpt lat="44.09095" lon="6.54955">
        <ele>1137</ele>
        <time>2022-08-20T15:00:27Z</time>
      </trkpt>
      <trkpt lat="44.09094" lon="6.54951">
        <ele>1137</ele>
        <time>2022-08-20T15:00:28Z</time>
      </trkpt>
      <trkpt lat="44.09093" lon="6.54944">
        <ele>1137</ele>
        <time>2022-08-20T15:00:30Z</time>
      </trkpt>
      <trkpt lat="44.09091" lon="6.54929">
        <ele>1137.1999511719</ele>
        <time>2022-08-20T15:00:34Z</time>
      </trkpt>
      <trkpt lat="44.0909" lon="6.54921">
        <ele>1137.4000244141</ele>
        <time>2022-08-20T15:00:36Z</time>
      </trkpt>
      <trkpt lat="44.09082" lon="6.54886">
        <ele>1138.1999511719</ele>
        <time>2022-08-20T15:00:45Z</time>
      </trkpt>
      <trkpt lat="44.09076" lon="6.54859">
        <ele>1138.5999755859</ele>
        <time>2022-08-20T15:00:52Z</time>
      </trkpt>
      <trkpt lat="44.09068" lon="6.54829">
        <ele>1138.8000488281</ele>
        <time>2022-08-20T15:01:00Z</time>
      </trkpt>
      <trkpt lat="44.0906" lon="6.54809">
        <ele>1139.1999511719</ele>
        <time>2022-08-20T15:01:07Z</time>
      </trkpt>
      <trkpt lat="44.09041" lon="6.54785">
        <ele>1138.8000488281</ele>
        <time>2022-08-20T15:01:15Z</time>
      </trkpt>
      <trkpt lat="44.0903" lon="6.54772">
        <ele>1138.4000244141</ele>
        <time>2022-08-20T15:01:19Z</time>
      </trkpt>
      <trkpt lat="44.09023" lon="6.54767">
        <ele>1138.1999511719</ele>
        <time>2022-08-20T15:01:21Z</time>
      </trkpt>
      <trkpt lat="44.0902" lon="6.54765">
        <ele>1138</ele>
        <time>2022-08-20T15:01:22Z</time>
      </trkpt>
      <trkpt lat="44.09013" lon="6.54762">
        <ele>1137.8000488281</ele>
        <time>2022-08-20T15:01:24Z</time>
      </trkpt>
      <trkpt lat="44.09007" lon="6.54759">
        <ele>1137.4000244141</ele>
        <time>2022-08-20T15:01:26Z</time>
      </trkpt>
      <trkpt lat="44.09001" lon="6.54754">
        <ele>1137.1999511719</ele>
        <time>2022-08-20T15:01:28Z</time>
      </trkpt>
      <trkpt lat="44.08999" lon="6.5475">
        <ele>1137.1999511719</ele>
        <time>2022-08-20T15:01:29Z</time>
      </trkpt>
      <trkpt lat="44.08998" lon="6.54743">
        <ele>1137.4000244141</ele>
        <time>2022-08-20T15:01:31Z</time>
      </trkpt>
      <trkpt lat="44.08999" lon="6.54739">
        <ele>1137.4000244141</ele>
        <time>2022-08-20T15:01:32Z</time>
      </trkpt>
      <trkpt lat="44.09006" lon="6.54717">
        <ele>1138</ele>
        <time>2022-08-20T15:01:38Z</time>
      </trkpt>
      <trkpt lat="44.09006" lon="6.54714">
        <ele>1138</ele>
        <time>2022-08-20T15:01:39Z</time>
      </trkpt>
      <trkpt lat="44.09008" lon="6.54706">
        <ele>1138.1999511719</ele>
        <time>2022-08-20T15:01:41Z</time>
      </trkpt>
      <trkpt lat="44.09011" lon="6.54699">
        <ele>1138.1999511719</ele>
        <time>2022-08-20T15:01:43Z</time>
      </trkpt>
      <trkpt lat="44.09016" lon="6.5469">
        <ele>1138.5999755859</ele>
        <time>2022-08-20T15:01:46Z</time>
      </trkpt>
      <trkpt lat="44.09027" lon="6.54679">
        <ele>1139.4000244141</ele>
        <time>2022-08-20T15:01:51Z</time>
      </trkpt>
      <trkpt lat="44.09031" lon="6.54672">
        <ele>1139.8000488281</ele>
        <time>2022-08-20T15:01:54Z</time>
      </trkpt>
      <trkpt lat="44.09032" lon="6.54669">
        <ele>1139.8000488281</ele>
        <time>2022-08-20T15:01:55Z</time>
      </trkpt>
      <trkpt lat="44.09033" lon="6.54663">
        <ele>1140</ele>
        <time>2022-08-20T15:01:57Z</time>
      </trkpt>
      <trkpt lat="44.09033" lon="6.5466">
        <ele>1140.1999511719</ele>
        <time>2022-08-20T15:01:58Z</time>
      </trkpt>
      <trkpt lat="44.09033" lon="6.54657">
        <ele>1140.4000244141</ele>
        <time>2022-08-20T15:01:59Z</time>
      </trkpt>
      <trkpt lat="44.0903" lon="6.54649">
        <ele>1140.8000488281</ele>
        <time>2022-08-20T15:02:02Z</time>
      </trkpt>
      <trkpt lat="44.09029" lon="6.54646">
        <ele>1140.8000488281</ele>
        <time>2022-08-20T15:02:03Z</time>
      </trkpt>
      <trkpt lat="44.09027" lon="6.54636">
        <ele>1141</ele>
        <time>2022-08-20T15:02:07Z</time>
      </trkpt>
      <trkpt lat="44.09027" lon="6.54629">
        <ele>1141.5999755859</ele>
        <time>2022-08-20T15:02:10Z</time>
      </trkpt>
      <trkpt lat="44.09027" lon="6.54613">
        <ele>1142.1999511719</ele>
        <time>2022-08-20T15:02:16Z</time>
      </trkpt>
      <trkpt lat="44.09028" lon="6.54601">
        <ele>1142.5999755859</ele>
        <time>2022-08-20T15:02:21Z</time>
      </trkpt>
      <trkpt lat="44.09029" lon="6.54595">
        <ele>1142.8000488281</ele>
        <time>2022-08-20T15:02:24Z</time>
      </trkpt>
      <trkpt lat="44.09033" lon="6.54583">
        <ele>1143.5999755859</ele>
        <time>2022-08-20T15:02:29Z</time>
      </trkpt>
      <trkpt lat="44.09034" lon="6.54575">
        <ele>1144</ele>
        <time>2022-08-20T15:02:32Z</time>
      </trkpt>
      <trkpt lat="44.09034" lon="6.54553">
        <ele>1144.8000488281</ele>
        <time>2022-08-20T15:02:40Z</time>
      </trkpt>
      <trkpt lat="44.09034" lon="6.54551">
        <ele>1144.8000488281</ele>
        <time>2022-08-20T15:02:41Z</time>
      </trkpt>
      <trkpt lat="44.09036" lon="6.54529">
        <ele>1145.5999755859</ele>
        <time>2022-08-20T15:02:48Z</time>
      </trkpt>
      <trkpt lat="44.09034" lon="6.54511">
        <ele>1145.5999755859</ele>
        <time>2022-08-20T15:02:54Z</time>
      </trkpt>
      <trkpt lat="44.0903" lon="6.54501">
        <ele>1145.8000488281</ele>
        <time>2022-08-20T15:02:58Z</time>
      </trkpt>
      <trkpt lat="44.09022" lon="6.54484">
        <ele>1146.1999511719</ele>
        <time>2022-08-20T15:03:04Z</time>
      </trkpt>
      <trkpt lat="44.09021" lon="6.54465">
        <ele>1146.5999755859</ele>
        <time>2022-08-20T15:03:10Z</time>
      </trkpt>
      <trkpt lat="44.09022" lon="6.54459">
        <ele>1146.8000488281</ele>
        <time>2022-08-20T15:03:12Z</time>
      </trkpt>
      <trkpt lat="44.09023" lon="6.54434">
        <ele>1147.1999511719</ele>
        <time>2022-08-20T15:03:19Z</time>
      </trkpt>
      <trkpt lat="44.09022" lon="6.54413">
        <ele>1147.4000244141</ele>
        <time>2022-08-20T15:03:25Z</time>
      </trkpt>
      <trkpt lat="44.0902" lon="6.54395">
        <ele>1148</ele>
        <time>2022-08-20T15:03:30Z</time>
      </trkpt>
      <trkpt lat="44.09017" lon="6.54384">
        <ele>1148.4000244141</ele>
        <time>2022-08-20T15:03:34Z</time>
      </trkpt>
      <trkpt lat="44.09009" lon="6.54363">
        <ele>1149</ele>
        <time>2022-08-20T15:03:42Z</time>
      </trkpt>
      <trkpt lat="44.09" lon="6.54339">
        <ele>1149.8000488281</ele>
        <time>2022-08-20T15:03:51Z</time>
      </trkpt>
      <trkpt lat="44.08998" lon="6.54333">
        <ele>1150</ele>
        <time>2022-08-20T15:03:53Z</time>
      </trkpt>
      <trkpt lat="44.08996" lon="6.54316">
        <ele>1150.5999755859</ele>
        <time>2022-08-20T15:03:58Z</time>
      </trkpt>
      <trkpt lat="44.08992" lon="6.54294">
        <ele>1150.8000488281</ele>
        <time>2022-08-20T15:04:05Z</time>
      </trkpt>
      <trkpt lat="44.08991" lon="6.54291">
        <ele>1151.1999511719</ele>
        <time>2022-08-20T15:04:06Z</time>
      </trkpt>
      <trkpt lat="44.08987" lon="6.54273">
        <ele>1151.8000488281</ele>
        <time>2022-08-20T15:04:12Z</time>
      </trkpt>
      <trkpt lat="44.08986" lon="6.54264">
        <ele>1152.1999511719</ele>
        <time>2022-08-20T15:04:15Z</time>
      </trkpt>
      <trkpt lat="44.08986" lon="6.54253">
        <ele>1152.8000488281</ele>
        <time>2022-08-20T15:04:19Z</time>
      </trkpt>
      <trkpt lat="44.08986" lon="6.54244">
        <ele>1153.1999511719</ele>
        <time>2022-08-20T15:04:22Z</time>
      </trkpt>
      <trkpt lat="44.08986" lon="6.54226">
        <ele>1154</ele>
        <time>2022-08-20T15:04:28Z</time>
      </trkpt>
      <trkpt lat="44.08988" lon="6.54217">
        <ele>1154.1999511719</ele>
        <time>2022-08-20T15:04:31Z</time>
      </trkpt>
      <trkpt lat="44.08991" lon="6.54201">
        <ele>1154.5999755859</ele>
        <time>2022-08-20T15:04:36Z</time>
      </trkpt>
      <trkpt lat="44.08996" lon="6.54166">
        <ele>1155.4000244141</ele>
        <time>2022-08-20T15:04:47Z</time>
      </trkpt>
      <trkpt lat="44.08994" lon="6.5415">
        <ele>1155.8000488281</ele>
        <time>2022-08-20T15:04:52Z</time>
      </trkpt>
      <trkpt lat="44.08989" lon="6.54132">
        <ele>1155.8000488281</ele>
        <time>2022-08-20T15:04:58Z</time>
      </trkpt>
      <trkpt lat="44.08992" lon="6.54118">
        <ele>1156.4000244141</ele>
        <time>2022-08-20T15:05:03Z</time>
      </trkpt>
      <trkpt lat="44.08994" lon="6.54113">
        <ele>1157</ele>
        <time>2022-08-20T15:05:05Z</time>
      </trkpt>
      <trkpt lat="44.08999" lon="6.54101">
        <ele>1157.4000244141</ele>
        <time>2022-08-20T15:05:10Z</time>
      </trkpt>
      <trkpt lat="44.09001" lon="6.54094">
        <ele>1157.8000488281</ele>
        <time>2022-08-20T15:05:13Z</time>
      </trkpt>
      <trkpt lat="44.09005" lon="6.54083">
        <ele>1158.5999755859</ele>
        <time>2022-08-20T15:05:18Z</time>
      </trkpt>
      <trkpt lat="44.09007" lon="6.54075">
        <ele>1159.1999511719</ele>
        <time>2022-08-20T15:05:22Z</time>
      </trkpt>
      <trkpt lat="44.09009" lon="6.54067">
        <ele>1159.5999755859</ele>
        <time>2022-08-20T15:05:26Z</time>
      </trkpt>
      <trkpt lat="44.09009" lon="6.54064">
        <ele>1159.5999755859</ele>
        <time>2022-08-20T15:05:27Z</time>
      </trkpt>
      <trkpt lat="44.09009" lon="6.54059">
        <ele>1159.8000488281</ele>
        <time>2022-08-20T15:05:29Z</time>
      </trkpt>
      <trkpt lat="44.09008" lon="6.54032">
        <ele>1160</ele>
        <time>2022-08-20T15:05:38Z</time>
      </trkpt>
      <trkpt lat="44.09013" lon="6.54006">
        <ele>1160.1999511719</ele>
        <time>2022-08-20T15:05:47Z</time>
      </trkpt>
      <trkpt lat="44.09016" lon="6.53983">
        <ele>1160.5999755859</ele>
        <time>2022-08-20T15:05:55Z</time>
      </trkpt>
      <trkpt lat="44.09017" lon="6.53981">
        <ele>1160.5999755859</ele>
        <time>2022-08-20T15:05:56Z</time>
      </trkpt>
      <trkpt lat="44.09022" lon="6.53969">
        <ele>1161.5999755859</ele>
        <time>2022-08-20T15:06:02Z</time>
      </trkpt>
      <trkpt lat="44.09029" lon="6.5395">
        <ele>1162</ele>
        <time>2022-08-20T15:06:10Z</time>
      </trkpt>
      <trkpt lat="44.09033" lon="6.53936">
        <ele>1162.5999755859</ele>
        <time>2022-08-20T15:06:16Z</time>
      </trkpt>
      <trkpt lat="44.09034" lon="6.53934">
        <ele>1162.8000488281</ele>
        <time>2022-08-20T15:06:17Z</time>
      </trkpt>
      <trkpt lat="44.09035" lon="6.53916">
        <ele>1163.1999511719</ele>
        <time>2022-08-20T15:06:23Z</time>
      </trkpt>
      <trkpt lat="44.09036" lon="6.53895">
        <ele>1163.8000488281</ele>
        <time>2022-08-20T15:06:30Z</time>
      </trkpt>
      <trkpt lat="44.09037" lon="6.53873">
        <ele>1163.8000488281</ele>
        <time>2022-08-20T15:06:36Z</time>
      </trkpt>
      <trkpt lat="44.09038" lon="6.53862">
        <ele>1163.8000488281</ele>
        <time>2022-08-20T15:06:39Z</time>
      </trkpt>
      <trkpt lat="44.09038" lon="6.53853">
        <ele>1164</ele>
        <time>2022-08-20T15:06:42Z</time>
      </trkpt>
      <trkpt lat="44.09034" lon="6.53839">
        <ele>1164.4000244141</ele>
        <time>2022-08-20T15:06:47Z</time>
      </trkpt>
      <trkpt lat="44.09031" lon="6.5383">
        <ele>1164.4000244141</ele>
        <time>2022-08-20T15:06:50Z</time>
      </trkpt>
      <trkpt lat="44.09028" lon="6.5382">
        <ele>1164.8000488281</ele>
        <time>2022-08-20T15:06:54Z</time>
      </trkpt>
      <trkpt lat="44.09028" lon="6.53817">
        <ele>1164.8000488281</ele>
        <time>2022-08-20T15:06:55Z</time>
      </trkpt>
      <trkpt lat="44.09028" lon="6.53807">
        <ele>1165</ele>
        <time>2022-08-20T15:06:58Z</time>
      </trkpt>
      <trkpt lat="44.09031" lon="6.53794">
        <ele>1165.8000488281</ele>
        <time>2022-08-20T15:07:03Z</time>
      </trkpt>
      <trkpt lat="44.09031" lon="6.53792">
        <ele>1166</ele>
        <time>2022-08-20T15:07:04Z</time>
      </trkpt>
      <trkpt lat="44.09027" lon="6.5379">
        <ele>1166</ele>
        <time>2022-08-20T15:07:06Z</time>
      </trkpt>
      <trkpt lat="44.09004" lon="6.53792">
        <ele>1165.5999755859</ele>
        <time>2022-08-20T15:07:15Z</time>
      </trkpt>
      <trkpt lat="44.08986" lon="6.53793">
        <ele>1165.8000488281</ele>
        <time>2022-08-20T15:07:22Z</time>
      </trkpt>
      <trkpt lat="44.08972" lon="6.53792">
        <ele>1166</ele>
        <time>2022-08-20T15:07:28Z</time>
      </trkpt>
      <trkpt lat="44.08968" lon="6.53791">
        <ele>1166.1999511719</ele>
        <time>2022-08-20T15:07:30Z</time>
      </trkpt>
      <trkpt lat="44.08955" lon="6.53783">
        <ele>1167</ele>
        <time>2022-08-20T15:07:38Z</time>
      </trkpt>
      <trkpt lat="44.08944" lon="6.53774">
        <ele>1168</ele>
        <time>2022-08-20T15:07:45Z</time>
      </trkpt>
      <trkpt lat="44.08942" lon="6.53769">
        <ele>1168.1999511719</ele>
        <time>2022-08-20T15:07:47Z</time>
      </trkpt>
      <trkpt lat="44.08942" lon="6.53763">
        <ele>1169</ele>
        <time>2022-08-20T15:07:50Z</time>
      </trkpt>
      <trkpt lat="44.08941" lon="6.53762">
        <ele>1169.1999511719</ele>
        <time>2022-08-20T15:07:51Z</time>
      </trkpt>
      <trkpt lat="44.08941" lon="6.53761">
        <ele>1169.4000244141</ele>
        <time>2022-08-20T15:07:54Z</time>
      </trkpt>
      <trkpt lat="44.08941" lon="6.53761">
        <ele>1169.4000244141</ele>
        <time>2022-08-20T15:07:55Z</time>
      </trkpt>
      <trkpt lat="44.08941" lon="6.5376">
        <ele>1169.1999511719</ele>
        <time>2022-08-20T15:08:00Z</time>
      </trkpt>
      <trkpt lat="44.08941" lon="6.5376">
        <ele>1169.1999511719</ele>
        <time>2022-08-20T15:08:01Z</time>
      </trkpt>
      <trkpt lat="44.08941" lon="6.53761">
        <ele>1169.1999511719</ele>
        <time>2022-08-20T15:08:05Z</time>
      </trkpt>
      <trkpt lat="44.08941" lon="6.53761">
        <ele>1169</ele>
        <time>2022-08-20T15:08:10Z</time>
      </trkpt>
      <trkpt lat="44.08942" lon="6.5376">
        <ele>1168.5999755859</ele>
        <time>2022-08-20T15:08:26Z</time>
      </trkpt>
      <trkpt lat="44.08942" lon="6.53761">
        <ele>1168.1999511719</ele>
        <time>2022-08-20T15:08:38Z</time>
      </trkpt>
      <trkpt lat="44.08942" lon="6.53761">
        <ele>1168.1999511719</ele>
        <time>2022-08-20T15:08:42Z</time>
      </trkpt>
      <trkpt lat="44.08944" lon="6.53763">
        <ele>1168.1999511719</ele>
        <time>2022-08-20T15:08:49Z</time>
      </trkpt>
      <trkpt lat="44.08944" lon="6.53763">
        <ele>1168</ele>
        <time>2022-08-20T15:08:52Z</time>
      </trkpt>
      <trkpt lat="44.08944" lon="6.53763">
        <ele>1168</ele>
        <time>2022-08-20T15:08:55Z</time>
      </trkpt>
      <trkpt lat="44.08944" lon="6.53763">
        <ele>1168</ele>
        <time>2022-08-20T15:08:56Z</time>
      </trkpt>
      <trkpt lat="44.08943" lon="6.53764">
        <ele>1167.8000488281</ele>
        <time>2022-08-20T15:09:03Z</time>
      </trkpt>
      <trkpt lat="44.08943" lon="6.53764">
        <ele>1167.8000488281</ele>
        <time>2022-08-20T15:09:05Z</time>
      </trkpt>
      <trkpt lat="44.08943" lon="6.53764">
        <ele>1167.8000488281</ele>
        <time>2022-08-20T15:09:08Z</time>
      </trkpt>
      <trkpt lat="44.08941" lon="6.53765">
        <ele>1167.8000488281</ele>
        <time>2022-08-20T15:09:24Z</time>
      </trkpt>
      <trkpt lat="44.0894" lon="6.53763">
        <ele>1167.8000488281</ele>
        <time>2022-08-20T15:09:38Z</time>
      </trkpt>
      <trkpt lat="44.0894" lon="6.53763">
        <ele>1167.8000488281</ele>
        <time>2022-08-20T15:09:49Z</time>
      </trkpt>
      <trkpt lat="44.08937" lon="6.53758">
        <ele>1167.4000244141</ele>
        <time>2022-08-20T15:09:54Z</time>
      </trkpt>
      <trkpt lat="44.08935" lon="6.53756">
        <ele>1167.4000244141</ele>
        <time>2022-08-20T15:09:55Z</time>
      </trkpt>
      <trkpt lat="44.08929" lon="6.53742">
        <ele>1167.1999511719</ele>
        <time>2022-08-20T15:10:00Z</time>
      </trkpt>
      <trkpt lat="44.08928" lon="6.53733">
        <ele>1167</ele>
        <time>2022-08-20T15:10:03Z</time>
      </trkpt>
      <trkpt lat="44.08924" lon="6.53725">
        <ele>1167</ele>
        <time>2022-08-20T15:10:07Z</time>
      </trkpt>
      <trkpt lat="44.08921" lon="6.5372">
        <ele>1167.4000244141</ele>
        <time>2022-08-20T15:10:10Z</time>
      </trkpt>
      <trkpt lat="44.08919" lon="6.53718">
        <ele>1168</ele>
        <time>2022-08-20T15:10:12Z</time>
      </trkpt>
      <trkpt lat="44.08917" lon="6.53717">
        <ele>1168.1999511719</ele>
        <time>2022-08-20T15:10:13Z</time>
      </trkpt>
      <trkpt lat="44.08916" lon="6.53716">
        <ele>1168.5999755859</ele>
        <time>2022-08-20T15:10:15Z</time>
      </trkpt>
      <trkpt lat="44.08914" lon="6.53716">
        <ele>1168.8000488281</ele>
        <time>2022-08-20T15:10:17Z</time>
      </trkpt>
      <trkpt lat="44.08913" lon="6.53715">
        <ele>1169.1999511719</ele>
        <time>2022-08-20T15:10:20Z</time>
      </trkpt>
      <trkpt lat="44.08912" lon="6.53714">
        <ele>1169.1999511719</ele>
        <time>2022-08-20T15:10:22Z</time>
      </trkpt>
      <trkpt lat="44.08912" lon="6.53714">
        <ele>1169.1999511719</ele>
        <time>2022-08-20T15:10:23Z</time>
      </trkpt>
      <trkpt lat="44.08908" lon="6.53713">
        <ele>1169.1999511719</ele>
        <time>2022-08-20T15:10:32Z</time>
      </trkpt>
      <trkpt lat="44.08904" lon="6.53708">
        <ele>1170</ele>
        <time>2022-08-20T15:10:36Z</time>
      </trkpt>
      <trkpt lat="44.08902" lon="6.53704">
        <ele>1170.4000244141</ele>
        <time>2022-08-20T15:10:38Z</time>
      </trkpt>
      <trkpt lat="44.08902" lon="6.53701">
        <ele>1170.8000488281</ele>
        <time>2022-08-20T15:10:39Z</time>
      </trkpt>
      <trkpt lat="44.08901" lon="6.53696">
        <ele>1171.5999755859</ele>
        <time>2022-08-20T15:10:42Z</time>
      </trkpt>
      <trkpt lat="44.08899" lon="6.53688">
        <ele>1172</ele>
        <time>2022-08-20T15:10:46Z</time>
      </trkpt>
      <trkpt lat="44.08896" lon="6.53672">
        <ele>1171.8000488281</ele>
        <time>2022-08-20T15:10:52Z</time>
      </trkpt>
      <trkpt lat="44.08896" lon="6.53667">
        <ele>1171.8000488281</ele>
        <time>2022-08-20T15:10:54Z</time>
      </trkpt>
      <trkpt lat="44.08897" lon="6.53664">
        <ele>1171.8000488281</ele>
        <time>2022-08-20T15:10:55Z</time>
      </trkpt>
      <trkpt lat="44.08898" lon="6.53661">
        <ele>1171.8000488281</ele>
        <time>2022-08-20T15:10:56Z</time>
      </trkpt>
      <trkpt lat="44.089" lon="6.53658">
        <ele>1171.8000488281</ele>
        <time>2022-08-20T15:10:57Z</time>
      </trkpt>
      <trkpt lat="44.08905" lon="6.5364">
        <ele>1171.1999511719</ele>
        <time>2022-08-20T15:11:02Z</time>
      </trkpt>
      <trkpt lat="44.08905" lon="6.53632">
        <ele>1171</ele>
        <time>2022-08-20T15:11:04Z</time>
      </trkpt>
      <trkpt lat="44.08906" lon="6.5362">
        <ele>1171</ele>
        <time>2022-08-20T15:11:08Z</time>
      </trkpt>
      <trkpt lat="44.08906" lon="6.53601">
        <ele>1171.1999511719</ele>
        <time>2022-08-20T15:11:14Z</time>
      </trkpt>
      <trkpt lat="44.08907" lon="6.5358">
        <ele>1171.1999511719</ele>
        <time>2022-08-20T15:11:20Z</time>
      </trkpt>
      <trkpt lat="44.08907" lon="6.53574">
        <ele>1171.1999511719</ele>
        <time>2022-08-20T15:11:21Z</time>
      </trkpt>
      <trkpt lat="44.08908" lon="6.53565">
        <ele>1170.8000488281</ele>
        <time>2022-08-20T15:11:23Z</time>
      </trkpt>
      <trkpt lat="44.08908" lon="6.53554">
        <ele>1170.8000488281</ele>
        <time>2022-08-20T15:11:26Z</time>
      </trkpt>
      <trkpt lat="44.08909" lon="6.53543">
        <ele>1170.8000488281</ele>
        <time>2022-08-20T15:11:29Z</time>
      </trkpt>
      <trkpt lat="44.0891" lon="6.53528">
        <ele>1170.5999755859</ele>
        <time>2022-08-20T15:11:33Z</time>
      </trkpt>
      <trkpt lat="44.08911" lon="6.53524">
        <ele>1170.5999755859</ele>
        <time>2022-08-20T15:11:34Z</time>
      </trkpt>
      <trkpt lat="44.08911" lon="6.53509">
        <ele>1170.1999511719</ele>
        <time>2022-08-20T15:11:37Z</time>
      </trkpt>
      <trkpt lat="44.08913" lon="6.53491">
        <ele>1170</ele>
        <time>2022-08-20T15:11:41Z</time>
      </trkpt>
      <trkpt lat="44.08913" lon="6.53478">
        <ele>1170.4000244141</ele>
        <time>2022-08-20T15:11:44Z</time>
      </trkpt>
      <trkpt lat="44.08913" lon="6.53474">
        <ele>1170.4000244141</ele>
        <time>2022-08-20T15:11:45Z</time>
      </trkpt>
      <trkpt lat="44.08914" lon="6.53453">
        <ele>1171</ele>
        <time>2022-08-20T15:11:50Z</time>
      </trkpt>
      <trkpt lat="44.08914" lon="6.53441">
        <ele>1171</ele>
        <time>2022-08-20T15:11:53Z</time>
      </trkpt>
      <trkpt lat="44.08915" lon="6.53437">
        <ele>1171</ele>
        <time>2022-08-20T15:11:54Z</time>
      </trkpt>
      <trkpt lat="44.08916" lon="6.53415">
        <ele>1171.4000244141</ele>
        <time>2022-08-20T15:12:00Z</time>
      </trkpt>
      <trkpt lat="44.08917" lon="6.53409">
        <ele>1171.8000488281</ele>
        <time>2022-08-20T15:12:02Z</time>
      </trkpt>
      <trkpt lat="44.08916" lon="6.53399">
        <ele>1172</ele>
        <time>2022-08-20T15:12:06Z</time>
      </trkpt>
      <trkpt lat="44.08915" lon="6.53398">
        <ele>1172.1999511719</ele>
        <time>2022-08-20T15:12:07Z</time>
      </trkpt>
      <trkpt lat="44.08913" lon="6.53393">
        <ele>1172.1999511719</ele>
        <time>2022-08-20T15:12:10Z</time>
      </trkpt>
      <trkpt lat="44.08914" lon="6.53388">
        <ele>1172</ele>
        <time>2022-08-20T15:12:12Z</time>
      </trkpt>
      <trkpt lat="44.08919" lon="6.53382">
        <ele>1171.4000244141</ele>
        <time>2022-08-20T15:12:15Z</time>
      </trkpt>
      <trkpt lat="44.08929" lon="6.53376">
        <ele>1170.5999755859</ele>
        <time>2022-08-20T15:12:18Z</time>
      </trkpt>
      <trkpt lat="44.08938" lon="6.53372">
        <ele>1169.5999755859</ele>
        <time>2022-08-20T15:12:20Z</time>
      </trkpt>
      <trkpt lat="44.08943" lon="6.53369">
        <ele>1169</ele>
        <time>2022-08-20T15:12:21Z</time>
      </trkpt>
      <trkpt lat="44.08953" lon="6.53365">
        <ele>1168.5999755859</ele>
        <time>2022-08-20T15:12:23Z</time>
      </trkpt>
      <trkpt lat="44.08958" lon="6.53363">
        <ele>1168.5999755859</ele>
        <time>2022-08-20T15:12:24Z</time>
      </trkpt>
      <trkpt lat="44.08971" lon="6.53356">
        <ele>1168.4000244141</ele>
        <time>2022-08-20T15:12:27Z</time>
      </trkpt>
      <trkpt lat="44.08983" lon="6.53349">
        <ele>1168.5999755859</ele>
        <time>2022-08-20T15:12:30Z</time>
      </trkpt>
      <trkpt lat="44.0899" lon="6.53346">
        <ele>1168.8000488281</ele>
        <time>2022-08-20T15:12:32Z</time>
      </trkpt>
      <trkpt lat="44.08993" lon="6.53344">
        <ele>1168.8000488281</ele>
        <time>2022-08-20T15:12:33Z</time>
      </trkpt>
      <trkpt lat="44.09024" lon="6.53327">
        <ele>1168.5999755859</ele>
        <time>2022-08-20T15:12:42Z</time>
      </trkpt>
      <trkpt lat="44.09051" lon="6.53313">
        <ele>1168.8000488281</ele>
        <time>2022-08-20T15:12:50Z</time>
      </trkpt>
      <trkpt lat="44.09072" lon="6.53301">
        <ele>1169.4000244141</ele>
        <time>2022-08-20T15:12:57Z</time>
      </trkpt>
      <trkpt lat="44.09074" lon="6.53299">
        <ele>1169.4000244141</ele>
        <time>2022-08-20T15:12:58Z</time>
      </trkpt>
      <trkpt lat="44.09084" lon="6.53295">
        <ele>1169.8000488281</ele>
        <time>2022-08-20T15:13:02Z</time>
      </trkpt>
      <trkpt lat="44.09088" lon="6.53292">
        <ele>1169.8000488281</ele>
        <time>2022-08-20T15:13:04Z</time>
      </trkpt>
      <trkpt lat="44.09089" lon="6.53289">
        <ele>1169.8000488281</ele>
        <time>2022-08-20T15:13:05Z</time>
      </trkpt>
      <trkpt lat="44.09089" lon="6.53272">
        <ele>1170</ele>
        <time>2022-08-20T15:13:10Z</time>
      </trkpt>
      <trkpt lat="44.09088" lon="6.53269">
        <ele>1170</ele>
        <time>2022-08-20T15:13:11Z</time>
      </trkpt>
      <trkpt lat="44.0908" lon="6.5325">
        <ele>1169.8000488281</ele>
        <time>2022-08-20T15:13:15Z</time>
      </trkpt>
      <trkpt lat="44.09073" lon="6.5323">
        <ele>1169.4000244141</ele>
        <time>2022-08-20T15:13:18Z</time>
      </trkpt>
      <trkpt lat="44.09059" lon="6.5319">
        <ele>1168.4000244141</ele>
        <time>2022-08-20T15:13:24Z</time>
      </trkpt>
      <trkpt lat="44.09044" lon="6.53147">
        <ele>1168</ele>
        <time>2022-08-20T15:13:30Z</time>
      </trkpt>
      <trkpt lat="44.09039" lon="6.53131">
        <ele>1168</ele>
        <time>2022-08-20T15:13:32Z</time>
      </trkpt>
      <trkpt lat="44.09015" lon="6.53069">
        <ele>1167.4000244141</ele>
        <time>2022-08-20T15:13:40Z</time>
      </trkpt>
      <trkpt lat="44.0901" lon="6.53054">
        <ele>1166.8000488281</ele>
        <time>2022-08-20T15:13:42Z</time>
      </trkpt>
      <trkpt lat="44.09003" lon="6.53033">
        <ele>1166.8000488281</ele>
        <time>2022-08-20T15:13:45Z</time>
      </trkpt>
      <trkpt lat="44.08998" lon="6.53018">
        <ele>1166.8000488281</ele>
        <time>2022-08-20T15:13:47Z</time>
      </trkpt>
      <trkpt lat="44.08997" lon="6.5301">
        <ele>1166.5999755859</ele>
        <time>2022-08-20T15:13:48Z</time>
      </trkpt>
      <trkpt lat="44.08995" lon="6.52993">
        <ele>1166</ele>
        <time>2022-08-20T15:13:50Z</time>
      </trkpt>
      <trkpt lat="44.08995" lon="6.52984">
        <ele>1165.5999755859</ele>
        <time>2022-08-20T15:13:51Z</time>
      </trkpt>
      <trkpt lat="44.08992" lon="6.52946">
        <ele>1164.4000244141</ele>
        <time>2022-08-20T15:13:55Z</time>
      </trkpt>
      <trkpt lat="44.08992" lon="6.52927">
        <ele>1163.1999511719</ele>
        <time>2022-08-20T15:13:57Z</time>
      </trkpt>
      <trkpt lat="44.08993" lon="6.5291">
        <ele>1162.5999755859</ele>
        <time>2022-08-20T15:13:59Z</time>
      </trkpt>
      <trkpt lat="44.08994" lon="6.52886">
        <ele>1162.1999511719</ele>
        <time>2022-08-20T15:14:02Z</time>
      </trkpt>
      <trkpt lat="44.08994" lon="6.52877">
        <ele>1162</ele>
        <time>2022-08-20T15:14:03Z</time>
      </trkpt>
      <trkpt lat="44.08994" lon="6.52829">
        <ele>1161</ele>
        <time>2022-08-20T15:14:09Z</time>
      </trkpt>
      <trkpt lat="44.08994" lon="6.5282">
        <ele>1160.8000488281</ele>
        <time>2022-08-20T15:14:10Z</time>
      </trkpt>
      <trkpt lat="44.08995" lon="6.52776">
        <ele>1159.5999755859</ele>
        <time>2022-08-20T15:14:15Z</time>
      </trkpt>
      <trkpt lat="44.08997" lon="6.52739">
        <ele>1158.8000488281</ele>
        <time>2022-08-20T15:14:19Z</time>
      </trkpt>
      <trkpt lat="44.09003" lon="6.52699">
        <ele>1158.5999755859</ele>
        <time>2022-08-20T15:14:23Z</time>
      </trkpt>
      <trkpt lat="44.09004" lon="6.5269">
        <ele>1158.1999511719</ele>
        <time>2022-08-20T15:14:24Z</time>
      </trkpt>
      <trkpt lat="44.09005" lon="6.5268">
        <ele>1158</ele>
        <time>2022-08-20T15:14:25Z</time>
      </trkpt>
      <trkpt lat="44.09005" lon="6.52661">
        <ele>1157.1999511719</ele>
        <time>2022-08-20T15:14:27Z</time>
      </trkpt>
      <trkpt lat="44.09005" lon="6.52606">
        <ele>1156.1999511719</ele>
        <time>2022-08-20T15:14:33Z</time>
      </trkpt>
      <trkpt lat="44.09012" lon="6.52558">
        <ele>1157</ele>
        <time>2022-08-20T15:14:39Z</time>
      </trkpt>
      <trkpt lat="44.09013" lon="6.52551">
        <ele>1157.4000244141</ele>
        <time>2022-08-20T15:14:40Z</time>
      </trkpt>
      <trkpt lat="44.09016" lon="6.52529">
        <ele>1158.8000488281</ele>
        <time>2022-08-20T15:14:43Z</time>
      </trkpt>
      <trkpt lat="44.09018" lon="6.52515">
        <ele>1159.8000488281</ele>
        <time>2022-08-20T15:14:45Z</time>
      </trkpt>
      <trkpt lat="44.09022" lon="6.52495">
        <ele>1160.4000244141</ele>
        <time>2022-08-20T15:14:48Z</time>
      </trkpt>
      <trkpt lat="44.09026" lon="6.52469">
        <ele>1160.4000244141</ele>
        <time>2022-08-20T15:14:52Z</time>
      </trkpt>
      <trkpt lat="44.0903" lon="6.52449">
        <ele>1160.1999511719</ele>
        <time>2022-08-20T15:14:55Z</time>
      </trkpt>
      <trkpt lat="44.09031" lon="6.52443">
        <ele>1160.1999511719</ele>
        <time>2022-08-20T15:14:56Z</time>
      </trkpt>
      <trkpt lat="44.09036" lon="6.52416">
        <ele>1159.8000488281</ele>
        <time>2022-08-20T15:15:00Z</time>
      </trkpt>
      <trkpt lat="44.09038" lon="6.52409">
        <ele>1159.4000244141</ele>
        <time>2022-08-20T15:15:01Z</time>
      </trkpt>
      <trkpt lat="44.0904" lon="6.52395">
        <ele>1159.1999511719</ele>
        <time>2022-08-20T15:15:03Z</time>
      </trkpt>
      <trkpt lat="44.09041" lon="6.52388">
        <ele>1159.1999511719</ele>
        <time>2022-08-20T15:15:04Z</time>
      </trkpt>
      <trkpt lat="44.09044" lon="6.52372">
        <ele>1158.8000488281</ele>
        <time>2022-08-20T15:15:06Z</time>
      </trkpt>
      <trkpt lat="44.09054" lon="6.52327">
        <ele>1158.4000244141</ele>
        <time>2022-08-20T15:15:12Z</time>
      </trkpt>
      <trkpt lat="44.09062" lon="6.5228">
        <ele>1158</ele>
        <time>2022-08-20T15:15:18Z</time>
      </trkpt>
      <trkpt lat="44.09062" lon="6.52272">
        <ele>1158</ele>
        <time>2022-08-20T15:15:19Z</time>
      </trkpt>
      <trkpt lat="44.09063" lon="6.52249">
        <ele>1158</ele>
        <time>2022-08-20T15:15:22Z</time>
      </trkpt>
      <trkpt lat="44.09062" lon="6.52223">
        <ele>1158.1999511719</ele>
        <time>2022-08-20T15:15:26Z</time>
      </trkpt>
      <trkpt lat="44.09062" lon="6.52216">
        <ele>1158.1999511719</ele>
        <time>2022-08-20T15:15:27Z</time>
      </trkpt>
      <trkpt lat="44.09058" lon="6.52179">
        <ele>1158.8000488281</ele>
        <time>2022-08-20T15:15:33Z</time>
      </trkpt>
      <trkpt lat="44.09045" lon="6.52134">
        <ele>1159.5999755859</ele>
        <time>2022-08-20T15:15:42Z</time>
      </trkpt>
      <trkpt lat="44.09044" lon="6.5213">
        <ele>1159.8000488281</ele>
        <time>2022-08-20T15:15:43Z</time>
      </trkpt>
      <trkpt lat="44.09037" lon="6.52112">
        <ele>1160.5999755859</ele>
        <time>2022-08-20T15:15:47Z</time>
      </trkpt>
      <trkpt lat="44.09029" lon="6.52092">
        <ele>1160.1999511719</ele>
        <time>2022-08-20T15:15:52Z</time>
      </trkpt>
      <trkpt lat="44.09026" lon="6.52083">
        <ele>1160.1999511719</ele>
        <time>2022-08-20T15:15:54Z</time>
      </trkpt>
      <trkpt lat="44.09023" lon="6.5207">
        <ele>1161</ele>
        <time>2022-08-20T15:15:57Z</time>
      </trkpt>
      <trkpt lat="44.09018" lon="6.52051">
        <ele>1161.5999755859</ele>
        <time>2022-08-20T15:16:01Z</time>
      </trkpt>
      <trkpt lat="44.09015" lon="6.52037">
        <ele>1162.1999511719</ele>
        <time>2022-08-20T15:16:04Z</time>
      </trkpt>
      <trkpt lat="44.0901" lon="6.52015">
        <ele>1162.5999755859</ele>
        <time>2022-08-20T15:16:09Z</time>
      </trkpt>
      <trkpt lat="44.09013" lon="6.51986">
        <ele>1162.5999755859</ele>
        <time>2022-08-20T15:16:15Z</time>
      </trkpt>
      <trkpt lat="44.09028" lon="6.5197">
        <ele>1162.4000244141</ele>
        <time>2022-08-20T15:16:20Z</time>
      </trkpt>
      <trkpt lat="44.09042" lon="6.51962">
        <ele>1163.1999511719</ele>
        <time>2022-08-20T15:16:24Z</time>
      </trkpt>
      <trkpt lat="44.09056" lon="6.51953">
        <ele>1163.5999755859</ele>
        <time>2022-08-20T15:16:28Z</time>
      </trkpt>
      <trkpt lat="44.09067" lon="6.51948">
        <ele>1164.1999511719</ele>
        <time>2022-08-20T15:16:31Z</time>
      </trkpt>
      <trkpt lat="44.0907" lon="6.51946">
        <ele>1164.4000244141</ele>
        <time>2022-08-20T15:16:32Z</time>
      </trkpt>
      <trkpt lat="44.09087" lon="6.51938">
        <ele>1165.4000244141</ele>
        <time>2022-08-20T15:16:37Z</time>
      </trkpt>
      <trkpt lat="44.09091" lon="6.51936">
        <ele>1165.5999755859</ele>
        <time>2022-08-20T15:16:38Z</time>
      </trkpt>
      <trkpt lat="44.09112" lon="6.5192">
        <ele>1166.1999511719</ele>
        <time>2022-08-20T15:16:45Z</time>
      </trkpt>
      <trkpt lat="44.09128" lon="6.51895">
        <ele>1166.5999755859</ele>
        <time>2022-08-20T15:16:52Z</time>
      </trkpt>
      <trkpt lat="44.0913" lon="6.51891">
        <ele>1166.5999755859</ele>
        <time>2022-08-20T15:16:53Z</time>
      </trkpt>
      <trkpt lat="44.09145" lon="6.5186">
        <ele>1166.1999511719</ele>
        <time>2022-08-20T15:17:00Z</time>
      </trkpt>
      <trkpt lat="44.0915" lon="6.51853">
        <ele>1166.1999511719</ele>
        <time>2022-08-20T15:17:02Z</time>
      </trkpt>
      <trkpt lat="44.09168" lon="6.51827">
        <ele>1166.4000244141</ele>
        <time>2022-08-20T15:17:08Z</time>
      </trkpt>
      <trkpt lat="44.09175" lon="6.51814">
        <ele>1166</ele>
        <time>2022-08-20T15:17:11Z</time>
      </trkpt>
      <trkpt lat="44.09178" lon="6.51809">
        <ele>1166</ele>
        <time>2022-08-20T15:17:12Z</time>
      </trkpt>
      <trkpt lat="44.09192" lon="6.51789">
        <ele>1165.8000488281</ele>
        <time>2022-08-20T15:17:17Z</time>
      </trkpt>
      <trkpt lat="44.09196" lon="6.51786">
        <ele>1165.8000488281</ele>
        <time>2022-08-20T15:17:18Z</time>
      </trkpt>
      <trkpt lat="44.09199" lon="6.51784">
        <ele>1165.8000488281</ele>
        <time>2022-08-20T15:17:19Z</time>
      </trkpt>
      <trkpt lat="44.09208" lon="6.5178">
        <ele>1165.8000488281</ele>
        <time>2022-08-20T15:17:22Z</time>
      </trkpt>
      <trkpt lat="44.09216" lon="6.51778">
        <ele>1165.8000488281</ele>
        <time>2022-08-20T15:17:25Z</time>
      </trkpt>
      <trkpt lat="44.09233" lon="6.51775">
        <ele>1166</ele>
        <time>2022-08-20T15:17:31Z</time>
      </trkpt>
      <trkpt lat="44.09245" lon="6.51775">
        <ele>1166.4000244141</ele>
        <time>2022-08-20T15:17:36Z</time>
      </trkpt>
      <trkpt lat="44.0925" lon="6.51776">
        <ele>1166.8000488281</ele>
        <time>2022-08-20T15:17:38Z</time>
      </trkpt>
      <trkpt lat="44.09261" lon="6.51771">
        <ele>1167.4000244141</ele>
        <time>2022-08-20T15:17:44Z</time>
      </trkpt>
      <trkpt lat="44.09263" lon="6.51769">
        <ele>1167.5999755859</ele>
        <time>2022-08-20T15:17:46Z</time>
      </trkpt>
      <trkpt lat="44.09265" lon="6.5177">
        <ele>1167.8000488281</ele>
        <time>2022-08-20T15:17:48Z</time>
      </trkpt>
      <trkpt lat="44.09271" lon="6.51774">
        <ele>1168.1999511719</ele>
        <time>2022-08-20T15:17:52Z</time>
      </trkpt>
      <trkpt lat="44.09272" lon="6.51775">
        <ele>1168.4000244141</ele>
        <time>2022-08-20T15:17:53Z</time>
      </trkpt>
      <trkpt lat="44.09276" lon="6.51776">
        <ele>1168.5999755859</ele>
        <time>2022-08-20T15:17:55Z</time>
      </trkpt>
      <trkpt lat="44.09278" lon="6.51776">
        <ele>1168.8000488281</ele>
        <time>2022-08-20T15:17:56Z</time>
      </trkpt>
      <trkpt lat="44.09282" lon="6.51776">
        <ele>1169</ele>
        <time>2022-08-20T15:17:58Z</time>
      </trkpt>
      <trkpt lat="44.09287" lon="6.51776">
        <ele>1169.4000244141</ele>
        <time>2022-08-20T15:18:01Z</time>
      </trkpt>
      <trkpt lat="44.09291" lon="6.51775">
        <ele>1169.5999755859</ele>
        <time>2022-08-20T15:18:03Z</time>
      </trkpt>
      <trkpt lat="44.09292" lon="6.51776">
        <ele>1169.8000488281</ele>
        <time>2022-08-20T15:18:04Z</time>
      </trkpt>
      <trkpt lat="44.09302" lon="6.51771">
        <ele>1170.1999511719</ele>
        <time>2022-08-20T15:18:09Z</time>
      </trkpt>
      <trkpt lat="44.09303" lon="6.5177">
        <ele>1170.1999511719</ele>
        <time>2022-08-20T15:18:10Z</time>
      </trkpt>
      <trkpt lat="44.0931" lon="6.51766">
        <ele>1170.8000488281</ele>
        <time>2022-08-20T15:18:14Z</time>
      </trkpt>
      <trkpt lat="44.09313" lon="6.51765">
        <ele>1171</ele>
        <time>2022-08-20T15:18:16Z</time>
      </trkpt>
      <trkpt lat="44.09322" lon="6.51756">
        <ele>1171.8000488281</ele>
        <time>2022-08-20T15:18:23Z</time>
      </trkpt>
      <trkpt lat="44.09323" lon="6.51755">
        <ele>1172</ele>
        <time>2022-08-20T15:18:24Z</time>
      </trkpt>
      <trkpt lat="44.09331" lon="6.51751">
        <ele>1172.8000488281</ele>
        <time>2022-08-20T15:18:29Z</time>
      </trkpt>
      <trkpt lat="44.09335" lon="6.51748">
        <ele>1173.4000244141</ele>
        <time>2022-08-20T15:18:32Z</time>
      </trkpt>
      <trkpt lat="44.09336" lon="6.51747">
        <ele>1173.5999755859</ele>
        <time>2022-08-20T15:18:33Z</time>
      </trkpt>
      <trkpt lat="44.09338" lon="6.51746">
        <ele>1173.8000488281</ele>
        <time>2022-08-20T15:18:34Z</time>
      </trkpt>
      <trkpt lat="44.09341" lon="6.51745">
        <ele>1174.4000244141</ele>
        <time>2022-08-20T15:18:36Z</time>
      </trkpt>
      <trkpt lat="44.09344" lon="6.51744">
        <ele>1174.8000488281</ele>
        <time>2022-08-20T15:18:38Z</time>
      </trkpt>
      <trkpt lat="44.09345" lon="6.51743">
        <ele>1175</ele>
        <time>2022-08-20T15:18:39Z</time>
      </trkpt>
      <trkpt lat="44.0935" lon="6.51741">
        <ele>1175.4000244141</ele>
        <time>2022-08-20T15:18:42Z</time>
      </trkpt>
      <trkpt lat="44.09353" lon="6.51741">
        <ele>1176</ele>
        <time>2022-08-20T15:18:44Z</time>
      </trkpt>
      <trkpt lat="44.09354" lon="6.5174">
        <ele>1176.1999511719</ele>
        <time>2022-08-20T15:18:45Z</time>
      </trkpt>
      <trkpt lat="44.0936" lon="6.51737">
        <ele>1177</ele>
        <time>2022-08-20T15:18:50Z</time>
      </trkpt>
      <trkpt lat="44.09364" lon="6.51735">
        <ele>1177.5999755859</ele>
        <time>2022-08-20T15:18:54Z</time>
      </trkpt>
      <trkpt lat="44.09368" lon="6.51736">
        <ele>1178.1999511719</ele>
        <time>2022-08-20T15:18:57Z</time>
      </trkpt>
      <trkpt lat="44.09372" lon="6.51727">
        <ele>1178.5999755859</ele>
        <time>2022-08-20T15:19:02Z</time>
      </trkpt>
      <trkpt lat="44.09374" lon="6.51724">
        <ele>1179.1999511719</ele>
        <time>2022-08-20T15:19:04Z</time>
      </trkpt>
      <trkpt lat="44.09375" lon="6.51723">
        <ele>1179.4000244141</ele>
        <time>2022-08-20T15:19:05Z</time>
      </trkpt>
      <trkpt lat="44.09383" lon="6.51723">
        <ele>1180.1999511719</ele>
        <time>2022-08-20T15:19:11Z</time>
      </trkpt>
      <trkpt lat="44.09383" lon="6.51723">
        <ele>1180.4000244141</ele>
        <time>2022-08-20T15:19:12Z</time>
      </trkpt>
      <trkpt lat="44.09385" lon="6.51721">
        <ele>1180.4000244141</ele>
        <time>2022-08-20T15:19:14Z</time>
      </trkpt>
      <trkpt lat="44.09386" lon="6.5172">
        <ele>1180.5999755859</ele>
        <time>2022-08-20T15:19:15Z</time>
      </trkpt>
      <trkpt lat="44.09387" lon="6.51719">
        <ele>1180.5999755859</ele>
        <time>2022-08-20T15:19:16Z</time>
      </trkpt>
      <trkpt lat="44.09387" lon="6.51718">
        <ele>1180.8000488281</ele>
        <time>2022-08-20T15:19:17Z</time>
      </trkpt>
      <trkpt lat="44.09387" lon="6.51719">
        <ele>1181</ele>
        <time>2022-08-20T15:19:21Z</time>
      </trkpt>
      <trkpt lat="44.09387" lon="6.51719">
        <ele>1181</ele>
        <time>2022-08-20T15:19:24Z</time>
      </trkpt>
      <trkpt lat="44.09387" lon="6.51719">
        <ele>1181</ele>
        <time>2022-08-20T15:19:25Z</time>
      </trkpt>
      <trkpt lat="44.09388" lon="6.51719">
        <ele>1181</ele>
        <time>2022-08-20T15:19:28Z</time>
      </trkpt>
      <trkpt lat="44.09388" lon="6.51719">
        <ele>1180.8000488281</ele>
        <time>2022-08-20T15:19:32Z</time>
      </trkpt>
      <trkpt lat="44.09388" lon="6.51719">
        <ele>1180.8000488281</ele>
        <time>2022-08-20T15:19:36Z</time>
      </trkpt>
      <trkpt lat="44.09388" lon="6.51719">
        <ele>1180.8000488281</ele>
        <time>2022-08-20T15:19:38Z</time>
      </trkpt>
      <trkpt lat="44.09388" lon="6.51719">
        <ele>1180.8000488281</ele>
        <time>2022-08-20T15:19:40Z</time>
      </trkpt>
      <trkpt lat="44.09388" lon="6.51719">
        <ele>1180.5999755859</ele>
        <time>2022-08-20T15:19:42Z</time>
      </trkpt>
      <trkpt lat="44.09388" lon="6.51719">
        <ele>1180.5999755859</ele>
        <time>2022-08-20T15:19:44Z</time>
      </trkpt>
      <trkpt lat="44.09388" lon="6.51719">
        <ele>1180.5999755859</ele>
        <time>2022-08-20T15:19:51Z</time>
      </trkpt>
      <trkpt lat="44.09388" lon="6.51719">
        <ele>1180.5999755859</ele>
        <time>2022-08-20T15:19:59Z</time>
      </trkpt>
      <trkpt lat="44.09391" lon="6.51712">
        <ele>1180.1999511719</ele>
        <time>2022-08-20T15:20:07Z</time>
      </trkpt>
      <trkpt lat="44.09394" lon="6.51706">
        <ele>1180</ele>
        <time>2022-08-20T15:20:09Z</time>
      </trkpt>
      <trkpt lat="44.094" lon="6.51693">
        <ele>1179.1999511719</ele>
        <time>2022-08-20T15:20:12Z</time>
      </trkpt>
      <trkpt lat="44.09402" lon="6.51688">
        <ele>1179</ele>
        <time>2022-08-20T15:20:13Z</time>
      </trkpt>
      <trkpt lat="44.09402" lon="6.51682">
        <ele>1178.4000244141</ele>
        <time>2022-08-20T15:20:14Z</time>
      </trkpt>
      <trkpt lat="44.09402" lon="6.51676">
        <ele>1178</ele>
        <time>2022-08-20T15:20:15Z</time>
      </trkpt>
      <trkpt lat="44.09398" lon="6.51661">
        <ele>1176.8000488281</ele>
        <time>2022-08-20T15:20:17Z</time>
      </trkpt>
      <trkpt lat="44.09392" lon="6.51645">
        <ele>1175.8000488281</ele>
        <time>2022-08-20T15:20:19Z</time>
      </trkpt>
      <trkpt lat="44.09384" lon="6.51625">
        <ele>1174.8000488281</ele>
        <time>2022-08-20T15:20:22Z</time>
      </trkpt>
      <trkpt lat="44.09383" lon="6.5162">
        <ele>1174.5999755859</ele>
        <time>2022-08-20T15:20:23Z</time>
      </trkpt>
      <trkpt lat="44.09381" lon="6.51615">
        <ele>1174.4000244141</ele>
        <time>2022-08-20T15:20:24Z</time>
      </trkpt>
      <trkpt lat="44.09379" lon="6.51609">
        <ele>1174.1999511719</ele>
        <time>2022-08-20T15:20:25Z</time>
      </trkpt>
      <trkpt lat="44.09378" lon="6.51603">
        <ele>1174.1999511719</ele>
        <time>2022-08-20T15:20:26Z</time>
      </trkpt>
      <trkpt lat="44.09377" lon="6.51591">
        <ele>1173.8000488281</ele>
        <time>2022-08-20T15:20:28Z</time>
      </trkpt>
      <trkpt lat="44.09377" lon="6.51581">
        <ele>1173.5999755859</ele>
        <time>2022-08-20T15:20:30Z</time>
      </trkpt>
      <trkpt lat="44.09379" lon="6.51565">
        <ele>1173.8000488281</ele>
        <time>2022-08-20T15:20:34Z</time>
      </trkpt>
      <trkpt lat="44.09386" lon="6.51545">
        <ele>1174.1999511719</ele>
        <time>2022-08-20T15:20:40Z</time>
      </trkpt>
      <trkpt lat="44.09388" lon="6.51538">
        <ele>1174.4000244141</ele>
        <time>2022-08-20T15:20:42Z</time>
      </trkpt>
      <trkpt lat="44.09389" lon="6.51534">
        <ele>1174.4000244141</ele>
        <time>2022-08-20T15:20:43Z</time>
      </trkpt>
      <trkpt lat="44.0939" lon="6.51527">
        <ele>1174.5999755859</ele>
        <time>2022-08-20T15:20:45Z</time>
      </trkpt>
      <trkpt lat="44.09391" lon="6.51516">
        <ele>1175.1999511719</ele>
        <time>2022-08-20T15:20:48Z</time>
      </trkpt>
      <trkpt lat="44.09393" lon="6.51506">
        <ele>1175.8000488281</ele>
        <time>2022-08-20T15:20:51Z</time>
      </trkpt>
      <trkpt lat="44.09395" lon="6.51491">
        <ele>1176.5999755859</ele>
        <time>2022-08-20T15:20:55Z</time>
      </trkpt>
      <trkpt lat="44.09396" lon="6.51487">
        <ele>1176.5999755859</ele>
        <time>2022-08-20T15:20:56Z</time>
      </trkpt>
      <trkpt lat="44.09397" lon="6.51479">
        <ele>1176.8000488281</ele>
        <time>2022-08-20T15:20:58Z</time>
      </trkpt>
      <trkpt lat="44.09399" lon="6.51469">
        <ele>1177.1999511719</ele>
        <time>2022-08-20T15:21:01Z</time>
      </trkpt>
      <trkpt lat="44.09401" lon="6.5146">
        <ele>1177.5999755859</ele>
        <time>2022-08-20T15:21:04Z</time>
      </trkpt>
      <trkpt lat="44.09402" lon="6.51457">
        <ele>1177.8000488281</ele>
        <time>2022-08-20T15:21:05Z</time>
      </trkpt>
      <trkpt lat="44.09402" lon="6.51454">
        <ele>1177.8000488281</ele>
        <time>2022-08-20T15:21:06Z</time>
      </trkpt>
      <trkpt lat="44.09403" lon="6.51451">
        <ele>1178</ele>
        <time>2022-08-20T15:21:07Z</time>
      </trkpt>
      <trkpt lat="44.09404" lon="6.51431">
        <ele>1178.4000244141</ele>
        <time>2022-08-20T15:21:13Z</time>
      </trkpt>
      <trkpt lat="44.09403" lon="6.51414">
        <ele>1179</ele>
        <time>2022-08-20T15:21:18Z</time>
      </trkpt>
      <trkpt lat="44.09401" lon="6.514">
        <ele>1180</ele>
        <time>2022-08-20T15:21:22Z</time>
      </trkpt>
      <trkpt lat="44.09401" lon="6.51397">
        <ele>1180.1999511719</ele>
        <time>2022-08-20T15:21:23Z</time>
      </trkpt>
      <trkpt lat="44.09399" lon="6.51381">
        <ele>1181</ele>
        <time>2022-08-20T15:21:29Z</time>
      </trkpt>
      <trkpt lat="44.09396" lon="6.51353">
        <ele>1179.8000488281</ele>
        <time>2022-08-20T15:21:37Z</time>
      </trkpt>
      <trkpt lat="44.09393" lon="6.51345">
        <ele>1179.1999511719</ele>
        <time>2022-08-20T15:21:39Z</time>
      </trkpt>
      <trkpt lat="44.09387" lon="6.51329">
        <ele>1178.4000244141</ele>
        <time>2022-08-20T15:21:43Z</time>
      </trkpt>
      <trkpt lat="44.09385" lon="6.51325">
        <ele>1178</ele>
        <time>2022-08-20T15:21:44Z</time>
      </trkpt>
      <trkpt lat="44.09381" lon="6.51316">
        <ele>1177.1999511719</ele>
        <time>2022-08-20T15:21:46Z</time>
      </trkpt>
      <trkpt lat="44.09379" lon="6.51312">
        <ele>1176.8000488281</ele>
        <time>2022-08-20T15:21:47Z</time>
      </trkpt>
      <trkpt lat="44.09374" lon="6.51299">
        <ele>1175.8000488281</ele>
        <time>2022-08-20T15:21:50Z</time>
      </trkpt>
      <trkpt lat="44.09373" lon="6.51294">
        <ele>1175.4000244141</ele>
        <time>2022-08-20T15:21:51Z</time>
      </trkpt>
      <trkpt lat="44.09371" lon="6.51282">
        <ele>1174.1999511719</ele>
        <time>2022-08-20T15:21:53Z</time>
      </trkpt>
      <trkpt lat="44.0937" lon="6.5127">
        <ele>1173</ele>
        <time>2022-08-20T15:21:55Z</time>
      </trkpt>
      <trkpt lat="44.0937" lon="6.51263">
        <ele>1172.5999755859</ele>
        <time>2022-08-20T15:21:56Z</time>
      </trkpt>
      <trkpt lat="44.09369" lon="6.51256">
        <ele>1172</ele>
        <time>2022-08-20T15:21:57Z</time>
      </trkpt>
      <trkpt lat="44.09369" lon="6.51247">
        <ele>1171.1999511719</ele>
        <time>2022-08-20T15:21:58Z</time>
      </trkpt>
      <trkpt lat="44.09369" lon="6.51237">
        <ele>1170.1999511719</ele>
        <time>2022-08-20T15:21:59Z</time>
      </trkpt>
      <trkpt lat="44.09368" lon="6.51217">
        <ele>1168.1999511719</ele>
        <time>2022-08-20T15:22:01Z</time>
      </trkpt>
      <trkpt lat="44.09368" lon="6.51207">
        <ele>1167.4000244141</ele>
        <time>2022-08-20T15:22:02Z</time>
      </trkpt>
      <trkpt lat="44.09369" lon="6.51196">
        <ele>1166.5999755859</ele>
        <time>2022-08-20T15:22:03Z</time>
      </trkpt>
      <trkpt lat="44.09369" lon="6.51185">
        <ele>1166.1999511719</ele>
        <time>2022-08-20T15:22:04Z</time>
      </trkpt>
      <trkpt lat="44.09365" lon="6.51166">
        <ele>1165.5999755859</ele>
        <time>2022-08-20T15:22:06Z</time>
      </trkpt>
      <trkpt lat="44.09362" lon="6.51158">
        <ele>1165.5999755859</ele>
        <time>2022-08-20T15:22:07Z</time>
      </trkpt>
      <trkpt lat="44.09359" lon="6.5115">
        <ele>1165.5999755859</ele>
        <time>2022-08-20T15:22:08Z</time>
      </trkpt>
      <trkpt lat="44.09352" lon="6.51138">
        <ele>1166</ele>
        <time>2022-08-20T15:22:10Z</time>
      </trkpt>
      <trkpt lat="44.09351" lon="6.51132">
        <ele>1166.1999511719</ele>
        <time>2022-08-20T15:22:11Z</time>
      </trkpt>
      <trkpt lat="44.0935" lon="6.51126">
        <ele>1166.4000244141</ele>
        <time>2022-08-20T15:22:12Z</time>
      </trkpt>
      <trkpt lat="44.09349" lon="6.51119">
        <ele>1166.5999755859</ele>
        <time>2022-08-20T15:22:13Z</time>
      </trkpt>
      <trkpt lat="44.09349" lon="6.51108">
        <ele>1167</ele>
        <time>2022-08-20T15:22:15Z</time>
      </trkpt>
      <trkpt lat="44.09349" lon="6.51072">
        <ele>1167.1999511719</ele>
        <time>2022-08-20T15:22:21Z</time>
      </trkpt>
      <trkpt lat="44.09348" lon="6.51049">
        <ele>1166.5999755859</ele>
        <time>2022-08-20T15:22:25Z</time>
      </trkpt>
      <trkpt lat="44.09345" lon="6.51036">
        <ele>1165.8000488281</ele>
        <time>2022-08-20T15:22:27Z</time>
      </trkpt>
      <trkpt lat="44.09343" lon="6.51028">
        <ele>1165.4000244141</ele>
        <time>2022-08-20T15:22:28Z</time>
      </trkpt>
      <trkpt lat="44.09339" lon="6.51011">
        <ele>1164.1999511719</ele>
        <time>2022-08-20T15:22:30Z</time>
      </trkpt>
      <trkpt lat="44.09334" lon="6.50985">
        <ele>1163.1999511719</ele>
        <time>2022-08-20T15:22:33Z</time>
      </trkpt>
      <trkpt lat="44.09334" lon="6.50976">
        <ele>1163</ele>
        <time>2022-08-20T15:22:34Z</time>
      </trkpt>
      <trkpt lat="44.09332" lon="6.50946">
        <ele>1161.8000488281</ele>
        <time>2022-08-20T15:22:38Z</time>
      </trkpt>
      <trkpt lat="44.0933" lon="6.50931">
        <ele>1161.1999511719</ele>
        <time>2022-08-20T15:22:40Z</time>
      </trkpt>
      <trkpt lat="44.09328" lon="6.50924">
        <ele>1161</ele>
        <time>2022-08-20T15:22:41Z</time>
      </trkpt>
      <trkpt lat="44.09327" lon="6.50916">
        <ele>1160.5999755859</ele>
        <time>2022-08-20T15:22:42Z</time>
      </trkpt>
      <trkpt lat="44.0932" lon="6.50896">
        <ele>1159.5999755859</ele>
        <time>2022-08-20T15:22:45Z</time>
      </trkpt>
      <trkpt lat="44.09318" lon="6.50891">
        <ele>1159.1999511719</ele>
        <time>2022-08-20T15:22:46Z</time>
      </trkpt>
      <trkpt lat="44.09313" lon="6.50878">
        <ele>1158.4000244141</ele>
        <time>2022-08-20T15:22:48Z</time>
      </trkpt>
      <trkpt lat="44.09311" lon="6.50871">
        <ele>1157.8000488281</ele>
        <time>2022-08-20T15:22:49Z</time>
      </trkpt>
      <trkpt lat="44.09307" lon="6.50859">
        <ele>1157</ele>
        <time>2022-08-20T15:22:51Z</time>
      </trkpt>
      <trkpt lat="44.09304" lon="6.50848">
        <ele>1156.1999511719</ele>
        <time>2022-08-20T15:22:53Z</time>
      </trkpt>
      <trkpt lat="44.09303" lon="6.50843">
        <ele>1156</ele>
        <time>2022-08-20T15:22:54Z</time>
      </trkpt>
      <trkpt lat="44.09299" lon="6.50829">
        <ele>1155</ele>
        <time>2022-08-20T15:22:57Z</time>
      </trkpt>
      <trkpt lat="44.09297" lon="6.50824">
        <ele>1154.8000488281</ele>
        <time>2022-08-20T15:22:58Z</time>
      </trkpt>
      <trkpt lat="44.09294" lon="6.50811">
        <ele>1154.1999511719</ele>
        <time>2022-08-20T15:23:00Z</time>
      </trkpt>
      <trkpt lat="44.09292" lon="6.50804">
        <ele>1153.5999755859</ele>
        <time>2022-08-20T15:23:01Z</time>
      </trkpt>
      <trkpt lat="44.09285" lon="6.5078">
        <ele>1152</ele>
        <time>2022-08-20T15:23:04Z</time>
      </trkpt>
      <trkpt lat="44.0928" lon="6.50762">
        <ele>1151</ele>
        <time>2022-08-20T15:23:06Z</time>
      </trkpt>
      <trkpt lat="44.09274" lon="6.50741">
        <ele>1149.5999755859</ele>
        <time>2022-08-20T15:23:08Z</time>
      </trkpt>
      <trkpt lat="44.09269" lon="6.50719">
        <ele>1148.5999755859</ele>
        <time>2022-08-20T15:23:10Z</time>
      </trkpt>
      <trkpt lat="44.09267" lon="6.50709">
        <ele>1148</ele>
        <time>2022-08-20T15:23:11Z</time>
      </trkpt>
      <trkpt lat="44.09262" lon="6.50689">
        <ele>1147.1999511719</ele>
        <time>2022-08-20T15:23:13Z</time>
      </trkpt>
      <trkpt lat="44.09254" lon="6.50668">
        <ele>1145.5999755859</ele>
        <time>2022-08-20T15:23:15Z</time>
      </trkpt>
      <trkpt lat="44.0925" lon="6.50658">
        <ele>1145.1999511719</ele>
        <time>2022-08-20T15:23:16Z</time>
      </trkpt>
      <trkpt lat="44.09242" lon="6.50637">
        <ele>1144.5999755859</ele>
        <time>2022-08-20T15:23:18Z</time>
      </trkpt>
      <trkpt lat="44.09237" lon="6.50617">
        <ele>1144.5999755859</ele>
        <time>2022-08-20T15:23:20Z</time>
      </trkpt>
      <trkpt lat="44.09235" lon="6.50608">
        <ele>1144.8000488281</ele>
        <time>2022-08-20T15:23:21Z</time>
      </trkpt>
      <trkpt lat="44.09225" lon="6.50572">
        <ele>1145.4000244141</ele>
        <time>2022-08-20T15:23:26Z</time>
      </trkpt>
      <trkpt lat="44.09223" lon="6.50565">
        <ele>1145.4000244141</ele>
        <time>2022-08-20T15:23:27Z</time>
      </trkpt>
      <trkpt lat="44.09219" lon="6.50552">
        <ele>1145.8000488281</ele>
        <time>2022-08-20T15:23:29Z</time>
      </trkpt>
      <trkpt lat="44.09209" lon="6.50526">
        <ele>1146.1999511719</ele>
        <time>2022-08-20T15:23:33Z</time>
      </trkpt>
      <trkpt lat="44.09201" lon="6.50507">
        <ele>1146.5999755859</ele>
        <time>2022-08-20T15:23:36Z</time>
      </trkpt>
      <trkpt lat="44.09195" lon="6.50495">
        <ele>1146.8000488281</ele>
        <time>2022-08-20T15:23:38Z</time>
      </trkpt>
      <trkpt lat="44.09189" lon="6.50483">
        <ele>1146.8000488281</ele>
        <time>2022-08-20T15:23:40Z</time>
      </trkpt>
      <trkpt lat="44.09186" lon="6.50478">
        <ele>1147</ele>
        <time>2022-08-20T15:23:41Z</time>
      </trkpt>
      <trkpt lat="44.0918" lon="6.50467">
        <ele>1147.1999511719</ele>
        <time>2022-08-20T15:23:43Z</time>
      </trkpt>
      <trkpt lat="44.09174" lon="6.50457">
        <ele>1147.4000244141</ele>
        <time>2022-08-20T15:23:45Z</time>
      </trkpt>
      <trkpt lat="44.09168" lon="6.50449">
        <ele>1147.8000488281</ele>
        <time>2022-08-20T15:23:47Z</time>
      </trkpt>
      <trkpt lat="44.09165" lon="6.50444">
        <ele>1148</ele>
        <time>2022-08-20T15:23:48Z</time>
      </trkpt>
      <trkpt lat="44.09159" lon="6.50434">
        <ele>1148.1999511719</ele>
        <time>2022-08-20T15:23:50Z</time>
      </trkpt>
      <trkpt lat="44.09156" lon="6.50429">
        <ele>1148.1999511719</ele>
        <time>2022-08-20T15:23:51Z</time>
      </trkpt>
      <trkpt lat="44.09149" lon="6.50412">
        <ele>1148.1999511719</ele>
        <time>2022-08-20T15:23:54Z</time>
      </trkpt>
      <trkpt lat="44.09145" lon="6.504">
        <ele>1148.4000244141</ele>
        <time>2022-08-20T15:23:57Z</time>
      </trkpt>
      <trkpt lat="44.09141" lon="6.50396">
        <ele>1148.5999755859</ele>
        <time>2022-08-20T15:23:59Z</time>
      </trkpt>
      <trkpt lat="44.09136" lon="6.50396">
        <ele>1148.8000488281</ele>
        <time>2022-08-20T15:24:01Z</time>
      </trkpt>
      <trkpt lat="44.09134" lon="6.50397">
        <ele>1149</ele>
        <time>2022-08-20T15:24:02Z</time>
      </trkpt>
      <trkpt lat="44.09125" lon="6.50397">
        <ele>1148.5999755859</ele>
        <time>2022-08-20T15:24:05Z</time>
      </trkpt>
      <trkpt lat="44.09123" lon="6.50392">
        <ele>1148.4000244141</ele>
        <time>2022-08-20T15:24:06Z</time>
      </trkpt>
      <trkpt lat="44.0912" lon="6.5038">
        <ele>1147.8000488281</ele>
        <time>2022-08-20T15:24:08Z</time>
      </trkpt>
      <trkpt lat="44.0912" lon="6.50371">
        <ele>1147</ele>
        <time>2022-08-20T15:24:10Z</time>
      </trkpt>
      <trkpt lat="44.0912" lon="6.50368">
        <ele>1146.5999755859</ele>
        <time>2022-08-20T15:24:11Z</time>
      </trkpt>
      <trkpt lat="44.09119" lon="6.50362">
        <ele>1146</ele>
        <time>2022-08-20T15:24:15Z</time>
      </trkpt>
      <trkpt lat="44.09119" lon="6.50361">
        <ele>1145.8000488281</ele>
        <time>2022-08-20T15:24:16Z</time>
      </trkpt>
      <trkpt lat="44.09121" lon="6.50359">
        <ele>1145.5999755859</ele>
        <time>2022-08-20T15:24:19Z</time>
      </trkpt>
      <trkpt lat="44.09121" lon="6.50358">
        <ele>1145.4000244141</ele>
        <time>2022-08-20T15:24:21Z</time>
      </trkpt>
      <trkpt lat="44.09122" lon="6.50356">
        <ele>1145.1999511719</ele>
        <time>2022-08-20T15:24:23Z</time>
      </trkpt>
      <trkpt lat="44.09121" lon="6.50354">
        <ele>1145</ele>
        <time>2022-08-20T15:24:26Z</time>
      </trkpt>
      <trkpt lat="44.0912" lon="6.50357">
        <ele>1145</ele>
        <time>2022-08-20T15:24:28Z</time>
      </trkpt>
      <trkpt lat="44.09121" lon="6.50359">
        <ele>1145</ele>
        <time>2022-08-20T15:24:36Z</time>
      </trkpt>
      <trkpt lat="44.0912" lon="6.5036">
        <ele>1145</ele>
        <time>2022-08-20T15:24:39Z</time>
      </trkpt>
      <trkpt lat="44.09121" lon="6.50374">
        <ele>1145.4000244141</ele>
        <time>2022-08-20T15:24:44Z</time>
      </trkpt>
      <trkpt lat="44.09121" lon="6.50379">
        <ele>1145.5999755859</ele>
        <time>2022-08-20T15:24:46Z</time>
      </trkpt>
      <trkpt lat="44.09122" lon="6.50385">
        <ele>1145.8000488281</ele>
        <time>2022-08-20T15:24:48Z</time>
      </trkpt>
      <trkpt lat="44.09126" lon="6.50397">
        <ele>1146.5999755859</ele>
        <time>2022-08-20T15:24:53Z</time>
      </trkpt>
      <trkpt lat="44.09127" lon="6.50398">
        <ele>1146.5999755859</ele>
        <time>2022-08-20T15:24:54Z</time>
      </trkpt>
      <trkpt lat="44.09135" lon="6.50403">
        <ele>1147</ele>
        <time>2022-08-20T15:24:59Z</time>
      </trkpt>
      <trkpt lat="44.09141" lon="6.504">
        <ele>1147.1999511719</ele>
        <time>2022-08-20T15:25:02Z</time>
      </trkpt>
      <trkpt lat="44.09146" lon="6.50397">
        <ele>1147.1999511719</ele>
        <time>2022-08-20T15:25:05Z</time>
      </trkpt>
      <trkpt lat="44.09146" lon="6.50395">
        <ele>1147.4000244141</ele>
        <time>2022-08-20T15:25:06Z</time>
      </trkpt>
      <trkpt lat="44.09148" lon="6.50381">
        <ele>1147.8000488281</ele>
        <time>2022-08-20T15:25:11Z</time>
      </trkpt>
      <trkpt lat="44.09148" lon="6.50374">
        <ele>1147.8000488281</ele>
        <time>2022-08-20T15:25:13Z</time>
      </trkpt>
      <trkpt lat="44.09148" lon="6.5037">
        <ele>1148</ele>
        <time>2022-08-20T15:25:14Z</time>
      </trkpt>
      <trkpt lat="44.09147" lon="6.50339">
        <ele>1148</ele>
        <time>2022-08-20T15:25:22Z</time>
      </trkpt>
      <trkpt lat="44.09146" lon="6.50297">
        <ele>1147.5999755859</ele>
        <time>2022-08-20T15:25:30Z</time>
      </trkpt>
      <trkpt lat="44.09146" lon="6.50285">
        <ele>1147.4000244141</ele>
        <time>2022-08-20T15:25:32Z</time>
      </trkpt>
      <trkpt lat="44.09145" lon="6.50268">
        <ele>1146.8000488281</ele>
        <time>2022-08-20T15:25:35Z</time>
      </trkpt>
      <trkpt lat="44.09144" lon="6.50263">
        <ele>1146.8000488281</ele>
        <time>2022-08-20T15:25:36Z</time>
      </trkpt>
      <trkpt lat="44.09139" lon="6.50242">
        <ele>1146.1999511719</ele>
        <time>2022-08-20T15:25:40Z</time>
      </trkpt>
      <trkpt lat="44.09138" lon="6.5022">
        <ele>1145.8000488281</ele>
        <time>2022-08-20T15:25:44Z</time>
      </trkpt>
      <trkpt lat="44.09137" lon="6.50209">
        <ele>1145.5999755859</ele>
        <time>2022-08-20T15:25:46Z</time>
      </trkpt>
      <trkpt lat="44.09136" lon="6.50204">
        <ele>1145.5999755859</ele>
        <time>2022-08-20T15:25:47Z</time>
      </trkpt>
      <trkpt lat="44.09135" lon="6.50195">
        <ele>1145.4000244141</ele>
        <time>2022-08-20T15:25:49Z</time>
      </trkpt>
      <trkpt lat="44.09135" lon="6.50184">
        <ele>1145</ele>
        <time>2022-08-20T15:25:51Z</time>
      </trkpt>
      <trkpt lat="44.09135" lon="6.50179">
        <ele>1145</ele>
        <time>2022-08-20T15:25:52Z</time>
      </trkpt>
      <trkpt lat="44.09135" lon="6.50159">
        <ele>1144.5999755859</ele>
        <time>2022-08-20T15:25:56Z</time>
      </trkpt>
      <trkpt lat="44.09135" lon="6.50152">
        <ele>1144.4000244141</ele>
        <time>2022-08-20T15:25:58Z</time>
      </trkpt>
      <trkpt lat="44.09135" lon="6.50149">
        <ele>1144.1999511719</ele>
        <time>2022-08-20T15:25:59Z</time>
      </trkpt>
      <trkpt lat="44.09135" lon="6.50138">
        <ele>1143.5999755859</ele>
        <time>2022-08-20T15:26:02Z</time>
      </trkpt>
      <trkpt lat="44.09135" lon="6.50129">
        <ele>1143</ele>
        <time>2022-08-20T15:26:04Z</time>
      </trkpt>
      <trkpt lat="44.09135" lon="6.50115">
        <ele>1142.1999511719</ele>
        <time>2022-08-20T15:26:07Z</time>
      </trkpt>
      <trkpt lat="44.0913" lon="6.50095">
        <ele>1141.5999755859</ele>
        <time>2022-08-20T15:26:11Z</time>
      </trkpt>
      <trkpt lat="44.09127" lon="6.50075">
        <ele>1141.1999511719</ele>
        <time>2022-08-20T15:26:18Z</time>
      </trkpt>
      <trkpt lat="44.09127" lon="6.50071">
        <ele>1141</ele>
        <time>2022-08-20T15:26:19Z</time>
      </trkpt>
      <trkpt lat="44.09125" lon="6.50053">
        <ele>1140</ele>
        <time>2022-08-20T15:26:24Z</time>
      </trkpt>
      <trkpt lat="44.0912" lon="6.50035">
        <ele>1139.1999511719</ele>
        <time>2022-08-20T15:26:29Z</time>
      </trkpt>
      <trkpt lat="44.09117" lon="6.50022">
        <ele>1139.1999511719</ele>
        <time>2022-08-20T15:26:35Z</time>
      </trkpt>
      <trkpt lat="44.09115" lon="6.50009">
        <ele>1139</ele>
        <time>2022-08-20T15:26:40Z</time>
      </trkpt>
      <trkpt lat="44.09114" lon="6.50004">
        <ele>1139</ele>
        <time>2022-08-20T15:26:42Z</time>
      </trkpt>
      <trkpt lat="44.09112" lon="6.49989">
        <ele>1139.4000244141</ele>
        <time>2022-08-20T15:26:48Z</time>
      </trkpt>
      <trkpt lat="44.09112" lon="6.49983">
        <ele>1139.4000244141</ele>
        <time>2022-08-20T15:26:50Z</time>
      </trkpt>
      <trkpt lat="44.09111" lon="6.49974">
        <ele>1139.5999755859</ele>
        <time>2022-08-20T15:26:53Z</time>
      </trkpt>
      <trkpt lat="44.09111" lon="6.49968">
        <ele>1139.5999755859</ele>
        <time>2022-08-20T15:26:55Z</time>
      </trkpt>
      <trkpt lat="44.09109" lon="6.49962">
        <ele>1139.8000488281</ele>
        <time>2022-08-20T15:26:58Z</time>
      </trkpt>
      <trkpt lat="44.09106" lon="6.49961">
        <ele>1139.8000488281</ele>
        <time>2022-08-20T15:27:00Z</time>
      </trkpt>
      <trkpt lat="44.09086" lon="6.49961">
        <ele>1138</ele>
        <time>2022-08-20T15:27:08Z</time>
      </trkpt>
      <trkpt lat="44.09077" lon="6.49957">
        <ele>1136.8000488281</ele>
        <time>2022-08-20T15:27:12Z</time>
      </trkpt>
      <trkpt lat="44.09072" lon="6.49955">
        <ele>1136.5999755859</ele>
        <time>2022-08-20T15:27:14Z</time>
      </trkpt>
      <trkpt lat="44.09065" lon="6.49948">
        <ele>1135.8000488281</ele>
        <time>2022-08-20T15:27:17Z</time>
      </trkpt>
      <trkpt lat="44.09062" lon="6.49941">
        <ele>1135.5999755859</ele>
        <time>2022-08-20T15:27:19Z</time>
      </trkpt>
      <trkpt lat="44.0906" lon="6.49927">
        <ele>1135.4000244141</ele>
        <time>2022-08-20T15:27:25Z</time>
      </trkpt>
      <trkpt lat="44.09058" lon="6.4992">
        <ele>1135.4000244141</ele>
        <time>2022-08-20T15:27:31Z</time>
      </trkpt>
      <trkpt lat="44.09058" lon="6.49914">
        <ele>1135.1999511719</ele>
        <time>2022-08-20T15:27:35Z</time>
      </trkpt>
      <trkpt lat="44.09056" lon="6.49913">
        <ele>1135.1999511719</ele>
        <time>2022-08-20T15:27:37Z</time>
      </trkpt>
      <trkpt lat="44.09056" lon="6.49914">
        <ele>1135.1999511719</ele>
        <time>2022-08-20T15:27:38Z</time>
      </trkpt>
      <trkpt lat="44.09056" lon="6.4992">
        <ele>1135.4000244141</ele>
        <time>2022-08-20T15:27:42Z</time>
      </trkpt>
      <trkpt lat="44.09053" lon="6.49928">
        <ele>1135.5999755859</ele>
        <time>2022-08-20T15:27:47Z</time>
      </trkpt>
      <trkpt lat="44.09054" lon="6.49931">
        <ele>1135.5999755859</ele>
        <time>2022-08-20T15:27:49Z</time>
      </trkpt>
      <trkpt lat="44.09055" lon="6.49932">
        <ele>1135.4000244141</ele>
        <time>2022-08-20T15:27:50Z</time>
      </trkpt>
      <trkpt lat="44.0906" lon="6.49941">
        <ele>1135.1999511719</ele>
        <time>2022-08-20T15:27:55Z</time>
      </trkpt>
      <trkpt lat="44.09062" lon="6.49945">
        <ele>1135.1999511719</ele>
        <time>2022-08-20T15:27:57Z</time>
      </trkpt>
      <trkpt lat="44.09064" lon="6.49951">
        <ele>1135</ele>
        <time>2022-08-20T15:27:59Z</time>
      </trkpt>
      <trkpt lat="44.09065" lon="6.49959">
        <ele>1134.5999755859</ele>
        <time>2022-08-20T15:28:02Z</time>
      </trkpt>
      <trkpt lat="44.09071" lon="6.49979">
        <ele>1134</ele>
        <time>2022-08-20T15:28:09Z</time>
      </trkpt>
      <trkpt lat="44.09072" lon="6.49983">
        <ele>1133.8000488281</ele>
        <time>2022-08-20T15:28:10Z</time>
      </trkpt>
      <trkpt lat="44.09075" lon="6.49988">
        <ele>1133.5999755859</ele>
        <time>2022-08-20T15:28:12Z</time>
      </trkpt>
      <trkpt lat="44.09081" lon="6.50004">
        <ele>1133</ele>
        <time>2022-08-20T15:28:17Z</time>
      </trkpt>
      <trkpt lat="44.09084" lon="6.50035">
        <ele>1132.5999755859</ele>
        <time>2022-08-20T15:28:25Z</time>
      </trkpt>
      <trkpt lat="44.09086" lon="6.50055">
        <ele>1133</ele>
        <time>2022-08-20T15:28:32Z</time>
      </trkpt>
      <trkpt lat="44.09087" lon="6.50068">
        <ele>1133</ele>
        <time>2022-08-20T15:28:38Z</time>
      </trkpt>
      <trkpt lat="44.09087" lon="6.50071">
        <ele>1133</ele>
        <time>2022-08-20T15:28:39Z</time>
      </trkpt>
      <trkpt lat="44.09086" lon="6.50099">
        <ele>1133.4000244141</ele>
        <time>2022-08-20T15:28:48Z</time>
      </trkpt>
      <trkpt lat="44.09088" lon="6.50126">
        <ele>1133.5999755859</ele>
        <time>2022-08-20T15:28:56Z</time>
      </trkpt>
      <trkpt lat="44.09088" lon="6.50135">
        <ele>1133.8000488281</ele>
        <time>2022-08-20T15:28:59Z</time>
      </trkpt>
      <trkpt lat="44.09087" lon="6.50148">
        <ele>1134</ele>
        <time>2022-08-20T15:29:03Z</time>
      </trkpt>
      <trkpt lat="44.09088" lon="6.50176">
        <ele>1134.4000244141</ele>
        <time>2022-08-20T15:29:12Z</time>
      </trkpt>
      <trkpt lat="44.09086" lon="6.50201">
        <ele>1134</ele>
        <time>2022-08-20T15:29:19Z</time>
      </trkpt>
      <trkpt lat="44.09073" lon="6.50232">
        <ele>1133.1999511719</ele>
        <time>2022-08-20T15:29:27Z</time>
      </trkpt>
      <trkpt lat="44.09072" lon="6.50242">
        <ele>1132.8000488281</ele>
        <time>2022-08-20T15:29:31Z</time>
      </trkpt>
      <trkpt lat="44.09073" lon="6.50243">
        <ele>1133</ele>
        <time>2022-08-20T15:29:32Z</time>
      </trkpt>
      <trkpt lat="44.09074" lon="6.50244">
        <ele>1133</ele>
        <time>2022-08-20T15:29:33Z</time>
      </trkpt>
      <trkpt lat="44.09078" lon="6.50243">
        <ele>1133.1999511719</ele>
        <time>2022-08-20T15:29:36Z</time>
      </trkpt>
      <trkpt lat="44.09082" lon="6.50244">
        <ele>1133.1999511719</ele>
        <time>2022-08-20T15:29:39Z</time>
      </trkpt>
      <trkpt lat="44.09085" lon="6.50245">
        <ele>1133.1999511719</ele>
        <time>2022-08-20T15:29:42Z</time>
      </trkpt>
      <trkpt lat="44.09086" lon="6.50243">
        <ele>1133.4000244141</ele>
        <time>2022-08-20T15:29:44Z</time>
      </trkpt>
      <trkpt lat="44.09084" lon="6.50241">
        <ele>1133.4000244141</ele>
        <time>2022-08-20T15:29:47Z</time>
      </trkpt>
      <trkpt lat="44.09082" lon="6.5024">
        <ele>1133.1999511719</ele>
        <time>2022-08-20T15:29:49Z</time>
      </trkpt>
      <trkpt lat="44.09079" lon="6.50241">
        <ele>1133.1999511719</ele>
        <time>2022-08-20T15:29:52Z</time>
      </trkpt>
      <trkpt lat="44.09078" lon="6.50241">
        <ele>1133</ele>
        <time>2022-08-20T15:29:56Z</time>
      </trkpt>
      <trkpt lat="44.09078" lon="6.50242">
        <ele>1133</ele>
        <time>2022-08-20T15:29:57Z</time>
      </trkpt>
      <trkpt lat="44.09078" lon="6.50242">
        <ele>1132.5999755859</ele>
        <time>2022-08-20T15:30:02Z</time>
      </trkpt>
      <trkpt lat="44.09078" lon="6.50242">
        <ele>1132.5999755859</ele>
        <time>2022-08-20T15:30:04Z</time>
      </trkpt>
      <trkpt lat="44.09078" lon="6.50229">
        <ele>1132.8000488281</ele>
        <time>2022-08-20T15:30:15Z</time>
      </trkpt>
      <trkpt lat="44.09082" lon="6.50221">
        <ele>1133.1999511719</ele>
        <time>2022-08-20T15:30:18Z</time>
      </trkpt>
      <trkpt lat="44.09085" lon="6.50212">
        <ele>1133.4000244141</ele>
        <time>2022-08-20T15:30:21Z</time>
      </trkpt>
      <trkpt lat="44.09089" lon="6.50196">
        <ele>1133.5999755859</ele>
        <time>2022-08-20T15:30:26Z</time>
      </trkpt>
      <trkpt lat="44.0909" lon="6.50187">
        <ele>1133.8000488281</ele>
        <time>2022-08-20T15:30:29Z</time>
      </trkpt>
      <trkpt lat="44.09092" lon="6.50151">
        <ele>1134.4000244141</ele>
        <time>2022-08-20T15:30:39Z</time>
      </trkpt>
      <trkpt lat="44.09089" lon="6.50122">
        <ele>1134.4000244141</ele>
        <time>2022-08-20T15:30:45Z</time>
      </trkpt>
      <trkpt lat="44.0909" lon="6.50117">
        <ele>1134.1999511719</ele>
        <time>2022-08-20T15:30:46Z</time>
      </trkpt>
      <trkpt lat="44.09088" lon="6.50082">
        <ele>1133.8000488281</ele>
        <time>2022-08-20T15:30:53Z</time>
      </trkpt>
      <trkpt lat="44.09087" lon="6.50077">
        <ele>1133.5999755859</ele>
        <time>2022-08-20T15:30:54Z</time>
      </trkpt>
      <trkpt lat="44.09086" lon="6.50064">
        <ele>1133.5999755859</ele>
        <time>2022-08-20T15:30:57Z</time>
      </trkpt>
      <trkpt lat="44.09087" lon="6.50047">
        <ele>1133.4000244141</ele>
        <time>2022-08-20T15:31:01Z</time>
      </trkpt>
      <trkpt lat="44.09085" lon="6.5002">
        <ele>1133.1999511719</ele>
        <time>2022-08-20T15:31:07Z</time>
      </trkpt>
      <trkpt lat="44.09082" lon="6.50006">
        <ele>1133.4000244141</ele>
        <time>2022-08-20T15:31:10Z</time>
      </trkpt>
      <trkpt lat="44.09073" lon="6.49983">
        <ele>1133.5999755859</ele>
        <time>2022-08-20T15:31:15Z</time>
      </trkpt>
      <trkpt lat="44.09068" lon="6.49971">
        <ele>1133.8000488281</ele>
        <time>2022-08-20T15:31:18Z</time>
      </trkpt>
      <trkpt lat="44.09064" lon="6.49958">
        <ele>1134.1999511719</ele>
        <time>2022-08-20T15:31:22Z</time>
      </trkpt>
      <trkpt lat="44.09067" lon="6.49949">
        <ele>1134.5999755859</ele>
        <time>2022-08-20T15:31:25Z</time>
      </trkpt>
      <trkpt lat="44.09069" lon="6.49946">
        <ele>1135.1999511719</ele>
        <time>2022-08-20T15:31:27Z</time>
      </trkpt>
      <trkpt lat="44.09071" lon="6.49942">
        <ele>1135.5999755859</ele>
        <time>2022-08-20T15:31:31Z</time>
      </trkpt>
      <trkpt lat="44.09071" lon="6.49942">
        <ele>1135.5999755859</ele>
        <time>2022-08-20T15:31:32Z</time>
      </trkpt>
      <trkpt lat="44.09072" lon="6.49943">
        <ele>1135.4000244141</ele>
        <time>2022-08-20T15:31:38Z</time>
      </trkpt>
      <trkpt lat="44.09075" lon="6.49942">
        <ele>1135.1999511719</ele>
        <time>2022-08-20T15:31:49Z</time>
      </trkpt>
      <trkpt lat="44.09075" lon="6.4994">
        <ele>1134.5999755859</ele>
        <time>2022-08-20T15:32:04Z</time>
      </trkpt>
      <trkpt lat="44.09075" lon="6.49939">
        <ele>1134.5999755859</ele>
        <time>2022-08-20T15:32:15Z</time>
      </trkpt>
      <trkpt lat="44.09076" lon="6.49939">
        <ele>1134.8000488281</ele>
        <time>2022-08-20T15:32:18Z</time>
      </trkpt>
      <trkpt lat="44.09076" lon="6.49939">
        <ele>1134.5999755859</ele>
        <time>2022-08-20T15:32:22Z</time>
      </trkpt>
      <trkpt lat="44.09076" lon="6.49939">
        <ele>1134.1999511719</ele>
        <time>2022-08-20T15:32:26Z</time>
      </trkpt>
      <trkpt lat="44.09076" lon="6.49939">
        <ele>1133.5999755859</ele>
        <time>2022-08-20T15:32:36Z</time>
      </trkpt>
      <trkpt lat="44.09076" lon="6.49939">
        <ele>1133.5999755859</ele>
        <time>2022-08-20T15:32:38Z</time>
      </trkpt>
      <trkpt lat="44.09077" lon="6.49939">
        <ele>1133.5999755859</ele>
        <time>2022-08-20T15:32:39Z</time>
      </trkpt>
      <trkpt lat="44.09077" lon="6.49939">
        <ele>1133.5999755859</ele>
        <time>2022-08-20T15:32:41Z</time>
      </trkpt>
      <trkpt lat="44.09078" lon="6.49937">
        <ele>1133.5999755859</ele>
        <time>2022-08-20T15:32:49Z</time>
      </trkpt>
      <trkpt lat="44.09078" lon="6.49937">
        <ele>1133.5999755859</ele>
        <time>2022-08-20T15:32:51Z</time>
      </trkpt>
      <trkpt lat="44.09078" lon="6.49937">
        <ele>1133.5999755859</ele>
        <time>2022-08-20T15:32:53Z</time>
      </trkpt>
      <trkpt lat="44.09078" lon="6.49937">
        <ele>1133.5999755859</ele>
        <time>2022-08-20T15:32:57Z</time>
      </trkpt>
      <trkpt lat="44.09076" lon="6.49935">
        <ele>1134</ele>
        <time>2022-08-20T15:33:05Z</time>
      </trkpt>
      <trkpt lat="44.09076" lon="6.49937">
        <ele>1133.8000488281</ele>
        <time>2022-08-20T15:33:13Z</time>
      </trkpt>
      <trkpt lat="44.09077" lon="6.49938">
        <ele>1134</ele>
        <time>2022-08-20T15:33:20Z</time>
      </trkpt>
      <trkpt lat="44.09077" lon="6.49939">
        <ele>1133.4000244141</ele>
        <time>2022-08-20T15:33:28Z</time>
      </trkpt>
      <trkpt lat="44.09077" lon="6.4994">
        <ele>1133.4000244141</ele>
        <time>2022-08-20T15:33:30Z</time>
      </trkpt>
      <trkpt lat="44.09077" lon="6.49939">
        <ele>1133.4000244141</ele>
        <time>2022-08-20T15:33:38Z</time>
      </trkpt>
      <trkpt lat="44.09077" lon="6.49938">
        <ele>1133.4000244141</ele>
        <time>2022-08-20T15:33:42Z</time>
      </trkpt>
      <trkpt lat="44.09077" lon="6.49939">
        <ele>1133.4000244141</ele>
        <time>2022-08-20T15:33:44Z</time>
      </trkpt>
      <trkpt lat="44.09077" lon="6.49938">
        <ele>1133.4000244141</ele>
        <time>2022-08-20T15:33:48Z</time>
      </trkpt>
      <trkpt lat="44.09077" lon="6.49939">
        <ele>1133.4000244141</ele>
        <time>2022-08-20T15:34:02Z</time>
      </trkpt>
      <trkpt lat="44.09076" lon="6.49939">
        <ele>1133.4000244141</ele>
        <time>2022-08-20T15:34:11Z</time>
      </trkpt>
      <trkpt lat="44.09073" lon="6.49933">
        <ele>1133.4000244141</ele>
        <time>2022-08-20T15:34:20Z</time>
      </trkpt>
      <trkpt lat="44.09072" lon="6.49933">
        <ele>1133.4000244141</ele>
        <time>2022-08-20T15:34:21Z</time>
      </trkpt>
      <trkpt lat="44.09072" lon="6.49932">
        <ele>1133.4000244141</ele>
        <time>2022-08-20T15:34:22Z</time>
      </trkpt>
      <trkpt lat="44.09072" lon="6.49932">
        <ele>1133.4000244141</ele>
        <time>2022-08-20T15:34:24Z</time>
      </trkpt>
      <trkpt lat="44.09071" lon="6.49931">
        <ele>1133.4000244141</ele>
        <time>2022-08-20T15:34:28Z</time>
      </trkpt>
      <trkpt lat="44.09071" lon="6.49934">
        <ele>1133.4000244141</ele>
        <time>2022-08-20T15:34:32Z</time>
      </trkpt>
      <trkpt lat="44.0907" lon="6.4994">
        <ele>1133.4000244141</ele>
        <time>2022-08-20T15:34:39Z</time>
      </trkpt>
      <trkpt lat="44.09068" lon="6.49941">
        <ele>1133.4000244141</ele>
        <time>2022-08-20T15:34:45Z</time>
      </trkpt>
      <trkpt lat="44.09068" lon="6.4994">
        <ele>1133.4000244141</ele>
        <time>2022-08-20T15:34:48Z</time>
      </trkpt>
      <trkpt lat="44.09066" lon="6.4994">
        <ele>1133.4000244141</ele>
        <time>2022-08-20T15:34:58Z</time>
      </trkpt>
      <trkpt lat="44.09067" lon="6.49938">
        <ele>1133.4000244141</ele>
        <time>2022-08-20T15:35:07Z</time>
      </trkpt>
      <trkpt lat="44.09067" lon="6.49938">
        <ele>1133.4000244141</ele>
        <time>2022-08-20T15:35:10Z</time>
      </trkpt>
      <trkpt lat="44.09066" lon="6.49938">
        <ele>1133.4000244141</ele>
        <time>2022-08-20T15:35:15Z</time>
      </trkpt>
      <trkpt lat="44.09066" lon="6.49938">
        <ele>1133.4000244141</ele>
        <time>2022-08-20T15:35:17Z</time>
      </trkpt>
      <trkpt lat="44.09067" lon="6.4994">
        <ele>1133.4000244141</ele>
        <time>2022-08-20T15:35:28Z</time>
      </trkpt>
      <trkpt lat="44.09067" lon="6.4994">
        <ele>1133.4000244141</ele>
        <time>2022-08-20T15:35:31Z</time>
      </trkpt>
      <trkpt lat="44.09067" lon="6.4994">
        <ele>1133.4000244141</ele>
        <time>2022-08-20T15:35:33Z</time>
      </trkpt>
      <trkpt lat="44.09067" lon="6.4994">
        <ele>1133.4000244141</ele>
        <time>2022-08-20T15:35:35Z</time>
      </trkpt>
      <trkpt lat="44.09068" lon="6.4994">
        <ele>1133.4000244141</ele>
        <time>2022-08-20T15:35:47Z</time>
      </trkpt>
      <trkpt lat="44.09069" lon="6.4994">
        <ele>1133.4000244141</ele>
        <time>2022-08-20T15:36:01Z</time>
      </trkpt>
      <trkpt lat="44.09069" lon="6.4994">
        <ele>1133.4000244141</ele>
        <time>2022-08-20T15:36:03Z</time>
      </trkpt>
      <trkpt lat="44.0907" lon="6.49941">
        <ele>1133.4000244141</ele>
        <time>2022-08-20T15:36:10Z</time>
      </trkpt>
      <trkpt lat="44.0907" lon="6.49941">
        <ele>1133.4000244141</ele>
        <time>2022-08-20T15:36:11Z</time>
      </trkpt>
      <trkpt lat="44.09069" lon="6.4994">
        <ele>1133.4000244141</ele>
        <time>2022-08-20T15:36:14Z</time>
      </trkpt>
      <trkpt lat="44.09066" lon="6.49939">
        <ele>1133.4000244141</ele>
        <time>2022-08-20T15:36:25Z</time>
      </trkpt>
      <trkpt lat="44.09066" lon="6.49939">
        <ele>1133.4000244141</ele>
        <time>2022-08-20T15:36:28Z</time>
      </trkpt>
      <trkpt lat="44.09065" lon="6.4994">
        <ele>1133.4000244141</ele>
        <time>2022-08-20T15:36:32Z</time>
      </trkpt>
      <trkpt lat="44.09065" lon="6.4994">
        <ele>1133.4000244141</ele>
        <time>2022-08-20T15:36:35Z</time>
      </trkpt>
      <trkpt lat="44.09066" lon="6.4994">
        <ele>1133.4000244141</ele>
        <time>2022-08-20T15:36:37Z</time>
      </trkpt>
      <trkpt lat="44.09066" lon="6.4994">
        <ele>1133.4000244141</ele>
        <time>2022-08-20T15:36:39Z</time>
      </trkpt>
      <trkpt lat="44.09067" lon="6.49938">
        <ele>1133.4000244141</ele>
        <time>2022-08-20T15:36:56Z</time>
      </trkpt>
      <trkpt lat="44.09067" lon="6.49936">
        <ele>1133.4000244141</ele>
        <time>2022-08-20T15:37:05Z</time>
      </trkpt>
      <trkpt lat="44.09067" lon="6.49937">
        <ele>1133.4000244141</ele>
        <time>2022-08-20T15:37:13Z</time>
      </trkpt>
      <trkpt lat="44.09068" lon="6.49935">
        <ele>1133.4000244141</ele>
        <time>2022-08-20T15:37:27Z</time>
      </trkpt>
      <trkpt lat="44.09068" lon="6.49935">
        <ele>1133.4000244141</ele>
        <time>2022-08-20T15:37:39Z</time>
      </trkpt>
      <trkpt lat="44.09067" lon="6.49936">
        <ele>1133.4000244141</ele>
        <time>2022-08-20T15:37:53Z</time>
      </trkpt>
      <trkpt lat="44.09067" lon="6.49936">
        <ele>1133.4000244141</ele>
        <time>2022-08-20T15:38:01Z</time>
      </trkpt>
      <trkpt lat="44.09067" lon="6.49936">
        <ele>1133.4000244141</ele>
        <time>2022-08-20T15:38:04Z</time>
      </trkpt>
      <trkpt lat="44.09067" lon="6.49936">
        <ele>1133.4000244141</ele>
        <time>2022-08-20T15:38:06Z</time>
      </trkpt>
      <trkpt lat="44.09066" lon="6.49934">
        <ele>1133.4000244141</ele>
        <time>2022-08-20T15:38:21Z</time>
      </trkpt>
      <trkpt lat="44.09066" lon="6.49933">
        <ele>1133.4000244141</ele>
        <time>2022-08-20T15:38:32Z</time>
      </trkpt>
      <trkpt lat="44.09066" lon="6.49933">
        <ele>1133.4000244141</ele>
        <time>2022-08-20T15:38:33Z</time>
      </trkpt>
      <trkpt lat="44.09067" lon="6.49934">
        <ele>1133.4000244141</ele>
        <time>2022-08-20T15:38:45Z</time>
      </trkpt>
      <trkpt lat="44.09067" lon="6.49933">
        <ele>1133.4000244141</ele>
        <time>2022-08-20T15:38:55Z</time>
      </trkpt>
      <trkpt lat="44.09066" lon="6.49933">
        <ele>1133.4000244141</ele>
        <time>2022-08-20T15:39:08Z</time>
      </trkpt>
      <trkpt lat="44.09068" lon="6.49935">
        <ele>1133.4000244141</ele>
        <time>2022-08-20T15:39:13Z</time>
      </trkpt>
      <trkpt lat="44.09069" lon="6.49936">
        <ele>1133.4000244141</ele>
        <time>2022-08-20T15:39:15Z</time>
      </trkpt>
      <trkpt lat="44.0907" lon="6.49937">
        <ele>1133.4000244141</ele>
        <time>2022-08-20T15:39:18Z</time>
      </trkpt>
      <trkpt lat="44.0907" lon="6.49938">
        <ele>1133.4000244141</ele>
        <time>2022-08-20T15:39:20Z</time>
      </trkpt>
      <trkpt lat="44.09071" lon="6.49938">
        <ele>1133.4000244141</ele>
        <time>2022-08-20T15:39:26Z</time>
      </trkpt>
      <trkpt lat="44.09071" lon="6.49938">
        <ele>1133.4000244141</ele>
        <time>2022-08-20T15:39:35Z</time>
      </trkpt>
      <trkpt lat="44.0907" lon="6.49938">
        <ele>1133.4000244141</ele>
        <time>2022-08-20T15:39:40Z</time>
      </trkpt>
      <trkpt lat="44.09069" lon="6.49935">
        <ele>1133.4000244141</ele>
        <time>2022-08-20T15:39:48Z</time>
      </trkpt>
      <trkpt lat="44.09069" lon="6.49935">
        <ele>1133.4000244141</ele>
        <time>2022-08-20T15:39:49Z</time>
      </trkpt>
      <trkpt lat="44.09069" lon="6.49933">
        <ele>1133.4000244141</ele>
        <time>2022-08-20T15:39:57Z</time>
      </trkpt>
      <trkpt lat="44.09069" lon="6.49933">
        <ele>1133.4000244141</ele>
        <time>2022-08-20T15:39:59Z</time>
      </trkpt>
      <trkpt lat="44.0907" lon="6.49933">
        <ele>1133.4000244141</ele>
        <time>2022-08-20T15:40:01Z</time>
      </trkpt>
      <trkpt lat="44.0907" lon="6.49933">
        <ele>1133.4000244141</ele>
        <time>2022-08-20T15:40:12Z</time>
      </trkpt>
      <trkpt lat="44.09071" lon="6.49933">
        <ele>1133.4000244141</ele>
        <time>2022-08-20T15:40:29Z</time>
      </trkpt>
      <trkpt lat="44.0907" lon="6.49933">
        <ele>1133.4000244141</ele>
        <time>2022-08-20T15:40:40Z</time>
      </trkpt>
      <trkpt lat="44.0907" lon="6.49931">
        <ele>1133.4000244141</ele>
        <time>2022-08-20T15:40:53Z</time>
      </trkpt>
      <trkpt lat="44.0907" lon="6.49931">
        <ele>1133.4000244141</ele>
        <time>2022-08-20T15:40:55Z</time>
      </trkpt>
      <trkpt lat="44.09069" lon="6.49931">
        <ele>1133.4000244141</ele>
        <time>2022-08-20T15:41:01Z</time>
      </trkpt>
      <trkpt lat="44.09069" lon="6.49932">
        <ele>1133.4000244141</ele>
        <time>2022-08-20T15:41:03Z</time>
      </trkpt>
      <trkpt lat="44.09069" lon="6.49933">
        <ele>1133.4000244141</ele>
        <time>2022-08-20T15:41:15Z</time>
      </trkpt>
      <trkpt lat="44.0907" lon="6.49933">
        <ele>1133.4000244141</ele>
        <time>2022-08-20T15:41:26Z</time>
      </trkpt>
      <trkpt lat="44.0907" lon="6.49933">
        <ele>1133.4000244141</ele>
        <time>2022-08-20T15:41:29Z</time>
      </trkpt>
      <trkpt lat="44.0907" lon="6.49933">
        <ele>1133.4000244141</ele>
        <time>2022-08-20T15:41:34Z</time>
      </trkpt>
      <trkpt lat="44.09069" lon="6.49933">
        <ele>1133.4000244141</ele>
        <time>2022-08-20T15:41:37Z</time>
      </trkpt>
      <trkpt lat="44.09069" lon="6.49933">
        <ele>1133.4000244141</ele>
        <time>2022-08-20T15:41:42Z</time>
      </trkpt>
      <trkpt lat="44.09069" lon="6.49933">
        <ele>1133.4000244141</ele>
        <time>2022-08-20T15:41:50Z</time>
      </trkpt>
      <trkpt lat="44.09069" lon="6.49932">
        <ele>1133.4000244141</ele>
        <time>2022-08-20T15:41:53Z</time>
      </trkpt>
      <trkpt lat="44.09069" lon="6.49932">
        <ele>1133.4000244141</ele>
        <time>2022-08-20T15:41:55Z</time>
      </trkpt>
      <trkpt lat="44.09069" lon="6.49933">
        <ele>1133.4000244141</ele>
        <time>2022-08-20T15:42:05Z</time>
      </trkpt>
      <trkpt lat="44.09069" lon="6.49933">
        <ele>1133.4000244141</ele>
        <time>2022-08-20T15:42:10Z</time>
      </trkpt>
      <trkpt lat="44.09069" lon="6.49933">
        <ele>1133.4000244141</ele>
        <time>2022-08-20T15:42:15Z</time>
      </trkpt>
      <trkpt lat="44.09069" lon="6.49933">
        <ele>1133.4000244141</ele>
        <time>2022-08-20T15:42:20Z</time>
      </trkpt>
      <trkpt lat="44.09069" lon="6.49934">
        <ele>1133.4000244141</ele>
        <time>2022-08-20T15:42:32Z</time>
      </trkpt>
      <trkpt lat="44.09069" lon="6.49934">
        <ele>1133.4000244141</ele>
        <time>2022-08-20T15:42:38Z</time>
      </trkpt>
      <trkpt lat="44.09069" lon="6.49934">
        <ele>1133.4000244141</ele>
        <time>2022-08-20T15:42:41Z</time>
      </trkpt>
      <trkpt lat="44.0907" lon="6.49932">
        <ele>1133.4000244141</ele>
        <time>2022-08-20T15:42:50Z</time>
      </trkpt>
      <trkpt lat="44.09069" lon="6.49933">
        <ele>1133.4000244141</ele>
        <time>2022-08-20T15:43:01Z</time>
      </trkpt>
      <trkpt lat="44.09069" lon="6.49932">
        <ele>1133.4000244141</ele>
        <time>2022-08-20T15:43:13Z</time>
      </trkpt>
      <trkpt lat="44.09069" lon="6.49931">
        <ele>1133.4000244141</ele>
        <time>2022-08-20T15:43:18Z</time>
      </trkpt>
      <trkpt lat="44.09069" lon="6.49929">
        <ele>1133.4000244141</ele>
        <time>2022-08-20T15:43:28Z</time>
      </trkpt>
      <trkpt lat="44.0907" lon="6.49927">
        <ele>1133.4000244141</ele>
        <time>2022-08-20T15:43:36Z</time>
      </trkpt>
      <trkpt lat="44.0907" lon="6.49927">
        <ele>1133.4000244141</ele>
        <time>2022-08-20T15:43:42Z</time>
      </trkpt>
      <trkpt lat="44.0907" lon="6.49926">
        <ele>1133.4000244141</ele>
        <time>2022-08-20T15:43:51Z</time>
      </trkpt>
      <trkpt lat="44.0907" lon="6.49926">
        <ele>1133.4000244141</ele>
        <time>2022-08-20T15:43:56Z</time>
      </trkpt>
      <trkpt lat="44.0907" lon="6.49927">
        <ele>1133.4000244141</ele>
        <time>2022-08-20T15:44:00Z</time>
      </trkpt>
      <trkpt lat="44.09069" lon="6.49924">
        <ele>1133.4000244141</ele>
        <time>2022-08-20T15:44:16Z</time>
      </trkpt>
      <trkpt lat="44.0907" lon="6.49924">
        <ele>1133.4000244141</ele>
        <time>2022-08-20T15:44:23Z</time>
      </trkpt>
      <trkpt lat="44.0907" lon="6.49926">
        <ele>1133.4000244141</ele>
        <time>2022-08-20T15:44:33Z</time>
      </trkpt>
      <trkpt lat="44.09071" lon="6.49925">
        <ele>1133.4000244141</ele>
        <time>2022-08-20T15:44:46Z</time>
      </trkpt>
      <trkpt lat="44.09071" lon="6.49925">
        <ele>1133.4000244141</ele>
        <time>2022-08-20T15:44:59Z</time>
      </trkpt>
      <trkpt lat="44.09072" lon="6.49926">
        <ele>1133.4000244141</ele>
        <time>2022-08-20T15:45:03Z</time>
      </trkpt>
      <trkpt lat="44.09072" lon="6.49927">
        <ele>1133.4000244141</ele>
        <time>2022-08-20T15:45:10Z</time>
      </trkpt>
      <trkpt lat="44.09072" lon="6.49927">
        <ele>1133.4000244141</ele>
        <time>2022-08-20T15:45:14Z</time>
      </trkpt>
      <trkpt lat="44.09073" lon="6.49927">
        <ele>1133.4000244141</ele>
        <time>2022-08-20T15:45:27Z</time>
      </trkpt>
      <trkpt lat="44.09073" lon="6.49928">
        <ele>1133.4000244141</ele>
        <time>2022-08-20T15:45:39Z</time>
      </trkpt>
      <trkpt lat="44.09072" lon="6.49929">
        <ele>1133.4000244141</ele>
        <time>2022-08-20T15:45:42Z</time>
      </trkpt>
      <trkpt lat="44.09071" lon="6.49929">
        <ele>1133.4000244141</ele>
        <time>2022-08-20T15:45:56Z</time>
      </trkpt>
      <trkpt lat="44.0907" lon="6.49928">
        <ele>1133.4000244141</ele>
        <time>2022-08-20T15:46:06Z</time>
      </trkpt>
      <trkpt lat="44.09071" lon="6.49928">
        <ele>1133.4000244141</ele>
        <time>2022-08-20T15:46:08Z</time>
      </trkpt>
      <trkpt lat="44.09071" lon="6.49928">
        <ele>1133.4000244141</ele>
        <time>2022-08-20T15:46:11Z</time>
      </trkpt>
      <trkpt lat="44.09073" lon="6.49927">
        <ele>1133.4000244141</ele>
        <time>2022-08-20T15:46:22Z</time>
      </trkpt>
      <trkpt lat="44.09072" lon="6.49926">
        <ele>1133.4000244141</ele>
        <time>2022-08-20T15:46:24Z</time>
      </trkpt>
      <trkpt lat="44.09072" lon="6.49925">
        <ele>1133.4000244141</ele>
        <time>2022-08-20T15:46:26Z</time>
      </trkpt>
      <trkpt lat="44.09072" lon="6.49925">
        <ele>1133.4000244141</ele>
        <time>2022-08-20T15:46:28Z</time>
      </trkpt>
      <trkpt lat="44.09072" lon="6.49925">
        <ele>1133.4000244141</ele>
        <time>2022-08-20T15:46:32Z</time>
      </trkpt>
      <trkpt lat="44.09073" lon="6.49925">
        <ele>1133.4000244141</ele>
        <time>2022-08-20T15:46:41Z</time>
      </trkpt>
      <trkpt lat="44.09073" lon="6.49925">
        <ele>1133.4000244141</ele>
        <time>2022-08-20T15:46:42Z</time>
      </trkpt>
      <trkpt lat="44.09073" lon="6.49925">
        <ele>1133.4000244141</ele>
        <time>2022-08-20T15:46:44Z</time>
      </trkpt>
      <trkpt lat="44.09071" lon="6.49926">
        <ele>1133.4000244141</ele>
        <time>2022-08-20T15:46:53Z</time>
      </trkpt>
      <trkpt lat="44.09071" lon="6.49927">
        <ele>1133.4000244141</ele>
        <time>2022-08-20T15:46:57Z</time>
      </trkpt>
      <trkpt lat="44.0907" lon="6.49928">
        <ele>1133.4000244141</ele>
        <time>2022-08-20T15:47:00Z</time>
      </trkpt>
      <trkpt lat="44.0907" lon="6.49928">
        <ele>1133.4000244141</ele>
        <time>2022-08-20T15:47:04Z</time>
      </trkpt>
      <trkpt lat="44.09071" lon="6.49927">
        <ele>1133.4000244141</ele>
        <time>2022-08-20T15:47:12Z</time>
      </trkpt>
      <trkpt lat="44.09071" lon="6.49928">
        <ele>1133.4000244141</ele>
        <time>2022-08-20T15:47:15Z</time>
      </trkpt>
      <trkpt lat="44.0907" lon="6.49928">
        <ele>1133.4000244141</ele>
        <time>2022-08-20T15:47:21Z</time>
      </trkpt>
      <trkpt lat="44.0907" lon="6.49928">
        <ele>1133.4000244141</ele>
        <time>2022-08-20T15:47:26Z</time>
      </trkpt>
      <trkpt lat="44.0907" lon="6.49927">
        <ele>1133.4000244141</ele>
        <time>2022-08-20T15:47:28Z</time>
      </trkpt>
      <trkpt lat="44.0907" lon="6.49927">
        <ele>1133.4000244141</ele>
        <time>2022-08-20T15:47:30Z</time>
      </trkpt>
      <trkpt lat="44.0907" lon="6.49927">
        <ele>1133.4000244141</ele>
        <time>2022-08-20T15:47:33Z</time>
      </trkpt>
      <trkpt lat="44.0907" lon="6.49929">
        <ele>1133.4000244141</ele>
        <time>2022-08-20T15:47:42Z</time>
      </trkpt>
      <trkpt lat="44.09071" lon="6.4993">
        <ele>1133.4000244141</ele>
        <time>2022-08-20T15:47:53Z</time>
      </trkpt>
      <trkpt lat="44.09071" lon="6.4993">
        <ele>1133.4000244141</ele>
        <time>2022-08-20T15:47:54Z</time>
      </trkpt>
      <trkpt lat="44.09073" lon="6.4993">
        <ele>1133.4000244141</ele>
        <time>2022-08-20T15:48:05Z</time>
      </trkpt>
      <trkpt lat="44.09073" lon="6.49932">
        <ele>1133.4000244141</ele>
        <time>2022-08-20T15:48:17Z</time>
      </trkpt>
      <trkpt lat="44.09072" lon="6.49937">
        <ele>1133.4000244141</ele>
        <time>2022-08-20T15:48:22Z</time>
      </trkpt>
      <trkpt lat="44.09071" lon="6.49937">
        <ele>1133.4000244141</ele>
        <time>2022-08-20T15:48:23Z</time>
      </trkpt>
      <trkpt lat="44.09071" lon="6.49939">
        <ele>1133.4000244141</ele>
        <time>2022-08-20T15:48:25Z</time>
      </trkpt>
      <trkpt lat="44.09071" lon="6.49942">
        <ele>1133.4000244141</ele>
        <time>2022-08-20T15:48:30Z</time>
      </trkpt>
      <trkpt lat="44.09072" lon="6.49942">
        <ele>1133.4000244141</ele>
        <time>2022-08-20T15:48:33Z</time>
      </trkpt>
      <trkpt lat="44.09071" lon="6.49942">
        <ele>1133.4000244141</ele>
        <time>2022-08-20T15:48:40Z</time>
      </trkpt>
      <trkpt lat="44.09071" lon="6.49941">
        <ele>1133.4000244141</ele>
        <time>2022-08-20T15:48:45Z</time>
      </trkpt>
      <trkpt lat="44.09069" lon="6.49939">
        <ele>1133.4000244141</ele>
        <time>2022-08-20T15:48:51Z</time>
      </trkpt>
      <trkpt lat="44.09068" lon="6.49939">
        <ele>1133.4000244141</ele>
        <time>2022-08-20T15:48:57Z</time>
      </trkpt>
      <trkpt lat="44.09064" lon="6.49939">
        <ele>1133.4000244141</ele>
        <time>2022-08-20T15:49:00Z</time>
      </trkpt>
      <trkpt lat="44.09061" lon="6.49949">
        <ele>1133.4000244141</ele>
        <time>2022-08-20T15:49:03Z</time>
      </trkpt>
      <trkpt lat="44.09063" lon="6.49961">
        <ele>1133.4000244141</ele>
        <time>2022-08-20T15:49:06Z</time>
      </trkpt>
      <trkpt lat="44.09062" lon="6.49965">
        <ele>1133.1999511719</ele>
        <time>2022-08-20T15:49:07Z</time>
      </trkpt>
      <trkpt lat="44.09063" lon="6.49989">
        <ele>1132.5999755859</ele>
        <time>2022-08-20T15:49:11Z</time>
      </trkpt>
      <trkpt lat="44.09075" lon="6.50008">
        <ele>1131.8000488281</ele>
        <time>2022-08-20T15:49:16Z</time>
      </trkpt>
      <trkpt lat="44.09087" lon="6.50016">
        <ele>1131.5999755859</ele>
        <time>2022-08-20T15:49:20Z</time>
      </trkpt>
      <trkpt lat="44.09089" lon="6.50026">
        <ele>1131.8000488281</ele>
        <time>2022-08-20T15:49:23Z</time>
      </trkpt>
      <trkpt lat="44.0909" lon="6.50051">
        <ele>1132.1999511719</ele>
        <time>2022-08-20T15:49:27Z</time>
      </trkpt>
      <trkpt lat="44.09087" lon="6.50087">
        <ele>1132.4000244141</ele>
        <time>2022-08-20T15:49:33Z</time>
      </trkpt>
      <trkpt lat="44.09086" lon="6.50104">
        <ele>1132.5999755859</ele>
        <time>2022-08-20T15:49:36Z</time>
      </trkpt>
      <trkpt lat="44.09088" lon="6.50125">
        <ele>1132.8000488281</ele>
        <time>2022-08-20T15:49:40Z</time>
      </trkpt>
      <trkpt lat="44.09088" lon="6.50129">
        <ele>1132.8000488281</ele>
        <time>2022-08-20T15:49:41Z</time>
      </trkpt>
      <trkpt lat="44.0909" lon="6.50163">
        <ele>1133.4000244141</ele>
        <time>2022-08-20T15:49:48Z</time>
      </trkpt>
      <trkpt lat="44.09089" lon="6.50192">
        <ele>1133</ele>
        <time>2022-08-20T15:49:55Z</time>
      </trkpt>
      <trkpt lat="44.09078" lon="6.50224">
        <ele>1132.1999511719</ele>
        <time>2022-08-20T15:50:01Z</time>
      </trkpt>
      <trkpt lat="44.09075" lon="6.5023">
        <ele>1132</ele>
        <time>2022-08-20T15:50:02Z</time>
      </trkpt>
      <trkpt lat="44.09065" lon="6.50248">
        <ele>1131.5999755859</ele>
        <time>2022-08-20T15:50:05Z</time>
      </trkpt>
      <trkpt lat="44.09057" lon="6.50258">
        <ele>1131.4000244141</ele>
        <time>2022-08-20T15:50:07Z</time>
      </trkpt>
      <trkpt lat="44.09052" lon="6.50262">
        <ele>1131.4000244141</ele>
        <time>2022-08-20T15:50:08Z</time>
      </trkpt>
      <trkpt lat="44.09046" lon="6.50266">
        <ele>1131.1999511719</ele>
        <time>2022-08-20T15:50:09Z</time>
      </trkpt>
      <trkpt lat="44.0903" lon="6.50275">
        <ele>1130.4000244141</ele>
        <time>2022-08-20T15:50:12Z</time>
      </trkpt>
      <trkpt lat="44.09025" lon="6.50279">
        <ele>1130.1999511719</ele>
        <time>2022-08-20T15:50:13Z</time>
      </trkpt>
      <trkpt lat="44.08995" lon="6.50297">
        <ele>1129.1999511719</ele>
        <time>2022-08-20T15:50:18Z</time>
      </trkpt>
      <trkpt lat="44.08975" lon="6.50303">
        <ele>1128.4000244141</ele>
        <time>2022-08-20T15:50:21Z</time>
      </trkpt>
      <trkpt lat="44.08968" lon="6.50302">
        <ele>1128</ele>
        <time>2022-08-20T15:50:22Z</time>
      </trkpt>
      <trkpt lat="44.0894" lon="6.503">
        <ele>1127</ele>
        <time>2022-08-20T15:50:26Z</time>
      </trkpt>
      <trkpt lat="44.08922" lon="6.50302">
        <ele>1127</ele>
        <time>2022-08-20T15:50:30Z</time>
      </trkpt>
      <trkpt lat="44.08918" lon="6.50302">
        <ele>1127.1999511719</ele>
        <time>2022-08-20T15:50:32Z</time>
      </trkpt>
      <trkpt lat="44.08918" lon="6.50301">
        <ele>1127.4000244141</ele>
        <time>2022-08-20T15:50:34Z</time>
      </trkpt>
      <trkpt lat="44.08919" lon="6.50301">
        <ele>1127.5999755859</ele>
        <time>2022-08-20T15:50:44Z</time>
      </trkpt>
      <trkpt lat="44.08919" lon="6.50301">
        <ele>1127.5999755859</ele>
        <time>2022-08-20T15:50:47Z</time>
      </trkpt>
      <trkpt lat="44.08919" lon="6.50301">
        <ele>1127.5999755859</ele>
        <time>2022-08-20T15:50:51Z</time>
      </trkpt>
      <trkpt lat="44.08919" lon="6.50301">
        <ele>1127.5999755859</ele>
        <time>2022-08-20T15:51:01Z</time>
      </trkpt>
      <trkpt lat="44.08919" lon="6.50301">
        <ele>1126.8000488281</ele>
        <time>2022-08-20T15:51:09Z</time>
      </trkpt>
      <trkpt lat="44.08919" lon="6.50301">
        <ele>1126.8000488281</ele>
        <time>2022-08-20T15:51:14Z</time>
      </trkpt>
      <trkpt lat="44.08919" lon="6.50301">
        <ele>1126.8000488281</ele>
        <time>2022-08-20T15:51:18Z</time>
      </trkpt>
      <trkpt lat="44.08919" lon="6.50301">
        <ele>1126.8000488281</ele>
        <time>2022-08-20T15:51:22Z</time>
      </trkpt>
      <trkpt lat="44.0892" lon="6.50305">
        <ele>1126.8000488281</ele>
        <time>2022-08-20T15:51:28Z</time>
      </trkpt>
      <trkpt lat="44.08924" lon="6.50302">
        <ele>1127</ele>
        <time>2022-08-20T15:51:30Z</time>
      </trkpt>
      <trkpt lat="44.08926" lon="6.50299">
        <ele>1127</ele>
        <time>2022-08-20T15:51:32Z</time>
      </trkpt>
      <trkpt lat="44.08925" lon="6.50297">
        <ele>1127</ele>
        <time>2022-08-20T15:51:33Z</time>
      </trkpt>
      <trkpt lat="44.08921" lon="6.50295">
        <ele>1126.5999755859</ele>
        <time>2022-08-20T15:51:35Z</time>
      </trkpt>
      <trkpt lat="44.08915" lon="6.50295">
        <ele>1126.4000244141</ele>
        <time>2022-08-20T15:51:37Z</time>
      </trkpt>
      <trkpt lat="44.08912" lon="6.50294">
        <ele>1126.1999511719</ele>
        <time>2022-08-20T15:51:38Z</time>
      </trkpt>
      <trkpt lat="44.08909" lon="6.50294">
        <ele>1125.8000488281</ele>
        <time>2022-08-20T15:51:39Z</time>
      </trkpt>
      <trkpt lat="44.08903" lon="6.50295">
        <ele>1124.5999755859</ele>
        <time>2022-08-20T15:51:41Z</time>
      </trkpt>
      <trkpt lat="44.08892" lon="6.50298">
        <ele>1123.4000244141</ele>
        <time>2022-08-20T15:51:44Z</time>
      </trkpt>
      <trkpt lat="44.08888" lon="6.503">
        <ele>1122.8000488281</ele>
        <time>2022-08-20T15:51:45Z</time>
      </trkpt>
      <trkpt lat="44.08884" lon="6.50301">
        <ele>1122.1999511719</ele>
        <time>2022-08-20T15:51:46Z</time>
      </trkpt>
      <trkpt lat="44.08879" lon="6.50302">
        <ele>1121.5999755859</ele>
        <time>2022-08-20T15:51:47Z</time>
      </trkpt>
      <trkpt lat="44.08875" lon="6.50303">
        <ele>1120.8000488281</ele>
        <time>2022-08-20T15:51:48Z</time>
      </trkpt>
      <trkpt lat="44.08867" lon="6.50305">
        <ele>1119.8000488281</ele>
        <time>2022-08-20T15:51:50Z</time>
      </trkpt>
      <trkpt lat="44.08862" lon="6.50307">
        <ele>1119</ele>
        <time>2022-08-20T15:51:51Z</time>
      </trkpt>
      <trkpt lat="44.08858" lon="6.50308">
        <ele>1118.4000244141</ele>
        <time>2022-08-20T15:51:52Z</time>
      </trkpt>
      <trkpt lat="44.08842" lon="6.50312">
        <ele>1116.8000488281</ele>
        <time>2022-08-20T15:51:55Z</time>
      </trkpt>
      <trkpt lat="44.08836" lon="6.50313">
        <ele>1116.1999511719</ele>
        <time>2022-08-20T15:51:56Z</time>
      </trkpt>
      <trkpt lat="44.0883" lon="6.50312">
        <ele>1115.5999755859</ele>
        <time>2022-08-20T15:51:57Z</time>
      </trkpt>
      <trkpt lat="44.08814" lon="6.5031">
        <ele>1114.4000244141</ele>
        <time>2022-08-20T15:52:00Z</time>
      </trkpt>
      <trkpt lat="44.08803" lon="6.50312">
        <ele>1114</ele>
        <time>2022-08-20T15:52:02Z</time>
      </trkpt>
      <trkpt lat="44.0879" lon="6.50316">
        <ele>1113.8000488281</ele>
        <time>2022-08-20T15:52:05Z</time>
      </trkpt>
      <trkpt lat="44.08781" lon="6.50319">
        <ele>1113.5999755859</ele>
        <time>2022-08-20T15:52:07Z</time>
      </trkpt>
      <trkpt lat="44.08762" lon="6.50327">
        <ele>1113.5999755859</ele>
        <time>2022-08-20T15:52:11Z</time>
      </trkpt>
      <trkpt lat="44.08753" lon="6.50329">
        <ele>1113.5999755859</ele>
        <time>2022-08-20T15:52:13Z</time>
      </trkpt>
      <trkpt lat="44.08745" lon="6.5033">
        <ele>1113.8000488281</ele>
        <time>2022-08-20T15:52:15Z</time>
      </trkpt>
      <trkpt lat="44.08737" lon="6.50331">
        <ele>1114</ele>
        <time>2022-08-20T15:52:17Z</time>
      </trkpt>
      <trkpt lat="44.08732" lon="6.50331">
        <ele>1114</ele>
        <time>2022-08-20T15:52:18Z</time>
      </trkpt>
      <trkpt lat="44.08702" lon="6.50324">
        <ele>1114.4000244141</ele>
        <time>2022-08-20T15:52:26Z</time>
      </trkpt>
      <trkpt lat="44.08691" lon="6.50319">
        <ele>1114.4000244141</ele>
        <time>2022-08-20T15:52:29Z</time>
      </trkpt>
      <trkpt lat="44.08679" lon="6.50313">
        <ele>1114</ele>
        <time>2022-08-20T15:52:32Z</time>
      </trkpt>
      <trkpt lat="44.08667" lon="6.50307">
        <ele>1113.8000488281</ele>
        <time>2022-08-20T15:52:35Z</time>
      </trkpt>
      <trkpt lat="44.08641" lon="6.50298">
        <ele>1114</ele>
        <time>2022-08-20T15:52:41Z</time>
      </trkpt>
      <trkpt lat="44.08618" lon="6.50303">
        <ele>1114.1999511719</ele>
        <time>2022-08-20T15:52:47Z</time>
      </trkpt>
      <trkpt lat="44.08606" lon="6.5031">
        <ele>1115.4000244141</ele>
        <time>2022-08-20T15:52:51Z</time>
      </trkpt>
      <trkpt lat="44.08599" lon="6.50318">
        <ele>1115.5999755859</ele>
        <time>2022-08-20T15:52:53Z</time>
      </trkpt>
      <trkpt lat="44.08589" lon="6.50329">
        <ele>1115.8000488281</ele>
        <time>2022-08-20T15:52:57Z</time>
      </trkpt>
      <trkpt lat="44.08585" lon="6.50334">
        <ele>1115.8000488281</ele>
        <time>2022-08-20T15:52:59Z</time>
      </trkpt>
      <trkpt lat="44.08583" lon="6.50338">
        <ele>1116</ele>
        <time>2022-08-20T15:53:01Z</time>
      </trkpt>
      <trkpt lat="44.08582" lon="6.50339">
        <ele>1116</ele>
        <time>2022-08-20T15:53:02Z</time>
      </trkpt>
      <trkpt lat="44.08581" lon="6.50339">
        <ele>1116</ele>
        <time>2022-08-20T15:53:03Z</time>
      </trkpt>
      <trkpt lat="44.08582" lon="6.5034">
        <ele>1116.1999511719</ele>
        <time>2022-08-20T15:53:05Z</time>
      </trkpt>
      <trkpt lat="44.08582" lon="6.5034">
        <ele>1116.1999511719</ele>
        <time>2022-08-20T15:53:08Z</time>
      </trkpt>
      <trkpt lat="44.08582" lon="6.5034">
        <ele>1116.1999511719</ele>
        <time>2022-08-20T15:53:12Z</time>
      </trkpt>
      <trkpt lat="44.08582" lon="6.50341">
        <ele>1116.1999511719</ele>
        <time>2022-08-20T15:53:14Z</time>
      </trkpt>
      <trkpt lat="44.0858" lon="6.50343">
        <ele>1116.1999511719</ele>
        <time>2022-08-20T15:53:16Z</time>
      </trkpt>
      <trkpt lat="44.08575" lon="6.50352">
        <ele>1116.1999511719</ele>
        <time>2022-08-20T15:53:20Z</time>
      </trkpt>
      <trkpt lat="44.08569" lon="6.50361">
        <ele>1116.4000244141</ele>
        <time>2022-08-20T15:53:23Z</time>
      </trkpt>
      <trkpt lat="44.08568" lon="6.50363">
        <ele>1116.4000244141</ele>
        <time>2022-08-20T15:53:24Z</time>
      </trkpt>
      <trkpt lat="44.08563" lon="6.5037">
        <ele>1116.8000488281</ele>
        <time>2022-08-20T15:53:27Z</time>
      </trkpt>
      <trkpt lat="44.08557" lon="6.50378">
        <ele>1117</ele>
        <time>2022-08-20T15:53:30Z</time>
      </trkpt>
      <trkpt lat="44.08555" lon="6.50379">
        <ele>1117</ele>
        <time>2022-08-20T15:53:31Z</time>
      </trkpt>
      <trkpt lat="44.08547" lon="6.50388">
        <ele>1117.4000244141</ele>
        <time>2022-08-20T15:53:37Z</time>
      </trkpt>
      <trkpt lat="44.08544" lon="6.50391">
        <ele>1117.8000488281</ele>
        <time>2022-08-20T15:53:39Z</time>
      </trkpt>
      <trkpt lat="44.08533" lon="6.50401">
        <ele>1118.4000244141</ele>
        <time>2022-08-20T15:53:47Z</time>
      </trkpt>
      <trkpt lat="44.0853" lon="6.50404">
        <ele>1118.5999755859</ele>
        <time>2022-08-20T15:53:49Z</time>
      </trkpt>
      <trkpt lat="44.08518" lon="6.50417">
        <ele>1119.4000244141</ele>
        <time>2022-08-20T15:53:57Z</time>
      </trkpt>
      <trkpt lat="44.08517" lon="6.50419">
        <ele>1119.5999755859</ele>
        <time>2022-08-20T15:53:58Z</time>
      </trkpt>
      <trkpt lat="44.08508" lon="6.50436">
        <ele>1120.5999755859</ele>
        <time>2022-08-20T15:54:07Z</time>
      </trkpt>
      <trkpt lat="44.08506" lon="6.5044">
        <ele>1120.4000244141</ele>
        <time>2022-08-20T15:54:09Z</time>
      </trkpt>
      <trkpt lat="44.085" lon="6.50449">
        <ele>1120.8000488281</ele>
        <time>2022-08-20T15:54:14Z</time>
      </trkpt>
      <trkpt lat="44.08498" lon="6.50452">
        <ele>1121</ele>
        <time>2022-08-20T15:54:16Z</time>
      </trkpt>
      <trkpt lat="44.08492" lon="6.50461">
        <ele>1121.8000488281</ele>
        <time>2022-08-20T15:54:22Z</time>
      </trkpt>
      <trkpt lat="44.08491" lon="6.50463">
        <ele>1121.8000488281</ele>
        <time>2022-08-20T15:54:23Z</time>
      </trkpt>
      <trkpt lat="44.08483" lon="6.50478">
        <ele>1122.5999755859</ele>
        <time>2022-08-20T15:54:32Z</time>
      </trkpt>
      <trkpt lat="44.0848" lon="6.50482">
        <ele>1122.8000488281</ele>
        <time>2022-08-20T15:54:35Z</time>
      </trkpt>
      <trkpt lat="44.08474" lon="6.50488">
        <ele>1123.1999511719</ele>
        <time>2022-08-20T15:54:39Z</time>
      </trkpt>
      <trkpt lat="44.08472" lon="6.50491">
        <ele>1123.4000244141</ele>
        <time>2022-08-20T15:54:41Z</time>
      </trkpt>
      <trkpt lat="44.08472" lon="6.50497">
        <ele>1123.4000244141</ele>
        <time>2022-08-20T15:54:45Z</time>
      </trkpt>
      <trkpt lat="44.08474" lon="6.50503">
        <ele>1123.5999755859</ele>
        <time>2022-08-20T15:54:49Z</time>
      </trkpt>
      <trkpt lat="44.08476" lon="6.50506">
        <ele>1123.8000488281</ele>
        <time>2022-08-20T15:54:52Z</time>
      </trkpt>
      <trkpt lat="44.08477" lon="6.50508">
        <ele>1124</ele>
        <time>2022-08-20T15:54:53Z</time>
      </trkpt>
      <trkpt lat="44.08478" lon="6.50509">
        <ele>1124</ele>
        <time>2022-08-20T15:54:54Z</time>
      </trkpt>
      <trkpt lat="44.0848" lon="6.50518">
        <ele>1124.8000488281</ele>
        <time>2022-08-20T15:54:59Z</time>
      </trkpt>
      <trkpt lat="44.0848" lon="6.50519">
        <ele>1125</ele>
        <time>2022-08-20T15:55:00Z</time>
      </trkpt>
      <trkpt lat="44.08481" lon="6.50527">
        <ele>1126</ele>
        <time>2022-08-20T15:55:05Z</time>
      </trkpt>
      <trkpt lat="44.08482" lon="6.5053">
        <ele>1126.5999755859</ele>
        <time>2022-08-20T15:55:07Z</time>
      </trkpt>
      <trkpt lat="44.08483" lon="6.50534">
        <ele>1127</ele>
        <time>2022-08-20T15:55:10Z</time>
      </trkpt>
      <trkpt lat="44.08485" lon="6.50537">
        <ele>1127.5999755859</ele>
        <time>2022-08-20T15:55:13Z</time>
      </trkpt>
      <trkpt lat="44.08488" lon="6.5054">
        <ele>1128.1999511719</ele>
        <time>2022-08-20T15:55:16Z</time>
      </trkpt>
      <trkpt lat="44.0849" lon="6.50542">
        <ele>1128.5999755859</ele>
        <time>2022-08-20T15:55:18Z</time>
      </trkpt>
      <trkpt lat="44.08491" lon="6.50545">
        <ele>1129</ele>
        <time>2022-08-20T15:55:20Z</time>
      </trkpt>
      <trkpt lat="44.08492" lon="6.50547">
        <ele>1129.4000244141</ele>
        <time>2022-08-20T15:55:22Z</time>
      </trkpt>
      <trkpt lat="44.08493" lon="6.5055">
        <ele>1130</ele>
        <time>2022-08-20T15:55:25Z</time>
      </trkpt>
      <trkpt lat="44.08493" lon="6.50554">
        <ele>1130.4000244141</ele>
        <time>2022-08-20T15:55:27Z</time>
      </trkpt>
      <trkpt lat="44.08495" lon="6.50559">
        <ele>1131.4000244141</ele>
        <time>2022-08-20T15:55:35Z</time>
      </trkpt>
      <trkpt lat="44.08493" lon="6.50559">
        <ele>1131</ele>
        <time>2022-08-20T15:55:41Z</time>
      </trkpt>
      <trkpt lat="44.08493" lon="6.50557">
        <ele>1131</ele>
        <time>2022-08-20T15:55:48Z</time>
      </trkpt>
      <trkpt lat="44.08493" lon="6.50557">
        <ele>1131</ele>
        <time>2022-08-20T15:55:49Z</time>
      </trkpt>
      <trkpt lat="44.08493" lon="6.50556">
        <ele>1131</ele>
        <time>2022-08-20T15:55:50Z</time>
      </trkpt>
      <trkpt lat="44.08494" lon="6.50556">
        <ele>1131</ele>
        <time>2022-08-20T15:55:54Z</time>
      </trkpt>
      <trkpt lat="44.08493" lon="6.50559">
        <ele>1131</ele>
        <time>2022-08-20T15:56:02Z</time>
      </trkpt>
      <trkpt lat="44.08493" lon="6.50559">
        <ele>1131</ele>
        <time>2022-08-20T15:56:03Z</time>
      </trkpt>
      <trkpt lat="44.08493" lon="6.50559">
        <ele>1131.1999511719</ele>
        <time>2022-08-20T15:56:12Z</time>
      </trkpt>
      <trkpt lat="44.08493" lon="6.50559">
        <ele>1131.1999511719</ele>
        <time>2022-08-20T15:56:15Z</time>
      </trkpt>
      <trkpt lat="44.08493" lon="6.50559">
        <ele>1131.1999511719</ele>
        <time>2022-08-20T15:56:17Z</time>
      </trkpt>
      <trkpt lat="44.08493" lon="6.50558">
        <ele>1131.1999511719</ele>
        <time>2022-08-20T15:56:19Z</time>
      </trkpt>
      <trkpt lat="44.08493" lon="6.50558">
        <ele>1131.1999511719</ele>
        <time>2022-08-20T15:56:21Z</time>
      </trkpt>
      <trkpt lat="44.08493" lon="6.50558">
        <ele>1131.1999511719</ele>
        <time>2022-08-20T15:56:24Z</time>
      </trkpt>
      <trkpt lat="44.08493" lon="6.50557">
        <ele>1131.4000244141</ele>
        <time>2022-08-20T15:56:30Z</time>
      </trkpt>
      <trkpt lat="44.08493" lon="6.50557">
        <ele>1131.4000244141</ele>
        <time>2022-08-20T15:56:31Z</time>
      </trkpt>
      <trkpt lat="44.08493" lon="6.50557">
        <ele>1131.4000244141</ele>
        <time>2022-08-20T15:56:37Z</time>
      </trkpt>
      <trkpt lat="44.08495" lon="6.50554">
        <ele>1131</ele>
        <time>2022-08-20T15:56:44Z</time>
      </trkpt>
      <trkpt lat="44.08493" lon="6.50561">
        <ele>1130.5999755859</ele>
        <time>2022-08-20T15:56:52Z</time>
      </trkpt>
      <trkpt lat="44.08493" lon="6.50561">
        <ele>1130.4000244141</ele>
        <time>2022-08-20T15:56:54Z</time>
      </trkpt>
      <trkpt lat="44.08492" lon="6.50562">
        <ele>1130.4000244141</ele>
        <time>2022-08-20T15:56:56Z</time>
      </trkpt>
      <trkpt lat="44.08492" lon="6.50561">
        <ele>1130.1999511719</ele>
        <time>2022-08-20T15:57:01Z</time>
      </trkpt>
      <trkpt lat="44.08492" lon="6.5056">
        <ele>1130.1999511719</ele>
        <time>2022-08-20T15:57:12Z</time>
      </trkpt>
      <trkpt lat="44.0849" lon="6.50562">
        <ele>1131</ele>
        <time>2022-08-20T15:57:19Z</time>
      </trkpt>
      <trkpt lat="44.0849" lon="6.50562">
        <ele>1131</ele>
        <time>2022-08-20T15:57:21Z</time>
      </trkpt>
      <trkpt lat="44.0849" lon="6.50562">
        <ele>1131</ele>
        <time>2022-08-20T15:57:22Z</time>
      </trkpt>
      <trkpt lat="44.0849" lon="6.50562">
        <ele>1131</ele>
        <time>2022-08-20T15:57:24Z</time>
      </trkpt>
      <trkpt lat="44.0849" lon="6.50562">
        <ele>1131</ele>
        <time>2022-08-20T15:57:26Z</time>
      </trkpt>
      <trkpt lat="44.0849" lon="6.50562">
        <ele>1130.8000488281</ele>
        <time>2022-08-20T15:57:29Z</time>
      </trkpt>
      <trkpt lat="44.08491" lon="6.50561">
        <ele>1130.8000488281</ele>
        <time>2022-08-20T15:57:34Z</time>
      </trkpt>
      <trkpt lat="44.08491" lon="6.50562">
        <ele>1130.5999755859</ele>
        <time>2022-08-20T15:57:46Z</time>
      </trkpt>
      <trkpt lat="44.08491" lon="6.50562">
        <ele>1130.5999755859</ele>
        <time>2022-08-20T15:58:01Z</time>
      </trkpt>
      <trkpt lat="44.08491" lon="6.50562">
        <ele>1130.5999755859</ele>
        <time>2022-08-20T15:58:14Z</time>
      </trkpt>
      <trkpt lat="44.08491" lon="6.50562">
        <ele>1130.5999755859</ele>
        <time>2022-08-20T15:58:16Z</time>
      </trkpt>
      <trkpt lat="44.08493" lon="6.50563">
        <ele>1130.5999755859</ele>
        <time>2022-08-20T15:58:25Z</time>
      </trkpt>
      <trkpt lat="44.08493" lon="6.50563">
        <ele>1130.5999755859</ele>
        <time>2022-08-20T15:58:26Z</time>
      </trkpt>
      <trkpt lat="44.08493" lon="6.50563">
        <ele>1130.5999755859</ele>
        <time>2022-08-20T15:58:30Z</time>
      </trkpt>
      <trkpt lat="44.08493" lon="6.50563">
        <ele>1130.5999755859</ele>
        <time>2022-08-20T15:58:32Z</time>
      </trkpt>
      <trkpt lat="44.08493" lon="6.50563">
        <ele>1130.5999755859</ele>
        <time>2022-08-20T15:58:35Z</time>
      </trkpt>
      <trkpt lat="44.08492" lon="6.50563">
        <ele>1130.5999755859</ele>
        <time>2022-08-20T15:58:39Z</time>
      </trkpt>
      <trkpt lat="44.08492" lon="6.50563">
        <ele>1130.5999755859</ele>
        <time>2022-08-20T15:58:41Z</time>
      </trkpt>
      <trkpt lat="44.08492" lon="6.50563">
        <ele>1130.5999755859</ele>
        <time>2022-08-20T15:58:54Z</time>
      </trkpt>
      <trkpt lat="44.08492" lon="6.50562">
        <ele>1130.5999755859</ele>
        <time>2022-08-20T15:58:57Z</time>
      </trkpt>
      <trkpt lat="44.08494" lon="6.50557">
        <ele>1130.5999755859</ele>
        <time>2022-08-20T15:59:03Z</time>
      </trkpt>
      <trkpt lat="44.08495" lon="6.50555">
        <ele>1130.5999755859</ele>
        <time>2022-08-20T15:59:09Z</time>
      </trkpt>
      <trkpt lat="44.08495" lon="6.50556">
        <ele>1130.5999755859</ele>
        <time>2022-08-20T15:59:15Z</time>
      </trkpt>
      <trkpt lat="44.08495" lon="6.50556">
        <ele>1130.5999755859</ele>
        <time>2022-08-20T15:59:18Z</time>
      </trkpt>
      <trkpt lat="44.08495" lon="6.50561">
        <ele>1130.5999755859</ele>
        <time>2022-08-20T15:59:29Z</time>
      </trkpt>
      <trkpt lat="44.08495" lon="6.50567">
        <ele>1130.5999755859</ele>
        <time>2022-08-20T15:59:31Z</time>
      </trkpt>
      <trkpt lat="44.08495" lon="6.50572">
        <ele>1128</ele>
        <time>2022-08-20T15:59:32Z</time>
      </trkpt>
      <trkpt lat="44.08492" lon="6.50584">
        <ele>1128</ele>
        <time>2022-08-20T15:59:35Z</time>
      </trkpt>
      <trkpt lat="44.08491" lon="6.50593">
        <ele>1128</ele>
        <time>2022-08-20T15:59:37Z</time>
      </trkpt>
      <trkpt lat="44.0849" lon="6.50597">
        <ele>1127.8000488281</ele>
        <time>2022-08-20T15:59:38Z</time>
      </trkpt>
      <trkpt lat="44.08486" lon="6.50611">
        <ele>1127.1999511719</ele>
        <time>2022-08-20T15:59:41Z</time>
      </trkpt>
      <trkpt lat="44.08484" lon="6.50621">
        <ele>1127</ele>
        <time>2022-08-20T15:59:43Z</time>
      </trkpt>
      <trkpt lat="44.08483" lon="6.50631">
        <ele>1126.8000488281</ele>
        <time>2022-08-20T15:59:45Z</time>
      </trkpt>
      <trkpt lat="44.0848" lon="6.50647">
        <ele>1126.5999755859</ele>
        <time>2022-08-20T15:59:49Z</time>
      </trkpt>
      <trkpt lat="44.08483" lon="6.50649">
        <ele>1126.4000244141</ele>
        <time>2022-08-20T15:59:51Z</time>
      </trkpt>
      <trkpt lat="44.08487" lon="6.50644">
        <ele>1125.8000488281</ele>
        <time>2022-08-20T15:59:53Z</time>
      </trkpt>
      <trkpt lat="44.08491" lon="6.50636">
        <ele>1124.4000244141</ele>
        <time>2022-08-20T15:59:55Z</time>
      </trkpt>
      <trkpt lat="44.085" lon="6.50628">
        <ele>1123</ele>
        <time>2022-08-20T15:59:58Z</time>
      </trkpt>
      <trkpt lat="44.08504" lon="6.50626">
        <ele>1122.5999755859</ele>
        <time>2022-08-20T15:59:59Z</time>
      </trkpt>
      <trkpt lat="44.08508" lon="6.50625">
        <ele>1122</ele>
        <time>2022-08-20T16:00:00Z</time>
      </trkpt>
      <trkpt lat="44.08516" lon="6.50624">
        <ele>1120.8000488281</ele>
        <time>2022-08-20T16:00:02Z</time>
      </trkpt>
      <trkpt lat="44.0853" lon="6.50622">
        <ele>1119.5999755859</ele>
        <time>2022-08-20T16:00:05Z</time>
      </trkpt>
      <trkpt lat="44.08547" lon="6.50619">
        <ele>1118.4000244141</ele>
        <time>2022-08-20T16:00:08Z</time>
      </trkpt>
      <trkpt lat="44.08568" lon="6.50614">
        <ele>1117.1999511719</ele>
        <time>2022-08-20T16:00:12Z</time>
      </trkpt>
      <trkpt lat="44.08574" lon="6.50619">
        <ele>1117.1999511719</ele>
        <time>2022-08-20T16:00:14Z</time>
      </trkpt>
      <trkpt lat="44.08575" lon="6.50622">
        <ele>1117.1999511719</ele>
        <time>2022-08-20T16:00:15Z</time>
      </trkpt>
      <trkpt lat="44.08576" lon="6.50626">
        <ele>1117.1999511719</ele>
        <time>2022-08-20T16:00:16Z</time>
      </trkpt>
      <trkpt lat="44.08578" lon="6.50638">
        <ele>1117</ele>
        <time>2022-08-20T16:00:18Z</time>
      </trkpt>
      <trkpt lat="44.08579" lon="6.50644">
        <ele>1116.8000488281</ele>
        <time>2022-08-20T16:00:19Z</time>
      </trkpt>
      <trkpt lat="44.08581" lon="6.50648">
        <ele>1116.8000488281</ele>
        <time>2022-08-20T16:00:20Z</time>
      </trkpt>
      <trkpt lat="44.08591" lon="6.50673">
        <ele>1116.5999755859</ele>
        <time>2022-08-20T16:00:27Z</time>
      </trkpt>
      <trkpt lat="44.08596" lon="6.50689">
        <ele>1116.8000488281</ele>
        <time>2022-08-20T16:00:31Z</time>
      </trkpt>
      <trkpt lat="44.08601" lon="6.50701">
        <ele>1117</ele>
        <time>2022-08-20T16:00:34Z</time>
      </trkpt>
      <trkpt lat="44.08604" lon="6.50707">
        <ele>1117.1999511719</ele>
        <time>2022-08-20T16:00:36Z</time>
      </trkpt>
      <trkpt lat="44.08609" lon="6.50713">
        <ele>1117.4000244141</ele>
        <time>2022-08-20T16:00:38Z</time>
      </trkpt>
      <trkpt lat="44.08613" lon="6.50718">
        <ele>1117.4000244141</ele>
        <time>2022-08-20T16:00:40Z</time>
      </trkpt>
      <trkpt lat="44.08616" lon="6.50724">
        <ele>1117.8000488281</ele>
        <time>2022-08-20T16:00:45Z</time>
      </trkpt>
      <trkpt lat="44.08627" lon="6.50731">
        <ele>1118</ele>
        <time>2022-08-20T16:00:51Z</time>
      </trkpt>
      <trkpt lat="44.08631" lon="6.50735">
        <ele>1118</ele>
        <time>2022-08-20T16:00:53Z</time>
      </trkpt>
      <trkpt lat="44.08637" lon="6.50738">
        <ele>1118</ele>
        <time>2022-08-20T16:00:55Z</time>
      </trkpt>
      <trkpt lat="44.08642" lon="6.50742">
        <ele>1118</ele>
        <time>2022-08-20T16:00:57Z</time>
      </trkpt>
      <trkpt lat="44.08644" lon="6.50744">
        <ele>1118.1999511719</ele>
        <time>2022-08-20T16:00:58Z</time>
      </trkpt>
      <trkpt lat="44.08652" lon="6.5075">
        <ele>1118.1999511719</ele>
        <time>2022-08-20T16:01:01Z</time>
      </trkpt>
      <trkpt lat="44.08667" lon="6.50764">
        <ele>1118.8000488281</ele>
        <time>2022-08-20T16:01:08Z</time>
      </trkpt>
      <trkpt lat="44.08681" lon="6.50781">
        <ele>1119.4000244141</ele>
        <time>2022-08-20T16:01:15Z</time>
      </trkpt>
      <trkpt lat="44.08691" lon="6.50792">
        <ele>1119.5999755859</ele>
        <time>2022-08-20T16:01:20Z</time>
      </trkpt>
      <trkpt lat="44.08702" lon="6.50805">
        <ele>1120.4000244141</ele>
        <time>2022-08-20T16:01:26Z</time>
      </trkpt>
      <trkpt lat="44.08711" lon="6.50813">
        <ele>1120.5999755859</ele>
        <time>2022-08-20T16:01:30Z</time>
      </trkpt>
      <trkpt lat="44.08727" lon="6.50832">
        <ele>1121</ele>
        <time>2022-08-20T16:01:38Z</time>
      </trkpt>
      <trkpt lat="44.0874" lon="6.5085">
        <ele>1121.4000244141</ele>
        <time>2022-08-20T16:01:45Z</time>
      </trkpt>
      <trkpt lat="44.08744" lon="6.50859">
        <ele>1121.5999755859</ele>
        <time>2022-08-20T16:01:48Z</time>
      </trkpt>
      <trkpt lat="44.08752" lon="6.50873">
        <ele>1122</ele>
        <time>2022-08-20T16:01:53Z</time>
      </trkpt>
      <trkpt lat="44.08757" lon="6.50885">
        <ele>1122.4000244141</ele>
        <time>2022-08-20T16:01:57Z</time>
      </trkpt>
      <trkpt lat="44.08763" lon="6.50901">
        <ele>1123.1999511719</ele>
        <time>2022-08-20T16:02:03Z</time>
      </trkpt>
      <trkpt lat="44.08766" lon="6.50907">
        <ele>1123.4000244141</ele>
        <time>2022-08-20T16:02:05Z</time>
      </trkpt>
      <trkpt lat="44.08769" lon="6.50916">
        <ele>1123.4000244141</ele>
        <time>2022-08-20T16:02:08Z</time>
      </trkpt>
      <trkpt lat="44.08774" lon="6.5093">
        <ele>1124.1999511719</ele>
        <time>2022-08-20T16:02:13Z</time>
      </trkpt>
      <trkpt lat="44.08778" lon="6.5094">
        <ele>1124.4000244141</ele>
        <time>2022-08-20T16:02:16Z</time>
      </trkpt>
      <trkpt lat="44.0878" lon="6.50956">
        <ele>1125</ele>
        <time>2022-08-20T16:02:21Z</time>
      </trkpt>
      <trkpt lat="44.08781" lon="6.50968">
        <ele>1125.4000244141</ele>
        <time>2022-08-20T16:02:25Z</time>
      </trkpt>
      <trkpt lat="44.08782" lon="6.50974">
        <ele>1125.5999755859</ele>
        <time>2022-08-20T16:02:27Z</time>
      </trkpt>
      <trkpt lat="44.08783" lon="6.50987">
        <ele>1126</ele>
        <time>2022-08-20T16:02:31Z</time>
      </trkpt>
      <trkpt lat="44.08787" lon="6.51">
        <ele>1126.5999755859</ele>
        <time>2022-08-20T16:02:36Z</time>
      </trkpt>
      <trkpt lat="44.08788" lon="6.51003">
        <ele>1126.5999755859</ele>
        <time>2022-08-20T16:02:37Z</time>
      </trkpt>
      <trkpt lat="44.08789" lon="6.51006">
        <ele>1126.5999755859</ele>
        <time>2022-08-20T16:02:38Z</time>
      </trkpt>
      <trkpt lat="44.08793" lon="6.51026">
        <ele>1126.5999755859</ele>
        <time>2022-08-20T16:02:44Z</time>
      </trkpt>
      <trkpt lat="44.08792" lon="6.51028">
        <ele>1126.5999755859</ele>
        <time>2022-08-20T16:02:45Z</time>
      </trkpt>
      <trkpt lat="44.08789" lon="6.51031">
        <ele>1126.8000488281</ele>
        <time>2022-08-20T16:02:48Z</time>
      </trkpt>
      <trkpt lat="44.08786" lon="6.51033">
        <ele>1127</ele>
        <time>2022-08-20T16:02:50Z</time>
      </trkpt>
      <trkpt lat="44.0878" lon="6.51036">
        <ele>1127.5999755859</ele>
        <time>2022-08-20T16:02:55Z</time>
      </trkpt>
      <trkpt lat="44.08778" lon="6.51038">
        <ele>1128</ele>
        <time>2022-08-20T16:02:57Z</time>
      </trkpt>
      <trkpt lat="44.08772" lon="6.51041">
        <ele>1128.5999755859</ele>
        <time>2022-08-20T16:03:01Z</time>
      </trkpt>
      <trkpt lat="44.0877" lon="6.51042">
        <ele>1128.8000488281</ele>
        <time>2022-08-20T16:03:02Z</time>
      </trkpt>
      <trkpt lat="44.08768" lon="6.51043">
        <ele>1129</ele>
        <time>2022-08-20T16:03:04Z</time>
      </trkpt>
      <trkpt lat="44.08762" lon="6.51045">
        <ele>1129.5999755859</ele>
        <time>2022-08-20T16:03:08Z</time>
      </trkpt>
      <trkpt lat="44.08761" lon="6.51045">
        <ele>1129.8000488281</ele>
        <time>2022-08-20T16:03:09Z</time>
      </trkpt>
      <trkpt lat="44.0876" lon="6.51045">
        <ele>1130</ele>
        <time>2022-08-20T16:03:10Z</time>
      </trkpt>
      <trkpt lat="44.08755" lon="6.51045">
        <ele>1131</ele>
        <time>2022-08-20T16:03:15Z</time>
      </trkpt>
      <trkpt lat="44.08753" lon="6.51045">
        <ele>1131.1999511719</ele>
        <time>2022-08-20T16:03:17Z</time>
      </trkpt>
      <trkpt lat="44.08751" lon="6.51045">
        <ele>1131.4000244141</ele>
        <time>2022-08-20T16:03:19Z</time>
      </trkpt>
      <trkpt lat="44.08749" lon="6.51045">
        <ele>1131.5999755859</ele>
        <time>2022-08-20T16:03:21Z</time>
      </trkpt>
      <trkpt lat="44.08747" lon="6.51046">
        <ele>1132</ele>
        <time>2022-08-20T16:03:24Z</time>
      </trkpt>
      <trkpt lat="44.08744" lon="6.51047">
        <ele>1132.1999511719</ele>
        <time>2022-08-20T16:03:26Z</time>
      </trkpt>
      <trkpt lat="44.08741" lon="6.51046">
        <ele>1132.5999755859</ele>
        <time>2022-08-20T16:03:29Z</time>
      </trkpt>
      <trkpt lat="44.08735" lon="6.51049">
        <ele>1133</ele>
        <time>2022-08-20T16:03:34Z</time>
      </trkpt>
      <trkpt lat="44.08724" lon="6.51059">
        <ele>1134</ele>
        <time>2022-08-20T16:03:43Z</time>
      </trkpt>
      <trkpt lat="44.08722" lon="6.5106">
        <ele>1134.1999511719</ele>
        <time>2022-08-20T16:03:44Z</time>
      </trkpt>
      <trkpt lat="44.08713" lon="6.51068">
        <ele>1135.1999511719</ele>
        <time>2022-08-20T16:03:53Z</time>
      </trkpt>
      <trkpt lat="44.08711" lon="6.51069">
        <ele>1135.1999511719</ele>
        <time>2022-08-20T16:03:54Z</time>
      </trkpt>
      <trkpt lat="44.08703" lon="6.51075">
        <ele>1136.1999511719</ele>
        <time>2022-08-20T16:04:02Z</time>
      </trkpt>
      <trkpt lat="44.08702" lon="6.51076">
        <ele>1136.1999511719</ele>
        <time>2022-08-20T16:04:03Z</time>
      </trkpt>
      <trkpt lat="44.08694" lon="6.51081">
        <ele>1137.1999511719</ele>
        <time>2022-08-20T16:04:10Z</time>
      </trkpt>
      <trkpt lat="44.08691" lon="6.51085">
        <ele>1137.5999755859</ele>
        <time>2022-08-20T16:04:13Z</time>
      </trkpt>
      <trkpt lat="44.08683" lon="6.51094">
        <ele>1138.1999511719</ele>
        <time>2022-08-20T16:04:20Z</time>
      </trkpt>
      <trkpt lat="44.08681" lon="6.51097">
        <ele>1138.4000244141</ele>
        <time>2022-08-20T16:04:22Z</time>
      </trkpt>
      <trkpt lat="44.08678" lon="6.51106">
        <ele>1139.1999511719</ele>
        <time>2022-08-20T16:04:28Z</time>
      </trkpt>
      <trkpt lat="44.08676" lon="6.51108">
        <ele>1139.4000244141</ele>
        <time>2022-08-20T16:04:30Z</time>
      </trkpt>
      <trkpt lat="44.08671" lon="6.51115">
        <ele>1140.1999511719</ele>
        <time>2022-08-20T16:04:36Z</time>
      </trkpt>
      <trkpt lat="44.08668" lon="6.5112">
        <ele>1140.4000244141</ele>
        <time>2022-08-20T16:04:39Z</time>
      </trkpt>
      <trkpt lat="44.08666" lon="6.51125">
        <ele>1141</ele>
        <time>2022-08-20T16:04:42Z</time>
      </trkpt>
      <trkpt lat="44.08661" lon="6.51137">
        <ele>1141.4000244141</ele>
        <time>2022-08-20T16:04:49Z</time>
      </trkpt>
      <trkpt lat="44.0866" lon="6.51142">
        <ele>1141.5999755859</ele>
        <time>2022-08-20T16:04:51Z</time>
      </trkpt>
      <trkpt lat="44.08657" lon="6.51158">
        <ele>1141.4000244141</ele>
        <time>2022-08-20T16:04:57Z</time>
      </trkpt>
      <trkpt lat="44.08653" lon="6.51164">
        <ele>1141.5999755859</ele>
        <time>2022-08-20T16:05:00Z</time>
      </trkpt>
      <trkpt lat="44.0865" lon="6.51171">
        <ele>1141.5999755859</ele>
        <time>2022-08-20T16:05:03Z</time>
      </trkpt>
      <trkpt lat="44.08643" lon="6.51185">
        <ele>1142.5999755859</ele>
        <time>2022-08-20T16:05:10Z</time>
      </trkpt>
      <trkpt lat="44.08638" lon="6.51195">
        <ele>1143.4000244141</ele>
        <time>2022-08-20T16:05:16Z</time>
      </trkpt>
      <trkpt lat="44.08636" lon="6.51198">
        <ele>1143.5999755859</ele>
        <time>2022-08-20T16:05:18Z</time>
      </trkpt>
      <trkpt lat="44.08632" lon="6.51206">
        <ele>1144.5999755859</ele>
        <time>2022-08-20T16:05:23Z</time>
      </trkpt>
      <trkpt lat="44.08631" lon="6.51207">
        <ele>1144.8000488281</ele>
        <time>2022-08-20T16:05:24Z</time>
      </trkpt>
      <trkpt lat="44.0863" lon="6.51208">
        <ele>1145</ele>
        <time>2022-08-20T16:05:25Z</time>
      </trkpt>
      <trkpt lat="44.08627" lon="6.51209">
        <ele>1145.5999755859</ele>
        <time>2022-08-20T16:05:28Z</time>
      </trkpt>
      <trkpt lat="44.08626" lon="6.51208">
        <ele>1145.5999755859</ele>
        <time>2022-08-20T16:05:29Z</time>
      </trkpt>
      <trkpt lat="44.08624" lon="6.51208">
        <ele>1145.8000488281</ele>
        <time>2022-08-20T16:05:30Z</time>
      </trkpt>
      <trkpt lat="44.08616" lon="6.51207">
        <ele>1146.1999511719</ele>
        <time>2022-08-20T16:05:34Z</time>
      </trkpt>
      <trkpt lat="44.08613" lon="6.51206">
        <ele>1146.4000244141</ele>
        <time>2022-08-20T16:05:36Z</time>
      </trkpt>
      <trkpt lat="44.08611" lon="6.51206">
        <ele>1146.5999755859</ele>
        <time>2022-08-20T16:05:37Z</time>
      </trkpt>
      <trkpt lat="44.0861" lon="6.51207">
        <ele>1146.8000488281</ele>
        <time>2022-08-20T16:05:38Z</time>
      </trkpt>
      <trkpt lat="44.08605" lon="6.51206">
        <ele>1147.4000244141</ele>
        <time>2022-08-20T16:05:41Z</time>
      </trkpt>
      <trkpt lat="44.086" lon="6.51207">
        <ele>1147.8000488281</ele>
        <time>2022-08-20T16:05:44Z</time>
      </trkpt>
      <trkpt lat="44.08597" lon="6.51206">
        <ele>1147.8000488281</ele>
        <time>2022-08-20T16:05:46Z</time>
      </trkpt>
      <trkpt lat="44.08595" lon="6.51205">
        <ele>1148.1999511719</ele>
        <time>2022-08-20T16:05:48Z</time>
      </trkpt>
      <trkpt lat="44.08593" lon="6.51205">
        <ele>1148.4000244141</ele>
        <time>2022-08-20T16:05:50Z</time>
      </trkpt>
      <trkpt lat="44.08587" lon="6.51204">
        <ele>1149</ele>
        <time>2022-08-20T16:05:55Z</time>
      </trkpt>
      <trkpt lat="44.08574" lon="6.51204">
        <ele>1149.5999755859</ele>
        <time>2022-08-20T16:06:04Z</time>
      </trkpt>
      <trkpt lat="44.08572" lon="6.51205">
        <ele>1150</ele>
        <time>2022-08-20T16:06:06Z</time>
      </trkpt>
      <trkpt lat="44.08571" lon="6.51205">
        <ele>1150.4000244141</ele>
        <time>2022-08-20T16:06:08Z</time>
      </trkpt>
      <trkpt lat="44.08567" lon="6.51206">
        <ele>1150.8000488281</ele>
        <time>2022-08-20T16:06:11Z</time>
      </trkpt>
      <trkpt lat="44.08564" lon="6.51207">
        <ele>1151</ele>
        <time>2022-08-20T16:06:14Z</time>
      </trkpt>
      <trkpt lat="44.08561" lon="6.51209">
        <ele>1151.4000244141</ele>
        <time>2022-08-20T16:06:17Z</time>
      </trkpt>
      <trkpt lat="44.08554" lon="6.5121">
        <ele>1152.1999511719</ele>
        <time>2022-08-20T16:06:22Z</time>
      </trkpt>
      <trkpt lat="44.08551" lon="6.51211">
        <ele>1152.5999755859</ele>
        <time>2022-08-20T16:06:25Z</time>
      </trkpt>
      <trkpt lat="44.08548" lon="6.51211">
        <ele>1153</ele>
        <time>2022-08-20T16:06:27Z</time>
      </trkpt>
      <trkpt lat="44.08547" lon="6.51212">
        <ele>1153.1999511719</ele>
        <time>2022-08-20T16:06:28Z</time>
      </trkpt>
      <trkpt lat="44.08543" lon="6.51213">
        <ele>1154</ele>
        <time>2022-08-20T16:06:32Z</time>
      </trkpt>
      <trkpt lat="44.08541" lon="6.51214">
        <ele>1154.4000244141</ele>
        <time>2022-08-20T16:06:34Z</time>
      </trkpt>
      <trkpt lat="44.08534" lon="6.51217">
        <ele>1154.8000488281</ele>
        <time>2022-08-20T16:06:39Z</time>
      </trkpt>
      <trkpt lat="44.08527" lon="6.51221">
        <ele>1155.4000244141</ele>
        <time>2022-08-20T16:06:44Z</time>
      </trkpt>
      <trkpt lat="44.08526" lon="6.51221">
        <ele>1155.5999755859</ele>
        <time>2022-08-20T16:06:45Z</time>
      </trkpt>
      <trkpt lat="44.08519" lon="6.51223">
        <ele>1156.1999511719</ele>
        <time>2022-08-20T16:06:50Z</time>
      </trkpt>
      <trkpt lat="44.08517" lon="6.51223">
        <ele>1156.1999511719</ele>
        <time>2022-08-20T16:06:51Z</time>
      </trkpt>
      <trkpt lat="44.08515" lon="6.51224">
        <ele>1156.5999755859</ele>
        <time>2022-08-20T16:06:53Z</time>
      </trkpt>
      <trkpt lat="44.08509" lon="6.51225">
        <ele>1157.4000244141</ele>
        <time>2022-08-20T16:06:57Z</time>
      </trkpt>
      <trkpt lat="44.08507" lon="6.51224">
        <ele>1157.8000488281</ele>
        <time>2022-08-20T16:06:59Z</time>
      </trkpt>
      <trkpt lat="44.08505" lon="6.51224">
        <ele>1157.8000488281</ele>
        <time>2022-08-20T16:07:00Z</time>
      </trkpt>
      <trkpt lat="44.08499" lon="6.51223">
        <ele>1158.5999755859</ele>
        <time>2022-08-20T16:07:05Z</time>
      </trkpt>
      <trkpt lat="44.08497" lon="6.51222">
        <ele>1158.8000488281</ele>
        <time>2022-08-20T16:07:07Z</time>
      </trkpt>
      <trkpt lat="44.08488" lon="6.51222">
        <ele>1160</ele>
        <time>2022-08-20T16:07:14Z</time>
      </trkpt>
      <trkpt lat="44.0848" lon="6.51227">
        <ele>1160.5999755859</ele>
        <time>2022-08-20T16:07:20Z</time>
      </trkpt>
      <trkpt lat="44.08475" lon="6.51231">
        <ele>1160.8000488281</ele>
        <time>2022-08-20T16:07:24Z</time>
      </trkpt>
      <trkpt lat="44.08472" lon="6.51233">
        <ele>1161</ele>
        <time>2022-08-20T16:07:26Z</time>
      </trkpt>
      <trkpt lat="44.08469" lon="6.51235">
        <ele>1161.1999511719</ele>
        <time>2022-08-20T16:07:28Z</time>
      </trkpt>
      <trkpt lat="44.08467" lon="6.51237">
        <ele>1161.4000244141</ele>
        <time>2022-08-20T16:07:30Z</time>
      </trkpt>
      <trkpt lat="44.08466" lon="6.51238">
        <ele>1161.4000244141</ele>
        <time>2022-08-20T16:07:31Z</time>
      </trkpt>
      <trkpt lat="44.08458" lon="6.51243">
        <ele>1162</ele>
        <time>2022-08-20T16:07:37Z</time>
      </trkpt>
      <trkpt lat="44.08455" lon="6.51244">
        <ele>1162.4000244141</ele>
        <time>2022-08-20T16:07:39Z</time>
      </trkpt>
      <trkpt lat="44.08448" lon="6.5125">
        <ele>1163</ele>
        <time>2022-08-20T16:07:46Z</time>
      </trkpt>
      <trkpt lat="44.08446" lon="6.51252">
        <ele>1163.1999511719</ele>
        <time>2022-08-20T16:07:48Z</time>
      </trkpt>
      <trkpt lat="44.0844" lon="6.51256">
        <ele>1164</ele>
        <time>2022-08-20T16:07:54Z</time>
      </trkpt>
      <trkpt lat="44.08437" lon="6.51257">
        <ele>1164.5999755859</ele>
        <time>2022-08-20T16:07:56Z</time>
      </trkpt>
      <trkpt lat="44.08435" lon="6.51258">
        <ele>1165</ele>
        <time>2022-08-20T16:07:58Z</time>
      </trkpt>
      <trkpt lat="44.08433" lon="6.51258">
        <ele>1165.1999511719</ele>
        <time>2022-08-20T16:07:59Z</time>
      </trkpt>
      <trkpt lat="44.08429" lon="6.51257">
        <ele>1166</ele>
        <time>2022-08-20T16:08:03Z</time>
      </trkpt>
      <trkpt lat="44.08427" lon="6.51256">
        <ele>1166.1999511719</ele>
        <time>2022-08-20T16:08:04Z</time>
      </trkpt>
      <trkpt lat="44.08422" lon="6.51254">
        <ele>1167</ele>
        <time>2022-08-20T16:08:08Z</time>
      </trkpt>
      <trkpt lat="44.08421" lon="6.51253">
        <ele>1167.1999511719</ele>
        <time>2022-08-20T16:08:09Z</time>
      </trkpt>
      <trkpt lat="44.08418" lon="6.51251">
        <ele>1167.8000488281</ele>
        <time>2022-08-20T16:08:12Z</time>
      </trkpt>
      <trkpt lat="44.08414" lon="6.5125">
        <ele>1168.1999511719</ele>
        <time>2022-08-20T16:08:16Z</time>
      </trkpt>
      <trkpt lat="44.0841" lon="6.51251">
        <ele>1168.8000488281</ele>
        <time>2022-08-20T16:08:19Z</time>
      </trkpt>
      <trkpt lat="44.08405" lon="6.51253">
        <ele>1169.4000244141</ele>
        <time>2022-08-20T16:08:24Z</time>
      </trkpt>
      <trkpt lat="44.08401" lon="6.51257">
        <ele>1169.8000488281</ele>
        <time>2022-08-20T16:08:28Z</time>
      </trkpt>
      <trkpt lat="44.08396" lon="6.51264">
        <ele>1170.4000244141</ele>
        <time>2022-08-20T16:08:34Z</time>
      </trkpt>
      <trkpt lat="44.08393" lon="6.51271">
        <ele>1170.8000488281</ele>
        <time>2022-08-20T16:08:39Z</time>
      </trkpt>
      <trkpt lat="44.08387" lon="6.51283">
        <ele>1171.4000244141</ele>
        <time>2022-08-20T16:08:46Z</time>
      </trkpt>
      <trkpt lat="44.08383" lon="6.51288">
        <ele>1171.8000488281</ele>
        <time>2022-08-20T16:08:50Z</time>
      </trkpt>
      <trkpt lat="44.08377" lon="6.51294">
        <ele>1172.5999755859</ele>
        <time>2022-08-20T16:08:56Z</time>
      </trkpt>
      <trkpt lat="44.08374" lon="6.51296">
        <ele>1172.8000488281</ele>
        <time>2022-08-20T16:08:58Z</time>
      </trkpt>
      <trkpt lat="44.08367" lon="6.51299">
        <ele>1173.5999755859</ele>
        <time>2022-08-20T16:09:04Z</time>
      </trkpt>
      <trkpt lat="44.08366" lon="6.513">
        <ele>1173.8000488281</ele>
        <time>2022-08-20T16:09:05Z</time>
      </trkpt>
      <trkpt lat="44.08365" lon="6.513">
        <ele>1173.8000488281</ele>
        <time>2022-08-20T16:09:06Z</time>
      </trkpt>
      <trkpt lat="44.0836" lon="6.513">
        <ele>1174.4000244141</ele>
        <time>2022-08-20T16:09:10Z</time>
      </trkpt>
      <trkpt lat="44.08357" lon="6.513">
        <ele>1174.8000488281</ele>
        <time>2022-08-20T16:09:12Z</time>
      </trkpt>
      <trkpt lat="44.08348" lon="6.51302">
        <ele>1175.8000488281</ele>
        <time>2022-08-20T16:09:19Z</time>
      </trkpt>
      <trkpt lat="44.08347" lon="6.51302">
        <ele>1176</ele>
        <time>2022-08-20T16:09:20Z</time>
      </trkpt>
      <trkpt lat="44.08341" lon="6.513">
        <ele>1176.5999755859</ele>
        <time>2022-08-20T16:09:26Z</time>
      </trkpt>
      <trkpt lat="44.08341" lon="6.51301">
        <ele>1176.8000488281</ele>
        <time>2022-08-20T16:09:28Z</time>
      </trkpt>
      <trkpt lat="44.0834" lon="6.51303">
        <ele>1177.1999511719</ele>
        <time>2022-08-20T16:09:33Z</time>
      </trkpt>
      <trkpt lat="44.0834" lon="6.51304">
        <ele>1177.1999511719</ele>
        <time>2022-08-20T16:09:38Z</time>
      </trkpt>
      <trkpt lat="44.0834" lon="6.51303">
        <ele>1176.8000488281</ele>
        <time>2022-08-20T16:09:43Z</time>
      </trkpt>
      <trkpt lat="44.0834" lon="6.51303">
        <ele>1176.8000488281</ele>
        <time>2022-08-20T16:09:53Z</time>
      </trkpt>
      <trkpt lat="44.08339" lon="6.51304">
        <ele>1176.8000488281</ele>
        <time>2022-08-20T16:09:57Z</time>
      </trkpt>
      <trkpt lat="44.08338" lon="6.51304">
        <ele>1176.8000488281</ele>
        <time>2022-08-20T16:09:59Z</time>
      </trkpt>
      <trkpt lat="44.08338" lon="6.51305">
        <ele>1176.8000488281</ele>
        <time>2022-08-20T16:10:02Z</time>
      </trkpt>
      <trkpt lat="44.08338" lon="6.51304">
        <ele>1176.8000488281</ele>
        <time>2022-08-20T16:10:03Z</time>
      </trkpt>
      <trkpt lat="44.08328" lon="6.51307">
        <ele>1177.4000244141</ele>
        <time>2022-08-20T16:10:12Z</time>
      </trkpt>
      <trkpt lat="44.08321" lon="6.51309">
        <ele>1177.8000488281</ele>
        <time>2022-08-20T16:10:16Z</time>
      </trkpt>
      <trkpt lat="44.08316" lon="6.5131">
        <ele>1178.5999755859</ele>
        <time>2022-08-20T16:10:20Z</time>
      </trkpt>
      <trkpt lat="44.08312" lon="6.5131">
        <ele>1179</ele>
        <time>2022-08-20T16:10:23Z</time>
      </trkpt>
      <trkpt lat="44.08305" lon="6.51314">
        <ele>1180</ele>
        <time>2022-08-20T16:10:28Z</time>
      </trkpt>
      <trkpt lat="44.08304" lon="6.51314">
        <ele>1180.1999511719</ele>
        <time>2022-08-20T16:10:29Z</time>
      </trkpt>
      <trkpt lat="44.08301" lon="6.51314">
        <ele>1181</ele>
        <time>2022-08-20T16:10:32Z</time>
      </trkpt>
      <trkpt lat="44.083" lon="6.51314">
        <ele>1181.1999511719</ele>
        <time>2022-08-20T16:10:33Z</time>
      </trkpt>
      <trkpt lat="44.08298" lon="6.51314">
        <ele>1181.4000244141</ele>
        <time>2022-08-20T16:10:34Z</time>
      </trkpt>
      <trkpt lat="44.08297" lon="6.51314">
        <ele>1181.8000488281</ele>
        <time>2022-08-20T16:10:35Z</time>
      </trkpt>
      <trkpt lat="44.08293" lon="6.51314">
        <ele>1182.4000244141</ele>
        <time>2022-08-20T16:10:38Z</time>
      </trkpt>
      <trkpt lat="44.08287" lon="6.51313">
        <ele>1183.1999511719</ele>
        <time>2022-08-20T16:10:42Z</time>
      </trkpt>
      <trkpt lat="44.08286" lon="6.51313">
        <ele>1183.4000244141</ele>
        <time>2022-08-20T16:10:43Z</time>
      </trkpt>
      <trkpt lat="44.08284" lon="6.51313">
        <ele>1183.5999755859</ele>
        <time>2022-08-20T16:10:44Z</time>
      </trkpt>
      <trkpt lat="44.0828" lon="6.51312">
        <ele>1184.4000244141</ele>
        <time>2022-08-20T16:10:49Z</time>
      </trkpt>
      <trkpt lat="44.08278" lon="6.51311">
        <ele>1184.4000244141</ele>
        <time>2022-08-20T16:10:50Z</time>
      </trkpt>
      <trkpt lat="44.08277" lon="6.51311">
        <ele>1184.5999755859</ele>
        <time>2022-08-20T16:10:51Z</time>
      </trkpt>
      <trkpt lat="44.08267" lon="6.5131">
        <ele>1185.5999755859</ele>
        <time>2022-08-20T16:11:00Z</time>
      </trkpt>
      <trkpt lat="44.08258" lon="6.51313">
        <ele>1186.8000488281</ele>
        <time>2022-08-20T16:11:07Z</time>
      </trkpt>
      <trkpt lat="44.08255" lon="6.51313">
        <ele>1187.4000244141</ele>
        <time>2022-08-20T16:11:10Z</time>
      </trkpt>
      <trkpt lat="44.08252" lon="6.51313">
        <ele>1188</ele>
        <time>2022-08-20T16:11:13Z</time>
      </trkpt>
      <trkpt lat="44.08245" lon="6.5131">
        <ele>1189</ele>
        <time>2022-08-20T16:11:19Z</time>
      </trkpt>
      <trkpt lat="44.0824" lon="6.51308">
        <ele>1189.8000488281</ele>
        <time>2022-08-20T16:11:23Z</time>
      </trkpt>
      <trkpt lat="44.08239" lon="6.51307">
        <ele>1190</ele>
        <time>2022-08-20T16:11:25Z</time>
      </trkpt>
      <trkpt lat="44.08231" lon="6.51304">
        <ele>1191</ele>
        <time>2022-08-20T16:11:31Z</time>
      </trkpt>
      <trkpt lat="44.08229" lon="6.51303">
        <ele>1191.4000244141</ele>
        <time>2022-08-20T16:11:33Z</time>
      </trkpt>
      <trkpt lat="44.08223" lon="6.51301">
        <ele>1192.1999511719</ele>
        <time>2022-08-20T16:11:38Z</time>
      </trkpt>
      <trkpt lat="44.08221" lon="6.513">
        <ele>1192.5999755859</ele>
        <time>2022-08-20T16:11:40Z</time>
      </trkpt>
      <trkpt lat="44.08218" lon="6.51299">
        <ele>1193.4000244141</ele>
        <time>2022-08-20T16:11:43Z</time>
      </trkpt>
      <trkpt lat="44.0821" lon="6.51295">
        <ele>1194.4000244141</ele>
        <time>2022-08-20T16:11:50Z</time>
      </trkpt>
      <trkpt lat="44.08203" lon="6.51289">
        <ele>1195.4000244141</ele>
        <time>2022-08-20T16:11:57Z</time>
      </trkpt>
      <trkpt lat="44.08201" lon="6.51288">
        <ele>1195.5999755859</ele>
        <time>2022-08-20T16:11:58Z</time>
      </trkpt>
      <trkpt lat="44.08195" lon="6.51283">
        <ele>1196.5999755859</ele>
        <time>2022-08-20T16:12:04Z</time>
      </trkpt>
      <trkpt lat="44.08193" lon="6.51282">
        <ele>1196.8000488281</ele>
        <time>2022-08-20T16:12:05Z</time>
      </trkpt>
      <trkpt lat="44.08186" lon="6.51277">
        <ele>1197.8000488281</ele>
        <time>2022-08-20T16:12:11Z</time>
      </trkpt>
      <trkpt lat="44.08181" lon="6.51275">
        <ele>1198.1999511719</ele>
        <time>2022-08-20T16:12:15Z</time>
      </trkpt>
      <trkpt lat="44.08177" lon="6.51272">
        <ele>1198.8000488281</ele>
        <time>2022-08-20T16:12:19Z</time>
      </trkpt>
      <trkpt lat="44.08172" lon="6.51269">
        <ele>1199.5999755859</ele>
        <time>2022-08-20T16:12:24Z</time>
      </trkpt>
      <trkpt lat="44.08171" lon="6.51269">
        <ele>1199.8000488281</ele>
        <time>2022-08-20T16:12:25Z</time>
      </trkpt>
      <trkpt lat="44.0817" lon="6.51269">
        <ele>1200</ele>
        <time>2022-08-20T16:12:26Z</time>
      </trkpt>
      <trkpt lat="44.08166" lon="6.51269">
        <ele>1200.5999755859</ele>
        <time>2022-08-20T16:12:30Z</time>
      </trkpt>
      <trkpt lat="44.08165" lon="6.51269">
        <ele>1200.8000488281</ele>
        <time>2022-08-20T16:12:31Z</time>
      </trkpt>
      <trkpt lat="44.08163" lon="6.51267">
        <ele>1201</ele>
        <time>2022-08-20T16:12:33Z</time>
      </trkpt>
      <trkpt lat="44.0816" lon="6.51266">
        <ele>1201.4000244141</ele>
        <time>2022-08-20T16:12:36Z</time>
      </trkpt>
      <trkpt lat="44.08158" lon="6.51266">
        <ele>1201.5999755859</ele>
        <time>2022-08-20T16:12:38Z</time>
      </trkpt>
      <trkpt lat="44.08155" lon="6.51266">
        <ele>1201.8000488281</ele>
        <time>2022-08-20T16:12:40Z</time>
      </trkpt>
      <trkpt lat="44.08154" lon="6.51266">
        <ele>1202</ele>
        <time>2022-08-20T16:12:41Z</time>
      </trkpt>
      <trkpt lat="44.08152" lon="6.51267">
        <ele>1202.4000244141</ele>
        <time>2022-08-20T16:12:43Z</time>
      </trkpt>
      <trkpt lat="44.0815" lon="6.51267">
        <ele>1202.8000488281</ele>
        <time>2022-08-20T16:12:45Z</time>
      </trkpt>
      <trkpt lat="44.08147" lon="6.51268">
        <ele>1203.1999511719</ele>
        <time>2022-08-20T16:12:47Z</time>
      </trkpt>
      <trkpt lat="44.08139" lon="6.5127">
        <ele>1204.1999511719</ele>
        <time>2022-08-20T16:12:54Z</time>
      </trkpt>
      <trkpt lat="44.08131" lon="6.51276">
        <ele>1205.1999511719</ele>
        <time>2022-08-20T16:13:02Z</time>
      </trkpt>
      <trkpt lat="44.0813" lon="6.51277">
        <ele>1205.4000244141</ele>
        <time>2022-08-20T16:13:03Z</time>
      </trkpt>
      <trkpt lat="44.08127" lon="6.51282">
        <ele>1206</ele>
        <time>2022-08-20T16:13:07Z</time>
      </trkpt>
      <trkpt lat="44.08127" lon="6.51283">
        <ele>1206.1999511719</ele>
        <time>2022-08-20T16:13:08Z</time>
      </trkpt>
      <trkpt lat="44.08125" lon="6.51285">
        <ele>1206.4000244141</ele>
        <time>2022-08-20T16:13:10Z</time>
      </trkpt>
      <trkpt lat="44.0812" lon="6.51289">
        <ele>1207.5999755859</ele>
        <time>2022-08-20T16:13:17Z</time>
      </trkpt>
      <trkpt lat="44.08111" lon="6.51283">
        <ele>1208.5999755859</ele>
        <time>2022-08-20T16:13:24Z</time>
      </trkpt>
      <trkpt lat="44.08109" lon="6.51279">
        <ele>1209</ele>
        <time>2022-08-20T16:13:26Z</time>
      </trkpt>
      <trkpt lat="44.08106" lon="6.51275">
        <ele>1209.8000488281</ele>
        <time>2022-08-20T16:13:30Z</time>
      </trkpt>
      <trkpt lat="44.08102" lon="6.51266">
        <ele>1210.5999755859</ele>
        <time>2022-08-20T16:13:37Z</time>
      </trkpt>
      <trkpt lat="44.081" lon="6.51261">
        <ele>1210.8000488281</ele>
        <time>2022-08-20T16:13:41Z</time>
      </trkpt>
      <trkpt lat="44.08096" lon="6.51255">
        <ele>1211.4000244141</ele>
        <time>2022-08-20T16:13:46Z</time>
      </trkpt>
      <trkpt lat="44.08092" lon="6.51253">
        <ele>1212</ele>
        <time>2022-08-20T16:13:49Z</time>
      </trkpt>
      <trkpt lat="44.08086" lon="6.5125">
        <ele>1213.1999511719</ele>
        <time>2022-08-20T16:13:55Z</time>
      </trkpt>
      <trkpt lat="44.08076" lon="6.51247">
        <ele>1214.4000244141</ele>
        <time>2022-08-20T16:14:04Z</time>
      </trkpt>
      <trkpt lat="44.08074" lon="6.51248">
        <ele>1214.5999755859</ele>
        <time>2022-08-20T16:14:06Z</time>
      </trkpt>
      <trkpt lat="44.08064" lon="6.51248">
        <ele>1215.4000244141</ele>
        <time>2022-08-20T16:14:14Z</time>
      </trkpt>
      <trkpt lat="44.08062" lon="6.51247">
        <ele>1215.5999755859</ele>
        <time>2022-08-20T16:14:16Z</time>
      </trkpt>
      <trkpt lat="44.08058" lon="6.51242">
        <ele>1216.4000244141</ele>
        <time>2022-08-20T16:14:20Z</time>
      </trkpt>
      <trkpt lat="44.08057" lon="6.51241">
        <ele>1216.5999755859</ele>
        <time>2022-08-20T16:14:21Z</time>
      </trkpt>
      <trkpt lat="44.08057" lon="6.5124">
        <ele>1216.8000488281</ele>
        <time>2022-08-20T16:14:22Z</time>
      </trkpt>
      <trkpt lat="44.08057" lon="6.51229">
        <ele>1217.5999755859</ele>
        <time>2022-08-20T16:14:28Z</time>
      </trkpt>
      <trkpt lat="44.08058" lon="6.51228">
        <ele>1217.8000488281</ele>
        <time>2022-08-20T16:14:29Z</time>
      </trkpt>
      <trkpt lat="44.08064" lon="6.51219">
        <ele>1218.8000488281</ele>
        <time>2022-08-20T16:14:36Z</time>
      </trkpt>
      <trkpt lat="44.08068" lon="6.51216">
        <ele>1218.8000488281</ele>
        <time>2022-08-20T16:14:39Z</time>
      </trkpt>
      <trkpt lat="44.08075" lon="6.51215">
        <ele>1219.1999511719</ele>
        <time>2022-08-20T16:14:43Z</time>
      </trkpt>
      <trkpt lat="44.08079" lon="6.51211">
        <ele>1219.5999755859</ele>
        <time>2022-08-20T16:14:46Z</time>
      </trkpt>
      <trkpt lat="44.0808" lon="6.5121">
        <ele>1219.8000488281</ele>
        <time>2022-08-20T16:14:47Z</time>
      </trkpt>
      <trkpt lat="44.08085" lon="6.51201">
        <ele>1220.4000244141</ele>
        <time>2022-08-20T16:14:53Z</time>
      </trkpt>
      <trkpt lat="44.08086" lon="6.51199">
        <ele>1220.5999755859</ele>
        <time>2022-08-20T16:14:54Z</time>
      </trkpt>
      <trkpt lat="44.08086" lon="6.5119">
        <ele>1220.8000488281</ele>
        <time>2022-08-20T16:14:58Z</time>
      </trkpt>
      <trkpt lat="44.08086" lon="6.51188">
        <ele>1221</ele>
        <time>2022-08-20T16:14:59Z</time>
      </trkpt>
      <trkpt lat="44.08084" lon="6.51176">
        <ele>1221.5999755859</ele>
        <time>2022-08-20T16:15:05Z</time>
      </trkpt>
      <trkpt lat="44.08084" lon="6.51174">
        <ele>1221.5999755859</ele>
        <time>2022-08-20T16:15:06Z</time>
      </trkpt>
      <trkpt lat="44.08083" lon="6.5117">
        <ele>1222</ele>
        <time>2022-08-20T16:15:08Z</time>
      </trkpt>
      <trkpt lat="44.08081" lon="6.5116">
        <ele>1222.4000244141</ele>
        <time>2022-08-20T16:15:14Z</time>
      </trkpt>
      <trkpt lat="44.08077" lon="6.51144">
        <ele>1223</ele>
        <time>2022-08-20T16:15:20Z</time>
      </trkpt>
      <trkpt lat="44.08073" lon="6.51127">
        <ele>1223.1999511719</ele>
        <time>2022-08-20T16:15:26Z</time>
      </trkpt>
      <trkpt lat="44.08071" lon="6.5111">
        <ele>1224.1999511719</ele>
        <time>2022-08-20T16:15:32Z</time>
      </trkpt>
      <trkpt lat="44.08071" lon="6.51105">
        <ele>1224.4000244141</ele>
        <time>2022-08-20T16:15:34Z</time>
      </trkpt>
      <trkpt lat="44.08072" lon="6.511">
        <ele>1224.5999755859</ele>
        <time>2022-08-20T16:15:36Z</time>
      </trkpt>
      <trkpt lat="44.08071" lon="6.51093">
        <ele>1225</ele>
        <time>2022-08-20T16:15:39Z</time>
      </trkpt>
      <trkpt lat="44.08071" lon="6.51088">
        <ele>1225.1999511719</ele>
        <time>2022-08-20T16:15:41Z</time>
      </trkpt>
      <trkpt lat="44.08073" lon="6.51073">
        <ele>1226</ele>
        <time>2022-08-20T16:15:47Z</time>
      </trkpt>
      <trkpt lat="44.08076" lon="6.51066">
        <ele>1226.4000244141</ele>
        <time>2022-08-20T16:15:50Z</time>
      </trkpt>
      <trkpt lat="44.08079" lon="6.5106">
        <ele>1226.5999755859</ele>
        <time>2022-08-20T16:15:53Z</time>
      </trkpt>
      <trkpt lat="44.08083" lon="6.51053">
        <ele>1227.4000244141</ele>
        <time>2022-08-20T16:15:57Z</time>
      </trkpt>
      <trkpt lat="44.08089" lon="6.51047">
        <ele>1227.8000488281</ele>
        <time>2022-08-20T16:16:01Z</time>
      </trkpt>
      <trkpt lat="44.08093" lon="6.51042">
        <ele>1228.4000244141</ele>
        <time>2022-08-20T16:16:04Z</time>
      </trkpt>
      <trkpt lat="44.08099" lon="6.51032">
        <ele>1229.4000244141</ele>
        <time>2022-08-20T16:16:10Z</time>
      </trkpt>
      <trkpt lat="44.081" lon="6.5103">
        <ele>1229.4000244141</ele>
        <time>2022-08-20T16:16:11Z</time>
      </trkpt>
      <trkpt lat="44.08103" lon="6.51022">
        <ele>1230</ele>
        <time>2022-08-20T16:16:15Z</time>
      </trkpt>
      <trkpt lat="44.08103" lon="6.51014">
        <ele>1230.1999511719</ele>
        <time>2022-08-20T16:16:18Z</time>
      </trkpt>
      <trkpt lat="44.08103" lon="6.5101">
        <ele>1230.5999755859</ele>
        <time>2022-08-20T16:16:20Z</time>
      </trkpt>
      <trkpt lat="44.081" lon="6.50997">
        <ele>1231.8000488281</ele>
        <time>2022-08-20T16:16:27Z</time>
      </trkpt>
      <trkpt lat="44.0809" lon="6.50979">
        <ele>1232.5999755859</ele>
        <time>2022-08-20T16:16:36Z</time>
      </trkpt>
      <trkpt lat="44.08087" lon="6.50977">
        <ele>1232.8000488281</ele>
        <time>2022-08-20T16:16:38Z</time>
      </trkpt>
      <trkpt lat="44.08079" lon="6.50967">
        <ele>1233.5999755859</ele>
        <time>2022-08-20T16:16:45Z</time>
      </trkpt>
      <trkpt lat="44.08079" lon="6.50964">
        <ele>1233.8000488281</ele>
        <time>2022-08-20T16:16:46Z</time>
      </trkpt>
      <trkpt lat="44.08077" lon="6.50952">
        <ele>1234.1999511719</ele>
        <time>2022-08-20T16:16:51Z</time>
      </trkpt>
      <trkpt lat="44.08078" lon="6.50945">
        <ele>1234.5999755859</ele>
        <time>2022-08-20T16:16:55Z</time>
      </trkpt>
      <trkpt lat="44.08079" lon="6.50942">
        <ele>1234.8000488281</ele>
        <time>2022-08-20T16:16:57Z</time>
      </trkpt>
      <trkpt lat="44.0808" lon="6.50941">
        <ele>1235</ele>
        <time>2022-08-20T16:16:58Z</time>
      </trkpt>
      <trkpt lat="44.08086" lon="6.50934">
        <ele>1236</ele>
        <time>2022-08-20T16:17:04Z</time>
      </trkpt>
      <trkpt lat="44.08087" lon="6.5093">
        <ele>1236.1999511719</ele>
        <time>2022-08-20T16:17:06Z</time>
      </trkpt>
      <trkpt lat="44.08093" lon="6.50919">
        <ele>1236.8000488281</ele>
        <time>2022-08-20T16:17:12Z</time>
      </trkpt>
      <trkpt lat="44.08093" lon="6.50918">
        <ele>1237</ele>
        <time>2022-08-20T16:17:13Z</time>
      </trkpt>
      <trkpt lat="44.08095" lon="6.50914">
        <ele>1237.1999511719</ele>
        <time>2022-08-20T16:17:15Z</time>
      </trkpt>
      <trkpt lat="44.08095" lon="6.50899">
        <ele>1238</ele>
        <time>2022-08-20T16:17:22Z</time>
      </trkpt>
      <trkpt lat="44.08088" lon="6.5089">
        <ele>1238.5999755859</ele>
        <time>2022-08-20T16:17:29Z</time>
      </trkpt>
      <trkpt lat="44.0808" lon="6.50887">
        <ele>1239</ele>
        <time>2022-08-20T16:17:34Z</time>
      </trkpt>
      <trkpt lat="44.08075" lon="6.50885">
        <ele>1239.1999511719</ele>
        <time>2022-08-20T16:17:38Z</time>
      </trkpt>
      <trkpt lat="44.08067" lon="6.50889">
        <ele>1240.1999511719</ele>
        <time>2022-08-20T16:17:45Z</time>
      </trkpt>
      <trkpt lat="44.08066" lon="6.5089">
        <ele>1240.1999511719</ele>
        <time>2022-08-20T16:17:46Z</time>
      </trkpt>
      <trkpt lat="44.08063" lon="6.50892">
        <ele>1240.5999755859</ele>
        <time>2022-08-20T16:17:49Z</time>
      </trkpt>
      <trkpt lat="44.08059" lon="6.50894">
        <ele>1240.8000488281</ele>
        <time>2022-08-20T16:17:52Z</time>
      </trkpt>
      <trkpt lat="44.08057" lon="6.50896">
        <ele>1241.1999511719</ele>
        <time>2022-08-20T16:17:54Z</time>
      </trkpt>
      <trkpt lat="44.08045" lon="6.50902">
        <ele>1242</ele>
        <time>2022-08-20T16:18:02Z</time>
      </trkpt>
      <trkpt lat="44.0804" lon="6.50899">
        <ele>1242.4000244141</ele>
        <time>2022-08-20T16:18:06Z</time>
      </trkpt>
      <trkpt lat="44.08033" lon="6.50893">
        <ele>1243.1999511719</ele>
        <time>2022-08-20T16:18:12Z</time>
      </trkpt>
      <trkpt lat="44.08032" lon="6.50893">
        <ele>1243.4000244141</ele>
        <time>2022-08-20T16:18:13Z</time>
      </trkpt>
      <trkpt lat="44.0803" lon="6.50891">
        <ele>1243.5999755859</ele>
        <time>2022-08-20T16:18:15Z</time>
      </trkpt>
      <trkpt lat="44.08026" lon="6.50889">
        <ele>1244</ele>
        <time>2022-08-20T16:18:18Z</time>
      </trkpt>
      <trkpt lat="44.08021" lon="6.50887">
        <ele>1244.4000244141</ele>
        <time>2022-08-20T16:18:22Z</time>
      </trkpt>
      <trkpt lat="44.08018" lon="6.50886">
        <ele>1244.8000488281</ele>
        <time>2022-08-20T16:18:24Z</time>
      </trkpt>
      <trkpt lat="44.08007" lon="6.50881">
        <ele>1245.4000244141</ele>
        <time>2022-08-20T16:18:32Z</time>
      </trkpt>
      <trkpt lat="44.08006" lon="6.50881">
        <ele>1245.5999755859</ele>
        <time>2022-08-20T16:18:33Z</time>
      </trkpt>
      <trkpt lat="44.07997" lon="6.50877">
        <ele>1246.1999511719</ele>
        <time>2022-08-20T16:18:40Z</time>
      </trkpt>
      <trkpt lat="44.07991" lon="6.50876">
        <ele>1246.8000488281</ele>
        <time>2022-08-20T16:18:44Z</time>
      </trkpt>
      <trkpt lat="44.07984" lon="6.50873">
        <ele>1247.1999511719</ele>
        <time>2022-08-20T16:18:49Z</time>
      </trkpt>
      <trkpt lat="44.07976" lon="6.50869">
        <ele>1248</ele>
        <time>2022-08-20T16:18:55Z</time>
      </trkpt>
      <trkpt lat="44.07974" lon="6.50867">
        <ele>1248</ele>
        <time>2022-08-20T16:18:56Z</time>
      </trkpt>
      <trkpt lat="44.07972" lon="6.50865">
        <ele>1248.4000244141</ele>
        <time>2022-08-20T16:18:58Z</time>
      </trkpt>
      <trkpt lat="44.07966" lon="6.50859">
        <ele>1249</ele>
        <time>2022-08-20T16:19:03Z</time>
      </trkpt>
      <trkpt lat="44.07964" lon="6.50854">
        <ele>1249.4000244141</ele>
        <time>2022-08-20T16:19:06Z</time>
      </trkpt>
      <trkpt lat="44.07962" lon="6.50853">
        <ele>1249.5999755859</ele>
        <time>2022-08-20T16:19:08Z</time>
      </trkpt>
      <trkpt lat="44.07957" lon="6.50851">
        <ele>1250</ele>
        <time>2022-08-20T16:19:12Z</time>
      </trkpt>
      <trkpt lat="44.07952" lon="6.5085">
        <ele>1250.4000244141</ele>
        <time>2022-08-20T16:19:16Z</time>
      </trkpt>
      <trkpt lat="44.07947" lon="6.5085">
        <ele>1251.1999511719</ele>
        <time>2022-08-20T16:19:20Z</time>
      </trkpt>
      <trkpt lat="44.07939" lon="6.50851">
        <ele>1252</ele>
        <time>2022-08-20T16:19:26Z</time>
      </trkpt>
      <trkpt lat="44.07937" lon="6.50851">
        <ele>1252.1999511719</ele>
        <time>2022-08-20T16:19:28Z</time>
      </trkpt>
      <trkpt lat="44.0793" lon="6.5085">
        <ele>1253</ele>
        <time>2022-08-20T16:19:34Z</time>
      </trkpt>
      <trkpt lat="44.07929" lon="6.5085">
        <ele>1253.1999511719</ele>
        <time>2022-08-20T16:19:35Z</time>
      </trkpt>
      <trkpt lat="44.0792" lon="6.50846">
        <ele>1254</ele>
        <time>2022-08-20T16:19:41Z</time>
      </trkpt>
      <trkpt lat="44.07917" lon="6.50845">
        <ele>1254.4000244141</ele>
        <time>2022-08-20T16:19:43Z</time>
      </trkpt>
      <trkpt lat="44.07916" lon="6.50844">
        <ele>1254.5999755859</ele>
        <time>2022-08-20T16:19:44Z</time>
      </trkpt>
      <trkpt lat="44.0791" lon="6.50839">
        <ele>1255</ele>
        <time>2022-08-20T16:19:48Z</time>
      </trkpt>
      <trkpt lat="44.07907" lon="6.50837">
        <ele>1255.4000244141</ele>
        <time>2022-08-20T16:19:50Z</time>
      </trkpt>
      <trkpt lat="44.07901" lon="6.50833">
        <ele>1256.1999511719</ele>
        <time>2022-08-20T16:19:55Z</time>
      </trkpt>
      <trkpt lat="44.07898" lon="6.50832">
        <ele>1256.5999755859</ele>
        <time>2022-08-20T16:19:57Z</time>
      </trkpt>
      <trkpt lat="44.07891" lon="6.50833">
        <ele>1257.1999511719</ele>
        <time>2022-08-20T16:20:03Z</time>
      </trkpt>
      <trkpt lat="44.07886" lon="6.50835">
        <ele>1257.5999755859</ele>
        <time>2022-08-20T16:20:08Z</time>
      </trkpt>
      <trkpt lat="44.07883" lon="6.50838">
        <ele>1257.8000488281</ele>
        <time>2022-08-20T16:20:11Z</time>
      </trkpt>
      <trkpt lat="44.07878" lon="6.50841">
        <ele>1258.5999755859</ele>
        <time>2022-08-20T16:20:16Z</time>
      </trkpt>
      <trkpt lat="44.07872" lon="6.50847">
        <ele>1259.4000244141</ele>
        <time>2022-08-20T16:20:22Z</time>
      </trkpt>
      <trkpt lat="44.07869" lon="6.5085">
        <ele>1259.8000488281</ele>
        <time>2022-08-20T16:20:25Z</time>
      </trkpt>
      <trkpt lat="44.07868" lon="6.50851">
        <ele>1260</ele>
        <time>2022-08-20T16:20:26Z</time>
      </trkpt>
      <trkpt lat="44.07865" lon="6.50854">
        <ele>1260.4000244141</ele>
        <time>2022-08-20T16:20:29Z</time>
      </trkpt>
      <trkpt lat="44.07864" lon="6.50857">
        <ele>1260.8000488281</ele>
        <time>2022-08-20T16:20:32Z</time>
      </trkpt>
      <trkpt lat="44.07862" lon="6.50859">
        <ele>1261.4000244141</ele>
        <time>2022-08-20T16:20:35Z</time>
      </trkpt>
      <trkpt lat="44.07862" lon="6.50859">
        <ele>1261.5999755859</ele>
        <time>2022-08-20T16:20:36Z</time>
      </trkpt>
      <trkpt lat="44.07863" lon="6.5086">
        <ele>1261.8000488281</ele>
        <time>2022-08-20T16:20:42Z</time>
      </trkpt>
      <trkpt lat="44.07863" lon="6.5086">
        <ele>1261.8000488281</ele>
        <time>2022-08-20T16:20:46Z</time>
      </trkpt>
      <trkpt lat="44.07863" lon="6.5086">
        <ele>1262</ele>
        <time>2022-08-20T16:20:49Z</time>
      </trkpt>
      <trkpt lat="44.07862" lon="6.5086">
        <ele>1262</ele>
        <time>2022-08-20T16:20:54Z</time>
      </trkpt>
      <trkpt lat="44.07861" lon="6.50859">
        <ele>1261.5999755859</ele>
        <time>2022-08-20T16:21:07Z</time>
      </trkpt>
      <trkpt lat="44.07861" lon="6.50859">
        <ele>1261.5999755859</ele>
        <time>2022-08-20T16:21:09Z</time>
      </trkpt>
      <trkpt lat="44.07861" lon="6.50859">
        <ele>1261.5999755859</ele>
        <time>2022-08-20T16:21:13Z</time>
      </trkpt>
      <trkpt lat="44.07861" lon="6.50859">
        <ele>1261.5999755859</ele>
        <time>2022-08-20T16:21:17Z</time>
      </trkpt>
      <trkpt lat="44.07861" lon="6.50859">
        <ele>1261.5999755859</ele>
        <time>2022-08-20T16:21:20Z</time>
      </trkpt>
      <trkpt lat="44.07862" lon="6.50859">
        <ele>1261.5999755859</ele>
        <time>2022-08-20T16:21:25Z</time>
      </trkpt>
      <trkpt lat="44.07863" lon="6.50859">
        <ele>1261.5999755859</ele>
        <time>2022-08-20T16:21:29Z</time>
      </trkpt>
      <trkpt lat="44.07863" lon="6.50859">
        <ele>1261.8000488281</ele>
        <time>2022-08-20T16:21:33Z</time>
      </trkpt>
      <trkpt lat="44.07863" lon="6.50859">
        <ele>1261.5999755859</ele>
        <time>2022-08-20T16:21:39Z</time>
      </trkpt>
      <trkpt lat="44.07864" lon="6.50859">
        <ele>1261.5999755859</ele>
        <time>2022-08-20T16:21:42Z</time>
      </trkpt>
      <trkpt lat="44.07864" lon="6.50859">
        <ele>1261.5999755859</ele>
        <time>2022-08-20T16:21:46Z</time>
      </trkpt>
      <trkpt lat="44.07864" lon="6.5086">
        <ele>1261.5999755859</ele>
        <time>2022-08-20T16:21:55Z</time>
      </trkpt>
      <trkpt lat="44.07863" lon="6.50861">
        <ele>1261.5999755859</ele>
        <time>2022-08-20T16:22:04Z</time>
      </trkpt>
      <trkpt lat="44.07863" lon="6.50861">
        <ele>1261.8000488281</ele>
        <time>2022-08-20T16:22:08Z</time>
      </trkpt>
      <trkpt lat="44.07863" lon="6.50861">
        <ele>1262</ele>
        <time>2022-08-20T16:22:12Z</time>
      </trkpt>
      <trkpt lat="44.07861" lon="6.50863">
        <ele>1262</ele>
        <time>2022-08-20T16:22:24Z</time>
      </trkpt>
      <trkpt lat="44.07861" lon="6.50862">
        <ele>1262.4000244141</ele>
        <time>2022-08-20T16:22:31Z</time>
      </trkpt>
      <trkpt lat="44.07861" lon="6.50862">
        <ele>1262.4000244141</ele>
        <time>2022-08-20T16:22:32Z</time>
      </trkpt>
      <trkpt lat="44.07861" lon="6.50862">
        <ele>1262.1999511719</ele>
        <time>2022-08-20T16:22:40Z</time>
      </trkpt>
      <trkpt lat="44.07861" lon="6.50862">
        <ele>1262.4000244141</ele>
        <time>2022-08-20T16:22:42Z</time>
      </trkpt>
      <trkpt lat="44.07861" lon="6.50862">
        <ele>1262.4000244141</ele>
        <time>2022-08-20T16:22:46Z</time>
      </trkpt>
      <trkpt lat="44.07861" lon="6.50862">
        <ele>1262.4000244141</ele>
        <time>2022-08-20T16:22:47Z</time>
      </trkpt>
      <trkpt lat="44.07861" lon="6.50861">
        <ele>1262.1999511719</ele>
        <time>2022-08-20T16:22:52Z</time>
      </trkpt>
      <trkpt lat="44.07861" lon="6.50861">
        <ele>1262.4000244141</ele>
        <time>2022-08-20T16:22:54Z</time>
      </trkpt>
      <trkpt lat="44.07861" lon="6.50861">
        <ele>1262.4000244141</ele>
        <time>2022-08-20T16:22:57Z</time>
      </trkpt>
      <trkpt lat="44.07859" lon="6.50862">
        <ele>1262.4000244141</ele>
        <time>2022-08-20T16:23:01Z</time>
      </trkpt>
      <trkpt lat="44.07855" lon="6.5087">
        <ele>1263</ele>
        <time>2022-08-20T16:23:06Z</time>
      </trkpt>
      <trkpt lat="44.07852" lon="6.50882">
        <ele>1264</ele>
        <time>2022-08-20T16:23:13Z</time>
      </trkpt>
      <trkpt lat="44.07851" lon="6.50886">
        <ele>1264.4000244141</ele>
        <time>2022-08-20T16:23:15Z</time>
      </trkpt>
      <trkpt lat="44.07852" lon="6.50888">
        <ele>1264.8000488281</ele>
        <time>2022-08-20T16:23:16Z</time>
      </trkpt>
      <trkpt lat="44.07852" lon="6.50891">
        <ele>1265.1999511719</ele>
        <time>2022-08-20T16:23:18Z</time>
      </trkpt>
      <trkpt lat="44.07852" lon="6.50894">
        <ele>1265.4000244141</ele>
        <time>2022-08-20T16:23:20Z</time>
      </trkpt>
      <trkpt lat="44.07852" lon="6.50897">
        <ele>1265.5999755859</ele>
        <time>2022-08-20T16:23:22Z</time>
      </trkpt>
      <trkpt lat="44.07852" lon="6.50899">
        <ele>1265.8000488281</ele>
        <time>2022-08-20T16:23:23Z</time>
      </trkpt>
      <trkpt lat="44.07852" lon="6.50902">
        <ele>1266</ele>
        <time>2022-08-20T16:23:25Z</time>
      </trkpt>
      <trkpt lat="44.07853" lon="6.50904">
        <ele>1266.1999511719</ele>
        <time>2022-08-20T16:23:26Z</time>
      </trkpt>
      <trkpt lat="44.07853" lon="6.50913">
        <ele>1267</ele>
        <time>2022-08-20T16:23:31Z</time>
      </trkpt>
      <trkpt lat="44.07852" lon="6.50914">
        <ele>1267.1999511719</ele>
        <time>2022-08-20T16:23:32Z</time>
      </trkpt>
      <trkpt lat="44.07852" lon="6.50919">
        <ele>1267.4000244141</ele>
        <time>2022-08-20T16:23:34Z</time>
      </trkpt>
      <trkpt lat="44.07851" lon="6.50923">
        <ele>1267.8000488281</ele>
        <time>2022-08-20T16:23:36Z</time>
      </trkpt>
      <trkpt lat="44.07851" lon="6.50926">
        <ele>1268</ele>
        <time>2022-08-20T16:23:38Z</time>
      </trkpt>
      <trkpt lat="44.07849" lon="6.50931">
        <ele>1268.4000244141</ele>
        <time>2022-08-20T16:23:41Z</time>
      </trkpt>
      <trkpt lat="44.07846" lon="6.50938">
        <ele>1269</ele>
        <time>2022-08-20T16:23:46Z</time>
      </trkpt>
      <trkpt lat="44.07845" lon="6.50941">
        <ele>1269.1999511719</ele>
        <time>2022-08-20T16:23:48Z</time>
      </trkpt>
      <trkpt lat="44.07844" lon="6.50943">
        <ele>1269.4000244141</ele>
        <time>2022-08-20T16:23:50Z</time>
      </trkpt>
      <trkpt lat="44.07844" lon="6.50946">
        <ele>1269.5999755859</ele>
        <time>2022-08-20T16:23:52Z</time>
      </trkpt>
      <trkpt lat="44.07843" lon="6.50948">
        <ele>1269.8000488281</ele>
        <time>2022-08-20T16:23:53Z</time>
      </trkpt>
      <trkpt lat="44.07843" lon="6.50951">
        <ele>1270</ele>
        <time>2022-08-20T16:23:55Z</time>
      </trkpt>
      <trkpt lat="44.07841" lon="6.50956">
        <ele>1270.4000244141</ele>
        <time>2022-08-20T16:23:58Z</time>
      </trkpt>
      <trkpt lat="44.07841" lon="6.50957">
        <ele>1270.5999755859</ele>
        <time>2022-08-20T16:23:59Z</time>
      </trkpt>
      <trkpt lat="44.07839" lon="6.50959">
        <ele>1271</ele>
        <time>2022-08-20T16:24:01Z</time>
      </trkpt>
      <trkpt lat="44.07835" lon="6.50966">
        <ele>1271.5999755859</ele>
        <time>2022-08-20T16:24:06Z</time>
      </trkpt>
      <trkpt lat="44.07829" lon="6.50976">
        <ele>1272.5999755859</ele>
        <time>2022-08-20T16:24:14Z</time>
      </trkpt>
      <trkpt lat="44.07828" lon="6.50977">
        <ele>1272.5999755859</ele>
        <time>2022-08-20T16:24:15Z</time>
      </trkpt>
      <trkpt lat="44.07821" lon="6.50986">
        <ele>1273.5999755859</ele>
        <time>2022-08-20T16:24:23Z</time>
      </trkpt>
      <trkpt lat="44.0782" lon="6.50987">
        <ele>1273.8000488281</ele>
        <time>2022-08-20T16:24:24Z</time>
      </trkpt>
      <trkpt lat="44.07818" lon="6.50995">
        <ele>1274.5999755859</ele>
        <time>2022-08-20T16:24:29Z</time>
      </trkpt>
      <trkpt lat="44.07817" lon="6.50996">
        <ele>1274.8000488281</ele>
        <time>2022-08-20T16:24:30Z</time>
      </trkpt>
      <trkpt lat="44.07817" lon="6.50998">
        <ele>1274.8000488281</ele>
        <time>2022-08-20T16:24:31Z</time>
      </trkpt>
      <trkpt lat="44.07814" lon="6.51004">
        <ele>1275.5999755859</ele>
        <time>2022-08-20T16:24:36Z</time>
      </trkpt>
      <trkpt lat="44.07813" lon="6.51007">
        <ele>1275.8000488281</ele>
        <time>2022-08-20T16:24:38Z</time>
      </trkpt>
      <trkpt lat="44.07813" lon="6.51009">
        <ele>1276</ele>
        <time>2022-08-20T16:24:39Z</time>
      </trkpt>
      <trkpt lat="44.07809" lon="6.51018">
        <ele>1277</ele>
        <time>2022-08-20T16:24:45Z</time>
      </trkpt>
      <trkpt lat="44.07808" lon="6.51019">
        <ele>1277</ele>
        <time>2022-08-20T16:24:46Z</time>
      </trkpt>
      <trkpt lat="44.07806" lon="6.51025">
        <ele>1277.5999755859</ele>
        <time>2022-08-20T16:24:50Z</time>
      </trkpt>
      <trkpt lat="44.07804" lon="6.51029">
        <ele>1278</ele>
        <time>2022-08-20T16:24:53Z</time>
      </trkpt>
      <trkpt lat="44.07803" lon="6.5103">
        <ele>1278.1999511719</ele>
        <time>2022-08-20T16:24:54Z</time>
      </trkpt>
      <trkpt lat="44.07797" lon="6.51038">
        <ele>1279.1999511719</ele>
        <time>2022-08-20T16:25:00Z</time>
      </trkpt>
      <trkpt lat="44.07796" lon="6.51038">
        <ele>1279.1999511719</ele>
        <time>2022-08-20T16:25:01Z</time>
      </trkpt>
      <trkpt lat="44.07789" lon="6.51045">
        <ele>1280.1999511719</ele>
        <time>2022-08-20T16:25:08Z</time>
      </trkpt>
      <trkpt lat="44.07786" lon="6.51049">
        <ele>1280.8000488281</ele>
        <time>2022-08-20T16:25:11Z</time>
      </trkpt>
      <trkpt lat="44.07784" lon="6.5105">
        <ele>1281</ele>
        <time>2022-08-20T16:25:13Z</time>
      </trkpt>
      <trkpt lat="44.07782" lon="6.5105">
        <ele>1281.1999511719</ele>
        <time>2022-08-20T16:25:15Z</time>
      </trkpt>
      <trkpt lat="44.07778" lon="6.51049">
        <ele>1281.5999755859</ele>
        <time>2022-08-20T16:25:18Z</time>
      </trkpt>
      <trkpt lat="44.07775" lon="6.51049">
        <ele>1281.8000488281</ele>
        <time>2022-08-20T16:25:20Z</time>
      </trkpt>
      <trkpt lat="44.0777" lon="6.51046">
        <ele>1282.1999511719</ele>
        <time>2022-08-20T16:25:24Z</time>
      </trkpt>
      <trkpt lat="44.0777" lon="6.51046">
        <ele>1282.4000244141</ele>
        <time>2022-08-20T16:25:25Z</time>
      </trkpt>
      <trkpt lat="44.07762" lon="6.51039">
        <ele>1283.4000244141</ele>
        <time>2022-08-20T16:25:33Z</time>
      </trkpt>
      <trkpt lat="44.07759" lon="6.51035">
        <ele>1283.5999755859</ele>
        <time>2022-08-20T16:25:36Z</time>
      </trkpt>
      <trkpt lat="44.07756" lon="6.51029">
        <ele>1284.4000244141</ele>
        <time>2022-08-20T16:25:41Z</time>
      </trkpt>
      <trkpt lat="44.07755" lon="6.51022">
        <ele>1284.8000488281</ele>
        <time>2022-08-20T16:25:45Z</time>
      </trkpt>
      <trkpt lat="44.07753" lon="6.51017">
        <ele>1285.4000244141</ele>
        <time>2022-08-20T16:25:49Z</time>
      </trkpt>
      <trkpt lat="44.07749" lon="6.51007">
        <ele>1286.4000244141</ele>
        <time>2022-08-20T16:25:56Z</time>
      </trkpt>
      <trkpt lat="44.07748" lon="6.51004">
        <ele>1286.5999755859</ele>
        <time>2022-08-20T16:25:58Z</time>
      </trkpt>
      <trkpt lat="44.07744" lon="6.50995">
        <ele>1287.4000244141</ele>
        <time>2022-08-20T16:26:05Z</time>
      </trkpt>
      <trkpt lat="44.07742" lon="6.50992">
        <ele>1287.5999755859</ele>
        <time>2022-08-20T16:26:07Z</time>
      </trkpt>
      <trkpt lat="44.07741" lon="6.5099">
        <ele>1288</ele>
        <time>2022-08-20T16:26:09Z</time>
      </trkpt>
      <trkpt lat="44.07739" lon="6.50986">
        <ele>1288.4000244141</ele>
        <time>2022-08-20T16:26:12Z</time>
      </trkpt>
      <trkpt lat="44.07738" lon="6.50982">
        <ele>1288.8000488281</ele>
        <time>2022-08-20T16:26:15Z</time>
      </trkpt>
      <trkpt lat="44.07736" lon="6.50973">
        <ele>1289.4000244141</ele>
        <time>2022-08-20T16:26:21Z</time>
      </trkpt>
      <trkpt lat="44.07732" lon="6.50967">
        <ele>1289.8000488281</ele>
        <time>2022-08-20T16:26:26Z</time>
      </trkpt>
      <trkpt lat="44.0773" lon="6.50963">
        <ele>1290.1999511719</ele>
        <time>2022-08-20T16:26:29Z</time>
      </trkpt>
      <trkpt lat="44.07728" lon="6.50959">
        <ele>1290.8000488281</ele>
        <time>2022-08-20T16:26:33Z</time>
      </trkpt>
      <trkpt lat="44.07725" lon="6.50954">
        <ele>1291.4000244141</ele>
        <time>2022-08-20T16:26:37Z</time>
      </trkpt>
      <trkpt lat="44.07721" lon="6.50953">
        <ele>1291.8000488281</ele>
        <time>2022-08-20T16:26:41Z</time>
      </trkpt>
      <trkpt lat="44.0772" lon="6.50953">
        <ele>1291.8000488281</ele>
        <time>2022-08-20T16:26:42Z</time>
      </trkpt>
      <trkpt lat="44.07719" lon="6.50953">
        <ele>1292</ele>
        <time>2022-08-20T16:26:43Z</time>
      </trkpt>
      <trkpt lat="44.07712" lon="6.50954">
        <ele>1293</ele>
        <time>2022-08-20T16:26:49Z</time>
      </trkpt>
      <trkpt lat="44.0771" lon="6.50955">
        <ele>1293.4000244141</ele>
        <time>2022-08-20T16:26:51Z</time>
      </trkpt>
      <trkpt lat="44.07703" lon="6.5096">
        <ele>1294.1999511719</ele>
        <time>2022-08-20T16:26:58Z</time>
      </trkpt>
      <trkpt lat="44.07702" lon="6.50961">
        <ele>1294.1999511719</ele>
        <time>2022-08-20T16:26:59Z</time>
      </trkpt>
      <trkpt lat="44.07696" lon="6.5097">
        <ele>1295.1999511719</ele>
        <time>2022-08-20T16:27:05Z</time>
      </trkpt>
      <trkpt lat="44.07695" lon="6.50971">
        <ele>1295.4000244141</ele>
        <time>2022-08-20T16:27:06Z</time>
      </trkpt>
      <trkpt lat="44.07686" lon="6.50985">
        <ele>1296.4000244141</ele>
        <time>2022-08-20T16:27:16Z</time>
      </trkpt>
      <trkpt lat="44.07686" lon="6.50987">
        <ele>1296.5999755859</ele>
        <time>2022-08-20T16:27:17Z</time>
      </trkpt>
      <trkpt lat="44.07683" lon="6.51">
        <ele>1297.4000244141</ele>
        <time>2022-08-20T16:27:25Z</time>
      </trkpt>
      <trkpt lat="44.07683" lon="6.51001">
        <ele>1297.4000244141</ele>
        <time>2022-08-20T16:27:26Z</time>
      </trkpt>
      <trkpt lat="44.07682" lon="6.51012">
        <ele>1298.5999755859</ele>
        <time>2022-08-20T16:27:33Z</time>
      </trkpt>
      <trkpt lat="44.07681" lon="6.51013">
        <ele>1298.8000488281</ele>
        <time>2022-08-20T16:27:34Z</time>
      </trkpt>
      <trkpt lat="44.07681" lon="6.51018">
        <ele>1299.1999511719</ele>
        <time>2022-08-20T16:27:37Z</time>
      </trkpt>
      <trkpt lat="44.07682" lon="6.51029">
        <ele>1299.8000488281</ele>
        <time>2022-08-20T16:27:43Z</time>
      </trkpt>
      <trkpt lat="44.07682" lon="6.51032">
        <ele>1300</ele>
        <time>2022-08-20T16:27:45Z</time>
      </trkpt>
      <trkpt lat="44.07682" lon="6.51042">
        <ele>1300.5999755859</ele>
        <time>2022-08-20T16:27:51Z</time>
      </trkpt>
      <trkpt lat="44.07682" lon="6.51044">
        <ele>1300.5999755859</ele>
        <time>2022-08-20T16:27:52Z</time>
      </trkpt>
      <trkpt lat="44.07683" lon="6.51046">
        <ele>1300.8000488281</ele>
        <time>2022-08-20T16:27:53Z</time>
      </trkpt>
      <trkpt lat="44.07686" lon="6.51054">
        <ele>1301</ele>
        <time>2022-08-20T16:27:57Z</time>
      </trkpt>
      <trkpt lat="44.07697" lon="6.51072">
        <ele>1301.5999755859</ele>
        <time>2022-08-20T16:28:05Z</time>
      </trkpt>
      <trkpt lat="44.07712" lon="6.51095">
        <ele>1301.1999511719</ele>
        <time>2022-08-20T16:28:12Z</time>
      </trkpt>
      <trkpt lat="44.07712" lon="6.5111">
        <ele>1301.5999755859</ele>
        <time>2022-08-20T16:28:16Z</time>
      </trkpt>
      <trkpt lat="44.07712" lon="6.51112">
        <ele>1301.5999755859</ele>
        <time>2022-08-20T16:28:17Z</time>
      </trkpt>
      <trkpt lat="44.0771" lon="6.51116">
        <ele>1301.8000488281</ele>
        <time>2022-08-20T16:28:19Z</time>
      </trkpt>
      <trkpt lat="44.07708" lon="6.51124">
        <ele>1302.4000244141</ele>
        <time>2022-08-20T16:28:23Z</time>
      </trkpt>
      <trkpt lat="44.07707" lon="6.51127">
        <ele>1302.8000488281</ele>
        <time>2022-08-20T16:28:25Z</time>
      </trkpt>
      <trkpt lat="44.07703" lon="6.51135">
        <ele>1303.8000488281</ele>
        <time>2022-08-20T16:28:30Z</time>
      </trkpt>
      <trkpt lat="44.07703" lon="6.51137">
        <ele>1304</ele>
        <time>2022-08-20T16:28:31Z</time>
      </trkpt>
      <trkpt lat="44.07698" lon="6.5115">
        <ele>1305</ele>
        <time>2022-08-20T16:28:39Z</time>
      </trkpt>
      <trkpt lat="44.07698" lon="6.51152">
        <ele>1305.1999511719</ele>
        <time>2022-08-20T16:28:40Z</time>
      </trkpt>
      <trkpt lat="44.07695" lon="6.51165">
        <ele>1306</ele>
        <time>2022-08-20T16:28:47Z</time>
      </trkpt>
      <trkpt lat="44.07694" lon="6.51167">
        <ele>1306.1999511719</ele>
        <time>2022-08-20T16:28:48Z</time>
      </trkpt>
      <trkpt lat="44.07692" lon="6.5118">
        <ele>1307.1999511719</ele>
        <time>2022-08-20T16:28:55Z</time>
      </trkpt>
      <trkpt lat="44.07691" lon="6.51184">
        <ele>1307.4000244141</ele>
        <time>2022-08-20T16:28:57Z</time>
      </trkpt>
      <trkpt lat="44.0769" lon="6.51192">
        <ele>1308.1999511719</ele>
        <time>2022-08-20T16:29:01Z</time>
      </trkpt>
      <trkpt lat="44.07685" lon="6.51202">
        <ele>1309.1999511719</ele>
        <time>2022-08-20T16:29:08Z</time>
      </trkpt>
      <trkpt lat="44.07682" lon="6.51207">
        <ele>1309.8000488281</ele>
        <time>2022-08-20T16:29:12Z</time>
      </trkpt>
      <trkpt lat="44.07681" lon="6.51211">
        <ele>1310.1999511719</ele>
        <time>2022-08-20T16:29:15Z</time>
      </trkpt>
      <trkpt lat="44.07679" lon="6.51214">
        <ele>1310.5999755859</ele>
        <time>2022-08-20T16:29:18Z</time>
      </trkpt>
      <trkpt lat="44.07675" lon="6.51218">
        <ele>1311.1999511719</ele>
        <time>2022-08-20T16:29:24Z</time>
      </trkpt>
      <trkpt lat="44.07672" lon="6.5122">
        <ele>1311.8000488281</ele>
        <time>2022-08-20T16:29:27Z</time>
      </trkpt>
      <trkpt lat="44.07668" lon="6.51224">
        <ele>1312.1999511719</ele>
        <time>2022-08-20T16:29:31Z</time>
      </trkpt>
      <trkpt lat="44.0766" lon="6.51228">
        <ele>1312.8000488281</ele>
        <time>2022-08-20T16:29:37Z</time>
      </trkpt>
      <trkpt lat="44.07656" lon="6.5123">
        <ele>1313.4000244141</ele>
        <time>2022-08-20T16:29:41Z</time>
      </trkpt>
      <trkpt lat="44.0765" lon="6.51234">
        <ele>1314.4000244141</ele>
        <time>2022-08-20T16:29:47Z</time>
      </trkpt>
      <trkpt lat="44.07644" lon="6.51237">
        <ele>1315.1999511719</ele>
        <time>2022-08-20T16:29:53Z</time>
      </trkpt>
      <trkpt lat="44.07642" lon="6.51237">
        <ele>1315.4000244141</ele>
        <time>2022-08-20T16:29:55Z</time>
      </trkpt>
      <trkpt lat="44.07641" lon="6.51238">
        <ele>1315.5999755859</ele>
        <time>2022-08-20T16:29:56Z</time>
      </trkpt>
      <trkpt lat="44.0764" lon="6.51238">
        <ele>1315.5999755859</ele>
        <time>2022-08-20T16:29:57Z</time>
      </trkpt>
      <trkpt lat="44.0763" lon="6.51243">
        <ele>1316.5999755859</ele>
        <time>2022-08-20T16:30:06Z</time>
      </trkpt>
      <trkpt lat="44.07628" lon="6.51243">
        <ele>1316.5999755859</ele>
        <time>2022-08-20T16:30:07Z</time>
      </trkpt>
      <trkpt lat="44.07618" lon="6.51245">
        <ele>1317.8000488281</ele>
        <time>2022-08-20T16:30:16Z</time>
      </trkpt>
      <trkpt lat="44.0761" lon="6.51242">
        <ele>1318.5999755859</ele>
        <time>2022-08-20T16:30:23Z</time>
      </trkpt>
      <trkpt lat="44.07607" lon="6.51241">
        <ele>1318.8000488281</ele>
        <time>2022-08-20T16:30:25Z</time>
      </trkpt>
      <trkpt lat="44.07599" lon="6.51236">
        <ele>1319.8000488281</ele>
        <time>2022-08-20T16:30:33Z</time>
      </trkpt>
      <trkpt lat="44.07598" lon="6.51235">
        <ele>1320</ele>
        <time>2022-08-20T16:30:34Z</time>
      </trkpt>
      <trkpt lat="44.07591" lon="6.51224">
        <ele>1321</ele>
        <time>2022-08-20T16:30:42Z</time>
      </trkpt>
      <trkpt lat="44.0759" lon="6.51223">
        <ele>1321.1999511719</ele>
        <time>2022-08-20T16:30:43Z</time>
      </trkpt>
      <trkpt lat="44.07586" lon="6.51212">
        <ele>1322.1999511719</ele>
        <time>2022-08-20T16:30:50Z</time>
      </trkpt>
      <trkpt lat="44.07585" lon="6.51209">
        <ele>1322.4000244141</ele>
        <time>2022-08-20T16:30:52Z</time>
      </trkpt>
      <trkpt lat="44.07584" lon="6.51201">
        <ele>1323.1999511719</ele>
        <time>2022-08-20T16:30:57Z</time>
      </trkpt>
      <trkpt lat="44.07584" lon="6.51199">
        <ele>1323.1999511719</ele>
        <time>2022-08-20T16:30:58Z</time>
      </trkpt>
      <trkpt lat="44.07584" lon="6.51192">
        <ele>1324.4000244141</ele>
        <time>2022-08-20T16:31:03Z</time>
      </trkpt>
      <trkpt lat="44.07582" lon="6.51184">
        <ele>1325.1999511719</ele>
        <time>2022-08-20T16:31:09Z</time>
      </trkpt>
      <trkpt lat="44.07581" lon="6.51181">
        <ele>1325.4000244141</ele>
        <time>2022-08-20T16:31:11Z</time>
      </trkpt>
      <trkpt lat="44.07577" lon="6.51173">
        <ele>1326</ele>
        <time>2022-08-20T16:31:17Z</time>
      </trkpt>
      <trkpt lat="44.07575" lon="6.51168">
        <ele>1326.4000244141</ele>
        <time>2022-08-20T16:31:21Z</time>
      </trkpt>
      <trkpt lat="44.07571" lon="6.51162">
        <ele>1327.1999511719</ele>
        <time>2022-08-20T16:31:25Z</time>
      </trkpt>
      <trkpt lat="44.07569" lon="6.51158">
        <ele>1327.5999755859</ele>
        <time>2022-08-20T16:31:28Z</time>
      </trkpt>
      <trkpt lat="44.07564" lon="6.5115">
        <ele>1328.1999511719</ele>
        <time>2022-08-20T16:31:34Z</time>
      </trkpt>
      <trkpt lat="44.0756" lon="6.51144">
        <ele>1328.8000488281</ele>
        <time>2022-08-20T16:31:39Z</time>
      </trkpt>
      <trkpt lat="44.07558" lon="6.51138">
        <ele>1329.4000244141</ele>
        <time>2022-08-20T16:31:43Z</time>
      </trkpt>
      <trkpt lat="44.07556" lon="6.51134">
        <ele>1329.8000488281</ele>
        <time>2022-08-20T16:31:46Z</time>
      </trkpt>
      <trkpt lat="44.07554" lon="6.51127">
        <ele>1330.1999511719</ele>
        <time>2022-08-20T16:31:50Z</time>
      </trkpt>
      <trkpt lat="44.07554" lon="6.51121">
        <ele>1331</ele>
        <time>2022-08-20T16:31:54Z</time>
      </trkpt>
      <trkpt lat="44.07554" lon="6.51114">
        <ele>1331.4000244141</ele>
        <time>2022-08-20T16:31:58Z</time>
      </trkpt>
      <trkpt lat="44.07553" lon="6.5111">
        <ele>1331.8000488281</ele>
        <time>2022-08-20T16:32:00Z</time>
      </trkpt>
      <trkpt lat="44.07553" lon="6.51106">
        <ele>1332</ele>
        <time>2022-08-20T16:32:02Z</time>
      </trkpt>
      <trkpt lat="44.07553" lon="6.51103">
        <ele>1332.4000244141</ele>
        <time>2022-08-20T16:32:04Z</time>
      </trkpt>
      <trkpt lat="44.07553" lon="6.5109">
        <ele>1333</ele>
        <time>2022-08-20T16:32:11Z</time>
      </trkpt>
      <trkpt lat="44.07553" lon="6.51087">
        <ele>1333.1999511719</ele>
        <time>2022-08-20T16:32:13Z</time>
      </trkpt>
      <trkpt lat="44.0755" lon="6.5107">
        <ele>1334.1999511719</ele>
        <time>2022-08-20T16:32:23Z</time>
      </trkpt>
      <trkpt lat="44.07549" lon="6.51062">
        <ele>1335.1999511719</ele>
        <time>2022-08-20T16:32:29Z</time>
      </trkpt>
      <trkpt lat="44.07546" lon="6.51057">
        <ele>1335.5999755859</ele>
        <time>2022-08-20T16:32:33Z</time>
      </trkpt>
      <trkpt lat="44.07542" lon="6.51047">
        <ele>1336.4000244141</ele>
        <time>2022-08-20T16:32:41Z</time>
      </trkpt>
      <trkpt lat="44.07539" lon="6.51043">
        <ele>1336.8000488281</ele>
        <time>2022-08-20T16:32:45Z</time>
      </trkpt>
      <trkpt lat="44.07536" lon="6.51039">
        <ele>1337.4000244141</ele>
        <time>2022-08-20T16:32:49Z</time>
      </trkpt>
      <trkpt lat="44.07532" lon="6.51034">
        <ele>1337.8000488281</ele>
        <time>2022-08-20T16:32:54Z</time>
      </trkpt>
      <trkpt lat="44.07524" lon="6.51031">
        <ele>1338.4000244141</ele>
        <time>2022-08-20T16:33:01Z</time>
      </trkpt>
      <trkpt lat="44.07521" lon="6.5103">
        <ele>1338.8000488281</ele>
        <time>2022-08-20T16:33:04Z</time>
      </trkpt>
      <trkpt lat="44.07512" lon="6.51028">
        <ele>1339.1999511719</ele>
        <time>2022-08-20T16:33:11Z</time>
      </trkpt>
      <trkpt lat="44.0751" lon="6.51028">
        <ele>1339.4000244141</ele>
        <time>2022-08-20T16:33:13Z</time>
      </trkpt>
      <trkpt lat="44.07504" lon="6.51027">
        <ele>1340.4000244141</ele>
        <time>2022-08-20T16:33:18Z</time>
      </trkpt>
      <trkpt lat="44.07502" lon="6.51027">
        <ele>1340.5999755859</ele>
        <time>2022-08-20T16:33:20Z</time>
      </trkpt>
      <trkpt lat="44.07494" lon="6.51026">
        <ele>1341.4000244141</ele>
        <time>2022-08-20T16:33:28Z</time>
      </trkpt>
      <trkpt lat="44.07492" lon="6.51025">
        <ele>1341.5999755859</ele>
        <time>2022-08-20T16:33:30Z</time>
      </trkpt>
      <trkpt lat="44.07489" lon="6.51024">
        <ele>1342.1999511719</ele>
        <time>2022-08-20T16:33:33Z</time>
      </trkpt>
      <trkpt lat="44.07484" lon="6.51021">
        <ele>1342.8000488281</ele>
        <time>2022-08-20T16:33:37Z</time>
      </trkpt>
      <trkpt lat="44.07476" lon="6.51014">
        <ele>1343.8000488281</ele>
        <time>2022-08-20T16:33:46Z</time>
      </trkpt>
      <trkpt lat="44.07475" lon="6.51013">
        <ele>1343.8000488281</ele>
        <time>2022-08-20T16:33:47Z</time>
      </trkpt>
      <trkpt lat="44.07468" lon="6.51007">
        <ele>1344.8000488281</ele>
        <time>2022-08-20T16:33:54Z</time>
      </trkpt>
      <trkpt lat="44.07467" lon="6.51006">
        <ele>1345</ele>
        <time>2022-08-20T16:33:55Z</time>
      </trkpt>
      <trkpt lat="44.07459" lon="6.50999">
        <ele>1345.8000488281</ele>
        <time>2022-08-20T16:34:03Z</time>
      </trkpt>
      <trkpt lat="44.07456" lon="6.50998">
        <ele>1346</ele>
        <time>2022-08-20T16:34:06Z</time>
      </trkpt>
      <trkpt lat="44.07448" lon="6.50995">
        <ele>1346.8000488281</ele>
        <time>2022-08-20T16:34:13Z</time>
      </trkpt>
      <trkpt lat="44.0744" lon="6.50993">
        <ele>1347</ele>
        <time>2022-08-20T16:34:18Z</time>
      </trkpt>
      <trkpt lat="44.07433" lon="6.50993">
        <ele>1347.5999755859</ele>
        <time>2022-08-20T16:34:24Z</time>
      </trkpt>
      <trkpt lat="44.07428" lon="6.50993">
        <ele>1348.1999511719</ele>
        <time>2022-08-20T16:34:28Z</time>
      </trkpt>
      <trkpt lat="44.07426" lon="6.50992">
        <ele>1348.4000244141</ele>
        <time>2022-08-20T16:34:30Z</time>
      </trkpt>
      <trkpt lat="44.07424" lon="6.50992">
        <ele>1348.8000488281</ele>
        <time>2022-08-20T16:34:32Z</time>
      </trkpt>
      <trkpt lat="44.07419" lon="6.50991">
        <ele>1349.1999511719</ele>
        <time>2022-08-20T16:34:36Z</time>
      </trkpt>
      <trkpt lat="44.07413" lon="6.5099">
        <ele>1350</ele>
        <time>2022-08-20T16:34:41Z</time>
      </trkpt>
      <trkpt lat="44.07411" lon="6.50988">
        <ele>1350.1999511719</ele>
        <time>2022-08-20T16:34:43Z</time>
      </trkpt>
      <trkpt lat="44.07403" lon="6.50984">
        <ele>1351.1999511719</ele>
        <time>2022-08-20T16:34:49Z</time>
      </trkpt>
      <trkpt lat="44.07402" lon="6.50984">
        <ele>1351.4000244141</ele>
        <time>2022-08-20T16:34:50Z</time>
      </trkpt>
      <trkpt lat="44.07401" lon="6.50983">
        <ele>1351.5999755859</ele>
        <time>2022-08-20T16:34:51Z</time>
      </trkpt>
      <trkpt lat="44.07395" lon="6.50978">
        <ele>1352.1999511719</ele>
        <time>2022-08-20T16:34:57Z</time>
      </trkpt>
      <trkpt lat="44.07393" lon="6.50976">
        <ele>1352.4000244141</ele>
        <time>2022-08-20T16:34:59Z</time>
      </trkpt>
      <trkpt lat="44.07391" lon="6.50973">
        <ele>1353</ele>
        <time>2022-08-20T16:35:02Z</time>
      </trkpt>
      <trkpt lat="44.07387" lon="6.50969">
        <ele>1353.5999755859</ele>
        <time>2022-08-20T16:35:06Z</time>
      </trkpt>
      <trkpt lat="44.07386" lon="6.50969">
        <ele>1353.5999755859</ele>
        <time>2022-08-20T16:35:07Z</time>
      </trkpt>
      <trkpt lat="44.07381" lon="6.50965">
        <ele>1354.5999755859</ele>
        <time>2022-08-20T16:35:13Z</time>
      </trkpt>
      <trkpt lat="44.07379" lon="6.50963">
        <ele>1355.1999511719</ele>
        <time>2022-08-20T16:35:16Z</time>
      </trkpt>
      <trkpt lat="44.07376" lon="6.50961">
        <ele>1355.8000488281</ele>
        <time>2022-08-20T16:35:19Z</time>
      </trkpt>
      <trkpt lat="44.07371" lon="6.50954">
        <ele>1356.8000488281</ele>
        <time>2022-08-20T16:35:25Z</time>
      </trkpt>
      <trkpt lat="44.0737" lon="6.50953">
        <ele>1357</ele>
        <time>2022-08-20T16:35:26Z</time>
      </trkpt>
      <trkpt lat="44.07368" lon="6.50948">
        <ele>1357.1999511719</ele>
        <time>2022-08-20T16:35:29Z</time>
      </trkpt>
      <trkpt lat="44.07366" lon="6.50939">
        <ele>1357.5999755859</ele>
        <time>2022-08-20T16:35:34Z</time>
      </trkpt>
      <trkpt lat="44.07365" lon="6.50936">
        <ele>1357.8000488281</ele>
        <time>2022-08-20T16:35:36Z</time>
      </trkpt>
      <trkpt lat="44.0736" lon="6.50924">
        <ele>1359</ele>
        <time>2022-08-20T16:35:44Z</time>
      </trkpt>
      <trkpt lat="44.07356" lon="6.50918">
        <ele>1359.4000244141</ele>
        <time>2022-08-20T16:35:49Z</time>
      </trkpt>
      <trkpt lat="44.07355" lon="6.50917">
        <ele>1359.5999755859</ele>
        <time>2022-08-20T16:35:50Z</time>
      </trkpt>
      <trkpt lat="44.07354" lon="6.50916">
        <ele>1359.8000488281</ele>
        <time>2022-08-20T16:35:51Z</time>
      </trkpt>
      <trkpt lat="44.07352" lon="6.50914">
        <ele>1360</ele>
        <time>2022-08-20T16:35:53Z</time>
      </trkpt>
      <trkpt lat="44.0735" lon="6.50909">
        <ele>1360.5999755859</ele>
        <time>2022-08-20T16:35:57Z</time>
      </trkpt>
      <trkpt lat="44.07348" lon="6.50904">
        <ele>1361.1999511719</ele>
        <time>2022-08-20T16:36:00Z</time>
      </trkpt>
      <trkpt lat="44.07346" lon="6.50897">
        <ele>1361.8000488281</ele>
        <time>2022-08-20T16:36:04Z</time>
      </trkpt>
      <trkpt lat="44.07344" lon="6.50892">
        <ele>1362.1999511719</ele>
        <time>2022-08-20T16:36:07Z</time>
      </trkpt>
      <trkpt lat="44.0734" lon="6.50883">
        <ele>1363.1999511719</ele>
        <time>2022-08-20T16:36:13Z</time>
      </trkpt>
      <trkpt lat="44.07334" lon="6.50873">
        <ele>1364.4000244141</ele>
        <time>2022-08-20T16:36:20Z</time>
      </trkpt>
      <trkpt lat="44.07333" lon="6.50871">
        <ele>1364.5999755859</ele>
        <time>2022-08-20T16:36:21Z</time>
      </trkpt>
      <trkpt lat="44.0733" lon="6.50863">
        <ele>1365.5999755859</ele>
        <time>2022-08-20T16:36:28Z</time>
      </trkpt>
      <trkpt lat="44.0733" lon="6.50863">
        <ele>1365.5999755859</ele>
        <time>2022-08-20T16:36:29Z</time>
      </trkpt>
      <trkpt lat="44.07331" lon="6.50863">
        <ele>1365.8000488281</ele>
        <time>2022-08-20T16:36:34Z</time>
      </trkpt>
      <trkpt lat="44.07331" lon="6.50863">
        <ele>1365.8000488281</ele>
        <time>2022-08-20T16:36:39Z</time>
      </trkpt>
      <trkpt lat="44.07331" lon="6.50862">
        <ele>1365.5999755859</ele>
        <time>2022-08-20T16:36:42Z</time>
      </trkpt>
      <trkpt lat="44.07331" lon="6.50862">
        <ele>1365.8000488281</ele>
        <time>2022-08-20T16:36:52Z</time>
      </trkpt>
      <trkpt lat="44.07331" lon="6.50863">
        <ele>1366.1999511719</ele>
        <time>2022-08-20T16:37:07Z</time>
      </trkpt>
      <trkpt lat="44.07331" lon="6.50863">
        <ele>1366.1999511719</ele>
        <time>2022-08-20T16:37:10Z</time>
      </trkpt>
      <trkpt lat="44.0733" lon="6.50863">
        <ele>1366.1999511719</ele>
        <time>2022-08-20T16:37:15Z</time>
      </trkpt>
      <trkpt lat="44.0733" lon="6.50863">
        <ele>1366</ele>
        <time>2022-08-20T16:37:20Z</time>
      </trkpt>
      <trkpt lat="44.07331" lon="6.50863">
        <ele>1365.8000488281</ele>
        <time>2022-08-20T16:37:30Z</time>
      </trkpt>
      <trkpt lat="44.07331" lon="6.50863">
        <ele>1366</ele>
        <time>2022-08-20T16:37:44Z</time>
      </trkpt>
      <trkpt lat="44.07331" lon="6.50863">
        <ele>1366</ele>
        <time>2022-08-20T16:37:57Z</time>
      </trkpt>
      <trkpt lat="44.07331" lon="6.50863">
        <ele>1366</ele>
        <time>2022-08-20T16:37:58Z</time>
      </trkpt>
      <trkpt lat="44.07331" lon="6.50863">
        <ele>1366</ele>
        <time>2022-08-20T16:38:01Z</time>
      </trkpt>
      <trkpt lat="44.0733" lon="6.50863">
        <ele>1366</ele>
        <time>2022-08-20T16:38:08Z</time>
      </trkpt>
      <trkpt lat="44.0733" lon="6.50863">
        <ele>1366</ele>
        <time>2022-08-20T16:38:10Z</time>
      </trkpt>
      <trkpt lat="44.07329" lon="6.50859">
        <ele>1366</ele>
        <time>2022-08-20T16:38:14Z</time>
      </trkpt>
      <trkpt lat="44.07326" lon="6.50852">
        <ele>1366</ele>
        <time>2022-08-20T16:38:18Z</time>
      </trkpt>
      <trkpt lat="44.07322" lon="6.50844">
        <ele>1366.1999511719</ele>
        <time>2022-08-20T16:38:22Z</time>
      </trkpt>
      <trkpt lat="44.07319" lon="6.50838">
        <ele>1366.5999755859</ele>
        <time>2022-08-20T16:38:25Z</time>
      </trkpt>
      <trkpt lat="44.07318" lon="6.50835">
        <ele>1366.8000488281</ele>
        <time>2022-08-20T16:38:27Z</time>
      </trkpt>
      <trkpt lat="44.07317" lon="6.50833">
        <ele>1367</ele>
        <time>2022-08-20T16:38:28Z</time>
      </trkpt>
      <trkpt lat="44.07314" lon="6.50826">
        <ele>1367.8000488281</ele>
        <time>2022-08-20T16:38:32Z</time>
      </trkpt>
      <trkpt lat="44.07308" lon="6.50811">
        <ele>1368.8000488281</ele>
        <time>2022-08-20T16:38:39Z</time>
      </trkpt>
      <trkpt lat="44.07307" lon="6.50809">
        <ele>1369</ele>
        <time>2022-08-20T16:38:40Z</time>
      </trkpt>
      <trkpt lat="44.07303" lon="6.50793">
        <ele>1369.8000488281</ele>
        <time>2022-08-20T16:38:46Z</time>
      </trkpt>
      <trkpt lat="44.07302" lon="6.5079">
        <ele>1369.8000488281</ele>
        <time>2022-08-20T16:38:47Z</time>
      </trkpt>
      <trkpt lat="44.07301" lon="6.50787">
        <ele>1370</ele>
        <time>2022-08-20T16:38:48Z</time>
      </trkpt>
      <trkpt lat="44.07299" lon="6.50777">
        <ele>1371</ele>
        <time>2022-08-20T16:38:52Z</time>
      </trkpt>
      <trkpt lat="44.07296" lon="6.50766">
        <ele>1371.8000488281</ele>
        <time>2022-08-20T16:38:57Z</time>
      </trkpt>
      <trkpt lat="44.07295" lon="6.50762">
        <ele>1372.1999511719</ele>
        <time>2022-08-20T16:38:59Z</time>
      </trkpt>
      <trkpt lat="44.07291" lon="6.50751">
        <ele>1373</ele>
        <time>2022-08-20T16:39:04Z</time>
      </trkpt>
      <trkpt lat="44.07289" lon="6.50747">
        <ele>1373.1999511719</ele>
        <time>2022-08-20T16:39:06Z</time>
      </trkpt>
      <trkpt lat="44.07287" lon="6.50742">
        <ele>1373.8000488281</ele>
        <time>2022-08-20T16:39:09Z</time>
      </trkpt>
      <trkpt lat="44.07286" lon="6.50738">
        <ele>1374.1999511719</ele>
        <time>2022-08-20T16:39:11Z</time>
      </trkpt>
      <trkpt lat="44.07285" lon="6.50737">
        <ele>1374.4000244141</ele>
        <time>2022-08-20T16:39:12Z</time>
      </trkpt>
      <trkpt lat="44.07281" lon="6.50723">
        <ele>1375.1999511719</ele>
        <time>2022-08-20T16:39:18Z</time>
      </trkpt>
      <trkpt lat="44.07279" lon="6.50718">
        <ele>1375.5999755859</ele>
        <time>2022-08-20T16:39:20Z</time>
      </trkpt>
      <trkpt lat="44.07273" lon="6.50705">
        <ele>1376.5999755859</ele>
        <time>2022-08-20T16:39:26Z</time>
      </trkpt>
      <trkpt lat="44.07266" lon="6.50691">
        <ele>1377.5999755859</ele>
        <time>2022-08-20T16:39:32Z</time>
      </trkpt>
      <trkpt lat="44.07265" lon="6.50689">
        <ele>1377.8000488281</ele>
        <time>2022-08-20T16:39:33Z</time>
      </trkpt>
      <trkpt lat="44.07256" lon="6.50661">
        <ele>1378.5999755859</ele>
        <time>2022-08-20T16:39:43Z</time>
      </trkpt>
      <trkpt lat="44.07256" lon="6.50658">
        <ele>1378.5999755859</ele>
        <time>2022-08-20T16:39:44Z</time>
      </trkpt>
      <trkpt lat="44.07255" lon="6.50637">
        <ele>1379.4000244141</ele>
        <time>2022-08-20T16:39:51Z</time>
      </trkpt>
      <trkpt lat="44.07254" lon="6.50626">
        <ele>1379.8000488281</ele>
        <time>2022-08-20T16:39:55Z</time>
      </trkpt>
      <trkpt lat="44.07252" lon="6.50615">
        <ele>1380.4000244141</ele>
        <time>2022-08-20T16:39:59Z</time>
      </trkpt>
      <trkpt lat="44.0725" lon="6.50607">
        <ele>1380.8000488281</ele>
        <time>2022-08-20T16:40:02Z</time>
      </trkpt>
      <trkpt lat="44.07249" lon="6.50599">
        <ele>1381.4000244141</ele>
        <time>2022-08-20T16:40:05Z</time>
      </trkpt>
      <trkpt lat="44.07247" lon="6.50589">
        <ele>1382</ele>
        <time>2022-08-20T16:40:09Z</time>
      </trkpt>
      <trkpt lat="44.07246" lon="6.50579">
        <ele>1382.8000488281</ele>
        <time>2022-08-20T16:40:14Z</time>
      </trkpt>
      <trkpt lat="44.07246" lon="6.50577">
        <ele>1383</ele>
        <time>2022-08-20T16:40:15Z</time>
      </trkpt>
      <trkpt lat="44.07245" lon="6.50564">
        <ele>1384.1999511719</ele>
        <time>2022-08-20T16:40:21Z</time>
      </trkpt>
      <trkpt lat="44.07244" lon="6.50558">
        <ele>1384.5999755859</ele>
        <time>2022-08-20T16:40:24Z</time>
      </trkpt>
      <trkpt lat="44.07244" lon="6.50553">
        <ele>1385</ele>
        <time>2022-08-20T16:40:27Z</time>
      </trkpt>
      <trkpt lat="44.07243" lon="6.50552">
        <ele>1385.1999511719</ele>
        <time>2022-08-20T16:40:28Z</time>
      </trkpt>
      <trkpt lat="44.0724" lon="6.50542">
        <ele>1386.4000244141</ele>
        <time>2022-08-20T16:40:34Z</time>
      </trkpt>
      <trkpt lat="44.07239" lon="6.5054">
        <ele>1386.4000244141</ele>
        <time>2022-08-20T16:40:35Z</time>
      </trkpt>
      <trkpt lat="44.07234" lon="6.5053">
        <ele>1387.5999755859</ele>
        <time>2022-08-20T16:40:41Z</time>
      </trkpt>
      <trkpt lat="44.07232" lon="6.50527">
        <ele>1387.8000488281</ele>
        <time>2022-08-20T16:40:43Z</time>
      </trkpt>
      <trkpt lat="44.07226" lon="6.5052">
        <ele>1388.5999755859</ele>
        <time>2022-08-20T16:40:48Z</time>
      </trkpt>
      <trkpt lat="44.07226" lon="6.50519">
        <ele>1389</ele>
        <time>2022-08-20T16:40:49Z</time>
      </trkpt>
      <trkpt lat="44.07223" lon="6.50509">
        <ele>1389.8000488281</ele>
        <time>2022-08-20T16:40:54Z</time>
      </trkpt>
      <trkpt lat="44.07221" lon="6.50505">
        <ele>1390</ele>
        <time>2022-08-20T16:40:56Z</time>
      </trkpt>
      <trkpt lat="44.07219" lon="6.50491">
        <ele>1390.8000488281</ele>
        <time>2022-08-20T16:41:04Z</time>
      </trkpt>
      <trkpt lat="44.07216" lon="6.5048">
        <ele>1392</ele>
        <time>2022-08-20T16:41:10Z</time>
      </trkpt>
      <trkpt lat="44.07215" lon="6.50477">
        <ele>1392.4000244141</ele>
        <time>2022-08-20T16:41:12Z</time>
      </trkpt>
      <trkpt lat="44.07214" lon="6.50473">
        <ele>1392.8000488281</ele>
        <time>2022-08-20T16:41:14Z</time>
      </trkpt>
      <trkpt lat="44.07213" lon="6.50469">
        <ele>1393</ele>
        <time>2022-08-20T16:41:16Z</time>
      </trkpt>
      <trkpt lat="44.07211" lon="6.50466">
        <ele>1393.4000244141</ele>
        <time>2022-08-20T16:41:18Z</time>
      </trkpt>
      <trkpt lat="44.07207" lon="6.5046">
        <ele>1394.1999511719</ele>
        <time>2022-08-20T16:41:23Z</time>
      </trkpt>
      <trkpt lat="44.07205" lon="6.50457">
        <ele>1394.4000244141</ele>
        <time>2022-08-20T16:41:25Z</time>
      </trkpt>
      <trkpt lat="44.07202" lon="6.5045">
        <ele>1395</ele>
        <time>2022-08-20T16:41:30Z</time>
      </trkpt>
      <trkpt lat="44.072" lon="6.50446">
        <ele>1395.1999511719</ele>
        <time>2022-08-20T16:41:32Z</time>
      </trkpt>
      <trkpt lat="44.07195" lon="6.50436">
        <ele>1396.4000244141</ele>
        <time>2022-08-20T16:41:39Z</time>
      </trkpt>
      <trkpt lat="44.07193" lon="6.50425">
        <ele>1397.5999755859</ele>
        <time>2022-08-20T16:41:45Z</time>
      </trkpt>
      <trkpt lat="44.07194" lon="6.50422">
        <ele>1397.8000488281</ele>
        <time>2022-08-20T16:41:47Z</time>
      </trkpt>
      <trkpt lat="44.07195" lon="6.50412">
        <ele>1398.5999755859</ele>
        <time>2022-08-20T16:41:52Z</time>
      </trkpt>
      <trkpt lat="44.07195" lon="6.50402">
        <ele>1399.4000244141</ele>
        <time>2022-08-20T16:41:57Z</time>
      </trkpt>
      <trkpt lat="44.07195" lon="6.50398">
        <ele>1399.5999755859</ele>
        <time>2022-08-20T16:41:59Z</time>
      </trkpt>
      <trkpt lat="44.07192" lon="6.5039">
        <ele>1400.4000244141</ele>
        <time>2022-08-20T16:42:04Z</time>
      </trkpt>
      <trkpt lat="44.07192" lon="6.50389">
        <ele>1400.4000244141</ele>
        <time>2022-08-20T16:42:05Z</time>
      </trkpt>
      <trkpt lat="44.07191" lon="6.50387">
        <ele>1400.5999755859</ele>
        <time>2022-08-20T16:42:06Z</time>
      </trkpt>
      <trkpt lat="44.07186" lon="6.50381">
        <ele>1401.4000244141</ele>
        <time>2022-08-20T16:42:11Z</time>
      </trkpt>
      <trkpt lat="44.07183" lon="6.50376">
        <ele>1401.8000488281</ele>
        <time>2022-08-20T16:42:15Z</time>
      </trkpt>
      <trkpt lat="44.0718" lon="6.50373">
        <ele>1402.1999511719</ele>
        <time>2022-08-20T16:42:18Z</time>
      </trkpt>
      <trkpt lat="44.07177" lon="6.50368">
        <ele>1402.8000488281</ele>
        <time>2022-08-20T16:42:22Z</time>
      </trkpt>
      <trkpt lat="44.07174" lon="6.50363">
        <ele>1403.4000244141</ele>
        <time>2022-08-20T16:42:26Z</time>
      </trkpt>
      <trkpt lat="44.07172" lon="6.50359">
        <ele>1403.8000488281</ele>
        <time>2022-08-20T16:42:29Z</time>
      </trkpt>
      <trkpt lat="44.07168" lon="6.50352">
        <ele>1404.5999755859</ele>
        <time>2022-08-20T16:42:34Z</time>
      </trkpt>
      <trkpt lat="44.07168" lon="6.50351">
        <ele>1404.8000488281</ele>
        <time>2022-08-20T16:42:35Z</time>
      </trkpt>
      <trkpt lat="44.07167" lon="6.5035">
        <ele>1405</ele>
        <time>2022-08-20T16:42:36Z</time>
      </trkpt>
      <trkpt lat="44.07162" lon="6.5034">
        <ele>1405.8000488281</ele>
        <time>2022-08-20T16:42:43Z</time>
      </trkpt>
      <trkpt lat="44.0716" lon="6.50338">
        <ele>1406</ele>
        <time>2022-08-20T16:42:45Z</time>
      </trkpt>
      <trkpt lat="44.07156" lon="6.5033">
        <ele>1406.8000488281</ele>
        <time>2022-08-20T16:42:50Z</time>
      </trkpt>
      <trkpt lat="44.07156" lon="6.50328">
        <ele>1407.1999511719</ele>
        <time>2022-08-20T16:42:51Z</time>
      </trkpt>
      <trkpt lat="44.07155" lon="6.50325">
        <ele>1407.5999755859</ele>
        <time>2022-08-20T16:42:53Z</time>
      </trkpt>
      <trkpt lat="44.07153" lon="6.50321">
        <ele>1408.1999511719</ele>
        <time>2022-08-20T16:42:56Z</time>
      </trkpt>
      <trkpt lat="44.07152" lon="6.50319">
        <ele>1408.4000244141</ele>
        <time>2022-08-20T16:42:57Z</time>
      </trkpt>
      <trkpt lat="44.07153" lon="6.50306">
        <ele>1409.1999511719</ele>
        <time>2022-08-20T16:43:04Z</time>
      </trkpt>
      <trkpt lat="44.07154" lon="6.50302">
        <ele>1409.4000244141</ele>
        <time>2022-08-20T16:43:06Z</time>
      </trkpt>
      <trkpt lat="44.07155" lon="6.50295">
        <ele>1410.1999511719</ele>
        <time>2022-08-20T16:43:11Z</time>
      </trkpt>
      <trkpt lat="44.07155" lon="6.50289">
        <ele>1410.4000244141</ele>
        <time>2022-08-20T16:43:14Z</time>
      </trkpt>
      <trkpt lat="44.07156" lon="6.50279">
        <ele>1411</ele>
        <time>2022-08-20T16:43:19Z</time>
      </trkpt>
      <trkpt lat="44.07158" lon="6.5027">
        <ele>1411.5999755859</ele>
        <time>2022-08-20T16:43:24Z</time>
      </trkpt>
      <trkpt lat="44.07158" lon="6.50265">
        <ele>1411.8000488281</ele>
        <time>2022-08-20T16:43:27Z</time>
      </trkpt>
      <trkpt lat="44.07156" lon="6.50256">
        <ele>1412.5999755859</ele>
        <time>2022-08-20T16:43:33Z</time>
      </trkpt>
      <trkpt lat="44.07155" lon="6.50254">
        <ele>1412.5999755859</ele>
        <time>2022-08-20T16:43:34Z</time>
      </trkpt>
      <trkpt lat="44.07151" lon="6.50242">
        <ele>1413.5999755859</ele>
        <time>2022-08-20T16:43:42Z</time>
      </trkpt>
      <trkpt lat="44.0715" lon="6.50238">
        <ele>1414</ele>
        <time>2022-08-20T16:43:44Z</time>
      </trkpt>
      <trkpt lat="44.07149" lon="6.50232">
        <ele>1414.4000244141</ele>
        <time>2022-08-20T16:43:48Z</time>
      </trkpt>
      <trkpt lat="44.07148" lon="6.50229">
        <ele>1414.8000488281</ele>
        <time>2022-08-20T16:43:50Z</time>
      </trkpt>
      <trkpt lat="44.07144" lon="6.50218">
        <ele>1415.8000488281</ele>
        <time>2022-08-20T16:43:57Z</time>
      </trkpt>
      <trkpt lat="44.0714" lon="6.50206">
        <ele>1417</ele>
        <time>2022-08-20T16:44:04Z</time>
      </trkpt>
      <trkpt lat="44.0714" lon="6.50204">
        <ele>1417</ele>
        <time>2022-08-20T16:44:05Z</time>
      </trkpt>
      <trkpt lat="44.07138" lon="6.50194">
        <ele>1417.5999755859</ele>
        <time>2022-08-20T16:44:11Z</time>
      </trkpt>
      <trkpt lat="44.07138" lon="6.50189">
        <ele>1418</ele>
        <time>2022-08-20T16:44:14Z</time>
      </trkpt>
      <trkpt lat="44.07137" lon="6.50183">
        <ele>1418.5999755859</ele>
        <time>2022-08-20T16:44:18Z</time>
      </trkpt>
      <trkpt lat="44.07135" lon="6.50178">
        <ele>1419.1999511719</ele>
        <time>2022-08-20T16:44:21Z</time>
      </trkpt>
      <trkpt lat="44.07133" lon="6.50169">
        <ele>1420</ele>
        <time>2022-08-20T16:44:27Z</time>
      </trkpt>
      <trkpt lat="44.07132" lon="6.50166">
        <ele>1420.1999511719</ele>
        <time>2022-08-20T16:44:29Z</time>
      </trkpt>
      <trkpt lat="44.07129" lon="6.50157">
        <ele>1421.1999511719</ele>
        <time>2022-08-20T16:44:35Z</time>
      </trkpt>
      <trkpt lat="44.07129" lon="6.50156">
        <ele>1421.1999511719</ele>
        <time>2022-08-20T16:44:36Z</time>
      </trkpt>
      <trkpt lat="44.07126" lon="6.50144">
        <ele>1422</ele>
        <time>2022-08-20T16:44:43Z</time>
      </trkpt>
      <trkpt lat="44.07125" lon="6.50142">
        <ele>1422.1999511719</ele>
        <time>2022-08-20T16:44:44Z</time>
      </trkpt>
      <trkpt lat="44.07124" lon="6.50139">
        <ele>1422.1999511719</ele>
        <time>2022-08-20T16:44:46Z</time>
      </trkpt>
      <trkpt lat="44.07123" lon="6.50132">
        <ele>1422.8000488281</ele>
        <time>2022-08-20T16:44:50Z</time>
      </trkpt>
      <trkpt lat="44.0712" lon="6.50123">
        <ele>1423.4000244141</ele>
        <time>2022-08-20T16:44:56Z</time>
      </trkpt>
      <trkpt lat="44.0712" lon="6.50121">
        <ele>1423.4000244141</ele>
        <time>2022-08-20T16:44:57Z</time>
      </trkpt>
      <trkpt lat="44.0712" lon="6.50118">
        <ele>1423.8000488281</ele>
        <time>2022-08-20T16:44:59Z</time>
      </trkpt>
      <trkpt lat="44.07119" lon="6.50111">
        <ele>1424.4000244141</ele>
        <time>2022-08-20T16:45:03Z</time>
      </trkpt>
      <trkpt lat="44.07119" lon="6.50104">
        <ele>1425</ele>
        <time>2022-08-20T16:45:07Z</time>
      </trkpt>
      <trkpt lat="44.07118" lon="6.50099">
        <ele>1425.4000244141</ele>
        <time>2022-08-20T16:45:10Z</time>
      </trkpt>
      <trkpt lat="44.07118" lon="6.50089">
        <ele>1426.4000244141</ele>
        <time>2022-08-20T16:45:16Z</time>
      </trkpt>
      <trkpt lat="44.07118" lon="6.50087">
        <ele>1426.5999755859</ele>
        <time>2022-08-20T16:45:17Z</time>
      </trkpt>
      <trkpt lat="44.07119" lon="6.50079">
        <ele>1427.4000244141</ele>
        <time>2022-08-20T16:45:22Z</time>
      </trkpt>
      <trkpt lat="44.07119" lon="6.50078">
        <ele>1427.4000244141</ele>
        <time>2022-08-20T16:45:23Z</time>
      </trkpt>
      <trkpt lat="44.07119" lon="6.50078">
        <ele>1427.4000244141</ele>
        <time>2022-08-20T16:45:24Z</time>
      </trkpt>
      <trkpt lat="44.07119" lon="6.50077">
        <ele>1427.5999755859</ele>
        <time>2022-08-20T16:45:28Z</time>
      </trkpt>
      <trkpt lat="44.0712" lon="6.50077">
        <ele>1427.4000244141</ele>
        <time>2022-08-20T16:45:31Z</time>
      </trkpt>
      <trkpt lat="44.0712" lon="6.50077">
        <ele>1427.4000244141</ele>
        <time>2022-08-20T16:45:33Z</time>
      </trkpt>
      <trkpt lat="44.0712" lon="6.50078">
        <ele>1427.8000488281</ele>
        <time>2022-08-20T16:45:42Z</time>
      </trkpt>
      <trkpt lat="44.0712" lon="6.50077">
        <ele>1427.8000488281</ele>
        <time>2022-08-20T16:45:44Z</time>
      </trkpt>
      <trkpt lat="44.07119" lon="6.50077">
        <ele>1427.8000488281</ele>
        <time>2022-08-20T16:45:58Z</time>
      </trkpt>
      <trkpt lat="44.07119" lon="6.50078">
        <ele>1428</ele>
        <time>2022-08-20T16:46:06Z</time>
      </trkpt>
      <trkpt lat="44.07119" lon="6.50078">
        <ele>1428</ele>
        <time>2022-08-20T16:46:10Z</time>
      </trkpt>
      <trkpt lat="44.07119" lon="6.50079">
        <ele>1428.1999511719</ele>
        <time>2022-08-20T16:46:21Z</time>
      </trkpt>
      <trkpt lat="44.07119" lon="6.50079">
        <ele>1428</ele>
        <time>2022-08-20T16:46:23Z</time>
      </trkpt>
      <trkpt lat="44.07119" lon="6.50079">
        <ele>1428</ele>
        <time>2022-08-20T16:46:24Z</time>
      </trkpt>
      <trkpt lat="44.07118" lon="6.5008">
        <ele>1427.5999755859</ele>
        <time>2022-08-20T16:46:46Z</time>
      </trkpt>
      <trkpt lat="44.07118" lon="6.5008">
        <ele>1427.5999755859</ele>
        <time>2022-08-20T16:46:48Z</time>
      </trkpt>
      <trkpt lat="44.07118" lon="6.5008">
        <ele>1427.5999755859</ele>
        <time>2022-08-20T16:47:08Z</time>
      </trkpt>
      <trkpt lat="44.07118" lon="6.5008">
        <ele>1427.5999755859</ele>
        <time>2022-08-20T16:47:10Z</time>
      </trkpt>
      <trkpt lat="44.07118" lon="6.50079">
        <ele>1427.5999755859</ele>
        <time>2022-08-20T16:47:20Z</time>
      </trkpt>
      <trkpt lat="44.07117" lon="6.50077">
        <ele>1427.5999755859</ele>
        <time>2022-08-20T16:47:34Z</time>
      </trkpt>
      <trkpt lat="44.07117" lon="6.50077">
        <ele>1427.5999755859</ele>
        <time>2022-08-20T16:47:38Z</time>
      </trkpt>
      <trkpt lat="44.07117" lon="6.50077">
        <ele>1427.5999755859</ele>
        <time>2022-08-20T16:47:52Z</time>
      </trkpt>
      <trkpt lat="44.07117" lon="6.50077">
        <ele>1427.5999755859</ele>
        <time>2022-08-20T16:47:57Z</time>
      </trkpt>
      <trkpt lat="44.07117" lon="6.50077">
        <ele>1427.5999755859</ele>
        <time>2022-08-20T16:48:00Z</time>
      </trkpt>
      <trkpt lat="44.07117" lon="6.50075">
        <ele>1427.5999755859</ele>
        <time>2022-08-20T16:48:07Z</time>
      </trkpt>
      <trkpt lat="44.07117" lon="6.50071">
        <ele>1427.5999755859</ele>
        <time>2022-08-20T16:48:09Z</time>
      </trkpt>
      <trkpt lat="44.07116" lon="6.50063">
        <ele>1427.5999755859</ele>
        <time>2022-08-20T16:48:13Z</time>
      </trkpt>
      <trkpt lat="44.07115" lon="6.50055">
        <ele>1427.8000488281</ele>
        <time>2022-08-20T16:48:17Z</time>
      </trkpt>
      <trkpt lat="44.07113" lon="6.50045">
        <ele>1428.4000244141</ele>
        <time>2022-08-20T16:48:22Z</time>
      </trkpt>
      <trkpt lat="44.07112" lon="6.50041">
        <ele>1428.5999755859</ele>
        <time>2022-08-20T16:48:24Z</time>
      </trkpt>
      <trkpt lat="44.07109" lon="6.50031">
        <ele>1429.4000244141</ele>
        <time>2022-08-20T16:48:29Z</time>
      </trkpt>
      <trkpt lat="44.07107" lon="6.50027">
        <ele>1429.5999755859</ele>
        <time>2022-08-20T16:48:31Z</time>
      </trkpt>
      <trkpt lat="44.07106" lon="6.50023">
        <ele>1429.8000488281</ele>
        <time>2022-08-20T16:48:33Z</time>
      </trkpt>
      <trkpt lat="44.07104" lon="6.50012">
        <ele>1430.8000488281</ele>
        <time>2022-08-20T16:48:38Z</time>
      </trkpt>
      <trkpt lat="44.07104" lon="6.50007">
        <ele>1431.1999511719</ele>
        <time>2022-08-20T16:48:41Z</time>
      </trkpt>
      <trkpt lat="44.07103" lon="6.50002">
        <ele>1432</ele>
        <time>2022-08-20T16:48:44Z</time>
      </trkpt>
      <trkpt lat="44.07102" lon="6.49991">
        <ele>1433</ele>
        <time>2022-08-20T16:48:50Z</time>
      </trkpt>
      <trkpt lat="44.07102" lon="6.49985">
        <ele>1433.4000244141</ele>
        <time>2022-08-20T16:48:53Z</time>
      </trkpt>
      <trkpt lat="44.07102" lon="6.4998">
        <ele>1434</ele>
        <time>2022-08-20T16:48:56Z</time>
      </trkpt>
      <trkpt lat="44.07103" lon="6.49978">
        <ele>1434.1999511719</ele>
        <time>2022-08-20T16:48:57Z</time>
      </trkpt>
      <trkpt lat="44.07104" lon="6.49972">
        <ele>1434.8000488281</ele>
        <time>2022-08-20T16:49:00Z</time>
      </trkpt>
      <trkpt lat="44.07104" lon="6.49968">
        <ele>1435</ele>
        <time>2022-08-20T16:49:02Z</time>
      </trkpt>
      <trkpt lat="44.07103" lon="6.49961">
        <ele>1435.5999755859</ele>
        <time>2022-08-20T16:49:06Z</time>
      </trkpt>
      <trkpt lat="44.07103" lon="6.49955">
        <ele>1436</ele>
        <time>2022-08-20T16:49:09Z</time>
      </trkpt>
      <trkpt lat="44.07103" lon="6.49953">
        <ele>1436</ele>
        <time>2022-08-20T16:49:10Z</time>
      </trkpt>
      <trkpt lat="44.07103" lon="6.49951">
        <ele>1436.1999511719</ele>
        <time>2022-08-20T16:49:11Z</time>
      </trkpt>
      <trkpt lat="44.07102" lon="6.49948">
        <ele>1436.5999755859</ele>
        <time>2022-08-20T16:49:13Z</time>
      </trkpt>
      <trkpt lat="44.07102" lon="6.49943">
        <ele>1437</ele>
        <time>2022-08-20T16:49:16Z</time>
      </trkpt>
      <trkpt lat="44.07099" lon="6.49933">
        <ele>1437.8000488281</ele>
        <time>2022-08-20T16:49:22Z</time>
      </trkpt>
      <trkpt lat="44.07099" lon="6.49932">
        <ele>1438</ele>
        <time>2022-08-20T16:49:23Z</time>
      </trkpt>
      <trkpt lat="44.07097" lon="6.49923">
        <ele>1439.1999511719</ele>
        <time>2022-08-20T16:49:28Z</time>
      </trkpt>
      <trkpt lat="44.07097" lon="6.49918">
        <ele>1440</ele>
        <time>2022-08-20T16:49:31Z</time>
      </trkpt>
      <trkpt lat="44.07096" lon="6.49914">
        <ele>1440.1999511719</ele>
        <time>2022-08-20T16:49:33Z</time>
      </trkpt>
      <trkpt lat="44.07095" lon="6.499">
        <ele>1441.4000244141</ele>
        <time>2022-08-20T16:49:41Z</time>
      </trkpt>
      <trkpt lat="44.07094" lon="6.49897">
        <ele>1441.5999755859</ele>
        <time>2022-08-20T16:49:43Z</time>
      </trkpt>
      <trkpt lat="44.07092" lon="6.4988">
        <ele>1442.5999755859</ele>
        <time>2022-08-20T16:49:52Z</time>
      </trkpt>
      <trkpt lat="44.07091" lon="6.49875">
        <ele>1443</ele>
        <time>2022-08-20T16:49:55Z</time>
      </trkpt>
      <trkpt lat="44.07089" lon="6.49868">
        <ele>1443.8000488281</ele>
        <time>2022-08-20T16:49:59Z</time>
      </trkpt>
      <trkpt lat="44.07086" lon="6.49858">
        <ele>1444.8000488281</ele>
        <time>2022-08-20T16:50:05Z</time>
      </trkpt>
      <trkpt lat="44.07082" lon="6.49847">
        <ele>1446</ele>
        <time>2022-08-20T16:50:13Z</time>
      </trkpt>
      <trkpt lat="44.07081" lon="6.49843">
        <ele>1446.4000244141</ele>
        <time>2022-08-20T16:50:15Z</time>
      </trkpt>
      <trkpt lat="44.07079" lon="6.49836">
        <ele>1447</ele>
        <time>2022-08-20T16:50:20Z</time>
      </trkpt>
      <trkpt lat="44.07079" lon="6.49835">
        <ele>1447</ele>
        <time>2022-08-20T16:50:21Z</time>
      </trkpt>
      <trkpt lat="44.07076" lon="6.4983">
        <ele>1447.5999755859</ele>
        <time>2022-08-20T16:50:24Z</time>
      </trkpt>
      <trkpt lat="44.07074" lon="6.49826">
        <ele>1448</ele>
        <time>2022-08-20T16:50:27Z</time>
      </trkpt>
      <trkpt lat="44.07071" lon="6.49821">
        <ele>1448.5999755859</ele>
        <time>2022-08-20T16:50:32Z</time>
      </trkpt>
      <trkpt lat="44.07066" lon="6.49814">
        <ele>1449.1999511719</ele>
        <time>2022-08-20T16:50:38Z</time>
      </trkpt>
      <trkpt lat="44.07064" lon="6.49811">
        <ele>1449.4000244141</ele>
        <time>2022-08-20T16:50:40Z</time>
      </trkpt>
      <trkpt lat="44.07062" lon="6.49809">
        <ele>1449.8000488281</ele>
        <time>2022-08-20T16:50:42Z</time>
      </trkpt>
      <trkpt lat="44.07061" lon="6.49804">
        <ele>1450.1999511719</ele>
        <time>2022-08-20T16:50:45Z</time>
      </trkpt>
      <trkpt lat="44.07058" lon="6.49798">
        <ele>1450.4000244141</ele>
        <time>2022-08-20T16:50:48Z</time>
      </trkpt>
      <trkpt lat="44.07056" lon="6.49793">
        <ele>1451</ele>
        <time>2022-08-20T16:50:52Z</time>
      </trkpt>
      <trkpt lat="44.07054" lon="6.4979">
        <ele>1451.4000244141</ele>
        <time>2022-08-20T16:50:54Z</time>
      </trkpt>
      <trkpt lat="44.07053" lon="6.49787">
        <ele>1451.5999755859</ele>
        <time>2022-08-20T16:50:56Z</time>
      </trkpt>
      <trkpt lat="44.07051" lon="6.49782">
        <ele>1452</ele>
        <time>2022-08-20T16:50:59Z</time>
      </trkpt>
      <trkpt lat="44.0705" lon="6.49779">
        <ele>1452.4000244141</ele>
        <time>2022-08-20T16:51:01Z</time>
      </trkpt>
      <trkpt lat="44.0705" lon="6.49777">
        <ele>1452.4000244141</ele>
        <time>2022-08-20T16:51:02Z</time>
      </trkpt>
      <trkpt lat="44.07048" lon="6.4977">
        <ele>1453</ele>
        <time>2022-08-20T16:51:07Z</time>
      </trkpt>
      <trkpt lat="44.07047" lon="6.49767">
        <ele>1453.1999511719</ele>
        <time>2022-08-20T16:51:09Z</time>
      </trkpt>
      <trkpt lat="44.07046" lon="6.49764">
        <ele>1453.5999755859</ele>
        <time>2022-08-20T16:51:11Z</time>
      </trkpt>
      <trkpt lat="44.07043" lon="6.49754">
        <ele>1454.1999511719</ele>
        <time>2022-08-20T16:51:16Z</time>
      </trkpt>
      <trkpt lat="44.0704" lon="6.49744">
        <ele>1454.8000488281</ele>
        <time>2022-08-20T16:51:22Z</time>
      </trkpt>
      <trkpt lat="44.07038" lon="6.49739">
        <ele>1455.1999511719</ele>
        <time>2022-08-20T16:51:25Z</time>
      </trkpt>
      <trkpt lat="44.07031" lon="6.49731">
        <ele>1455.8000488281</ele>
        <time>2022-08-20T16:51:32Z</time>
      </trkpt>
      <trkpt lat="44.0703" lon="6.4973">
        <ele>1455.8000488281</ele>
        <time>2022-08-20T16:51:33Z</time>
      </trkpt>
      <trkpt lat="44.07023" lon="6.49724">
        <ele>1456.5999755859</ele>
        <time>2022-08-20T16:51:39Z</time>
      </trkpt>
      <trkpt lat="44.07022" lon="6.49723">
        <ele>1456.8000488281</ele>
        <time>2022-08-20T16:51:40Z</time>
      </trkpt>
      <trkpt lat="44.07016" lon="6.49719">
        <ele>1457.1999511719</ele>
        <time>2022-08-20T16:51:45Z</time>
      </trkpt>
      <trkpt lat="44.07012" lon="6.49716">
        <ele>1457.8000488281</ele>
        <time>2022-08-20T16:51:49Z</time>
      </trkpt>
      <trkpt lat="44.07006" lon="6.49713">
        <ele>1459</ele>
        <time>2022-08-20T16:51:54Z</time>
      </trkpt>
      <trkpt lat="44.07005" lon="6.49713">
        <ele>1459</ele>
        <time>2022-08-20T16:51:55Z</time>
      </trkpt>
      <trkpt lat="44.06998" lon="6.49709">
        <ele>1459.8000488281</ele>
        <time>2022-08-20T16:52:01Z</time>
      </trkpt>
      <trkpt lat="44.06997" lon="6.49708">
        <ele>1460</ele>
        <time>2022-08-20T16:52:02Z</time>
      </trkpt>
      <trkpt lat="44.06996" lon="6.49706">
        <ele>1460</ele>
        <time>2022-08-20T16:52:03Z</time>
      </trkpt>
      <trkpt lat="44.0699" lon="6.49701">
        <ele>1461</ele>
        <time>2022-08-20T16:52:09Z</time>
      </trkpt>
      <trkpt lat="44.06985" lon="6.497">
        <ele>1461.4000244141</ele>
        <time>2022-08-20T16:52:13Z</time>
      </trkpt>
      <trkpt lat="44.06981" lon="6.49699">
        <ele>1462.1999511719</ele>
        <time>2022-08-20T16:52:17Z</time>
      </trkpt>
      <trkpt lat="44.06975" lon="6.49698">
        <ele>1463</ele>
        <time>2022-08-20T16:52:23Z</time>
      </trkpt>
      <trkpt lat="44.06974" lon="6.49698">
        <ele>1463.1999511719</ele>
        <time>2022-08-20T16:52:24Z</time>
      </trkpt>
      <trkpt lat="44.06964" lon="6.49691">
        <ele>1464</ele>
        <time>2022-08-20T16:52:32Z</time>
      </trkpt>
      <trkpt lat="44.06963" lon="6.4969">
        <ele>1464.1999511719</ele>
        <time>2022-08-20T16:52:33Z</time>
      </trkpt>
      <trkpt lat="44.06956" lon="6.4968">
        <ele>1465</ele>
        <time>2022-08-20T16:52:39Z</time>
      </trkpt>
      <trkpt lat="44.06956" lon="6.49678">
        <ele>1465</ele>
        <time>2022-08-20T16:52:40Z</time>
      </trkpt>
      <trkpt lat="44.06954" lon="6.49674">
        <ele>1465.1999511719</ele>
        <time>2022-08-20T16:52:42Z</time>
      </trkpt>
      <trkpt lat="44.0695" lon="6.49661">
        <ele>1465.8000488281</ele>
        <time>2022-08-20T16:52:49Z</time>
      </trkpt>
      <trkpt lat="44.06949" lon="6.49653">
        <ele>1466.4000244141</ele>
        <time>2022-08-20T16:52:53Z</time>
      </trkpt>
      <trkpt lat="44.06946" lon="6.49648">
        <ele>1467</ele>
        <time>2022-08-20T16:52:57Z</time>
      </trkpt>
      <trkpt lat="44.06942" lon="6.49645">
        <ele>1467.5999755859</ele>
        <time>2022-08-20T16:53:01Z</time>
      </trkpt>
      <trkpt lat="44.06935" lon="6.49642">
        <ele>1468.4000244141</ele>
        <time>2022-08-20T16:53:07Z</time>
      </trkpt>
      <trkpt lat="44.06933" lon="6.49642">
        <ele>1468.5999755859</ele>
        <time>2022-08-20T16:53:09Z</time>
      </trkpt>
      <trkpt lat="44.06925" lon="6.49641">
        <ele>1469.1999511719</ele>
        <time>2022-08-20T16:53:15Z</time>
      </trkpt>
      <trkpt lat="44.06919" lon="6.49642">
        <ele>1469.5999755859</ele>
        <time>2022-08-20T16:53:20Z</time>
      </trkpt>
      <trkpt lat="44.06912" lon="6.49643">
        <ele>1470.4000244141</ele>
        <time>2022-08-20T16:53:25Z</time>
      </trkpt>
      <trkpt lat="44.0691" lon="6.49643">
        <ele>1470.8000488281</ele>
        <time>2022-08-20T16:53:27Z</time>
      </trkpt>
      <trkpt lat="44.06897" lon="6.49641">
        <ele>1471.8000488281</ele>
        <time>2022-08-20T16:53:37Z</time>
      </trkpt>
      <trkpt lat="44.06891" lon="6.49638">
        <ele>1472</ele>
        <time>2022-08-20T16:53:41Z</time>
      </trkpt>
      <trkpt lat="44.06885" lon="6.49633">
        <ele>1472.4000244141</ele>
        <time>2022-08-20T16:53:45Z</time>
      </trkpt>
      <trkpt lat="44.06882" lon="6.49628">
        <ele>1472.8000488281</ele>
        <time>2022-08-20T16:53:48Z</time>
      </trkpt>
      <trkpt lat="44.06875" lon="6.49616">
        <ele>1473.4000244141</ele>
        <time>2022-08-20T16:53:55Z</time>
      </trkpt>
      <trkpt lat="44.06873" lon="6.49611">
        <ele>1473.8000488281</ele>
        <time>2022-08-20T16:53:58Z</time>
      </trkpt>
      <trkpt lat="44.06868" lon="6.49601">
        <ele>1474.8000488281</ele>
        <time>2022-08-20T16:54:04Z</time>
      </trkpt>
      <trkpt lat="44.06867" lon="6.49598">
        <ele>1475</ele>
        <time>2022-08-20T16:54:06Z</time>
      </trkpt>
      <trkpt lat="44.06862" lon="6.49591">
        <ele>1475.8000488281</ele>
        <time>2022-08-20T16:54:12Z</time>
      </trkpt>
      <trkpt lat="44.0686" lon="6.49588">
        <ele>1476.1999511719</ele>
        <time>2022-08-20T16:54:14Z</time>
      </trkpt>
      <trkpt lat="44.06851" lon="6.49581">
        <ele>1476.8000488281</ele>
        <time>2022-08-20T16:54:21Z</time>
      </trkpt>
      <trkpt lat="44.06845" lon="6.49578">
        <ele>1477.1999511719</ele>
        <time>2022-08-20T16:54:25Z</time>
      </trkpt>
      <trkpt lat="44.06833" lon="6.4957">
        <ele>1477.8000488281</ele>
        <time>2022-08-20T16:54:32Z</time>
      </trkpt>
      <trkpt lat="44.06827" lon="6.49566">
        <ele>1478</ele>
        <time>2022-08-20T16:54:35Z</time>
      </trkpt>
      <trkpt lat="44.06819" lon="6.49561">
        <ele>1478.1999511719</ele>
        <time>2022-08-20T16:54:38Z</time>
      </trkpt>
      <trkpt lat="44.06812" lon="6.49556">
        <ele>1478.5999755859</ele>
        <time>2022-08-20T16:54:41Z</time>
      </trkpt>
      <trkpt lat="44.06792" lon="6.4954">
        <ele>1479.4000244141</ele>
        <time>2022-08-20T16:54:50Z</time>
      </trkpt>
      <trkpt lat="44.06785" lon="6.49532">
        <ele>1480.4000244141</ele>
        <time>2022-08-20T16:54:56Z</time>
      </trkpt>
      <trkpt lat="44.06777" lon="6.4952">
        <ele>1481.1999511719</ele>
        <time>2022-08-20T16:55:03Z</time>
      </trkpt>
      <trkpt lat="44.06776" lon="6.49518">
        <ele>1481.4000244141</ele>
        <time>2022-08-20T16:55:04Z</time>
      </trkpt>
      <trkpt lat="44.06769" lon="6.49501">
        <ele>1482.1999511719</ele>
        <time>2022-08-20T16:55:11Z</time>
      </trkpt>
      <trkpt lat="44.06763" lon="6.49491">
        <ele>1482.5999755859</ele>
        <time>2022-08-20T16:55:16Z</time>
      </trkpt>
      <trkpt lat="44.0676" lon="6.49488">
        <ele>1482.8000488281</ele>
        <time>2022-08-20T16:55:18Z</time>
      </trkpt>
      <trkpt lat="44.06751" lon="6.49481">
        <ele>1483.5999755859</ele>
        <time>2022-08-20T16:55:23Z</time>
      </trkpt>
      <trkpt lat="44.06748" lon="6.4948">
        <ele>1484</ele>
        <time>2022-08-20T16:55:25Z</time>
      </trkpt>
      <trkpt lat="44.0674" lon="6.49478">
        <ele>1484.8000488281</ele>
        <time>2022-08-20T16:55:30Z</time>
      </trkpt>
      <trkpt lat="44.06734" lon="6.49478">
        <ele>1485.4000244141</ele>
        <time>2022-08-20T16:55:33Z</time>
      </trkpt>
      <trkpt lat="44.0673" lon="6.49477">
        <ele>1485.8000488281</ele>
        <time>2022-08-20T16:55:36Z</time>
      </trkpt>
      <trkpt lat="44.06724" lon="6.49478">
        <ele>1486.1999511719</ele>
        <time>2022-08-20T16:55:39Z</time>
      </trkpt>
      <trkpt lat="44.06713" lon="6.49476">
        <ele>1486.8000488281</ele>
        <time>2022-08-20T16:55:44Z</time>
      </trkpt>
      <trkpt lat="44.06704" lon="6.49475">
        <ele>1487.4000244141</ele>
        <time>2022-08-20T16:55:48Z</time>
      </trkpt>
      <trkpt lat="44.06689" lon="6.49474">
        <ele>1488</ele>
        <time>2022-08-20T16:55:54Z</time>
      </trkpt>
      <trkpt lat="44.06684" lon="6.49474">
        <ele>1488.1999511719</ele>
        <time>2022-08-20T16:55:56Z</time>
      </trkpt>
      <trkpt lat="44.06669" lon="6.49479">
        <ele>1489</ele>
        <time>2022-08-20T16:56:03Z</time>
      </trkpt>
      <trkpt lat="44.06665" lon="6.49481">
        <ele>1489.1999511719</ele>
        <time>2022-08-20T16:56:05Z</time>
      </trkpt>
      <trkpt lat="44.06644" lon="6.49485">
        <ele>1489.8000488281</ele>
        <time>2022-08-20T16:56:13Z</time>
      </trkpt>
      <trkpt lat="44.0664" lon="6.49484">
        <ele>1490.1999511719</ele>
        <time>2022-08-20T16:56:15Z</time>
      </trkpt>
      <trkpt lat="44.06632" lon="6.49481">
        <ele>1491</ele>
        <time>2022-08-20T16:56:19Z</time>
      </trkpt>
      <trkpt lat="44.0663" lon="6.4948">
        <ele>1491.1999511719</ele>
        <time>2022-08-20T16:56:20Z</time>
      </trkpt>
      <trkpt lat="44.06619" lon="6.49475">
        <ele>1492.1999511719</ele>
        <time>2022-08-20T16:56:25Z</time>
      </trkpt>
      <trkpt lat="44.06616" lon="6.49473">
        <ele>1492.4000244141</ele>
        <time>2022-08-20T16:56:26Z</time>
      </trkpt>
      <trkpt lat="44.06603" lon="6.49462">
        <ele>1493.5999755859</ele>
        <time>2022-08-20T16:56:32Z</time>
      </trkpt>
      <trkpt lat="44.06601" lon="6.49461">
        <ele>1493.5999755859</ele>
        <time>2022-08-20T16:56:33Z</time>
      </trkpt>
      <trkpt lat="44.0659" lon="6.49449">
        <ele>1494.8000488281</ele>
        <time>2022-08-20T16:56:39Z</time>
      </trkpt>
      <trkpt lat="44.06582" lon="6.49438">
        <ele>1495.4000244141</ele>
        <time>2022-08-20T16:56:45Z</time>
      </trkpt>
      <trkpt lat="44.06566" lon="6.49422">
        <ele>1495.1999511719</ele>
        <time>2022-08-20T16:56:52Z</time>
      </trkpt>
      <trkpt lat="44.06548" lon="6.49417">
        <ele>1495.4000244141</ele>
        <time>2022-08-20T16:56:59Z</time>
      </trkpt>
      <trkpt lat="44.06536" lon="6.49417">
        <ele>1495.8000488281</ele>
        <time>2022-08-20T16:57:04Z</time>
      </trkpt>
      <trkpt lat="44.06534" lon="6.49418">
        <ele>1496</ele>
        <time>2022-08-20T16:57:05Z</time>
      </trkpt>
      <trkpt lat="44.06523" lon="6.49424">
        <ele>1496.1999511719</ele>
        <time>2022-08-20T16:57:11Z</time>
      </trkpt>
      <trkpt lat="44.06521" lon="6.49425">
        <ele>1496.1999511719</ele>
        <time>2022-08-20T16:57:12Z</time>
      </trkpt>
      <trkpt lat="44.06514" lon="6.49431">
        <ele>1496.1999511719</ele>
        <time>2022-08-20T16:57:16Z</time>
      </trkpt>
      <trkpt lat="44.06513" lon="6.49437">
        <ele>1496.1999511719</ele>
        <time>2022-08-20T16:57:18Z</time>
      </trkpt>
      <trkpt lat="44.06513" lon="6.49439">
        <ele>1496</ele>
        <time>2022-08-20T16:57:19Z</time>
      </trkpt>
      <trkpt lat="44.06513" lon="6.49441">
        <ele>1496.1999511719</ele>
        <time>2022-08-20T16:57:21Z</time>
      </trkpt>
      <trkpt lat="44.06513" lon="6.49441">
        <ele>1496.1999511719</ele>
        <time>2022-08-20T16:57:22Z</time>
      </trkpt>
      <trkpt lat="44.06512" lon="6.49441">
        <ele>1496.1999511719</ele>
        <time>2022-08-20T16:57:23Z</time>
      </trkpt>
      <trkpt lat="44.06512" lon="6.4944">
        <ele>1496.1999511719</ele>
        <time>2022-08-20T16:57:25Z</time>
      </trkpt>
      <trkpt lat="44.06513" lon="6.49442">
        <ele>1496.4000244141</ele>
        <time>2022-08-20T16:57:29Z</time>
      </trkpt>
      <trkpt lat="44.06512" lon="6.49441">
        <ele>1496</ele>
        <time>2022-08-20T16:57:34Z</time>
      </trkpt>
      <trkpt lat="44.06511" lon="6.49439">
        <ele>1495.5999755859</ele>
        <time>2022-08-20T16:57:43Z</time>
      </trkpt>
      <trkpt lat="44.0651" lon="6.49426">
        <ele>1496</ele>
        <time>2022-08-20T16:57:52Z</time>
      </trkpt>
      <trkpt lat="44.06509" lon="6.49424">
        <ele>1495.8000488281</ele>
        <time>2022-08-20T16:57:54Z</time>
      </trkpt>
      <trkpt lat="44.0651" lon="6.49419">
        <ele>1495.8000488281</ele>
        <time>2022-08-20T16:57:59Z</time>
      </trkpt>
      <trkpt lat="44.0651" lon="6.49418">
        <ele>1495.8000488281</ele>
        <time>2022-08-20T16:58:00Z</time>
      </trkpt>
      <trkpt lat="44.06511" lon="6.49415">
        <ele>1495.8000488281</ele>
        <time>2022-08-20T16:58:02Z</time>
      </trkpt>
      <trkpt lat="44.06511" lon="6.49415">
        <ele>1496</ele>
        <time>2022-08-20T16:58:03Z</time>
      </trkpt>
      <trkpt lat="44.06512" lon="6.49413">
        <ele>1496</ele>
        <time>2022-08-20T16:58:06Z</time>
      </trkpt>
      <trkpt lat="44.06514" lon="6.4941">
        <ele>1496.4000244141</ele>
        <time>2022-08-20T16:58:09Z</time>
      </trkpt>
      <trkpt lat="44.06514" lon="6.49409">
        <ele>1496.5999755859</ele>
        <time>2022-08-20T16:58:12Z</time>
      </trkpt>
      <trkpt lat="44.06516" lon="6.4941">
        <ele>1496.8000488281</ele>
        <time>2022-08-20T16:58:16Z</time>
      </trkpt>
      <trkpt lat="44.06516" lon="6.4941">
        <ele>1497</ele>
        <time>2022-08-20T16:58:26Z</time>
      </trkpt>
      <trkpt lat="44.06516" lon="6.4941">
        <ele>1497.1999511719</ele>
        <time>2022-08-20T16:58:35Z</time>
      </trkpt>
      <trkpt lat="44.06516" lon="6.4941">
        <ele>1497.1999511719</ele>
        <time>2022-08-20T16:58:39Z</time>
      </trkpt>
      <trkpt lat="44.06516" lon="6.4941">
        <ele>1497.1999511719</ele>
        <time>2022-08-20T16:58:41Z</time>
      </trkpt>
      <trkpt lat="44.06514" lon="6.49418">
        <ele>1496.4000244141</ele>
        <time>2022-08-20T16:58:48Z</time>
      </trkpt>
      <trkpt lat="44.06513" lon="6.49423">
        <ele>1496.1999511719</ele>
        <time>2022-08-20T16:58:51Z</time>
      </trkpt>
      <trkpt lat="44.06513" lon="6.49425">
        <ele>1496</ele>
        <time>2022-08-20T16:58:52Z</time>
      </trkpt>
      <trkpt lat="44.06512" lon="6.49426">
        <ele>1496</ele>
        <time>2022-08-20T16:58:53Z</time>
      </trkpt>
      <trkpt lat="44.06512" lon="6.49429">
        <ele>1496</ele>
        <time>2022-08-20T16:58:55Z</time>
      </trkpt>
      <trkpt lat="44.0651" lon="6.49433">
        <ele>1496</ele>
        <time>2022-08-20T16:58:58Z</time>
      </trkpt>
      <trkpt lat="44.0651" lon="6.49437">
        <ele>1496</ele>
        <time>2022-08-20T16:59:01Z</time>
      </trkpt>
      <trkpt lat="44.0651" lon="6.49439">
        <ele>1496</ele>
        <time>2022-08-20T16:59:02Z</time>
      </trkpt>
      <trkpt lat="44.06513" lon="6.49442">
        <ele>1496.1999511719</ele>
        <time>2022-08-20T16:59:09Z</time>
      </trkpt>
      <trkpt lat="44.06514" lon="6.49442">
        <ele>1496</ele>
        <time>2022-08-20T16:59:12Z</time>
      </trkpt>
      <trkpt lat="44.06515" lon="6.49443">
        <ele>1496</ele>
        <time>2022-08-20T16:59:15Z</time>
      </trkpt>
      <trkpt lat="44.06515" lon="6.49443">
        <ele>1496.1999511719</ele>
        <time>2022-08-20T16:59:19Z</time>
      </trkpt>
      <trkpt lat="44.06515" lon="6.49443">
        <ele>1496.8000488281</ele>
        <time>2022-08-20T16:59:26Z</time>
      </trkpt>
      <trkpt lat="44.06514" lon="6.49443">
        <ele>1497.1999511719</ele>
        <time>2022-08-20T16:59:34Z</time>
      </trkpt>
      <trkpt lat="44.06514" lon="6.49443">
        <ele>1497.1999511719</ele>
        <time>2022-08-20T16:59:35Z</time>
      </trkpt>
      <trkpt lat="44.06515" lon="6.49443">
        <ele>1497.1999511719</ele>
        <time>2022-08-20T16:59:37Z</time>
      </trkpt>
      <trkpt lat="44.06514" lon="6.49443">
        <ele>1497.1999511719</ele>
        <time>2022-08-20T16:59:45Z</time>
      </trkpt>
      <trkpt lat="44.06514" lon="6.49443">
        <ele>1497.1999511719</ele>
        <time>2022-08-20T16:59:55Z</time>
      </trkpt>
      <trkpt lat="44.06514" lon="6.49443">
        <ele>1497.1999511719</ele>
        <time>2022-08-20T16:59:56Z</time>
      </trkpt>
      <trkpt lat="44.06514" lon="6.49442">
        <ele>1497.1999511719</ele>
        <time>2022-08-20T17:00:09Z</time>
      </trkpt>
      <trkpt lat="44.06518" lon="6.49439">
        <ele>1497.1999511719</ele>
        <time>2022-08-20T17:00:25Z</time>
      </trkpt>
      <trkpt lat="44.0652" lon="6.49439">
        <ele>1497.1999511719</ele>
        <time>2022-08-20T17:00:28Z</time>
      </trkpt>
      <trkpt lat="44.06521" lon="6.49439">
        <ele>1497.1999511719</ele>
        <time>2022-08-20T17:00:35Z</time>
      </trkpt>
      <trkpt lat="44.06521" lon="6.49439">
        <ele>1497.1999511719</ele>
        <time>2022-08-20T17:00:42Z</time>
      </trkpt>
      <trkpt lat="44.0652" lon="6.4944">
        <ele>1497.1999511719</ele>
        <time>2022-08-20T17:00:49Z</time>
      </trkpt>
      <trkpt lat="44.06519" lon="6.4944">
        <ele>1497.1999511719</ele>
        <time>2022-08-20T17:00:56Z</time>
      </trkpt>
      <trkpt lat="44.06519" lon="6.4944">
        <ele>1497.1999511719</ele>
        <time>2022-08-20T17:01:02Z</time>
      </trkpt>
      <trkpt lat="44.06517" lon="6.4944">
        <ele>1497.1999511719</ele>
        <time>2022-08-20T17:01:14Z</time>
      </trkpt>
      <trkpt lat="44.06517" lon="6.4944">
        <ele>1497.1999511719</ele>
        <time>2022-08-20T17:01:26Z</time>
      </trkpt>
      <trkpt lat="44.06517" lon="6.4944">
        <ele>1497.1999511719</ele>
        <time>2022-08-20T17:01:27Z</time>
      </trkpt>
      <trkpt lat="44.06517" lon="6.4944">
        <ele>1497.1999511719</ele>
        <time>2022-08-20T17:01:36Z</time>
      </trkpt>
      <trkpt lat="44.06517" lon="6.49439">
        <ele>1497.1999511719</ele>
        <time>2022-08-20T17:01:38Z</time>
      </trkpt>
      <trkpt lat="44.06517" lon="6.49442">
        <ele>1497.1999511719</ele>
        <time>2022-08-20T17:01:45Z</time>
      </trkpt>
      <trkpt lat="44.06516" lon="6.49441">
        <ele>1497.1999511719</ele>
        <time>2022-08-20T17:01:47Z</time>
      </trkpt>
      <trkpt lat="44.06515" lon="6.49441">
        <ele>1497.1999511719</ele>
        <time>2022-08-20T17:01:52Z</time>
      </trkpt>
      <trkpt lat="44.06515" lon="6.49441">
        <ele>1497.1999511719</ele>
        <time>2022-08-20T17:01:55Z</time>
      </trkpt>
      <trkpt lat="44.06515" lon="6.49441">
        <ele>1497.1999511719</ele>
        <time>2022-08-20T17:02:03Z</time>
      </trkpt>
      <trkpt lat="44.06515" lon="6.49441">
        <ele>1497.1999511719</ele>
        <time>2022-08-20T17:02:08Z</time>
      </trkpt>
      <trkpt lat="44.06515" lon="6.49441">
        <ele>1497.1999511719</ele>
        <time>2022-08-20T17:02:12Z</time>
      </trkpt>
      <trkpt lat="44.06513" lon="6.4945">
        <ele>1497.1999511719</ele>
        <time>2022-08-20T17:02:22Z</time>
      </trkpt>
      <trkpt lat="44.06513" lon="6.49454">
        <ele>1497.1999511719</ele>
        <time>2022-08-20T17:02:23Z</time>
      </trkpt>
      <trkpt lat="44.06513" lon="6.4948">
        <ele>1497.1999511719</ele>
        <time>2022-08-20T17:02:29Z</time>
      </trkpt>
      <trkpt lat="44.06513" lon="6.49495">
        <ele>1497.4000244141</ele>
        <time>2022-08-20T17:02:32Z</time>
      </trkpt>
      <trkpt lat="44.06512" lon="6.49514">
        <ele>1497.4000244141</ele>
        <time>2022-08-20T17:02:36Z</time>
      </trkpt>
      <trkpt lat="44.06506" lon="6.49535">
        <ele>1497.8000488281</ele>
        <time>2022-08-20T17:02:42Z</time>
      </trkpt>
      <trkpt lat="44.06505" lon="6.49537">
        <ele>1497.8000488281</ele>
        <time>2022-08-20T17:02:43Z</time>
      </trkpt>
      <trkpt lat="44.065" lon="6.49552">
        <ele>1497.8000488281</ele>
        <time>2022-08-20T17:02:48Z</time>
      </trkpt>
      <trkpt lat="44.06496" lon="6.4957">
        <ele>1497.8000488281</ele>
        <time>2022-08-20T17:02:54Z</time>
      </trkpt>
      <trkpt lat="44.06495" lon="6.49574">
        <ele>1497.8000488281</ele>
        <time>2022-08-20T17:02:55Z</time>
      </trkpt>
      <trkpt lat="44.06484" lon="6.49583">
        <ele>1496.5999755859</ele>
        <time>2022-08-20T17:02:59Z</time>
      </trkpt>
      <trkpt lat="44.0648" lon="6.49584">
        <ele>1496.4000244141</ele>
        <time>2022-08-20T17:03:00Z</time>
      </trkpt>
      <trkpt lat="44.06455" lon="6.49589">
        <ele>1495.5999755859</ele>
        <time>2022-08-20T17:03:07Z</time>
      </trkpt>
      <trkpt lat="44.06444" lon="6.49593">
        <ele>1495.1999511719</ele>
        <time>2022-08-20T17:03:10Z</time>
      </trkpt>
      <trkpt lat="44.06431" lon="6.49602">
        <ele>1494.8000488281</ele>
        <time>2022-08-20T17:03:14Z</time>
      </trkpt>
      <trkpt lat="44.06428" lon="6.49604">
        <ele>1494.5999755859</ele>
        <time>2022-08-20T17:03:15Z</time>
      </trkpt>
      <trkpt lat="44.06425" lon="6.49607">
        <ele>1494.4000244141</ele>
        <time>2022-08-20T17:03:16Z</time>
      </trkpt>
      <trkpt lat="44.06418" lon="6.49614">
        <ele>1494.1999511719</ele>
        <time>2022-08-20T17:03:18Z</time>
      </trkpt>
      <trkpt lat="44.06409" lon="6.49622">
        <ele>1493.8000488281</ele>
        <time>2022-08-20T17:03:20Z</time>
      </trkpt>
      <trkpt lat="44.06405" lon="6.49625">
        <ele>1493.4000244141</ele>
        <time>2022-08-20T17:03:21Z</time>
      </trkpt>
      <trkpt lat="44.06401" lon="6.4963">
        <ele>1492.8000488281</ele>
        <time>2022-08-20T17:03:22Z</time>
      </trkpt>
      <trkpt lat="44.06392" lon="6.4964">
        <ele>1492</ele>
        <time>2022-08-20T17:03:24Z</time>
      </trkpt>
      <trkpt lat="44.06383" lon="6.49653">
        <ele>1490.8000488281</ele>
        <time>2022-08-20T17:03:26Z</time>
      </trkpt>
      <trkpt lat="44.06379" lon="6.49661">
        <ele>1490.1999511719</ele>
        <time>2022-08-20T17:03:27Z</time>
      </trkpt>
      <trkpt lat="44.06371" lon="6.49676">
        <ele>1489.5999755859</ele>
        <time>2022-08-20T17:03:29Z</time>
      </trkpt>
      <trkpt lat="44.0636" lon="6.49696">
        <ele>1489</ele>
        <time>2022-08-20T17:03:32Z</time>
      </trkpt>
      <trkpt lat="44.06356" lon="6.497">
        <ele>1489</ele>
        <time>2022-08-20T17:03:33Z</time>
      </trkpt>
      <trkpt lat="44.06348" lon="6.49707">
        <ele>1489.1999511719</ele>
        <time>2022-08-20T17:03:35Z</time>
      </trkpt>
      <trkpt lat="44.0634" lon="6.49715">
        <ele>1490</ele>
        <time>2022-08-20T17:03:38Z</time>
      </trkpt>
      <trkpt lat="44.06337" lon="6.49718">
        <ele>1490.4000244141</ele>
        <time>2022-08-20T17:03:39Z</time>
      </trkpt>
      <trkpt lat="44.06335" lon="6.49721">
        <ele>1490.8000488281</ele>
        <time>2022-08-20T17:03:40Z</time>
      </trkpt>
      <trkpt lat="44.0633" lon="6.49733">
        <ele>1491.4000244141</ele>
        <time>2022-08-20T17:03:43Z</time>
      </trkpt>
      <trkpt lat="44.06327" lon="6.49742">
        <ele>1491.8000488281</ele>
        <time>2022-08-20T17:03:45Z</time>
      </trkpt>
      <trkpt lat="44.06325" lon="6.49746">
        <ele>1491.8000488281</ele>
        <time>2022-08-20T17:03:46Z</time>
      </trkpt>
      <trkpt lat="44.0632" lon="6.49765">
        <ele>1492.5999755859</ele>
        <time>2022-08-20T17:03:50Z</time>
      </trkpt>
      <trkpt lat="44.06317" lon="6.49774">
        <ele>1493</ele>
        <time>2022-08-20T17:03:52Z</time>
      </trkpt>
      <trkpt lat="44.06316" lon="6.49778">
        <ele>1493</ele>
        <time>2022-08-20T17:03:53Z</time>
      </trkpt>
      <trkpt lat="44.06312" lon="6.49786">
        <ele>1493.4000244141</ele>
        <time>2022-08-20T17:03:55Z</time>
      </trkpt>
      <trkpt lat="44.06306" lon="6.49804">
        <ele>1493.8000488281</ele>
        <time>2022-08-20T17:03:59Z</time>
      </trkpt>
      <trkpt lat="44.06303" lon="6.49819">
        <ele>1493.8000488281</ele>
        <time>2022-08-20T17:04:02Z</time>
      </trkpt>
      <trkpt lat="44.063" lon="6.49846">
        <ele>1494</ele>
        <time>2022-08-20T17:04:08Z</time>
      </trkpt>
      <trkpt lat="44.06299" lon="6.49855">
        <ele>1494</ele>
        <time>2022-08-20T17:04:10Z</time>
      </trkpt>
      <trkpt lat="44.06298" lon="6.49907">
        <ele>1494</ele>
        <time>2022-08-20T17:04:19Z</time>
      </trkpt>
      <trkpt lat="44.06302" lon="6.49932">
        <ele>1494</ele>
        <time>2022-08-20T17:04:23Z</time>
      </trkpt>
      <trkpt lat="44.06302" lon="6.49942">
        <ele>1494.1999511719</ele>
        <time>2022-08-20T17:04:25Z</time>
      </trkpt>
      <trkpt lat="44.06302" lon="6.49946">
        <ele>1494.4000244141</ele>
        <time>2022-08-20T17:04:26Z</time>
      </trkpt>
      <trkpt lat="44.06299" lon="6.49953">
        <ele>1495</ele>
        <time>2022-08-20T17:04:28Z</time>
      </trkpt>
      <trkpt lat="44.06296" lon="6.49962">
        <ele>1496.1999511719</ele>
        <time>2022-08-20T17:04:31Z</time>
      </trkpt>
      <trkpt lat="44.06291" lon="6.4997">
        <ele>1497.1999511719</ele>
        <time>2022-08-20T17:04:34Z</time>
      </trkpt>
      <trkpt lat="44.06289" lon="6.49972">
        <ele>1497.4000244141</ele>
        <time>2022-08-20T17:04:35Z</time>
      </trkpt>
      <trkpt lat="44.06286" lon="6.49977">
        <ele>1497.8000488281</ele>
        <time>2022-08-20T17:04:37Z</time>
      </trkpt>
      <trkpt lat="44.06281" lon="6.49983">
        <ele>1498</ele>
        <time>2022-08-20T17:04:40Z</time>
      </trkpt>
      <trkpt lat="44.06277" lon="6.49986">
        <ele>1498</ele>
        <time>2022-08-20T17:04:42Z</time>
      </trkpt>
      <trkpt lat="44.06265" lon="6.49996">
        <ele>1497</ele>
        <time>2022-08-20T17:04:47Z</time>
      </trkpt>
      <trkpt lat="44.06261" lon="6.49997">
        <ele>1496.5999755859</ele>
        <time>2022-08-20T17:04:49Z</time>
      </trkpt>
      <trkpt lat="44.06259" lon="6.49997">
        <ele>1496.1999511719</ele>
        <time>2022-08-20T17:04:50Z</time>
      </trkpt>
      <trkpt lat="44.06255" lon="6.49996">
        <ele>1495.5999755859</ele>
        <time>2022-08-20T17:04:53Z</time>
      </trkpt>
      <trkpt lat="44.06256" lon="6.49996">
        <ele>1495.1999511719</ele>
        <time>2022-08-20T17:04:55Z</time>
      </trkpt>
      <trkpt lat="44.06256" lon="6.49996">
        <ele>1495.1999511719</ele>
        <time>2022-08-20T17:04:56Z</time>
      </trkpt>
      <trkpt lat="44.06256" lon="6.49997">
        <ele>1495</ele>
        <time>2022-08-20T17:05:01Z</time>
      </trkpt>
      <trkpt lat="44.0626" lon="6.49988">
        <ele>1495.8000488281</ele>
        <time>2022-08-20T17:05:09Z</time>
      </trkpt>
      <trkpt lat="44.06261" lon="6.49987">
        <ele>1495.8000488281</ele>
        <time>2022-08-20T17:05:11Z</time>
      </trkpt>
      <trkpt lat="44.06261" lon="6.49986">
        <ele>1495.8000488281</ele>
        <time>2022-08-20T17:05:13Z</time>
      </trkpt>
      <trkpt lat="44.06262" lon="6.49984">
        <ele>1495.5999755859</ele>
        <time>2022-08-20T17:05:16Z</time>
      </trkpt>
      <trkpt lat="44.06262" lon="6.49983">
        <ele>1495.4000244141</ele>
        <time>2022-08-20T17:05:17Z</time>
      </trkpt>
      <trkpt lat="44.06266" lon="6.49981">
        <ele>1495.5999755859</ele>
        <time>2022-08-20T17:05:25Z</time>
      </trkpt>
      <trkpt lat="44.06267" lon="6.4998">
        <ele>1495.8000488281</ele>
        <time>2022-08-20T17:05:29Z</time>
      </trkpt>
      <trkpt lat="44.06264" lon="6.49983">
        <ele>1496.1999511719</ele>
        <time>2022-08-20T17:05:38Z</time>
      </trkpt>
      <trkpt lat="44.06264" lon="6.49984">
        <ele>1496.1999511719</ele>
        <time>2022-08-20T17:05:41Z</time>
      </trkpt>
      <trkpt lat="44.06262" lon="6.49984">
        <ele>1496.1999511719</ele>
        <time>2022-08-20T17:05:43Z</time>
      </trkpt>
      <trkpt lat="44.06261" lon="6.49983">
        <ele>1496</ele>
        <time>2022-08-20T17:05:45Z</time>
      </trkpt>
      <trkpt lat="44.06259" lon="6.49983">
        <ele>1495.8000488281</ele>
        <time>2022-08-20T17:05:47Z</time>
      </trkpt>
      <trkpt lat="44.06258" lon="6.49984">
        <ele>1496</ele>
        <time>2022-08-20T17:05:53Z</time>
      </trkpt>
      <trkpt lat="44.06258" lon="6.49984">
        <ele>1496</ele>
        <time>2022-08-20T17:05:55Z</time>
      </trkpt>
      <trkpt lat="44.06259" lon="6.49985">
        <ele>1496</ele>
        <time>2022-08-20T17:06:01Z</time>
      </trkpt>
      <trkpt lat="44.06259" lon="6.49985">
        <ele>1496</ele>
        <time>2022-08-20T17:06:05Z</time>
      </trkpt>
      <trkpt lat="44.06259" lon="6.49985">
        <ele>1496</ele>
        <time>2022-08-20T17:06:07Z</time>
      </trkpt>
      <trkpt lat="44.06259" lon="6.49985">
        <ele>1496</ele>
        <time>2022-08-20T17:06:13Z</time>
      </trkpt>
      <trkpt lat="44.06259" lon="6.49984">
        <ele>1496</ele>
        <time>2022-08-20T17:06:24Z</time>
      </trkpt>
      <trkpt lat="44.0626" lon="6.49982">
        <ele>1496</ele>
        <time>2022-08-20T17:06:33Z</time>
      </trkpt>
      <trkpt lat="44.0626" lon="6.49982">
        <ele>1496</ele>
        <time>2022-08-20T17:06:36Z</time>
      </trkpt>
      <trkpt lat="44.0626" lon="6.49982">
        <ele>1496.1999511719</ele>
        <time>2022-08-20T17:06:44Z</time>
      </trkpt>
      <trkpt lat="44.0626" lon="6.49983">
        <ele>1496.4000244141</ele>
        <time>2022-08-20T17:06:51Z</time>
      </trkpt>
      <trkpt lat="44.0626" lon="6.49983">
        <ele>1496.4000244141</ele>
        <time>2022-08-20T17:06:57Z</time>
      </trkpt>
      <trkpt lat="44.0626" lon="6.49983">
        <ele>1496.4000244141</ele>
        <time>2022-08-20T17:07:00Z</time>
      </trkpt>
      <trkpt lat="44.0626" lon="6.49983">
        <ele>1496.1999511719</ele>
        <time>2022-08-20T17:07:12Z</time>
      </trkpt>
      <trkpt lat="44.0626" lon="6.49983">
        <ele>1496.1999511719</ele>
        <time>2022-08-20T17:07:16Z</time>
      </trkpt>
      <trkpt lat="44.0626" lon="6.49983">
        <ele>1496.1999511719</ele>
        <time>2022-08-20T17:07:19Z</time>
      </trkpt>
      <trkpt lat="44.0626" lon="6.49983">
        <ele>1496.1999511719</ele>
        <time>2022-08-20T17:07:22Z</time>
      </trkpt>
      <trkpt lat="44.0626" lon="6.49983">
        <ele>1496.1999511719</ele>
        <time>2022-08-20T17:07:24Z</time>
      </trkpt>
      <trkpt lat="44.0626" lon="6.49982">
        <ele>1496.1999511719</ele>
        <time>2022-08-20T17:07:30Z</time>
      </trkpt>
      <trkpt lat="44.0626" lon="6.49982">
        <ele>1496.1999511719</ele>
        <time>2022-08-20T17:07:38Z</time>
      </trkpt>
      <trkpt lat="44.0626" lon="6.49984">
        <ele>1496.1999511719</ele>
        <time>2022-08-20T17:07:57Z</time>
      </trkpt>
      <trkpt lat="44.0626" lon="6.49988">
        <ele>1496.1999511719</ele>
        <time>2022-08-20T17:08:06Z</time>
      </trkpt>
      <trkpt lat="44.0626" lon="6.49989">
        <ele>1496.1999511719</ele>
        <time>2022-08-20T17:08:11Z</time>
      </trkpt>
      <trkpt lat="44.06259" lon="6.49989">
        <ele>1496.1999511719</ele>
        <time>2022-08-20T17:08:13Z</time>
      </trkpt>
      <trkpt lat="44.06253" lon="6.49996">
        <ele>1496.1999511719</ele>
        <time>2022-08-20T17:08:21Z</time>
      </trkpt>
      <trkpt lat="44.0625" lon="6.49996">
        <ele>1496.1999511719</ele>
        <time>2022-08-20T17:08:22Z</time>
      </trkpt>
      <trkpt lat="44.0624" lon="6.49995">
        <ele>1495.8000488281</ele>
        <time>2022-08-20T17:08:26Z</time>
      </trkpt>
      <trkpt lat="44.06234" lon="6.49995">
        <ele>1495</ele>
        <time>2022-08-20T17:08:28Z</time>
      </trkpt>
      <trkpt lat="44.06226" lon="6.49995">
        <ele>1493.8000488281</ele>
        <time>2022-08-20T17:08:31Z</time>
      </trkpt>
      <trkpt lat="44.06218" lon="6.5">
        <ele>1493.1999511719</ele>
        <time>2022-08-20T17:08:34Z</time>
      </trkpt>
      <trkpt lat="44.06212" lon="6.50004">
        <ele>1492.5999755859</ele>
        <time>2022-08-20T17:08:36Z</time>
      </trkpt>
      <trkpt lat="44.06205" lon="6.5001">
        <ele>1491.4000244141</ele>
        <time>2022-08-20T17:08:39Z</time>
      </trkpt>
      <trkpt lat="44.06197" lon="6.5002">
        <ele>1490.4000244141</ele>
        <time>2022-08-20T17:08:42Z</time>
      </trkpt>
      <trkpt lat="44.06194" lon="6.50025">
        <ele>1490</ele>
        <time>2022-08-20T17:08:43Z</time>
      </trkpt>
      <trkpt lat="44.06181" lon="6.50046">
        <ele>1488.5999755859</ele>
        <time>2022-08-20T17:08:47Z</time>
      </trkpt>
      <trkpt lat="44.06175" lon="6.50057">
        <ele>1488</ele>
        <time>2022-08-20T17:08:49Z</time>
      </trkpt>
      <trkpt lat="44.06168" lon="6.50069">
        <ele>1487.5999755859</ele>
        <time>2022-08-20T17:08:51Z</time>
      </trkpt>
      <trkpt lat="44.06153" lon="6.50098">
        <ele>1487</ele>
        <time>2022-08-20T17:08:56Z</time>
      </trkpt>
      <trkpt lat="44.0615" lon="6.50103">
        <ele>1486.8000488281</ele>
        <time>2022-08-20T17:08:57Z</time>
      </trkpt>
      <trkpt lat="44.06138" lon="6.50132">
        <ele>1486.8000488281</ele>
        <time>2022-08-20T17:09:02Z</time>
      </trkpt>
      <trkpt lat="44.06119" lon="6.50164">
        <ele>1486.4000244141</ele>
        <time>2022-08-20T17:09:08Z</time>
      </trkpt>
      <trkpt lat="44.06111" lon="6.50174">
        <ele>1486.4000244141</ele>
        <time>2022-08-20T17:09:10Z</time>
      </trkpt>
      <trkpt lat="44.06091" lon="6.50205">
        <ele>1485.8000488281</ele>
        <time>2022-08-20T17:09:16Z</time>
      </trkpt>
      <trkpt lat="44.06088" lon="6.50211">
        <ele>1485.8000488281</ele>
        <time>2022-08-20T17:09:17Z</time>
      </trkpt>
      <trkpt lat="44.06082" lon="6.50231">
        <ele>1485.5999755859</ele>
        <time>2022-08-20T17:09:20Z</time>
      </trkpt>
      <trkpt lat="44.0608" lon="6.50238">
        <ele>1485.5999755859</ele>
        <time>2022-08-20T17:09:21Z</time>
      </trkpt>
      <trkpt lat="44.06067" lon="6.50278">
        <ele>1485.8000488281</ele>
        <time>2022-08-20T17:09:27Z</time>
      </trkpt>
      <trkpt lat="44.06065" lon="6.50284">
        <ele>1485.8000488281</ele>
        <time>2022-08-20T17:09:28Z</time>
      </trkpt>
      <trkpt lat="44.0606" lon="6.50297">
        <ele>1486.1999511719</ele>
        <time>2022-08-20T17:09:30Z</time>
      </trkpt>
      <trkpt lat="44.06049" lon="6.5032">
        <ele>1486.8000488281</ele>
        <time>2022-08-20T17:09:34Z</time>
      </trkpt>
      <trkpt lat="44.06044" lon="6.50332">
        <ele>1486.8000488281</ele>
        <time>2022-08-20T17:09:36Z</time>
      </trkpt>
      <trkpt lat="44.0603" lon="6.50361">
        <ele>1487</ele>
        <time>2022-08-20T17:09:41Z</time>
      </trkpt>
      <trkpt lat="44.06023" lon="6.50373">
        <ele>1487</ele>
        <time>2022-08-20T17:09:43Z</time>
      </trkpt>
      <trkpt lat="44.06019" lon="6.50378">
        <ele>1487</ele>
        <time>2022-08-20T17:09:44Z</time>
      </trkpt>
      <trkpt lat="44.05992" lon="6.5041">
        <ele>1486</ele>
        <time>2022-08-20T17:09:51Z</time>
      </trkpt>
      <trkpt lat="44.05988" lon="6.50415">
        <ele>1486</ele>
        <time>2022-08-20T17:09:52Z</time>
      </trkpt>
      <trkpt lat="44.05964" lon="6.50457">
        <ele>1485.5999755859</ele>
        <time>2022-08-20T17:09:59Z</time>
      </trkpt>
      <trkpt lat="44.05959" lon="6.50472">
        <ele>1485.5999755859</ele>
        <time>2022-08-20T17:10:01Z</time>
      </trkpt>
      <trkpt lat="44.05956" lon="6.50486">
        <ele>1485.8000488281</ele>
        <time>2022-08-20T17:10:03Z</time>
      </trkpt>
      <trkpt lat="44.05954" lon="6.50494">
        <ele>1485.5999755859</ele>
        <time>2022-08-20T17:10:04Z</time>
      </trkpt>
      <trkpt lat="44.0595" lon="6.50508">
        <ele>1485.8000488281</ele>
        <time>2022-08-20T17:10:06Z</time>
      </trkpt>
      <trkpt lat="44.05944" lon="6.50521">
        <ele>1485.8000488281</ele>
        <time>2022-08-20T17:10:08Z</time>
      </trkpt>
      <trkpt lat="44.05941" lon="6.50526">
        <ele>1486</ele>
        <time>2022-08-20T17:10:09Z</time>
      </trkpt>
      <trkpt lat="44.05916" lon="6.50559">
        <ele>1486.1999511719</ele>
        <time>2022-08-20T17:10:16Z</time>
      </trkpt>
      <trkpt lat="44.05898" lon="6.50578">
        <ele>1486.5999755859</ele>
        <time>2022-08-20T17:10:21Z</time>
      </trkpt>
      <trkpt lat="44.05893" lon="6.50585">
        <ele>1487</ele>
        <time>2022-08-20T17:10:23Z</time>
      </trkpt>
      <trkpt lat="44.05881" lon="6.5062">
        <ele>1487.4000244141</ele>
        <time>2022-08-20T17:10:31Z</time>
      </trkpt>
      <trkpt lat="44.0588" lon="6.50624">
        <ele>1487.4000244141</ele>
        <time>2022-08-20T17:10:32Z</time>
      </trkpt>
      <trkpt lat="44.05872" lon="6.50652">
        <ele>1487.1999511719</ele>
        <time>2022-08-20T17:10:38Z</time>
      </trkpt>
      <trkpt lat="44.0587" lon="6.50661">
        <ele>1487</ele>
        <time>2022-08-20T17:10:40Z</time>
      </trkpt>
      <trkpt lat="44.05868" lon="6.50666">
        <ele>1486.8000488281</ele>
        <time>2022-08-20T17:10:41Z</time>
      </trkpt>
      <trkpt lat="44.05864" lon="6.50678">
        <ele>1486.4000244141</ele>
        <time>2022-08-20T17:10:44Z</time>
      </trkpt>
      <trkpt lat="44.0586" lon="6.50693">
        <ele>1485.8000488281</ele>
        <time>2022-08-20T17:10:48Z</time>
      </trkpt>
      <trkpt lat="44.05858" lon="6.507">
        <ele>1485</ele>
        <time>2022-08-20T17:10:50Z</time>
      </trkpt>
      <trkpt lat="44.05856" lon="6.50717">
        <ele>1484</ele>
        <time>2022-08-20T17:10:54Z</time>
      </trkpt>
      <trkpt lat="44.05854" lon="6.5073">
        <ele>1483.1999511719</ele>
        <time>2022-08-20T17:10:57Z</time>
      </trkpt>
      <trkpt lat="44.05853" lon="6.50734">
        <ele>1482.5999755859</ele>
        <time>2022-08-20T17:10:58Z</time>
      </trkpt>
      <trkpt lat="44.0585" lon="6.50746">
        <ele>1481.5999755859</ele>
        <time>2022-08-20T17:11:01Z</time>
      </trkpt>
      <trkpt lat="44.05845" lon="6.5076">
        <ele>1480.5999755859</ele>
        <time>2022-08-20T17:11:04Z</time>
      </trkpt>
      <trkpt lat="44.05844" lon="6.50764">
        <ele>1480.4000244141</ele>
        <time>2022-08-20T17:11:05Z</time>
      </trkpt>
      <trkpt lat="44.0584" lon="6.50775">
        <ele>1479.5999755859</ele>
        <time>2022-08-20T17:11:09Z</time>
      </trkpt>
      <trkpt lat="44.0584" lon="6.50778">
        <ele>1479.1999511719</ele>
        <time>2022-08-20T17:11:11Z</time>
      </trkpt>
      <trkpt lat="44.0584" lon="6.50783">
        <ele>1478.8000488281</ele>
        <time>2022-08-20T17:11:14Z</time>
      </trkpt>
      <trkpt lat="44.0584" lon="6.50785">
        <ele>1478.5999755859</ele>
        <time>2022-08-20T17:11:15Z</time>
      </trkpt>
      <trkpt lat="44.0584" lon="6.50787">
        <ele>1478.4000244141</ele>
        <time>2022-08-20T17:11:16Z</time>
      </trkpt>
      <trkpt lat="44.05837" lon="6.508">
        <ele>1477.4000244141</ele>
        <time>2022-08-20T17:11:22Z</time>
      </trkpt>
      <trkpt lat="44.05836" lon="6.50803">
        <ele>1477.1999511719</ele>
        <time>2022-08-20T17:11:23Z</time>
      </trkpt>
      <trkpt lat="44.05835" lon="6.50808">
        <ele>1476.4000244141</ele>
        <time>2022-08-20T17:11:25Z</time>
      </trkpt>
      <trkpt lat="44.05834" lon="6.50809">
        <ele>1476.1999511719</ele>
        <time>2022-08-20T17:11:26Z</time>
      </trkpt>
      <trkpt lat="44.05833" lon="6.50811">
        <ele>1475.4000244141</ele>
        <time>2022-08-20T17:11:29Z</time>
      </trkpt>
      <trkpt lat="44.05833" lon="6.50812">
        <ele>1475.1999511719</ele>
        <time>2022-08-20T17:11:31Z</time>
      </trkpt>
      <trkpt lat="44.05833" lon="6.50812">
        <ele>1475</ele>
        <time>2022-08-20T17:11:32Z</time>
      </trkpt>
      <trkpt lat="44.05828" lon="6.50823">
        <ele>1474</ele>
        <time>2022-08-20T17:11:38Z</time>
      </trkpt>
      <trkpt lat="44.05827" lon="6.50825">
        <ele>1473.8000488281</ele>
        <time>2022-08-20T17:11:39Z</time>
      </trkpt>
      <trkpt lat="44.05826" lon="6.50826">
        <ele>1473.5999755859</ele>
        <time>2022-08-20T17:11:40Z</time>
      </trkpt>
      <trkpt lat="44.05826" lon="6.50827">
        <ele>1473.4000244141</ele>
        <time>2022-08-20T17:11:41Z</time>
      </trkpt>
      <trkpt lat="44.05826" lon="6.50828">
        <ele>1473</ele>
        <time>2022-08-20T17:11:43Z</time>
      </trkpt>
      <trkpt lat="44.05826" lon="6.50828">
        <ele>1473</ele>
        <time>2022-08-20T17:11:44Z</time>
      </trkpt>
      <trkpt lat="44.05823" lon="6.50834">
        <ele>1472.4000244141</ele>
        <time>2022-08-20T17:11:50Z</time>
      </trkpt>
      <trkpt lat="44.05821" lon="6.50841">
        <ele>1471.8000488281</ele>
        <time>2022-08-20T17:11:54Z</time>
      </trkpt>
      <trkpt lat="44.05817" lon="6.5085">
        <ele>1471</ele>
        <time>2022-08-20T17:11:58Z</time>
      </trkpt>
      <trkpt lat="44.05816" lon="6.50854">
        <ele>1470.8000488281</ele>
        <time>2022-08-20T17:12:00Z</time>
      </trkpt>
      <trkpt lat="44.05811" lon="6.50868">
        <ele>1469.5999755859</ele>
        <time>2022-08-20T17:12:06Z</time>
      </trkpt>
      <trkpt lat="44.05809" lon="6.50875">
        <ele>1469</ele>
        <time>2022-08-20T17:12:09Z</time>
      </trkpt>
      <trkpt lat="44.05807" lon="6.5088">
        <ele>1468.5999755859</ele>
        <time>2022-08-20T17:12:11Z</time>
      </trkpt>
      <trkpt lat="44.05807" lon="6.50882">
        <ele>1468.1999511719</ele>
        <time>2022-08-20T17:12:12Z</time>
      </trkpt>
      <trkpt lat="44.05806" lon="6.50887">
        <ele>1468</ele>
        <time>2022-08-20T17:12:14Z</time>
      </trkpt>
      <trkpt lat="44.05805" lon="6.50896">
        <ele>1467.5999755859</ele>
        <time>2022-08-20T17:12:17Z</time>
      </trkpt>
      <trkpt lat="44.05804" lon="6.50899">
        <ele>1467.4000244141</ele>
        <time>2022-08-20T17:12:18Z</time>
      </trkpt>
      <trkpt lat="44.05807" lon="6.50907">
        <ele>1467</ele>
        <time>2022-08-20T17:12:21Z</time>
      </trkpt>
      <trkpt lat="44.05809" lon="6.50912">
        <ele>1466.5999755859</ele>
        <time>2022-08-20T17:12:23Z</time>
      </trkpt>
      <trkpt lat="44.0581" lon="6.50914">
        <ele>1466.4000244141</ele>
        <time>2022-08-20T17:12:24Z</time>
      </trkpt>
      <trkpt lat="44.05817" lon="6.50924">
        <ele>1465.4000244141</ele>
        <time>2022-08-20T17:12:28Z</time>
      </trkpt>
      <trkpt lat="44.05819" lon="6.50927">
        <ele>1465.1999511719</ele>
        <time>2022-08-20T17:12:29Z</time>
      </trkpt>
      <trkpt lat="44.05821" lon="6.50931">
        <ele>1464.5999755859</ele>
        <time>2022-08-20T17:12:31Z</time>
      </trkpt>
      <trkpt lat="44.05826" lon="6.5094">
        <ele>1464</ele>
        <time>2022-08-20T17:12:35Z</time>
      </trkpt>
      <trkpt lat="44.0583" lon="6.50944">
        <ele>1463.4000244141</ele>
        <time>2022-08-20T17:12:38Z</time>
      </trkpt>
      <trkpt lat="44.05837" lon="6.50951">
        <ele>1462.8000488281</ele>
        <time>2022-08-20T17:12:42Z</time>
      </trkpt>
      <trkpt lat="44.05843" lon="6.50956">
        <ele>1462.1999511719</ele>
        <time>2022-08-20T17:12:45Z</time>
      </trkpt>
      <trkpt lat="44.05847" lon="6.5096">
        <ele>1461.5999755859</ele>
        <time>2022-08-20T17:12:47Z</time>
      </trkpt>
      <trkpt lat="44.05854" lon="6.50965">
        <ele>1460.8000488281</ele>
        <time>2022-08-20T17:12:52Z</time>
      </trkpt>
      <trkpt lat="44.05855" lon="6.50965">
        <ele>1460.5999755859</ele>
        <time>2022-08-20T17:12:53Z</time>
      </trkpt>
      <trkpt lat="44.05856" lon="6.50965">
        <ele>1460.1999511719</ele>
        <time>2022-08-20T17:12:56Z</time>
      </trkpt>
      <trkpt lat="44.0586" lon="6.50967">
        <ele>1459.8000488281</ele>
        <time>2022-08-20T17:13:04Z</time>
      </trkpt>
      <trkpt lat="44.05864" lon="6.50971">
        <ele>1459.4000244141</ele>
        <time>2022-08-20T17:13:08Z</time>
      </trkpt>
      <trkpt lat="44.05872" lon="6.50975">
        <ele>1458.4000244141</ele>
        <time>2022-08-20T17:13:13Z</time>
      </trkpt>
      <trkpt lat="44.05874" lon="6.50977">
        <ele>1458.1999511719</ele>
        <time>2022-08-20T17:13:14Z</time>
      </trkpt>
      <trkpt lat="44.05882" lon="6.5098">
        <ele>1457.1999511719</ele>
        <time>2022-08-20T17:13:19Z</time>
      </trkpt>
      <trkpt lat="44.05885" lon="6.50983">
        <ele>1456.8000488281</ele>
        <time>2022-08-20T17:13:21Z</time>
      </trkpt>
      <trkpt lat="44.0589" lon="6.50988">
        <ele>1456</ele>
        <time>2022-08-20T17:13:24Z</time>
      </trkpt>
      <trkpt lat="44.05901" lon="6.50996">
        <ele>1454.8000488281</ele>
        <time>2022-08-20T17:13:28Z</time>
      </trkpt>
      <trkpt lat="44.05903" lon="6.50997">
        <ele>1454.4000244141</ele>
        <time>2022-08-20T17:13:29Z</time>
      </trkpt>
      <trkpt lat="44.0591" lon="6.51003">
        <ele>1453.5999755859</ele>
        <time>2022-08-20T17:13:32Z</time>
      </trkpt>
      <trkpt lat="44.05915" lon="6.51008">
        <ele>1452.5999755859</ele>
        <time>2022-08-20T17:13:35Z</time>
      </trkpt>
      <trkpt lat="44.05916" lon="6.5101">
        <ele>1452.4000244141</ele>
        <time>2022-08-20T17:13:36Z</time>
      </trkpt>
      <trkpt lat="44.05923" lon="6.5102">
        <ele>1451.1999511719</ele>
        <time>2022-08-20T17:13:41Z</time>
      </trkpt>
      <trkpt lat="44.05931" lon="6.5103">
        <ele>1450</ele>
        <time>2022-08-20T17:13:45Z</time>
      </trkpt>
      <trkpt lat="44.05938" lon="6.51038">
        <ele>1449</ele>
        <time>2022-08-20T17:13:48Z</time>
      </trkpt>
      <trkpt lat="44.05947" lon="6.51047">
        <ele>1448</ele>
        <time>2022-08-20T17:13:51Z</time>
      </trkpt>
      <trkpt lat="44.05949" lon="6.51049">
        <ele>1447.8000488281</ele>
        <time>2022-08-20T17:13:52Z</time>
      </trkpt>
      <trkpt lat="44.05954" lon="6.51052">
        <ele>1447.1999511719</ele>
        <time>2022-08-20T17:13:54Z</time>
      </trkpt>
      <trkpt lat="44.05961" lon="6.51059">
        <ele>1446.5999755859</ele>
        <time>2022-08-20T17:13:57Z</time>
      </trkpt>
      <trkpt lat="44.05969" lon="6.51065">
        <ele>1446</ele>
        <time>2022-08-20T17:14:00Z</time>
      </trkpt>
      <trkpt lat="44.05974" lon="6.51072">
        <ele>1445.5999755859</ele>
        <time>2022-08-20T17:14:02Z</time>
      </trkpt>
      <trkpt lat="44.05987" lon="6.51084">
        <ele>1444.4000244141</ele>
        <time>2022-08-20T17:14:06Z</time>
      </trkpt>
      <trkpt lat="44.06" lon="6.51099">
        <ele>1443.8000488281</ele>
        <time>2022-08-20T17:14:12Z</time>
      </trkpt>
      <trkpt lat="44.06012" lon="6.5111">
        <ele>1443.8000488281</ele>
        <time>2022-08-20T17:14:18Z</time>
      </trkpt>
      <trkpt lat="44.06013" lon="6.5111">
        <ele>1443.8000488281</ele>
        <time>2022-08-20T17:14:19Z</time>
      </trkpt>
      <trkpt lat="44.06013" lon="6.51111">
        <ele>1443.8000488281</ele>
        <time>2022-08-20T17:14:23Z</time>
      </trkpt>
      <trkpt lat="44.06015" lon="6.51113">
        <ele>1443.8000488281</ele>
        <time>2022-08-20T17:14:28Z</time>
      </trkpt>
      <trkpt lat="44.06022" lon="6.51119">
        <ele>1443.8000488281</ele>
        <time>2022-08-20T17:14:39Z</time>
      </trkpt>
      <trkpt lat="44.06024" lon="6.51123">
        <ele>1443.5999755859</ele>
        <time>2022-08-20T17:14:47Z</time>
      </trkpt>
      <trkpt lat="44.06031" lon="6.51132">
        <ele>1443.8000488281</ele>
        <time>2022-08-20T17:14:56Z</time>
      </trkpt>
      <trkpt lat="44.06032" lon="6.51134">
        <ele>1443.8000488281</ele>
        <time>2022-08-20T17:14:58Z</time>
      </trkpt>
      <trkpt lat="44.06032" lon="6.51134">
        <ele>1443.8000488281</ele>
        <time>2022-08-20T17:14:59Z</time>
      </trkpt>
      <trkpt lat="44.06042" lon="6.51146">
        <ele>1444.1999511719</ele>
        <time>2022-08-20T17:15:10Z</time>
      </trkpt>
      <trkpt lat="44.06042" lon="6.51147">
        <ele>1444.1999511719</ele>
        <time>2022-08-20T17:15:11Z</time>
      </trkpt>
      <trkpt lat="44.06044" lon="6.5115">
        <ele>1444.4000244141</ele>
        <time>2022-08-20T17:15:15Z</time>
      </trkpt>
      <trkpt lat="44.06042" lon="6.51153">
        <ele>1444.5999755859</ele>
        <time>2022-08-20T17:15:20Z</time>
      </trkpt>
      <trkpt lat="44.06046" lon="6.51165">
        <ele>1444.5999755859</ele>
        <time>2022-08-20T17:15:26Z</time>
      </trkpt>
      <trkpt lat="44.06048" lon="6.5117">
        <ele>1444.8000488281</ele>
        <time>2022-08-20T17:15:29Z</time>
      </trkpt>
      <trkpt lat="44.06049" lon="6.51176">
        <ele>1445</ele>
        <time>2022-08-20T17:15:33Z</time>
      </trkpt>
      <trkpt lat="44.0605" lon="6.51178">
        <ele>1445</ele>
        <time>2022-08-20T17:15:34Z</time>
      </trkpt>
      <trkpt lat="44.06053" lon="6.51182">
        <ele>1445.1999511719</ele>
        <time>2022-08-20T17:15:37Z</time>
      </trkpt>
      <trkpt lat="44.06055" lon="6.51183">
        <ele>1445.4000244141</ele>
        <time>2022-08-20T17:15:38Z</time>
      </trkpt>
      <trkpt lat="44.06056" lon="6.51193">
        <ele>1445.8000488281</ele>
        <time>2022-08-20T17:15:43Z</time>
      </trkpt>
      <trkpt lat="44.06056" lon="6.51194">
        <ele>1445.8000488281</ele>
        <time>2022-08-20T17:15:44Z</time>
      </trkpt>
      <trkpt lat="44.06047" lon="6.512">
        <ele>1446.1999511719</ele>
        <time>2022-08-20T17:15:48Z</time>
      </trkpt>
      <trkpt lat="44.06046" lon="6.512">
        <ele>1446.4000244141</ele>
        <time>2022-08-20T17:15:49Z</time>
      </trkpt>
      <trkpt lat="44.06044" lon="6.51199">
        <ele>1446.4000244141</ele>
        <time>2022-08-20T17:15:50Z</time>
      </trkpt>
      <trkpt lat="44.0604" lon="6.51197">
        <ele>1446.5999755859</ele>
        <time>2022-08-20T17:15:53Z</time>
      </trkpt>
      <trkpt lat="44.06037" lon="6.51193">
        <ele>1446.8000488281</ele>
        <time>2022-08-20T17:15:56Z</time>
      </trkpt>
      <trkpt lat="44.06034" lon="6.5119">
        <ele>1447.4000244141</ele>
        <time>2022-08-20T17:15:59Z</time>
      </trkpt>
      <trkpt lat="44.06033" lon="6.51189">
        <ele>1447.4000244141</ele>
        <time>2022-08-20T17:16:00Z</time>
      </trkpt>
      <trkpt lat="44.06024" lon="6.51182">
        <ele>1448.5999755859</ele>
        <time>2022-08-20T17:16:07Z</time>
      </trkpt>
      <trkpt lat="44.06022" lon="6.51181">
        <ele>1448.8000488281</ele>
        <time>2022-08-20T17:16:09Z</time>
      </trkpt>
      <trkpt lat="44.06014" lon="6.51175">
        <ele>1449.5999755859</ele>
        <time>2022-08-20T17:16:16Z</time>
      </trkpt>
      <trkpt lat="44.06005" lon="6.51171">
        <ele>1450.8000488281</ele>
        <time>2022-08-20T17:16:23Z</time>
      </trkpt>
      <trkpt lat="44.06003" lon="6.51171">
        <ele>1450.8000488281</ele>
        <time>2022-08-20T17:16:24Z</time>
      </trkpt>
      <trkpt lat="44.05992" lon="6.51165">
        <ele>1451.8000488281</ele>
        <time>2022-08-20T17:16:33Z</time>
      </trkpt>
      <trkpt lat="44.05985" lon="6.51162">
        <ele>1452.5999755859</ele>
        <time>2022-08-20T17:16:39Z</time>
      </trkpt>
      <trkpt lat="44.05982" lon="6.51162">
        <ele>1452.8000488281</ele>
        <time>2022-08-20T17:16:41Z</time>
      </trkpt>
      <trkpt lat="44.05977" lon="6.5116">
        <ele>1453.4000244141</ele>
        <time>2022-08-20T17:16:45Z</time>
      </trkpt>
      <trkpt lat="44.05975" lon="6.5116">
        <ele>1453.4000244141</ele>
        <time>2022-08-20T17:16:46Z</time>
      </trkpt>
      <trkpt lat="44.0597" lon="6.51161">
        <ele>1454</ele>
        <time>2022-08-20T17:16:50Z</time>
      </trkpt>
      <trkpt lat="44.05966" lon="6.51161">
        <ele>1454.1999511719</ele>
        <time>2022-08-20T17:16:53Z</time>
      </trkpt>
      <trkpt lat="44.05963" lon="6.5116">
        <ele>1454.8000488281</ele>
        <time>2022-08-20T17:16:59Z</time>
      </trkpt>
      <trkpt lat="44.05963" lon="6.5116">
        <ele>1455</ele>
        <time>2022-08-20T17:17:00Z</time>
      </trkpt>
      <trkpt lat="44.05963" lon="6.51161">
        <ele>1455</ele>
        <time>2022-08-20T17:17:01Z</time>
      </trkpt>
      <trkpt lat="44.05963" lon="6.51161">
        <ele>1454.8000488281</ele>
        <time>2022-08-20T17:17:05Z</time>
      </trkpt>
      <trkpt lat="44.05957" lon="6.51163">
        <ele>1455</ele>
        <time>2022-08-20T17:17:14Z</time>
      </trkpt>
      <trkpt lat="44.05952" lon="6.51164">
        <ele>1455.4000244141</ele>
        <time>2022-08-20T17:17:18Z</time>
      </trkpt>
      <trkpt lat="44.05951" lon="6.51164">
        <ele>1455.5999755859</ele>
        <time>2022-08-20T17:17:19Z</time>
      </trkpt>
      <trkpt lat="44.05945" lon="6.51164">
        <ele>1456</ele>
        <time>2022-08-20T17:17:23Z</time>
      </trkpt>
      <trkpt lat="44.05942" lon="6.51164">
        <ele>1456.4000244141</ele>
        <time>2022-08-20T17:17:25Z</time>
      </trkpt>
      <trkpt lat="44.05931" lon="6.51164">
        <ele>1457.1999511719</ele>
        <time>2022-08-20T17:17:32Z</time>
      </trkpt>
      <trkpt lat="44.05927" lon="6.51164">
        <ele>1457.5999755859</ele>
        <time>2022-08-20T17:17:35Z</time>
      </trkpt>
      <trkpt lat="44.05923" lon="6.51165">
        <ele>1458.4000244141</ele>
        <time>2022-08-20T17:17:39Z</time>
      </trkpt>
      <trkpt lat="44.0592" lon="6.51165">
        <ele>1458.5999755859</ele>
        <time>2022-08-20T17:17:41Z</time>
      </trkpt>
      <trkpt lat="44.05919" lon="6.51165">
        <ele>1458.8000488281</ele>
        <time>2022-08-20T17:17:42Z</time>
      </trkpt>
      <trkpt lat="44.05912" lon="6.51165">
        <ele>1459.1999511719</ele>
        <time>2022-08-20T17:17:47Z</time>
      </trkpt>
      <trkpt lat="44.05911" lon="6.51165">
        <ele>1459.4000244141</ele>
        <time>2022-08-20T17:17:48Z</time>
      </trkpt>
      <trkpt lat="44.0591" lon="6.51165">
        <ele>1459.5999755859</ele>
        <time>2022-08-20T17:17:49Z</time>
      </trkpt>
      <trkpt lat="44.05904" lon="6.51168">
        <ele>1460.4000244141</ele>
        <time>2022-08-20T17:17:54Z</time>
      </trkpt>
      <trkpt lat="44.05902" lon="6.51171">
        <ele>1460.8000488281</ele>
        <time>2022-08-20T17:17:57Z</time>
      </trkpt>
      <trkpt lat="44.05898" lon="6.51174">
        <ele>1461.4000244141</ele>
        <time>2022-08-20T17:18:01Z</time>
      </trkpt>
      <trkpt lat="44.05894" lon="6.51178">
        <ele>1462</ele>
        <time>2022-08-20T17:18:05Z</time>
      </trkpt>
      <trkpt lat="44.05889" lon="6.5118">
        <ele>1462.4000244141</ele>
        <time>2022-08-20T17:18:09Z</time>
      </trkpt>
      <trkpt lat="44.05888" lon="6.5118">
        <ele>1462.5999755859</ele>
        <time>2022-08-20T17:18:10Z</time>
      </trkpt>
      <trkpt lat="44.05886" lon="6.51182">
        <ele>1462.8000488281</ele>
        <time>2022-08-20T17:18:12Z</time>
      </trkpt>
      <trkpt lat="44.05883" lon="6.51184">
        <ele>1463.1999511719</ele>
        <time>2022-08-20T17:18:15Z</time>
      </trkpt>
      <trkpt lat="44.05879" lon="6.51187">
        <ele>1463.5999755859</ele>
        <time>2022-08-20T17:18:19Z</time>
      </trkpt>
      <trkpt lat="44.05878" lon="6.51189">
        <ele>1463.5999755859</ele>
        <time>2022-08-20T17:18:20Z</time>
      </trkpt>
      <trkpt lat="44.05872" lon="6.512">
        <ele>1464.5999755859</ele>
        <time>2022-08-20T17:18:28Z</time>
      </trkpt>
      <trkpt lat="44.0587" lon="6.51204">
        <ele>1465</ele>
        <time>2022-08-20T17:18:31Z</time>
      </trkpt>
      <trkpt lat="44.05868" lon="6.51212">
        <ele>1465.5999755859</ele>
        <time>2022-08-20T17:18:36Z</time>
      </trkpt>
      <trkpt lat="44.05866" lon="6.5122">
        <ele>1466.1999511719</ele>
        <time>2022-08-20T17:18:41Z</time>
      </trkpt>
      <trkpt lat="44.05865" lon="6.51228">
        <ele>1466.8000488281</ele>
        <time>2022-08-20T17:18:46Z</time>
      </trkpt>
      <trkpt lat="44.05864" lon="6.51235">
        <ele>1467.1999511719</ele>
        <time>2022-08-20T17:18:50Z</time>
      </trkpt>
      <trkpt lat="44.05864" lon="6.51244">
        <ele>1468</ele>
        <time>2022-08-20T17:18:55Z</time>
      </trkpt>
      <trkpt lat="44.05864" lon="6.51252">
        <ele>1468.4000244141</ele>
        <time>2022-08-20T17:19:00Z</time>
      </trkpt>
      <trkpt lat="44.05862" lon="6.5126">
        <ele>1469</ele>
        <time>2022-08-20T17:19:05Z</time>
      </trkpt>
      <trkpt lat="44.05861" lon="6.51265">
        <ele>1469.4000244141</ele>
        <time>2022-08-20T17:19:08Z</time>
      </trkpt>
      <trkpt lat="44.05859" lon="6.51282">
        <ele>1470</ele>
        <time>2022-08-20T17:19:16Z</time>
      </trkpt>
      <trkpt lat="44.05859" lon="6.51284">
        <ele>1470</ele>
        <time>2022-08-20T17:19:17Z</time>
      </trkpt>
      <trkpt lat="44.05856" lon="6.51299">
        <ele>1470.8000488281</ele>
        <time>2022-08-20T17:19:25Z</time>
      </trkpt>
      <trkpt lat="44.05854" lon="6.51307">
        <ele>1471.1999511719</ele>
        <time>2022-08-20T17:19:29Z</time>
      </trkpt>
      <trkpt lat="44.0585" lon="6.5132">
        <ele>1471.5999755859</ele>
        <time>2022-08-20T17:19:36Z</time>
      </trkpt>
      <trkpt lat="44.05847" lon="6.51336">
        <ele>1472</ele>
        <time>2022-08-20T17:19:43Z</time>
      </trkpt>
      <trkpt lat="44.05844" lon="6.51348">
        <ele>1472.1999511719</ele>
        <time>2022-08-20T17:19:48Z</time>
      </trkpt>
      <trkpt lat="44.05841" lon="6.51357">
        <ele>1472.1999511719</ele>
        <time>2022-08-20T17:19:51Z</time>
      </trkpt>
      <trkpt lat="44.05835" lon="6.51381">
        <ele>1472.5999755859</ele>
        <time>2022-08-20T17:19:59Z</time>
      </trkpt>
      <trkpt lat="44.05833" lon="6.51392">
        <ele>1473</ele>
        <time>2022-08-20T17:20:03Z</time>
      </trkpt>
      <trkpt lat="44.0583" lon="6.51402">
        <ele>1473.1999511719</ele>
        <time>2022-08-20T17:20:07Z</time>
      </trkpt>
      <trkpt lat="44.05829" lon="6.51407">
        <ele>1473.4000244141</ele>
        <time>2022-08-20T17:20:09Z</time>
      </trkpt>
      <trkpt lat="44.05825" lon="6.51424">
        <ele>1474.1999511719</ele>
        <time>2022-08-20T17:20:16Z</time>
      </trkpt>
      <trkpt lat="44.05823" lon="6.51431">
        <ele>1474.8000488281</ele>
        <time>2022-08-20T17:20:19Z</time>
      </trkpt>
      <trkpt lat="44.0582" lon="6.51439">
        <ele>1475.4000244141</ele>
        <time>2022-08-20T17:20:23Z</time>
      </trkpt>
      <trkpt lat="44.05817" lon="6.51445">
        <ele>1476</ele>
        <time>2022-08-20T17:20:26Z</time>
      </trkpt>
      <trkpt lat="44.05815" lon="6.51451">
        <ele>1476.4000244141</ele>
        <time>2022-08-20T17:20:29Z</time>
      </trkpt>
      <trkpt lat="44.05814" lon="6.51452">
        <ele>1476.5999755859</ele>
        <time>2022-08-20T17:20:30Z</time>
      </trkpt>
      <trkpt lat="44.05805" lon="6.51457">
        <ele>1477.4000244141</ele>
        <time>2022-08-20T17:20:36Z</time>
      </trkpt>
      <trkpt lat="44.05804" lon="6.51457">
        <ele>1477.4000244141</ele>
        <time>2022-08-20T17:20:37Z</time>
      </trkpt>
      <trkpt lat="44.05802" lon="6.51458">
        <ele>1477.5999755859</ele>
        <time>2022-08-20T17:20:38Z</time>
      </trkpt>
      <trkpt lat="44.05799" lon="6.51458">
        <ele>1478</ele>
        <time>2022-08-20T17:20:40Z</time>
      </trkpt>
      <trkpt lat="44.05794" lon="6.51457">
        <ele>1478.1999511719</ele>
        <time>2022-08-20T17:20:43Z</time>
      </trkpt>
      <trkpt lat="44.05787" lon="6.51455">
        <ele>1478.8000488281</ele>
        <time>2022-08-20T17:20:48Z</time>
      </trkpt>
      <trkpt lat="44.05782" lon="6.51454">
        <ele>1479</ele>
        <time>2022-08-20T17:20:51Z</time>
      </trkpt>
      <trkpt lat="44.05771" lon="6.5145">
        <ele>1479.4000244141</ele>
        <time>2022-08-20T17:20:59Z</time>
      </trkpt>
      <trkpt lat="44.0577" lon="6.51451">
        <ele>1479.4000244141</ele>
        <time>2022-08-20T17:21:00Z</time>
      </trkpt>
      <trkpt lat="44.05767" lon="6.51452">
        <ele>1479.4000244141</ele>
        <time>2022-08-20T17:21:02Z</time>
      </trkpt>
      <trkpt lat="44.05766" lon="6.5145">
        <ele>1479.4000244141</ele>
        <time>2022-08-20T17:21:03Z</time>
      </trkpt>
      <trkpt lat="44.0576" lon="6.51437">
        <ele>1479.5999755859</ele>
        <time>2022-08-20T17:21:09Z</time>
      </trkpt>
      <trkpt lat="44.05754" lon="6.51432">
        <ele>1479.8000488281</ele>
        <time>2022-08-20T17:21:13Z</time>
      </trkpt>
      <trkpt lat="44.05752" lon="6.5143">
        <ele>1480</ele>
        <time>2022-08-20T17:21:15Z</time>
      </trkpt>
      <trkpt lat="44.05744" lon="6.51425">
        <ele>1481</ele>
        <time>2022-08-20T17:21:21Z</time>
      </trkpt>
      <trkpt lat="44.05738" lon="6.5142">
        <ele>1481.5999755859</ele>
        <time>2022-08-20T17:21:25Z</time>
      </trkpt>
      <trkpt lat="44.05733" lon="6.51417">
        <ele>1482</ele>
        <time>2022-08-20T17:21:28Z</time>
      </trkpt>
      <trkpt lat="44.05722" lon="6.51412">
        <ele>1482.8000488281</ele>
        <time>2022-08-20T17:21:34Z</time>
      </trkpt>
      <trkpt lat="44.05719" lon="6.51409">
        <ele>1483</ele>
        <time>2022-08-20T17:21:36Z</time>
      </trkpt>
      <trkpt lat="44.05706" lon="6.51398">
        <ele>1483.5999755859</ele>
        <time>2022-08-20T17:21:43Z</time>
      </trkpt>
      <trkpt lat="44.05693" lon="6.5138">
        <ele>1484</ele>
        <time>2022-08-20T17:21:52Z</time>
      </trkpt>
      <trkpt lat="44.05692" lon="6.51378">
        <ele>1484.1999511719</ele>
        <time>2022-08-20T17:21:53Z</time>
      </trkpt>
      <trkpt lat="44.05685" lon="6.51366">
        <ele>1484.4000244141</ele>
        <time>2022-08-20T17:22:00Z</time>
      </trkpt>
      <trkpt lat="44.05679" lon="6.51357">
        <ele>1484.5999755859</ele>
        <time>2022-08-20T17:22:05Z</time>
      </trkpt>
      <trkpt lat="44.05672" lon="6.51346">
        <ele>1485</ele>
        <time>2022-08-20T17:22:10Z</time>
      </trkpt>
      <trkpt lat="44.05665" lon="6.51334">
        <ele>1485</ele>
        <time>2022-08-20T17:22:15Z</time>
      </trkpt>
      <trkpt lat="44.05662" lon="6.5133">
        <ele>1485.1999511719</ele>
        <time>2022-08-20T17:22:17Z</time>
      </trkpt>
      <trkpt lat="44.05659" lon="6.51326">
        <ele>1485.1999511719</ele>
        <time>2022-08-20T17:22:19Z</time>
      </trkpt>
      <trkpt lat="44.05648" lon="6.51312">
        <ele>1485.4000244141</ele>
        <time>2022-08-20T17:22:27Z</time>
      </trkpt>
      <trkpt lat="44.05634" lon="6.5129">
        <ele>1485.5999755859</ele>
        <time>2022-08-20T17:22:36Z</time>
      </trkpt>
      <trkpt lat="44.05625" lon="6.51271">
        <ele>1486</ele>
        <time>2022-08-20T17:22:43Z</time>
      </trkpt>
      <trkpt lat="44.05621" lon="6.51264">
        <ele>1486.1999511719</ele>
        <time>2022-08-20T17:22:46Z</time>
      </trkpt>
      <trkpt lat="44.05613" lon="6.51254">
        <ele>1486.4000244141</ele>
        <time>2022-08-20T17:22:51Z</time>
      </trkpt>
      <trkpt lat="44.05599" lon="6.51247">
        <ele>1486.8000488281</ele>
        <time>2022-08-20T17:22:58Z</time>
      </trkpt>
      <trkpt lat="44.05594" lon="6.51244">
        <ele>1487</ele>
        <time>2022-08-20T17:23:01Z</time>
      </trkpt>
      <trkpt lat="44.05592" lon="6.51244">
        <ele>1487.1999511719</ele>
        <time>2022-08-20T17:23:02Z</time>
      </trkpt>
      <trkpt lat="44.0558" lon="6.51237">
        <ele>1487.4000244141</ele>
        <time>2022-08-20T17:23:09Z</time>
      </trkpt>
      <trkpt lat="44.05566" lon="6.51228">
        <ele>1488.1999511719</ele>
        <time>2022-08-20T17:23:17Z</time>
      </trkpt>
      <trkpt lat="44.05557" lon="6.51222">
        <ele>1488.4000244141</ele>
        <time>2022-08-20T17:23:22Z</time>
      </trkpt>
      <trkpt lat="44.05546" lon="6.51215">
        <ele>1489.4000244141</ele>
        <time>2022-08-20T17:23:29Z</time>
      </trkpt>
      <trkpt lat="44.05535" lon="6.51213">
        <ele>1490</ele>
        <time>2022-08-20T17:23:36Z</time>
      </trkpt>
      <trkpt lat="44.0553" lon="6.51213">
        <ele>1490.4000244141</ele>
        <time>2022-08-20T17:23:39Z</time>
      </trkpt>
      <trkpt lat="44.05525" lon="6.51214">
        <ele>1490.8000488281</ele>
        <time>2022-08-20T17:23:42Z</time>
      </trkpt>
      <trkpt lat="44.05506" lon="6.51211">
        <ele>1491.4000244141</ele>
        <time>2022-08-20T17:23:52Z</time>
      </trkpt>
      <trkpt lat="44.05494" lon="6.51205">
        <ele>1491.8000488281</ele>
        <time>2022-08-20T17:23:59Z</time>
      </trkpt>
      <trkpt lat="44.05479" lon="6.51198">
        <ele>1492.4000244141</ele>
        <time>2022-08-20T17:24:07Z</time>
      </trkpt>
      <trkpt lat="44.05471" lon="6.51194">
        <ele>1492.4000244141</ele>
        <time>2022-08-20T17:24:11Z</time>
      </trkpt>
      <trkpt lat="44.05469" lon="6.51193">
        <ele>1492.4000244141</ele>
        <time>2022-08-20T17:24:12Z</time>
      </trkpt>
      <trkpt lat="44.05448" lon="6.51184">
        <ele>1492.8000488281</ele>
        <time>2022-08-20T17:24:23Z</time>
      </trkpt>
      <trkpt lat="44.05436" lon="6.51179">
        <ele>1493</ele>
        <time>2022-08-20T17:24:30Z</time>
      </trkpt>
      <trkpt lat="44.05422" lon="6.51175">
        <ele>1493.4000244141</ele>
        <time>2022-08-20T17:24:37Z</time>
      </trkpt>
      <trkpt lat="44.05418" lon="6.51174">
        <ele>1493.4000244141</ele>
        <time>2022-08-20T17:24:39Z</time>
      </trkpt>
      <trkpt lat="44.05399" lon="6.51168">
        <ele>1494.1999511719</ele>
        <time>2022-08-20T17:24:49Z</time>
      </trkpt>
      <trkpt lat="44.05389" lon="6.51165">
        <ele>1494.4000244141</ele>
        <time>2022-08-20T17:24:54Z</time>
      </trkpt>
      <trkpt lat="44.05381" lon="6.51164">
        <ele>1495</ele>
        <time>2022-08-20T17:24:58Z</time>
      </trkpt>
      <trkpt lat="44.05361" lon="6.51158">
        <ele>1495.4000244141</ele>
        <time>2022-08-20T17:25:08Z</time>
      </trkpt>
      <trkpt lat="44.05354" lon="6.51157">
        <ele>1495.8000488281</ele>
        <time>2022-08-20T17:25:11Z</time>
      </trkpt>
      <trkpt lat="44.05338" lon="6.51154">
        <ele>1496.5999755859</ele>
        <time>2022-08-20T17:25:19Z</time>
      </trkpt>
      <trkpt lat="44.05337" lon="6.51154">
        <ele>1496.5999755859</ele>
        <time>2022-08-20T17:25:20Z</time>
      </trkpt>
      <trkpt lat="44.05324" lon="6.51151">
        <ele>1496.8000488281</ele>
        <time>2022-08-20T17:25:27Z</time>
      </trkpt>
      <trkpt lat="44.05315" lon="6.51149">
        <ele>1497.5999755859</ele>
        <time>2022-08-20T17:25:32Z</time>
      </trkpt>
      <trkpt lat="44.05309" lon="6.51147">
        <ele>1498.1999511719</ele>
        <time>2022-08-20T17:25:36Z</time>
      </trkpt>
      <trkpt lat="44.053" lon="6.51144">
        <ele>1498.8000488281</ele>
        <time>2022-08-20T17:25:42Z</time>
      </trkpt>
      <trkpt lat="44.05298" lon="6.51144">
        <ele>1498.8000488281</ele>
        <time>2022-08-20T17:25:43Z</time>
      </trkpt>
      <trkpt lat="44.05277" lon="6.51146">
        <ele>1499.4000244141</ele>
        <time>2022-08-20T17:25:54Z</time>
      </trkpt>
      <trkpt lat="44.05261" lon="6.51153">
        <ele>1499.4000244141</ele>
        <time>2022-08-20T17:26:04Z</time>
      </trkpt>
      <trkpt lat="44.05258" lon="6.51155">
        <ele>1499.4000244141</ele>
        <time>2022-08-20T17:26:06Z</time>
      </trkpt>
      <trkpt lat="44.05245" lon="6.5116">
        <ele>1499.8000488281</ele>
        <time>2022-08-20T17:26:14Z</time>
      </trkpt>
      <trkpt lat="44.05228" lon="6.51162">
        <ele>1499.4000244141</ele>
        <time>2022-08-20T17:26:22Z</time>
      </trkpt>
      <trkpt lat="44.05222" lon="6.51163">
        <ele>1499.4000244141</ele>
        <time>2022-08-20T17:26:25Z</time>
      </trkpt>
      <trkpt lat="44.05215" lon="6.51164">
        <ele>1499.1999511719</ele>
        <time>2022-08-20T17:26:28Z</time>
      </trkpt>
      <trkpt lat="44.05199" lon="6.51168">
        <ele>1499.1999511719</ele>
        <time>2022-08-20T17:26:35Z</time>
      </trkpt>
      <trkpt lat="44.05176" lon="6.51174">
        <ele>1498.8000488281</ele>
        <time>2022-08-20T17:26:45Z</time>
      </trkpt>
      <trkpt lat="44.05166" lon="6.51176">
        <ele>1498.5999755859</ele>
        <time>2022-08-20T17:26:49Z</time>
      </trkpt>
      <trkpt lat="44.05156" lon="6.51179">
        <ele>1498.8000488281</ele>
        <time>2022-08-20T17:26:55Z</time>
      </trkpt>
      <trkpt lat="44.05138" lon="6.51182">
        <ele>1498.8000488281</ele>
        <time>2022-08-20T17:27:04Z</time>
      </trkpt>
      <trkpt lat="44.05118" lon="6.51185">
        <ele>1498.4000244141</ele>
        <time>2022-08-20T17:27:13Z</time>
      </trkpt>
      <trkpt lat="44.05115" lon="6.51185">
        <ele>1498.4000244141</ele>
        <time>2022-08-20T17:27:14Z</time>
      </trkpt>
      <trkpt lat="44.0509" lon="6.51184">
        <ele>1497.5999755859</ele>
        <time>2022-08-20T17:27:24Z</time>
      </trkpt>
      <trkpt lat="44.05065" lon="6.51184">
        <ele>1497.1999511719</ele>
        <time>2022-08-20T17:27:32Z</time>
      </trkpt>
      <trkpt lat="44.05039" lon="6.51192">
        <ele>1497.4000244141</ele>
        <time>2022-08-20T17:27:40Z</time>
      </trkpt>
      <trkpt lat="44.05024" lon="6.51195">
        <ele>1496.5999755859</ele>
        <time>2022-08-20T17:27:44Z</time>
      </trkpt>
      <trkpt lat="44.05017" lon="6.51194">
        <ele>1496.1999511719</ele>
        <time>2022-08-20T17:27:46Z</time>
      </trkpt>
      <trkpt lat="44.04992" lon="6.51183">
        <ele>1495.4000244141</ele>
        <time>2022-08-20T17:27:53Z</time>
      </trkpt>
      <trkpt lat="44.04989" lon="6.51182">
        <ele>1495.1999511719</ele>
        <time>2022-08-20T17:27:54Z</time>
      </trkpt>
      <trkpt lat="44.0497" lon="6.51175">
        <ele>1494.4000244141</ele>
        <time>2022-08-20T17:27:58Z</time>
      </trkpt>
      <trkpt lat="44.04954" lon="6.51166">
        <ele>1493.4000244141</ele>
        <time>2022-08-20T17:28:02Z</time>
      </trkpt>
      <trkpt lat="44.0495" lon="6.51164">
        <ele>1493.1999511719</ele>
        <time>2022-08-20T17:28:03Z</time>
      </trkpt>
      <trkpt lat="44.0493" lon="6.51154">
        <ele>1493</ele>
        <time>2022-08-20T17:28:08Z</time>
      </trkpt>
      <trkpt lat="44.04922" lon="6.51153">
        <ele>1492.8000488281</ele>
        <time>2022-08-20T17:28:10Z</time>
      </trkpt>
      <trkpt lat="44.04904" lon="6.51157">
        <ele>1492.1999511719</ele>
        <time>2022-08-20T17:28:14Z</time>
      </trkpt>
      <trkpt lat="44.04886" lon="6.51161">
        <ele>1491.8000488281</ele>
        <time>2022-08-20T17:28:18Z</time>
      </trkpt>
      <trkpt lat="44.04857" lon="6.51166">
        <ele>1491.1999511719</ele>
        <time>2022-08-20T17:28:25Z</time>
      </trkpt>
      <trkpt lat="44.04853" lon="6.51167">
        <ele>1491</ele>
        <time>2022-08-20T17:28:26Z</time>
      </trkpt>
      <trkpt lat="44.04835" lon="6.51171">
        <ele>1490</ele>
        <time>2022-08-20T17:28:30Z</time>
      </trkpt>
      <trkpt lat="44.04821" lon="6.51171">
        <ele>1489.5999755859</ele>
        <time>2022-08-20T17:28:33Z</time>
      </trkpt>
      <trkpt lat="44.04817" lon="6.51171">
        <ele>1489.5999755859</ele>
        <time>2022-08-20T17:28:34Z</time>
      </trkpt>
      <trkpt lat="44.04799" lon="6.51165">
        <ele>1490.4000244141</ele>
        <time>2022-08-20T17:28:41Z</time>
      </trkpt>
      <trkpt lat="44.04794" lon="6.51163">
        <ele>1490.5999755859</ele>
        <time>2022-08-20T17:28:43Z</time>
      </trkpt>
      <trkpt lat="44.04788" lon="6.51163">
        <ele>1491.1999511719</ele>
        <time>2022-08-20T17:28:46Z</time>
      </trkpt>
      <trkpt lat="44.04786" lon="6.51164">
        <ele>1491.4000244141</ele>
        <time>2022-08-20T17:28:47Z</time>
      </trkpt>
      <trkpt lat="44.04781" lon="6.51164">
        <ele>1492</ele>
        <time>2022-08-20T17:28:50Z</time>
      </trkpt>
      <trkpt lat="44.04778" lon="6.51164">
        <ele>1492.1999511719</ele>
        <time>2022-08-20T17:28:52Z</time>
      </trkpt>
      <trkpt lat="44.04775" lon="6.51165">
        <ele>1492.5999755859</ele>
        <time>2022-08-20T17:28:54Z</time>
      </trkpt>
      <trkpt lat="44.0477" lon="6.51166">
        <ele>1493.1999511719</ele>
        <time>2022-08-20T17:28:57Z</time>
      </trkpt>
      <trkpt lat="44.04769" lon="6.51166">
        <ele>1493.4000244141</ele>
        <time>2022-08-20T17:28:58Z</time>
      </trkpt>
      <trkpt lat="44.04761" lon="6.51165">
        <ele>1494.5999755859</ele>
        <time>2022-08-20T17:29:04Z</time>
      </trkpt>
      <trkpt lat="44.04758" lon="6.51165">
        <ele>1495</ele>
        <time>2022-08-20T17:29:06Z</time>
      </trkpt>
      <trkpt lat="44.04752" lon="6.51164">
        <ele>1495.8000488281</ele>
        <time>2022-08-20T17:29:12Z</time>
      </trkpt>
      <trkpt lat="44.04749" lon="6.51164">
        <ele>1496.4000244141</ele>
        <time>2022-08-20T17:29:14Z</time>
      </trkpt>
      <trkpt lat="44.04745" lon="6.51164">
        <ele>1497</ele>
        <time>2022-08-20T17:29:18Z</time>
      </trkpt>
      <trkpt lat="44.0474" lon="6.51166">
        <ele>1497.8000488281</ele>
        <time>2022-08-20T17:29:22Z</time>
      </trkpt>
      <trkpt lat="44.04738" lon="6.51167">
        <ele>1498</ele>
        <time>2022-08-20T17:29:24Z</time>
      </trkpt>
      <trkpt lat="44.0473" lon="6.51167">
        <ele>1499</ele>
        <time>2022-08-20T17:29:31Z</time>
      </trkpt>
      <trkpt lat="44.04729" lon="6.51167">
        <ele>1499</ele>
        <time>2022-08-20T17:29:32Z</time>
      </trkpt>
      <trkpt lat="44.04728" lon="6.51167">
        <ele>1499.1999511719</ele>
        <time>2022-08-20T17:29:33Z</time>
      </trkpt>
      <trkpt lat="44.04721" lon="6.51168">
        <ele>1500.1999511719</ele>
        <time>2022-08-20T17:29:39Z</time>
      </trkpt>
      <trkpt lat="44.0472" lon="6.51169">
        <ele>1500.4000244141</ele>
        <time>2022-08-20T17:29:40Z</time>
      </trkpt>
      <trkpt lat="44.04716" lon="6.51169">
        <ele>1501</ele>
        <time>2022-08-20T17:29:43Z</time>
      </trkpt>
      <trkpt lat="44.04711" lon="6.51168">
        <ele>1501.5999755859</ele>
        <time>2022-08-20T17:29:47Z</time>
      </trkpt>
      <trkpt lat="44.04703" lon="6.51168">
        <ele>1502.5999755859</ele>
        <time>2022-08-20T17:29:54Z</time>
      </trkpt>
      <trkpt lat="44.04702" lon="6.51168">
        <ele>1502.8000488281</ele>
        <time>2022-08-20T17:29:55Z</time>
      </trkpt>
      <trkpt lat="44.04699" lon="6.51169">
        <ele>1503.1999511719</ele>
        <time>2022-08-20T17:29:58Z</time>
      </trkpt>
      <trkpt lat="44.04695" lon="6.51169">
        <ele>1503.5999755859</ele>
        <time>2022-08-20T17:30:01Z</time>
      </trkpt>
      <trkpt lat="44.04693" lon="6.51169">
        <ele>1503.8000488281</ele>
        <time>2022-08-20T17:30:03Z</time>
      </trkpt>
      <trkpt lat="44.04683" lon="6.51172">
        <ele>1504.8000488281</ele>
        <time>2022-08-20T17:30:11Z</time>
      </trkpt>
      <trkpt lat="44.04682" lon="6.51172">
        <ele>1505</ele>
        <time>2022-08-20T17:30:12Z</time>
      </trkpt>
      <trkpt lat="44.04671" lon="6.51176">
        <ele>1505.8000488281</ele>
        <time>2022-08-20T17:30:21Z</time>
      </trkpt>
      <trkpt lat="44.0467" lon="6.51177">
        <ele>1506</ele>
        <time>2022-08-20T17:30:22Z</time>
      </trkpt>
      <trkpt lat="44.0466" lon="6.51181">
        <ele>1507.1999511719</ele>
        <time>2022-08-20T17:30:29Z</time>
      </trkpt>
      <trkpt lat="44.04658" lon="6.51181">
        <ele>1507.1999511719</ele>
        <time>2022-08-20T17:30:30Z</time>
      </trkpt>
      <trkpt lat="44.04651" lon="6.51183">
        <ele>1507.8000488281</ele>
        <time>2022-08-20T17:30:35Z</time>
      </trkpt>
      <trkpt lat="44.04643" lon="6.51184">
        <ele>1507.8000488281</ele>
        <time>2022-08-20T17:30:39Z</time>
      </trkpt>
      <trkpt lat="44.04631" lon="6.51186">
        <ele>1508</ele>
        <time>2022-08-20T17:30:47Z</time>
      </trkpt>
      <trkpt lat="44.04628" lon="6.51187">
        <ele>1508.1999511719</ele>
        <time>2022-08-20T17:30:50Z</time>
      </trkpt>
      <trkpt lat="44.04622" lon="6.51188">
        <ele>1508.4000244141</ele>
        <time>2022-08-20T17:30:56Z</time>
      </trkpt>
      <trkpt lat="44.0462" lon="6.51186">
        <ele>1508.5999755859</ele>
        <time>2022-08-20T17:30:58Z</time>
      </trkpt>
      <trkpt lat="44.04621" lon="6.51181">
        <ele>1508.8000488281</ele>
        <time>2022-08-20T17:31:01Z</time>
      </trkpt>
      <trkpt lat="44.0462" lon="6.5118">
        <ele>1508.8000488281</ele>
        <time>2022-08-20T17:31:03Z</time>
      </trkpt>
      <trkpt lat="44.04619" lon="6.51179">
        <ele>1508.8000488281</ele>
        <time>2022-08-20T17:31:04Z</time>
      </trkpt>
      <trkpt lat="44.04619" lon="6.51179">
        <ele>1508.8000488281</ele>
        <time>2022-08-20T17:31:07Z</time>
      </trkpt>
      <trkpt lat="44.04619" lon="6.51179">
        <ele>1508.8000488281</ele>
        <time>2022-08-20T17:31:12Z</time>
      </trkpt>
      <trkpt lat="44.0462" lon="6.51179">
        <ele>1508.8000488281</ele>
        <time>2022-08-20T17:31:17Z</time>
      </trkpt>
      <trkpt lat="44.0462" lon="6.51178">
        <ele>1508.8000488281</ele>
        <time>2022-08-20T17:31:24Z</time>
      </trkpt>
      <trkpt lat="44.0462" lon="6.51179">
        <ele>1507.8000488281</ele>
        <time>2022-08-20T17:31:40Z</time>
      </trkpt>
      <trkpt lat="44.04619" lon="6.51179">
        <ele>1507.8000488281</ele>
        <time>2022-08-20T17:31:49Z</time>
      </trkpt>
      <trkpt lat="44.04619" lon="6.51179">
        <ele>1507.8000488281</ele>
        <time>2022-08-20T17:31:55Z</time>
      </trkpt>
      <trkpt lat="44.04619" lon="6.51179">
        <ele>1507.4000244141</ele>
        <time>2022-08-20T17:32:04Z</time>
      </trkpt>
      <trkpt lat="44.04619" lon="6.51179">
        <ele>1507.4000244141</ele>
        <time>2022-08-20T17:32:09Z</time>
      </trkpt>
      <trkpt lat="44.04619" lon="6.51179">
        <ele>1507.4000244141</ele>
        <time>2022-08-20T17:32:12Z</time>
      </trkpt>
      <trkpt lat="44.04618" lon="6.5118">
        <ele>1507.4000244141</ele>
        <time>2022-08-20T17:32:22Z</time>
      </trkpt>
      <trkpt lat="44.04618" lon="6.5118">
        <ele>1507.1999511719</ele>
        <time>2022-08-20T17:32:27Z</time>
      </trkpt>
      <trkpt lat="44.04618" lon="6.5118">
        <ele>1507.1999511719</ele>
        <time>2022-08-20T17:32:28Z</time>
      </trkpt>
      <trkpt lat="44.04618" lon="6.51181">
        <ele>1507.1999511719</ele>
        <time>2022-08-20T17:32:42Z</time>
      </trkpt>
      <trkpt lat="44.04618" lon="6.51181">
        <ele>1507.1999511719</ele>
        <time>2022-08-20T17:32:44Z</time>
      </trkpt>
      <trkpt lat="44.04618" lon="6.51181">
        <ele>1507</ele>
        <time>2022-08-20T17:33:02Z</time>
      </trkpt>
      <trkpt lat="44.04619" lon="6.5118">
        <ele>1507.1999511719</ele>
        <time>2022-08-20T17:33:16Z</time>
      </trkpt>
      <trkpt lat="44.04619" lon="6.5118">
        <ele>1507.1999511719</ele>
        <time>2022-08-20T17:33:18Z</time>
      </trkpt>
      <trkpt lat="44.04619" lon="6.51179">
        <ele>1507.1999511719</ele>
        <time>2022-08-20T17:33:38Z</time>
      </trkpt>
      <trkpt lat="44.04619" lon="6.51179">
        <ele>1507.1999511719</ele>
        <time>2022-08-20T17:33:44Z</time>
      </trkpt>
      <trkpt lat="44.0462" lon="6.51179">
        <ele>1507.1999511719</ele>
        <time>2022-08-20T17:33:47Z</time>
      </trkpt>
      <trkpt lat="44.04619" lon="6.51178">
        <ele>1507.1999511719</ele>
        <time>2022-08-20T17:33:51Z</time>
      </trkpt>
      <trkpt lat="44.04611" lon="6.51175">
        <ele>1507.1999511719</ele>
        <time>2022-08-20T17:34:05Z</time>
      </trkpt>
      <trkpt lat="44.04594" lon="6.51168">
        <ele>1506.8000488281</ele>
        <time>2022-08-20T17:34:11Z</time>
      </trkpt>
      <trkpt lat="44.04571" lon="6.51167">
        <ele>1506.8000488281</ele>
        <time>2022-08-20T17:34:18Z</time>
      </trkpt>
      <trkpt lat="44.0456" lon="6.51173">
        <ele>1507.1999511719</ele>
        <time>2022-08-20T17:34:22Z</time>
      </trkpt>
      <trkpt lat="44.04554" lon="6.51178">
        <ele>1507.4000244141</ele>
        <time>2022-08-20T17:34:25Z</time>
      </trkpt>
      <trkpt lat="44.04531" lon="6.51202">
        <ele>1508.1999511719</ele>
        <time>2022-08-20T17:34:34Z</time>
      </trkpt>
      <trkpt lat="44.04528" lon="6.51204">
        <ele>1508.4000244141</ele>
        <time>2022-08-20T17:34:35Z</time>
      </trkpt>
      <trkpt lat="44.04516" lon="6.51212">
        <ele>1509.4000244141</ele>
        <time>2022-08-20T17:34:40Z</time>
      </trkpt>
      <trkpt lat="44.04514" lon="6.51213">
        <ele>1509.5999755859</ele>
        <time>2022-08-20T17:34:41Z</time>
      </trkpt>
      <trkpt lat="44.045" lon="6.51221">
        <ele>1510.4000244141</ele>
        <time>2022-08-20T17:34:47Z</time>
      </trkpt>
      <trkpt lat="44.04498" lon="6.51223">
        <ele>1510.4000244141</ele>
        <time>2022-08-20T17:34:48Z</time>
      </trkpt>
      <trkpt lat="44.04493" lon="6.51229">
        <ele>1510.5999755859</ele>
        <time>2022-08-20T17:34:51Z</time>
      </trkpt>
      <trkpt lat="44.04486" lon="6.51233">
        <ele>1511</ele>
        <time>2022-08-20T17:34:54Z</time>
      </trkpt>
      <trkpt lat="44.04463" lon="6.5125">
        <ele>1511.4000244141</ele>
        <time>2022-08-20T17:35:03Z</time>
      </trkpt>
      <trkpt lat="44.04462" lon="6.51252">
        <ele>1511.4000244141</ele>
        <time>2022-08-20T17:35:04Z</time>
      </trkpt>
      <trkpt lat="44.0445" lon="6.51259">
        <ele>1512.1999511719</ele>
        <time>2022-08-20T17:35:10Z</time>
      </trkpt>
      <trkpt lat="44.04442" lon="6.51266">
        <ele>1512</ele>
        <time>2022-08-20T17:35:16Z</time>
      </trkpt>
      <trkpt lat="44.04437" lon="6.51271">
        <ele>1511.8000488281</ele>
        <time>2022-08-20T17:35:21Z</time>
      </trkpt>
      <trkpt lat="44.04435" lon="6.51273">
        <ele>1511.5999755859</ele>
        <time>2022-08-20T17:35:23Z</time>
      </trkpt>
      <trkpt lat="44.04434" lon="6.51274">
        <ele>1511.5999755859</ele>
        <time>2022-08-20T17:35:24Z</time>
      </trkpt>
      <trkpt lat="44.04431" lon="6.51276">
        <ele>1511.1999511719</ele>
        <time>2022-08-20T17:35:27Z</time>
      </trkpt>
      <trkpt lat="44.04429" lon="6.51278">
        <ele>1511.1999511719</ele>
        <time>2022-08-20T17:35:29Z</time>
      </trkpt>
      <trkpt lat="44.04427" lon="6.5128">
        <ele>1511</ele>
        <time>2022-08-20T17:35:31Z</time>
      </trkpt>
      <trkpt lat="44.04424" lon="6.51284">
        <ele>1510.8000488281</ele>
        <time>2022-08-20T17:35:34Z</time>
      </trkpt>
      <trkpt lat="44.04421" lon="6.51286">
        <ele>1510.5999755859</ele>
        <time>2022-08-20T17:35:37Z</time>
      </trkpt>
      <trkpt lat="44.0442" lon="6.51288">
        <ele>1510.5999755859</ele>
        <time>2022-08-20T17:35:38Z</time>
      </trkpt>
      <trkpt lat="44.04419" lon="6.5129">
        <ele>1510.4000244141</ele>
        <time>2022-08-20T17:35:40Z</time>
      </trkpt>
      <trkpt lat="44.04413" lon="6.51298">
        <ele>1509.8000488281</ele>
        <time>2022-08-20T17:35:47Z</time>
      </trkpt>
      <trkpt lat="44.0441" lon="6.51304">
        <ele>1509.1999511719</ele>
        <time>2022-08-20T17:35:51Z</time>
      </trkpt>
      <trkpt lat="44.04408" lon="6.51305">
        <ele>1509</ele>
        <time>2022-08-20T17:35:53Z</time>
      </trkpt>
      <trkpt lat="44.04408" lon="6.51305">
        <ele>1508.8000488281</ele>
        <time>2022-08-20T17:35:55Z</time>
      </trkpt>
      <trkpt lat="44.04409" lon="6.51305">
        <ele>1508.8000488281</ele>
        <time>2022-08-20T17:35:59Z</time>
      </trkpt>
      <trkpt lat="44.04408" lon="6.51315">
        <ele>1508.1999511719</ele>
        <time>2022-08-20T17:36:08Z</time>
      </trkpt>
      <trkpt lat="44.04407" lon="6.51316">
        <ele>1508</ele>
        <time>2022-08-20T17:36:09Z</time>
      </trkpt>
      <trkpt lat="44.04407" lon="6.51318">
        <ele>1508</ele>
        <time>2022-08-20T17:36:10Z</time>
      </trkpt>
      <trkpt lat="44.04404" lon="6.51323">
        <ele>1507.1999511719</ele>
        <time>2022-08-20T17:36:15Z</time>
      </trkpt>
      <trkpt lat="44.04403" lon="6.51326">
        <ele>1506.8000488281</ele>
        <time>2022-08-20T17:36:17Z</time>
      </trkpt>
      <trkpt lat="44.04401" lon="6.5133">
        <ele>1506.4000244141</ele>
        <time>2022-08-20T17:36:21Z</time>
      </trkpt>
      <trkpt lat="44.04401" lon="6.51331">
        <ele>1506</ele>
        <time>2022-08-20T17:36:23Z</time>
      </trkpt>
      <trkpt lat="44.04401" lon="6.51332">
        <ele>1505.5999755859</ele>
        <time>2022-08-20T17:36:26Z</time>
      </trkpt>
      <trkpt lat="44.04395" lon="6.51343">
        <ele>1505</ele>
        <time>2022-08-20T17:36:31Z</time>
      </trkpt>
      <trkpt lat="44.04389" lon="6.51355">
        <ele>1504.1999511719</ele>
        <time>2022-08-20T17:36:34Z</time>
      </trkpt>
      <trkpt lat="44.04386" lon="6.51359">
        <ele>1503.8000488281</ele>
        <time>2022-08-20T17:36:35Z</time>
      </trkpt>
      <trkpt lat="44.04379" lon="6.51369">
        <ele>1502.4000244141</ele>
        <time>2022-08-20T17:36:38Z</time>
      </trkpt>
      <trkpt lat="44.04374" lon="6.51376">
        <ele>1502</ele>
        <time>2022-08-20T17:36:40Z</time>
      </trkpt>
      <trkpt lat="44.04356" lon="6.51391">
        <ele>1501.5999755859</ele>
        <time>2022-08-20T17:36:47Z</time>
      </trkpt>
      <trkpt lat="44.04353" lon="6.51392">
        <ele>1501.4000244141</ele>
        <time>2022-08-20T17:36:48Z</time>
      </trkpt>
      <trkpt lat="44.04342" lon="6.51398">
        <ele>1501.8000488281</ele>
        <time>2022-08-20T17:36:52Z</time>
      </trkpt>
      <trkpt lat="44.04337" lon="6.514">
        <ele>1502.8000488281</ele>
        <time>2022-08-20T17:36:55Z</time>
      </trkpt>
      <trkpt lat="44.04336" lon="6.51401">
        <ele>1503</ele>
        <time>2022-08-20T17:36:56Z</time>
      </trkpt>
      <trkpt lat="44.04328" lon="6.51404">
        <ele>1503.8000488281</ele>
        <time>2022-08-20T17:37:00Z</time>
      </trkpt>
      <trkpt lat="44.04323" lon="6.51406">
        <ele>1504</ele>
        <time>2022-08-20T17:37:03Z</time>
      </trkpt>
      <trkpt lat="44.04318" lon="6.51408">
        <ele>1504.5999755859</ele>
        <time>2022-08-20T17:37:06Z</time>
      </trkpt>
      <trkpt lat="44.04314" lon="6.51409">
        <ele>1504.8000488281</ele>
        <time>2022-08-20T17:37:08Z</time>
      </trkpt>
      <trkpt lat="44.04313" lon="6.5141">
        <ele>1504.8000488281</ele>
        <time>2022-08-20T17:37:09Z</time>
      </trkpt>
      <trkpt lat="44.04305" lon="6.51413">
        <ele>1505.5999755859</ele>
        <time>2022-08-20T17:37:14Z</time>
      </trkpt>
      <trkpt lat="44.04304" lon="6.51413">
        <ele>1505.8000488281</ele>
        <time>2022-08-20T17:37:15Z</time>
      </trkpt>
      <trkpt lat="44.04292" lon="6.51417">
        <ele>1506.5999755859</ele>
        <time>2022-08-20T17:37:23Z</time>
      </trkpt>
      <trkpt lat="44.04288" lon="6.51418">
        <ele>1507</ele>
        <time>2022-08-20T17:37:26Z</time>
      </trkpt>
      <trkpt lat="44.04285" lon="6.51419">
        <ele>1507.1999511719</ele>
        <time>2022-08-20T17:37:28Z</time>
      </trkpt>
      <trkpt lat="44.04279" lon="6.51421">
        <ele>1507.8000488281</ele>
        <time>2022-08-20T17:37:32Z</time>
      </trkpt>
      <trkpt lat="44.04276" lon="6.51422">
        <ele>1508</ele>
        <time>2022-08-20T17:37:34Z</time>
      </trkpt>
      <trkpt lat="44.04265" lon="6.51426">
        <ele>1509</ele>
        <time>2022-08-20T17:37:42Z</time>
      </trkpt>
      <trkpt lat="44.04263" lon="6.51427">
        <ele>1509.1999511719</ele>
        <time>2022-08-20T17:37:43Z</time>
      </trkpt>
      <trkpt lat="44.04252" lon="6.51431">
        <ele>1509.8000488281</ele>
        <time>2022-08-20T17:37:51Z</time>
      </trkpt>
      <trkpt lat="44.04245" lon="6.51433">
        <ele>1510.1999511719</ele>
        <time>2022-08-20T17:37:55Z</time>
      </trkpt>
      <trkpt lat="44.04237" lon="6.51433">
        <ele>1510.5999755859</ele>
        <time>2022-08-20T17:38:00Z</time>
      </trkpt>
      <trkpt lat="44.04226" lon="6.51433">
        <ele>1511.1999511719</ele>
        <time>2022-08-20T17:38:06Z</time>
      </trkpt>
      <trkpt lat="44.04215" lon="6.51434">
        <ele>1511.4000244141</ele>
        <time>2022-08-20T17:38:11Z</time>
      </trkpt>
      <trkpt lat="44.04195" lon="6.51435">
        <ele>1512.1999511719</ele>
        <time>2022-08-20T17:38:21Z</time>
      </trkpt>
      <trkpt lat="44.04193" lon="6.51435">
        <ele>1512.4000244141</ele>
        <time>2022-08-20T17:38:22Z</time>
      </trkpt>
      <trkpt lat="44.04173" lon="6.51439">
        <ele>1512.8000488281</ele>
        <time>2022-08-20T17:38:32Z</time>
      </trkpt>
      <trkpt lat="44.04164" lon="6.5144">
        <ele>1513.4000244141</ele>
        <time>2022-08-20T17:38:37Z</time>
      </trkpt>
      <trkpt lat="44.0416" lon="6.5144">
        <ele>1513.8000488281</ele>
        <time>2022-08-20T17:38:39Z</time>
      </trkpt>
      <trkpt lat="44.04158" lon="6.51439">
        <ele>1513.8000488281</ele>
        <time>2022-08-20T17:38:40Z</time>
      </trkpt>
      <trkpt lat="44.04144" lon="6.51436">
        <ele>1514.5999755859</ele>
        <time>2022-08-20T17:38:49Z</time>
      </trkpt>
      <trkpt lat="44.04131" lon="6.51428">
        <ele>1515.1999511719</ele>
        <time>2022-08-20T17:38:57Z</time>
      </trkpt>
      <trkpt lat="44.04122" lon="6.5142">
        <ele>1515.5999755859</ele>
        <time>2022-08-20T17:39:03Z</time>
      </trkpt>
      <trkpt lat="44.04117" lon="6.51414">
        <ele>1516</ele>
        <time>2022-08-20T17:39:07Z</time>
      </trkpt>
      <trkpt lat="44.04109" lon="6.51407">
        <ele>1516.5999755859</ele>
        <time>2022-08-20T17:39:13Z</time>
      </trkpt>
      <trkpt lat="44.04104" lon="6.51402">
        <ele>1517.1999511719</ele>
        <time>2022-08-20T17:39:17Z</time>
      </trkpt>
      <trkpt lat="44.041" lon="6.51397">
        <ele>1517.8000488281</ele>
        <time>2022-08-20T17:39:21Z</time>
      </trkpt>
      <trkpt lat="44.04098" lon="6.51393">
        <ele>1518.4000244141</ele>
        <time>2022-08-20T17:39:24Z</time>
      </trkpt>
      <trkpt lat="44.04094" lon="6.51389">
        <ele>1518.8000488281</ele>
        <time>2022-08-20T17:39:28Z</time>
      </trkpt>
      <trkpt lat="44.04088" lon="6.51382">
        <ele>1519.8000488281</ele>
        <time>2022-08-20T17:39:35Z</time>
      </trkpt>
      <trkpt lat="44.04086" lon="6.5138">
        <ele>1520</ele>
        <time>2022-08-20T17:39:37Z</time>
      </trkpt>
      <trkpt lat="44.0408" lon="6.51373">
        <ele>1521</ele>
        <time>2022-08-20T17:39:44Z</time>
      </trkpt>
      <trkpt lat="44.04071" lon="6.51368">
        <ele>1522.1999511719</ele>
        <time>2022-08-20T17:39:52Z</time>
      </trkpt>
      <trkpt lat="44.04066" lon="6.51368">
        <ele>1522.8000488281</ele>
        <time>2022-08-20T17:39:56Z</time>
      </trkpt>
      <trkpt lat="44.04063" lon="6.51369">
        <ele>1523.1999511719</ele>
        <time>2022-08-20T17:39:58Z</time>
      </trkpt>
      <trkpt lat="44.04054" lon="6.5137">
        <ele>1524.1999511719</ele>
        <time>2022-08-20T17:40:06Z</time>
      </trkpt>
      <trkpt lat="44.04051" lon="6.51371">
        <ele>1524.5999755859</ele>
        <time>2022-08-20T17:40:09Z</time>
      </trkpt>
      <trkpt lat="44.04045" lon="6.51373">
        <ele>1525.1999511719</ele>
        <time>2022-08-20T17:40:14Z</time>
      </trkpt>
      <trkpt lat="44.04044" lon="6.51373">
        <ele>1525.4000244141</ele>
        <time>2022-08-20T17:40:15Z</time>
      </trkpt>
      <trkpt lat="44.04036" lon="6.51377">
        <ele>1526.4000244141</ele>
        <time>2022-08-20T17:40:23Z</time>
      </trkpt>
      <trkpt lat="44.04034" lon="6.51378">
        <ele>1526.5999755859</ele>
        <time>2022-08-20T17:40:25Z</time>
      </trkpt>
      <trkpt lat="44.04024" lon="6.51383">
        <ele>1527.1999511719</ele>
        <time>2022-08-20T17:40:33Z</time>
      </trkpt>
      <trkpt lat="44.04023" lon="6.51383">
        <ele>1527.4000244141</ele>
        <time>2022-08-20T17:40:34Z</time>
      </trkpt>
      <trkpt lat="44.04013" lon="6.51382">
        <ele>1528.4000244141</ele>
        <time>2022-08-20T17:40:43Z</time>
      </trkpt>
      <trkpt lat="44.04012" lon="6.51382">
        <ele>1528.5999755859</ele>
        <time>2022-08-20T17:40:44Z</time>
      </trkpt>
      <trkpt lat="44.04001" lon="6.5138">
        <ele>1529.4000244141</ele>
        <time>2022-08-20T17:40:52Z</time>
      </trkpt>
      <trkpt lat="44.03999" lon="6.51377">
        <ele>1529.8000488281</ele>
        <time>2022-08-20T17:40:54Z</time>
      </trkpt>
      <trkpt lat="44.03994" lon="6.51371">
        <ele>1530.8000488281</ele>
        <time>2022-08-20T17:40:59Z</time>
      </trkpt>
      <trkpt lat="44.03994" lon="6.5137">
        <ele>1531</ele>
        <time>2022-08-20T17:41:00Z</time>
      </trkpt>
      <trkpt lat="44.03991" lon="6.51364">
        <ele>1531.8000488281</ele>
        <time>2022-08-20T17:41:04Z</time>
      </trkpt>
      <trkpt lat="44.0399" lon="6.51356">
        <ele>1532.5999755859</ele>
        <time>2022-08-20T17:41:09Z</time>
      </trkpt>
      <trkpt lat="44.0399" lon="6.51356">
        <ele>1533</ele>
        <time>2022-08-20T17:41:11Z</time>
      </trkpt>
      <trkpt lat="44.03991" lon="6.51356">
        <ele>1533.1999511719</ele>
        <time>2022-08-20T17:41:13Z</time>
      </trkpt>
      <trkpt lat="44.03991" lon="6.51356">
        <ele>1533.4000244141</ele>
        <time>2022-08-20T17:41:17Z</time>
      </trkpt>
      <trkpt lat="44.0399" lon="6.51344">
        <ele>1533.5999755859</ele>
        <time>2022-08-20T17:41:25Z</time>
      </trkpt>
      <trkpt lat="44.03991" lon="6.5134">
        <ele>1534</ele>
        <time>2022-08-20T17:41:27Z</time>
      </trkpt>
      <trkpt lat="44.03991" lon="6.51327">
        <ele>1535</ele>
        <time>2022-08-20T17:41:35Z</time>
      </trkpt>
      <trkpt lat="44.03991" lon="6.51326">
        <ele>1535.1999511719</ele>
        <time>2022-08-20T17:41:36Z</time>
      </trkpt>
      <trkpt lat="44.03991" lon="6.51317">
        <ele>1535.8000488281</ele>
        <time>2022-08-20T17:41:41Z</time>
      </trkpt>
      <trkpt lat="44.0399" lon="6.51314">
        <ele>1536</ele>
        <time>2022-08-20T17:41:43Z</time>
      </trkpt>
      <trkpt lat="44.0399" lon="6.51312">
        <ele>1536.1999511719</ele>
        <time>2022-08-20T17:41:44Z</time>
      </trkpt>
      <trkpt lat="44.03991" lon="6.51299">
        <ele>1537</ele>
        <time>2022-08-20T17:41:52Z</time>
      </trkpt>
      <trkpt lat="44.03991" lon="6.51296">
        <ele>1537.1999511719</ele>
        <time>2022-08-20T17:41:54Z</time>
      </trkpt>
      <trkpt lat="44.03988" lon="6.51285">
        <ele>1537.8000488281</ele>
        <time>2022-08-20T17:42:00Z</time>
      </trkpt>
      <trkpt lat="44.03987" lon="6.51279">
        <ele>1538.1999511719</ele>
        <time>2022-08-20T17:42:04Z</time>
      </trkpt>
      <trkpt lat="44.03984" lon="6.51269">
        <ele>1539</ele>
        <time>2022-08-20T17:42:10Z</time>
      </trkpt>
      <trkpt lat="44.03982" lon="6.51264">
        <ele>1539.1999511719</ele>
        <time>2022-08-20T17:42:13Z</time>
      </trkpt>
      <trkpt lat="44.03978" lon="6.51253">
        <ele>1540.1999511719</ele>
        <time>2022-08-20T17:42:20Z</time>
      </trkpt>
      <trkpt lat="44.03976" lon="6.5125">
        <ele>1540.4000244141</ele>
        <time>2022-08-20T17:42:22Z</time>
      </trkpt>
      <trkpt lat="44.03972" lon="6.5124">
        <ele>1541</ele>
        <time>2022-08-20T17:42:28Z</time>
      </trkpt>
      <trkpt lat="44.0397" lon="6.51234">
        <ele>1541.4000244141</ele>
        <time>2022-08-20T17:42:32Z</time>
      </trkpt>
      <trkpt lat="44.03966" lon="6.51226">
        <ele>1542</ele>
        <time>2022-08-20T17:42:37Z</time>
      </trkpt>
      <trkpt lat="44.03963" lon="6.5122">
        <ele>1542.4000244141</ele>
        <time>2022-08-20T17:42:41Z</time>
      </trkpt>
      <trkpt lat="44.03959" lon="6.51213">
        <ele>1543.1999511719</ele>
        <time>2022-08-20T17:42:47Z</time>
      </trkpt>
      <trkpt lat="44.03957" lon="6.5121">
        <ele>1543.5999755859</ele>
        <time>2022-08-20T17:42:49Z</time>
      </trkpt>
      <trkpt lat="44.03951" lon="6.51203">
        <ele>1544.5999755859</ele>
        <time>2022-08-20T17:42:56Z</time>
      </trkpt>
      <trkpt lat="44.03944" lon="6.51197">
        <ele>1545.4000244141</ele>
        <time>2022-08-20T17:43:04Z</time>
      </trkpt>
      <trkpt lat="44.03938" lon="6.51192">
        <ele>1545.5999755859</ele>
        <time>2022-08-20T17:43:09Z</time>
      </trkpt>
      <trkpt lat="44.03936" lon="6.5119">
        <ele>1546</ele>
        <time>2022-08-20T17:43:11Z</time>
      </trkpt>
      <trkpt lat="44.03932" lon="6.51185">
        <ele>1546.8000488281</ele>
        <time>2022-08-20T17:43:16Z</time>
      </trkpt>
      <trkpt lat="44.03927" lon="6.51181">
        <ele>1547.8000488281</ele>
        <time>2022-08-20T17:43:21Z</time>
      </trkpt>
      <trkpt lat="44.03926" lon="6.5118">
        <ele>1547.8000488281</ele>
        <time>2022-08-20T17:43:22Z</time>
      </trkpt>
      <trkpt lat="44.03924" lon="6.51179">
        <ele>1548.1999511719</ele>
        <time>2022-08-20T17:43:24Z</time>
      </trkpt>
      <trkpt lat="44.03918" lon="6.51174">
        <ele>1549</ele>
        <time>2022-08-20T17:43:30Z</time>
      </trkpt>
      <trkpt lat="44.03917" lon="6.51174">
        <ele>1549</ele>
        <time>2022-08-20T17:43:31Z</time>
      </trkpt>
      <trkpt lat="44.0391" lon="6.51171">
        <ele>1550</ele>
        <time>2022-08-20T17:43:37Z</time>
      </trkpt>
      <trkpt lat="44.03908" lon="6.5117">
        <ele>1550.4000244141</ele>
        <time>2022-08-20T17:43:39Z</time>
      </trkpt>
      <trkpt lat="44.03902" lon="6.51169">
        <ele>1551</ele>
        <time>2022-08-20T17:43:44Z</time>
      </trkpt>
      <trkpt lat="44.03898" lon="6.5117">
        <ele>1551.8000488281</ele>
        <time>2022-08-20T17:43:47Z</time>
      </trkpt>
      <trkpt lat="44.03896" lon="6.51171">
        <ele>1552</ele>
        <time>2022-08-20T17:43:49Z</time>
      </trkpt>
      <trkpt lat="44.0389" lon="6.51174">
        <ele>1552.5999755859</ele>
        <time>2022-08-20T17:43:54Z</time>
      </trkpt>
      <trkpt lat="44.03886" lon="6.51179">
        <ele>1553.1999511719</ele>
        <time>2022-08-20T17:43:58Z</time>
      </trkpt>
      <trkpt lat="44.03877" lon="6.51189">
        <ele>1554</ele>
        <time>2022-08-20T17:44:06Z</time>
      </trkpt>
      <trkpt lat="44.03876" lon="6.51192">
        <ele>1554.1999511719</ele>
        <time>2022-08-20T17:44:08Z</time>
      </trkpt>
      <trkpt lat="44.03871" lon="6.51198">
        <ele>1554.8000488281</ele>
        <time>2022-08-20T17:44:13Z</time>
      </trkpt>
      <trkpt lat="44.03867" lon="6.51205">
        <ele>1555.4000244141</ele>
        <time>2022-08-20T17:44:18Z</time>
      </trkpt>
      <trkpt lat="44.03865" lon="6.51208">
        <ele>1555.5999755859</ele>
        <time>2022-08-20T17:44:20Z</time>
      </trkpt>
      <trkpt lat="44.0386" lon="6.51214">
        <ele>1556.4000244141</ele>
        <time>2022-08-20T17:44:26Z</time>
      </trkpt>
      <trkpt lat="44.0386" lon="6.51215">
        <ele>1556.4000244141</ele>
        <time>2022-08-20T17:44:27Z</time>
      </trkpt>
      <trkpt lat="44.03853" lon="6.51226">
        <ele>1557.4000244141</ele>
        <time>2022-08-20T17:44:36Z</time>
      </trkpt>
      <trkpt lat="44.03852" lon="6.51227">
        <ele>1557.5999755859</ele>
        <time>2022-08-20T17:44:37Z</time>
      </trkpt>
      <trkpt lat="44.03844" lon="6.51238">
        <ele>1558.1999511719</ele>
        <time>2022-08-20T17:44:46Z</time>
      </trkpt>
      <trkpt lat="44.0384" lon="6.51244">
        <ele>1558.4000244141</ele>
        <time>2022-08-20T17:44:50Z</time>
      </trkpt>
      <trkpt lat="44.03838" lon="6.51245">
        <ele>1558.4000244141</ele>
        <time>2022-08-20T17:44:51Z</time>
      </trkpt>
      <trkpt lat="44.03836" lon="6.51249">
        <ele>1559</ele>
        <time>2022-08-20T17:44:54Z</time>
      </trkpt>
      <trkpt lat="44.03834" lon="6.51251">
        <ele>1559.5999755859</ele>
        <time>2022-08-20T17:44:56Z</time>
      </trkpt>
      <trkpt lat="44.03827" lon="6.51259">
        <ele>1560.1999511719</ele>
        <time>2022-08-20T17:45:02Z</time>
      </trkpt>
      <trkpt lat="44.03824" lon="6.51265">
        <ele>1560.5999755859</ele>
        <time>2022-08-20T17:45:05Z</time>
      </trkpt>
      <trkpt lat="44.0382" lon="6.5127">
        <ele>1561.4000244141</ele>
        <time>2022-08-20T17:45:10Z</time>
      </trkpt>
      <trkpt lat="44.0382" lon="6.51272">
        <ele>1561.4000244141</ele>
        <time>2022-08-20T17:45:11Z</time>
      </trkpt>
      <trkpt lat="44.03819" lon="6.51276">
        <ele>1561.5999755859</ele>
        <time>2022-08-20T17:45:13Z</time>
      </trkpt>
      <trkpt lat="44.03813" lon="6.5129">
        <ele>1562.4000244141</ele>
        <time>2022-08-20T17:45:21Z</time>
      </trkpt>
      <trkpt lat="44.03812" lon="6.51294">
        <ele>1562.8000488281</ele>
        <time>2022-08-20T17:45:23Z</time>
      </trkpt>
      <trkpt lat="44.03806" lon="6.51308">
        <ele>1563.5999755859</ele>
        <time>2022-08-20T17:45:31Z</time>
      </trkpt>
      <trkpt lat="44.03803" lon="6.51314">
        <ele>1563.8000488281</ele>
        <time>2022-08-20T17:45:34Z</time>
      </trkpt>
      <trkpt lat="44.03797" lon="6.51331">
        <ele>1564.5999755859</ele>
        <time>2022-08-20T17:45:43Z</time>
      </trkpt>
      <trkpt lat="44.03795" lon="6.51334">
        <ele>1564.8000488281</ele>
        <time>2022-08-20T17:45:45Z</time>
      </trkpt>
      <trkpt lat="44.03792" lon="6.51347">
        <ele>1565.5999755859</ele>
        <time>2022-08-20T17:45:52Z</time>
      </trkpt>
      <trkpt lat="44.0379" lon="6.51353">
        <ele>1566</ele>
        <time>2022-08-20T17:45:56Z</time>
      </trkpt>
      <trkpt lat="44.0379" lon="6.51356">
        <ele>1566.1999511719</ele>
        <time>2022-08-20T17:45:58Z</time>
      </trkpt>
      <trkpt lat="44.0379" lon="6.51355">
        <ele>1566.1999511719</ele>
        <time>2022-08-20T17:45:59Z</time>
      </trkpt>
      <trkpt lat="44.03789" lon="6.51355">
        <ele>1566.4000244141</ele>
        <time>2022-08-20T17:46:04Z</time>
      </trkpt>
      <trkpt lat="44.03789" lon="6.51356">
        <ele>1566.1999511719</ele>
        <time>2022-08-20T17:46:08Z</time>
      </trkpt>
      <trkpt lat="44.03789" lon="6.51356">
        <ele>1566</ele>
        <time>2022-08-20T17:46:11Z</time>
      </trkpt>
      <trkpt lat="44.0379" lon="6.51356">
        <ele>1566.4000244141</ele>
        <time>2022-08-20T17:46:20Z</time>
      </trkpt>
      <trkpt lat="44.03789" lon="6.51356">
        <ele>1566.4000244141</ele>
        <time>2022-08-20T17:46:27Z</time>
      </trkpt>
      <trkpt lat="44.0379" lon="6.51355">
        <ele>1566.8000488281</ele>
        <time>2022-08-20T17:46:36Z</time>
      </trkpt>
      <trkpt lat="44.0379" lon="6.51355">
        <ele>1566</ele>
        <time>2022-08-20T17:46:44Z</time>
      </trkpt>
      <trkpt lat="44.0379" lon="6.51354">
        <ele>1565.5999755859</ele>
        <time>2022-08-20T17:46:47Z</time>
      </trkpt>
      <trkpt lat="44.03791" lon="6.51355">
        <ele>1566</ele>
        <time>2022-08-20T17:46:56Z</time>
      </trkpt>
      <trkpt lat="44.03791" lon="6.51355">
        <ele>1566.1999511719</ele>
        <time>2022-08-20T17:47:07Z</time>
      </trkpt>
      <trkpt lat="44.03791" lon="6.51355">
        <ele>1566</ele>
        <time>2022-08-20T17:47:15Z</time>
      </trkpt>
      <trkpt lat="44.03791" lon="6.51355">
        <ele>1566</ele>
        <time>2022-08-20T17:47:17Z</time>
      </trkpt>
      <trkpt lat="44.03791" lon="6.51355">
        <ele>1566</ele>
        <time>2022-08-20T17:47:20Z</time>
      </trkpt>
      <trkpt lat="44.03791" lon="6.51355">
        <ele>1566</ele>
        <time>2022-08-20T17:47:33Z</time>
      </trkpt>
      <trkpt lat="44.03791" lon="6.51354">
        <ele>1566</ele>
        <time>2022-08-20T17:47:40Z</time>
      </trkpt>
      <trkpt lat="44.03791" lon="6.51354">
        <ele>1566</ele>
        <time>2022-08-20T17:47:48Z</time>
      </trkpt>
      <trkpt lat="44.03792" lon="6.51356">
        <ele>1566</ele>
        <time>2022-08-20T17:47:55Z</time>
      </trkpt>
      <trkpt lat="44.03792" lon="6.51356">
        <ele>1566</ele>
        <time>2022-08-20T17:48:02Z</time>
      </trkpt>
      <trkpt lat="44.0379" lon="6.51363">
        <ele>1566</ele>
        <time>2022-08-20T17:48:12Z</time>
      </trkpt>
      <trkpt lat="44.03789" lon="6.5137">
        <ele>1566</ele>
        <time>2022-08-20T17:48:15Z</time>
      </trkpt>
      <trkpt lat="44.03785" lon="6.51386">
        <ele>1565.8000488281</ele>
        <time>2022-08-20T17:48:20Z</time>
      </trkpt>
      <trkpt lat="44.03779" lon="6.51412">
        <ele>1565.1999511719</ele>
        <time>2022-08-20T17:48:27Z</time>
      </trkpt>
      <trkpt lat="44.03777" lon="6.5142">
        <ele>1565.1999511719</ele>
        <time>2022-08-20T17:48:29Z</time>
      </trkpt>
      <trkpt lat="44.03772" lon="6.51436">
        <ele>1565</ele>
        <time>2022-08-20T17:48:33Z</time>
      </trkpt>
      <trkpt lat="44.03763" lon="6.51462">
        <ele>1565</ele>
        <time>2022-08-20T17:48:39Z</time>
      </trkpt>
      <trkpt lat="44.03755" lon="6.51478">
        <ele>1565</ele>
        <time>2022-08-20T17:48:43Z</time>
      </trkpt>
      <trkpt lat="44.03742" lon="6.51504">
        <ele>1564.8000488281</ele>
        <time>2022-08-20T17:48:51Z</time>
      </trkpt>
      <trkpt lat="44.0373" lon="6.51521">
        <ele>1564.8000488281</ele>
        <time>2022-08-20T17:48:57Z</time>
      </trkpt>
      <trkpt lat="44.03703" lon="6.51545">
        <ele>1564.5999755859</ele>
        <time>2022-08-20T17:49:07Z</time>
      </trkpt>
      <trkpt lat="44.03687" lon="6.51558">
        <ele>1565.1999511719</ele>
        <time>2022-08-20T17:49:15Z</time>
      </trkpt>
      <trkpt lat="44.03676" lon="6.51567">
        <ele>1565.8000488281</ele>
        <time>2022-08-20T17:49:23Z</time>
      </trkpt>
      <trkpt lat="44.03671" lon="6.51571">
        <ele>1566</ele>
        <time>2022-08-20T17:49:26Z</time>
      </trkpt>
      <trkpt lat="44.0366" lon="6.51577">
        <ele>1566.8000488281</ele>
        <time>2022-08-20T17:49:33Z</time>
      </trkpt>
      <trkpt lat="44.03656" lon="6.51578">
        <ele>1567</ele>
        <time>2022-08-20T17:49:36Z</time>
      </trkpt>
      <trkpt lat="44.0365" lon="6.51577">
        <ele>1567.4000244141</ele>
        <time>2022-08-20T17:49:40Z</time>
      </trkpt>
      <trkpt lat="44.03645" lon="6.51576">
        <ele>1568</ele>
        <time>2022-08-20T17:49:44Z</time>
      </trkpt>
      <trkpt lat="44.03639" lon="6.51576">
        <ele>1569</ele>
        <time>2022-08-20T17:49:49Z</time>
      </trkpt>
      <trkpt lat="44.03638" lon="6.51576">
        <ele>1569.1999511719</ele>
        <time>2022-08-20T17:49:50Z</time>
      </trkpt>
      <trkpt lat="44.0363" lon="6.51576">
        <ele>1570.1999511719</ele>
        <time>2022-08-20T17:49:56Z</time>
      </trkpt>
      <trkpt lat="44.03627" lon="6.51575">
        <ele>1570.4000244141</ele>
        <time>2022-08-20T17:49:58Z</time>
      </trkpt>
      <trkpt lat="44.03626" lon="6.51575">
        <ele>1570.5999755859</ele>
        <time>2022-08-20T17:49:59Z</time>
      </trkpt>
      <trkpt lat="44.03622" lon="6.51574">
        <ele>1571.1999511719</ele>
        <time>2022-08-20T17:50:02Z</time>
      </trkpt>
      <trkpt lat="44.03621" lon="6.51574">
        <ele>1571.4000244141</ele>
        <time>2022-08-20T17:50:03Z</time>
      </trkpt>
      <trkpt lat="44.03615" lon="6.51573">
        <ele>1572.4000244141</ele>
        <time>2022-08-20T17:50:08Z</time>
      </trkpt>
      <trkpt lat="44.03611" lon="6.51573">
        <ele>1573</ele>
        <time>2022-08-20T17:50:12Z</time>
      </trkpt>
      <trkpt lat="44.0361" lon="6.51573">
        <ele>1573.1999511719</ele>
        <time>2022-08-20T17:50:13Z</time>
      </trkpt>
      <trkpt lat="44.03608" lon="6.51572">
        <ele>1573.4000244141</ele>
        <time>2022-08-20T17:50:15Z</time>
      </trkpt>
      <trkpt lat="44.03599" lon="6.51572">
        <ele>1574.4000244141</ele>
        <time>2022-08-20T17:50:22Z</time>
      </trkpt>
      <trkpt lat="44.03598" lon="6.51572">
        <ele>1574.5999755859</ele>
        <time>2022-08-20T17:50:23Z</time>
      </trkpt>
      <trkpt lat="44.03592" lon="6.5157">
        <ele>1575.5999755859</ele>
        <time>2022-08-20T17:50:29Z</time>
      </trkpt>
      <trkpt lat="44.03591" lon="6.5157">
        <ele>1575.8000488281</ele>
        <time>2022-08-20T17:50:30Z</time>
      </trkpt>
      <trkpt lat="44.03588" lon="6.51569">
        <ele>1576</ele>
        <time>2022-08-20T17:50:32Z</time>
      </trkpt>
      <trkpt lat="44.03583" lon="6.51567">
        <ele>1576.8000488281</ele>
        <time>2022-08-20T17:50:36Z</time>
      </trkpt>
      <trkpt lat="44.03576" lon="6.51565">
        <ele>1577.5999755859</ele>
        <time>2022-08-20T17:50:43Z</time>
      </trkpt>
      <trkpt lat="44.03575" lon="6.51565">
        <ele>1577.8000488281</ele>
        <time>2022-08-20T17:50:44Z</time>
      </trkpt>
      <trkpt lat="44.03567" lon="6.51563">
        <ele>1579</ele>
        <time>2022-08-20T17:50:51Z</time>
      </trkpt>
      <trkpt lat="44.0356" lon="6.51562">
        <ele>1580</ele>
        <time>2022-08-20T17:50:58Z</time>
      </trkpt>
      <trkpt lat="44.03559" lon="6.51562">
        <ele>1580.1999511719</ele>
        <time>2022-08-20T17:50:59Z</time>
      </trkpt>
      <trkpt lat="44.03553" lon="6.5156">
        <ele>1581</ele>
        <time>2022-08-20T17:51:05Z</time>
      </trkpt>
      <trkpt lat="44.03549" lon="6.51559">
        <ele>1581.4000244141</ele>
        <time>2022-08-20T17:51:09Z</time>
      </trkpt>
      <trkpt lat="44.03542" lon="6.51557">
        <ele>1582.1999511719</ele>
        <time>2022-08-20T17:51:14Z</time>
      </trkpt>
      <trkpt lat="44.03533" lon="6.51554">
        <ele>1583.4000244141</ele>
        <time>2022-08-20T17:51:22Z</time>
      </trkpt>
      <trkpt lat="44.03531" lon="6.51553">
        <ele>1583.5999755859</ele>
        <time>2022-08-20T17:51:23Z</time>
      </trkpt>
      <trkpt lat="44.03525" lon="6.51551">
        <ele>1584.4000244141</ele>
        <time>2022-08-20T17:51:29Z</time>
      </trkpt>
      <trkpt lat="44.03518" lon="6.51548">
        <ele>1585.4000244141</ele>
        <time>2022-08-20T17:51:35Z</time>
      </trkpt>
      <trkpt lat="44.03517" lon="6.51547">
        <ele>1585.5999755859</ele>
        <time>2022-08-20T17:51:36Z</time>
      </trkpt>
      <trkpt lat="44.03511" lon="6.51545">
        <ele>1586.4000244141</ele>
        <time>2022-08-20T17:51:42Z</time>
      </trkpt>
      <trkpt lat="44.03509" lon="6.51544">
        <ele>1586.5999755859</ele>
        <time>2022-08-20T17:51:44Z</time>
      </trkpt>
      <trkpt lat="44.03508" lon="6.51544">
        <ele>1586.5999755859</ele>
        <time>2022-08-20T17:51:45Z</time>
      </trkpt>
      <trkpt lat="44.03498" lon="6.51542">
        <ele>1587.4000244141</ele>
        <time>2022-08-20T17:51:53Z</time>
      </trkpt>
      <trkpt lat="44.03497" lon="6.51542">
        <ele>1587.8000488281</ele>
        <time>2022-08-20T17:51:55Z</time>
      </trkpt>
      <trkpt lat="44.03491" lon="6.5154">
        <ele>1588.1999511719</ele>
        <time>2022-08-20T17:52:00Z</time>
      </trkpt>
      <trkpt lat="44.03486" lon="6.51536">
        <ele>1588.8000488281</ele>
        <time>2022-08-20T17:52:05Z</time>
      </trkpt>
      <trkpt lat="44.03484" lon="6.51536">
        <ele>1589</ele>
        <time>2022-08-20T17:52:07Z</time>
      </trkpt>
      <trkpt lat="44.03478" lon="6.51533">
        <ele>1589.8000488281</ele>
        <time>2022-08-20T17:52:12Z</time>
      </trkpt>
      <trkpt lat="44.03477" lon="6.51532">
        <ele>1589.8000488281</ele>
        <time>2022-08-20T17:52:13Z</time>
      </trkpt>
      <trkpt lat="44.03468" lon="6.5153">
        <ele>1590.5999755859</ele>
        <time>2022-08-20T17:52:20Z</time>
      </trkpt>
      <trkpt lat="44.03466" lon="6.51529">
        <ele>1590.8000488281</ele>
        <time>2022-08-20T17:52:22Z</time>
      </trkpt>
      <trkpt lat="44.03465" lon="6.51529">
        <ele>1591</ele>
        <time>2022-08-20T17:52:23Z</time>
      </trkpt>
      <trkpt lat="44.03464" lon="6.51529">
        <ele>1591</ele>
        <time>2022-08-20T17:52:24Z</time>
      </trkpt>
      <trkpt lat="44.03462" lon="6.51528">
        <ele>1591.1999511719</ele>
        <time>2022-08-20T17:52:26Z</time>
      </trkpt>
      <trkpt lat="44.03454" lon="6.51527">
        <ele>1591.5999755859</ele>
        <time>2022-08-20T17:52:33Z</time>
      </trkpt>
      <trkpt lat="44.03451" lon="6.51528">
        <ele>1592</ele>
        <time>2022-08-20T17:52:36Z</time>
      </trkpt>
      <trkpt lat="44.03442" lon="6.51527">
        <ele>1592.5999755859</ele>
        <time>2022-08-20T17:52:43Z</time>
      </trkpt>
      <trkpt lat="44.0344" lon="6.51527">
        <ele>1592.8000488281</ele>
        <time>2022-08-20T17:52:45Z</time>
      </trkpt>
      <trkpt lat="44.03439" lon="6.51529">
        <ele>1592.8000488281</ele>
        <time>2022-08-20T17:52:47Z</time>
      </trkpt>
      <trkpt lat="44.03438" lon="6.51529">
        <ele>1593</ele>
        <time>2022-08-20T17:52:49Z</time>
      </trkpt>
      <trkpt lat="44.03439" lon="6.5153">
        <ele>1593.1999511719</ele>
        <time>2022-08-20T17:52:50Z</time>
      </trkpt>
      <trkpt lat="44.03438" lon="6.5153">
        <ele>1593.4000244141</ele>
        <time>2022-08-20T17:52:54Z</time>
      </trkpt>
      <trkpt lat="44.03438" lon="6.5153">
        <ele>1593.4000244141</ele>
        <time>2022-08-20T17:53:00Z</time>
      </trkpt>
      <trkpt lat="44.03439" lon="6.5153">
        <ele>1593.1999511719</ele>
        <time>2022-08-20T17:53:09Z</time>
      </trkpt>
      <trkpt lat="44.03439" lon="6.51531">
        <ele>1593.1999511719</ele>
        <time>2022-08-20T17:53:17Z</time>
      </trkpt>
      <trkpt lat="44.03442" lon="6.51537">
        <ele>1594.1999511719</ele>
        <time>2022-08-20T17:53:27Z</time>
      </trkpt>
      <trkpt lat="44.03442" lon="6.51538">
        <ele>1594.5999755859</ele>
        <time>2022-08-20T17:53:29Z</time>
      </trkpt>
      <trkpt lat="44.03443" lon="6.51539">
        <ele>1594.5999755859</ele>
        <time>2022-08-20T17:53:30Z</time>
      </trkpt>
      <trkpt lat="44.03444" lon="6.51544">
        <ele>1595.4000244141</ele>
        <time>2022-08-20T17:53:36Z</time>
      </trkpt>
      <trkpt lat="44.03443" lon="6.51548">
        <ele>1595.8000488281</ele>
        <time>2022-08-20T17:53:40Z</time>
      </trkpt>
      <trkpt lat="44.03438" lon="6.51546">
        <ele>1596.4000244141</ele>
        <time>2022-08-20T17:53:45Z</time>
      </trkpt>
      <trkpt lat="44.03434" lon="6.51546">
        <ele>1596.5999755859</ele>
        <time>2022-08-20T17:53:49Z</time>
      </trkpt>
      <trkpt lat="44.03429" lon="6.51547">
        <ele>1597.4000244141</ele>
        <time>2022-08-20T17:53:55Z</time>
      </trkpt>
      <trkpt lat="44.03428" lon="6.51548">
        <ele>1597.5999755859</ele>
        <time>2022-08-20T17:53:57Z</time>
      </trkpt>
      <trkpt lat="44.03423" lon="6.51552">
        <ele>1598.4000244141</ele>
        <time>2022-08-20T17:54:05Z</time>
      </trkpt>
      <trkpt lat="44.03419" lon="6.51553">
        <ele>1598.8000488281</ele>
        <time>2022-08-20T17:54:11Z</time>
      </trkpt>
      <trkpt lat="44.03413" lon="6.51558">
        <ele>1599.5999755859</ele>
        <time>2022-08-20T17:54:20Z</time>
      </trkpt>
      <trkpt lat="44.0341" lon="6.51559">
        <ele>1600.1999511719</ele>
        <time>2022-08-20T17:54:23Z</time>
      </trkpt>
      <trkpt lat="44.03407" lon="6.51561">
        <ele>1600.5999755859</ele>
        <time>2022-08-20T17:54:28Z</time>
      </trkpt>
      <trkpt lat="44.03404" lon="6.51564">
        <ele>1601.4000244141</ele>
        <time>2022-08-20T17:54:36Z</time>
      </trkpt>
      <trkpt lat="44.03403" lon="6.51566">
        <ele>1601.5999755859</ele>
        <time>2022-08-20T17:54:39Z</time>
      </trkpt>
      <trkpt lat="44.034" lon="6.51575">
        <ele>1602.5999755859</ele>
        <time>2022-08-20T17:54:49Z</time>
      </trkpt>
      <trkpt lat="44.03399" lon="6.51576">
        <ele>1602.5999755859</ele>
        <time>2022-08-20T17:54:50Z</time>
      </trkpt>
      <trkpt lat="44.03394" lon="6.51582">
        <ele>1603.8000488281</ele>
        <time>2022-08-20T17:55:00Z</time>
      </trkpt>
      <trkpt lat="44.03387" lon="6.51589">
        <ele>1604.8000488281</ele>
        <time>2022-08-20T17:55:13Z</time>
      </trkpt>
      <trkpt lat="44.03386" lon="6.51589">
        <ele>1604.8000488281</ele>
        <time>2022-08-20T17:55:14Z</time>
      </trkpt>
      <trkpt lat="44.03381" lon="6.51598">
        <ele>1605.8000488281</ele>
        <time>2022-08-20T17:55:24Z</time>
      </trkpt>
      <trkpt lat="44.03379" lon="6.516">
        <ele>1606.1999511719</ele>
        <time>2022-08-20T17:55:27Z</time>
      </trkpt>
      <trkpt lat="44.03375" lon="6.51606">
        <ele>1606.8000488281</ele>
        <time>2022-08-20T17:55:34Z</time>
      </trkpt>
      <trkpt lat="44.03374" lon="6.51609">
        <ele>1607.1999511719</ele>
        <time>2022-08-20T17:55:37Z</time>
      </trkpt>
      <trkpt lat="44.03377" lon="6.51616">
        <ele>1607.8000488281</ele>
        <time>2022-08-20T17:55:45Z</time>
      </trkpt>
      <trkpt lat="44.03379" lon="6.5162">
        <ele>1608.4000244141</ele>
        <time>2022-08-20T17:55:50Z</time>
      </trkpt>
      <trkpt lat="44.03381" lon="6.51622">
        <ele>1609</ele>
        <time>2022-08-20T17:55:54Z</time>
      </trkpt>
      <trkpt lat="44.03385" lon="6.51628">
        <ele>1609.5999755859</ele>
        <time>2022-08-20T17:56:02Z</time>
      </trkpt>
      <trkpt lat="44.03386" lon="6.51631">
        <ele>1610</ele>
        <time>2022-08-20T17:56:05Z</time>
      </trkpt>
      <trkpt lat="44.03391" lon="6.51643">
        <ele>1611.1999511719</ele>
        <time>2022-08-20T17:56:17Z</time>
      </trkpt>
      <trkpt lat="44.03391" lon="6.51644">
        <ele>1611.1999511719</ele>
        <time>2022-08-20T17:56:18Z</time>
      </trkpt>
      <trkpt lat="44.03394" lon="6.51655">
        <ele>1612.1999511719</ele>
        <time>2022-08-20T17:56:29Z</time>
      </trkpt>
      <trkpt lat="44.03394" lon="6.51656">
        <ele>1612.4000244141</ele>
        <time>2022-08-20T17:56:30Z</time>
      </trkpt>
      <trkpt lat="44.03395" lon="6.51664">
        <ele>1613.1999511719</ele>
        <time>2022-08-20T17:56:38Z</time>
      </trkpt>
      <trkpt lat="44.03394" lon="6.51671">
        <ele>1613.8000488281</ele>
        <time>2022-08-20T17:56:45Z</time>
      </trkpt>
      <trkpt lat="44.03397" lon="6.51679">
        <ele>1614.1999511719</ele>
        <time>2022-08-20T17:56:56Z</time>
      </trkpt>
      <trkpt lat="44.03397" lon="6.51682">
        <ele>1614.4000244141</ele>
        <time>2022-08-20T17:56:59Z</time>
      </trkpt>
      <trkpt lat="44.03396" lon="6.51691">
        <ele>1615.1999511719</ele>
        <time>2022-08-20T17:57:10Z</time>
      </trkpt>
      <trkpt lat="44.03396" lon="6.51692">
        <ele>1615.1999511719</ele>
        <time>2022-08-20T17:57:15Z</time>
      </trkpt>
      <trkpt lat="44.03396" lon="6.51692">
        <ele>1615</ele>
        <time>2022-08-20T17:57:17Z</time>
      </trkpt>
      <trkpt lat="44.03396" lon="6.51692">
        <ele>1614.8000488281</ele>
        <time>2022-08-20T17:57:31Z</time>
      </trkpt>
      <trkpt lat="44.03393" lon="6.51697">
        <ele>1614.8000488281</ele>
        <time>2022-08-20T17:57:41Z</time>
      </trkpt>
      <trkpt lat="44.03389" lon="6.51702">
        <ele>1615</ele>
        <time>2022-08-20T17:57:48Z</time>
      </trkpt>
      <trkpt lat="44.03388" lon="6.51703">
        <ele>1615</ele>
        <time>2022-08-20T17:57:50Z</time>
      </trkpt>
      <trkpt lat="44.03387" lon="6.51704">
        <ele>1615.1999511719</ele>
        <time>2022-08-20T17:57:55Z</time>
      </trkpt>
      <trkpt lat="44.03388" lon="6.51704">
        <ele>1615.1999511719</ele>
        <time>2022-08-20T17:58:06Z</time>
      </trkpt>
      <trkpt lat="44.03387" lon="6.51704">
        <ele>1615</ele>
        <time>2022-08-20T17:58:28Z</time>
      </trkpt>
      <trkpt lat="44.03387" lon="6.51704">
        <ele>1615</ele>
        <time>2022-08-20T17:58:44Z</time>
      </trkpt>
      <trkpt lat="44.03387" lon="6.51704">
        <ele>1615</ele>
        <time>2022-08-20T17:58:47Z</time>
      </trkpt>
      <trkpt lat="44.03388" lon="6.51704">
        <ele>1615</ele>
        <time>2022-08-20T17:59:09Z</time>
      </trkpt>
      <trkpt lat="44.03388" lon="6.51703">
        <ele>1615</ele>
        <time>2022-08-20T17:59:23Z</time>
      </trkpt>
      <trkpt lat="44.03389" lon="6.51704">
        <ele>1615</ele>
        <time>2022-08-20T17:59:28Z</time>
      </trkpt>
      <trkpt lat="44.03388" lon="6.51704">
        <ele>1615</ele>
        <time>2022-08-20T17:59:44Z</time>
      </trkpt>
      <trkpt lat="44.03389" lon="6.51704">
        <ele>1615</ele>
        <time>2022-08-20T18:00:02Z</time>
      </trkpt>
      <trkpt lat="44.03388" lon="6.51704">
        <ele>1615</ele>
        <time>2022-08-20T18:00:06Z</time>
      </trkpt>
      <trkpt lat="44.03388" lon="6.51704">
        <ele>1615</ele>
        <time>2022-08-20T18:00:09Z</time>
      </trkpt>
      <trkpt lat="44.03388" lon="6.51704">
        <ele>1615</ele>
        <time>2022-08-20T18:00:10Z</time>
      </trkpt>
      <trkpt lat="44.03388" lon="6.51704">
        <ele>1615</ele>
        <time>2022-08-20T18:00:14Z</time>
      </trkpt>
      <trkpt lat="44.03386" lon="6.51702">
        <ele>1615</ele>
        <time>2022-08-20T18:00:24Z</time>
      </trkpt>
      <trkpt lat="44.03389" lon="6.51701">
        <ele>1615</ele>
        <time>2022-08-20T18:00:31Z</time>
      </trkpt>
      <trkpt lat="44.03389" lon="6.51701">
        <ele>1615</ele>
        <time>2022-08-20T18:00:35Z</time>
      </trkpt>
      <trkpt lat="44.03387" lon="6.51702">
        <ele>1615</ele>
        <time>2022-08-20T18:00:42Z</time>
      </trkpt>
      <trkpt lat="44.03386" lon="6.51706">
        <ele>1615</ele>
        <time>2022-08-20T18:00:46Z</time>
      </trkpt>
      <trkpt lat="44.03382" lon="6.5171">
        <ele>1615</ele>
        <time>2022-08-20T18:00:53Z</time>
      </trkpt>
      <trkpt lat="44.03382" lon="6.51711">
        <ele>1615</ele>
        <time>2022-08-20T18:00:58Z</time>
      </trkpt>
      <trkpt lat="44.03381" lon="6.5171">
        <ele>1615</ele>
        <time>2022-08-20T18:01:05Z</time>
      </trkpt>
      <trkpt lat="44.03381" lon="6.5171">
        <ele>1615</ele>
        <time>2022-08-20T18:01:09Z</time>
      </trkpt>
      <trkpt lat="44.03382" lon="6.51707">
        <ele>1615</ele>
        <time>2022-08-20T18:01:15Z</time>
      </trkpt>
      <trkpt lat="44.03383" lon="6.51707">
        <ele>1615</ele>
        <time>2022-08-20T18:01:16Z</time>
      </trkpt>
      <trkpt lat="44.03387" lon="6.51703">
        <ele>1615</ele>
        <time>2022-08-20T18:01:24Z</time>
      </trkpt>
      <trkpt lat="44.03388" lon="6.51704">
        <ele>1615</ele>
        <time>2022-08-20T18:01:29Z</time>
      </trkpt>
      <trkpt lat="44.03388" lon="6.51704">
        <ele>1615</ele>
        <time>2022-08-20T18:01:34Z</time>
      </trkpt>
      <trkpt lat="44.03386" lon="6.51706">
        <ele>1615</ele>
        <time>2022-08-20T18:01:44Z</time>
      </trkpt>
      <trkpt lat="44.03384" lon="6.51709">
        <ele>1615</ele>
        <time>2022-08-20T18:01:53Z</time>
      </trkpt>
      <trkpt lat="44.03384" lon="6.51709">
        <ele>1615</ele>
        <time>2022-08-20T18:02:00Z</time>
      </trkpt>
      <trkpt lat="44.03385" lon="6.51709">
        <ele>1615</ele>
        <time>2022-08-20T18:02:11Z</time>
      </trkpt>
      <trkpt lat="44.03384" lon="6.51709">
        <ele>1615</ele>
        <time>2022-08-20T18:02:20Z</time>
      </trkpt>
      <trkpt lat="44.03384" lon="6.51709">
        <ele>1615</ele>
        <time>2022-08-20T18:02:22Z</time>
      </trkpt>
      <trkpt lat="44.03383" lon="6.51709">
        <ele>1615</ele>
        <time>2022-08-20T18:02:34Z</time>
      </trkpt>
      <trkpt lat="44.03383" lon="6.51708">
        <ele>1615</ele>
        <time>2022-08-20T18:02:42Z</time>
      </trkpt>
      <trkpt lat="44.03383" lon="6.51708">
        <ele>1615</ele>
        <time>2022-08-20T18:02:49Z</time>
      </trkpt>
      <trkpt lat="44.03382" lon="6.51708">
        <ele>1615</ele>
        <time>2022-08-20T18:02:57Z</time>
      </trkpt>
      <trkpt lat="44.03382" lon="6.51708">
        <ele>1615</ele>
        <time>2022-08-20T18:02:59Z</time>
      </trkpt>
      <trkpt lat="44.0338" lon="6.51709">
        <ele>1615</ele>
        <time>2022-08-20T18:03:10Z</time>
      </trkpt>
      <trkpt lat="44.0338" lon="6.5171">
        <ele>1615</ele>
        <time>2022-08-20T18:03:18Z</time>
      </trkpt>
      <trkpt lat="44.0338" lon="6.5171">
        <ele>1615</ele>
        <time>2022-08-20T18:03:19Z</time>
      </trkpt>
      <trkpt lat="44.0338" lon="6.5171">
        <ele>1615</ele>
        <time>2022-08-20T18:03:22Z</time>
      </trkpt>
      <trkpt lat="44.0338" lon="6.5171">
        <ele>1615</ele>
        <time>2022-08-20T18:03:27Z</time>
      </trkpt>
      <trkpt lat="44.0338" lon="6.5171">
        <ele>1615</ele>
        <time>2022-08-20T18:03:34Z</time>
      </trkpt>
      <trkpt lat="44.0338" lon="6.5171">
        <ele>1615</ele>
        <time>2022-08-20T18:03:41Z</time>
      </trkpt>
      <trkpt lat="44.0338" lon="6.5171">
        <ele>1615</ele>
        <time>2022-08-20T18:03:45Z</time>
      </trkpt>
      <trkpt lat="44.0338" lon="6.5171">
        <ele>1615</ele>
        <time>2022-08-20T18:03:46Z</time>
      </trkpt>
      <trkpt lat="44.0338" lon="6.5171">
        <ele>1615</ele>
        <time>2022-08-20T18:03:48Z</time>
      </trkpt>
      <trkpt lat="44.0338" lon="6.5171">
        <ele>1615</ele>
        <time>2022-08-20T18:03:51Z</time>
      </trkpt>
      <trkpt lat="44.0338" lon="6.5171">
        <ele>1615</ele>
        <time>2022-08-20T18:04:00Z</time>
      </trkpt>
      <trkpt lat="44.03382" lon="6.51709">
        <ele>1615</ele>
        <time>2022-08-20T18:04:12Z</time>
      </trkpt>
      <trkpt lat="44.03382" lon="6.51709">
        <ele>1615</ele>
        <time>2022-08-20T18:04:16Z</time>
      </trkpt>
      <trkpt lat="44.03382" lon="6.51708">
        <ele>1618</ele>
        <time>2022-08-20T18:04:21Z</time>
      </trkpt>
      <trkpt lat="44.03382" lon="6.51709">
        <ele>1618</ele>
        <time>2022-08-20T18:04:24Z</time>
      </trkpt>
      <trkpt lat="44.03383" lon="6.51709">
        <ele>1618.1999511719</ele>
        <time>2022-08-20T18:04:33Z</time>
      </trkpt>
      <trkpt lat="44.03381" lon="6.51708">
        <ele>1618.1999511719</ele>
        <time>2022-08-20T18:04:41Z</time>
      </trkpt>
      <trkpt lat="44.03381" lon="6.51709">
        <ele>1618</ele>
        <time>2022-08-20T18:04:42Z</time>
      </trkpt>
      <trkpt lat="44.03379" lon="6.51709">
        <ele>1617.1999511719</ele>
        <time>2022-08-20T18:04:50Z</time>
      </trkpt>
      <trkpt lat="44.03379" lon="6.51709">
        <ele>1617.1999511719</ele>
        <time>2022-08-20T18:04:54Z</time>
      </trkpt>
      <trkpt lat="44.03379" lon="6.51709">
        <ele>1617.5999755859</ele>
        <time>2022-08-20T18:04:59Z</time>
      </trkpt>
      <trkpt lat="44.03379" lon="6.51709">
        <ele>1617.8000488281</ele>
        <time>2022-08-20T18:05:01Z</time>
      </trkpt>
      <trkpt lat="44.03379" lon="6.51708">
        <ele>1618</ele>
        <time>2022-08-20T18:05:03Z</time>
      </trkpt>
      <trkpt lat="44.03379" lon="6.51708">
        <ele>1618</ele>
        <time>2022-08-20T18:05:07Z</time>
      </trkpt>
      <trkpt lat="44.03378" lon="6.51709">
        <ele>1617.8000488281</ele>
        <time>2022-08-20T18:05:13Z</time>
      </trkpt>
      <trkpt lat="44.03378" lon="6.51709">
        <ele>1617.5999755859</ele>
        <time>2022-08-20T18:05:15Z</time>
      </trkpt>
      <trkpt lat="44.03381" lon="6.51709">
        <ele>1617.5999755859</ele>
        <time>2022-08-20T18:05:24Z</time>
      </trkpt>
      <trkpt lat="44.03382" lon="6.51709">
        <ele>1617.5999755859</ele>
        <time>2022-08-20T18:05:29Z</time>
      </trkpt>
      <trkpt lat="44.03381" lon="6.51711">
        <ele>1617.5999755859</ele>
        <time>2022-08-20T18:05:34Z</time>
      </trkpt>
      <trkpt lat="44.03379" lon="6.51708">
        <ele>1617.5999755859</ele>
        <time>2022-08-20T18:05:41Z</time>
      </trkpt>
      <trkpt lat="44.03378" lon="6.5171">
        <ele>1617.5999755859</ele>
        <time>2022-08-20T18:05:46Z</time>
      </trkpt>
      <trkpt lat="44.03378" lon="6.5171">
        <ele>1617.5999755859</ele>
        <time>2022-08-20T18:05:53Z</time>
      </trkpt>
      <trkpt lat="44.03379" lon="6.51709">
        <ele>1617.5999755859</ele>
        <time>2022-08-20T18:06:01Z</time>
      </trkpt>
      <trkpt lat="44.03379" lon="6.5171">
        <ele>1617.5999755859</ele>
        <time>2022-08-20T18:06:02Z</time>
      </trkpt>
      <trkpt lat="44.03379" lon="6.51711">
        <ele>1617.5999755859</ele>
        <time>2022-08-20T18:06:12Z</time>
      </trkpt>
      <trkpt lat="44.0338" lon="6.51709">
        <ele>1617.5999755859</ele>
        <time>2022-08-20T18:06:19Z</time>
      </trkpt>
      <trkpt lat="44.0338" lon="6.51709">
        <ele>1617.5999755859</ele>
        <time>2022-08-20T18:06:20Z</time>
      </trkpt>
      <trkpt lat="44.0338" lon="6.51709">
        <ele>1617.5999755859</ele>
        <time>2022-08-20T18:06:26Z</time>
      </trkpt>
      <trkpt lat="44.0338" lon="6.51709">
        <ele>1617.5999755859</ele>
        <time>2022-08-20T18:06:37Z</time>
      </trkpt>
      <trkpt lat="44.0338" lon="6.5171">
        <ele>1617.5999755859</ele>
        <time>2022-08-20T18:06:45Z</time>
      </trkpt>
      <trkpt lat="44.03381" lon="6.5171">
        <ele>1617.5999755859</ele>
        <time>2022-08-20T18:06:52Z</time>
      </trkpt>
      <trkpt lat="44.03381" lon="6.5171">
        <ele>1617.5999755859</ele>
        <time>2022-08-20T18:07:03Z</time>
      </trkpt>
      <trkpt lat="44.03381" lon="6.51709">
        <ele>1617.5999755859</ele>
        <time>2022-08-20T18:07:12Z</time>
      </trkpt>
      <trkpt lat="44.0338" lon="6.5171">
        <ele>1617.5999755859</ele>
        <time>2022-08-20T18:07:19Z</time>
      </trkpt>
      <trkpt lat="44.03377" lon="6.5171">
        <ele>1617.5999755859</ele>
        <time>2022-08-20T18:07:24Z</time>
      </trkpt>
      <trkpt lat="44.03378" lon="6.5171">
        <ele>1617.5999755859</ele>
        <time>2022-08-20T18:07:26Z</time>
      </trkpt>
      <trkpt lat="44.03377" lon="6.51711">
        <ele>1617.5999755859</ele>
        <time>2022-08-20T18:07:27Z</time>
      </trkpt>
      <trkpt lat="44.03377" lon="6.51711">
        <ele>1617.5999755859</ele>
        <time>2022-08-20T18:07:32Z</time>
      </trkpt>
      <trkpt lat="44.03377" lon="6.51711">
        <ele>1617.5999755859</ele>
        <time>2022-08-20T18:07:33Z</time>
      </trkpt>
      <trkpt lat="44.03378" lon="6.51711">
        <ele>1617.5999755859</ele>
        <time>2022-08-20T18:07:42Z</time>
      </trkpt>
      <trkpt lat="44.03379" lon="6.51711">
        <ele>1617.5999755859</ele>
        <time>2022-08-20T18:07:47Z</time>
      </trkpt>
      <trkpt lat="44.03381" lon="6.51709">
        <ele>1617.5999755859</ele>
        <time>2022-08-20T18:07:51Z</time>
      </trkpt>
      <trkpt lat="44.03382" lon="6.51709">
        <ele>1617.5999755859</ele>
        <time>2022-08-20T18:07:53Z</time>
      </trkpt>
      <trkpt lat="44.03382" lon="6.51709">
        <ele>1617.5999755859</ele>
        <time>2022-08-20T18:07:56Z</time>
      </trkpt>
      <trkpt lat="44.03382" lon="6.51709">
        <ele>1617.5999755859</ele>
        <time>2022-08-20T18:07:59Z</time>
      </trkpt>
      <trkpt lat="44.03382" lon="6.51709">
        <ele>1617.5999755859</ele>
        <time>2022-08-20T18:08:03Z</time>
      </trkpt>
      <trkpt lat="44.03382" lon="6.51709">
        <ele>1617.5999755859</ele>
        <time>2022-08-20T18:08:05Z</time>
      </trkpt>
      <trkpt lat="44.03382" lon="6.51709">
        <ele>1617.5999755859</ele>
        <time>2022-08-20T18:08:07Z</time>
      </trkpt>
      <trkpt lat="44.03382" lon="6.51709">
        <ele>1617.5999755859</ele>
        <time>2022-08-20T18:08:14Z</time>
      </trkpt>
      <trkpt lat="44.03381" lon="6.51709">
        <ele>1617.5999755859</ele>
        <time>2022-08-20T18:08:19Z</time>
      </trkpt>
      <trkpt lat="44.03381" lon="6.51709">
        <ele>1617.5999755859</ele>
        <time>2022-08-20T18:08:27Z</time>
      </trkpt>
      <trkpt lat="44.03381" lon="6.51709">
        <ele>1617.5999755859</ele>
        <time>2022-08-20T18:08:36Z</time>
      </trkpt>
      <trkpt lat="44.03381" lon="6.51708">
        <ele>1617.5999755859</ele>
        <time>2022-08-20T18:08:43Z</time>
      </trkpt>
      <trkpt lat="44.03382" lon="6.51707">
        <ele>1617.5999755859</ele>
        <time>2022-08-20T18:08:48Z</time>
      </trkpt>
      <trkpt lat="44.03382" lon="6.51707">
        <ele>1617.5999755859</ele>
        <time>2022-08-20T18:08:58Z</time>
      </trkpt>
      <trkpt lat="44.03382" lon="6.51708">
        <ele>1617.5999755859</ele>
        <time>2022-08-20T18:09:00Z</time>
      </trkpt>
      <trkpt lat="44.03383" lon="6.51708">
        <ele>1617.5999755859</ele>
        <time>2022-08-20T18:09:02Z</time>
      </trkpt>
      <trkpt lat="44.03385" lon="6.51708">
        <ele>1617.5999755859</ele>
        <time>2022-08-20T18:09:06Z</time>
      </trkpt>
      <trkpt lat="44.03382" lon="6.51707">
        <ele>1617.5999755859</ele>
        <time>2022-08-20T18:09:18Z</time>
      </trkpt>
      <trkpt lat="44.03382" lon="6.51707">
        <ele>1617.5999755859</ele>
        <time>2022-08-20T18:09:20Z</time>
      </trkpt>
      <trkpt lat="44.03383" lon="6.51706">
        <ele>1617.5999755859</ele>
        <time>2022-08-20T18:09:22Z</time>
      </trkpt>
      <trkpt lat="44.03384" lon="6.51708">
        <ele>1617.5999755859</ele>
        <time>2022-08-20T18:09:25Z</time>
      </trkpt>
      <trkpt lat="44.03384" lon="6.51709">
        <ele>1617.5999755859</ele>
        <time>2022-08-20T18:09:32Z</time>
      </trkpt>
      <trkpt lat="44.03384" lon="6.51709">
        <ele>1617.5999755859</ele>
        <time>2022-08-20T18:09:40Z</time>
      </trkpt>
      <trkpt lat="44.03384" lon="6.51709">
        <ele>1617.5999755859</ele>
        <time>2022-08-20T18:09:49Z</time>
      </trkpt>
      <trkpt lat="44.03383" lon="6.51709">
        <ele>1617.5999755859</ele>
        <time>2022-08-20T18:10:00Z</time>
      </trkpt>
      <trkpt lat="44.03384" lon="6.5171">
        <ele>1617.5999755859</ele>
        <time>2022-08-20T18:10:09Z</time>
      </trkpt>
      <trkpt lat="44.03383" lon="6.51709">
        <ele>1617.5999755859</ele>
        <time>2022-08-20T18:10:18Z</time>
      </trkpt>
      <trkpt lat="44.03384" lon="6.51709">
        <ele>1617.5999755859</ele>
        <time>2022-08-20T18:10:23Z</time>
      </trkpt>
      <trkpt lat="44.03385" lon="6.51709">
        <ele>1617.5999755859</ele>
        <time>2022-08-20T18:10:28Z</time>
      </trkpt>
      <trkpt lat="44.03385" lon="6.51709">
        <ele>1617.5999755859</ele>
        <time>2022-08-20T18:10:32Z</time>
      </trkpt>
      <trkpt lat="44.03385" lon="6.51709">
        <ele>1617.5999755859</ele>
        <time>2022-08-20T18:10:35Z</time>
      </trkpt>
      <trkpt lat="44.03383" lon="6.51709">
        <ele>1617.5999755859</ele>
        <time>2022-08-20T18:10:48Z</time>
      </trkpt>
      <trkpt lat="44.03382" lon="6.5171">
        <ele>1617.5999755859</ele>
        <time>2022-08-20T18:10:57Z</time>
      </trkpt>
      <trkpt lat="44.03382" lon="6.5171">
        <ele>1617.5999755859</ele>
        <time>2022-08-20T18:11:01Z</time>
      </trkpt>
      <trkpt lat="44.03382" lon="6.51711">
        <ele>1617.5999755859</ele>
        <time>2022-08-20T18:11:05Z</time>
      </trkpt>
      <trkpt lat="44.03382" lon="6.51711">
        <ele>1617.5999755859</ele>
        <time>2022-08-20T18:11:06Z</time>
      </trkpt>
      <trkpt lat="44.03383" lon="6.5171">
        <ele>1617.5999755859</ele>
        <time>2022-08-20T18:11:16Z</time>
      </trkpt>
      <trkpt lat="44.03383" lon="6.51711">
        <ele>1617.5999755859</ele>
        <time>2022-08-20T18:11:26Z</time>
      </trkpt>
      <trkpt lat="44.03383" lon="6.51711">
        <ele>1617.5999755859</ele>
        <time>2022-08-20T18:11:30Z</time>
      </trkpt>
      <trkpt lat="44.03383" lon="6.51711">
        <ele>1617.5999755859</ele>
        <time>2022-08-20T18:11:35Z</time>
      </trkpt>
      <trkpt lat="44.03383" lon="6.51711">
        <ele>1617.5999755859</ele>
        <time>2022-08-20T18:11:39Z</time>
      </trkpt>
      <trkpt lat="44.03382" lon="6.5171">
        <ele>1617.5999755859</ele>
        <time>2022-08-20T18:11:49Z</time>
      </trkpt>
      <trkpt lat="44.03382" lon="6.5171">
        <ele>1617.5999755859</ele>
        <time>2022-08-20T18:11:51Z</time>
      </trkpt>
      <trkpt lat="44.03382" lon="6.5171">
        <ele>1617.5999755859</ele>
        <time>2022-08-20T18:12:00Z</time>
      </trkpt>
      <trkpt lat="44.03382" lon="6.5171">
        <ele>1617.5999755859</ele>
        <time>2022-08-20T18:12:03Z</time>
      </trkpt>
      <trkpt lat="44.03382" lon="6.51711">
        <ele>1617.5999755859</ele>
        <time>2022-08-20T18:12:10Z</time>
      </trkpt>
      <trkpt lat="44.03382" lon="6.51711">
        <ele>1617.5999755859</ele>
        <time>2022-08-20T18:12:18Z</time>
      </trkpt>
      <trkpt lat="44.03382" lon="6.51711">
        <ele>1617.5999755859</ele>
        <time>2022-08-20T18:12:23Z</time>
      </trkpt>
      <trkpt lat="44.03382" lon="6.51711">
        <ele>1617.5999755859</ele>
        <time>2022-08-20T18:12:24Z</time>
      </trkpt>
      <trkpt lat="44.03382" lon="6.51711">
        <ele>1617.5999755859</ele>
        <time>2022-08-20T18:12:27Z</time>
      </trkpt>
      <trkpt lat="44.03382" lon="6.51711">
        <ele>1617.5999755859</ele>
        <time>2022-08-20T18:12:31Z</time>
      </trkpt>
      <trkpt lat="44.03383" lon="6.51711">
        <ele>1617.5999755859</ele>
        <time>2022-08-20T18:12:35Z</time>
      </trkpt>
      <trkpt lat="44.03383" lon="6.51711">
        <ele>1617.5999755859</ele>
        <time>2022-08-20T18:12:36Z</time>
      </trkpt>
      <trkpt lat="44.03299" lon="6.51846">
        <ele>1616.8000488281</ele>
        <time>2022-08-21T07:24:20Z</time>
      </trkpt>
      <trkpt lat="44.03299" lon="6.51849">
        <ele>1616.8000488281</ele>
        <time>2022-08-21T07:24:21Z</time>
      </trkpt>
      <trkpt lat="44.03151" lon="6.5158">
        <ele>1616.8000488281</ele>
        <time>2022-08-21T07:24:23Z</time>
      </trkpt>
      <trkpt lat="44.0344" lon="6.51503">
        <ele>1616.8000488281</ele>
        <time>2022-08-21T07:24:26Z</time>
      </trkpt>
      <trkpt lat="44.03271" lon="6.51634">
        <ele>1616.8000488281</ele>
        <time>2022-08-21T07:24:42Z</time>
      </trkpt>
      <trkpt lat="44.03386" lon="6.51712">
        <ele>1616.8000488281</ele>
        <time>2022-08-21T07:24:51Z</time>
      </trkpt>
      <trkpt lat="44.03383" lon="6.51711">
        <ele>1616.8000488281</ele>
        <time>2022-08-21T07:24:56Z</time>
      </trkpt>
      <trkpt lat="44.03383" lon="6.51712">
        <ele>1616.8000488281</ele>
        <time>2022-08-21T07:24:59Z</time>
      </trkpt>
      <trkpt lat="44.03383" lon="6.51713">
        <ele>1616.8000488281</ele>
        <time>2022-08-21T07:25:02Z</time>
      </trkpt>
      <trkpt lat="44.03383" lon="6.51713">
        <ele>1616.8000488281</ele>
        <time>2022-08-21T07:25:04Z</time>
      </trkpt>
      <trkpt lat="44.03384" lon="6.51712">
        <ele>1616.8000488281</ele>
        <time>2022-08-21T07:25:09Z</time>
      </trkpt>
      <trkpt lat="44.03383" lon="6.51713">
        <ele>1616.8000488281</ele>
        <time>2022-08-21T07:25:19Z</time>
      </trkpt>
      <trkpt lat="44.03383" lon="6.51714">
        <ele>1616.8000488281</ele>
        <time>2022-08-21T07:25:22Z</time>
      </trkpt>
      <trkpt lat="44.03382" lon="6.51713">
        <ele>1616.8000488281</ele>
        <time>2022-08-21T07:25:32Z</time>
      </trkpt>
      <trkpt lat="44.03382" lon="6.51713">
        <ele>1616.8000488281</ele>
        <time>2022-08-21T07:25:35Z</time>
      </trkpt>
      <trkpt lat="44.03382" lon="6.51713">
        <ele>1616.8000488281</ele>
        <time>2022-08-21T07:25:44Z</time>
      </trkpt>
      <trkpt lat="44.03383" lon="6.51713">
        <ele>1616.8000488281</ele>
        <time>2022-08-21T07:25:46Z</time>
      </trkpt>
      <trkpt lat="44.03382" lon="6.51713">
        <ele>1616.8000488281</ele>
        <time>2022-08-21T07:25:53Z</time>
      </trkpt>
      <trkpt lat="44.03382" lon="6.51713">
        <ele>1616.8000488281</ele>
        <time>2022-08-21T07:25:55Z</time>
      </trkpt>
      <trkpt lat="44.03382" lon="6.51713">
        <ele>1616.8000488281</ele>
        <time>2022-08-21T07:25:57Z</time>
      </trkpt>
      <trkpt lat="44.0338" lon="6.5171">
        <ele>1616.8000488281</ele>
        <time>2022-08-21T07:26:07Z</time>
      </trkpt>
      <trkpt lat="44.0338" lon="6.51709">
        <ele>1616.8000488281</ele>
        <time>2022-08-21T07:26:13Z</time>
      </trkpt>
      <trkpt lat="44.0338" lon="6.51709">
        <ele>1616.8000488281</ele>
        <time>2022-08-21T07:26:16Z</time>
      </trkpt>
      <trkpt lat="44.0338" lon="6.51709">
        <ele>1616.8000488281</ele>
        <time>2022-08-21T07:26:17Z</time>
      </trkpt>
      <trkpt lat="44.0338" lon="6.51709">
        <ele>1616.8000488281</ele>
        <time>2022-08-21T07:26:24Z</time>
      </trkpt>
      <trkpt lat="44.03377" lon="6.517">
        <ele>1616.8000488281</ele>
        <time>2022-08-21T07:26:33Z</time>
      </trkpt>
      <trkpt lat="44.03377" lon="6.51698">
        <ele>1616.8000488281</ele>
        <time>2022-08-21T07:26:34Z</time>
      </trkpt>
      <trkpt lat="44.0337" lon="6.51687">
        <ele>1616.8000488281</ele>
        <time>2022-08-21T07:26:40Z</time>
      </trkpt>
      <trkpt lat="44.03367" lon="6.51681">
        <ele>1616.5999755859</ele>
        <time>2022-08-21T07:26:43Z</time>
      </trkpt>
      <trkpt lat="44.03359" lon="6.51669">
        <ele>1615.5999755859</ele>
        <time>2022-08-21T07:26:48Z</time>
      </trkpt>
      <trkpt lat="44.03358" lon="6.51666">
        <ele>1615.4000244141</ele>
        <time>2022-08-21T07:26:49Z</time>
      </trkpt>
      <trkpt lat="44.0335" lon="6.51656">
        <ele>1614.1999511719</ele>
        <time>2022-08-21T07:26:53Z</time>
      </trkpt>
      <trkpt lat="44.03348" lon="6.51654">
        <ele>1613.8000488281</ele>
        <time>2022-08-21T07:26:54Z</time>
      </trkpt>
      <trkpt lat="44.03347" lon="6.51648">
        <ele>1613.1999511719</ele>
        <time>2022-08-21T07:26:56Z</time>
      </trkpt>
      <trkpt lat="44.03348" lon="6.51646">
        <ele>1613</ele>
        <time>2022-08-21T07:26:57Z</time>
      </trkpt>
      <trkpt lat="44.03348" lon="6.51646">
        <ele>1612.5999755859</ele>
        <time>2022-08-21T07:26:58Z</time>
      </trkpt>
      <trkpt lat="44.03348" lon="6.51646">
        <ele>1612.4000244141</ele>
        <time>2022-08-21T07:26:59Z</time>
      </trkpt>
      <trkpt lat="44.03348" lon="6.51647">
        <ele>1612.4000244141</ele>
        <time>2022-08-21T07:27:00Z</time>
      </trkpt>
      <trkpt lat="44.03348" lon="6.51647">
        <ele>1613.4000244141</ele>
        <time>2022-08-21T07:27:02Z</time>
      </trkpt>
      <trkpt lat="44.03348" lon="6.51647">
        <ele>1613.4000244141</ele>
        <time>2022-08-21T07:27:03Z</time>
      </trkpt>
      <trkpt lat="44.03348" lon="6.51648">
        <ele>1613.5999755859</ele>
        <time>2022-08-21T07:27:08Z</time>
      </trkpt>
      <trkpt lat="44.03348" lon="6.51648">
        <ele>1614</ele>
        <time>2022-08-21T07:27:12Z</time>
      </trkpt>
      <trkpt lat="44.03348" lon="6.51647">
        <ele>1613.8000488281</ele>
        <time>2022-08-21T07:27:16Z</time>
      </trkpt>
      <trkpt lat="44.03348" lon="6.51647">
        <ele>1613.8000488281</ele>
        <time>2022-08-21T07:27:18Z</time>
      </trkpt>
      <trkpt lat="44.03348" lon="6.51647">
        <ele>1613.5999755859</ele>
        <time>2022-08-21T07:27:24Z</time>
      </trkpt>
      <trkpt lat="44.03348" lon="6.51648">
        <ele>1613.5999755859</ele>
        <time>2022-08-21T07:27:26Z</time>
      </trkpt>
      <trkpt lat="44.03349" lon="6.51649">
        <ele>1613.8000488281</ele>
        <time>2022-08-21T07:27:35Z</time>
      </trkpt>
      <trkpt lat="44.03349" lon="6.51649">
        <ele>1613.8000488281</ele>
        <time>2022-08-21T07:27:42Z</time>
      </trkpt>
      <trkpt lat="44.03349" lon="6.51649">
        <ele>1613.8000488281</ele>
        <time>2022-08-21T07:27:46Z</time>
      </trkpt>
      <trkpt lat="44.03349" lon="6.5165">
        <ele>1613.8000488281</ele>
        <time>2022-08-21T07:27:51Z</time>
      </trkpt>
      <trkpt lat="44.03349" lon="6.5165">
        <ele>1613.8000488281</ele>
        <time>2022-08-21T07:28:04Z</time>
      </trkpt>
      <trkpt lat="44.03349" lon="6.51643">
        <ele>1613.4000244141</ele>
        <time>2022-08-21T07:28:17Z</time>
      </trkpt>
      <trkpt lat="44.03349" lon="6.51636">
        <ele>1613</ele>
        <time>2022-08-21T07:28:19Z</time>
      </trkpt>
      <trkpt lat="44.03349" lon="6.51632">
        <ele>1612.8000488281</ele>
        <time>2022-08-21T07:28:20Z</time>
      </trkpt>
      <trkpt lat="44.0335" lon="6.51619">
        <ele>1611.5999755859</ele>
        <time>2022-08-21T07:28:23Z</time>
      </trkpt>
      <trkpt lat="44.03351" lon="6.51607">
        <ele>1610.4000244141</ele>
        <time>2022-08-21T07:28:26Z</time>
      </trkpt>
      <trkpt lat="44.03352" lon="6.516">
        <ele>1609.8000488281</ele>
        <time>2022-08-21T07:28:28Z</time>
      </trkpt>
      <trkpt lat="44.03353" lon="6.51597">
        <ele>1609.4000244141</ele>
        <time>2022-08-21T07:28:29Z</time>
      </trkpt>
      <trkpt lat="44.03352" lon="6.51595">
        <ele>1609</ele>
        <time>2022-08-21T07:28:30Z</time>
      </trkpt>
      <trkpt lat="44.03349" lon="6.5159">
        <ele>1608.4000244141</ele>
        <time>2022-08-21T07:28:32Z</time>
      </trkpt>
      <trkpt lat="44.03345" lon="6.51586">
        <ele>1607.8000488281</ele>
        <time>2022-08-21T07:28:34Z</time>
      </trkpt>
      <trkpt lat="44.03337" lon="6.51579">
        <ele>1606.8000488281</ele>
        <time>2022-08-21T07:28:37Z</time>
      </trkpt>
      <trkpt lat="44.03334" lon="6.51577">
        <ele>1606.5999755859</ele>
        <time>2022-08-21T07:28:38Z</time>
      </trkpt>
      <trkpt lat="44.03329" lon="6.51571">
        <ele>1605.8000488281</ele>
        <time>2022-08-21T07:28:40Z</time>
      </trkpt>
      <trkpt lat="44.03325" lon="6.51557">
        <ele>1604.5999755859</ele>
        <time>2022-08-21T07:28:43Z</time>
      </trkpt>
      <trkpt lat="44.03329" lon="6.51542">
        <ele>1603.4000244141</ele>
        <time>2022-08-21T07:28:46Z</time>
      </trkpt>
      <trkpt lat="44.03331" lon="6.51538">
        <ele>1603</ele>
        <time>2022-08-21T07:28:47Z</time>
      </trkpt>
      <trkpt lat="44.03336" lon="6.51532">
        <ele>1602.1999511719</ele>
        <time>2022-08-21T07:28:49Z</time>
      </trkpt>
      <trkpt lat="44.03339" lon="6.5153">
        <ele>1602</ele>
        <time>2022-08-21T07:28:50Z</time>
      </trkpt>
      <trkpt lat="44.03344" lon="6.51527">
        <ele>1601.4000244141</ele>
        <time>2022-08-21T07:28:52Z</time>
      </trkpt>
      <trkpt lat="44.03345" lon="6.51527">
        <ele>1601.1999511719</ele>
        <time>2022-08-21T07:28:53Z</time>
      </trkpt>
      <trkpt lat="44.03348" lon="6.51527">
        <ele>1601</ele>
        <time>2022-08-21T07:28:55Z</time>
      </trkpt>
      <trkpt lat="44.03349" lon="6.51527">
        <ele>1601</ele>
        <time>2022-08-21T07:28:56Z</time>
      </trkpt>
      <trkpt lat="44.03349" lon="6.51527">
        <ele>1601</ele>
        <time>2022-08-21T07:29:00Z</time>
      </trkpt>
      <trkpt lat="44.03354" lon="6.51524">
        <ele>1600.8000488281</ele>
        <time>2022-08-21T07:29:07Z</time>
      </trkpt>
      <trkpt lat="44.03358" lon="6.51523">
        <ele>1600.5999755859</ele>
        <time>2022-08-21T07:29:09Z</time>
      </trkpt>
      <trkpt lat="44.03366" lon="6.51522">
        <ele>1600.1999511719</ele>
        <time>2022-08-21T07:29:13Z</time>
      </trkpt>
      <trkpt lat="44.03368" lon="6.51521">
        <ele>1600</ele>
        <time>2022-08-21T07:29:14Z</time>
      </trkpt>
      <trkpt lat="44.0337" lon="6.51515">
        <ele>1599.4000244141</ele>
        <time>2022-08-21T07:29:17Z</time>
      </trkpt>
      <trkpt lat="44.0337" lon="6.51508">
        <ele>1598.8000488281</ele>
        <time>2022-08-21T07:29:19Z</time>
      </trkpt>
      <trkpt lat="44.03369" lon="6.515">
        <ele>1597.4000244141</ele>
        <time>2022-08-21T07:29:22Z</time>
      </trkpt>
      <trkpt lat="44.03368" lon="6.5149">
        <ele>1596.1999511719</ele>
        <time>2022-08-21T07:29:25Z</time>
      </trkpt>
      <trkpt lat="44.03367" lon="6.51487">
        <ele>1595.8000488281</ele>
        <time>2022-08-21T07:29:26Z</time>
      </trkpt>
      <trkpt lat="44.03364" lon="6.5148">
        <ele>1594.8000488281</ele>
        <time>2022-08-21T07:29:28Z</time>
      </trkpt>
      <trkpt lat="44.03363" lon="6.51471">
        <ele>1593.5999755859</ele>
        <time>2022-08-21T07:29:31Z</time>
      </trkpt>
      <trkpt lat="44.03361" lon="6.51465">
        <ele>1592.8000488281</ele>
        <time>2022-08-21T07:29:33Z</time>
      </trkpt>
      <trkpt lat="44.03361" lon="6.51462">
        <ele>1592.5999755859</ele>
        <time>2022-08-21T07:29:34Z</time>
      </trkpt>
      <trkpt lat="44.0336" lon="6.51452">
        <ele>1591.1999511719</ele>
        <time>2022-08-21T07:29:37Z</time>
      </trkpt>
      <trkpt lat="44.0336" lon="6.51445">
        <ele>1590.1999511719</ele>
        <time>2022-08-21T07:29:39Z</time>
      </trkpt>
      <trkpt lat="44.03358" lon="6.51437">
        <ele>1589.4000244141</ele>
        <time>2022-08-21T07:29:41Z</time>
      </trkpt>
      <trkpt lat="44.03357" lon="6.51434">
        <ele>1588.8000488281</ele>
        <time>2022-08-21T07:29:42Z</time>
      </trkpt>
      <trkpt lat="44.03353" lon="6.5142">
        <ele>1587.8000488281</ele>
        <time>2022-08-21T07:29:46Z</time>
      </trkpt>
      <trkpt lat="44.0335" lon="6.51407">
        <ele>1586.8000488281</ele>
        <time>2022-08-21T07:29:50Z</time>
      </trkpt>
      <trkpt lat="44.03349" lon="6.51403">
        <ele>1586.5999755859</ele>
        <time>2022-08-21T07:29:51Z</time>
      </trkpt>
      <trkpt lat="44.03348" lon="6.51391">
        <ele>1585.8000488281</ele>
        <time>2022-08-21T07:29:55Z</time>
      </trkpt>
      <trkpt lat="44.03348" lon="6.51389">
        <ele>1585.5999755859</ele>
        <time>2022-08-21T07:29:56Z</time>
      </trkpt>
      <trkpt lat="44.03349" lon="6.51385">
        <ele>1585.1999511719</ele>
        <time>2022-08-21T07:29:58Z</time>
      </trkpt>
      <trkpt lat="44.03351" lon="6.51381">
        <ele>1584.5999755859</ele>
        <time>2022-08-21T07:30:00Z</time>
      </trkpt>
      <trkpt lat="44.03351" lon="6.51379">
        <ele>1584.4000244141</ele>
        <time>2022-08-21T07:30:01Z</time>
      </trkpt>
      <trkpt lat="44.03351" lon="6.51369">
        <ele>1583</ele>
        <time>2022-08-21T07:30:05Z</time>
      </trkpt>
      <trkpt lat="44.03351" lon="6.51363">
        <ele>1582.5999755859</ele>
        <time>2022-08-21T07:30:07Z</time>
      </trkpt>
      <trkpt lat="44.03351" lon="6.5136">
        <ele>1582.4000244141</ele>
        <time>2022-08-21T07:30:08Z</time>
      </trkpt>
      <trkpt lat="44.03351" lon="6.51357">
        <ele>1582.1999511719</ele>
        <time>2022-08-21T07:30:09Z</time>
      </trkpt>
      <trkpt lat="44.0335" lon="6.51351">
        <ele>1582</ele>
        <time>2022-08-21T07:30:11Z</time>
      </trkpt>
      <trkpt lat="44.03349" lon="6.51338">
        <ele>1581.8000488281</ele>
        <time>2022-08-21T07:30:16Z</time>
      </trkpt>
      <trkpt lat="44.0335" lon="6.51317">
        <ele>1581.4000244141</ele>
        <time>2022-08-21T07:30:23Z</time>
      </trkpt>
      <trkpt lat="44.03351" lon="6.51304">
        <ele>1581</ele>
        <time>2022-08-21T07:30:28Z</time>
      </trkpt>
      <trkpt lat="44.03353" lon="6.513">
        <ele>1580.8000488281</ele>
        <time>2022-08-21T07:30:30Z</time>
      </trkpt>
      <trkpt lat="44.0336" lon="6.51287">
        <ele>1580</ele>
        <time>2022-08-21T07:30:37Z</time>
      </trkpt>
      <trkpt lat="44.03361" lon="6.51285">
        <ele>1580</ele>
        <time>2022-08-21T07:30:38Z</time>
      </trkpt>
      <trkpt lat="44.03363" lon="6.5128">
        <ele>1580</ele>
        <time>2022-08-21T07:30:41Z</time>
      </trkpt>
      <trkpt lat="44.03364" lon="6.51279">
        <ele>1579.8000488281</ele>
        <time>2022-08-21T07:30:42Z</time>
      </trkpt>
      <trkpt lat="44.03372" lon="6.51268">
        <ele>1579.4000244141</ele>
        <time>2022-08-21T07:30:49Z</time>
      </trkpt>
      <trkpt lat="44.03377" lon="6.51255">
        <ele>1579</ele>
        <time>2022-08-21T07:30:54Z</time>
      </trkpt>
      <trkpt lat="44.03378" lon="6.51253">
        <ele>1578.8000488281</ele>
        <time>2022-08-21T07:30:55Z</time>
      </trkpt>
      <trkpt lat="44.0338" lon="6.51247">
        <ele>1578.5999755859</ele>
        <time>2022-08-21T07:30:57Z</time>
      </trkpt>
      <trkpt lat="44.03379" lon="6.51231">
        <ele>1577.8000488281</ele>
        <time>2022-08-21T07:31:03Z</time>
      </trkpt>
      <trkpt lat="44.03379" lon="6.51221">
        <ele>1577.4000244141</ele>
        <time>2022-08-21T07:31:07Z</time>
      </trkpt>
      <trkpt lat="44.03381" lon="6.51218">
        <ele>1577.4000244141</ele>
        <time>2022-08-21T07:31:08Z</time>
      </trkpt>
      <trkpt lat="44.03387" lon="6.51214">
        <ele>1576.8000488281</ele>
        <time>2022-08-21T07:31:11Z</time>
      </trkpt>
      <trkpt lat="44.03392" lon="6.51211">
        <ele>1576.4000244141</ele>
        <time>2022-08-21T07:31:14Z</time>
      </trkpt>
      <trkpt lat="44.03397" lon="6.51203">
        <ele>1575.5999755859</ele>
        <time>2022-08-21T07:31:18Z</time>
      </trkpt>
      <trkpt lat="44.03398" lon="6.51199">
        <ele>1575.1999511719</ele>
        <time>2022-08-21T07:31:20Z</time>
      </trkpt>
      <trkpt lat="44.03397" lon="6.5119">
        <ele>1574.5999755859</ele>
        <time>2022-08-21T07:31:23Z</time>
      </trkpt>
      <trkpt lat="44.03397" lon="6.51185">
        <ele>1574.4000244141</ele>
        <time>2022-08-21T07:31:25Z</time>
      </trkpt>
      <trkpt lat="44.03397" lon="6.51179">
        <ele>1574</ele>
        <time>2022-08-21T07:31:28Z</time>
      </trkpt>
      <trkpt lat="44.03398" lon="6.51172">
        <ele>1573.4000244141</ele>
        <time>2022-08-21T07:31:31Z</time>
      </trkpt>
      <trkpt lat="44.03398" lon="6.51169">
        <ele>1573</ele>
        <time>2022-08-21T07:31:32Z</time>
      </trkpt>
      <trkpt lat="44.034" lon="6.51164">
        <ele>1572.5999755859</ele>
        <time>2022-08-21T07:31:34Z</time>
      </trkpt>
      <trkpt lat="44.034" lon="6.51161">
        <ele>1572.1999511719</ele>
        <time>2022-08-21T07:31:36Z</time>
      </trkpt>
      <trkpt lat="44.03399" lon="6.51154">
        <ele>1571.4000244141</ele>
        <time>2022-08-21T07:31:39Z</time>
      </trkpt>
      <trkpt lat="44.03399" lon="6.51152">
        <ele>1571.1999511719</ele>
        <time>2022-08-21T07:31:40Z</time>
      </trkpt>
      <trkpt lat="44.03399" lon="6.51149">
        <ele>1571</ele>
        <time>2022-08-21T07:31:41Z</time>
      </trkpt>
      <trkpt lat="44.034" lon="6.51142">
        <ele>1570.1999511719</ele>
        <time>2022-08-21T07:31:44Z</time>
      </trkpt>
      <trkpt lat="44.034" lon="6.5114">
        <ele>1569.8000488281</ele>
        <time>2022-08-21T07:31:45Z</time>
      </trkpt>
      <trkpt lat="44.03401" lon="6.51139">
        <ele>1569.5999755859</ele>
        <time>2022-08-21T07:31:46Z</time>
      </trkpt>
      <trkpt lat="44.03403" lon="6.51136">
        <ele>1569.1999511719</ele>
        <time>2022-08-21T07:31:48Z</time>
      </trkpt>
      <trkpt lat="44.03406" lon="6.51135">
        <ele>1568.8000488281</ele>
        <time>2022-08-21T07:31:50Z</time>
      </trkpt>
      <trkpt lat="44.03409" lon="6.51134">
        <ele>1568</ele>
        <time>2022-08-21T07:31:53Z</time>
      </trkpt>
      <trkpt lat="44.03409" lon="6.51134">
        <ele>1567.5999755859</ele>
        <time>2022-08-21T07:31:55Z</time>
      </trkpt>
      <trkpt lat="44.03409" lon="6.51133">
        <ele>1567.4000244141</ele>
        <time>2022-08-21T07:31:58Z</time>
      </trkpt>
      <trkpt lat="44.03409" lon="6.51133">
        <ele>1567.1999511719</ele>
        <time>2022-08-21T07:31:59Z</time>
      </trkpt>
      <trkpt lat="44.0341" lon="6.51129">
        <ele>1566.5999755859</ele>
        <time>2022-08-21T07:32:04Z</time>
      </trkpt>
      <trkpt lat="44.0341" lon="6.51129">
        <ele>1566.4000244141</ele>
        <time>2022-08-21T07:32:07Z</time>
      </trkpt>
      <trkpt lat="44.0341" lon="6.51129">
        <ele>1566.4000244141</ele>
        <time>2022-08-21T07:32:08Z</time>
      </trkpt>
      <trkpt lat="44.0341" lon="6.51129">
        <ele>1566.4000244141</ele>
        <time>2022-08-21T07:32:12Z</time>
      </trkpt>
      <trkpt lat="44.0341" lon="6.51128">
        <ele>1566.4000244141</ele>
        <time>2022-08-21T07:32:15Z</time>
      </trkpt>
      <trkpt lat="44.03403" lon="6.51125">
        <ele>1566.4000244141</ele>
        <time>2022-08-21T07:32:22Z</time>
      </trkpt>
      <trkpt lat="44.03393" lon="6.51113">
        <ele>1566.4000244141</ele>
        <time>2022-08-21T07:32:29Z</time>
      </trkpt>
      <trkpt lat="44.03382" lon="6.51103">
        <ele>1566.4000244141</ele>
        <time>2022-08-21T07:32:35Z</time>
      </trkpt>
      <trkpt lat="44.03375" lon="6.51098">
        <ele>1566.4000244141</ele>
        <time>2022-08-21T07:32:38Z</time>
      </trkpt>
      <trkpt lat="44.03362" lon="6.51095">
        <ele>1566.1999511719</ele>
        <time>2022-08-21T07:32:42Z</time>
      </trkpt>
      <trkpt lat="44.03348" lon="6.51094">
        <ele>1566</ele>
        <time>2022-08-21T07:32:46Z</time>
      </trkpt>
      <trkpt lat="44.03339" lon="6.51094">
        <ele>1566</ele>
        <time>2022-08-21T07:32:49Z</time>
      </trkpt>
      <trkpt lat="44.03322" lon="6.51101">
        <ele>1566</ele>
        <time>2022-08-21T07:32:54Z</time>
      </trkpt>
      <trkpt lat="44.03307" lon="6.51112">
        <ele>1565.5999755859</ele>
        <time>2022-08-21T07:32:59Z</time>
      </trkpt>
      <trkpt lat="44.03284" lon="6.51139">
        <ele>1564.5999755859</ele>
        <time>2022-08-21T07:33:06Z</time>
      </trkpt>
      <trkpt lat="44.0328" lon="6.5115">
        <ele>1564.5999755859</ele>
        <time>2022-08-21T07:33:08Z</time>
      </trkpt>
      <trkpt lat="44.03277" lon="6.51161">
        <ele>1564.5999755859</ele>
        <time>2022-08-21T07:33:10Z</time>
      </trkpt>
      <trkpt lat="44.03275" lon="6.51173">
        <ele>1564.4000244141</ele>
        <time>2022-08-21T07:33:12Z</time>
      </trkpt>
      <trkpt lat="44.03275" lon="6.5118">
        <ele>1564.4000244141</ele>
        <time>2022-08-21T07:33:13Z</time>
      </trkpt>
      <trkpt lat="44.03273" lon="6.51193">
        <ele>1564</ele>
        <time>2022-08-21T07:33:15Z</time>
      </trkpt>
      <trkpt lat="44.03267" lon="6.51207">
        <ele>1563.5999755859</ele>
        <time>2022-08-21T07:33:17Z</time>
      </trkpt>
      <trkpt lat="44.03262" lon="6.51209">
        <ele>1563.1999511719</ele>
        <time>2022-08-21T07:33:18Z</time>
      </trkpt>
      <trkpt lat="44.03258" lon="6.51212">
        <ele>1563</ele>
        <time>2022-08-21T07:33:19Z</time>
      </trkpt>
      <trkpt lat="44.03249" lon="6.51214">
        <ele>1562.8000488281</ele>
        <time>2022-08-21T07:33:21Z</time>
      </trkpt>
      <trkpt lat="44.03245" lon="6.51216">
        <ele>1562.8000488281</ele>
        <time>2022-08-21T07:33:22Z</time>
      </trkpt>
      <trkpt lat="44.03231" lon="6.51224">
        <ele>1562.8000488281</ele>
        <time>2022-08-21T07:33:26Z</time>
      </trkpt>
      <trkpt lat="44.03227" lon="6.51227">
        <ele>1562.8000488281</ele>
        <time>2022-08-21T07:33:27Z</time>
      </trkpt>
      <trkpt lat="44.03207" lon="6.51249">
        <ele>1562.4000244141</ele>
        <time>2022-08-21T07:33:33Z</time>
      </trkpt>
      <trkpt lat="44.03188" lon="6.51273">
        <ele>1562.1999511719</ele>
        <time>2022-08-21T07:33:39Z</time>
      </trkpt>
      <trkpt lat="44.03184" lon="6.51277">
        <ele>1562.4000244141</ele>
        <time>2022-08-21T07:33:40Z</time>
      </trkpt>
      <trkpt lat="44.03178" lon="6.51284">
        <ele>1562.4000244141</ele>
        <time>2022-08-21T07:33:42Z</time>
      </trkpt>
      <trkpt lat="44.03171" lon="6.51289">
        <ele>1562.4000244141</ele>
        <time>2022-08-21T07:33:44Z</time>
      </trkpt>
      <trkpt lat="44.03168" lon="6.51291">
        <ele>1562.4000244141</ele>
        <time>2022-08-21T07:33:45Z</time>
      </trkpt>
      <trkpt lat="44.0316" lon="6.51304">
        <ele>1562.4000244141</ele>
        <time>2022-08-21T07:33:49Z</time>
      </trkpt>
      <trkpt lat="44.03154" lon="6.51315">
        <ele>1562.1999511719</ele>
        <time>2022-08-21T07:33:51Z</time>
      </trkpt>
      <trkpt lat="44.0315" lon="6.51331">
        <ele>1561.5999755859</ele>
        <time>2022-08-21T07:33:54Z</time>
      </trkpt>
      <trkpt lat="44.0315" lon="6.51338">
        <ele>1561.1999511719</ele>
        <time>2022-08-21T07:33:55Z</time>
      </trkpt>
      <trkpt lat="44.0315" lon="6.51365">
        <ele>1560.1999511719</ele>
        <time>2022-08-21T07:33:59Z</time>
      </trkpt>
      <trkpt lat="44.03149" lon="6.51371">
        <ele>1560.1999511719</ele>
        <time>2022-08-21T07:34:00Z</time>
      </trkpt>
      <trkpt lat="44.03145" lon="6.51406">
        <ele>1559.1999511719</ele>
        <time>2022-08-21T07:34:05Z</time>
      </trkpt>
      <trkpt lat="44.03144" lon="6.51413">
        <ele>1559</ele>
        <time>2022-08-21T07:34:06Z</time>
      </trkpt>
      <trkpt lat="44.03143" lon="6.51433">
        <ele>1558.5999755859</ele>
        <time>2022-08-21T07:34:09Z</time>
      </trkpt>
      <trkpt lat="44.03143" lon="6.51445">
        <ele>1558.4000244141</ele>
        <time>2022-08-21T07:34:11Z</time>
      </trkpt>
      <trkpt lat="44.03145" lon="6.51456">
        <ele>1558</ele>
        <time>2022-08-21T07:34:13Z</time>
      </trkpt>
      <trkpt lat="44.03144" lon="6.5146">
        <ele>1557.8000488281</ele>
        <time>2022-08-21T07:34:14Z</time>
      </trkpt>
      <trkpt lat="44.03143" lon="6.51464">
        <ele>1557.8000488281</ele>
        <time>2022-08-21T07:34:15Z</time>
      </trkpt>
      <trkpt lat="44.03133" lon="6.51472">
        <ele>1557</ele>
        <time>2022-08-21T07:34:18Z</time>
      </trkpt>
      <trkpt lat="44.0313" lon="6.51471">
        <ele>1556.5999755859</ele>
        <time>2022-08-21T07:34:19Z</time>
      </trkpt>
      <trkpt lat="44.03124" lon="6.51465">
        <ele>1556.1999511719</ele>
        <time>2022-08-21T07:34:21Z</time>
      </trkpt>
      <trkpt lat="44.0311" lon="6.51449">
        <ele>1555.5999755859</ele>
        <time>2022-08-21T07:34:26Z</time>
      </trkpt>
      <trkpt lat="44.03098" lon="6.51434">
        <ele>1554.4000244141</ele>
        <time>2022-08-21T07:34:30Z</time>
      </trkpt>
      <trkpt lat="44.03092" lon="6.51425">
        <ele>1553.8000488281</ele>
        <time>2022-08-21T07:34:32Z</time>
      </trkpt>
      <trkpt lat="44.03086" lon="6.51415">
        <ele>1553.1999511719</ele>
        <time>2022-08-21T07:34:34Z</time>
      </trkpt>
      <trkpt lat="44.03077" lon="6.51395">
        <ele>1551.8000488281</ele>
        <time>2022-08-21T07:34:38Z</time>
      </trkpt>
      <trkpt lat="44.03072" lon="6.51387">
        <ele>1551.4000244141</ele>
        <time>2022-08-21T07:34:40Z</time>
      </trkpt>
      <trkpt lat="44.03067" lon="6.5138">
        <ele>1550.5999755859</ele>
        <time>2022-08-21T07:34:42Z</time>
      </trkpt>
      <trkpt lat="44.03053" lon="6.51362">
        <ele>1549.5999755859</ele>
        <time>2022-08-21T07:34:46Z</time>
      </trkpt>
      <trkpt lat="44.03042" lon="6.51348">
        <ele>1548.4000244141</ele>
        <time>2022-08-21T07:34:49Z</time>
      </trkpt>
      <trkpt lat="44.0303" lon="6.51331">
        <ele>1547.1999511719</ele>
        <time>2022-08-21T07:34:52Z</time>
      </trkpt>
      <trkpt lat="44.03019" lon="6.51314">
        <ele>1546</ele>
        <time>2022-08-21T07:34:55Z</time>
      </trkpt>
      <trkpt lat="44.03011" lon="6.51302">
        <ele>1544.8000488281</ele>
        <time>2022-08-21T07:34:57Z</time>
      </trkpt>
      <trkpt lat="44.03005" lon="6.51292">
        <ele>1543.8000488281</ele>
        <time>2022-08-21T07:34:59Z</time>
      </trkpt>
      <trkpt lat="44.03003" lon="6.51287">
        <ele>1543.4000244141</ele>
        <time>2022-08-21T07:35:00Z</time>
      </trkpt>
      <trkpt lat="44.03001" lon="6.5128">
        <ele>1543</ele>
        <time>2022-08-21T07:35:01Z</time>
      </trkpt>
      <trkpt lat="44.02999" lon="6.51274">
        <ele>1542.5999755859</ele>
        <time>2022-08-21T07:35:02Z</time>
      </trkpt>
      <trkpt lat="44.02997" lon="6.51267">
        <ele>1542</ele>
        <time>2022-08-21T07:35:03Z</time>
      </trkpt>
      <trkpt lat="44.02995" lon="6.51261">
        <ele>1541.4000244141</ele>
        <time>2022-08-21T07:35:04Z</time>
      </trkpt>
      <trkpt lat="44.02991" lon="6.51252">
        <ele>1540.1999511719</ele>
        <time>2022-08-21T07:35:06Z</time>
      </trkpt>
      <trkpt lat="44.02987" lon="6.51241">
        <ele>1539.1999511719</ele>
        <time>2022-08-21T07:35:08Z</time>
      </trkpt>
      <trkpt lat="44.02981" lon="6.5123">
        <ele>1538</ele>
        <time>2022-08-21T07:35:10Z</time>
      </trkpt>
      <trkpt lat="44.02973" lon="6.51222">
        <ele>1537</ele>
        <time>2022-08-21T07:35:12Z</time>
      </trkpt>
      <trkpt lat="44.0296" lon="6.5121">
        <ele>1535.8000488281</ele>
        <time>2022-08-21T07:35:15Z</time>
      </trkpt>
      <trkpt lat="44.02951" lon="6.51206">
        <ele>1535</ele>
        <time>2022-08-21T07:35:17Z</time>
      </trkpt>
      <trkpt lat="44.02947" lon="6.51205">
        <ele>1534.8000488281</ele>
        <time>2022-08-21T07:35:18Z</time>
      </trkpt>
      <trkpt lat="44.02944" lon="6.51204">
        <ele>1534.5999755859</ele>
        <time>2022-08-21T07:35:19Z</time>
      </trkpt>
      <trkpt lat="44.02941" lon="6.51204">
        <ele>1534.1999511719</ele>
        <time>2022-08-21T07:35:20Z</time>
      </trkpt>
      <trkpt lat="44.02934" lon="6.51206">
        <ele>1533.8000488281</ele>
        <time>2022-08-21T07:35:22Z</time>
      </trkpt>
      <trkpt lat="44.02928" lon="6.51208">
        <ele>1533.1999511719</ele>
        <time>2022-08-21T07:35:24Z</time>
      </trkpt>
      <trkpt lat="44.02918" lon="6.51213">
        <ele>1532</ele>
        <time>2022-08-21T07:35:27Z</time>
      </trkpt>
      <trkpt lat="44.02915" lon="6.51216">
        <ele>1531.5999755859</ele>
        <time>2022-08-21T07:35:28Z</time>
      </trkpt>
      <trkpt lat="44.0291" lon="6.51223">
        <ele>1530.5999755859</ele>
        <time>2022-08-21T07:35:30Z</time>
      </trkpt>
      <trkpt lat="44.02905" lon="6.51233">
        <ele>1529.5999755859</ele>
        <time>2022-08-21T07:35:33Z</time>
      </trkpt>
      <trkpt lat="44.02902" lon="6.51246">
        <ele>1528.4000244141</ele>
        <time>2022-08-21T07:35:36Z</time>
      </trkpt>
      <trkpt lat="44.02898" lon="6.51258">
        <ele>1527.4000244141</ele>
        <time>2022-08-21T07:35:39Z</time>
      </trkpt>
      <trkpt lat="44.02897" lon="6.51262">
        <ele>1527</ele>
        <time>2022-08-21T07:35:40Z</time>
      </trkpt>
      <trkpt lat="44.02894" lon="6.51273">
        <ele>1526</ele>
        <time>2022-08-21T07:35:42Z</time>
      </trkpt>
      <trkpt lat="44.02888" lon="6.51284">
        <ele>1525.1999511719</ele>
        <time>2022-08-21T07:35:44Z</time>
      </trkpt>
      <trkpt lat="44.02885" lon="6.5129">
        <ele>1524.5999755859</ele>
        <time>2022-08-21T07:35:45Z</time>
      </trkpt>
      <trkpt lat="44.02882" lon="6.51295">
        <ele>1524.1999511719</ele>
        <time>2022-08-21T07:35:46Z</time>
      </trkpt>
      <trkpt lat="44.02876" lon="6.51304">
        <ele>1523.4000244141</ele>
        <time>2022-08-21T07:35:48Z</time>
      </trkpt>
      <trkpt lat="44.02867" lon="6.51315">
        <ele>1521.8000488281</ele>
        <time>2022-08-21T07:35:51Z</time>
      </trkpt>
      <trkpt lat="44.02864" lon="6.5132">
        <ele>1521.4000244141</ele>
        <time>2022-08-21T07:35:52Z</time>
      </trkpt>
      <trkpt lat="44.02857" lon="6.51329">
        <ele>1520.4000244141</ele>
        <time>2022-08-21T07:35:54Z</time>
      </trkpt>
      <trkpt lat="44.02851" lon="6.51338">
        <ele>1519.8000488281</ele>
        <time>2022-08-21T07:35:56Z</time>
      </trkpt>
      <trkpt lat="44.02846" lon="6.51346">
        <ele>1519.1999511719</ele>
        <time>2022-08-21T07:35:58Z</time>
      </trkpt>
      <trkpt lat="44.02843" lon="6.5135">
        <ele>1519</ele>
        <time>2022-08-21T07:35:59Z</time>
      </trkpt>
      <trkpt lat="44.0283" lon="6.5137">
        <ele>1518</ele>
        <time>2022-08-21T07:36:03Z</time>
      </trkpt>
      <trkpt lat="44.02822" lon="6.51377">
        <ele>1517.5999755859</ele>
        <time>2022-08-21T07:36:05Z</time>
      </trkpt>
      <trkpt lat="44.0282" lon="6.51378">
        <ele>1517.5999755859</ele>
        <time>2022-08-21T07:36:06Z</time>
      </trkpt>
      <trkpt lat="44.0281" lon="6.51375">
        <ele>1518.4000244141</ele>
        <time>2022-08-21T07:36:10Z</time>
      </trkpt>
      <trkpt lat="44.028" lon="6.51374">
        <ele>1519.1999511719</ele>
        <time>2022-08-21T07:36:14Z</time>
      </trkpt>
      <trkpt lat="44.02795" lon="6.51374">
        <ele>1519.5999755859</ele>
        <time>2022-08-21T07:36:16Z</time>
      </trkpt>
      <trkpt lat="44.0279" lon="6.51373">
        <ele>1520</ele>
        <time>2022-08-21T07:36:18Z</time>
      </trkpt>
      <trkpt lat="44.02788" lon="6.51373">
        <ele>1520.4000244141</ele>
        <time>2022-08-21T07:36:19Z</time>
      </trkpt>
      <trkpt lat="44.02779" lon="6.51371">
        <ele>1521</ele>
        <time>2022-08-21T07:36:23Z</time>
      </trkpt>
      <trkpt lat="44.02777" lon="6.51371">
        <ele>1521.4000244141</ele>
        <time>2022-08-21T07:36:24Z</time>
      </trkpt>
      <trkpt lat="44.02769" lon="6.51369">
        <ele>1522</ele>
        <time>2022-08-21T07:36:27Z</time>
      </trkpt>
      <trkpt lat="44.02764" lon="6.51368">
        <ele>1522.4000244141</ele>
        <time>2022-08-21T07:36:29Z</time>
      </trkpt>
      <trkpt lat="44.02762" lon="6.51368">
        <ele>1522.5999755859</ele>
        <time>2022-08-21T07:36:30Z</time>
      </trkpt>
      <trkpt lat="44.02759" lon="6.51368">
        <ele>1522.8000488281</ele>
        <time>2022-08-21T07:36:31Z</time>
      </trkpt>
      <trkpt lat="44.02754" lon="6.51368">
        <ele>1523.1999511719</ele>
        <time>2022-08-21T07:36:33Z</time>
      </trkpt>
      <trkpt lat="44.0275" lon="6.51367">
        <ele>1523.5999755859</ele>
        <time>2022-08-21T07:36:35Z</time>
      </trkpt>
      <trkpt lat="44.02742" lon="6.51367">
        <ele>1524.1999511719</ele>
        <time>2022-08-21T07:36:38Z</time>
      </trkpt>
      <trkpt lat="44.02738" lon="6.51368">
        <ele>1524.4000244141</ele>
        <time>2022-08-21T07:36:40Z</time>
      </trkpt>
      <trkpt lat="44.02736" lon="6.51368">
        <ele>1524.5999755859</ele>
        <time>2022-08-21T07:36:41Z</time>
      </trkpt>
      <trkpt lat="44.02734" lon="6.51368">
        <ele>1524.8000488281</ele>
        <time>2022-08-21T07:36:42Z</time>
      </trkpt>
      <trkpt lat="44.02728" lon="6.51369">
        <ele>1525.1999511719</ele>
        <time>2022-08-21T07:36:45Z</time>
      </trkpt>
      <trkpt lat="44.02726" lon="6.51368">
        <ele>1525.4000244141</ele>
        <time>2022-08-21T07:36:46Z</time>
      </trkpt>
      <trkpt lat="44.02723" lon="6.51368">
        <ele>1525.5999755859</ele>
        <time>2022-08-21T07:36:47Z</time>
      </trkpt>
      <trkpt lat="44.02721" lon="6.51368">
        <ele>1525.5999755859</ele>
        <time>2022-08-21T07:36:48Z</time>
      </trkpt>
      <trkpt lat="44.02718" lon="6.51368">
        <ele>1525.8000488281</ele>
        <time>2022-08-21T07:36:49Z</time>
      </trkpt>
      <trkpt lat="44.02708" lon="6.51366">
        <ele>1526.1999511719</ele>
        <time>2022-08-21T07:36:53Z</time>
      </trkpt>
      <trkpt lat="44.02702" lon="6.51366">
        <ele>1526.4000244141</ele>
        <time>2022-08-21T07:36:55Z</time>
      </trkpt>
      <trkpt lat="44.02697" lon="6.51367">
        <ele>1526.4000244141</ele>
        <time>2022-08-21T07:36:57Z</time>
      </trkpt>
      <trkpt lat="44.02692" lon="6.51368">
        <ele>1526.5999755859</ele>
        <time>2022-08-21T07:36:59Z</time>
      </trkpt>
      <trkpt lat="44.02689" lon="6.51368">
        <ele>1526.5999755859</ele>
        <time>2022-08-21T07:37:00Z</time>
      </trkpt>
      <trkpt lat="44.02681" lon="6.51369">
        <ele>1527</ele>
        <time>2022-08-21T07:37:03Z</time>
      </trkpt>
      <trkpt lat="44.02669" lon="6.5137">
        <ele>1527.5999755859</ele>
        <time>2022-08-21T07:37:08Z</time>
      </trkpt>
      <trkpt lat="44.02662" lon="6.5137">
        <ele>1528</ele>
        <time>2022-08-21T07:37:11Z</time>
      </trkpt>
      <trkpt lat="44.0265" lon="6.5137">
        <ele>1528.5999755859</ele>
        <time>2022-08-21T07:37:17Z</time>
      </trkpt>
      <trkpt lat="44.0264" lon="6.51373">
        <ele>1529</ele>
        <time>2022-08-21T07:37:22Z</time>
      </trkpt>
      <trkpt lat="44.0263" lon="6.51375">
        <ele>1529.4000244141</ele>
        <time>2022-08-21T07:37:26Z</time>
      </trkpt>
      <trkpt lat="44.02613" lon="6.51378">
        <ele>1530.1999511719</ele>
        <time>2022-08-21T07:37:34Z</time>
      </trkpt>
      <trkpt lat="44.02611" lon="6.51379">
        <ele>1530.1999511719</ele>
        <time>2022-08-21T07:37:35Z</time>
      </trkpt>
      <trkpt lat="44.02598" lon="6.51382">
        <ele>1531</ele>
        <time>2022-08-21T07:37:41Z</time>
      </trkpt>
      <trkpt lat="44.02596" lon="6.51382">
        <ele>1531.1999511719</ele>
        <time>2022-08-21T07:37:42Z</time>
      </trkpt>
      <trkpt lat="44.02591" lon="6.51383">
        <ele>1531.4000244141</ele>
        <time>2022-08-21T07:37:44Z</time>
      </trkpt>
      <trkpt lat="44.02583" lon="6.51385">
        <ele>1531.5999755859</ele>
        <time>2022-08-21T07:37:48Z</time>
      </trkpt>
      <trkpt lat="44.02573" lon="6.51388">
        <ele>1532.1999511719</ele>
        <time>2022-08-21T07:37:53Z</time>
      </trkpt>
      <trkpt lat="44.02564" lon="6.5139">
        <ele>1532.8000488281</ele>
        <time>2022-08-21T07:37:57Z</time>
      </trkpt>
      <trkpt lat="44.02553" lon="6.51396">
        <ele>1533.1999511719</ele>
        <time>2022-08-21T07:38:02Z</time>
      </trkpt>
      <trkpt lat="44.02548" lon="6.51399">
        <ele>1533.4000244141</ele>
        <time>2022-08-21T07:38:04Z</time>
      </trkpt>
      <trkpt lat="44.02539" lon="6.51403">
        <ele>1533.5999755859</ele>
        <time>2022-08-21T07:38:08Z</time>
      </trkpt>
      <trkpt lat="44.02522" lon="6.51409">
        <ele>1534</ele>
        <time>2022-08-21T07:38:15Z</time>
      </trkpt>
      <trkpt lat="44.02509" lon="6.51415">
        <ele>1534.4000244141</ele>
        <time>2022-08-21T07:38:21Z</time>
      </trkpt>
      <trkpt lat="44.02506" lon="6.51416">
        <ele>1534.4000244141</ele>
        <time>2022-08-21T07:38:22Z</time>
      </trkpt>
      <trkpt lat="44.02481" lon="6.51427">
        <ele>1535.1999511719</ele>
        <time>2022-08-21T07:38:32Z</time>
      </trkpt>
      <trkpt lat="44.02471" lon="6.5143">
        <ele>1535.4000244141</ele>
        <time>2022-08-21T07:38:36Z</time>
      </trkpt>
      <trkpt lat="44.02466" lon="6.51433">
        <ele>1535.4000244141</ele>
        <time>2022-08-21T07:38:38Z</time>
      </trkpt>
      <trkpt lat="44.02448" lon="6.51443">
        <ele>1536.1999511719</ele>
        <time>2022-08-21T07:38:46Z</time>
      </trkpt>
      <trkpt lat="44.02445" lon="6.51445">
        <ele>1536.5999755859</ele>
        <time>2022-08-21T07:38:48Z</time>
      </trkpt>
      <trkpt lat="44.02433" lon="6.51458">
        <ele>1537.5999755859</ele>
        <time>2022-08-21T07:38:55Z</time>
      </trkpt>
      <trkpt lat="44.02428" lon="6.51463">
        <ele>1538.1999511719</ele>
        <time>2022-08-21T07:38:59Z</time>
      </trkpt>
      <trkpt lat="44.02426" lon="6.51465">
        <ele>1538.4000244141</ele>
        <time>2022-08-21T07:39:00Z</time>
      </trkpt>
      <trkpt lat="44.02425" lon="6.51466">
        <ele>1538.5999755859</ele>
        <time>2022-08-21T07:39:01Z</time>
      </trkpt>
      <trkpt lat="44.02418" lon="6.51472">
        <ele>1539.8000488281</ele>
        <time>2022-08-21T07:39:06Z</time>
      </trkpt>
      <trkpt lat="44.02415" lon="6.51474">
        <ele>1540.1999511719</ele>
        <time>2022-08-21T07:39:08Z</time>
      </trkpt>
      <trkpt lat="44.02408" lon="6.51481">
        <ele>1540.8000488281</ele>
        <time>2022-08-21T07:39:12Z</time>
      </trkpt>
      <trkpt lat="44.02399" lon="6.51488">
        <ele>1541.1999511719</ele>
        <time>2022-08-21T07:39:16Z</time>
      </trkpt>
      <trkpt lat="44.02387" lon="6.51497">
        <ele>1541.5999755859</ele>
        <time>2022-08-21T07:39:21Z</time>
      </trkpt>
      <trkpt lat="44.02382" lon="6.515">
        <ele>1542</ele>
        <time>2022-08-21T07:39:24Z</time>
      </trkpt>
      <trkpt lat="44.0238" lon="6.51502">
        <ele>1542</ele>
        <time>2022-08-21T07:39:25Z</time>
      </trkpt>
      <trkpt lat="44.02368" lon="6.51513">
        <ele>1543.1999511719</ele>
        <time>2022-08-21T07:39:32Z</time>
      </trkpt>
      <trkpt lat="44.02366" lon="6.51514">
        <ele>1543.4000244141</ele>
        <time>2022-08-21T07:39:33Z</time>
      </trkpt>
      <trkpt lat="44.02362" lon="6.51517">
        <ele>1543.8000488281</ele>
        <time>2022-08-21T07:39:36Z</time>
      </trkpt>
      <trkpt lat="44.02358" lon="6.51522">
        <ele>1544.1999511719</ele>
        <time>2022-08-21T07:39:39Z</time>
      </trkpt>
      <trkpt lat="44.02357" lon="6.51523">
        <ele>1544.1999511719</ele>
        <time>2022-08-21T07:39:40Z</time>
      </trkpt>
      <trkpt lat="44.02346" lon="6.51532">
        <ele>1545.1999511719</ele>
        <time>2022-08-21T07:39:48Z</time>
      </trkpt>
      <trkpt lat="44.02336" lon="6.51545">
        <ele>1546.1999511719</ele>
        <time>2022-08-21T07:39:56Z</time>
      </trkpt>
      <trkpt lat="44.02334" lon="6.51548">
        <ele>1546.4000244141</ele>
        <time>2022-08-21T07:39:58Z</time>
      </trkpt>
      <trkpt lat="44.02327" lon="6.51556">
        <ele>1546.5999755859</ele>
        <time>2022-08-21T07:40:03Z</time>
      </trkpt>
      <trkpt lat="44.0232" lon="6.51562">
        <ele>1547.1999511719</ele>
        <time>2022-08-21T07:40:08Z</time>
      </trkpt>
      <trkpt lat="44.02319" lon="6.51563">
        <ele>1547.4000244141</ele>
        <time>2022-08-21T07:40:09Z</time>
      </trkpt>
      <trkpt lat="44.02309" lon="6.51574">
        <ele>1548.1999511719</ele>
        <time>2022-08-21T07:40:16Z</time>
      </trkpt>
      <trkpt lat="44.02304" lon="6.51579">
        <ele>1548.4000244141</ele>
        <time>2022-08-21T07:40:19Z</time>
      </trkpt>
      <trkpt lat="44.02293" lon="6.51589">
        <ele>1549.1999511719</ele>
        <time>2022-08-21T07:40:25Z</time>
      </trkpt>
      <trkpt lat="44.02282" lon="6.51598">
        <ele>1549.4000244141</ele>
        <time>2022-08-21T07:40:32Z</time>
      </trkpt>
      <trkpt lat="44.0228" lon="6.516">
        <ele>1549.5999755859</ele>
        <time>2022-08-21T07:40:33Z</time>
      </trkpt>
      <trkpt lat="44.02263" lon="6.51612">
        <ele>1550.5999755859</ele>
        <time>2022-08-21T07:40:42Z</time>
      </trkpt>
      <trkpt lat="44.02253" lon="6.51616">
        <ele>1551.1999511719</ele>
        <time>2022-08-21T07:40:47Z</time>
      </trkpt>
      <trkpt lat="44.02244" lon="6.51619">
        <ele>1551.5999755859</ele>
        <time>2022-08-21T07:40:51Z</time>
      </trkpt>
      <trkpt lat="44.02241" lon="6.5162">
        <ele>1551.8000488281</ele>
        <time>2022-08-21T07:40:52Z</time>
      </trkpt>
      <trkpt lat="44.02222" lon="6.51625">
        <ele>1552.4000244141</ele>
        <time>2022-08-21T07:41:00Z</time>
      </trkpt>
      <trkpt lat="44.02206" lon="6.51628">
        <ele>1552.8000488281</ele>
        <time>2022-08-21T07:41:06Z</time>
      </trkpt>
      <trkpt lat="44.02189" lon="6.51624">
        <ele>1553.8000488281</ele>
        <time>2022-08-21T07:41:14Z</time>
      </trkpt>
      <trkpt lat="44.02186" lon="6.51624">
        <ele>1554</ele>
        <time>2022-08-21T07:41:15Z</time>
      </trkpt>
      <trkpt lat="44.02167" lon="6.5162">
        <ele>1554.4000244141</ele>
        <time>2022-08-21T07:41:23Z</time>
      </trkpt>
      <trkpt lat="44.02165" lon="6.51619">
        <ele>1554.4000244141</ele>
        <time>2022-08-21T07:41:24Z</time>
      </trkpt>
      <trkpt lat="44.02158" lon="6.51618">
        <ele>1555</ele>
        <time>2022-08-21T07:41:27Z</time>
      </trkpt>
      <trkpt lat="44.02146" lon="6.51616">
        <ele>1556</ele>
        <time>2022-08-21T07:41:32Z</time>
      </trkpt>
      <trkpt lat="44.02144" lon="6.51616">
        <ele>1556.1999511719</ele>
        <time>2022-08-21T07:41:33Z</time>
      </trkpt>
      <trkpt lat="44.02129" lon="6.51615">
        <ele>1557</ele>
        <time>2022-08-21T07:41:39Z</time>
      </trkpt>
      <trkpt lat="44.02122" lon="6.51611">
        <ele>1557.1999511719</ele>
        <time>2022-08-21T07:41:42Z</time>
      </trkpt>
      <trkpt lat="44.02115" lon="6.51608">
        <ele>1557.1999511719</ele>
        <time>2022-08-21T07:41:45Z</time>
      </trkpt>
      <trkpt lat="44.02113" lon="6.51606">
        <ele>1557.1999511719</ele>
        <time>2022-08-21T07:41:48Z</time>
      </trkpt>
      <trkpt lat="44.02113" lon="6.51606">
        <ele>1557.1999511719</ele>
        <time>2022-08-21T07:41:49Z</time>
      </trkpt>
      <trkpt lat="44.02113" lon="6.51606">
        <ele>1557.4000244141</ele>
        <time>2022-08-21T07:41:50Z</time>
      </trkpt>
      <trkpt lat="44.02113" lon="6.51606">
        <ele>1557.5999755859</ele>
        <time>2022-08-21T07:41:52Z</time>
      </trkpt>
      <trkpt lat="44.02114" lon="6.51606">
        <ele>1557.5999755859</ele>
        <time>2022-08-21T07:41:56Z</time>
      </trkpt>
      <trkpt lat="44.02114" lon="6.51605">
        <ele>1557.5999755859</ele>
        <time>2022-08-21T07:41:57Z</time>
      </trkpt>
      <trkpt lat="44.02112" lon="6.51607">
        <ele>1557.5999755859</ele>
        <time>2022-08-21T07:42:05Z</time>
      </trkpt>
      <trkpt lat="44.02104" lon="6.51609">
        <ele>1557.1999511719</ele>
        <time>2022-08-21T07:42:08Z</time>
      </trkpt>
      <trkpt lat="44.02093" lon="6.51611">
        <ele>1557.1999511719</ele>
        <time>2022-08-21T07:42:11Z</time>
      </trkpt>
      <trkpt lat="44.02073" lon="6.51619">
        <ele>1556.1999511719</ele>
        <time>2022-08-21T07:42:16Z</time>
      </trkpt>
      <trkpt lat="44.02069" lon="6.51621">
        <ele>1556</ele>
        <time>2022-08-21T07:42:17Z</time>
      </trkpt>
      <trkpt lat="44.02059" lon="6.51628">
        <ele>1555.8000488281</ele>
        <time>2022-08-21T07:42:20Z</time>
      </trkpt>
      <trkpt lat="44.02047" lon="6.51636">
        <ele>1555.8000488281</ele>
        <time>2022-08-21T07:42:24Z</time>
      </trkpt>
      <trkpt lat="44.02035" lon="6.51645">
        <ele>1556.4000244141</ele>
        <time>2022-08-21T07:42:29Z</time>
      </trkpt>
      <trkpt lat="44.02027" lon="6.51649">
        <ele>1556.8000488281</ele>
        <time>2022-08-21T07:42:32Z</time>
      </trkpt>
      <trkpt lat="44.02017" lon="6.51649">
        <ele>1557</ele>
        <time>2022-08-21T07:42:36Z</time>
      </trkpt>
      <trkpt lat="44.02004" lon="6.5165">
        <ele>1557</ele>
        <time>2022-08-21T07:42:40Z</time>
      </trkpt>
      <trkpt lat="44.01993" lon="6.51651">
        <ele>1556.8000488281</ele>
        <time>2022-08-21T07:42:43Z</time>
      </trkpt>
      <trkpt lat="44.01968" lon="6.51646">
        <ele>1555.1999511719</ele>
        <time>2022-08-21T07:42:49Z</time>
      </trkpt>
      <trkpt lat="44.01963" lon="6.51645">
        <ele>1554.8000488281</ele>
        <time>2022-08-21T07:42:50Z</time>
      </trkpt>
      <trkpt lat="44.01953" lon="6.51643">
        <ele>1553.8000488281</ele>
        <time>2022-08-21T07:42:52Z</time>
      </trkpt>
      <trkpt lat="44.01943" lon="6.5164">
        <ele>1553</ele>
        <time>2022-08-21T07:42:54Z</time>
      </trkpt>
      <trkpt lat="44.01938" lon="6.51638">
        <ele>1552.1999511719</ele>
        <time>2022-08-21T07:42:55Z</time>
      </trkpt>
      <trkpt lat="44.01927" lon="6.51636">
        <ele>1551.1999511719</ele>
        <time>2022-08-21T07:42:57Z</time>
      </trkpt>
      <trkpt lat="44.01919" lon="6.51635">
        <ele>1550</ele>
        <time>2022-08-21T07:42:59Z</time>
      </trkpt>
      <trkpt lat="44.01914" lon="6.51634">
        <ele>1549.5999755859</ele>
        <time>2022-08-21T07:43:00Z</time>
      </trkpt>
      <trkpt lat="44.01906" lon="6.51632">
        <ele>1548.5999755859</ele>
        <time>2022-08-21T07:43:02Z</time>
      </trkpt>
      <trkpt lat="44.019" lon="6.5163">
        <ele>1548</ele>
        <time>2022-08-21T07:43:04Z</time>
      </trkpt>
      <trkpt lat="44.01894" lon="6.51627">
        <ele>1547.5999755859</ele>
        <time>2022-08-21T07:43:07Z</time>
      </trkpt>
      <trkpt lat="44.01893" lon="6.51626">
        <ele>1547.5999755859</ele>
        <time>2022-08-21T07:43:08Z</time>
      </trkpt>
      <trkpt lat="44.01892" lon="6.51625">
        <ele>1547.5999755859</ele>
        <time>2022-08-21T07:43:09Z</time>
      </trkpt>
      <trkpt lat="44.01888" lon="6.51626">
        <ele>1547.4000244141</ele>
        <time>2022-08-21T07:43:11Z</time>
      </trkpt>
      <trkpt lat="44.01885" lon="6.51629">
        <ele>1547.1999511719</ele>
        <time>2022-08-21T07:43:14Z</time>
      </trkpt>
      <trkpt lat="44.01884" lon="6.51632">
        <ele>1547.1999511719</ele>
        <time>2022-08-21T07:43:16Z</time>
      </trkpt>
      <trkpt lat="44.01884" lon="6.51634">
        <ele>1547.1999511719</ele>
        <time>2022-08-21T07:43:17Z</time>
      </trkpt>
      <trkpt lat="44.01885" lon="6.51638">
        <ele>1547.4000244141</ele>
        <time>2022-08-21T07:43:21Z</time>
      </trkpt>
      <trkpt lat="44.01887" lon="6.51637">
        <ele>1547.5999755859</ele>
        <time>2022-08-21T07:43:28Z</time>
      </trkpt>
      <trkpt lat="44.01887" lon="6.51637">
        <ele>1547.4000244141</ele>
        <time>2022-08-21T07:43:34Z</time>
      </trkpt>
      <trkpt lat="44.01887" lon="6.51638">
        <ele>1547.4000244141</ele>
        <time>2022-08-21T07:43:35Z</time>
      </trkpt>
      <trkpt lat="44.01888" lon="6.51638">
        <ele>1547.5999755859</ele>
        <time>2022-08-21T07:43:39Z</time>
      </trkpt>
      <trkpt lat="44.01887" lon="6.5164">
        <ele>1548.5999755859</ele>
        <time>2022-08-21T07:43:46Z</time>
      </trkpt>
      <trkpt lat="44.01885" lon="6.5164">
        <ele>1548.1999511719</ele>
        <time>2022-08-21T07:43:57Z</time>
      </trkpt>
      <trkpt lat="44.01883" lon="6.51636">
        <ele>1548</ele>
        <time>2022-08-21T07:44:03Z</time>
      </trkpt>
      <trkpt lat="44.0188" lon="6.51637">
        <ele>1547.8000488281</ele>
        <time>2022-08-21T07:44:05Z</time>
      </trkpt>
      <trkpt lat="44.01878" lon="6.51638">
        <ele>1547.8000488281</ele>
        <time>2022-08-21T07:44:06Z</time>
      </trkpt>
      <trkpt lat="44.01867" lon="6.51636">
        <ele>1548.1999511719</ele>
        <time>2022-08-21T07:44:11Z</time>
      </trkpt>
      <trkpt lat="44.0186" lon="6.51628">
        <ele>1548.5999755859</ele>
        <time>2022-08-21T07:44:15Z</time>
      </trkpt>
      <trkpt lat="44.01859" lon="6.51624">
        <ele>1548.8000488281</ele>
        <time>2022-08-21T07:44:17Z</time>
      </trkpt>
      <trkpt lat="44.01856" lon="6.51619">
        <ele>1549.1999511719</ele>
        <time>2022-08-21T07:44:19Z</time>
      </trkpt>
      <trkpt lat="44.01851" lon="6.51609">
        <ele>1549.5999755859</ele>
        <time>2022-08-21T07:44:23Z</time>
      </trkpt>
      <trkpt lat="44.01844" lon="6.51599">
        <ele>1550.1999511719</ele>
        <time>2022-08-21T07:44:27Z</time>
      </trkpt>
      <trkpt lat="44.01839" lon="6.51597">
        <ele>1550.4000244141</ele>
        <time>2022-08-21T07:44:29Z</time>
      </trkpt>
      <trkpt lat="44.01837" lon="6.51595">
        <ele>1550.4000244141</ele>
        <time>2022-08-21T07:44:30Z</time>
      </trkpt>
      <trkpt lat="44.01834" lon="6.51593">
        <ele>1550.5999755859</ele>
        <time>2022-08-21T07:44:32Z</time>
      </trkpt>
      <trkpt lat="44.01824" lon="6.51589">
        <ele>1551.5999755859</ele>
        <time>2022-08-21T07:44:38Z</time>
      </trkpt>
      <trkpt lat="44.01823" lon="6.51589">
        <ele>1551.8000488281</ele>
        <time>2022-08-21T07:44:39Z</time>
      </trkpt>
      <trkpt lat="44.01816" lon="6.51586">
        <ele>1552.1999511719</ele>
        <time>2022-08-21T07:44:43Z</time>
      </trkpt>
      <trkpt lat="44.01813" lon="6.51585">
        <ele>1552.4000244141</ele>
        <time>2022-08-21T07:44:45Z</time>
      </trkpt>
      <trkpt lat="44.01808" lon="6.51585">
        <ele>1552.8000488281</ele>
        <time>2022-08-21T07:44:48Z</time>
      </trkpt>
      <trkpt lat="44.01802" lon="6.51584">
        <ele>1553.4000244141</ele>
        <time>2022-08-21T07:44:52Z</time>
      </trkpt>
      <trkpt lat="44.01801" lon="6.51584">
        <ele>1553.5999755859</ele>
        <time>2022-08-21T07:44:53Z</time>
      </trkpt>
      <trkpt lat="44.01798" lon="6.51583">
        <ele>1554</ele>
        <time>2022-08-21T07:44:55Z</time>
      </trkpt>
      <trkpt lat="44.01788" lon="6.51582">
        <ele>1554.8000488281</ele>
        <time>2022-08-21T07:45:01Z</time>
      </trkpt>
      <trkpt lat="44.01787" lon="6.51583">
        <ele>1555</ele>
        <time>2022-08-21T07:45:02Z</time>
      </trkpt>
      <trkpt lat="44.01776" lon="6.51582">
        <ele>1556</ele>
        <time>2022-08-21T07:45:09Z</time>
      </trkpt>
      <trkpt lat="44.01774" lon="6.51582">
        <ele>1556</ele>
        <time>2022-08-21T07:45:10Z</time>
      </trkpt>
      <trkpt lat="44.0177" lon="6.51584">
        <ele>1556.4000244141</ele>
        <time>2022-08-21T07:45:13Z</time>
      </trkpt>
      <trkpt lat="44.01765" lon="6.51587">
        <ele>1557</ele>
        <time>2022-08-21T07:45:17Z</time>
      </trkpt>
      <trkpt lat="44.01763" lon="6.51588">
        <ele>1557.1999511719</ele>
        <time>2022-08-21T07:45:18Z</time>
      </trkpt>
      <trkpt lat="44.0176" lon="6.5159">
        <ele>1557.4000244141</ele>
        <time>2022-08-21T07:45:20Z</time>
      </trkpt>
      <trkpt lat="44.01756" lon="6.51594">
        <ele>1557.8000488281</ele>
        <time>2022-08-21T07:45:24Z</time>
      </trkpt>
      <trkpt lat="44.01754" lon="6.51595">
        <ele>1558.1999511719</ele>
        <time>2022-08-21T07:45:26Z</time>
      </trkpt>
      <trkpt lat="44.01747" lon="6.51598">
        <ele>1558.8000488281</ele>
        <time>2022-08-21T07:45:31Z</time>
      </trkpt>
      <trkpt lat="44.01744" lon="6.51601">
        <ele>1559.1999511719</ele>
        <time>2022-08-21T07:45:34Z</time>
      </trkpt>
      <trkpt lat="44.0174" lon="6.51606">
        <ele>1559.5999755859</ele>
        <time>2022-08-21T07:45:38Z</time>
      </trkpt>
      <trkpt lat="44.01735" lon="6.51612">
        <ele>1560.4000244141</ele>
        <time>2022-08-21T07:45:43Z</time>
      </trkpt>
      <trkpt lat="44.01733" lon="6.51615">
        <ele>1560.5999755859</ele>
        <time>2022-08-21T07:45:45Z</time>
      </trkpt>
      <trkpt lat="44.01723" lon="6.51628">
        <ele>1561.4000244141</ele>
        <time>2022-08-21T07:45:53Z</time>
      </trkpt>
      <trkpt lat="44.01722" lon="6.5163">
        <ele>1561.5999755859</ele>
        <time>2022-08-21T07:45:54Z</time>
      </trkpt>
      <trkpt lat="44.01714" lon="6.51638">
        <ele>1562.4000244141</ele>
        <time>2022-08-21T07:46:00Z</time>
      </trkpt>
      <trkpt lat="44.01709" lon="6.51644">
        <ele>1563.1999511719</ele>
        <time>2022-08-21T07:46:04Z</time>
      </trkpt>
      <trkpt lat="44.01705" lon="6.51647">
        <ele>1563.5999755859</ele>
        <time>2022-08-21T07:46:07Z</time>
      </trkpt>
      <trkpt lat="44.017" lon="6.51652">
        <ele>1564</ele>
        <time>2022-08-21T07:46:11Z</time>
      </trkpt>
      <trkpt lat="44.01695" lon="6.51656">
        <ele>1564.5999755859</ele>
        <time>2022-08-21T07:46:15Z</time>
      </trkpt>
      <trkpt lat="44.01691" lon="6.51658">
        <ele>1565.1999511719</ele>
        <time>2022-08-21T07:46:18Z</time>
      </trkpt>
      <trkpt lat="44.01686" lon="6.51663">
        <ele>1565.8000488281</ele>
        <time>2022-08-21T07:46:22Z</time>
      </trkpt>
      <trkpt lat="44.01682" lon="6.51666">
        <ele>1566.4000244141</ele>
        <time>2022-08-21T07:46:26Z</time>
      </trkpt>
      <trkpt lat="44.01678" lon="6.51668">
        <ele>1566.8000488281</ele>
        <time>2022-08-21T07:46:29Z</time>
      </trkpt>
      <trkpt lat="44.01672" lon="6.5167">
        <ele>1567.5999755859</ele>
        <time>2022-08-21T07:46:34Z</time>
      </trkpt>
      <trkpt lat="44.01669" lon="6.51672">
        <ele>1568</ele>
        <time>2022-08-21T07:46:36Z</time>
      </trkpt>
      <trkpt lat="44.01667" lon="6.51673">
        <ele>1568.1999511719</ele>
        <time>2022-08-21T07:46:38Z</time>
      </trkpt>
      <trkpt lat="44.01663" lon="6.51675">
        <ele>1568.4000244141</ele>
        <time>2022-08-21T07:46:41Z</time>
      </trkpt>
      <trkpt lat="44.01658" lon="6.51679">
        <ele>1569</ele>
        <time>2022-08-21T07:46:46Z</time>
      </trkpt>
      <trkpt lat="44.01655" lon="6.5168">
        <ele>1569.4000244141</ele>
        <time>2022-08-21T07:46:48Z</time>
      </trkpt>
      <trkpt lat="44.01653" lon="6.51682">
        <ele>1569.5999755859</ele>
        <time>2022-08-21T07:46:50Z</time>
      </trkpt>
      <trkpt lat="44.01648" lon="6.51686">
        <ele>1570</ele>
        <time>2022-08-21T07:46:54Z</time>
      </trkpt>
      <trkpt lat="44.01648" lon="6.51687">
        <ele>1570</ele>
        <time>2022-08-21T07:46:55Z</time>
      </trkpt>
      <trkpt lat="44.01638" lon="6.5169">
        <ele>1571</ele>
        <time>2022-08-21T07:47:03Z</time>
      </trkpt>
      <trkpt lat="44.01636" lon="6.5169">
        <ele>1571.1999511719</ele>
        <time>2022-08-21T07:47:04Z</time>
      </trkpt>
      <trkpt lat="44.01628" lon="6.51693">
        <ele>1572</ele>
        <time>2022-08-21T07:47:11Z</time>
      </trkpt>
      <trkpt lat="44.01627" lon="6.51694">
        <ele>1572.1999511719</ele>
        <time>2022-08-21T07:47:12Z</time>
      </trkpt>
      <trkpt lat="44.01621" lon="6.51703">
        <ele>1573.1999511719</ele>
        <time>2022-08-21T07:47:20Z</time>
      </trkpt>
      <trkpt lat="44.01621" lon="6.51704">
        <ele>1573.4000244141</ele>
        <time>2022-08-21T07:47:21Z</time>
      </trkpt>
      <trkpt lat="44.0162" lon="6.51707">
        <ele>1573.5999755859</ele>
        <time>2022-08-21T07:47:23Z</time>
      </trkpt>
      <trkpt lat="44.01617" lon="6.51711">
        <ele>1574</ele>
        <time>2022-08-21T07:47:27Z</time>
      </trkpt>
      <trkpt lat="44.01616" lon="6.51716">
        <ele>1574.4000244141</ele>
        <time>2022-08-21T07:47:30Z</time>
      </trkpt>
      <trkpt lat="44.01616" lon="6.51727">
        <ele>1575</ele>
        <time>2022-08-21T07:47:36Z</time>
      </trkpt>
      <trkpt lat="44.01618" lon="6.51736">
        <ele>1575.4000244141</ele>
        <time>2022-08-21T07:47:41Z</time>
      </trkpt>
      <trkpt lat="44.01619" lon="6.51741">
        <ele>1575.8000488281</ele>
        <time>2022-08-21T07:47:44Z</time>
      </trkpt>
      <trkpt lat="44.0162" lon="6.51756">
        <ele>1576.4000244141</ele>
        <time>2022-08-21T07:47:52Z</time>
      </trkpt>
      <trkpt lat="44.01621" lon="6.51757">
        <ele>1576.5999755859</ele>
        <time>2022-08-21T07:47:53Z</time>
      </trkpt>
      <trkpt lat="44.01624" lon="6.51768">
        <ele>1577.4000244141</ele>
        <time>2022-08-21T07:48:00Z</time>
      </trkpt>
      <trkpt lat="44.01624" lon="6.5177">
        <ele>1577.5999755859</ele>
        <time>2022-08-21T07:48:01Z</time>
      </trkpt>
      <trkpt lat="44.01626" lon="6.51774">
        <ele>1578</ele>
        <time>2022-08-21T07:48:04Z</time>
      </trkpt>
      <trkpt lat="44.01627" lon="6.51778">
        <ele>1578.1999511719</ele>
        <time>2022-08-21T07:48:06Z</time>
      </trkpt>
      <trkpt lat="44.01626" lon="6.51779">
        <ele>1578.4000244141</ele>
        <time>2022-08-21T07:48:07Z</time>
      </trkpt>
      <trkpt lat="44.01627" lon="6.51781">
        <ele>1578.5999755859</ele>
        <time>2022-08-21T07:48:08Z</time>
      </trkpt>
      <trkpt lat="44.01627" lon="6.51791">
        <ele>1579.4000244141</ele>
        <time>2022-08-21T07:48:15Z</time>
      </trkpt>
      <trkpt lat="44.01627" lon="6.51793">
        <ele>1579.5999755859</ele>
        <time>2022-08-21T07:48:16Z</time>
      </trkpt>
      <trkpt lat="44.01626" lon="6.51803">
        <ele>1580.5999755859</ele>
        <time>2022-08-21T07:48:24Z</time>
      </trkpt>
      <trkpt lat="44.01627" lon="6.51807">
        <ele>1581</ele>
        <time>2022-08-21T07:48:28Z</time>
      </trkpt>
      <trkpt lat="44.01626" lon="6.51813">
        <ele>1581.1999511719</ele>
        <time>2022-08-21T07:48:31Z</time>
      </trkpt>
      <trkpt lat="44.01624" lon="6.51822">
        <ele>1581.5999755859</ele>
        <time>2022-08-21T07:48:35Z</time>
      </trkpt>
      <trkpt lat="44.01623" lon="6.51828">
        <ele>1582</ele>
        <time>2022-08-21T07:48:38Z</time>
      </trkpt>
      <trkpt lat="44.01622" lon="6.51829">
        <ele>1582</ele>
        <time>2022-08-21T07:48:39Z</time>
      </trkpt>
      <trkpt lat="44.01616" lon="6.51838">
        <ele>1582.8000488281</ele>
        <time>2022-08-21T07:48:46Z</time>
      </trkpt>
      <trkpt lat="44.01615" lon="6.51842">
        <ele>1583</ele>
        <time>2022-08-21T07:48:49Z</time>
      </trkpt>
      <trkpt lat="44.01612" lon="6.51856">
        <ele>1583.8000488281</ele>
        <time>2022-08-21T07:48:57Z</time>
      </trkpt>
      <trkpt lat="44.01612" lon="6.51858">
        <ele>1584</ele>
        <time>2022-08-21T07:48:58Z</time>
      </trkpt>
      <trkpt lat="44.01609" lon="6.51872">
        <ele>1584.5999755859</ele>
        <time>2022-08-21T07:49:05Z</time>
      </trkpt>
      <trkpt lat="44.01608" lon="6.51878">
        <ele>1585</ele>
        <time>2022-08-21T07:49:08Z</time>
      </trkpt>
      <trkpt lat="44.01605" lon="6.51888">
        <ele>1585.5999755859</ele>
        <time>2022-08-21T07:49:14Z</time>
      </trkpt>
      <trkpt lat="44.01603" lon="6.51895">
        <ele>1586</ele>
        <time>2022-08-21T07:49:18Z</time>
      </trkpt>
      <trkpt lat="44.01603" lon="6.51897">
        <ele>1586.1999511719</ele>
        <time>2022-08-21T07:49:19Z</time>
      </trkpt>
      <trkpt lat="44.01603" lon="6.51903">
        <ele>1586.5999755859</ele>
        <time>2022-08-21T07:49:22Z</time>
      </trkpt>
      <trkpt lat="44.016" lon="6.51909">
        <ele>1587</ele>
        <time>2022-08-21T07:49:26Z</time>
      </trkpt>
      <trkpt lat="44.01599" lon="6.51911">
        <ele>1587</ele>
        <time>2022-08-21T07:49:27Z</time>
      </trkpt>
      <trkpt lat="44.01597" lon="6.51916">
        <ele>1587.4000244141</ele>
        <time>2022-08-21T07:49:30Z</time>
      </trkpt>
      <trkpt lat="44.01595" lon="6.51928">
        <ele>1588.1999511719</ele>
        <time>2022-08-21T07:49:36Z</time>
      </trkpt>
      <trkpt lat="44.01596" lon="6.51943">
        <ele>1589.1999511719</ele>
        <time>2022-08-21T07:49:44Z</time>
      </trkpt>
      <trkpt lat="44.01597" lon="6.51947">
        <ele>1589.4000244141</ele>
        <time>2022-08-21T07:49:46Z</time>
      </trkpt>
      <trkpt lat="44.01597" lon="6.5195">
        <ele>1589.5999755859</ele>
        <time>2022-08-21T07:49:48Z</time>
      </trkpt>
      <trkpt lat="44.01597" lon="6.51956">
        <ele>1590.1999511719</ele>
        <time>2022-08-21T07:49:52Z</time>
      </trkpt>
      <trkpt lat="44.01597" lon="6.51958">
        <ele>1590.1999511719</ele>
        <time>2022-08-21T07:49:53Z</time>
      </trkpt>
      <trkpt lat="44.01599" lon="6.51976">
        <ele>1591</ele>
        <time>2022-08-21T07:50:02Z</time>
      </trkpt>
      <trkpt lat="44.016" lon="6.5198">
        <ele>1591.1999511719</ele>
        <time>2022-08-21T07:50:04Z</time>
      </trkpt>
      <trkpt lat="44.01601" lon="6.51984">
        <ele>1591.4000244141</ele>
        <time>2022-08-21T07:50:06Z</time>
      </trkpt>
      <trkpt lat="44.01604" lon="6.51991">
        <ele>1591.8000488281</ele>
        <time>2022-08-21T07:50:10Z</time>
      </trkpt>
      <trkpt lat="44.01606" lon="6.51996">
        <ele>1592</ele>
        <time>2022-08-21T07:50:13Z</time>
      </trkpt>
      <trkpt lat="44.01608" lon="6.52003">
        <ele>1592.4000244141</ele>
        <time>2022-08-21T07:50:17Z</time>
      </trkpt>
      <trkpt lat="44.01611" lon="6.52014">
        <ele>1593</ele>
        <time>2022-08-21T07:50:23Z</time>
      </trkpt>
      <trkpt lat="44.01613" lon="6.52023">
        <ele>1593.4000244141</ele>
        <time>2022-08-21T07:50:28Z</time>
      </trkpt>
      <trkpt lat="44.01613" lon="6.52029">
        <ele>1593.5999755859</ele>
        <time>2022-08-21T07:50:31Z</time>
      </trkpt>
      <trkpt lat="44.01614" lon="6.52048">
        <ele>1593.8000488281</ele>
        <time>2022-08-21T07:50:40Z</time>
      </trkpt>
      <trkpt lat="44.01614" lon="6.52053">
        <ele>1593.8000488281</ele>
        <time>2022-08-21T07:50:42Z</time>
      </trkpt>
      <trkpt lat="44.01612" lon="6.52069">
        <ele>1594.4000244141</ele>
        <time>2022-08-21T07:50:50Z</time>
      </trkpt>
      <trkpt lat="44.01611" lon="6.52071">
        <ele>1594.4000244141</ele>
        <time>2022-08-21T07:50:51Z</time>
      </trkpt>
      <trkpt lat="44.01606" lon="6.52082">
        <ele>1595</ele>
        <time>2022-08-21T07:50:57Z</time>
      </trkpt>
      <trkpt lat="44.01603" lon="6.5209">
        <ele>1595.4000244141</ele>
        <time>2022-08-21T07:51:02Z</time>
      </trkpt>
      <trkpt lat="44.01602" lon="6.52095">
        <ele>1595.8000488281</ele>
        <time>2022-08-21T07:51:05Z</time>
      </trkpt>
      <trkpt lat="44.01599" lon="6.52103">
        <ele>1596.4000244141</ele>
        <time>2022-08-21T07:51:10Z</time>
      </trkpt>
      <trkpt lat="44.01598" lon="6.52109">
        <ele>1596.8000488281</ele>
        <time>2022-08-21T07:51:13Z</time>
      </trkpt>
      <trkpt lat="44.01597" lon="6.52122">
        <ele>1597.4000244141</ele>
        <time>2022-08-21T07:51:20Z</time>
      </trkpt>
      <trkpt lat="44.01595" lon="6.52143">
        <ele>1598.5999755859</ele>
        <time>2022-08-21T07:51:31Z</time>
      </trkpt>
      <trkpt lat="44.0159" lon="6.52165">
        <ele>1599.5999755859</ele>
        <time>2022-08-21T07:51:42Z</time>
      </trkpt>
      <trkpt lat="44.01586" lon="6.52178">
        <ele>1600.4000244141</ele>
        <time>2022-08-21T07:51:49Z</time>
      </trkpt>
      <trkpt lat="44.01585" lon="6.52181">
        <ele>1600.5999755859</ele>
        <time>2022-08-21T07:51:51Z</time>
      </trkpt>
      <trkpt lat="44.01583" lon="6.52192">
        <ele>1601.1999511719</ele>
        <time>2022-08-21T07:51:57Z</time>
      </trkpt>
      <trkpt lat="44.01583" lon="6.52194">
        <ele>1601.1999511719</ele>
        <time>2022-08-21T07:51:58Z</time>
      </trkpt>
      <trkpt lat="44.01585" lon="6.52202">
        <ele>1601.8000488281</ele>
        <time>2022-08-21T07:52:02Z</time>
      </trkpt>
      <trkpt lat="44.01585" lon="6.52204">
        <ele>1602</ele>
        <time>2022-08-21T07:52:03Z</time>
      </trkpt>
      <trkpt lat="44.01587" lon="6.52215">
        <ele>1602.8000488281</ele>
        <time>2022-08-21T07:52:09Z</time>
      </trkpt>
      <trkpt lat="44.01588" lon="6.52219">
        <ele>1603.1999511719</ele>
        <time>2022-08-21T07:52:11Z</time>
      </trkpt>
      <trkpt lat="44.0159" lon="6.52227">
        <ele>1603.8000488281</ele>
        <time>2022-08-21T07:52:16Z</time>
      </trkpt>
      <trkpt lat="44.0159" lon="6.52234">
        <ele>1604.4000244141</ele>
        <time>2022-08-21T07:52:20Z</time>
      </trkpt>
      <trkpt lat="44.01586" lon="6.52243">
        <ele>1605</ele>
        <time>2022-08-21T07:52:25Z</time>
      </trkpt>
      <trkpt lat="44.01585" lon="6.52244">
        <ele>1605.1999511719</ele>
        <time>2022-08-21T07:52:26Z</time>
      </trkpt>
      <trkpt lat="44.01583" lon="6.52245">
        <ele>1605.4000244141</ele>
        <time>2022-08-21T07:52:28Z</time>
      </trkpt>
      <trkpt lat="44.01582" lon="6.52245">
        <ele>1605.4000244141</ele>
        <time>2022-08-21T07:52:29Z</time>
      </trkpt>
      <trkpt lat="44.01579" lon="6.52243">
        <ele>1605.8000488281</ele>
        <time>2022-08-21T07:52:32Z</time>
      </trkpt>
      <trkpt lat="44.01579" lon="6.52243">
        <ele>1605.8000488281</ele>
        <time>2022-08-21T07:52:33Z</time>
      </trkpt>
      <trkpt lat="44.01579" lon="6.52243">
        <ele>1605.8000488281</ele>
        <time>2022-08-21T07:52:35Z</time>
      </trkpt>
      <trkpt lat="44.01579" lon="6.52244">
        <ele>1605.8000488281</ele>
        <time>2022-08-21T07:52:40Z</time>
      </trkpt>
      <trkpt lat="44.0158" lon="6.52244">
        <ele>1606</ele>
        <time>2022-08-21T07:52:41Z</time>
      </trkpt>
      <trkpt lat="44.01579" lon="6.52244">
        <ele>1606.1999511719</ele>
        <time>2022-08-21T07:52:46Z</time>
      </trkpt>
      <trkpt lat="44.01579" lon="6.52246">
        <ele>1605.8000488281</ele>
        <time>2022-08-21T07:52:55Z</time>
      </trkpt>
      <trkpt lat="44.01578" lon="6.52246">
        <ele>1606.4000244141</ele>
        <time>2022-08-21T07:53:00Z</time>
      </trkpt>
      <trkpt lat="44.01578" lon="6.52246">
        <ele>1606.5999755859</ele>
        <time>2022-08-21T07:53:04Z</time>
      </trkpt>
      <trkpt lat="44.01578" lon="6.52246">
        <ele>1606.4000244141</ele>
        <time>2022-08-21T07:53:07Z</time>
      </trkpt>
      <trkpt lat="44.01572" lon="6.52242">
        <ele>1606.1999511719</ele>
        <time>2022-08-21T07:53:16Z</time>
      </trkpt>
      <trkpt lat="44.01569" lon="6.52241">
        <ele>1606.4000244141</ele>
        <time>2022-08-21T07:53:18Z</time>
      </trkpt>
      <trkpt lat="44.01566" lon="6.52239">
        <ele>1606.4000244141</ele>
        <time>2022-08-21T07:53:20Z</time>
      </trkpt>
      <trkpt lat="44.01561" lon="6.52237">
        <ele>1606.5999755859</ele>
        <time>2022-08-21T07:53:23Z</time>
      </trkpt>
      <trkpt lat="44.01557" lon="6.52236">
        <ele>1607</ele>
        <time>2022-08-21T07:53:26Z</time>
      </trkpt>
      <trkpt lat="44.01556" lon="6.52236">
        <ele>1607</ele>
        <time>2022-08-21T07:53:27Z</time>
      </trkpt>
      <trkpt lat="44.01551" lon="6.52235">
        <ele>1607.4000244141</ele>
        <time>2022-08-21T07:53:31Z</time>
      </trkpt>
      <trkpt lat="44.01549" lon="6.52235">
        <ele>1607.5999755859</ele>
        <time>2022-08-21T07:53:33Z</time>
      </trkpt>
      <trkpt lat="44.01548" lon="6.52235">
        <ele>1607.8000488281</ele>
        <time>2022-08-21T07:53:34Z</time>
      </trkpt>
      <trkpt lat="44.01545" lon="6.52235">
        <ele>1608</ele>
        <time>2022-08-21T07:53:36Z</time>
      </trkpt>
      <trkpt lat="44.01541" lon="6.52236">
        <ele>1608.4000244141</ele>
        <time>2022-08-21T07:53:38Z</time>
      </trkpt>
      <trkpt lat="44.0154" lon="6.52236">
        <ele>1608.4000244141</ele>
        <time>2022-08-21T07:53:39Z</time>
      </trkpt>
      <trkpt lat="44.01533" lon="6.5224">
        <ele>1609</ele>
        <time>2022-08-21T07:53:45Z</time>
      </trkpt>
      <trkpt lat="44.01532" lon="6.52241">
        <ele>1609.1999511719</ele>
        <time>2022-08-21T07:53:46Z</time>
      </trkpt>
      <trkpt lat="44.0153" lon="6.52241">
        <ele>1609.4000244141</ele>
        <time>2022-08-21T07:53:47Z</time>
      </trkpt>
      <trkpt lat="44.01525" lon="6.52244">
        <ele>1610</ele>
        <time>2022-08-21T07:53:51Z</time>
      </trkpt>
      <trkpt lat="44.01524" lon="6.52245">
        <ele>1610.1999511719</ele>
        <time>2022-08-21T07:53:52Z</time>
      </trkpt>
      <trkpt lat="44.01517" lon="6.52247">
        <ele>1611</ele>
        <time>2022-08-21T07:54:00Z</time>
      </trkpt>
      <trkpt lat="44.01518" lon="6.52248">
        <ele>1611.1999511719</ele>
        <time>2022-08-21T07:54:03Z</time>
      </trkpt>
      <trkpt lat="44.01518" lon="6.52248">
        <ele>1611</ele>
        <time>2022-08-21T07:54:06Z</time>
      </trkpt>
      <trkpt lat="44.01518" lon="6.52249">
        <ele>1611</ele>
        <time>2022-08-21T07:54:10Z</time>
      </trkpt>
      <trkpt lat="44.01522" lon="6.52247">
        <ele>1610.8000488281</ele>
        <time>2022-08-21T07:54:14Z</time>
      </trkpt>
      <trkpt lat="44.0153" lon="6.52243">
        <ele>1610.4000244141</ele>
        <time>2022-08-21T07:54:18Z</time>
      </trkpt>
      <trkpt lat="44.01544" lon="6.52237">
        <ele>1609.4000244141</ele>
        <time>2022-08-21T07:54:22Z</time>
      </trkpt>
      <trkpt lat="44.01548" lon="6.52236">
        <ele>1609</ele>
        <time>2022-08-21T07:54:23Z</time>
      </trkpt>
      <trkpt lat="44.01552" lon="6.52236">
        <ele>1608.8000488281</ele>
        <time>2022-08-21T07:54:24Z</time>
      </trkpt>
      <trkpt lat="44.01562" lon="6.52238">
        <ele>1606.5999755859</ele>
        <time>2022-08-21T07:54:27Z</time>
      </trkpt>
      <trkpt lat="44.01568" lon="6.52241">
        <ele>1606.5999755859</ele>
        <time>2022-08-21T07:54:29Z</time>
      </trkpt>
      <trkpt lat="44.01573" lon="6.52243">
        <ele>1607</ele>
        <time>2022-08-21T07:54:31Z</time>
      </trkpt>
      <trkpt lat="44.01577" lon="6.52246">
        <ele>1607.4000244141</ele>
        <time>2022-08-21T07:54:33Z</time>
      </trkpt>
      <trkpt lat="44.01586" lon="6.52246">
        <ele>1607.4000244141</ele>
        <time>2022-08-21T07:54:37Z</time>
      </trkpt>
      <trkpt lat="44.01587" lon="6.52246">
        <ele>1607.4000244141</ele>
        <time>2022-08-21T07:54:38Z</time>
      </trkpt>
      <trkpt lat="44.01587" lon="6.52246">
        <ele>1607.4000244141</ele>
        <time>2022-08-21T07:54:41Z</time>
      </trkpt>
      <trkpt lat="44.01587" lon="6.52246">
        <ele>1607.4000244141</ele>
        <time>2022-08-21T07:54:42Z</time>
      </trkpt>
      <trkpt lat="44.01588" lon="6.52247">
        <ele>1607.5999755859</ele>
        <time>2022-08-21T07:54:45Z</time>
      </trkpt>
      <trkpt lat="44.0159" lon="6.52247">
        <ele>1608</ele>
        <time>2022-08-21T07:54:47Z</time>
      </trkpt>
      <trkpt lat="44.01592" lon="6.52249">
        <ele>1608.5999755859</ele>
        <time>2022-08-21T07:54:50Z</time>
      </trkpt>
      <trkpt lat="44.01592" lon="6.5225">
        <ele>1609.1999511719</ele>
        <time>2022-08-21T07:54:52Z</time>
      </trkpt>
      <trkpt lat="44.01592" lon="6.5225">
        <ele>1609.4000244141</ele>
        <time>2022-08-21T07:54:54Z</time>
      </trkpt>
      <trkpt lat="44.01591" lon="6.5225">
        <ele>1609.5999755859</ele>
        <time>2022-08-21T07:54:56Z</time>
      </trkpt>
      <trkpt lat="44.01591" lon="6.5225">
        <ele>1609.8000488281</ele>
        <time>2022-08-21T07:54:58Z</time>
      </trkpt>
      <trkpt lat="44.01592" lon="6.52252">
        <ele>1610.4000244141</ele>
        <time>2022-08-21T07:55:02Z</time>
      </trkpt>
      <trkpt lat="44.01592" lon="6.52252">
        <ele>1610.8000488281</ele>
        <time>2022-08-21T07:55:05Z</time>
      </trkpt>
      <trkpt lat="44.01592" lon="6.52252">
        <ele>1610.8000488281</ele>
        <time>2022-08-21T07:55:07Z</time>
      </trkpt>
      <trkpt lat="44.01592" lon="6.52254">
        <ele>1611</ele>
        <time>2022-08-21T07:55:14Z</time>
      </trkpt>
      <trkpt lat="44.01594" lon="6.52256">
        <ele>1612</ele>
        <time>2022-08-21T07:55:18Z</time>
      </trkpt>
      <trkpt lat="44.01594" lon="6.52258">
        <ele>1612.4000244141</ele>
        <time>2022-08-21T07:55:20Z</time>
      </trkpt>
      <trkpt lat="44.01595" lon="6.52261">
        <ele>1613</ele>
        <time>2022-08-21T07:55:24Z</time>
      </trkpt>
      <trkpt lat="44.01595" lon="6.52262">
        <ele>1613.5999755859</ele>
        <time>2022-08-21T07:55:26Z</time>
      </trkpt>
      <trkpt lat="44.01596" lon="6.52263">
        <ele>1614.1999511719</ele>
        <time>2022-08-21T07:55:30Z</time>
      </trkpt>
      <trkpt lat="44.01596" lon="6.5226">
        <ele>1614</ele>
        <time>2022-08-21T07:55:35Z</time>
      </trkpt>
      <trkpt lat="44.01594" lon="6.52257">
        <ele>1613</ele>
        <time>2022-08-21T07:55:38Z</time>
      </trkpt>
      <trkpt lat="44.01593" lon="6.52255">
        <ele>1612.1999511719</ele>
        <time>2022-08-21T07:55:42Z</time>
      </trkpt>
      <trkpt lat="44.01593" lon="6.52255">
        <ele>1612</ele>
        <time>2022-08-21T07:55:43Z</time>
      </trkpt>
      <trkpt lat="44.01593" lon="6.52255">
        <ele>1611.4000244141</ele>
        <time>2022-08-21T07:55:49Z</time>
      </trkpt>
      <trkpt lat="44.01595" lon="6.52261">
        <ele>1613.1999511719</ele>
        <time>2022-08-21T07:56:01Z</time>
      </trkpt>
      <trkpt lat="44.01595" lon="6.52262">
        <ele>1613.8000488281</ele>
        <time>2022-08-21T07:56:03Z</time>
      </trkpt>
      <trkpt lat="44.01594" lon="6.52264">
        <ele>1614.4000244141</ele>
        <time>2022-08-21T07:56:07Z</time>
      </trkpt>
      <trkpt lat="44.01594" lon="6.52264">
        <ele>1614.5999755859</ele>
        <time>2022-08-21T07:56:11Z</time>
      </trkpt>
      <trkpt lat="44.01595" lon="6.52264">
        <ele>1614.5999755859</ele>
        <time>2022-08-21T07:56:16Z</time>
      </trkpt>
      <trkpt lat="44.01594" lon="6.52263">
        <ele>1614.5999755859</ele>
        <time>2022-08-21T07:56:23Z</time>
      </trkpt>
      <trkpt lat="44.01592" lon="6.52261">
        <ele>1614.5999755859</ele>
        <time>2022-08-21T07:56:32Z</time>
      </trkpt>
      <trkpt lat="44.01593" lon="6.52261">
        <ele>1614.4000244141</ele>
        <time>2022-08-21T07:56:41Z</time>
      </trkpt>
      <trkpt lat="44.01593" lon="6.52261">
        <ele>1614.4000244141</ele>
        <time>2022-08-21T07:56:44Z</time>
      </trkpt>
      <trkpt lat="44.01593" lon="6.52261">
        <ele>1614.1999511719</ele>
        <time>2022-08-21T07:56:51Z</time>
      </trkpt>
      <trkpt lat="44.01593" lon="6.52261">
        <ele>1614.4000244141</ele>
        <time>2022-08-21T07:56:56Z</time>
      </trkpt>
      <trkpt lat="44.01592" lon="6.52263">
        <ele>1614.5999755859</ele>
        <time>2022-08-21T07:57:01Z</time>
      </trkpt>
      <trkpt lat="44.01591" lon="6.52265">
        <ele>1615.8000488281</ele>
        <time>2022-08-21T07:57:05Z</time>
      </trkpt>
      <trkpt lat="44.0159" lon="6.52268">
        <ele>1617</ele>
        <time>2022-08-21T07:57:09Z</time>
      </trkpt>
      <trkpt lat="44.01588" lon="6.52269">
        <ele>1617.5999755859</ele>
        <time>2022-08-21T07:57:13Z</time>
      </trkpt>
      <trkpt lat="44.01588" lon="6.5227">
        <ele>1618</ele>
        <time>2022-08-21T07:57:14Z</time>
      </trkpt>
      <trkpt lat="44.01587" lon="6.52271">
        <ele>1618.4000244141</ele>
        <time>2022-08-21T07:57:16Z</time>
      </trkpt>
      <trkpt lat="44.01587" lon="6.5227">
        <ele>1619</ele>
        <time>2022-08-21T07:57:19Z</time>
      </trkpt>
      <trkpt lat="44.01587" lon="6.52269">
        <ele>1619.5999755859</ele>
        <time>2022-08-21T07:57:22Z</time>
      </trkpt>
      <trkpt lat="44.01586" lon="6.52268">
        <ele>1620.1999511719</ele>
        <time>2022-08-21T07:57:24Z</time>
      </trkpt>
      <trkpt lat="44.01586" lon="6.52269">
        <ele>1620.5999755859</ele>
        <time>2022-08-21T07:57:28Z</time>
      </trkpt>
      <trkpt lat="44.01585" lon="6.52269">
        <ele>1620.5999755859</ele>
        <time>2022-08-21T07:57:30Z</time>
      </trkpt>
      <trkpt lat="44.01582" lon="6.52271">
        <ele>1620.8000488281</ele>
        <time>2022-08-21T07:57:35Z</time>
      </trkpt>
      <trkpt lat="44.01581" lon="6.52272">
        <ele>1621</ele>
        <time>2022-08-21T07:57:38Z</time>
      </trkpt>
      <trkpt lat="44.01581" lon="6.52272">
        <ele>1621.4000244141</ele>
        <time>2022-08-21T07:57:39Z</time>
      </trkpt>
      <trkpt lat="44.01581" lon="6.52272">
        <ele>1621.8000488281</ele>
        <time>2022-08-21T07:57:41Z</time>
      </trkpt>
      <trkpt lat="44.01581" lon="6.52271">
        <ele>1621.8000488281</ele>
        <time>2022-08-21T07:57:51Z</time>
      </trkpt>
      <trkpt lat="44.01582" lon="6.52273">
        <ele>1621.5999755859</ele>
        <time>2022-08-21T07:58:04Z</time>
      </trkpt>
      <trkpt lat="44.01583" lon="6.52272">
        <ele>1622.4000244141</ele>
        <time>2022-08-21T07:58:11Z</time>
      </trkpt>
      <trkpt lat="44.01583" lon="6.52271">
        <ele>1622.8000488281</ele>
        <time>2022-08-21T07:58:15Z</time>
      </trkpt>
      <trkpt lat="44.01583" lon="6.5227">
        <ele>1623</ele>
        <time>2022-08-21T07:58:24Z</time>
      </trkpt>
      <trkpt lat="44.01583" lon="6.5227">
        <ele>1622.8000488281</ele>
        <time>2022-08-21T07:58:25Z</time>
      </trkpt>
      <trkpt lat="44.01583" lon="6.5227">
        <ele>1622.8000488281</ele>
        <time>2022-08-21T07:58:27Z</time>
      </trkpt>
      <trkpt lat="44.01584" lon="6.52273">
        <ele>1622.8000488281</ele>
        <time>2022-08-21T07:58:41Z</time>
      </trkpt>
      <trkpt lat="44.01584" lon="6.52273">
        <ele>1623</ele>
        <time>2022-08-21T07:58:48Z</time>
      </trkpt>
      <trkpt lat="44.01584" lon="6.52272">
        <ele>1623</ele>
        <time>2022-08-21T07:58:55Z</time>
      </trkpt>
      <trkpt lat="44.01584" lon="6.52272">
        <ele>1623</ele>
        <time>2022-08-21T07:58:56Z</time>
      </trkpt>
      <trkpt lat="44.01585" lon="6.5227">
        <ele>1622.5999755859</ele>
        <time>2022-08-21T07:59:05Z</time>
      </trkpt>
      <trkpt lat="44.01585" lon="6.52269">
        <ele>1622.8000488281</ele>
        <time>2022-08-21T07:59:08Z</time>
      </trkpt>
      <trkpt lat="44.01586" lon="6.52268">
        <ele>1622.8000488281</ele>
        <time>2022-08-21T07:59:09Z</time>
      </trkpt>
      <trkpt lat="44.01587" lon="6.52268">
        <ele>1623</ele>
        <time>2022-08-21T07:59:11Z</time>
      </trkpt>
      <trkpt lat="44.01587" lon="6.52266">
        <ele>1623</ele>
        <time>2022-08-21T07:59:17Z</time>
      </trkpt>
      <trkpt lat="44.01586" lon="6.52267">
        <ele>1623</ele>
        <time>2022-08-21T07:59:22Z</time>
      </trkpt>
      <trkpt lat="44.01586" lon="6.52267">
        <ele>1623</ele>
        <time>2022-08-21T07:59:23Z</time>
      </trkpt>
      <trkpt lat="44.01586" lon="6.52267">
        <ele>1623</ele>
        <time>2022-08-21T07:59:24Z</time>
      </trkpt>
      <trkpt lat="44.01586" lon="6.52267">
        <ele>1623</ele>
        <time>2022-08-21T07:59:25Z</time>
      </trkpt>
      <trkpt lat="44.01585" lon="6.52268">
        <ele>1623</ele>
        <time>2022-08-21T07:59:27Z</time>
      </trkpt>
      <trkpt lat="44.01584" lon="6.52269">
        <ele>1623</ele>
        <time>2022-08-21T07:59:38Z</time>
      </trkpt>
      <trkpt lat="44.01584" lon="6.52268">
        <ele>1623</ele>
        <time>2022-08-21T07:59:43Z</time>
      </trkpt>
      <trkpt lat="44.01584" lon="6.52269">
        <ele>1623</ele>
        <time>2022-08-21T07:59:45Z</time>
      </trkpt>
      <trkpt lat="44.01583" lon="6.52268">
        <ele>1623</ele>
        <time>2022-08-21T07:59:52Z</time>
      </trkpt>
      <trkpt lat="44.01583" lon="6.52268">
        <ele>1623</ele>
        <time>2022-08-21T07:59:58Z</time>
      </trkpt>
      <trkpt lat="44.01584" lon="6.52268">
        <ele>1623</ele>
        <time>2022-08-21T08:00:03Z</time>
      </trkpt>
      <trkpt lat="44.01584" lon="6.52269">
        <ele>1623</ele>
        <time>2022-08-21T08:00:06Z</time>
      </trkpt>
      <trkpt lat="44.01584" lon="6.52269">
        <ele>1623</ele>
        <time>2022-08-21T08:00:08Z</time>
      </trkpt>
      <trkpt lat="44.01584" lon="6.52269">
        <ele>1623</ele>
        <time>2022-08-21T08:00:10Z</time>
      </trkpt>
      <trkpt lat="44.01584" lon="6.52269">
        <ele>1623</ele>
        <time>2022-08-21T08:00:11Z</time>
      </trkpt>
      <trkpt lat="44.01584" lon="6.52269">
        <ele>1623</ele>
        <time>2022-08-21T08:00:15Z</time>
      </trkpt>
      <trkpt lat="44.01584" lon="6.52269">
        <ele>1623</ele>
        <time>2022-08-21T08:00:19Z</time>
      </trkpt>
      <trkpt lat="44.01583" lon="6.52269">
        <ele>1623</ele>
        <time>2022-08-21T08:00:28Z</time>
      </trkpt>
      <trkpt lat="44.01583" lon="6.52268">
        <ele>1623</ele>
        <time>2022-08-21T08:00:34Z</time>
      </trkpt>
      <trkpt lat="44.01583" lon="6.52268">
        <ele>1623</ele>
        <time>2022-08-21T08:00:44Z</time>
      </trkpt>
      <trkpt lat="44.01583" lon="6.52268">
        <ele>1623</ele>
        <time>2022-08-21T08:00:49Z</time>
      </trkpt>
      <trkpt lat="44.01582" lon="6.52268">
        <ele>1623</ele>
        <time>2022-08-21T08:00:59Z</time>
      </trkpt>
      <trkpt lat="44.01583" lon="6.52268">
        <ele>1623</ele>
        <time>2022-08-21T08:01:09Z</time>
      </trkpt>
      <trkpt lat="44.01583" lon="6.52268">
        <ele>1623</ele>
        <time>2022-08-21T08:01:11Z</time>
      </trkpt>
      <trkpt lat="44.01583" lon="6.52269">
        <ele>1623</ele>
        <time>2022-08-21T08:01:13Z</time>
      </trkpt>
      <trkpt lat="44.01584" lon="6.52269">
        <ele>1623</ele>
        <time>2022-08-21T08:01:17Z</time>
      </trkpt>
      <trkpt lat="44.01584" lon="6.52269">
        <ele>1623</ele>
        <time>2022-08-21T08:01:21Z</time>
      </trkpt>
      <trkpt lat="44.01584" lon="6.52269">
        <ele>1623</ele>
        <time>2022-08-21T08:01:24Z</time>
      </trkpt>
      <trkpt lat="44.01584" lon="6.52269">
        <ele>1623</ele>
        <time>2022-08-21T08:01:30Z</time>
      </trkpt>
      <trkpt lat="44.01584" lon="6.52268">
        <ele>1623</ele>
        <time>2022-08-21T08:01:41Z</time>
      </trkpt>
      <trkpt lat="44.01584" lon="6.52268">
        <ele>1623</ele>
        <time>2022-08-21T08:01:42Z</time>
      </trkpt>
      <trkpt lat="44.01586" lon="6.52268">
        <ele>1623</ele>
        <time>2022-08-21T08:01:54Z</time>
      </trkpt>
      <trkpt lat="44.01587" lon="6.52267">
        <ele>1623</ele>
        <time>2022-08-21T08:01:59Z</time>
      </trkpt>
      <trkpt lat="44.01587" lon="6.52267">
        <ele>1623</ele>
        <time>2022-08-21T08:02:05Z</time>
      </trkpt>
      <trkpt lat="44.01587" lon="6.52267">
        <ele>1623</ele>
        <time>2022-08-21T08:02:09Z</time>
      </trkpt>
      <trkpt lat="44.01587" lon="6.52267">
        <ele>1623</ele>
        <time>2022-08-21T08:02:25Z</time>
      </trkpt>
      <trkpt lat="44.01586" lon="6.52267">
        <ele>1623</ele>
        <time>2022-08-21T08:02:26Z</time>
      </trkpt>
      <trkpt lat="44.01588" lon="6.52267">
        <ele>1623</ele>
        <time>2022-08-21T08:02:38Z</time>
      </trkpt>
      <trkpt lat="44.01588" lon="6.52267">
        <ele>1623</ele>
        <time>2022-08-21T08:02:42Z</time>
      </trkpt>
      <trkpt lat="44.01586" lon="6.52267">
        <ele>1623</ele>
        <time>2022-08-21T08:02:52Z</time>
      </trkpt>
      <trkpt lat="44.01586" lon="6.52268">
        <ele>1623</ele>
        <time>2022-08-21T08:02:56Z</time>
      </trkpt>
      <trkpt lat="44.01587" lon="6.52269">
        <ele>1623</ele>
        <time>2022-08-21T08:03:12Z</time>
      </trkpt>
      <trkpt lat="44.01589" lon="6.52267">
        <ele>1623</ele>
        <time>2022-08-21T08:03:29Z</time>
      </trkpt>
      <trkpt lat="44.01588" lon="6.52266">
        <ele>1623</ele>
        <time>2022-08-21T08:03:43Z</time>
      </trkpt>
      <trkpt lat="44.01589" lon="6.52266">
        <ele>1623</ele>
        <time>2022-08-21T08:03:48Z</time>
      </trkpt>
      <trkpt lat="44.01589" lon="6.52266">
        <ele>1623</ele>
        <time>2022-08-21T08:03:57Z</time>
      </trkpt>
      <trkpt lat="44.01589" lon="6.52266">
        <ele>1623</ele>
        <time>2022-08-21T08:04:00Z</time>
      </trkpt>
      <trkpt lat="44.01589" lon="6.52266">
        <ele>1623</ele>
        <time>2022-08-21T08:04:04Z</time>
      </trkpt>
      <trkpt lat="44.0159" lon="6.52267">
        <ele>1623</ele>
        <time>2022-08-21T08:04:15Z</time>
      </trkpt>
      <trkpt lat="44.01589" lon="6.52269">
        <ele>1623</ele>
        <time>2022-08-21T08:04:28Z</time>
      </trkpt>
      <trkpt lat="44.01588" lon="6.52268">
        <ele>1623</ele>
        <time>2022-08-21T08:04:41Z</time>
      </trkpt>
      <trkpt lat="44.01588" lon="6.52268">
        <ele>1623</ele>
        <time>2022-08-21T08:04:43Z</time>
      </trkpt>
      <trkpt lat="44.01588" lon="6.52266">
        <ele>1623</ele>
        <time>2022-08-21T08:04:55Z</time>
      </trkpt>
      <trkpt lat="44.01588" lon="6.52265">
        <ele>1623</ele>
        <time>2022-08-21T08:05:00Z</time>
      </trkpt>
      <trkpt lat="44.01587" lon="6.52262">
        <ele>1623</ele>
        <time>2022-08-21T08:05:11Z</time>
      </trkpt>
      <trkpt lat="44.01587" lon="6.52262">
        <ele>1623</ele>
        <time>2022-08-21T08:05:16Z</time>
      </trkpt>
      <trkpt lat="44.01585" lon="6.52264">
        <ele>1623</ele>
        <time>2022-08-21T08:05:27Z</time>
      </trkpt>
      <trkpt lat="44.01586" lon="6.52265">
        <ele>1623</ele>
        <time>2022-08-21T08:05:32Z</time>
      </trkpt>
      <trkpt lat="44.01587" lon="6.52265">
        <ele>1623</ele>
        <time>2022-08-21T08:05:38Z</time>
      </trkpt>
      <trkpt lat="44.01587" lon="6.52265">
        <ele>1623</ele>
        <time>2022-08-21T08:05:40Z</time>
      </trkpt>
      <trkpt lat="44.01587" lon="6.52265">
        <ele>1623</ele>
        <time>2022-08-21T08:05:41Z</time>
      </trkpt>
      <trkpt lat="44.01587" lon="6.52265">
        <ele>1623</ele>
        <time>2022-08-21T08:05:42Z</time>
      </trkpt>
      <trkpt lat="44.01587" lon="6.52265">
        <ele>1623</ele>
        <time>2022-08-21T08:05:44Z</time>
      </trkpt>
      <trkpt lat="44.01586" lon="6.52265">
        <ele>1623</ele>
        <time>2022-08-21T08:05:52Z</time>
      </trkpt>
      <trkpt lat="44.01585" lon="6.52266">
        <ele>1623</ele>
        <time>2022-08-21T08:05:58Z</time>
      </trkpt>
      <trkpt lat="44.01585" lon="6.52266">
        <ele>1623</ele>
        <time>2022-08-21T08:05:59Z</time>
      </trkpt>
      <trkpt lat="44.01583" lon="6.52266">
        <ele>1623</ele>
        <time>2022-08-21T08:06:10Z</time>
      </trkpt>
      <trkpt lat="44.01585" lon="6.52268">
        <ele>1623</ele>
        <time>2022-08-21T08:06:20Z</time>
      </trkpt>
      <trkpt lat="44.01586" lon="6.5227">
        <ele>1623</ele>
        <time>2022-08-21T08:06:32Z</time>
      </trkpt>
      <trkpt lat="44.01585" lon="6.52269">
        <ele>1623</ele>
        <time>2022-08-21T08:06:42Z</time>
      </trkpt>
      <trkpt lat="44.01585" lon="6.5227">
        <ele>1623</ele>
        <time>2022-08-21T08:06:51Z</time>
      </trkpt>
      <trkpt lat="44.01585" lon="6.5227">
        <ele>1623</ele>
        <time>2022-08-21T08:06:54Z</time>
      </trkpt>
      <trkpt lat="44.01584" lon="6.52269">
        <ele>1623</ele>
        <time>2022-08-21T08:07:03Z</time>
      </trkpt>
      <trkpt lat="44.01584" lon="6.5227">
        <ele>1623</ele>
        <time>2022-08-21T08:07:06Z</time>
      </trkpt>
      <trkpt lat="44.01584" lon="6.5227">
        <ele>1623</ele>
        <time>2022-08-21T08:07:09Z</time>
      </trkpt>
      <trkpt lat="44.01583" lon="6.5227">
        <ele>1623</ele>
        <time>2022-08-21T08:07:12Z</time>
      </trkpt>
      <trkpt lat="44.01583" lon="6.5227">
        <ele>1623</ele>
        <time>2022-08-21T08:07:17Z</time>
      </trkpt>
      <trkpt lat="44.01583" lon="6.5227">
        <ele>1623</ele>
        <time>2022-08-21T08:07:23Z</time>
      </trkpt>
      <trkpt lat="44.01583" lon="6.52269">
        <ele>1623</ele>
        <time>2022-08-21T08:07:34Z</time>
      </trkpt>
      <trkpt lat="44.01583" lon="6.52269">
        <ele>1623</ele>
        <time>2022-08-21T08:07:38Z</time>
      </trkpt>
      <trkpt lat="44.01583" lon="6.52268">
        <ele>1623</ele>
        <time>2022-08-21T08:07:44Z</time>
      </trkpt>
      <trkpt lat="44.01583" lon="6.52268">
        <ele>1623</ele>
        <time>2022-08-21T08:07:51Z</time>
      </trkpt>
      <trkpt lat="44.01583" lon="6.52267">
        <ele>1623</ele>
        <time>2022-08-21T08:08:02Z</time>
      </trkpt>
      <trkpt lat="44.01584" lon="6.52267">
        <ele>1623</ele>
        <time>2022-08-21T08:08:05Z</time>
      </trkpt>
      <trkpt lat="44.01584" lon="6.52267">
        <ele>1623</ele>
        <time>2022-08-21T08:08:06Z</time>
      </trkpt>
      <trkpt lat="44.01584" lon="6.52267">
        <ele>1623</ele>
        <time>2022-08-21T08:08:08Z</time>
      </trkpt>
      <trkpt lat="44.01584" lon="6.52267">
        <ele>1623</ele>
        <time>2022-08-21T08:08:09Z</time>
      </trkpt>
      <trkpt lat="44.01584" lon="6.52266">
        <ele>1623</ele>
        <time>2022-08-21T08:08:12Z</time>
      </trkpt>
      <trkpt lat="44.01584" lon="6.52266">
        <ele>1623</ele>
        <time>2022-08-21T08:08:15Z</time>
      </trkpt>
      <trkpt lat="44.01582" lon="6.52267">
        <ele>1618.1999511719</ele>
        <time>2022-08-21T08:08:19Z</time>
      </trkpt>
      <trkpt lat="44.01582" lon="6.52267">
        <ele>1618.1999511719</ele>
        <time>2022-08-21T08:08:22Z</time>
      </trkpt>
      <trkpt lat="44.01579" lon="6.52269">
        <ele>1618.4000244141</ele>
        <time>2022-08-21T08:08:30Z</time>
      </trkpt>
      <trkpt lat="44.01578" lon="6.52269">
        <ele>1618.4000244141</ele>
        <time>2022-08-21T08:08:33Z</time>
      </trkpt>
      <trkpt lat="44.01578" lon="6.52269">
        <ele>1618.4000244141</ele>
        <time>2022-08-21T08:08:37Z</time>
      </trkpt>
      <trkpt lat="44.01578" lon="6.52269">
        <ele>1618.5999755859</ele>
        <time>2022-08-21T08:08:42Z</time>
      </trkpt>
      <trkpt lat="44.01578" lon="6.52269">
        <ele>1618.5999755859</ele>
        <time>2022-08-21T08:08:47Z</time>
      </trkpt>
      <trkpt lat="44.01578" lon="6.52269">
        <ele>1619.1999511719</ele>
        <time>2022-08-21T08:08:52Z</time>
      </trkpt>
      <trkpt lat="44.01578" lon="6.52269">
        <ele>1619.1999511719</ele>
        <time>2022-08-21T08:08:54Z</time>
      </trkpt>
      <trkpt lat="44.01577" lon="6.5227">
        <ele>1619.1999511719</ele>
        <time>2022-08-21T08:08:59Z</time>
      </trkpt>
      <trkpt lat="44.01582" lon="6.52266">
        <ele>1619.1999511719</ele>
        <time>2022-08-21T08:09:11Z</time>
      </trkpt>
      <trkpt lat="44.01583" lon="6.52264">
        <ele>1619.4000244141</ele>
        <time>2022-08-21T08:09:14Z</time>
      </trkpt>
      <trkpt lat="44.01583" lon="6.52264">
        <ele>1619.4000244141</ele>
        <time>2022-08-21T08:09:21Z</time>
      </trkpt>
      <trkpt lat="44.01585" lon="6.52268">
        <ele>1619.5999755859</ele>
        <time>2022-08-21T08:09:38Z</time>
      </trkpt>
      <trkpt lat="44.01584" lon="6.5227">
        <ele>1619.8000488281</ele>
        <time>2022-08-21T08:09:46Z</time>
      </trkpt>
      <trkpt lat="44.01587" lon="6.5227">
        <ele>1619.8000488281</ele>
        <time>2022-08-21T08:09:58Z</time>
      </trkpt>
      <trkpt lat="44.01585" lon="6.52268">
        <ele>1620.1999511719</ele>
        <time>2022-08-21T08:10:04Z</time>
      </trkpt>
      <trkpt lat="44.01584" lon="6.52269">
        <ele>1620.4000244141</ele>
        <time>2022-08-21T08:10:10Z</time>
      </trkpt>
      <trkpt lat="44.01584" lon="6.52269">
        <ele>1620.4000244141</ele>
        <time>2022-08-21T08:10:15Z</time>
      </trkpt>
      <trkpt lat="44.01584" lon="6.52269">
        <ele>1620.4000244141</ele>
        <time>2022-08-21T08:10:17Z</time>
      </trkpt>
      <trkpt lat="44.01584" lon="6.5227">
        <ele>1620</ele>
        <time>2022-08-21T08:10:23Z</time>
      </trkpt>
      <trkpt lat="44.01583" lon="6.5227">
        <ele>1620</ele>
        <time>2022-08-21T08:10:27Z</time>
      </trkpt>
      <trkpt lat="44.01583" lon="6.5227">
        <ele>1620</ele>
        <time>2022-08-21T08:10:28Z</time>
      </trkpt>
      <trkpt lat="44.01583" lon="6.5227">
        <ele>1620</ele>
        <time>2022-08-21T08:10:31Z</time>
      </trkpt>
      <trkpt lat="44.01582" lon="6.5227">
        <ele>1620</ele>
        <time>2022-08-21T08:10:33Z</time>
      </trkpt>
      <trkpt lat="44.01583" lon="6.5227">
        <ele>1620</ele>
        <time>2022-08-21T08:10:34Z</time>
      </trkpt>
      <trkpt lat="44.01582" lon="6.5227">
        <ele>1620</ele>
        <time>2022-08-21T08:10:36Z</time>
      </trkpt>
      <trkpt lat="44.01582" lon="6.5227">
        <ele>1620</ele>
        <time>2022-08-21T08:10:37Z</time>
      </trkpt>
      <trkpt lat="44.01582" lon="6.5227">
        <ele>1620</ele>
        <time>2022-08-21T08:10:39Z</time>
      </trkpt>
      <trkpt lat="44.01582" lon="6.52271">
        <ele>1620</ele>
        <time>2022-08-21T08:10:41Z</time>
      </trkpt>
      <trkpt lat="44.01583" lon="6.52271">
        <ele>1620</ele>
        <time>2022-08-21T08:10:53Z</time>
      </trkpt>
      <trkpt lat="44.01585" lon="6.52269">
        <ele>1620</ele>
        <time>2022-08-21T08:11:02Z</time>
      </trkpt>
      <trkpt lat="44.01585" lon="6.52268">
        <ele>1620</ele>
        <time>2022-08-21T08:11:14Z</time>
      </trkpt>
      <trkpt lat="44.01585" lon="6.52269">
        <ele>1620</ele>
        <time>2022-08-21T08:11:19Z</time>
      </trkpt>
      <trkpt lat="44.01585" lon="6.52269">
        <ele>1620</ele>
        <time>2022-08-21T08:11:26Z</time>
      </trkpt>
      <trkpt lat="44.01586" lon="6.52272">
        <ele>1620</ele>
        <time>2022-08-21T08:11:32Z</time>
      </trkpt>
      <trkpt lat="44.01586" lon="6.52272">
        <ele>1620</ele>
        <time>2022-08-21T08:11:37Z</time>
      </trkpt>
      <trkpt lat="44.01586" lon="6.52272">
        <ele>1620</ele>
        <time>2022-08-21T08:11:46Z</time>
      </trkpt>
      <trkpt lat="44.01592" lon="6.52268">
        <ele>1620</ele>
        <time>2022-08-21T08:11:59Z</time>
      </trkpt>
      <trkpt lat="44.01593" lon="6.52269">
        <ele>1620</ele>
        <time>2022-08-21T08:12:10Z</time>
      </trkpt>
      <trkpt lat="44.01593" lon="6.52269">
        <ele>1620</ele>
        <time>2022-08-21T08:12:12Z</time>
      </trkpt>
      <trkpt lat="44.01595" lon="6.52265">
        <ele>1620</ele>
        <time>2022-08-21T08:12:20Z</time>
      </trkpt>
      <trkpt lat="44.01595" lon="6.52265">
        <ele>1620</ele>
        <time>2022-08-21T08:12:21Z</time>
      </trkpt>
      <trkpt lat="44.01595" lon="6.52265">
        <ele>1620</ele>
        <time>2022-08-21T08:12:22Z</time>
      </trkpt>
      <trkpt lat="44.01595" lon="6.52264">
        <ele>1615.5999755859</ele>
        <time>2022-08-21T08:12:23Z</time>
      </trkpt>
      <trkpt lat="44.01596" lon="6.52262">
        <ele>1614</ele>
        <time>2022-08-21T08:12:27Z</time>
      </trkpt>
      <trkpt lat="44.01594" lon="6.52259">
        <ele>1613.1999511719</ele>
        <time>2022-08-21T08:12:35Z</time>
      </trkpt>
      <trkpt lat="44.01594" lon="6.52257">
        <ele>1612.8000488281</ele>
        <time>2022-08-21T08:12:38Z</time>
      </trkpt>
      <trkpt lat="44.01594" lon="6.52257">
        <ele>1612.8000488281</ele>
        <time>2022-08-21T08:12:44Z</time>
      </trkpt>
      <trkpt lat="44.0159" lon="6.52253">
        <ele>1612.5999755859</ele>
        <time>2022-08-21T08:12:58Z</time>
      </trkpt>
      <trkpt lat="44.01589" lon="6.52249">
        <ele>1612</ele>
        <time>2022-08-21T08:13:07Z</time>
      </trkpt>
      <trkpt lat="44.01589" lon="6.52249">
        <ele>1611.8000488281</ele>
        <time>2022-08-21T08:13:08Z</time>
      </trkpt>
      <trkpt lat="44.01589" lon="6.52249">
        <ele>1611.8000488281</ele>
        <time>2022-08-21T08:13:09Z</time>
      </trkpt>
      <trkpt lat="44.01589" lon="6.52249">
        <ele>1611.5999755859</ele>
        <time>2022-08-21T08:13:12Z</time>
      </trkpt>
      <trkpt lat="44.01585" lon="6.52244">
        <ele>1610.8000488281</ele>
        <time>2022-08-21T08:13:20Z</time>
      </trkpt>
      <trkpt lat="44.01583" lon="6.52241">
        <ele>1610</ele>
        <time>2022-08-21T08:13:26Z</time>
      </trkpt>
      <trkpt lat="44.01583" lon="6.5224">
        <ele>1610</ele>
        <time>2022-08-21T08:13:31Z</time>
      </trkpt>
      <trkpt lat="44.01583" lon="6.5224">
        <ele>1610</ele>
        <time>2022-08-21T08:13:33Z</time>
      </trkpt>
      <trkpt lat="44.01583" lon="6.5224">
        <ele>1610</ele>
        <time>2022-08-21T08:13:35Z</time>
      </trkpt>
      <trkpt lat="44.01583" lon="6.5224">
        <ele>1610.1999511719</ele>
        <time>2022-08-21T08:13:39Z</time>
      </trkpt>
      <trkpt lat="44.01583" lon="6.5224">
        <ele>1610.4000244141</ele>
        <time>2022-08-21T08:13:41Z</time>
      </trkpt>
      <trkpt lat="44.01584" lon="6.52241">
        <ele>1610.1999511719</ele>
        <time>2022-08-21T08:13:51Z</time>
      </trkpt>
      <trkpt lat="44.01584" lon="6.52242">
        <ele>1610.4000244141</ele>
        <time>2022-08-21T08:13:59Z</time>
      </trkpt>
      <trkpt lat="44.01584" lon="6.52242">
        <ele>1611.1999511719</ele>
        <time>2022-08-21T08:14:10Z</time>
      </trkpt>
      <trkpt lat="44.01583" lon="6.52242">
        <ele>1611.4000244141</ele>
        <time>2022-08-21T08:14:24Z</time>
      </trkpt>
      <trkpt lat="44.01583" lon="6.52242">
        <ele>1611.5999755859</ele>
        <time>2022-08-21T08:14:25Z</time>
      </trkpt>
      <trkpt lat="44.01583" lon="6.52242">
        <ele>1611.5999755859</ele>
        <time>2022-08-21T08:14:29Z</time>
      </trkpt>
      <trkpt lat="44.01578" lon="6.52242">
        <ele>1611.8000488281</ele>
        <time>2022-08-21T08:14:53Z</time>
      </trkpt>
      <trkpt lat="44.01575" lon="6.5224">
        <ele>1612.1999511719</ele>
        <time>2022-08-21T08:14:56Z</time>
      </trkpt>
      <trkpt lat="44.01572" lon="6.52239">
        <ele>1612.4000244141</ele>
        <time>2022-08-21T08:14:59Z</time>
      </trkpt>
      <trkpt lat="44.01566" lon="6.52236">
        <ele>1612.8000488281</ele>
        <time>2022-08-21T08:15:04Z</time>
      </trkpt>
      <trkpt lat="44.0156" lon="6.52234">
        <ele>1613.4000244141</ele>
        <time>2022-08-21T08:15:10Z</time>
      </trkpt>
      <trkpt lat="44.01554" lon="6.52234">
        <ele>1613.8000488281</ele>
        <time>2022-08-21T08:15:15Z</time>
      </trkpt>
      <trkpt lat="44.01551" lon="6.52234">
        <ele>1614.1999511719</ele>
        <time>2022-08-21T08:15:18Z</time>
      </trkpt>
      <trkpt lat="44.01549" lon="6.52235">
        <ele>1614.4000244141</ele>
        <time>2022-08-21T08:15:20Z</time>
      </trkpt>
      <trkpt lat="44.01547" lon="6.52236">
        <ele>1614.5999755859</ele>
        <time>2022-08-21T08:15:22Z</time>
      </trkpt>
      <trkpt lat="44.01543" lon="6.52238">
        <ele>1615</ele>
        <time>2022-08-21T08:15:25Z</time>
      </trkpt>
      <trkpt lat="44.01539" lon="6.52241">
        <ele>1615.4000244141</ele>
        <time>2022-08-21T08:15:30Z</time>
      </trkpt>
      <trkpt lat="44.01537" lon="6.52242">
        <ele>1615.5999755859</ele>
        <time>2022-08-21T08:15:31Z</time>
      </trkpt>
      <trkpt lat="44.01534" lon="6.52243">
        <ele>1615.8000488281</ele>
        <time>2022-08-21T08:15:34Z</time>
      </trkpt>
      <trkpt lat="44.01533" lon="6.52243">
        <ele>1616</ele>
        <time>2022-08-21T08:15:35Z</time>
      </trkpt>
      <trkpt lat="44.01523" lon="6.52247">
        <ele>1617</ele>
        <time>2022-08-21T08:15:44Z</time>
      </trkpt>
      <trkpt lat="44.01513" lon="6.5225">
        <ele>1617.8000488281</ele>
        <time>2022-08-21T08:15:51Z</time>
      </trkpt>
      <trkpt lat="44.01512" lon="6.52252">
        <ele>1618.1999511719</ele>
        <time>2022-08-21T08:15:54Z</time>
      </trkpt>
      <trkpt lat="44.01509" lon="6.52253">
        <ele>1618.4000244141</ele>
        <time>2022-08-21T08:15:57Z</time>
      </trkpt>
      <trkpt lat="44.01499" lon="6.5226">
        <ele>1619</ele>
        <time>2022-08-21T08:16:06Z</time>
      </trkpt>
      <trkpt lat="44.01498" lon="6.52261">
        <ele>1619.1999511719</ele>
        <time>2022-08-21T08:16:07Z</time>
      </trkpt>
      <trkpt lat="44.01491" lon="6.52267">
        <ele>1619.5999755859</ele>
        <time>2022-08-21T08:16:13Z</time>
      </trkpt>
      <trkpt lat="44.01486" lon="6.52274">
        <ele>1620.1999511719</ele>
        <time>2022-08-21T08:16:20Z</time>
      </trkpt>
      <trkpt lat="44.01485" lon="6.52274">
        <ele>1620.4000244141</ele>
        <time>2022-08-21T08:16:21Z</time>
      </trkpt>
      <trkpt lat="44.01484" lon="6.52276">
        <ele>1620.5999755859</ele>
        <time>2022-08-21T08:16:24Z</time>
      </trkpt>
      <trkpt lat="44.01482" lon="6.52277">
        <ele>1621</ele>
        <time>2022-08-21T08:16:26Z</time>
      </trkpt>
      <trkpt lat="44.0148" lon="6.5228">
        <ele>1621.1999511719</ele>
        <time>2022-08-21T08:16:29Z</time>
      </trkpt>
      <trkpt lat="44.01477" lon="6.52283">
        <ele>1621.5999755859</ele>
        <time>2022-08-21T08:16:32Z</time>
      </trkpt>
      <trkpt lat="44.01476" lon="6.52286">
        <ele>1621.5999755859</ele>
        <time>2022-08-21T08:16:34Z</time>
      </trkpt>
      <trkpt lat="44.01475" lon="6.5229">
        <ele>1622</ele>
        <time>2022-08-21T08:16:37Z</time>
      </trkpt>
      <trkpt lat="44.01473" lon="6.52294">
        <ele>1622.1999511719</ele>
        <time>2022-08-21T08:16:40Z</time>
      </trkpt>
      <trkpt lat="44.01469" lon="6.52307">
        <ele>1622.8000488281</ele>
        <time>2022-08-21T08:16:49Z</time>
      </trkpt>
      <trkpt lat="44.01467" lon="6.52311">
        <ele>1623.1999511719</ele>
        <time>2022-08-21T08:16:53Z</time>
      </trkpt>
      <trkpt lat="44.01462" lon="6.52321">
        <ele>1624</ele>
        <time>2022-08-21T08:17:00Z</time>
      </trkpt>
      <trkpt lat="44.01462" lon="6.52323">
        <ele>1624.1999511719</ele>
        <time>2022-08-21T08:17:01Z</time>
      </trkpt>
      <trkpt lat="44.01461" lon="6.52324">
        <ele>1624.1999511719</ele>
        <time>2022-08-21T08:17:03Z</time>
      </trkpt>
      <trkpt lat="44.01461" lon="6.52323">
        <ele>1624.4000244141</ele>
        <time>2022-08-21T08:17:04Z</time>
      </trkpt>
      <trkpt lat="44.01461" lon="6.52323">
        <ele>1624.4000244141</ele>
        <time>2022-08-21T08:17:05Z</time>
      </trkpt>
      <trkpt lat="44.01459" lon="6.52326">
        <ele>1625</ele>
        <time>2022-08-21T08:17:13Z</time>
      </trkpt>
      <trkpt lat="44.01457" lon="6.52327">
        <ele>1624.5999755859</ele>
        <time>2022-08-21T08:17:21Z</time>
      </trkpt>
      <trkpt lat="44.01457" lon="6.52342">
        <ele>1625.4000244141</ele>
        <time>2022-08-21T08:17:33Z</time>
      </trkpt>
      <trkpt lat="44.01457" lon="6.52343">
        <ele>1625.5999755859</ele>
        <time>2022-08-21T08:17:34Z</time>
      </trkpt>
      <trkpt lat="44.01457" lon="6.52345">
        <ele>1625.5999755859</ele>
        <time>2022-08-21T08:17:36Z</time>
      </trkpt>
      <trkpt lat="44.01456" lon="6.52356">
        <ele>1626.4000244141</ele>
        <time>2022-08-21T08:17:46Z</time>
      </trkpt>
      <trkpt lat="44.01455" lon="6.52357">
        <ele>1626.4000244141</ele>
        <time>2022-08-21T08:17:47Z</time>
      </trkpt>
      <trkpt lat="44.01451" lon="6.52365">
        <ele>1627.1999511719</ele>
        <time>2022-08-21T08:17:55Z</time>
      </trkpt>
      <trkpt lat="44.0145" lon="6.52366">
        <ele>1627.5999755859</ele>
        <time>2022-08-21T08:17:57Z</time>
      </trkpt>
      <trkpt lat="44.01445" lon="6.52365">
        <ele>1628.1999511719</ele>
        <time>2022-08-21T08:18:05Z</time>
      </trkpt>
      <trkpt lat="44.01444" lon="6.52365">
        <ele>1628.5999755859</ele>
        <time>2022-08-21T08:18:08Z</time>
      </trkpt>
      <trkpt lat="44.01439" lon="6.52362">
        <ele>1629.1999511719</ele>
        <time>2022-08-21T08:18:13Z</time>
      </trkpt>
      <trkpt lat="44.01436" lon="6.5236">
        <ele>1629.4000244141</ele>
        <time>2022-08-21T08:18:16Z</time>
      </trkpt>
      <trkpt lat="44.01433" lon="6.52358">
        <ele>1629.5999755859</ele>
        <time>2022-08-21T08:18:19Z</time>
      </trkpt>
      <trkpt lat="44.01432" lon="6.52357">
        <ele>1629.5999755859</ele>
        <time>2022-08-21T08:18:20Z</time>
      </trkpt>
      <trkpt lat="44.0142" lon="6.52351">
        <ele>1630.5999755859</ele>
        <time>2022-08-21T08:18:29Z</time>
      </trkpt>
      <trkpt lat="44.01411" lon="6.52345">
        <ele>1631.4000244141</ele>
        <time>2022-08-21T08:18:36Z</time>
      </trkpt>
      <trkpt lat="44.01406" lon="6.52341">
        <ele>1631.8000488281</ele>
        <time>2022-08-21T08:18:40Z</time>
      </trkpt>
      <trkpt lat="44.01399" lon="6.52337">
        <ele>1632.4000244141</ele>
        <time>2022-08-21T08:18:46Z</time>
      </trkpt>
      <trkpt lat="44.01393" lon="6.52334">
        <ele>1632.8000488281</ele>
        <time>2022-08-21T08:18:52Z</time>
      </trkpt>
      <trkpt lat="44.0139" lon="6.52333">
        <ele>1632.8000488281</ele>
        <time>2022-08-21T08:18:55Z</time>
      </trkpt>
      <trkpt lat="44.01377" lon="6.52331">
        <ele>1634</ele>
        <time>2022-08-21T08:19:03Z</time>
      </trkpt>
      <trkpt lat="44.01375" lon="6.5233">
        <ele>1634.1999511719</ele>
        <time>2022-08-21T08:19:04Z</time>
      </trkpt>
      <trkpt lat="44.01371" lon="6.52328">
        <ele>1634.8000488281</ele>
        <time>2022-08-21T08:19:07Z</time>
      </trkpt>
      <trkpt lat="44.01369" lon="6.52327">
        <ele>1635</ele>
        <time>2022-08-21T08:19:08Z</time>
      </trkpt>
      <trkpt lat="44.01366" lon="6.52326">
        <ele>1635.5999755859</ele>
        <time>2022-08-21T08:19:11Z</time>
      </trkpt>
      <trkpt lat="44.01361" lon="6.52326">
        <ele>1635.8000488281</ele>
        <time>2022-08-21T08:19:14Z</time>
      </trkpt>
      <trkpt lat="44.0136" lon="6.52325">
        <ele>1636</ele>
        <time>2022-08-21T08:19:15Z</time>
      </trkpt>
      <trkpt lat="44.01358" lon="6.52324">
        <ele>1636.4000244141</ele>
        <time>2022-08-21T08:19:17Z</time>
      </trkpt>
      <trkpt lat="44.01357" lon="6.52324">
        <ele>1636.5999755859</ele>
        <time>2022-08-21T08:19:18Z</time>
      </trkpt>
      <trkpt lat="44.01351" lon="6.52324">
        <ele>1637.1999511719</ele>
        <time>2022-08-21T08:19:23Z</time>
      </trkpt>
      <trkpt lat="44.01345" lon="6.52323">
        <ele>1637.5999755859</ele>
        <time>2022-08-21T08:19:27Z</time>
      </trkpt>
      <trkpt lat="44.01342" lon="6.52323">
        <ele>1638.1999511719</ele>
        <time>2022-08-21T08:19:30Z</time>
      </trkpt>
      <trkpt lat="44.01337" lon="6.52323">
        <ele>1638.8000488281</ele>
        <time>2022-08-21T08:19:34Z</time>
      </trkpt>
      <trkpt lat="44.01333" lon="6.52324">
        <ele>1639.1999511719</ele>
        <time>2022-08-21T08:19:37Z</time>
      </trkpt>
      <trkpt lat="44.01331" lon="6.52324">
        <ele>1639.4000244141</ele>
        <time>2022-08-21T08:19:39Z</time>
      </trkpt>
      <trkpt lat="44.0133" lon="6.52324">
        <ele>1639.5999755859</ele>
        <time>2022-08-21T08:19:40Z</time>
      </trkpt>
      <trkpt lat="44.01326" lon="6.52325">
        <ele>1640</ele>
        <time>2022-08-21T08:19:43Z</time>
      </trkpt>
      <trkpt lat="44.01325" lon="6.52325">
        <ele>1640.1999511719</ele>
        <time>2022-08-21T08:19:44Z</time>
      </trkpt>
      <trkpt lat="44.01323" lon="6.52326">
        <ele>1640.1999511719</ele>
        <time>2022-08-21T08:19:45Z</time>
      </trkpt>
      <trkpt lat="44.01319" lon="6.52325">
        <ele>1640.8000488281</ele>
        <time>2022-08-21T08:19:48Z</time>
      </trkpt>
      <trkpt lat="44.01314" lon="6.52326">
        <ele>1641.4000244141</ele>
        <time>2022-08-21T08:19:52Z</time>
      </trkpt>
      <trkpt lat="44.01311" lon="6.52327">
        <ele>1641.5999755859</ele>
        <time>2022-08-21T08:19:54Z</time>
      </trkpt>
      <trkpt lat="44.01309" lon="6.52328">
        <ele>1641.5999755859</ele>
        <time>2022-08-21T08:19:55Z</time>
      </trkpt>
      <trkpt lat="44.01308" lon="6.52328">
        <ele>1641.8000488281</ele>
        <time>2022-08-21T08:19:56Z</time>
      </trkpt>
      <trkpt lat="44.01301" lon="6.52331">
        <ele>1642.4000244141</ele>
        <time>2022-08-21T08:20:01Z</time>
      </trkpt>
      <trkpt lat="44.01298" lon="6.52332">
        <ele>1642.8000488281</ele>
        <time>2022-08-21T08:20:04Z</time>
      </trkpt>
      <trkpt lat="44.01295" lon="6.52333">
        <ele>1643.1999511719</ele>
        <time>2022-08-21T08:20:07Z</time>
      </trkpt>
      <trkpt lat="44.01292" lon="6.52334">
        <ele>1643.4000244141</ele>
        <time>2022-08-21T08:20:10Z</time>
      </trkpt>
      <trkpt lat="44.0129" lon="6.52335">
        <ele>1643.5999755859</ele>
        <time>2022-08-21T08:20:12Z</time>
      </trkpt>
      <trkpt lat="44.01284" lon="6.52339">
        <ele>1644.4000244141</ele>
        <time>2022-08-21T08:20:18Z</time>
      </trkpt>
      <trkpt lat="44.01279" lon="6.52342">
        <ele>1645</ele>
        <time>2022-08-21T08:20:22Z</time>
      </trkpt>
      <trkpt lat="44.01275" lon="6.52346">
        <ele>1645.5999755859</ele>
        <time>2022-08-21T08:20:26Z</time>
      </trkpt>
      <trkpt lat="44.01268" lon="6.52351">
        <ele>1646.4000244141</ele>
        <time>2022-08-21T08:20:33Z</time>
      </trkpt>
      <trkpt lat="44.01264" lon="6.52352">
        <ele>1646.5999755859</ele>
        <time>2022-08-21T08:20:36Z</time>
      </trkpt>
      <trkpt lat="44.01263" lon="6.52353">
        <ele>1646.8000488281</ele>
        <time>2022-08-21T08:20:38Z</time>
      </trkpt>
      <trkpt lat="44.01261" lon="6.52355">
        <ele>1646.8000488281</ele>
        <time>2022-08-21T08:20:40Z</time>
      </trkpt>
      <trkpt lat="44.01256" lon="6.52358">
        <ele>1647.1999511719</ele>
        <time>2022-08-21T08:20:44Z</time>
      </trkpt>
      <trkpt lat="44.01252" lon="6.5236">
        <ele>1647.4000244141</ele>
        <time>2022-08-21T08:20:48Z</time>
      </trkpt>
      <trkpt lat="44.0125" lon="6.52362">
        <ele>1647.5999755859</ele>
        <time>2022-08-21T08:20:50Z</time>
      </trkpt>
      <trkpt lat="44.01242" lon="6.52369">
        <ele>1648.1999511719</ele>
        <time>2022-08-21T08:20:57Z</time>
      </trkpt>
      <trkpt lat="44.01238" lon="6.52373">
        <ele>1648.8000488281</ele>
        <time>2022-08-21T08:21:01Z</time>
      </trkpt>
      <trkpt lat="44.01233" lon="6.52379">
        <ele>1649.1999511719</ele>
        <time>2022-08-21T08:21:06Z</time>
      </trkpt>
      <trkpt lat="44.01226" lon="6.52381">
        <ele>1649.5999755859</ele>
        <time>2022-08-21T08:21:11Z</time>
      </trkpt>
      <trkpt lat="44.01224" lon="6.52382">
        <ele>1649.8000488281</ele>
        <time>2022-08-21T08:21:13Z</time>
      </trkpt>
      <trkpt lat="44.01221" lon="6.52382">
        <ele>1649.8000488281</ele>
        <time>2022-08-21T08:21:15Z</time>
      </trkpt>
      <trkpt lat="44.01214" lon="6.5239">
        <ele>1650.8000488281</ele>
        <time>2022-08-21T08:21:22Z</time>
      </trkpt>
      <trkpt lat="44.01207" lon="6.52398">
        <ele>1651.8000488281</ele>
        <time>2022-08-21T08:21:29Z</time>
      </trkpt>
      <trkpt lat="44.01206" lon="6.52399">
        <ele>1652</ele>
        <time>2022-08-21T08:21:30Z</time>
      </trkpt>
      <trkpt lat="44.01201" lon="6.52404">
        <ele>1652.5999755859</ele>
        <time>2022-08-21T08:21:34Z</time>
      </trkpt>
      <trkpt lat="44.012" lon="6.52406">
        <ele>1652.8000488281</ele>
        <time>2022-08-21T08:21:36Z</time>
      </trkpt>
      <trkpt lat="44.01198" lon="6.52408">
        <ele>1653.1999511719</ele>
        <time>2022-08-21T08:21:38Z</time>
      </trkpt>
      <trkpt lat="44.01192" lon="6.52414">
        <ele>1654</ele>
        <time>2022-08-21T08:21:43Z</time>
      </trkpt>
      <trkpt lat="44.01186" lon="6.52421">
        <ele>1655</ele>
        <time>2022-08-21T08:21:49Z</time>
      </trkpt>
      <trkpt lat="44.01185" lon="6.52422">
        <ele>1655.1999511719</ele>
        <time>2022-08-21T08:21:50Z</time>
      </trkpt>
      <trkpt lat="44.01176" lon="6.5242">
        <ele>1655.8000488281</ele>
        <time>2022-08-21T08:21:57Z</time>
      </trkpt>
      <trkpt lat="44.01171" lon="6.52417">
        <ele>1656.1999511719</ele>
        <time>2022-08-21T08:21:59Z</time>
      </trkpt>
      <trkpt lat="44.0116" lon="6.52408">
        <ele>1657</ele>
        <time>2022-08-21T08:22:07Z</time>
      </trkpt>
      <trkpt lat="44.01159" lon="6.52404">
        <ele>1657.1999511719</ele>
        <time>2022-08-21T08:22:10Z</time>
      </trkpt>
      <trkpt lat="44.01156" lon="6.524">
        <ele>1657.4000244141</ele>
        <time>2022-08-21T08:22:13Z</time>
      </trkpt>
      <trkpt lat="44.01147" lon="6.52387">
        <ele>1658.1999511719</ele>
        <time>2022-08-21T08:22:22Z</time>
      </trkpt>
      <trkpt lat="44.01145" lon="6.52386">
        <ele>1658.1999511719</ele>
        <time>2022-08-21T08:22:23Z</time>
      </trkpt>
      <trkpt lat="44.01137" lon="6.52377">
        <ele>1658.5999755859</ele>
        <time>2022-08-21T08:22:31Z</time>
      </trkpt>
      <trkpt lat="44.0113" lon="6.52375">
        <ele>1659</ele>
        <time>2022-08-21T08:22:37Z</time>
      </trkpt>
      <trkpt lat="44.01125" lon="6.52374">
        <ele>1659.1999511719</ele>
        <time>2022-08-21T08:22:39Z</time>
      </trkpt>
      <trkpt lat="44.01123" lon="6.52374">
        <ele>1659.1999511719</ele>
        <time>2022-08-21T08:22:40Z</time>
      </trkpt>
      <trkpt lat="44.01111" lon="6.52373">
        <ele>1659.5999755859</ele>
        <time>2022-08-21T08:22:45Z</time>
      </trkpt>
      <trkpt lat="44.01097" lon="6.5237">
        <ele>1660.1999511719</ele>
        <time>2022-08-21T08:22:52Z</time>
      </trkpt>
      <trkpt lat="44.01095" lon="6.52369">
        <ele>1660.4000244141</ele>
        <time>2022-08-21T08:22:53Z</time>
      </trkpt>
      <trkpt lat="44.01077" lon="6.52362">
        <ele>1661.1999511719</ele>
        <time>2022-08-21T08:23:01Z</time>
      </trkpt>
      <trkpt lat="44.01074" lon="6.5236">
        <ele>1661.4000244141</ele>
        <time>2022-08-21T08:23:03Z</time>
      </trkpt>
      <trkpt lat="44.01056" lon="6.52355">
        <ele>1662</ele>
        <time>2022-08-21T08:23:12Z</time>
      </trkpt>
      <trkpt lat="44.01052" lon="6.52354">
        <ele>1662.4000244141</ele>
        <time>2022-08-21T08:23:14Z</time>
      </trkpt>
      <trkpt lat="44.01051" lon="6.52353">
        <ele>1662.4000244141</ele>
        <time>2022-08-21T08:23:15Z</time>
      </trkpt>
      <trkpt lat="44.01036" lon="6.52351">
        <ele>1663</ele>
        <time>2022-08-21T08:23:22Z</time>
      </trkpt>
      <trkpt lat="44.01028" lon="6.52348">
        <ele>1663.4000244141</ele>
        <time>2022-08-21T08:23:26Z</time>
      </trkpt>
      <trkpt lat="44.01026" lon="6.52348">
        <ele>1663.5999755859</ele>
        <time>2022-08-21T08:23:27Z</time>
      </trkpt>
      <trkpt lat="44.01024" lon="6.52347">
        <ele>1663.8000488281</ele>
        <time>2022-08-21T08:23:29Z</time>
      </trkpt>
      <trkpt lat="44.01023" lon="6.52346">
        <ele>1663.8000488281</ele>
        <time>2022-08-21T08:23:30Z</time>
      </trkpt>
      <trkpt lat="44.01022" lon="6.52344">
        <ele>1664.1999511719</ele>
        <time>2022-08-21T08:23:32Z</time>
      </trkpt>
      <trkpt lat="44.01017" lon="6.52341">
        <ele>1664.4000244141</ele>
        <time>2022-08-21T08:23:35Z</time>
      </trkpt>
      <trkpt lat="44.01001" lon="6.52335">
        <ele>1665.4000244141</ele>
        <time>2022-08-21T08:23:42Z</time>
      </trkpt>
      <trkpt lat="44.00999" lon="6.52334">
        <ele>1665.4000244141</ele>
        <time>2022-08-21T08:23:43Z</time>
      </trkpt>
      <trkpt lat="44.00996" lon="6.52334">
        <ele>1665.5999755859</ele>
        <time>2022-08-21T08:23:44Z</time>
      </trkpt>
      <trkpt lat="44.00985" lon="6.52329">
        <ele>1666</ele>
        <time>2022-08-21T08:23:49Z</time>
      </trkpt>
      <trkpt lat="44.00979" lon="6.52326">
        <ele>1666.5999755859</ele>
        <time>2022-08-21T08:23:53Z</time>
      </trkpt>
      <trkpt lat="44.00965" lon="6.5232">
        <ele>1667.5999755859</ele>
        <time>2022-08-21T08:24:02Z</time>
      </trkpt>
      <trkpt lat="44.00959" lon="6.52314">
        <ele>1668.1999511719</ele>
        <time>2022-08-21T08:24:07Z</time>
      </trkpt>
      <trkpt lat="44.00958" lon="6.52313">
        <ele>1668.4000244141</ele>
        <time>2022-08-21T08:24:08Z</time>
      </trkpt>
      <trkpt lat="44.00956" lon="6.52308">
        <ele>1668.8000488281</ele>
        <time>2022-08-21T08:24:11Z</time>
      </trkpt>
      <trkpt lat="44.00953" lon="6.52303">
        <ele>1669</ele>
        <time>2022-08-21T08:24:14Z</time>
      </trkpt>
      <trkpt lat="44.0095" lon="6.52299">
        <ele>1669.4000244141</ele>
        <time>2022-08-21T08:24:17Z</time>
      </trkpt>
      <trkpt lat="44.00948" lon="6.52296">
        <ele>1669.5999755859</ele>
        <time>2022-08-21T08:24:19Z</time>
      </trkpt>
      <trkpt lat="44.00946" lon="6.52294">
        <ele>1669.8000488281</ele>
        <time>2022-08-21T08:24:20Z</time>
      </trkpt>
      <trkpt lat="44.00937" lon="6.52286">
        <ele>1670.5999755859</ele>
        <time>2022-08-21T08:24:26Z</time>
      </trkpt>
      <trkpt lat="44.00932" lon="6.52282">
        <ele>1670.8000488281</ele>
        <time>2022-08-21T08:24:29Z</time>
      </trkpt>
      <trkpt lat="44.00922" lon="6.52275">
        <ele>1671.1999511719</ele>
        <time>2022-08-21T08:24:35Z</time>
      </trkpt>
      <trkpt lat="44.00909" lon="6.52269">
        <ele>1671.5999755859</ele>
        <time>2022-08-21T08:24:43Z</time>
      </trkpt>
      <trkpt lat="44.00907" lon="6.52268">
        <ele>1671.8000488281</ele>
        <time>2022-08-21T08:24:44Z</time>
      </trkpt>
      <trkpt lat="44.00903" lon="6.52267">
        <ele>1671.8000488281</ele>
        <time>2022-08-21T08:24:46Z</time>
      </trkpt>
      <trkpt lat="44.00898" lon="6.52264">
        <ele>1672</ele>
        <time>2022-08-21T08:24:50Z</time>
      </trkpt>
      <trkpt lat="44.00878" lon="6.52259">
        <ele>1672.8000488281</ele>
        <time>2022-08-21T08:25:00Z</time>
      </trkpt>
      <trkpt lat="44.0087" lon="6.52258">
        <ele>1673</ele>
        <time>2022-08-21T08:25:04Z</time>
      </trkpt>
      <trkpt lat="44.00864" lon="6.52255">
        <ele>1673</ele>
        <time>2022-08-21T08:25:08Z</time>
      </trkpt>
      <trkpt lat="44.00855" lon="6.5225">
        <ele>1673.1999511719</ele>
        <time>2022-08-21T08:25:13Z</time>
      </trkpt>
      <trkpt lat="44.00849" lon="6.52248">
        <ele>1673.4000244141</ele>
        <time>2022-08-21T08:25:16Z</time>
      </trkpt>
      <trkpt lat="44.00833" lon="6.5224">
        <ele>1673.5999755859</ele>
        <time>2022-08-21T08:25:23Z</time>
      </trkpt>
      <trkpt lat="44.00828" lon="6.52239">
        <ele>1673.5999755859</ele>
        <time>2022-08-21T08:25:25Z</time>
      </trkpt>
      <trkpt lat="44.00813" lon="6.52231">
        <ele>1673.8000488281</ele>
        <time>2022-08-21T08:25:32Z</time>
      </trkpt>
      <trkpt lat="44.00806" lon="6.52228">
        <ele>1674</ele>
        <time>2022-08-21T08:25:35Z</time>
      </trkpt>
      <trkpt lat="44.00799" lon="6.52225">
        <ele>1674.1999511719</ele>
        <time>2022-08-21T08:25:38Z</time>
      </trkpt>
      <trkpt lat="44.0078" lon="6.52215">
        <ele>1674</ele>
        <time>2022-08-21T08:25:47Z</time>
      </trkpt>
      <trkpt lat="44.00775" lon="6.52213">
        <ele>1674</ele>
        <time>2022-08-21T08:25:51Z</time>
      </trkpt>
      <trkpt lat="44.00775" lon="6.52213">
        <ele>1674</ele>
        <time>2022-08-21T08:25:52Z</time>
      </trkpt>
      <trkpt lat="44.00775" lon="6.52215">
        <ele>1674.1999511719</ele>
        <time>2022-08-21T08:25:57Z</time>
      </trkpt>
      <trkpt lat="44.00775" lon="6.52215">
        <ele>1674.5999755859</ele>
        <time>2022-08-21T08:26:03Z</time>
      </trkpt>
      <trkpt lat="44.00775" lon="6.52214">
        <ele>1674</ele>
        <time>2022-08-21T08:26:12Z</time>
      </trkpt>
      <trkpt lat="44.00775" lon="6.52214">
        <ele>1673.5999755859</ele>
        <time>2022-08-21T08:26:16Z</time>
      </trkpt>
      <trkpt lat="44.00775" lon="6.52215">
        <ele>1673.8000488281</ele>
        <time>2022-08-21T08:26:29Z</time>
      </trkpt>
      <trkpt lat="44.00775" lon="6.52215">
        <ele>1673.8000488281</ele>
        <time>2022-08-21T08:26:34Z</time>
      </trkpt>
      <trkpt lat="44.00775" lon="6.52216">
        <ele>1673.5999755859</ele>
        <time>2022-08-21T08:26:43Z</time>
      </trkpt>
      <trkpt lat="44.00775" lon="6.52216">
        <ele>1673.5999755859</ele>
        <time>2022-08-21T08:26:45Z</time>
      </trkpt>
      <trkpt lat="44.00775" lon="6.52215">
        <ele>1673.1999511719</ele>
        <time>2022-08-21T08:27:08Z</time>
      </trkpt>
      <trkpt lat="44.00775" lon="6.52215">
        <ele>1673.1999511719</ele>
        <time>2022-08-21T08:27:12Z</time>
      </trkpt>
      <trkpt lat="44.00776" lon="6.52216">
        <ele>1673.1999511719</ele>
        <time>2022-08-21T08:27:16Z</time>
      </trkpt>
      <trkpt lat="44.00775" lon="6.52215">
        <ele>1673.1999511719</ele>
        <time>2022-08-21T08:27:33Z</time>
      </trkpt>
      <trkpt lat="44.00775" lon="6.52215">
        <ele>1673</ele>
        <time>2022-08-21T08:27:47Z</time>
      </trkpt>
      <trkpt lat="44.00777" lon="6.52215">
        <ele>1673</ele>
        <time>2022-08-21T08:28:13Z</time>
      </trkpt>
      <trkpt lat="44.00775" lon="6.52216">
        <ele>1674</ele>
        <time>2022-08-21T08:28:30Z</time>
      </trkpt>
      <trkpt lat="44.00766" lon="6.52215">
        <ele>1673.8000488281</ele>
        <time>2022-08-21T08:28:49Z</time>
      </trkpt>
      <trkpt lat="44.00765" lon="6.52215">
        <ele>1673.8000488281</ele>
        <time>2022-08-21T08:28:50Z</time>
      </trkpt>
      <trkpt lat="44.00759" lon="6.52214">
        <ele>1674</ele>
        <time>2022-08-21T08:28:53Z</time>
      </trkpt>
      <trkpt lat="44.00756" lon="6.52213">
        <ele>1674</ele>
        <time>2022-08-21T08:28:54Z</time>
      </trkpt>
      <trkpt lat="44.00755" lon="6.52213">
        <ele>1674.1999511719</ele>
        <time>2022-08-21T08:28:55Z</time>
      </trkpt>
      <trkpt lat="44.00748" lon="6.52212">
        <ele>1674.1999511719</ele>
        <time>2022-08-21T08:28:58Z</time>
      </trkpt>
      <trkpt lat="44.00731" lon="6.5221">
        <ele>1673.8000488281</ele>
        <time>2022-08-21T08:29:04Z</time>
      </trkpt>
      <trkpt lat="44.00729" lon="6.52209">
        <ele>1673.5999755859</ele>
        <time>2022-08-21T08:29:05Z</time>
      </trkpt>
      <trkpt lat="44.00718" lon="6.52207">
        <ele>1673</ele>
        <time>2022-08-21T08:29:09Z</time>
      </trkpt>
      <trkpt lat="44.0071" lon="6.52205">
        <ele>1672.5999755859</ele>
        <time>2022-08-21T08:29:12Z</time>
      </trkpt>
      <trkpt lat="44.00695" lon="6.52202">
        <ele>1672</ele>
        <time>2022-08-21T08:29:18Z</time>
      </trkpt>
      <trkpt lat="44.00693" lon="6.52201">
        <ele>1671.8000488281</ele>
        <time>2022-08-21T08:29:19Z</time>
      </trkpt>
      <trkpt lat="44.00679" lon="6.522">
        <ele>1671</ele>
        <time>2022-08-21T08:29:25Z</time>
      </trkpt>
      <trkpt lat="44.00677" lon="6.522">
        <ele>1670.8000488281</ele>
        <time>2022-08-21T08:29:26Z</time>
      </trkpt>
      <trkpt lat="44.00674" lon="6.52199">
        <ele>1670.5999755859</ele>
        <time>2022-08-21T08:29:27Z</time>
      </trkpt>
      <trkpt lat="44.00657" lon="6.52195">
        <ele>1669.8000488281</ele>
        <time>2022-08-21T08:29:33Z</time>
      </trkpt>
      <trkpt lat="44.00654" lon="6.52195">
        <ele>1669.5999755859</ele>
        <time>2022-08-21T08:29:34Z</time>
      </trkpt>
      <trkpt lat="44.00644" lon="6.52194">
        <ele>1668.8000488281</ele>
        <time>2022-08-21T08:29:37Z</time>
      </trkpt>
      <trkpt lat="44.00641" lon="6.52194">
        <ele>1668.4000244141</ele>
        <time>2022-08-21T08:29:38Z</time>
      </trkpt>
      <trkpt lat="44.0063" lon="6.52195">
        <ele>1668</ele>
        <time>2022-08-21T08:29:41Z</time>
      </trkpt>
      <trkpt lat="44.00626" lon="6.52194">
        <ele>1667.8000488281</ele>
        <time>2022-08-21T08:29:42Z</time>
      </trkpt>
      <trkpt lat="44.00615" lon="6.5219">
        <ele>1667.4000244141</ele>
        <time>2022-08-21T08:29:45Z</time>
      </trkpt>
      <trkpt lat="44.00601" lon="6.52189">
        <ele>1667</ele>
        <time>2022-08-21T08:29:49Z</time>
      </trkpt>
      <trkpt lat="44.00593" lon="6.52192">
        <ele>1667.4000244141</ele>
        <time>2022-08-21T08:29:52Z</time>
      </trkpt>
      <trkpt lat="44.00589" lon="6.52194">
        <ele>1667.8000488281</ele>
        <time>2022-08-21T08:29:54Z</time>
      </trkpt>
      <trkpt lat="44.00588" lon="6.52195">
        <ele>1668</ele>
        <time>2022-08-21T08:29:55Z</time>
      </trkpt>
      <trkpt lat="44.00585" lon="6.52198">
        <ele>1668.4000244141</ele>
        <time>2022-08-21T08:29:57Z</time>
      </trkpt>
      <trkpt lat="44.00578" lon="6.522">
        <ele>1669.5999755859</ele>
        <time>2022-08-21T08:30:01Z</time>
      </trkpt>
      <trkpt lat="44.00576" lon="6.52201">
        <ele>1669.5999755859</ele>
        <time>2022-08-21T08:30:02Z</time>
      </trkpt>
      <trkpt lat="44.00564" lon="6.52204">
        <ele>1669.5999755859</ele>
        <time>2022-08-21T08:30:07Z</time>
      </trkpt>
      <trkpt lat="44.00555" lon="6.52206">
        <ele>1669.8000488281</ele>
        <time>2022-08-21T08:30:11Z</time>
      </trkpt>
      <trkpt lat="44.00551" lon="6.52208">
        <ele>1670</ele>
        <time>2022-08-21T08:30:13Z</time>
      </trkpt>
      <trkpt lat="44.00546" lon="6.52211">
        <ele>1670.4000244141</ele>
        <time>2022-08-21T08:30:16Z</time>
      </trkpt>
      <trkpt lat="44.00544" lon="6.52211">
        <ele>1670.4000244141</ele>
        <time>2022-08-21T08:30:17Z</time>
      </trkpt>
      <trkpt lat="44.00543" lon="6.52211">
        <ele>1670.5999755859</ele>
        <time>2022-08-21T08:30:18Z</time>
      </trkpt>
      <trkpt lat="44.00541" lon="6.52211">
        <ele>1670.5999755859</ele>
        <time>2022-08-21T08:30:19Z</time>
      </trkpt>
      <trkpt lat="44.00537" lon="6.52212">
        <ele>1670.4000244141</ele>
        <time>2022-08-21T08:30:22Z</time>
      </trkpt>
      <trkpt lat="44.00534" lon="6.52213">
        <ele>1670</ele>
        <time>2022-08-21T08:30:24Z</time>
      </trkpt>
      <trkpt lat="44.0053" lon="6.52214">
        <ele>1669.4000244141</ele>
        <time>2022-08-21T08:30:26Z</time>
      </trkpt>
      <trkpt lat="44.00523" lon="6.52217">
        <ele>1668.4000244141</ele>
        <time>2022-08-21T08:30:29Z</time>
      </trkpt>
      <trkpt lat="44.00518" lon="6.52219">
        <ele>1667</ele>
        <time>2022-08-21T08:30:32Z</time>
      </trkpt>
      <trkpt lat="44.00509" lon="6.52224">
        <ele>1666</ele>
        <time>2022-08-21T08:30:35Z</time>
      </trkpt>
      <trkpt lat="44.005" lon="6.52231">
        <ele>1665.1999511719</ele>
        <time>2022-08-21T08:30:38Z</time>
      </trkpt>
      <trkpt lat="44.00489" lon="6.52236">
        <ele>1665</ele>
        <time>2022-08-21T08:30:43Z</time>
      </trkpt>
      <trkpt lat="44.00487" lon="6.52237">
        <ele>1664.5999755859</ele>
        <time>2022-08-21T08:30:44Z</time>
      </trkpt>
      <trkpt lat="44.00482" lon="6.52239">
        <ele>1664</ele>
        <time>2022-08-21T08:30:46Z</time>
      </trkpt>
      <trkpt lat="44.0048" lon="6.52239">
        <ele>1663.5999755859</ele>
        <time>2022-08-21T08:30:47Z</time>
      </trkpt>
      <trkpt lat="44.00474" lon="6.52241">
        <ele>1662.4000244141</ele>
        <time>2022-08-21T08:30:50Z</time>
      </trkpt>
      <trkpt lat="44.00473" lon="6.52241">
        <ele>1661.8000488281</ele>
        <time>2022-08-21T08:30:52Z</time>
      </trkpt>
      <trkpt lat="44.0047" lon="6.52244">
        <ele>1661.4000244141</ele>
        <time>2022-08-21T08:30:55Z</time>
      </trkpt>
      <trkpt lat="44.00465" lon="6.52248">
        <ele>1660.1999511719</ele>
        <time>2022-08-21T08:31:01Z</time>
      </trkpt>
      <trkpt lat="44.00462" lon="6.52252">
        <ele>1659.4000244141</ele>
        <time>2022-08-21T08:31:04Z</time>
      </trkpt>
      <trkpt lat="44.00461" lon="6.52252">
        <ele>1659.4000244141</ele>
        <time>2022-08-21T08:31:05Z</time>
      </trkpt>
      <trkpt lat="44.0046" lon="6.52253">
        <ele>1659.1999511719</ele>
        <time>2022-08-21T08:31:06Z</time>
      </trkpt>
      <trkpt lat="44.00459" lon="6.52254">
        <ele>1659</ele>
        <time>2022-08-21T08:31:07Z</time>
      </trkpt>
      <trkpt lat="44.00457" lon="6.52256">
        <ele>1659</ele>
        <time>2022-08-21T08:31:08Z</time>
      </trkpt>
      <trkpt lat="44.00456" lon="6.52257">
        <ele>1658.8000488281</ele>
        <time>2022-08-21T08:31:09Z</time>
      </trkpt>
      <trkpt lat="44.0045" lon="6.5226">
        <ele>1658.1999511719</ele>
        <time>2022-08-21T08:31:15Z</time>
      </trkpt>
      <trkpt lat="44.00448" lon="6.52259">
        <ele>1658</ele>
        <time>2022-08-21T08:31:21Z</time>
      </trkpt>
      <trkpt lat="44.00448" lon="6.52259">
        <ele>1657.8000488281</ele>
        <time>2022-08-21T08:31:23Z</time>
      </trkpt>
      <trkpt lat="44.00448" lon="6.52259">
        <ele>1657.5999755859</ele>
        <time>2022-08-21T08:31:30Z</time>
      </trkpt>
      <trkpt lat="44.00448" lon="6.52259">
        <ele>1657.5999755859</ele>
        <time>2022-08-21T08:31:31Z</time>
      </trkpt>
      <trkpt lat="44.00448" lon="6.52259">
        <ele>1657.5999755859</ele>
        <time>2022-08-21T08:31:33Z</time>
      </trkpt>
      <trkpt lat="44.00448" lon="6.52259">
        <ele>1657.8000488281</ele>
        <time>2022-08-21T08:31:35Z</time>
      </trkpt>
      <trkpt lat="44.00448" lon="6.52259">
        <ele>1658</ele>
        <time>2022-08-21T08:31:38Z</time>
      </trkpt>
      <trkpt lat="44.00444" lon="6.52258">
        <ele>1658</ele>
        <time>2022-08-21T08:31:44Z</time>
      </trkpt>
      <trkpt lat="44.0044" lon="6.52258">
        <ele>1658</ele>
        <time>2022-08-21T08:31:48Z</time>
      </trkpt>
      <trkpt lat="44.00439" lon="6.52258">
        <ele>1658</ele>
        <time>2022-08-21T08:31:50Z</time>
      </trkpt>
      <trkpt lat="44.00435" lon="6.52258">
        <ele>1657.8000488281</ele>
        <time>2022-08-21T08:31:53Z</time>
      </trkpt>
      <trkpt lat="44.00431" lon="6.52259">
        <ele>1657.8000488281</ele>
        <time>2022-08-21T08:31:56Z</time>
      </trkpt>
      <trkpt lat="44.00426" lon="6.52257">
        <ele>1657.5999755859</ele>
        <time>2022-08-21T08:32:02Z</time>
      </trkpt>
      <trkpt lat="44.00421" lon="6.52254">
        <ele>1657.4000244141</ele>
        <time>2022-08-21T08:32:08Z</time>
      </trkpt>
      <trkpt lat="44.00419" lon="6.52254">
        <ele>1657.1999511719</ele>
        <time>2022-08-21T08:32:10Z</time>
      </trkpt>
      <trkpt lat="44.00414" lon="6.52252">
        <ele>1657</ele>
        <time>2022-08-21T08:32:17Z</time>
      </trkpt>
      <trkpt lat="44.00415" lon="6.52251">
        <ele>1656.8000488281</ele>
        <time>2022-08-21T08:32:20Z</time>
      </trkpt>
      <trkpt lat="44.00414" lon="6.52251">
        <ele>1656.8000488281</ele>
        <time>2022-08-21T08:32:23Z</time>
      </trkpt>
      <trkpt lat="44.00414" lon="6.52252">
        <ele>1656.8000488281</ele>
        <time>2022-08-21T08:32:25Z</time>
      </trkpt>
      <trkpt lat="44.00408" lon="6.52252">
        <ele>1657</ele>
        <time>2022-08-21T08:32:34Z</time>
      </trkpt>
      <trkpt lat="44.00405" lon="6.52252">
        <ele>1657</ele>
        <time>2022-08-21T08:32:36Z</time>
      </trkpt>
      <trkpt lat="44.00391" lon="6.52249">
        <ele>1656</ele>
        <time>2022-08-21T08:32:44Z</time>
      </trkpt>
      <trkpt lat="44.0039" lon="6.52249">
        <ele>1655.8000488281</ele>
        <time>2022-08-21T08:32:45Z</time>
      </trkpt>
      <trkpt lat="44.00385" lon="6.52249">
        <ele>1654.5999755859</ele>
        <time>2022-08-21T08:32:48Z</time>
      </trkpt>
      <trkpt lat="44.0038" lon="6.52248">
        <ele>1653.4000244141</ele>
        <time>2022-08-21T08:32:51Z</time>
      </trkpt>
      <trkpt lat="44.00374" lon="6.52246">
        <ele>1652.1999511719</ele>
        <time>2022-08-21T08:32:55Z</time>
      </trkpt>
      <trkpt lat="44.00366" lon="6.52245">
        <ele>1651.1999511719</ele>
        <time>2022-08-21T08:32:59Z</time>
      </trkpt>
      <trkpt lat="44.00358" lon="6.52243">
        <ele>1650.1999511719</ele>
        <time>2022-08-21T08:33:04Z</time>
      </trkpt>
      <trkpt lat="44.00356" lon="6.52243">
        <ele>1649.5999755859</ele>
        <time>2022-08-21T08:33:06Z</time>
      </trkpt>
      <trkpt lat="44.00354" lon="6.52242">
        <ele>1649</ele>
        <time>2022-08-21T08:33:10Z</time>
      </trkpt>
      <trkpt lat="44.00349" lon="6.52241">
        <ele>1648</ele>
        <time>2022-08-21T08:33:13Z</time>
      </trkpt>
      <trkpt lat="44.00348" lon="6.52241">
        <ele>1647.5999755859</ele>
        <time>2022-08-21T08:33:14Z</time>
      </trkpt>
      <trkpt lat="44.00344" lon="6.52241">
        <ele>1646.5999755859</ele>
        <time>2022-08-21T08:33:16Z</time>
      </trkpt>
      <trkpt lat="44.00341" lon="6.5224">
        <ele>1645</ele>
        <time>2022-08-21T08:33:19Z</time>
      </trkpt>
      <trkpt lat="44.00339" lon="6.52239">
        <ele>1644</ele>
        <time>2022-08-21T08:33:21Z</time>
      </trkpt>
      <trkpt lat="44.00338" lon="6.52239">
        <ele>1643.8000488281</ele>
        <time>2022-08-21T08:33:22Z</time>
      </trkpt>
      <trkpt lat="44.00335" lon="6.52237">
        <ele>1643</ele>
        <time>2022-08-21T08:33:24Z</time>
      </trkpt>
      <trkpt lat="44.00334" lon="6.52235">
        <ele>1642.5999755859</ele>
        <time>2022-08-21T08:33:25Z</time>
      </trkpt>
      <trkpt lat="44.00331" lon="6.52233">
        <ele>1641.4000244141</ele>
        <time>2022-08-21T08:33:28Z</time>
      </trkpt>
      <trkpt lat="44.00327" lon="6.52231">
        <ele>1640</ele>
        <time>2022-08-21T08:33:31Z</time>
      </trkpt>
      <trkpt lat="44.00323" lon="6.52229">
        <ele>1638.8000488281</ele>
        <time>2022-08-21T08:33:34Z</time>
      </trkpt>
      <trkpt lat="44.00321" lon="6.52228">
        <ele>1638</ele>
        <time>2022-08-21T08:33:36Z</time>
      </trkpt>
      <trkpt lat="44.00319" lon="6.52227">
        <ele>1637.5999755859</ele>
        <time>2022-08-21T08:33:37Z</time>
      </trkpt>
      <trkpt lat="44.00314" lon="6.52225">
        <ele>1636.1999511719</ele>
        <time>2022-08-21T08:33:40Z</time>
      </trkpt>
      <trkpt lat="44.00309" lon="6.52223">
        <ele>1635.1999511719</ele>
        <time>2022-08-21T08:33:43Z</time>
      </trkpt>
      <trkpt lat="44.00304" lon="6.52221">
        <ele>1634</ele>
        <time>2022-08-21T08:33:46Z</time>
      </trkpt>
      <trkpt lat="44.00298" lon="6.52219">
        <ele>1632.8000488281</ele>
        <time>2022-08-21T08:33:50Z</time>
      </trkpt>
      <trkpt lat="44.00296" lon="6.52218">
        <ele>1632.1999511719</ele>
        <time>2022-08-21T08:33:52Z</time>
      </trkpt>
      <trkpt lat="44.00294" lon="6.52216">
        <ele>1631.5999755859</ele>
        <time>2022-08-21T08:33:55Z</time>
      </trkpt>
      <trkpt lat="44.00288" lon="6.52214">
        <ele>1630.4000244141</ele>
        <time>2022-08-21T08:33:59Z</time>
      </trkpt>
      <trkpt lat="44.00284" lon="6.52211">
        <ele>1629.1999511719</ele>
        <time>2022-08-21T08:34:03Z</time>
      </trkpt>
      <trkpt lat="44.0028" lon="6.52208">
        <ele>1627.8000488281</ele>
        <time>2022-08-21T08:34:06Z</time>
      </trkpt>
      <trkpt lat="44.00278" lon="6.52207">
        <ele>1627.4000244141</ele>
        <time>2022-08-21T08:34:07Z</time>
      </trkpt>
      <trkpt lat="44.00277" lon="6.52207">
        <ele>1627</ele>
        <time>2022-08-21T08:34:08Z</time>
      </trkpt>
      <trkpt lat="44.00275" lon="6.52206">
        <ele>1626.5999755859</ele>
        <time>2022-08-21T08:34:09Z</time>
      </trkpt>
      <trkpt lat="44.00269" lon="6.52204">
        <ele>1625.4000244141</ele>
        <time>2022-08-21T08:34:13Z</time>
      </trkpt>
      <trkpt lat="44.00265" lon="6.52202">
        <ele>1624.1999511719</ele>
        <time>2022-08-21T08:34:16Z</time>
      </trkpt>
      <trkpt lat="44.0026" lon="6.52199">
        <ele>1623.1999511719</ele>
        <time>2022-08-21T08:34:19Z</time>
      </trkpt>
      <trkpt lat="44.00251" lon="6.52198">
        <ele>1622</ele>
        <time>2022-08-21T08:34:23Z</time>
      </trkpt>
      <trkpt lat="44.00249" lon="6.52198">
        <ele>1621.5999755859</ele>
        <time>2022-08-21T08:34:24Z</time>
      </trkpt>
      <trkpt lat="44.00244" lon="6.52198">
        <ele>1620.8000488281</ele>
        <time>2022-08-21T08:34:27Z</time>
      </trkpt>
      <trkpt lat="44.0024" lon="6.52196">
        <ele>1620.1999511719</ele>
        <time>2022-08-21T08:34:30Z</time>
      </trkpt>
      <trkpt lat="44.00239" lon="6.52196">
        <ele>1619.5999755859</ele>
        <time>2022-08-21T08:34:32Z</time>
      </trkpt>
      <trkpt lat="44.00233" lon="6.52194">
        <ele>1618.5999755859</ele>
        <time>2022-08-21T08:34:38Z</time>
      </trkpt>
      <trkpt lat="44.00232" lon="6.52194">
        <ele>1618.1999511719</ele>
        <time>2022-08-21T08:34:39Z</time>
      </trkpt>
      <trkpt lat="44.00229" lon="6.52194">
        <ele>1617.5999755859</ele>
        <time>2022-08-21T08:34:41Z</time>
      </trkpt>
      <trkpt lat="44.00227" lon="6.52194">
        <ele>1617.1999511719</ele>
        <time>2022-08-21T08:34:42Z</time>
      </trkpt>
      <trkpt lat="44.00222" lon="6.52194">
        <ele>1616</ele>
        <time>2022-08-21T08:34:45Z</time>
      </trkpt>
      <trkpt lat="44.00219" lon="6.52192">
        <ele>1615</ele>
        <time>2022-08-21T08:34:47Z</time>
      </trkpt>
      <trkpt lat="44.00217" lon="6.52191">
        <ele>1614.8000488281</ele>
        <time>2022-08-21T08:34:48Z</time>
      </trkpt>
      <trkpt lat="44.00211" lon="6.52187">
        <ele>1613.4000244141</ele>
        <time>2022-08-21T08:34:52Z</time>
      </trkpt>
      <trkpt lat="44.00207" lon="6.52187">
        <ele>1612.1999511719</ele>
        <time>2022-08-21T08:34:55Z</time>
      </trkpt>
      <trkpt lat="44.00204" lon="6.52185">
        <ele>1611.1999511719</ele>
        <time>2022-08-21T08:34:58Z</time>
      </trkpt>
      <trkpt lat="44.00201" lon="6.52183">
        <ele>1610</ele>
        <time>2022-08-21T08:35:01Z</time>
      </trkpt>
      <trkpt lat="44.002" lon="6.52183">
        <ele>1609.5999755859</ele>
        <time>2022-08-21T08:35:02Z</time>
      </trkpt>
      <trkpt lat="44.00199" lon="6.52182">
        <ele>1609.1999511719</ele>
        <time>2022-08-21T08:35:03Z</time>
      </trkpt>
      <trkpt lat="44.00198" lon="6.52181">
        <ele>1608.8000488281</ele>
        <time>2022-08-21T08:35:04Z</time>
      </trkpt>
      <trkpt lat="44.00193" lon="6.52176">
        <ele>1607.5999755859</ele>
        <time>2022-08-21T08:35:08Z</time>
      </trkpt>
      <trkpt lat="44.00191" lon="6.52175">
        <ele>1607.4000244141</ele>
        <time>2022-08-21T08:35:09Z</time>
      </trkpt>
      <trkpt lat="44.0019" lon="6.52174">
        <ele>1606.8000488281</ele>
        <time>2022-08-21T08:35:10Z</time>
      </trkpt>
      <trkpt lat="44.00188" lon="6.52173">
        <ele>1606.1999511719</ele>
        <time>2022-08-21T08:35:11Z</time>
      </trkpt>
      <trkpt lat="44.00184" lon="6.5217">
        <ele>1604.8000488281</ele>
        <time>2022-08-21T08:35:14Z</time>
      </trkpt>
      <trkpt lat="44.00181" lon="6.52169">
        <ele>1604</ele>
        <time>2022-08-21T08:35:16Z</time>
      </trkpt>
      <trkpt lat="44.0018" lon="6.52168">
        <ele>1603.4000244141</ele>
        <time>2022-08-21T08:35:17Z</time>
      </trkpt>
      <trkpt lat="44.00175" lon="6.52164">
        <ele>1602.4000244141</ele>
        <time>2022-08-21T08:35:20Z</time>
      </trkpt>
      <trkpt lat="44.00169" lon="6.52162">
        <ele>1601</ele>
        <time>2022-08-21T08:35:23Z</time>
      </trkpt>
      <trkpt lat="44.00167" lon="6.52161">
        <ele>1600.5999755859</ele>
        <time>2022-08-21T08:35:24Z</time>
      </trkpt>
      <trkpt lat="44.00163" lon="6.52158">
        <ele>1599.8000488281</ele>
        <time>2022-08-21T08:35:26Z</time>
      </trkpt>
      <trkpt lat="44.00154" lon="6.52155">
        <ele>1598.8000488281</ele>
        <time>2022-08-21T08:35:30Z</time>
      </trkpt>
      <trkpt lat="44.00149" lon="6.52154">
        <ele>1598</ele>
        <time>2022-08-21T08:35:32Z</time>
      </trkpt>
      <trkpt lat="44.00147" lon="6.52153">
        <ele>1597.5999755859</ele>
        <time>2022-08-21T08:35:33Z</time>
      </trkpt>
      <trkpt lat="44.00138" lon="6.52151">
        <ele>1596.4000244141</ele>
        <time>2022-08-21T08:35:37Z</time>
      </trkpt>
      <trkpt lat="44.00137" lon="6.52151">
        <ele>1596</ele>
        <time>2022-08-21T08:35:38Z</time>
      </trkpt>
      <trkpt lat="44.00133" lon="6.52149">
        <ele>1595</ele>
        <time>2022-08-21T08:35:41Z</time>
      </trkpt>
      <trkpt lat="44.00126" lon="6.52147">
        <ele>1594</ele>
        <time>2022-08-21T08:35:45Z</time>
      </trkpt>
      <trkpt lat="44.00119" lon="6.52147">
        <ele>1592.8000488281</ele>
        <time>2022-08-21T08:35:49Z</time>
      </trkpt>
      <trkpt lat="44.00114" lon="6.52147">
        <ele>1592.1999511719</ele>
        <time>2022-08-21T08:35:52Z</time>
      </trkpt>
      <trkpt lat="44.00111" lon="6.52147">
        <ele>1591.5999755859</ele>
        <time>2022-08-21T08:35:54Z</time>
      </trkpt>
      <trkpt lat="44.00107" lon="6.52147">
        <ele>1591</ele>
        <time>2022-08-21T08:35:58Z</time>
      </trkpt>
      <trkpt lat="44.00107" lon="6.52147">
        <ele>1590.8000488281</ele>
        <time>2022-08-21T08:35:59Z</time>
      </trkpt>
      <trkpt lat="44.00106" lon="6.52147">
        <ele>1590.5999755859</ele>
        <time>2022-08-21T08:36:00Z</time>
      </trkpt>
      <trkpt lat="44.00106" lon="6.52146">
        <ele>1590.4000244141</ele>
        <time>2022-08-21T08:36:03Z</time>
      </trkpt>
      <trkpt lat="44.00103" lon="6.52145">
        <ele>1589.8000488281</ele>
        <time>2022-08-21T08:36:10Z</time>
      </trkpt>
      <trkpt lat="44.00101" lon="6.52145">
        <ele>1589.4000244141</ele>
        <time>2022-08-21T08:36:12Z</time>
      </trkpt>
      <trkpt lat="44.00097" lon="6.52144">
        <ele>1588.1999511719</ele>
        <time>2022-08-21T08:36:16Z</time>
      </trkpt>
      <trkpt lat="44.00093" lon="6.52144">
        <ele>1587</ele>
        <time>2022-08-21T08:36:20Z</time>
      </trkpt>
      <trkpt lat="44.00089" lon="6.52147">
        <ele>1585.8000488281</ele>
        <time>2022-08-21T08:36:24Z</time>
      </trkpt>
      <trkpt lat="44.00088" lon="6.52148">
        <ele>1584.8000488281</ele>
        <time>2022-08-21T08:36:27Z</time>
      </trkpt>
      <trkpt lat="44.00088" lon="6.52148">
        <ele>1584.8000488281</ele>
        <time>2022-08-21T08:36:30Z</time>
      </trkpt>
      <trkpt lat="44.00088" lon="6.52148">
        <ele>1584.8000488281</ele>
        <time>2022-08-21T08:36:32Z</time>
      </trkpt>
      <trkpt lat="44.00088" lon="6.52148">
        <ele>1584.5999755859</ele>
        <time>2022-08-21T08:36:38Z</time>
      </trkpt>
      <trkpt lat="44.00088" lon="6.52148">
        <ele>1584.5999755859</ele>
        <time>2022-08-21T08:36:43Z</time>
      </trkpt>
      <trkpt lat="44.00077" lon="6.5215">
        <ele>1583.4000244141</ele>
        <time>2022-08-21T08:36:51Z</time>
      </trkpt>
      <trkpt lat="44.00075" lon="6.5215">
        <ele>1583</ele>
        <time>2022-08-21T08:36:52Z</time>
      </trkpt>
      <trkpt lat="44.00071" lon="6.52149">
        <ele>1582.4000244141</ele>
        <time>2022-08-21T08:36:54Z</time>
      </trkpt>
      <trkpt lat="44.00066" lon="6.52148">
        <ele>1580.8000488281</ele>
        <time>2022-08-21T08:36:57Z</time>
      </trkpt>
      <trkpt lat="44.00062" lon="6.52146">
        <ele>1580</ele>
        <time>2022-08-21T08:36:59Z</time>
      </trkpt>
      <trkpt lat="44.0006" lon="6.52146">
        <ele>1579.5999755859</ele>
        <time>2022-08-21T08:37:00Z</time>
      </trkpt>
      <trkpt lat="44.00057" lon="6.52146">
        <ele>1578.4000244141</ele>
        <time>2022-08-21T08:37:02Z</time>
      </trkpt>
      <trkpt lat="44.00054" lon="6.52145">
        <ele>1577.8000488281</ele>
        <time>2022-08-21T08:37:03Z</time>
      </trkpt>
      <trkpt lat="44.00051" lon="6.52143">
        <ele>1577</ele>
        <time>2022-08-21T08:37:04Z</time>
      </trkpt>
      <trkpt lat="44.00047" lon="6.52141">
        <ele>1576.5999755859</ele>
        <time>2022-08-21T08:37:05Z</time>
      </trkpt>
      <trkpt lat="44.00045" lon="6.52139">
        <ele>1576</ele>
        <time>2022-08-21T08:37:06Z</time>
      </trkpt>
      <trkpt lat="44.00039" lon="6.52135">
        <ele>1575</ele>
        <time>2022-08-21T08:37:09Z</time>
      </trkpt>
      <trkpt lat="44.00038" lon="6.52134">
        <ele>1574.5999755859</ele>
        <time>2022-08-21T08:37:10Z</time>
      </trkpt>
      <trkpt lat="44.00034" lon="6.52132">
        <ele>1573.8000488281</ele>
        <time>2022-08-21T08:37:13Z</time>
      </trkpt>
      <trkpt lat="44.00033" lon="6.52131">
        <ele>1573.5999755859</ele>
        <time>2022-08-21T08:37:14Z</time>
      </trkpt>
      <trkpt lat="44.00032" lon="6.52129">
        <ele>1573.1999511719</ele>
        <time>2022-08-21T08:37:15Z</time>
      </trkpt>
      <trkpt lat="44.0003" lon="6.52128">
        <ele>1572.5999755859</ele>
        <time>2022-08-21T08:37:16Z</time>
      </trkpt>
      <trkpt lat="44.00028" lon="6.52127">
        <ele>1572.1999511719</ele>
        <time>2022-08-21T08:37:17Z</time>
      </trkpt>
      <trkpt lat="44.00026" lon="6.52127">
        <ele>1571.4000244141</ele>
        <time>2022-08-21T08:37:19Z</time>
      </trkpt>
      <trkpt lat="44.00024" lon="6.52126">
        <ele>1570.5999755859</ele>
        <time>2022-08-21T08:37:21Z</time>
      </trkpt>
      <trkpt lat="44.00022" lon="6.52125">
        <ele>1570.1999511719</ele>
        <time>2022-08-21T08:37:22Z</time>
      </trkpt>
      <trkpt lat="44.00019" lon="6.52124">
        <ele>1569</ele>
        <time>2022-08-21T08:37:25Z</time>
      </trkpt>
      <trkpt lat="44.00017" lon="6.52125">
        <ele>1568</ele>
        <time>2022-08-21T08:37:28Z</time>
      </trkpt>
      <trkpt lat="44.00016" lon="6.52125">
        <ele>1567.5999755859</ele>
        <time>2022-08-21T08:37:29Z</time>
      </trkpt>
      <trkpt lat="44.00009" lon="6.52123">
        <ele>1566.4000244141</ele>
        <time>2022-08-21T08:37:32Z</time>
      </trkpt>
      <trkpt lat="43.99999" lon="6.5212">
        <ele>1564.8000488281</ele>
        <time>2022-08-21T08:37:35Z</time>
      </trkpt>
      <trkpt lat="43.99996" lon="6.52119">
        <ele>1563.8000488281</ele>
        <time>2022-08-21T08:37:37Z</time>
      </trkpt>
      <trkpt lat="43.99993" lon="6.52117">
        <ele>1563.4000244141</ele>
        <time>2022-08-21T08:37:38Z</time>
      </trkpt>
      <trkpt lat="43.99989" lon="6.52116">
        <ele>1562.4000244141</ele>
        <time>2022-08-21T08:37:40Z</time>
      </trkpt>
      <trkpt lat="43.99984" lon="6.52114">
        <ele>1561.4000244141</ele>
        <time>2022-08-21T08:37:43Z</time>
      </trkpt>
      <trkpt lat="43.9998" lon="6.52112">
        <ele>1560.8000488281</ele>
        <time>2022-08-21T08:37:45Z</time>
      </trkpt>
      <trkpt lat="43.99978" lon="6.52112">
        <ele>1560.4000244141</ele>
        <time>2022-08-21T08:37:46Z</time>
      </trkpt>
      <trkpt lat="43.99973" lon="6.52107">
        <ele>1559.1999511719</ele>
        <time>2022-08-21T08:37:50Z</time>
      </trkpt>
      <trkpt lat="43.99969" lon="6.52104">
        <ele>1558.5999755859</ele>
        <time>2022-08-21T08:37:52Z</time>
      </trkpt>
      <trkpt lat="43.99966" lon="6.52102">
        <ele>1557.8000488281</ele>
        <time>2022-08-21T08:37:54Z</time>
      </trkpt>
      <trkpt lat="43.99962" lon="6.52099">
        <ele>1556.8000488281</ele>
        <time>2022-08-21T08:37:56Z</time>
      </trkpt>
      <trkpt lat="43.99959" lon="6.52095">
        <ele>1555.8000488281</ele>
        <time>2022-08-21T08:37:58Z</time>
      </trkpt>
      <trkpt lat="43.99961" lon="6.52091">
        <ele>1555</ele>
        <time>2022-08-21T08:38:00Z</time>
      </trkpt>
      <trkpt lat="43.99962" lon="6.52089">
        <ele>1554.5999755859</ele>
        <time>2022-08-21T08:38:01Z</time>
      </trkpt>
      <trkpt lat="43.99965" lon="6.52085">
        <ele>1553.5999755859</ele>
        <time>2022-08-21T08:38:04Z</time>
      </trkpt>
      <trkpt lat="43.99971" lon="6.52078">
        <ele>1552.5999755859</ele>
        <time>2022-08-21T08:38:08Z</time>
      </trkpt>
      <trkpt lat="43.99977" lon="6.52072">
        <ele>1551.1999511719</ele>
        <time>2022-08-21T08:38:12Z</time>
      </trkpt>
      <trkpt lat="43.99981" lon="6.52067">
        <ele>1550</ele>
        <time>2022-08-21T08:38:16Z</time>
      </trkpt>
      <trkpt lat="43.99986" lon="6.52063">
        <ele>1549</ele>
        <time>2022-08-21T08:38:19Z</time>
      </trkpt>
      <trkpt lat="43.99988" lon="6.52061">
        <ele>1548.5999755859</ele>
        <time>2022-08-21T08:38:20Z</time>
      </trkpt>
      <trkpt lat="43.99994" lon="6.52056">
        <ele>1547.8000488281</ele>
        <time>2022-08-21T08:38:23Z</time>
      </trkpt>
      <trkpt lat="44" lon="6.52051">
        <ele>1546.5999755859</ele>
        <time>2022-08-21T08:38:27Z</time>
      </trkpt>
      <trkpt lat="44.00003" lon="6.52048">
        <ele>1546</ele>
        <time>2022-08-21T08:38:29Z</time>
      </trkpt>
      <trkpt lat="44.00005" lon="6.52046">
        <ele>1545.5999755859</ele>
        <time>2022-08-21T08:38:30Z</time>
      </trkpt>
      <trkpt lat="44.0001" lon="6.5204">
        <ele>1544.4000244141</ele>
        <time>2022-08-21T08:38:33Z</time>
      </trkpt>
      <trkpt lat="44.00019" lon="6.52031">
        <ele>1543.1999511719</ele>
        <time>2022-08-21T08:38:36Z</time>
      </trkpt>
      <trkpt lat="44.00029" lon="6.52026">
        <ele>1542</ele>
        <time>2022-08-21T08:38:39Z</time>
      </trkpt>
      <trkpt lat="44.00039" lon="6.52022">
        <ele>1541</ele>
        <time>2022-08-21T08:38:42Z</time>
      </trkpt>
      <trkpt lat="44.00041" lon="6.5202">
        <ele>1540.5999755859</ele>
        <time>2022-08-21T08:38:43Z</time>
      </trkpt>
      <trkpt lat="44.00046" lon="6.52016">
        <ele>1539.8000488281</ele>
        <time>2022-08-21T08:38:45Z</time>
      </trkpt>
      <trkpt lat="44.00055" lon="6.52008">
        <ele>1538.8000488281</ele>
        <time>2022-08-21T08:38:49Z</time>
      </trkpt>
      <trkpt lat="44.00061" lon="6.52004">
        <ele>1537.5999755859</ele>
        <time>2022-08-21T08:38:52Z</time>
      </trkpt>
      <trkpt lat="44.00067" lon="6.52001">
        <ele>1536.5999755859</ele>
        <time>2022-08-21T08:38:55Z</time>
      </trkpt>
      <trkpt lat="44.00068" lon="6.52">
        <ele>1536</ele>
        <time>2022-08-21T08:38:56Z</time>
      </trkpt>
      <trkpt lat="44.00068" lon="6.51999">
        <ele>1535.8000488281</ele>
        <time>2022-08-21T08:38:57Z</time>
      </trkpt>
      <trkpt lat="44.00068" lon="6.51999">
        <ele>1535.4000244141</ele>
        <time>2022-08-21T08:38:59Z</time>
      </trkpt>
      <trkpt lat="44.00068" lon="6.51999">
        <ele>1535.1999511719</ele>
        <time>2022-08-21T08:39:01Z</time>
      </trkpt>
      <trkpt lat="44.00068" lon="6.52">
        <ele>1535.1999511719</ele>
        <time>2022-08-21T08:39:06Z</time>
      </trkpt>
      <trkpt lat="44.00068" lon="6.52">
        <ele>1535</ele>
        <time>2022-08-21T08:39:09Z</time>
      </trkpt>
      <trkpt lat="44.00067" lon="6.52">
        <ele>1535</ele>
        <time>2022-08-21T08:39:16Z</time>
      </trkpt>
      <trkpt lat="44.00068" lon="6.52">
        <ele>1534.5999755859</ele>
        <time>2022-08-21T08:39:30Z</time>
      </trkpt>
      <trkpt lat="44.00067" lon="6.52">
        <ele>1534.5999755859</ele>
        <time>2022-08-21T08:39:33Z</time>
      </trkpt>
      <trkpt lat="44.00067" lon="6.51999">
        <ele>1534.8000488281</ele>
        <time>2022-08-21T08:39:44Z</time>
      </trkpt>
      <trkpt lat="44.00066" lon="6.52">
        <ele>1534.5999755859</ele>
        <time>2022-08-21T08:39:55Z</time>
      </trkpt>
      <trkpt lat="44.00056" lon="6.51999">
        <ele>1534.1999511719</ele>
        <time>2022-08-21T08:40:03Z</time>
      </trkpt>
      <trkpt lat="44.00053" lon="6.51997">
        <ele>1533.8000488281</ele>
        <time>2022-08-21T08:40:04Z</time>
      </trkpt>
      <trkpt lat="44.00045" lon="6.51995">
        <ele>1532.8000488281</ele>
        <time>2022-08-21T08:40:07Z</time>
      </trkpt>
      <trkpt lat="44.00036" lon="6.51993">
        <ele>1531.8000488281</ele>
        <time>2022-08-21T08:40:10Z</time>
      </trkpt>
      <trkpt lat="44.00028" lon="6.5199">
        <ele>1530.8000488281</ele>
        <time>2022-08-21T08:40:13Z</time>
      </trkpt>
      <trkpt lat="44.0002" lon="6.51987">
        <ele>1529.5999755859</ele>
        <time>2022-08-21T08:40:16Z</time>
      </trkpt>
      <trkpt lat="44.00017" lon="6.51987">
        <ele>1529.1999511719</ele>
        <time>2022-08-21T08:40:17Z</time>
      </trkpt>
      <trkpt lat="44.00011" lon="6.51984">
        <ele>1528.4000244141</ele>
        <time>2022-08-21T08:40:19Z</time>
      </trkpt>
      <trkpt lat="43.99999" lon="6.5198">
        <ele>1527.4000244141</ele>
        <time>2022-08-21T08:40:22Z</time>
      </trkpt>
      <trkpt lat="43.99985" lon="6.51977">
        <ele>1525.8000488281</ele>
        <time>2022-08-21T08:40:25Z</time>
      </trkpt>
      <trkpt lat="43.99976" lon="6.51975">
        <ele>1524.8000488281</ele>
        <time>2022-08-21T08:40:27Z</time>
      </trkpt>
      <trkpt lat="43.99963" lon="6.51974">
        <ele>1523.4000244141</ele>
        <time>2022-08-21T08:40:30Z</time>
      </trkpt>
      <trkpt lat="43.99954" lon="6.51974">
        <ele>1522.8000488281</ele>
        <time>2022-08-21T08:40:32Z</time>
      </trkpt>
      <trkpt lat="43.99945" lon="6.51974">
        <ele>1522.1999511719</ele>
        <time>2022-08-21T08:40:34Z</time>
      </trkpt>
      <trkpt lat="43.99937" lon="6.51975">
        <ele>1521.5999755859</ele>
        <time>2022-08-21T08:40:36Z</time>
      </trkpt>
      <trkpt lat="43.99928" lon="6.51977">
        <ele>1521</ele>
        <time>2022-08-21T08:40:38Z</time>
      </trkpt>
      <trkpt lat="43.99924" lon="6.51979">
        <ele>1520.8000488281</ele>
        <time>2022-08-21T08:40:39Z</time>
      </trkpt>
      <trkpt lat="43.9992" lon="6.5198">
        <ele>1520.4000244141</ele>
        <time>2022-08-21T08:40:40Z</time>
      </trkpt>
      <trkpt lat="43.99916" lon="6.51981">
        <ele>1520.1999511719</ele>
        <time>2022-08-21T08:40:41Z</time>
      </trkpt>
      <trkpt lat="43.99913" lon="6.51981">
        <ele>1520</ele>
        <time>2022-08-21T08:40:42Z</time>
      </trkpt>
      <trkpt lat="43.9991" lon="6.51979">
        <ele>1519.5999755859</ele>
        <time>2022-08-21T08:40:43Z</time>
      </trkpt>
      <trkpt lat="43.99908" lon="6.51977">
        <ele>1519.1999511719</ele>
        <time>2022-08-21T08:40:44Z</time>
      </trkpt>
      <trkpt lat="43.99907" lon="6.51973">
        <ele>1519</ele>
        <time>2022-08-21T08:40:45Z</time>
      </trkpt>
      <trkpt lat="43.99907" lon="6.51969">
        <ele>1518.8000488281</ele>
        <time>2022-08-21T08:40:46Z</time>
      </trkpt>
      <trkpt lat="43.99909" lon="6.51966">
        <ele>1518.5999755859</ele>
        <time>2022-08-21T08:40:47Z</time>
      </trkpt>
      <trkpt lat="43.99921" lon="6.51962">
        <ele>1518.4000244141</ele>
        <time>2022-08-21T08:40:51Z</time>
      </trkpt>
      <trkpt lat="43.99934" lon="6.51963">
        <ele>1517.5999755859</ele>
        <time>2022-08-21T08:40:55Z</time>
      </trkpt>
      <trkpt lat="43.99944" lon="6.51962">
        <ele>1517</ele>
        <time>2022-08-21T08:40:58Z</time>
      </trkpt>
      <trkpt lat="43.99953" lon="6.5196">
        <ele>1516.5999755859</ele>
        <time>2022-08-21T08:41:00Z</time>
      </trkpt>
      <trkpt lat="43.99965" lon="6.51956">
        <ele>1515.4000244141</ele>
        <time>2022-08-21T08:41:03Z</time>
      </trkpt>
      <trkpt lat="43.99972" lon="6.51953">
        <ele>1515</ele>
        <time>2022-08-21T08:41:05Z</time>
      </trkpt>
      <trkpt lat="43.9998" lon="6.51949">
        <ele>1514.4000244141</ele>
        <time>2022-08-21T08:41:07Z</time>
      </trkpt>
      <trkpt lat="43.9999" lon="6.51941">
        <ele>1513</ele>
        <time>2022-08-21T08:41:11Z</time>
      </trkpt>
      <trkpt lat="43.99994" lon="6.51938">
        <ele>1512.4000244141</ele>
        <time>2022-08-21T08:41:13Z</time>
      </trkpt>
      <trkpt lat="43.99996" lon="6.51937">
        <ele>1512.1999511719</ele>
        <time>2022-08-21T08:41:14Z</time>
      </trkpt>
      <trkpt lat="43.99997" lon="6.51936">
        <ele>1512</ele>
        <time>2022-08-21T08:41:15Z</time>
      </trkpt>
      <trkpt lat="43.99998" lon="6.51935">
        <ele>1511.8000488281</ele>
        <time>2022-08-21T08:41:16Z</time>
      </trkpt>
      <trkpt lat="43.99996" lon="6.51933">
        <ele>1511.4000244141</ele>
        <time>2022-08-21T08:41:18Z</time>
      </trkpt>
      <trkpt lat="43.99993" lon="6.5193">
        <ele>1511.1999511719</ele>
        <time>2022-08-21T08:41:20Z</time>
      </trkpt>
      <trkpt lat="43.99991" lon="6.5193">
        <ele>1510.8000488281</ele>
        <time>2022-08-21T08:41:21Z</time>
      </trkpt>
      <trkpt lat="43.99985" lon="6.51929">
        <ele>1509.8000488281</ele>
        <time>2022-08-21T08:41:24Z</time>
      </trkpt>
      <trkpt lat="43.99984" lon="6.51928">
        <ele>1509.5999755859</ele>
        <time>2022-08-21T08:41:25Z</time>
      </trkpt>
      <trkpt lat="43.99979" lon="6.51925">
        <ele>1508.8000488281</ele>
        <time>2022-08-21T08:41:27Z</time>
      </trkpt>
      <trkpt lat="43.99977" lon="6.51923">
        <ele>1508.4000244141</ele>
        <time>2022-08-21T08:41:28Z</time>
      </trkpt>
      <trkpt lat="43.99969" lon="6.51919">
        <ele>1507.1999511719</ele>
        <time>2022-08-21T08:41:31Z</time>
      </trkpt>
      <trkpt lat="43.99966" lon="6.51917">
        <ele>1506.1999511719</ele>
        <time>2022-08-21T08:41:33Z</time>
      </trkpt>
      <trkpt lat="43.99964" lon="6.51916">
        <ele>1505.8000488281</ele>
        <time>2022-08-21T08:41:34Z</time>
      </trkpt>
      <trkpt lat="43.99959" lon="6.51915">
        <ele>1505</ele>
        <time>2022-08-21T08:41:36Z</time>
      </trkpt>
      <trkpt lat="43.99957" lon="6.51914">
        <ele>1504.5999755859</ele>
        <time>2022-08-21T08:41:37Z</time>
      </trkpt>
      <trkpt lat="43.99948" lon="6.51914">
        <ele>1503.4000244141</ele>
        <time>2022-08-21T08:41:41Z</time>
      </trkpt>
      <trkpt lat="43.9994" lon="6.51914">
        <ele>1502.1999511719</ele>
        <time>2022-08-21T08:41:45Z</time>
      </trkpt>
      <trkpt lat="43.99935" lon="6.51913">
        <ele>1501.4000244141</ele>
        <time>2022-08-21T08:41:48Z</time>
      </trkpt>
      <trkpt lat="43.99933" lon="6.51913">
        <ele>1501.1999511719</ele>
        <time>2022-08-21T08:41:49Z</time>
      </trkpt>
      <trkpt lat="43.99928" lon="6.51912">
        <ele>1500.1999511719</ele>
        <time>2022-08-21T08:41:52Z</time>
      </trkpt>
      <trkpt lat="43.99922" lon="6.51913">
        <ele>1499</ele>
        <time>2022-08-21T08:41:55Z</time>
      </trkpt>
      <trkpt lat="43.9992" lon="6.51913">
        <ele>1498.5999755859</ele>
        <time>2022-08-21T08:41:56Z</time>
      </trkpt>
      <trkpt lat="43.99917" lon="6.51913">
        <ele>1497.8000488281</ele>
        <time>2022-08-21T08:41:58Z</time>
      </trkpt>
      <trkpt lat="43.9991" lon="6.51912">
        <ele>1496.5999755859</ele>
        <time>2022-08-21T08:42:01Z</time>
      </trkpt>
      <trkpt lat="43.99905" lon="6.51911">
        <ele>1496</ele>
        <time>2022-08-21T08:42:03Z</time>
      </trkpt>
      <trkpt lat="43.99899" lon="6.5191">
        <ele>1495.4000244141</ele>
        <time>2022-08-21T08:42:05Z</time>
      </trkpt>
      <trkpt lat="43.99889" lon="6.51912">
        <ele>1494.1999511719</ele>
        <time>2022-08-21T08:42:08Z</time>
      </trkpt>
      <trkpt lat="43.99883" lon="6.51914">
        <ele>1493.4000244141</ele>
        <time>2022-08-21T08:42:10Z</time>
      </trkpt>
      <trkpt lat="43.9988" lon="6.51915">
        <ele>1493.1999511719</ele>
        <time>2022-08-21T08:42:11Z</time>
      </trkpt>
      <trkpt lat="43.99872" lon="6.5192">
        <ele>1492.1999511719</ele>
        <time>2022-08-21T08:42:15Z</time>
      </trkpt>
      <trkpt lat="43.99869" lon="6.51922">
        <ele>1491.5999755859</ele>
        <time>2022-08-21T08:42:17Z</time>
      </trkpt>
      <trkpt lat="43.99864" lon="6.51924">
        <ele>1490.8000488281</ele>
        <time>2022-08-21T08:42:20Z</time>
      </trkpt>
      <trkpt lat="43.99857" lon="6.51927">
        <ele>1489.5999755859</ele>
        <time>2022-08-21T08:42:23Z</time>
      </trkpt>
      <trkpt lat="43.99855" lon="6.51928">
        <ele>1489.1999511719</ele>
        <time>2022-08-21T08:42:24Z</time>
      </trkpt>
      <trkpt lat="43.99849" lon="6.51931">
        <ele>1488.4000244141</ele>
        <time>2022-08-21T08:42:26Z</time>
      </trkpt>
      <trkpt lat="43.99845" lon="6.51932">
        <ele>1487.1999511719</ele>
        <time>2022-08-21T08:42:30Z</time>
      </trkpt>
      <trkpt lat="43.99844" lon="6.51932">
        <ele>1486.5999755859</ele>
        <time>2022-08-21T08:42:33Z</time>
      </trkpt>
      <trkpt lat="43.99842" lon="6.51933">
        <ele>1486.4000244141</ele>
        <time>2022-08-21T08:42:35Z</time>
      </trkpt>
      <trkpt lat="43.99839" lon="6.51934">
        <ele>1486.1999511719</ele>
        <time>2022-08-21T08:42:37Z</time>
      </trkpt>
      <trkpt lat="43.9983" lon="6.51939">
        <ele>1484.5999755859</ele>
        <time>2022-08-21T08:42:41Z</time>
      </trkpt>
      <trkpt lat="43.99827" lon="6.51942">
        <ele>1483.5999755859</ele>
        <time>2022-08-21T08:42:43Z</time>
      </trkpt>
      <trkpt lat="43.99822" lon="6.51946">
        <ele>1482.5999755859</ele>
        <time>2022-08-21T08:42:45Z</time>
      </trkpt>
      <trkpt lat="43.99816" lon="6.51951">
        <ele>1481.4000244141</ele>
        <time>2022-08-21T08:42:47Z</time>
      </trkpt>
      <trkpt lat="43.99811" lon="6.5196">
        <ele>1480.1999511719</ele>
        <time>2022-08-21T08:42:49Z</time>
      </trkpt>
      <trkpt lat="43.99807" lon="6.51971">
        <ele>1479</ele>
        <time>2022-08-21T08:42:52Z</time>
      </trkpt>
      <trkpt lat="43.99804" lon="6.51978">
        <ele>1478.5999755859</ele>
        <time>2022-08-21T08:42:54Z</time>
      </trkpt>
      <trkpt lat="43.99802" lon="6.51984">
        <ele>1478.4000244141</ele>
        <time>2022-08-21T08:42:56Z</time>
      </trkpt>
      <trkpt lat="43.998" lon="6.51991">
        <ele>1478</ele>
        <time>2022-08-21T08:42:58Z</time>
      </trkpt>
      <trkpt lat="43.99799" lon="6.51995">
        <ele>1477.8000488281</ele>
        <time>2022-08-21T08:42:59Z</time>
      </trkpt>
      <trkpt lat="43.99796" lon="6.52011">
        <ele>1476.8000488281</ele>
        <time>2022-08-21T08:43:03Z</time>
      </trkpt>
      <trkpt lat="43.99792" lon="6.5202">
        <ele>1475.8000488281</ele>
        <time>2022-08-21T08:43:06Z</time>
      </trkpt>
      <trkpt lat="43.99791" lon="6.52022">
        <ele>1475.4000244141</ele>
        <time>2022-08-21T08:43:07Z</time>
      </trkpt>
      <trkpt lat="43.99789" lon="6.52027">
        <ele>1474.4000244141</ele>
        <time>2022-08-21T08:43:09Z</time>
      </trkpt>
      <trkpt lat="43.99785" lon="6.52036">
        <ele>1473.1999511719</ele>
        <time>2022-08-21T08:43:12Z</time>
      </trkpt>
      <trkpt lat="43.99784" lon="6.52038">
        <ele>1472.8000488281</ele>
        <time>2022-08-21T08:43:13Z</time>
      </trkpt>
      <trkpt lat="43.99783" lon="6.52043">
        <ele>1472</ele>
        <time>2022-08-21T08:43:15Z</time>
      </trkpt>
      <trkpt lat="43.99782" lon="6.52045">
        <ele>1470.8000488281</ele>
        <time>2022-08-21T08:43:18Z</time>
      </trkpt>
      <trkpt lat="43.99779" lon="6.52037">
        <ele>1470</ele>
        <time>2022-08-21T08:43:21Z</time>
      </trkpt>
      <trkpt lat="43.99778" lon="6.52033">
        <ele>1469.5999755859</ele>
        <time>2022-08-21T08:43:22Z</time>
      </trkpt>
      <trkpt lat="43.99777" lon="6.5203">
        <ele>1469.1999511719</ele>
        <time>2022-08-21T08:43:23Z</time>
      </trkpt>
      <trkpt lat="43.99776" lon="6.52025">
        <ele>1468.5999755859</ele>
        <time>2022-08-21T08:43:24Z</time>
      </trkpt>
      <trkpt lat="43.99771" lon="6.52015">
        <ele>1467</ele>
        <time>2022-08-21T08:43:27Z</time>
      </trkpt>
      <trkpt lat="43.99767" lon="6.52013">
        <ele>1465.8000488281</ele>
        <time>2022-08-21T08:43:29Z</time>
      </trkpt>
      <trkpt lat="43.99762" lon="6.52013">
        <ele>1464.8000488281</ele>
        <time>2022-08-21T08:43:31Z</time>
      </trkpt>
      <trkpt lat="43.99755" lon="6.52012">
        <ele>1463.5999755859</ele>
        <time>2022-08-21T08:43:34Z</time>
      </trkpt>
      <trkpt lat="43.9975" lon="6.52011">
        <ele>1462.5999755859</ele>
        <time>2022-08-21T08:43:36Z</time>
      </trkpt>
      <trkpt lat="43.99744" lon="6.52011">
        <ele>1461.1999511719</ele>
        <time>2022-08-21T08:43:39Z</time>
      </trkpt>
      <trkpt lat="43.99736" lon="6.52014">
        <ele>1459.5999755859</ele>
        <time>2022-08-21T08:43:42Z</time>
      </trkpt>
      <trkpt lat="43.9973" lon="6.52016">
        <ele>1458.4000244141</ele>
        <time>2022-08-21T08:43:44Z</time>
      </trkpt>
      <trkpt lat="43.99728" lon="6.52018">
        <ele>1457.8000488281</ele>
        <time>2022-08-21T08:43:45Z</time>
      </trkpt>
      <trkpt lat="43.99725" lon="6.5202">
        <ele>1457.1999511719</ele>
        <time>2022-08-21T08:43:46Z</time>
      </trkpt>
      <trkpt lat="43.99719" lon="6.52021">
        <ele>1455.8000488281</ele>
        <time>2022-08-21T08:43:48Z</time>
      </trkpt>
      <trkpt lat="43.99714" lon="6.52022">
        <ele>1454.1999511719</ele>
        <time>2022-08-21T08:43:50Z</time>
      </trkpt>
      <trkpt lat="43.99712" lon="6.52023">
        <ele>1453.4000244141</ele>
        <time>2022-08-21T08:43:51Z</time>
      </trkpt>
      <trkpt lat="43.99709" lon="6.52023">
        <ele>1453</ele>
        <time>2022-08-21T08:43:52Z</time>
      </trkpt>
      <trkpt lat="43.99703" lon="6.52023">
        <ele>1451.5999755859</ele>
        <time>2022-08-21T08:43:54Z</time>
      </trkpt>
      <trkpt lat="43.99701" lon="6.52024">
        <ele>1451.1999511719</ele>
        <time>2022-08-21T08:43:55Z</time>
      </trkpt>
      <trkpt lat="43.99699" lon="6.52024">
        <ele>1450.5999755859</ele>
        <time>2022-08-21T08:43:56Z</time>
      </trkpt>
      <trkpt lat="43.99695" lon="6.52024">
        <ele>1449.4000244141</ele>
        <time>2022-08-21T08:43:58Z</time>
      </trkpt>
      <trkpt lat="43.99689" lon="6.52023">
        <ele>1448.1999511719</ele>
        <time>2022-08-21T08:44:01Z</time>
      </trkpt>
      <trkpt lat="43.99686" lon="6.52023">
        <ele>1447.4000244141</ele>
        <time>2022-08-21T08:44:03Z</time>
      </trkpt>
      <trkpt lat="43.99684" lon="6.52022">
        <ele>1447</ele>
        <time>2022-08-21T08:44:04Z</time>
      </trkpt>
      <trkpt lat="43.99677" lon="6.52021">
        <ele>1445.5999755859</ele>
        <time>2022-08-21T08:44:07Z</time>
      </trkpt>
      <trkpt lat="43.99675" lon="6.52022">
        <ele>1445.1999511719</ele>
        <time>2022-08-21T08:44:08Z</time>
      </trkpt>
      <trkpt lat="43.99671" lon="6.52022">
        <ele>1444.4000244141</ele>
        <time>2022-08-21T08:44:10Z</time>
      </trkpt>
      <trkpt lat="43.99667" lon="6.52021">
        <ele>1443.1999511719</ele>
        <time>2022-08-21T08:44:12Z</time>
      </trkpt>
      <trkpt lat="43.99661" lon="6.52019">
        <ele>1441.8000488281</ele>
        <time>2022-08-21T08:44:15Z</time>
      </trkpt>
      <trkpt lat="43.99658" lon="6.52017">
        <ele>1441.1999511719</ele>
        <time>2022-08-21T08:44:17Z</time>
      </trkpt>
      <trkpt lat="43.99655" lon="6.52015">
        <ele>1440.5999755859</ele>
        <time>2022-08-21T08:44:19Z</time>
      </trkpt>
      <trkpt lat="43.99651" lon="6.5201">
        <ele>1439.4000244141</ele>
        <time>2022-08-21T08:44:22Z</time>
      </trkpt>
      <trkpt lat="43.99647" lon="6.52003">
        <ele>1438</ele>
        <time>2022-08-21T08:44:25Z</time>
      </trkpt>
      <trkpt lat="43.99641" lon="6.51998">
        <ele>1436.8000488281</ele>
        <time>2022-08-21T08:44:28Z</time>
      </trkpt>
      <trkpt lat="43.99633" lon="6.51993">
        <ele>1435.5999755859</ele>
        <time>2022-08-21T08:44:31Z</time>
      </trkpt>
      <trkpt lat="43.99629" lon="6.51989">
        <ele>1434.8000488281</ele>
        <time>2022-08-21T08:44:33Z</time>
      </trkpt>
      <trkpt lat="43.99627" lon="6.51989">
        <ele>1434.5999755859</ele>
        <time>2022-08-21T08:44:34Z</time>
      </trkpt>
      <trkpt lat="43.9962" lon="6.51991">
        <ele>1433.4000244141</ele>
        <time>2022-08-21T08:44:37Z</time>
      </trkpt>
      <trkpt lat="43.99615" lon="6.5199">
        <ele>1432.1999511719</ele>
        <time>2022-08-21T08:44:39Z</time>
      </trkpt>
      <trkpt lat="43.9961" lon="6.51988">
        <ele>1431</ele>
        <time>2022-08-21T08:44:41Z</time>
      </trkpt>
      <trkpt lat="43.99602" lon="6.51987">
        <ele>1429.4000244141</ele>
        <time>2022-08-21T08:44:44Z</time>
      </trkpt>
      <trkpt lat="43.99597" lon="6.51986">
        <ele>1428.1999511719</ele>
        <time>2022-08-21T08:44:46Z</time>
      </trkpt>
      <trkpt lat="43.99593" lon="6.51985">
        <ele>1427.1999511719</ele>
        <time>2022-08-21T08:44:48Z</time>
      </trkpt>
      <trkpt lat="43.99588" lon="6.51982">
        <ele>1425.8000488281</ele>
        <time>2022-08-21T08:44:51Z</time>
      </trkpt>
      <trkpt lat="43.99584" lon="6.51981">
        <ele>1424.5999755859</ele>
        <time>2022-08-21T08:44:54Z</time>
      </trkpt>
      <trkpt lat="43.99578" lon="6.51981">
        <ele>1423.4000244141</ele>
        <time>2022-08-21T08:44:57Z</time>
      </trkpt>
      <trkpt lat="43.99577" lon="6.51981">
        <ele>1422.8000488281</ele>
        <time>2022-08-21T08:44:58Z</time>
      </trkpt>
      <trkpt lat="43.99573" lon="6.51982">
        <ele>1422.1999511719</ele>
        <time>2022-08-21T08:45:00Z</time>
      </trkpt>
      <trkpt lat="43.9957" lon="6.51982">
        <ele>1421.5999755859</ele>
        <time>2022-08-21T08:45:02Z</time>
      </trkpt>
      <trkpt lat="43.99568" lon="6.51982">
        <ele>1421.1999511719</ele>
        <time>2022-08-21T08:45:03Z</time>
      </trkpt>
      <trkpt lat="43.99562" lon="6.5198">
        <ele>1420</ele>
        <time>2022-08-21T08:45:06Z</time>
      </trkpt>
      <trkpt lat="43.99555" lon="6.51979">
        <ele>1419</ele>
        <time>2022-08-21T08:45:09Z</time>
      </trkpt>
      <trkpt lat="43.9955" lon="6.51978">
        <ele>1418.1999511719</ele>
        <time>2022-08-21T08:45:11Z</time>
      </trkpt>
      <trkpt lat="43.99547" lon="6.51977">
        <ele>1417.8000488281</ele>
        <time>2022-08-21T08:45:12Z</time>
      </trkpt>
      <trkpt lat="43.99539" lon="6.51975">
        <ele>1416.5999755859</ele>
        <time>2022-08-21T08:45:15Z</time>
      </trkpt>
      <trkpt lat="43.99534" lon="6.51974">
        <ele>1415.4000244141</ele>
        <time>2022-08-21T08:45:17Z</time>
      </trkpt>
      <trkpt lat="43.99529" lon="6.51972">
        <ele>1414.4000244141</ele>
        <time>2022-08-21T08:45:19Z</time>
      </trkpt>
      <trkpt lat="43.99522" lon="6.5197">
        <ele>1413</ele>
        <time>2022-08-21T08:45:22Z</time>
      </trkpt>
      <trkpt lat="43.99518" lon="6.51968">
        <ele>1412</ele>
        <time>2022-08-21T08:45:24Z</time>
      </trkpt>
      <trkpt lat="43.99512" lon="6.51966">
        <ele>1411</ele>
        <time>2022-08-21T08:45:26Z</time>
      </trkpt>
      <trkpt lat="43.99504" lon="6.5196">
        <ele>1409.8000488281</ele>
        <time>2022-08-21T08:45:29Z</time>
      </trkpt>
      <trkpt lat="43.995" lon="6.51957">
        <ele>1409.1999511719</ele>
        <time>2022-08-21T08:45:30Z</time>
      </trkpt>
      <trkpt lat="43.99494" lon="6.51953">
        <ele>1408.4000244141</ele>
        <time>2022-08-21T08:45:32Z</time>
      </trkpt>
      <trkpt lat="43.99489" lon="6.51946">
        <ele>1407.1999511719</ele>
        <time>2022-08-21T08:45:35Z</time>
      </trkpt>
      <trkpt lat="43.99486" lon="6.51941">
        <ele>1406.4000244141</ele>
        <time>2022-08-21T08:45:37Z</time>
      </trkpt>
      <trkpt lat="43.99484" lon="6.51939">
        <ele>1405.8000488281</ele>
        <time>2022-08-21T08:45:38Z</time>
      </trkpt>
      <trkpt lat="43.99479" lon="6.51933">
        <ele>1404.8000488281</ele>
        <time>2022-08-21T08:45:40Z</time>
      </trkpt>
      <trkpt lat="43.99473" lon="6.51928">
        <ele>1404</ele>
        <time>2022-08-21T08:45:42Z</time>
      </trkpt>
      <trkpt lat="43.99472" lon="6.51926">
        <ele>1403.4000244141</ele>
        <time>2022-08-21T08:45:43Z</time>
      </trkpt>
      <trkpt lat="43.99465" lon="6.51917">
        <ele>1402.1999511719</ele>
        <time>2022-08-21T08:45:46Z</time>
      </trkpt>
      <trkpt lat="43.99459" lon="6.5191">
        <ele>1401</ele>
        <time>2022-08-21T08:45:49Z</time>
      </trkpt>
      <trkpt lat="43.99451" lon="6.51903">
        <ele>1399.8000488281</ele>
        <time>2022-08-21T08:45:52Z</time>
      </trkpt>
      <trkpt lat="43.99444" lon="6.51896">
        <ele>1398.8000488281</ele>
        <time>2022-08-21T08:45:56Z</time>
      </trkpt>
      <trkpt lat="43.99444" lon="6.51894">
        <ele>1398.1999511719</ele>
        <time>2022-08-21T08:45:58Z</time>
      </trkpt>
      <trkpt lat="43.99444" lon="6.51894">
        <ele>1398</ele>
        <time>2022-08-21T08:46:00Z</time>
      </trkpt>
      <trkpt lat="43.99444" lon="6.51893">
        <ele>1397.8000488281</ele>
        <time>2022-08-21T08:46:05Z</time>
      </trkpt>
      <trkpt lat="43.99446" lon="6.51892">
        <ele>1397.5999755859</ele>
        <time>2022-08-21T08:46:08Z</time>
      </trkpt>
      <trkpt lat="43.9945" lon="6.51889">
        <ele>1397.8000488281</ele>
        <time>2022-08-21T08:46:19Z</time>
      </trkpt>
      <trkpt lat="43.9945" lon="6.5189">
        <ele>1397.8000488281</ele>
        <time>2022-08-21T08:46:28Z</time>
      </trkpt>
      <trkpt lat="43.9945" lon="6.5189">
        <ele>1397.8000488281</ele>
        <time>2022-08-21T08:46:34Z</time>
      </trkpt>
      <trkpt lat="43.9945" lon="6.51889">
        <ele>1397.5999755859</ele>
        <time>2022-08-21T08:46:40Z</time>
      </trkpt>
      <trkpt lat="43.99449" lon="6.51888">
        <ele>1397.4000244141</ele>
        <time>2022-08-21T08:46:52Z</time>
      </trkpt>
      <trkpt lat="43.99449" lon="6.51889">
        <ele>1397.1999511719</ele>
        <time>2022-08-21T08:47:02Z</time>
      </trkpt>
      <trkpt lat="43.99446" lon="6.5189">
        <ele>1397.1999511719</ele>
        <time>2022-08-21T08:47:10Z</time>
      </trkpt>
      <trkpt lat="43.99442" lon="6.51893">
        <ele>1397.1999511719</ele>
        <time>2022-08-21T08:47:15Z</time>
      </trkpt>
      <trkpt lat="43.9944" lon="6.51893">
        <ele>1397.1999511719</ele>
        <time>2022-08-21T08:47:19Z</time>
      </trkpt>
      <trkpt lat="43.99433" lon="6.51885">
        <ele>1397.1999511719</ele>
        <time>2022-08-21T08:47:24Z</time>
      </trkpt>
      <trkpt lat="43.99428" lon="6.5188">
        <ele>1394.5999755859</ele>
        <time>2022-08-21T08:47:26Z</time>
      </trkpt>
      <trkpt lat="43.99416" lon="6.51863">
        <ele>1394.1999511719</ele>
        <time>2022-08-21T08:47:32Z</time>
      </trkpt>
      <trkpt lat="43.99409" lon="6.51853">
        <ele>1393.5999755859</ele>
        <time>2022-08-21T08:47:35Z</time>
      </trkpt>
      <trkpt lat="43.99403" lon="6.51849">
        <ele>1393</ele>
        <time>2022-08-21T08:47:38Z</time>
      </trkpt>
      <trkpt lat="43.994" lon="6.51848">
        <ele>1392.5999755859</ele>
        <time>2022-08-21T08:47:39Z</time>
      </trkpt>
      <trkpt lat="43.99397" lon="6.51847">
        <ele>1392.1999511719</ele>
        <time>2022-08-21T08:47:40Z</time>
      </trkpt>
      <trkpt lat="43.99391" lon="6.51845">
        <ele>1391.1999511719</ele>
        <time>2022-08-21T08:47:42Z</time>
      </trkpt>
      <trkpt lat="43.99387" lon="6.51843">
        <ele>1390</ele>
        <time>2022-08-21T08:47:44Z</time>
      </trkpt>
      <trkpt lat="43.99381" lon="6.5184">
        <ele>1388.8000488281</ele>
        <time>2022-08-21T08:47:46Z</time>
      </trkpt>
      <trkpt lat="43.99375" lon="6.51838">
        <ele>1388</ele>
        <time>2022-08-21T08:47:48Z</time>
      </trkpt>
      <trkpt lat="43.99372" lon="6.51837">
        <ele>1387.8000488281</ele>
        <time>2022-08-21T08:47:49Z</time>
      </trkpt>
      <trkpt lat="43.99363" lon="6.51834">
        <ele>1386.1999511719</ele>
        <time>2022-08-21T08:47:52Z</time>
      </trkpt>
      <trkpt lat="43.99358" lon="6.51832">
        <ele>1385</ele>
        <time>2022-08-21T08:47:55Z</time>
      </trkpt>
      <trkpt lat="43.99352" lon="6.5183">
        <ele>1383.8000488281</ele>
        <time>2022-08-21T08:47:58Z</time>
      </trkpt>
      <trkpt lat="43.9935" lon="6.51828">
        <ele>1383.4000244141</ele>
        <time>2022-08-21T08:47:59Z</time>
      </trkpt>
      <trkpt lat="43.99346" lon="6.51825">
        <ele>1382.8000488281</ele>
        <time>2022-08-21T08:48:01Z</time>
      </trkpt>
      <trkpt lat="43.9934" lon="6.51821">
        <ele>1381.5999755859</ele>
        <time>2022-08-21T08:48:04Z</time>
      </trkpt>
      <trkpt lat="43.99337" lon="6.51818">
        <ele>1380.5999755859</ele>
        <time>2022-08-21T08:48:06Z</time>
      </trkpt>
      <trkpt lat="43.99336" lon="6.51816">
        <ele>1380.1999511719</ele>
        <time>2022-08-21T08:48:07Z</time>
      </trkpt>
      <trkpt lat="43.99336" lon="6.51816">
        <ele>1379.8000488281</ele>
        <time>2022-08-21T08:48:08Z</time>
      </trkpt>
      <trkpt lat="43.99335" lon="6.51815">
        <ele>1379.4000244141</ele>
        <time>2022-08-21T08:48:09Z</time>
      </trkpt>
      <trkpt lat="43.99335" lon="6.51815">
        <ele>1379.1999511719</ele>
        <time>2022-08-21T08:48:10Z</time>
      </trkpt>
      <trkpt lat="43.99335" lon="6.51815">
        <ele>1379.1999511719</ele>
        <time>2022-08-21T08:48:11Z</time>
      </trkpt>
      <trkpt lat="43.99334" lon="6.51815">
        <ele>1379</ele>
        <time>2022-08-21T08:48:13Z</time>
      </trkpt>
      <trkpt lat="43.99335" lon="6.51823">
        <ele>1378</ele>
        <time>2022-08-21T08:48:20Z</time>
      </trkpt>
      <trkpt lat="43.99336" lon="6.51826">
        <ele>1377.8000488281</ele>
        <time>2022-08-21T08:48:21Z</time>
      </trkpt>
      <trkpt lat="43.99339" lon="6.5183">
        <ele>1377</ele>
        <time>2022-08-21T08:48:23Z</time>
      </trkpt>
      <trkpt lat="43.99345" lon="6.51838">
        <ele>1375.8000488281</ele>
        <time>2022-08-21T08:48:27Z</time>
      </trkpt>
      <trkpt lat="43.99345" lon="6.5184">
        <ele>1375.5999755859</ele>
        <time>2022-08-21T08:48:28Z</time>
      </trkpt>
      <trkpt lat="43.99341" lon="6.51842">
        <ele>1374.8000488281</ele>
        <time>2022-08-21T08:48:31Z</time>
      </trkpt>
      <trkpt lat="43.99339" lon="6.51841">
        <ele>1374.5999755859</ele>
        <time>2022-08-21T08:48:32Z</time>
      </trkpt>
      <trkpt lat="43.99334" lon="6.51839">
        <ele>1373.5999755859</ele>
        <time>2022-08-21T08:48:35Z</time>
      </trkpt>
      <trkpt lat="43.99329" lon="6.51836">
        <ele>1372.5999755859</ele>
        <time>2022-08-21T08:48:38Z</time>
      </trkpt>
      <trkpt lat="43.99327" lon="6.51835">
        <ele>1372.1999511719</ele>
        <time>2022-08-21T08:48:39Z</time>
      </trkpt>
      <trkpt lat="43.99322" lon="6.51831">
        <ele>1371.1999511719</ele>
        <time>2022-08-21T08:48:42Z</time>
      </trkpt>
      <trkpt lat="43.99321" lon="6.51831">
        <ele>1371</ele>
        <time>2022-08-21T08:48:43Z</time>
      </trkpt>
      <trkpt lat="43.99321" lon="6.51831">
        <ele>1370.5999755859</ele>
        <time>2022-08-21T08:48:44Z</time>
      </trkpt>
      <trkpt lat="43.99321" lon="6.51832">
        <ele>1370.1999511719</ele>
        <time>2022-08-21T08:48:45Z</time>
      </trkpt>
      <trkpt lat="43.99321" lon="6.51832">
        <ele>1369.8000488281</ele>
        <time>2022-08-21T08:48:47Z</time>
      </trkpt>
      <trkpt lat="43.99323" lon="6.51837">
        <ele>1369.1999511719</ele>
        <time>2022-08-21T08:48:53Z</time>
      </trkpt>
      <trkpt lat="43.99327" lon="6.51844">
        <ele>1368.4000244141</ele>
        <time>2022-08-21T08:48:56Z</time>
      </trkpt>
      <trkpt lat="43.99329" lon="6.51848">
        <ele>1367.8000488281</ele>
        <time>2022-08-21T08:48:58Z</time>
      </trkpt>
      <trkpt lat="43.99333" lon="6.51854">
        <ele>1366.8000488281</ele>
        <time>2022-08-21T08:49:02Z</time>
      </trkpt>
      <trkpt lat="43.99334" lon="6.51857">
        <ele>1366.1999511719</ele>
        <time>2022-08-21T08:49:04Z</time>
      </trkpt>
      <trkpt lat="43.99333" lon="6.51859">
        <ele>1366</ele>
        <time>2022-08-21T08:49:06Z</time>
      </trkpt>
      <trkpt lat="43.99332" lon="6.51859">
        <ele>1365.5999755859</ele>
        <time>2022-08-21T08:49:07Z</time>
      </trkpt>
      <trkpt lat="43.99331" lon="6.51858">
        <ele>1365.5999755859</ele>
        <time>2022-08-21T08:49:08Z</time>
      </trkpt>
      <trkpt lat="43.99326" lon="6.51855">
        <ele>1364.4000244141</ele>
        <time>2022-08-21T08:49:12Z</time>
      </trkpt>
      <trkpt lat="43.99322" lon="6.51852">
        <ele>1364</ele>
        <time>2022-08-21T08:49:14Z</time>
      </trkpt>
      <trkpt lat="43.99318" lon="6.5185">
        <ele>1363.4000244141</ele>
        <time>2022-08-21T08:49:16Z</time>
      </trkpt>
      <trkpt lat="43.99316" lon="6.51849">
        <ele>1362.8000488281</ele>
        <time>2022-08-21T08:49:18Z</time>
      </trkpt>
      <trkpt lat="43.99315" lon="6.51847">
        <ele>1362.1999511719</ele>
        <time>2022-08-21T08:49:20Z</time>
      </trkpt>
      <trkpt lat="43.99313" lon="6.51846">
        <ele>1361.5999755859</ele>
        <time>2022-08-21T08:49:23Z</time>
      </trkpt>
      <trkpt lat="43.99313" lon="6.51849">
        <ele>1361</ele>
        <time>2022-08-21T08:49:25Z</time>
      </trkpt>
      <trkpt lat="43.99317" lon="6.51856">
        <ele>1360</ele>
        <time>2022-08-21T08:49:29Z</time>
      </trkpt>
      <trkpt lat="43.99319" lon="6.51859">
        <ele>1359.8000488281</ele>
        <time>2022-08-21T08:49:30Z</time>
      </trkpt>
      <trkpt lat="43.99323" lon="6.51866">
        <ele>1358.8000488281</ele>
        <time>2022-08-21T08:49:33Z</time>
      </trkpt>
      <trkpt lat="43.99324" lon="6.51868">
        <ele>1358.5999755859</ele>
        <time>2022-08-21T08:49:34Z</time>
      </trkpt>
      <trkpt lat="43.99327" lon="6.51873">
        <ele>1357.5999755859</ele>
        <time>2022-08-21T08:49:37Z</time>
      </trkpt>
      <trkpt lat="43.99327" lon="6.51874">
        <ele>1357.4000244141</ele>
        <time>2022-08-21T08:49:38Z</time>
      </trkpt>
      <trkpt lat="43.99326" lon="6.51876">
        <ele>1357</ele>
        <time>2022-08-21T08:49:40Z</time>
      </trkpt>
      <trkpt lat="43.99324" lon="6.51877">
        <ele>1356.8000488281</ele>
        <time>2022-08-21T08:49:42Z</time>
      </trkpt>
      <trkpt lat="43.9932" lon="6.51875">
        <ele>1356.4000244141</ele>
        <time>2022-08-21T08:49:45Z</time>
      </trkpt>
      <trkpt lat="43.99314" lon="6.51873">
        <ele>1355.4000244141</ele>
        <time>2022-08-21T08:49:48Z</time>
      </trkpt>
      <trkpt lat="43.99313" lon="6.51872">
        <ele>1355.1999511719</ele>
        <time>2022-08-21T08:49:49Z</time>
      </trkpt>
      <trkpt lat="43.99311" lon="6.51871">
        <ele>1354.8000488281</ele>
        <time>2022-08-21T08:49:50Z</time>
      </trkpt>
      <trkpt lat="43.99307" lon="6.5187">
        <ele>1354.1999511719</ele>
        <time>2022-08-21T08:49:52Z</time>
      </trkpt>
      <trkpt lat="43.99304" lon="6.51866">
        <ele>1353</ele>
        <time>2022-08-21T08:49:56Z</time>
      </trkpt>
      <trkpt lat="43.99303" lon="6.51866">
        <ele>1352.8000488281</ele>
        <time>2022-08-21T08:49:57Z</time>
      </trkpt>
      <trkpt lat="43.99302" lon="6.51868">
        <ele>1352.4000244141</ele>
        <time>2022-08-21T08:49:59Z</time>
      </trkpt>
      <trkpt lat="43.99302" lon="6.51868">
        <ele>1352.4000244141</ele>
        <time>2022-08-21T08:50:00Z</time>
      </trkpt>
      <trkpt lat="43.99304" lon="6.51872">
        <ele>1352</ele>
        <time>2022-08-21T08:50:03Z</time>
      </trkpt>
      <trkpt lat="43.99308" lon="6.51881">
        <ele>1351</ele>
        <time>2022-08-21T08:50:07Z</time>
      </trkpt>
      <trkpt lat="43.99309" lon="6.51883">
        <ele>1350.4000244141</ele>
        <time>2022-08-21T08:50:08Z</time>
      </trkpt>
      <trkpt lat="43.99312" lon="6.51888">
        <ele>1349.8000488281</ele>
        <time>2022-08-21T08:50:10Z</time>
      </trkpt>
      <trkpt lat="43.99315" lon="6.51892">
        <ele>1348.5999755859</ele>
        <time>2022-08-21T08:50:13Z</time>
      </trkpt>
      <trkpt lat="43.99315" lon="6.51895">
        <ele>1348.1999511719</ele>
        <time>2022-08-21T08:50:15Z</time>
      </trkpt>
      <trkpt lat="43.99314" lon="6.51896">
        <ele>1348.1999511719</ele>
        <time>2022-08-21T08:50:16Z</time>
      </trkpt>
      <trkpt lat="43.99311" lon="6.51894">
        <ele>1347.5999755859</ele>
        <time>2022-08-21T08:50:18Z</time>
      </trkpt>
      <trkpt lat="43.99309" lon="6.51892">
        <ele>1347.4000244141</ele>
        <time>2022-08-21T08:50:19Z</time>
      </trkpt>
      <trkpt lat="43.99302" lon="6.51887">
        <ele>1346.4000244141</ele>
        <time>2022-08-21T08:50:22Z</time>
      </trkpt>
      <trkpt lat="43.99294" lon="6.51884">
        <ele>1345</ele>
        <time>2022-08-21T08:50:26Z</time>
      </trkpt>
      <trkpt lat="43.99291" lon="6.51883">
        <ele>1344.5999755859</ele>
        <time>2022-08-21T08:50:28Z</time>
      </trkpt>
      <trkpt lat="43.99287" lon="6.51881">
        <ele>1344</ele>
        <time>2022-08-21T08:50:30Z</time>
      </trkpt>
      <trkpt lat="43.99286" lon="6.5188">
        <ele>1343.8000488281</ele>
        <time>2022-08-21T08:50:31Z</time>
      </trkpt>
      <trkpt lat="43.99281" lon="6.51875">
        <ele>1342.8000488281</ele>
        <time>2022-08-21T08:50:34Z</time>
      </trkpt>
      <trkpt lat="43.99277" lon="6.51873">
        <ele>1342</ele>
        <time>2022-08-21T08:50:36Z</time>
      </trkpt>
      <trkpt lat="43.99275" lon="6.51873">
        <ele>1341.8000488281</ele>
        <time>2022-08-21T08:50:37Z</time>
      </trkpt>
      <trkpt lat="43.99269" lon="6.5187">
        <ele>1340.5999755859</ele>
        <time>2022-08-21T08:50:41Z</time>
      </trkpt>
      <trkpt lat="43.99264" lon="6.51868">
        <ele>1339.4000244141</ele>
        <time>2022-08-21T08:50:44Z</time>
      </trkpt>
      <trkpt lat="43.99263" lon="6.51867">
        <ele>1339</ele>
        <time>2022-08-21T08:50:45Z</time>
      </trkpt>
      <trkpt lat="43.99257" lon="6.51863">
        <ele>1338.1999511719</ele>
        <time>2022-08-21T08:50:48Z</time>
      </trkpt>
      <trkpt lat="43.9925" lon="6.5186">
        <ele>1337.1999511719</ele>
        <time>2022-08-21T08:50:51Z</time>
      </trkpt>
      <trkpt lat="43.99241" lon="6.51854">
        <ele>1336</ele>
        <time>2022-08-21T08:50:55Z</time>
      </trkpt>
      <trkpt lat="43.99235" lon="6.51851">
        <ele>1335</ele>
        <time>2022-08-21T08:50:58Z</time>
      </trkpt>
      <trkpt lat="43.99229" lon="6.51847">
        <ele>1334</ele>
        <time>2022-08-21T08:51:01Z</time>
      </trkpt>
      <trkpt lat="43.99225" lon="6.51844">
        <ele>1332.8000488281</ele>
        <time>2022-08-21T08:51:04Z</time>
      </trkpt>
      <trkpt lat="43.99223" lon="6.51842">
        <ele>1332.4000244141</ele>
        <time>2022-08-21T08:51:05Z</time>
      </trkpt>
      <trkpt lat="43.9922" lon="6.51839">
        <ele>1331.5999755859</ele>
        <time>2022-08-21T08:51:07Z</time>
      </trkpt>
      <trkpt lat="43.99215" lon="6.51834">
        <ele>1330.4000244141</ele>
        <time>2022-08-21T08:51:10Z</time>
      </trkpt>
      <trkpt lat="43.99208" lon="6.51828">
        <ele>1329</ele>
        <time>2022-08-21T08:51:13Z</time>
      </trkpt>
      <trkpt lat="43.99206" lon="6.51826">
        <ele>1328.5999755859</ele>
        <time>2022-08-21T08:51:14Z</time>
      </trkpt>
      <trkpt lat="43.99202" lon="6.51824">
        <ele>1328</ele>
        <time>2022-08-21T08:51:16Z</time>
      </trkpt>
      <trkpt lat="43.99194" lon="6.51817">
        <ele>1327</ele>
        <time>2022-08-21T08:51:20Z</time>
      </trkpt>
      <trkpt lat="43.99192" lon="6.51816">
        <ele>1326.5999755859</ele>
        <time>2022-08-21T08:51:21Z</time>
      </trkpt>
      <trkpt lat="43.99187" lon="6.51814">
        <ele>1326</ele>
        <time>2022-08-21T08:51:23Z</time>
      </trkpt>
      <trkpt lat="43.99183" lon="6.51809">
        <ele>1324.8000488281</ele>
        <time>2022-08-21T08:51:26Z</time>
      </trkpt>
      <trkpt lat="43.99181" lon="6.51807">
        <ele>1324.5999755859</ele>
        <time>2022-08-21T08:51:27Z</time>
      </trkpt>
      <trkpt lat="43.99176" lon="6.51802">
        <ele>1323.8000488281</ele>
        <time>2022-08-21T08:51:29Z</time>
      </trkpt>
      <trkpt lat="43.99169" lon="6.51795">
        <ele>1322.8000488281</ele>
        <time>2022-08-21T08:51:33Z</time>
      </trkpt>
      <trkpt lat="43.99165" lon="6.51791">
        <ele>1322.1999511719</ele>
        <time>2022-08-21T08:51:35Z</time>
      </trkpt>
      <trkpt lat="43.99161" lon="6.51786">
        <ele>1321.4000244141</ele>
        <time>2022-08-21T08:51:37Z</time>
      </trkpt>
      <trkpt lat="43.99154" lon="6.51778">
        <ele>1320.4000244141</ele>
        <time>2022-08-21T08:51:40Z</time>
      </trkpt>
      <trkpt lat="43.9915" lon="6.51774">
        <ele>1319.5999755859</ele>
        <time>2022-08-21T08:51:42Z</time>
      </trkpt>
      <trkpt lat="43.99149" lon="6.51773">
        <ele>1319.1999511719</ele>
        <time>2022-08-21T08:51:43Z</time>
      </trkpt>
      <trkpt lat="43.99149" lon="6.51772">
        <ele>1318.8000488281</ele>
        <time>2022-08-21T08:51:44Z</time>
      </trkpt>
      <trkpt lat="43.99149" lon="6.51772">
        <ele>1318.5999755859</ele>
        <time>2022-08-21T08:51:45Z</time>
      </trkpt>
      <trkpt lat="43.99149" lon="6.51772">
        <ele>1318.1999511719</ele>
        <time>2022-08-21T08:51:48Z</time>
      </trkpt>
      <trkpt lat="43.99149" lon="6.51772">
        <ele>1318.1999511719</ele>
        <time>2022-08-21T08:51:49Z</time>
      </trkpt>
      <trkpt lat="43.99149" lon="6.51772">
        <ele>1318.1999511719</ele>
        <time>2022-08-21T08:51:50Z</time>
      </trkpt>
      <trkpt lat="43.99149" lon="6.51772">
        <ele>1318</ele>
        <time>2022-08-21T08:51:51Z</time>
      </trkpt>
      <trkpt lat="43.99149" lon="6.51772">
        <ele>1318</ele>
        <time>2022-08-21T08:51:54Z</time>
      </trkpt>
      <trkpt lat="43.99149" lon="6.51771">
        <ele>1317.8000488281</ele>
        <time>2022-08-21T08:52:00Z</time>
      </trkpt>
      <trkpt lat="43.99148" lon="6.51771">
        <ele>1318.1999511719</ele>
        <time>2022-08-21T08:52:05Z</time>
      </trkpt>
      <trkpt lat="43.99147" lon="6.51772">
        <ele>1318.1999511719</ele>
        <time>2022-08-21T08:52:18Z</time>
      </trkpt>
      <trkpt lat="43.99147" lon="6.51771">
        <ele>1318.1999511719</ele>
        <time>2022-08-21T08:52:23Z</time>
      </trkpt>
      <trkpt lat="43.99147" lon="6.51771">
        <ele>1317.8000488281</ele>
        <time>2022-08-21T08:52:28Z</time>
      </trkpt>
      <trkpt lat="43.99147" lon="6.51771">
        <ele>1317.5999755859</ele>
        <time>2022-08-21T08:52:38Z</time>
      </trkpt>
      <trkpt lat="43.99148" lon="6.51771">
        <ele>1317.4000244141</ele>
        <time>2022-08-21T08:52:40Z</time>
      </trkpt>
      <trkpt lat="43.99148" lon="6.51771">
        <ele>1317.4000244141</ele>
        <time>2022-08-21T08:52:42Z</time>
      </trkpt>
      <trkpt lat="43.99147" lon="6.5177">
        <ele>1317.4000244141</ele>
        <time>2022-08-21T08:52:45Z</time>
      </trkpt>
      <trkpt lat="43.99143" lon="6.51765">
        <ele>1317</ele>
        <time>2022-08-21T08:52:48Z</time>
      </trkpt>
      <trkpt lat="43.9914" lon="6.51761">
        <ele>1316.5999755859</ele>
        <time>2022-08-21T08:52:50Z</time>
      </trkpt>
      <trkpt lat="43.99138" lon="6.51758">
        <ele>1316</ele>
        <time>2022-08-21T08:52:52Z</time>
      </trkpt>
      <trkpt lat="43.99137" lon="6.51756">
        <ele>1315.5999755859</ele>
        <time>2022-08-21T08:52:53Z</time>
      </trkpt>
      <trkpt lat="43.99135" lon="6.51753">
        <ele>1315.1999511719</ele>
        <time>2022-08-21T08:52:55Z</time>
      </trkpt>
      <trkpt lat="43.99131" lon="6.5175">
        <ele>1314.8000488281</ele>
        <time>2022-08-21T08:52:57Z</time>
      </trkpt>
      <trkpt lat="43.99127" lon="6.51744">
        <ele>1313.8000488281</ele>
        <time>2022-08-21T08:53:00Z</time>
      </trkpt>
      <trkpt lat="43.99121" lon="6.51734">
        <ele>1312.5999755859</ele>
        <time>2022-08-21T08:53:04Z</time>
      </trkpt>
      <trkpt lat="43.99113" lon="6.51726">
        <ele>1311.4000244141</ele>
        <time>2022-08-21T08:53:08Z</time>
      </trkpt>
      <trkpt lat="43.99108" lon="6.51718">
        <ele>1310.4000244141</ele>
        <time>2022-08-21T08:53:13Z</time>
      </trkpt>
      <trkpt lat="43.99106" lon="6.51716">
        <ele>1310</ele>
        <time>2022-08-21T08:53:15Z</time>
      </trkpt>
      <trkpt lat="43.99102" lon="6.51711">
        <ele>1309.4000244141</ele>
        <time>2022-08-21T08:53:18Z</time>
      </trkpt>
      <trkpt lat="43.991" lon="6.5171">
        <ele>1308.1999511719</ele>
        <time>2022-08-21T08:53:21Z</time>
      </trkpt>
      <trkpt lat="43.991" lon="6.5171">
        <ele>1307.8000488281</ele>
        <time>2022-08-21T08:53:23Z</time>
      </trkpt>
      <trkpt lat="43.991" lon="6.5171">
        <ele>1307.5999755859</ele>
        <time>2022-08-21T08:53:27Z</time>
      </trkpt>
      <trkpt lat="43.99098" lon="6.51709">
        <ele>1307.4000244141</ele>
        <time>2022-08-21T08:53:36Z</time>
      </trkpt>
      <trkpt lat="43.99097" lon="6.51709">
        <ele>1307.4000244141</ele>
        <time>2022-08-21T08:53:37Z</time>
      </trkpt>
      <trkpt lat="43.99094" lon="6.51707">
        <ele>1306.8000488281</ele>
        <time>2022-08-21T08:53:39Z</time>
      </trkpt>
      <trkpt lat="43.99091" lon="6.51707">
        <ele>1306.1999511719</ele>
        <time>2022-08-21T08:53:41Z</time>
      </trkpt>
      <trkpt lat="43.9909" lon="6.51706">
        <ele>1305.8000488281</ele>
        <time>2022-08-21T08:53:42Z</time>
      </trkpt>
      <trkpt lat="43.99089" lon="6.51706">
        <ele>1305.4000244141</ele>
        <time>2022-08-21T08:53:43Z</time>
      </trkpt>
      <trkpt lat="43.99089" lon="6.51706">
        <ele>1305</ele>
        <time>2022-08-21T08:53:44Z</time>
      </trkpt>
      <trkpt lat="43.9909" lon="6.51706">
        <ele>1304.8000488281</ele>
        <time>2022-08-21T08:53:45Z</time>
      </trkpt>
      <trkpt lat="43.99089" lon="6.51706">
        <ele>1304.4000244141</ele>
        <time>2022-08-21T08:53:48Z</time>
      </trkpt>
      <trkpt lat="43.99086" lon="6.51712">
        <ele>1304</ele>
        <time>2022-08-21T08:53:55Z</time>
      </trkpt>
      <trkpt lat="43.99086" lon="6.51716">
        <ele>1303.5999755859</ele>
        <time>2022-08-21T08:53:57Z</time>
      </trkpt>
      <trkpt lat="43.99087" lon="6.51719">
        <ele>1303.4000244141</ele>
        <time>2022-08-21T08:53:58Z</time>
      </trkpt>
      <trkpt lat="43.99089" lon="6.51728">
        <ele>1302.5999755859</ele>
        <time>2022-08-21T08:54:02Z</time>
      </trkpt>
      <trkpt lat="43.9909" lon="6.5173">
        <ele>1302.1999511719</ele>
        <time>2022-08-21T08:54:03Z</time>
      </trkpt>
      <trkpt lat="43.99092" lon="6.51735">
        <ele>1301.1999511719</ele>
        <time>2022-08-21T08:54:06Z</time>
      </trkpt>
      <trkpt lat="43.99093" lon="6.51738">
        <ele>1300.8000488281</ele>
        <time>2022-08-21T08:54:08Z</time>
      </trkpt>
      <trkpt lat="43.99094" lon="6.51739">
        <ele>1300.8000488281</ele>
        <time>2022-08-21T08:54:09Z</time>
      </trkpt>
      <trkpt lat="43.99093" lon="6.51744">
        <ele>1300.1999511719</ele>
        <time>2022-08-21T08:54:12Z</time>
      </trkpt>
      <trkpt lat="43.99092" lon="6.51745">
        <ele>1300</ele>
        <time>2022-08-21T08:54:13Z</time>
      </trkpt>
      <trkpt lat="43.9909" lon="6.51745">
        <ele>1299.8000488281</ele>
        <time>2022-08-21T08:54:14Z</time>
      </trkpt>
      <trkpt lat="43.99083" lon="6.51741">
        <ele>1298.8000488281</ele>
        <time>2022-08-21T08:54:17Z</time>
      </trkpt>
      <trkpt lat="43.99077" lon="6.51736">
        <ele>1297.4000244141</ele>
        <time>2022-08-21T08:54:20Z</time>
      </trkpt>
      <trkpt lat="43.99075" lon="6.51735">
        <ele>1296.5999755859</ele>
        <time>2022-08-21T08:54:22Z</time>
      </trkpt>
      <trkpt lat="43.99073" lon="6.51733">
        <ele>1296.1999511719</ele>
        <time>2022-08-21T08:54:23Z</time>
      </trkpt>
      <trkpt lat="43.99072" lon="6.51733">
        <ele>1296</ele>
        <time>2022-08-21T08:54:24Z</time>
      </trkpt>
      <trkpt lat="43.9907" lon="6.51734">
        <ele>1295.5999755859</ele>
        <time>2022-08-21T08:54:26Z</time>
      </trkpt>
      <trkpt lat="43.9907" lon="6.51736">
        <ele>1295.1999511719</ele>
        <time>2022-08-21T08:54:27Z</time>
      </trkpt>
      <trkpt lat="43.99071" lon="6.51738">
        <ele>1294.8000488281</ele>
        <time>2022-08-21T08:54:28Z</time>
      </trkpt>
      <trkpt lat="43.99073" lon="6.51744">
        <ele>1294</ele>
        <time>2022-08-21T08:54:31Z</time>
      </trkpt>
      <trkpt lat="43.99077" lon="6.51757">
        <ele>1292.5999755859</ele>
        <time>2022-08-21T08:54:35Z</time>
      </trkpt>
      <trkpt lat="43.99081" lon="6.51768">
        <ele>1291.1999511719</ele>
        <time>2022-08-21T08:54:39Z</time>
      </trkpt>
      <trkpt lat="43.99084" lon="6.51774">
        <ele>1290</ele>
        <time>2022-08-21T08:54:42Z</time>
      </trkpt>
      <trkpt lat="43.99084" lon="6.51776">
        <ele>1289.1999511719</ele>
        <time>2022-08-21T08:54:45Z</time>
      </trkpt>
      <trkpt lat="43.99084" lon="6.51777">
        <ele>1289</ele>
        <time>2022-08-21T08:54:47Z</time>
      </trkpt>
      <trkpt lat="43.99085" lon="6.51778">
        <ele>1289</ele>
        <time>2022-08-21T08:54:49Z</time>
      </trkpt>
      <trkpt lat="43.99086" lon="6.51784">
        <ele>1288.4000244141</ele>
        <time>2022-08-21T08:54:54Z</time>
      </trkpt>
      <trkpt lat="43.99084" lon="6.51784">
        <ele>1288</ele>
        <time>2022-08-21T08:54:57Z</time>
      </trkpt>
      <trkpt lat="43.99075" lon="6.5178">
        <ele>1287.4000244141</ele>
        <time>2022-08-21T08:55:02Z</time>
      </trkpt>
      <trkpt lat="43.99071" lon="6.51778">
        <ele>1287</ele>
        <time>2022-08-21T08:55:04Z</time>
      </trkpt>
      <trkpt lat="43.99067" lon="6.51776">
        <ele>1286.4000244141</ele>
        <time>2022-08-21T08:55:06Z</time>
      </trkpt>
      <trkpt lat="43.99064" lon="6.51774">
        <ele>1285.8000488281</ele>
        <time>2022-08-21T08:55:08Z</time>
      </trkpt>
      <trkpt lat="43.99061" lon="6.51771">
        <ele>1285</ele>
        <time>2022-08-21T08:55:10Z</time>
      </trkpt>
      <trkpt lat="43.99057" lon="6.5177">
        <ele>1284.4000244141</ele>
        <time>2022-08-21T08:55:12Z</time>
      </trkpt>
      <trkpt lat="43.99054" lon="6.51767">
        <ele>1284</ele>
        <time>2022-08-21T08:55:14Z</time>
      </trkpt>
      <trkpt lat="43.99052" lon="6.51766">
        <ele>1283.5999755859</ele>
        <time>2022-08-21T08:55:15Z</time>
      </trkpt>
      <trkpt lat="43.9905" lon="6.51765">
        <ele>1283.1999511719</ele>
        <time>2022-08-21T08:55:16Z</time>
      </trkpt>
      <trkpt lat="43.99044" lon="6.51762">
        <ele>1282.1999511719</ele>
        <time>2022-08-21T08:55:19Z</time>
      </trkpt>
      <trkpt lat="43.99041" lon="6.51759">
        <ele>1281.4000244141</ele>
        <time>2022-08-21T08:55:22Z</time>
      </trkpt>
      <trkpt lat="43.99038" lon="6.51757">
        <ele>1281</ele>
        <time>2022-08-21T08:55:23Z</time>
      </trkpt>
      <trkpt lat="43.99033" lon="6.51751">
        <ele>1279.8000488281</ele>
        <time>2022-08-21T08:55:26Z</time>
      </trkpt>
      <trkpt lat="43.9903" lon="6.51749">
        <ele>1279</ele>
        <time>2022-08-21T08:55:28Z</time>
      </trkpt>
      <trkpt lat="43.99026" lon="6.51745">
        <ele>1278.4000244141</ele>
        <time>2022-08-21T08:55:30Z</time>
      </trkpt>
      <trkpt lat="43.99019" lon="6.51741">
        <ele>1277.1999511719</ele>
        <time>2022-08-21T08:55:33Z</time>
      </trkpt>
      <trkpt lat="43.99009" lon="6.51734">
        <ele>1276</ele>
        <time>2022-08-21T08:55:37Z</time>
      </trkpt>
      <trkpt lat="43.99003" lon="6.51729">
        <ele>1274.8000488281</ele>
        <time>2022-08-21T08:55:40Z</time>
      </trkpt>
      <trkpt lat="43.98997" lon="6.51724">
        <ele>1273.8000488281</ele>
        <time>2022-08-21T08:55:43Z</time>
      </trkpt>
      <trkpt lat="43.98995" lon="6.51723">
        <ele>1273.5999755859</ele>
        <time>2022-08-21T08:55:44Z</time>
      </trkpt>
      <trkpt lat="43.98986" lon="6.51718">
        <ele>1272.1999511719</ele>
        <time>2022-08-21T08:55:48Z</time>
      </trkpt>
      <trkpt lat="43.98984" lon="6.51717">
        <ele>1271.8000488281</ele>
        <time>2022-08-21T08:55:49Z</time>
      </trkpt>
      <trkpt lat="43.9898" lon="6.51716">
        <ele>1271</ele>
        <time>2022-08-21T08:55:51Z</time>
      </trkpt>
      <trkpt lat="43.98977" lon="6.51715">
        <ele>1270</ele>
        <time>2022-08-21T08:55:54Z</time>
      </trkpt>
      <trkpt lat="43.98977" lon="6.51715">
        <ele>1269.8000488281</ele>
        <time>2022-08-21T08:55:55Z</time>
      </trkpt>
      <trkpt lat="43.98977" lon="6.51716">
        <ele>1269.5999755859</ele>
        <time>2022-08-21T08:55:56Z</time>
      </trkpt>
      <trkpt lat="43.98977" lon="6.51716">
        <ele>1269.4000244141</ele>
        <time>2022-08-21T08:55:57Z</time>
      </trkpt>
      <trkpt lat="43.98971" lon="6.51713">
        <ele>1269.1999511719</ele>
        <time>2022-08-21T08:56:01Z</time>
      </trkpt>
      <trkpt lat="43.98965" lon="6.5171">
        <ele>1268.5999755859</ele>
        <time>2022-08-21T08:56:03Z</time>
      </trkpt>
      <trkpt lat="43.98959" lon="6.51705">
        <ele>1267.1999511719</ele>
        <time>2022-08-21T08:56:06Z</time>
      </trkpt>
      <trkpt lat="43.98954" lon="6.51703">
        <ele>1266.4000244141</ele>
        <time>2022-08-21T08:56:08Z</time>
      </trkpt>
      <trkpt lat="43.98951" lon="6.51701">
        <ele>1266</ele>
        <time>2022-08-21T08:56:09Z</time>
      </trkpt>
      <trkpt lat="43.98943" lon="6.51697">
        <ele>1264.8000488281</ele>
        <time>2022-08-21T08:56:12Z</time>
      </trkpt>
      <trkpt lat="43.98937" lon="6.51693">
        <ele>1263.5999755859</ele>
        <time>2022-08-21T08:56:15Z</time>
      </trkpt>
      <trkpt lat="43.98931" lon="6.51691">
        <ele>1262.1999511719</ele>
        <time>2022-08-21T08:56:18Z</time>
      </trkpt>
      <trkpt lat="43.98926" lon="6.51688">
        <ele>1261.4000244141</ele>
        <time>2022-08-21T08:56:21Z</time>
      </trkpt>
      <trkpt lat="43.98924" lon="6.51687">
        <ele>1261</ele>
        <time>2022-08-21T08:56:22Z</time>
      </trkpt>
      <trkpt lat="43.98917" lon="6.51684">
        <ele>1259.8000488281</ele>
        <time>2022-08-21T08:56:25Z</time>
      </trkpt>
      <trkpt lat="43.98912" lon="6.51683">
        <ele>1259</ele>
        <time>2022-08-21T08:56:27Z</time>
      </trkpt>
      <trkpt lat="43.9891" lon="6.51682">
        <ele>1258.5999755859</ele>
        <time>2022-08-21T08:56:28Z</time>
      </trkpt>
      <trkpt lat="43.98903" lon="6.51677">
        <ele>1257.4000244141</ele>
        <time>2022-08-21T08:56:31Z</time>
      </trkpt>
      <trkpt lat="43.98897" lon="6.51674">
        <ele>1256.1999511719</ele>
        <time>2022-08-21T08:56:34Z</time>
      </trkpt>
      <trkpt lat="43.98895" lon="6.51673">
        <ele>1255.8000488281</ele>
        <time>2022-08-21T08:56:35Z</time>
      </trkpt>
      <trkpt lat="43.98891" lon="6.51671">
        <ele>1255</ele>
        <time>2022-08-21T08:56:37Z</time>
      </trkpt>
      <trkpt lat="43.98886" lon="6.51668">
        <ele>1254</ele>
        <time>2022-08-21T08:56:39Z</time>
      </trkpt>
      <trkpt lat="43.98885" lon="6.51667">
        <ele>1253.8000488281</ele>
        <time>2022-08-21T08:56:40Z</time>
      </trkpt>
      <trkpt lat="43.98879" lon="6.51666">
        <ele>1252.5999755859</ele>
        <time>2022-08-21T08:56:43Z</time>
      </trkpt>
      <trkpt lat="43.98875" lon="6.51665">
        <ele>1251.8000488281</ele>
        <time>2022-08-21T08:56:45Z</time>
      </trkpt>
      <trkpt lat="43.98874" lon="6.51665">
        <ele>1251.1999511719</ele>
        <time>2022-08-21T08:56:46Z</time>
      </trkpt>
      <trkpt lat="43.98869" lon="6.51663">
        <ele>1250</ele>
        <time>2022-08-21T08:56:49Z</time>
      </trkpt>
      <trkpt lat="43.98863" lon="6.51662">
        <ele>1248.5999755859</ele>
        <time>2022-08-21T08:56:52Z</time>
      </trkpt>
      <trkpt lat="43.98861" lon="6.51663">
        <ele>1248.1999511719</ele>
        <time>2022-08-21T08:56:53Z</time>
      </trkpt>
      <trkpt lat="43.98856" lon="6.51662">
        <ele>1247.4000244141</ele>
        <time>2022-08-21T08:56:55Z</time>
      </trkpt>
      <trkpt lat="43.98848" lon="6.51662">
        <ele>1246</ele>
        <time>2022-08-21T08:56:58Z</time>
      </trkpt>
      <trkpt lat="43.98846" lon="6.51662">
        <ele>1245.5999755859</ele>
        <time>2022-08-21T08:56:59Z</time>
      </trkpt>
      <trkpt lat="43.9884" lon="6.51664">
        <ele>1244.8000488281</ele>
        <time>2022-08-21T08:57:01Z</time>
      </trkpt>
      <trkpt lat="43.98834" lon="6.51665">
        <ele>1243.5999755859</ele>
        <time>2022-08-21T08:57:04Z</time>
      </trkpt>
      <trkpt lat="43.98826" lon="6.51665">
        <ele>1242.1999511719</ele>
        <time>2022-08-21T08:57:07Z</time>
      </trkpt>
      <trkpt lat="43.98823" lon="6.51664">
        <ele>1241.8000488281</ele>
        <time>2022-08-21T08:57:08Z</time>
      </trkpt>
      <trkpt lat="43.98816" lon="6.51664">
        <ele>1241.1999511719</ele>
        <time>2022-08-21T08:57:11Z</time>
      </trkpt>
      <trkpt lat="43.9881" lon="6.51662">
        <ele>1240.1999511719</ele>
        <time>2022-08-21T08:57:14Z</time>
      </trkpt>
      <trkpt lat="43.98807" lon="6.51662">
        <ele>1240</ele>
        <time>2022-08-21T08:57:15Z</time>
      </trkpt>
      <trkpt lat="43.98805" lon="6.51661">
        <ele>1239.5999755859</ele>
        <time>2022-08-21T08:57:16Z</time>
      </trkpt>
      <trkpt lat="43.988" lon="6.5166">
        <ele>1238.8000488281</ele>
        <time>2022-08-21T08:57:18Z</time>
      </trkpt>
      <trkpt lat="43.98795" lon="6.51657">
        <ele>1238</ele>
        <time>2022-08-21T08:57:21Z</time>
      </trkpt>
      <trkpt lat="43.98793" lon="6.51657">
        <ele>1237.5999755859</ele>
        <time>2022-08-21T08:57:22Z</time>
      </trkpt>
      <trkpt lat="43.98786" lon="6.51654">
        <ele>1236.1999511719</ele>
        <time>2022-08-21T08:57:26Z</time>
      </trkpt>
      <trkpt lat="43.98783" lon="6.51653">
        <ele>1235.5999755859</ele>
        <time>2022-08-21T08:57:28Z</time>
      </trkpt>
      <trkpt lat="43.98782" lon="6.51653">
        <ele>1235.1999511719</ele>
        <time>2022-08-21T08:57:29Z</time>
      </trkpt>
      <trkpt lat="43.98775" lon="6.51651">
        <ele>1234</ele>
        <time>2022-08-21T08:57:33Z</time>
      </trkpt>
      <trkpt lat="43.98768" lon="6.51649">
        <ele>1232.5999755859</ele>
        <time>2022-08-21T08:57:36Z</time>
      </trkpt>
      <trkpt lat="43.98761" lon="6.51645">
        <ele>1231.4000244141</ele>
        <time>2022-08-21T08:57:39Z</time>
      </trkpt>
      <trkpt lat="43.98755" lon="6.51643">
        <ele>1230</ele>
        <time>2022-08-21T08:57:42Z</time>
      </trkpt>
      <trkpt lat="43.98754" lon="6.51642">
        <ele>1229.8000488281</ele>
        <time>2022-08-21T08:57:43Z</time>
      </trkpt>
      <trkpt lat="43.98749" lon="6.51641">
        <ele>1229</ele>
        <time>2022-08-21T08:57:45Z</time>
      </trkpt>
      <trkpt lat="43.98745" lon="6.51639">
        <ele>1228</ele>
        <time>2022-08-21T08:57:47Z</time>
      </trkpt>
      <trkpt lat="43.98741" lon="6.51637">
        <ele>1227.1999511719</ele>
        <time>2022-08-21T08:57:49Z</time>
      </trkpt>
      <trkpt lat="43.9874" lon="6.51636">
        <ele>1226.8000488281</ele>
        <time>2022-08-21T08:57:50Z</time>
      </trkpt>
      <trkpt lat="43.98734" lon="6.51631">
        <ele>1225.5999755859</ele>
        <time>2022-08-21T08:57:53Z</time>
      </trkpt>
      <trkpt lat="43.98727" lon="6.51628">
        <ele>1224.5999755859</ele>
        <time>2022-08-21T08:57:56Z</time>
      </trkpt>
      <trkpt lat="43.9872" lon="6.51626">
        <ele>1223.4000244141</ele>
        <time>2022-08-21T08:57:59Z</time>
      </trkpt>
      <trkpt lat="43.98715" lon="6.51623">
        <ele>1222.1999511719</ele>
        <time>2022-08-21T08:58:02Z</time>
      </trkpt>
      <trkpt lat="43.98713" lon="6.51622">
        <ele>1221.5999755859</ele>
        <time>2022-08-21T08:58:03Z</time>
      </trkpt>
      <trkpt lat="43.9871" lon="6.5162">
        <ele>1220.8000488281</ele>
        <time>2022-08-21T08:58:05Z</time>
      </trkpt>
      <trkpt lat="43.98703" lon="6.51618">
        <ele>1219.5999755859</ele>
        <time>2022-08-21T08:58:09Z</time>
      </trkpt>
      <trkpt lat="43.98698" lon="6.51617">
        <ele>1219</ele>
        <time>2022-08-21T08:58:11Z</time>
      </trkpt>
      <trkpt lat="43.98696" lon="6.51616">
        <ele>1218.1999511719</ele>
        <time>2022-08-21T08:58:12Z</time>
      </trkpt>
      <trkpt lat="43.98695" lon="6.51615">
        <ele>1217.4000244141</ele>
        <time>2022-08-21T08:58:14Z</time>
      </trkpt>
      <trkpt lat="43.98695" lon="6.51615">
        <ele>1217.1999511719</ele>
        <time>2022-08-21T08:58:15Z</time>
      </trkpt>
      <trkpt lat="43.98695" lon="6.51615">
        <ele>1217</ele>
        <time>2022-08-21T08:58:16Z</time>
      </trkpt>
      <trkpt lat="43.98695" lon="6.51615">
        <ele>1216.8000488281</ele>
        <time>2022-08-21T08:58:18Z</time>
      </trkpt>
      <trkpt lat="43.98693" lon="6.51615">
        <ele>1216.5999755859</ele>
        <time>2022-08-21T08:58:22Z</time>
      </trkpt>
      <trkpt lat="43.98695" lon="6.51615">
        <ele>1216.8000488281</ele>
        <time>2022-08-21T08:58:26Z</time>
      </trkpt>
      <trkpt lat="43.98695" lon="6.51615">
        <ele>1216.8000488281</ele>
        <time>2022-08-21T08:58:31Z</time>
      </trkpt>
      <trkpt lat="43.98695" lon="6.51615">
        <ele>1216.8000488281</ele>
        <time>2022-08-21T08:58:36Z</time>
      </trkpt>
      <trkpt lat="43.98696" lon="6.51614">
        <ele>1216.5999755859</ele>
        <time>2022-08-21T08:58:43Z</time>
      </trkpt>
      <trkpt lat="43.98695" lon="6.51614">
        <ele>1216.4000244141</ele>
        <time>2022-08-21T08:58:59Z</time>
      </trkpt>
      <trkpt lat="43.98695" lon="6.51614">
        <ele>1216.4000244141</ele>
        <time>2022-08-21T08:59:01Z</time>
      </trkpt>
      <trkpt lat="43.98694" lon="6.51613">
        <ele>1216.4000244141</ele>
        <time>2022-08-21T08:59:04Z</time>
      </trkpt>
      <trkpt lat="43.98688" lon="6.51611">
        <ele>1216</ele>
        <time>2022-08-21T08:59:08Z</time>
      </trkpt>
      <trkpt lat="43.98685" lon="6.5161">
        <ele>1215.8000488281</ele>
        <time>2022-08-21T08:59:09Z</time>
      </trkpt>
      <trkpt lat="43.98682" lon="6.51608">
        <ele>1215.4000244141</ele>
        <time>2022-08-21T08:59:10Z</time>
      </trkpt>
      <trkpt lat="43.98676" lon="6.51605">
        <ele>1214.5999755859</ele>
        <time>2022-08-21T08:59:12Z</time>
      </trkpt>
      <trkpt lat="43.98668" lon="6.51599">
        <ele>1213.4000244141</ele>
        <time>2022-08-21T08:59:15Z</time>
      </trkpt>
      <trkpt lat="43.98666" lon="6.51598">
        <ele>1212.8000488281</ele>
        <time>2022-08-21T08:59:16Z</time>
      </trkpt>
      <trkpt lat="43.98662" lon="6.51596">
        <ele>1212.1999511719</ele>
        <time>2022-08-21T08:59:18Z</time>
      </trkpt>
      <trkpt lat="43.98656" lon="6.51592">
        <ele>1211</ele>
        <time>2022-08-21T08:59:21Z</time>
      </trkpt>
      <trkpt lat="43.98649" lon="6.51587">
        <ele>1209.8000488281</ele>
        <time>2022-08-21T08:59:24Z</time>
      </trkpt>
      <trkpt lat="43.98645" lon="6.51583">
        <ele>1208.5999755859</ele>
        <time>2022-08-21T08:59:27Z</time>
      </trkpt>
      <trkpt lat="43.98639" lon="6.51579">
        <ele>1207.5999755859</ele>
        <time>2022-08-21T08:59:31Z</time>
      </trkpt>
      <trkpt lat="43.98636" lon="6.51578">
        <ele>1207</ele>
        <time>2022-08-21T08:59:32Z</time>
      </trkpt>
      <trkpt lat="43.98634" lon="6.51577">
        <ele>1206.5999755859</ele>
        <time>2022-08-21T08:59:33Z</time>
      </trkpt>
      <trkpt lat="43.98629" lon="6.51572">
        <ele>1205.1999511719</ele>
        <time>2022-08-21T08:59:36Z</time>
      </trkpt>
      <trkpt lat="43.98627" lon="6.51571">
        <ele>1204.8000488281</ele>
        <time>2022-08-21T08:59:37Z</time>
      </trkpt>
      <trkpt lat="43.98624" lon="6.51568">
        <ele>1204</ele>
        <time>2022-08-21T08:59:39Z</time>
      </trkpt>
      <trkpt lat="43.98617" lon="6.51564">
        <ele>1203</ele>
        <time>2022-08-21T08:59:42Z</time>
      </trkpt>
      <trkpt lat="43.98612" lon="6.51562">
        <ele>1202.1999511719</ele>
        <time>2022-08-21T08:59:44Z</time>
      </trkpt>
      <trkpt lat="43.9861" lon="6.51561">
        <ele>1201.8000488281</ele>
        <time>2022-08-21T08:59:45Z</time>
      </trkpt>
      <trkpt lat="43.98606" lon="6.51558">
        <ele>1200.4000244141</ele>
        <time>2022-08-21T08:59:49Z</time>
      </trkpt>
      <trkpt lat="43.98605" lon="6.51558">
        <ele>1200</ele>
        <time>2022-08-21T08:59:50Z</time>
      </trkpt>
      <trkpt lat="43.98601" lon="6.51557">
        <ele>1199.1999511719</ele>
        <time>2022-08-21T08:59:52Z</time>
      </trkpt>
      <trkpt lat="43.98597" lon="6.51555">
        <ele>1198</ele>
        <time>2022-08-21T08:59:54Z</time>
      </trkpt>
      <trkpt lat="43.98593" lon="6.51551">
        <ele>1197</ele>
        <time>2022-08-21T08:59:56Z</time>
      </trkpt>
      <trkpt lat="43.98586" lon="6.51547">
        <ele>1195.4000244141</ele>
        <time>2022-08-21T08:59:59Z</time>
      </trkpt>
      <trkpt lat="43.98581" lon="6.51545">
        <ele>1194.4000244141</ele>
        <time>2022-08-21T09:00:01Z</time>
      </trkpt>
      <trkpt lat="43.98576" lon="6.51542">
        <ele>1193.4000244141</ele>
        <time>2022-08-21T09:00:03Z</time>
      </trkpt>
      <trkpt lat="43.98574" lon="6.5154">
        <ele>1193</ele>
        <time>2022-08-21T09:00:04Z</time>
      </trkpt>
      <trkpt lat="43.98568" lon="6.51537">
        <ele>1191.8000488281</ele>
        <time>2022-08-21T09:00:06Z</time>
      </trkpt>
      <trkpt lat="43.98563" lon="6.51535">
        <ele>1190.5999755859</ele>
        <time>2022-08-21T09:00:08Z</time>
      </trkpt>
      <trkpt lat="43.98559" lon="6.51533">
        <ele>1189.8000488281</ele>
        <time>2022-08-21T09:00:10Z</time>
      </trkpt>
      <trkpt lat="43.98558" lon="6.51532">
        <ele>1189.4000244141</ele>
        <time>2022-08-21T09:00:11Z</time>
      </trkpt>
      <trkpt lat="43.98553" lon="6.5153">
        <ele>1188.1999511719</ele>
        <time>2022-08-21T09:00:14Z</time>
      </trkpt>
      <trkpt lat="43.98551" lon="6.51529">
        <ele>1187.8000488281</ele>
        <time>2022-08-21T09:00:15Z</time>
      </trkpt>
      <trkpt lat="43.98547" lon="6.51526">
        <ele>1187.1999511719</ele>
        <time>2022-08-21T09:00:17Z</time>
      </trkpt>
      <trkpt lat="43.98542" lon="6.51521">
        <ele>1186</ele>
        <time>2022-08-21T09:00:20Z</time>
      </trkpt>
      <trkpt lat="43.98538" lon="6.51519">
        <ele>1185.1999511719</ele>
        <time>2022-08-21T09:00:22Z</time>
      </trkpt>
      <trkpt lat="43.98536" lon="6.51518">
        <ele>1184.8000488281</ele>
        <time>2022-08-21T09:00:23Z</time>
      </trkpt>
      <trkpt lat="43.98531" lon="6.51515">
        <ele>1183.5999755859</ele>
        <time>2022-08-21T09:00:26Z</time>
      </trkpt>
      <trkpt lat="43.98524" lon="6.51512">
        <ele>1182.1999511719</ele>
        <time>2022-08-21T09:00:30Z</time>
      </trkpt>
      <trkpt lat="43.98521" lon="6.51509">
        <ele>1181.1999511719</ele>
        <time>2022-08-21T09:00:32Z</time>
      </trkpt>
      <trkpt lat="43.9852" lon="6.51509">
        <ele>1180.5999755859</ele>
        <time>2022-08-21T09:00:33Z</time>
      </trkpt>
      <trkpt lat="43.98518" lon="6.51509">
        <ele>1180.1999511719</ele>
        <time>2022-08-21T09:00:34Z</time>
      </trkpt>
      <trkpt lat="43.98517" lon="6.51509">
        <ele>1179.5999755859</ele>
        <time>2022-08-21T09:00:35Z</time>
      </trkpt>
      <trkpt lat="43.98513" lon="6.51509">
        <ele>1178.8000488281</ele>
        <time>2022-08-21T09:00:37Z</time>
      </trkpt>
      <trkpt lat="43.98508" lon="6.51506">
        <ele>1177.8000488281</ele>
        <time>2022-08-21T09:00:40Z</time>
      </trkpt>
      <trkpt lat="43.98507" lon="6.51504">
        <ele>1177.4000244141</ele>
        <time>2022-08-21T09:00:41Z</time>
      </trkpt>
      <trkpt lat="43.98503" lon="6.51502">
        <ele>1176.5999755859</ele>
        <time>2022-08-21T09:00:43Z</time>
      </trkpt>
      <trkpt lat="43.98496" lon="6.51498">
        <ele>1175.4000244141</ele>
        <time>2022-08-21T09:00:46Z</time>
      </trkpt>
      <trkpt lat="43.98493" lon="6.51497">
        <ele>1175</ele>
        <time>2022-08-21T09:00:47Z</time>
      </trkpt>
      <trkpt lat="43.98491" lon="6.51495">
        <ele>1174.5999755859</ele>
        <time>2022-08-21T09:00:48Z</time>
      </trkpt>
      <trkpt lat="43.98489" lon="6.51494">
        <ele>1174.1999511719</ele>
        <time>2022-08-21T09:00:49Z</time>
      </trkpt>
      <trkpt lat="43.98484" lon="6.51491">
        <ele>1173</ele>
        <time>2022-08-21T09:00:52Z</time>
      </trkpt>
      <trkpt lat="43.98478" lon="6.51489">
        <ele>1171.5999755859</ele>
        <time>2022-08-21T09:00:55Z</time>
      </trkpt>
      <trkpt lat="43.9847" lon="6.51484">
        <ele>1170.5999755859</ele>
        <time>2022-08-21T09:00:58Z</time>
      </trkpt>
      <trkpt lat="43.98463" lon="6.51477">
        <ele>1169.8000488281</ele>
        <time>2022-08-21T09:01:01Z</time>
      </trkpt>
      <trkpt lat="43.9846" lon="6.51476">
        <ele>1169.4000244141</ele>
        <time>2022-08-21T09:01:02Z</time>
      </trkpt>
      <trkpt lat="43.98451" lon="6.51471">
        <ele>1168</ele>
        <time>2022-08-21T09:01:05Z</time>
      </trkpt>
      <trkpt lat="43.98446" lon="6.51467">
        <ele>1167.1999511719</ele>
        <time>2022-08-21T09:01:07Z</time>
      </trkpt>
      <trkpt lat="43.98442" lon="6.51465">
        <ele>1167</ele>
        <time>2022-08-21T09:01:08Z</time>
      </trkpt>
      <trkpt lat="43.98437" lon="6.51456">
        <ele>1165.5999755859</ele>
        <time>2022-08-21T09:01:12Z</time>
      </trkpt>
      <trkpt lat="43.98437" lon="6.51455">
        <ele>1164.8000488281</ele>
        <time>2022-08-21T09:01:14Z</time>
      </trkpt>
      <trkpt lat="43.98436" lon="6.51455">
        <ele>1164.8000488281</ele>
        <time>2022-08-21T09:01:15Z</time>
      </trkpt>
      <trkpt lat="43.98435" lon="6.51455">
        <ele>1164.4000244141</ele>
        <time>2022-08-21T09:01:18Z</time>
      </trkpt>
      <trkpt lat="43.98435" lon="6.51455">
        <ele>1164.1999511719</ele>
        <time>2022-08-21T09:01:20Z</time>
      </trkpt>
      <trkpt lat="43.98435" lon="6.51454">
        <ele>1164.8000488281</ele>
        <time>2022-08-21T09:01:27Z</time>
      </trkpt>
      <trkpt lat="43.98435" lon="6.51454">
        <ele>1164.8000488281</ele>
        <time>2022-08-21T09:01:32Z</time>
      </trkpt>
      <trkpt lat="43.98435" lon="6.51455">
        <ele>1163.8000488281</ele>
        <time>2022-08-21T09:01:40Z</time>
      </trkpt>
      <trkpt lat="43.98435" lon="6.51455">
        <ele>1163.8000488281</ele>
        <time>2022-08-21T09:01:49Z</time>
      </trkpt>
      <trkpt lat="43.98435" lon="6.51455">
        <ele>1163.5999755859</ele>
        <time>2022-08-21T09:01:52Z</time>
      </trkpt>
      <trkpt lat="43.98435" lon="6.51455">
        <ele>1163.5999755859</ele>
        <time>2022-08-21T09:01:54Z</time>
      </trkpt>
      <trkpt lat="43.98435" lon="6.51455">
        <ele>1163.5999755859</ele>
        <time>2022-08-21T09:01:56Z</time>
      </trkpt>
      <trkpt lat="43.98435" lon="6.51455">
        <ele>1163.4000244141</ele>
        <time>2022-08-21T09:01:58Z</time>
      </trkpt>
      <trkpt lat="43.98435" lon="6.51455">
        <ele>1163.4000244141</ele>
        <time>2022-08-21T09:01:59Z</time>
      </trkpt>
      <trkpt lat="43.98436" lon="6.51455">
        <ele>1163.1999511719</ele>
        <time>2022-08-21T09:02:05Z</time>
      </trkpt>
      <trkpt lat="43.98436" lon="6.51455">
        <ele>1163.5999755859</ele>
        <time>2022-08-21T09:02:09Z</time>
      </trkpt>
      <trkpt lat="43.98436" lon="6.51456">
        <ele>1163.1999511719</ele>
        <time>2022-08-21T09:02:13Z</time>
      </trkpt>
      <trkpt lat="43.98437" lon="6.51455">
        <ele>1163</ele>
        <time>2022-08-21T09:02:19Z</time>
      </trkpt>
      <trkpt lat="43.98442" lon="6.51443">
        <ele>1162.4000244141</ele>
        <time>2022-08-21T09:02:24Z</time>
      </trkpt>
      <trkpt lat="43.98447" lon="6.51439">
        <ele>1161.8000488281</ele>
        <time>2022-08-21T09:02:26Z</time>
      </trkpt>
      <trkpt lat="43.98453" lon="6.51438">
        <ele>1161</ele>
        <time>2022-08-21T09:02:28Z</time>
      </trkpt>
      <trkpt lat="43.98463" lon="6.51436">
        <ele>1160</ele>
        <time>2022-08-21T09:02:32Z</time>
      </trkpt>
      <trkpt lat="43.98476" lon="6.51432">
        <ele>1158.5999755859</ele>
        <time>2022-08-21T09:02:36Z</time>
      </trkpt>
      <trkpt lat="43.98482" lon="6.51432">
        <ele>1157.5999755859</ele>
        <time>2022-08-21T09:02:38Z</time>
      </trkpt>
      <trkpt lat="43.98494" lon="6.51433">
        <ele>1156.1999511719</ele>
        <time>2022-08-21T09:02:41Z</time>
      </trkpt>
      <trkpt lat="43.98502" lon="6.51432">
        <ele>1155</ele>
        <time>2022-08-21T09:02:43Z</time>
      </trkpt>
      <trkpt lat="43.98505" lon="6.51432">
        <ele>1154.5999755859</ele>
        <time>2022-08-21T09:02:44Z</time>
      </trkpt>
      <trkpt lat="43.98513" lon="6.5143">
        <ele>1153.8000488281</ele>
        <time>2022-08-21T09:02:46Z</time>
      </trkpt>
      <trkpt lat="43.98524" lon="6.51426">
        <ele>1152.8000488281</ele>
        <time>2022-08-21T09:02:49Z</time>
      </trkpt>
      <trkpt lat="43.98532" lon="6.51422">
        <ele>1151.4000244141</ele>
        <time>2022-08-21T09:02:51Z</time>
      </trkpt>
      <trkpt lat="43.98543" lon="6.51411">
        <ele>1150.1999511719</ele>
        <time>2022-08-21T09:02:54Z</time>
      </trkpt>
      <trkpt lat="43.98546" lon="6.51405">
        <ele>1149.5999755859</ele>
        <time>2022-08-21T09:02:55Z</time>
      </trkpt>
      <trkpt lat="43.98549" lon="6.51399">
        <ele>1149.1999511719</ele>
        <time>2022-08-21T09:02:56Z</time>
      </trkpt>
      <trkpt lat="43.98555" lon="6.51386">
        <ele>1148</ele>
        <time>2022-08-21T09:02:58Z</time>
      </trkpt>
      <trkpt lat="43.98562" lon="6.51366">
        <ele>1147</ele>
        <time>2022-08-21T09:03:01Z</time>
      </trkpt>
      <trkpt lat="43.98567" lon="6.51354">
        <ele>1147.1999511719</ele>
        <time>2022-08-21T09:03:03Z</time>
      </trkpt>
      <trkpt lat="43.98572" lon="6.51343">
        <ele>1147.4000244141</ele>
        <time>2022-08-21T09:03:05Z</time>
      </trkpt>
      <trkpt lat="43.98576" lon="6.51332">
        <ele>1147.5999755859</ele>
        <time>2022-08-21T09:03:07Z</time>
      </trkpt>
      <trkpt lat="43.98576" lon="6.51327">
        <ele>1147.8000488281</ele>
        <time>2022-08-21T09:03:08Z</time>
      </trkpt>
      <trkpt lat="43.98576" lon="6.51323">
        <ele>1148.1999511719</ele>
        <time>2022-08-21T09:03:09Z</time>
      </trkpt>
      <trkpt lat="43.98574" lon="6.51316">
        <ele>1149.4000244141</ele>
        <time>2022-08-21T09:03:11Z</time>
      </trkpt>
      <trkpt lat="43.98573" lon="6.51313">
        <ele>1149.8000488281</ele>
        <time>2022-08-21T09:03:12Z</time>
      </trkpt>
      <trkpt lat="43.98573" lon="6.51306">
        <ele>1150.4000244141</ele>
        <time>2022-08-21T09:03:14Z</time>
      </trkpt>
      <trkpt lat="43.98573" lon="6.51298">
        <ele>1151.4000244141</ele>
        <time>2022-08-21T09:03:17Z</time>
      </trkpt>
      <trkpt lat="43.98572" lon="6.51295">
        <ele>1151.5999755859</ele>
        <time>2022-08-21T09:03:18Z</time>
      </trkpt>
      <trkpt lat="43.98571" lon="6.51287">
        <ele>1152.1999511719</ele>
        <time>2022-08-21T09:03:21Z</time>
      </trkpt>
      <trkpt lat="43.9857" lon="6.51283">
        <ele>1152.8000488281</ele>
        <time>2022-08-21T09:03:23Z</time>
      </trkpt>
      <trkpt lat="43.98572" lon="6.51273">
        <ele>1153.8000488281</ele>
        <time>2022-08-21T09:03:28Z</time>
      </trkpt>
      <trkpt lat="43.98573" lon="6.51271">
        <ele>1154</ele>
        <time>2022-08-21T09:03:29Z</time>
      </trkpt>
      <trkpt lat="43.98575" lon="6.51267">
        <ele>1154.1999511719</ele>
        <time>2022-08-21T09:03:31Z</time>
      </trkpt>
      <trkpt lat="43.98577" lon="6.51263">
        <ele>1154.4000244141</ele>
        <time>2022-08-21T09:03:33Z</time>
      </trkpt>
      <trkpt lat="43.98579" lon="6.5126">
        <ele>1154.5999755859</ele>
        <time>2022-08-21T09:03:35Z</time>
      </trkpt>
      <trkpt lat="43.98581" lon="6.51259">
        <ele>1154.8000488281</ele>
        <time>2022-08-21T09:03:36Z</time>
      </trkpt>
      <trkpt lat="43.98581" lon="6.51258">
        <ele>1155</ele>
        <time>2022-08-21T09:03:37Z</time>
      </trkpt>
      <trkpt lat="43.98582" lon="6.51256">
        <ele>1155</ele>
        <time>2022-08-21T09:03:38Z</time>
      </trkpt>
      <trkpt lat="43.98583" lon="6.51255">
        <ele>1155.1999511719</ele>
        <time>2022-08-21T09:03:39Z</time>
      </trkpt>
      <trkpt lat="43.98584" lon="6.51254">
        <ele>1155.1999511719</ele>
        <time>2022-08-21T09:03:40Z</time>
      </trkpt>
      <trkpt lat="43.98586" lon="6.51253">
        <ele>1155.1999511719</ele>
        <time>2022-08-21T09:03:41Z</time>
      </trkpt>
      <trkpt lat="43.98587" lon="6.51252">
        <ele>1155.4000244141</ele>
        <time>2022-08-21T09:03:42Z</time>
      </trkpt>
      <trkpt lat="43.98589" lon="6.51252">
        <ele>1155.4000244141</ele>
        <time>2022-08-21T09:03:43Z</time>
      </trkpt>
      <trkpt lat="43.98592" lon="6.51251">
        <ele>1155.5999755859</ele>
        <time>2022-08-21T09:03:45Z</time>
      </trkpt>
      <trkpt lat="43.98601" lon="6.51248">
        <ele>1155.5999755859</ele>
        <time>2022-08-21T09:03:50Z</time>
      </trkpt>
      <trkpt lat="43.98624" lon="6.51238">
        <ele>1154.5999755859</ele>
        <time>2022-08-21T09:03:58Z</time>
      </trkpt>
      <trkpt lat="43.98635" lon="6.51231">
        <ele>1154.8000488281</ele>
        <time>2022-08-21T09:04:03Z</time>
      </trkpt>
      <trkpt lat="43.98653" lon="6.51218">
        <ele>1154.5999755859</ele>
        <time>2022-08-21T09:04:10Z</time>
      </trkpt>
      <trkpt lat="43.98669" lon="6.51204">
        <ele>1154</ele>
        <time>2022-08-21T09:04:15Z</time>
      </trkpt>
      <trkpt lat="43.98678" lon="6.51198">
        <ele>1154</ele>
        <time>2022-08-21T09:04:17Z</time>
      </trkpt>
      <trkpt lat="43.98682" lon="6.51194">
        <ele>1153.8000488281</ele>
        <time>2022-08-21T09:04:18Z</time>
      </trkpt>
      <trkpt lat="43.98688" lon="6.51191">
        <ele>1153.8000488281</ele>
        <time>2022-08-21T09:04:19Z</time>
      </trkpt>
      <trkpt lat="43.98714" lon="6.51173">
        <ele>1153.5999755859</ele>
        <time>2022-08-21T09:04:25Z</time>
      </trkpt>
      <trkpt lat="43.98739" lon="6.51159">
        <ele>1154.1999511719</ele>
        <time>2022-08-21T09:04:32Z</time>
      </trkpt>
      <trkpt lat="43.98759" lon="6.51152">
        <ele>1154.4000244141</ele>
        <time>2022-08-21T09:04:38Z</time>
      </trkpt>
      <trkpt lat="43.98765" lon="6.5115">
        <ele>1154.8000488281</ele>
        <time>2022-08-21T09:04:40Z</time>
      </trkpt>
      <trkpt lat="43.98774" lon="6.51149">
        <ele>1155.4000244141</ele>
        <time>2022-08-21T09:04:44Z</time>
      </trkpt>
      <trkpt lat="43.9878" lon="6.51149">
        <ele>1156</ele>
        <time>2022-08-21T09:04:46Z</time>
      </trkpt>
      <trkpt lat="43.98785" lon="6.51147">
        <ele>1156.5999755859</ele>
        <time>2022-08-21T09:04:50Z</time>
      </trkpt>
      <trkpt lat="43.98785" lon="6.51147">
        <ele>1156.8000488281</ele>
        <time>2022-08-21T09:04:52Z</time>
      </trkpt>
      <trkpt lat="43.98786" lon="6.51147">
        <ele>1157</ele>
        <time>2022-08-21T09:04:53Z</time>
      </trkpt>
      <trkpt lat="43.98787" lon="6.51148">
        <ele>1156.5999755859</ele>
        <time>2022-08-21T09:04:58Z</time>
      </trkpt>
      <trkpt lat="43.98792" lon="6.51153">
        <ele>1156.8000488281</ele>
        <time>2022-08-21T09:05:05Z</time>
      </trkpt>
      <trkpt lat="43.98794" lon="6.51154">
        <ele>1156.8000488281</ele>
        <time>2022-08-21T09:05:08Z</time>
      </trkpt>
      <trkpt lat="43.98794" lon="6.51154">
        <ele>1156.8000488281</ele>
        <time>2022-08-21T09:05:10Z</time>
      </trkpt>
      <trkpt lat="43.98794" lon="6.51154">
        <ele>1156.8000488281</ele>
        <time>2022-08-21T09:05:11Z</time>
      </trkpt>
      <trkpt lat="43.98795" lon="6.51154">
        <ele>1156.8000488281</ele>
        <time>2022-08-21T09:05:13Z</time>
      </trkpt>
      <trkpt lat="43.98795" lon="6.51154">
        <ele>1156.8000488281</ele>
        <time>2022-08-21T09:05:14Z</time>
      </trkpt>
      <trkpt lat="43.98795" lon="6.51154">
        <ele>1156.5999755859</ele>
        <time>2022-08-21T09:05:16Z</time>
      </trkpt>
      <trkpt lat="43.98797" lon="6.51154">
        <ele>1156.5999755859</ele>
        <time>2022-08-21T09:05:19Z</time>
      </trkpt>
      <trkpt lat="43.98804" lon="6.51149">
        <ele>1157</ele>
        <time>2022-08-21T09:05:24Z</time>
      </trkpt>
      <trkpt lat="43.98805" lon="6.51148">
        <ele>1157.1999511719</ele>
        <time>2022-08-21T09:05:25Z</time>
      </trkpt>
      <trkpt lat="43.98814" lon="6.51139">
        <ele>1157.8000488281</ele>
        <time>2022-08-21T09:05:30Z</time>
      </trkpt>
      <trkpt lat="43.98818" lon="6.51137">
        <ele>1158</ele>
        <time>2022-08-21T09:05:32Z</time>
      </trkpt>
      <trkpt lat="43.98821" lon="6.51137">
        <ele>1158.1999511719</ele>
        <time>2022-08-21T09:05:33Z</time>
      </trkpt>
      <trkpt lat="43.98827" lon="6.51134">
        <ele>1158.5999755859</ele>
        <time>2022-08-21T09:05:35Z</time>
      </trkpt>
      <trkpt lat="43.98833" lon="6.51131">
        <ele>1159</ele>
        <time>2022-08-21T09:05:38Z</time>
      </trkpt>
      <trkpt lat="43.98835" lon="6.51131">
        <ele>1159.1999511719</ele>
        <time>2022-08-21T09:05:39Z</time>
      </trkpt>
      <trkpt lat="43.98837" lon="6.5113">
        <ele>1159.1999511719</ele>
        <time>2022-08-21T09:05:40Z</time>
      </trkpt>
      <trkpt lat="43.98842" lon="6.51127">
        <ele>1159.5999755859</ele>
        <time>2022-08-21T09:05:42Z</time>
      </trkpt>
      <trkpt lat="43.98846" lon="6.51124">
        <ele>1159.8000488281</ele>
        <time>2022-08-21T09:05:44Z</time>
      </trkpt>
      <trkpt lat="43.98851" lon="6.51122">
        <ele>1160.1999511719</ele>
        <time>2022-08-21T09:05:46Z</time>
      </trkpt>
      <trkpt lat="43.98858" lon="6.51119">
        <ele>1161</ele>
        <time>2022-08-21T09:05:50Z</time>
      </trkpt>
      <trkpt lat="43.9886" lon="6.51119">
        <ele>1161.1999511719</ele>
        <time>2022-08-21T09:05:51Z</time>
      </trkpt>
      <trkpt lat="43.98861" lon="6.5112">
        <ele>1161.5999755859</ele>
        <time>2022-08-21T09:05:52Z</time>
      </trkpt>
      <trkpt lat="43.98869" lon="6.51118">
        <ele>1162.4000244141</ele>
        <time>2022-08-21T09:05:57Z</time>
      </trkpt>
      <trkpt lat="43.9887" lon="6.51118">
        <ele>1162.5999755859</ele>
        <time>2022-08-21T09:05:58Z</time>
      </trkpt>
      <trkpt lat="43.98874" lon="6.5112">
        <ele>1163.5999755859</ele>
        <time>2022-08-21T09:06:02Z</time>
      </trkpt>
      <trkpt lat="43.98878" lon="6.5112">
        <ele>1164.1999511719</ele>
        <time>2022-08-21T09:06:05Z</time>
      </trkpt>
      <trkpt lat="43.98882" lon="6.51121">
        <ele>1164.5999755859</ele>
        <time>2022-08-21T09:06:08Z</time>
      </trkpt>
      <trkpt lat="43.98889" lon="6.5112">
        <ele>1165.5999755859</ele>
        <time>2022-08-21T09:06:14Z</time>
      </trkpt>
      <trkpt lat="43.98895" lon="6.51119">
        <ele>1166.1999511719</ele>
        <time>2022-08-21T09:06:18Z</time>
      </trkpt>
      <trkpt lat="43.98902" lon="6.5112">
        <ele>1166.5999755859</ele>
        <time>2022-08-21T09:06:21Z</time>
      </trkpt>
      <trkpt lat="43.98904" lon="6.51121">
        <ele>1166.8000488281</ele>
        <time>2022-08-21T09:06:22Z</time>
      </trkpt>
      <trkpt lat="43.98905" lon="6.51121">
        <ele>1166.8000488281</ele>
        <time>2022-08-21T09:06:23Z</time>
      </trkpt>
      <trkpt lat="43.98909" lon="6.51121">
        <ele>1167.1999511719</ele>
        <time>2022-08-21T09:06:25Z</time>
      </trkpt>
      <trkpt lat="43.98919" lon="6.51119">
        <ele>1168</ele>
        <time>2022-08-21T09:06:30Z</time>
      </trkpt>
      <trkpt lat="43.98923" lon="6.5112">
        <ele>1168.4000244141</ele>
        <time>2022-08-21T09:06:33Z</time>
      </trkpt>
      <trkpt lat="43.9893" lon="6.51119">
        <ele>1169.1999511719</ele>
        <time>2022-08-21T09:06:37Z</time>
      </trkpt>
      <trkpt lat="43.98934" lon="6.51118">
        <ele>1169.5999755859</ele>
        <time>2022-08-21T09:06:40Z</time>
      </trkpt>
      <trkpt lat="43.98939" lon="6.51118">
        <ele>1170.1999511719</ele>
        <time>2022-08-21T09:06:44Z</time>
      </trkpt>
      <trkpt lat="43.98943" lon="6.5112">
        <ele>1170.8000488281</ele>
        <time>2022-08-21T09:06:48Z</time>
      </trkpt>
      <trkpt lat="43.98949" lon="6.51121">
        <ele>1171.1999511719</ele>
        <time>2022-08-21T09:06:53Z</time>
      </trkpt>
      <trkpt lat="43.98957" lon="6.51123">
        <ele>1171.5999755859</ele>
        <time>2022-08-21T09:06:58Z</time>
      </trkpt>
      <trkpt lat="43.98959" lon="6.51123">
        <ele>1171.5999755859</ele>
        <time>2022-08-21T09:06:59Z</time>
      </trkpt>
      <trkpt lat="43.98979" lon="6.51123">
        <ele>1171.8000488281</ele>
        <time>2022-08-21T09:07:07Z</time>
      </trkpt>
      <trkpt lat="43.98994" lon="6.51124">
        <ele>1172</ele>
        <time>2022-08-21T09:07:13Z</time>
      </trkpt>
      <trkpt lat="43.98996" lon="6.51124">
        <ele>1172</ele>
        <time>2022-08-21T09:07:14Z</time>
      </trkpt>
      <trkpt lat="43.99005" lon="6.51122">
        <ele>1172</ele>
        <time>2022-08-21T09:07:18Z</time>
      </trkpt>
      <trkpt lat="43.9901" lon="6.51121">
        <ele>1172</ele>
        <time>2022-08-21T09:07:21Z</time>
      </trkpt>
      <trkpt lat="43.9902" lon="6.51114">
        <ele>1171.8000488281</ele>
        <time>2022-08-21T09:07:25Z</time>
      </trkpt>
      <trkpt lat="43.99026" lon="6.5111">
        <ele>1171.1999511719</ele>
        <time>2022-08-21T09:07:27Z</time>
      </trkpt>
      <trkpt lat="43.99035" lon="6.51107">
        <ele>1170.5999755859</ele>
        <time>2022-08-21T09:07:30Z</time>
      </trkpt>
      <trkpt lat="43.99043" lon="6.51104">
        <ele>1170.1999511719</ele>
        <time>2022-08-21T09:07:33Z</time>
      </trkpt>
      <trkpt lat="43.99048" lon="6.51102">
        <ele>1169.8000488281</ele>
        <time>2022-08-21T09:07:35Z</time>
      </trkpt>
      <trkpt lat="43.9905" lon="6.51102">
        <ele>1169.5999755859</ele>
        <time>2022-08-21T09:07:36Z</time>
      </trkpt>
      <trkpt lat="43.99055" lon="6.51101">
        <ele>1169.5999755859</ele>
        <time>2022-08-21T09:07:39Z</time>
      </trkpt>
      <trkpt lat="43.99058" lon="6.51101">
        <ele>1169.5999755859</ele>
        <time>2022-08-21T09:07:41Z</time>
      </trkpt>
      <trkpt lat="43.99064" lon="6.511">
        <ele>1169.4000244141</ele>
        <time>2022-08-21T09:07:45Z</time>
      </trkpt>
      <trkpt lat="43.99066" lon="6.511">
        <ele>1169.1999511719</ele>
        <time>2022-08-21T09:07:46Z</time>
      </trkpt>
      <trkpt lat="43.99066" lon="6.511">
        <ele>1169</ele>
        <time>2022-08-21T09:07:47Z</time>
      </trkpt>
      <trkpt lat="43.99069" lon="6.511">
        <ele>1168.5999755859</ele>
        <time>2022-08-21T09:07:54Z</time>
      </trkpt>
      <trkpt lat="43.99069" lon="6.511">
        <ele>1168.5999755859</ele>
        <time>2022-08-21T09:08:00Z</time>
      </trkpt>
      <trkpt lat="43.99071" lon="6.51097">
        <ele>1168.4000244141</ele>
        <time>2022-08-21T09:08:03Z</time>
      </trkpt>
      <trkpt lat="43.99073" lon="6.51095">
        <ele>1168</ele>
        <time>2022-08-21T09:08:05Z</time>
      </trkpt>
      <trkpt lat="43.99077" lon="6.51093">
        <ele>1167</ele>
        <time>2022-08-21T09:08:08Z</time>
      </trkpt>
      <trkpt lat="43.99079" lon="6.51092">
        <ele>1166.5999755859</ele>
        <time>2022-08-21T09:08:09Z</time>
      </trkpt>
      <trkpt lat="43.99081" lon="6.51089">
        <ele>1165.5999755859</ele>
        <time>2022-08-21T09:08:11Z</time>
      </trkpt>
      <trkpt lat="43.99083" lon="6.51088">
        <ele>1165.1999511719</ele>
        <time>2022-08-21T09:08:12Z</time>
      </trkpt>
      <trkpt lat="43.99087" lon="6.51085">
        <ele>1164</ele>
        <time>2022-08-21T09:08:14Z</time>
      </trkpt>
      <trkpt lat="43.9909" lon="6.51083">
        <ele>1162.8000488281</ele>
        <time>2022-08-21T09:08:16Z</time>
      </trkpt>
      <trkpt lat="43.99094" lon="6.51083">
        <ele>1161.5999755859</ele>
        <time>2022-08-21T09:08:18Z</time>
      </trkpt>
      <trkpt lat="43.99096" lon="6.51082">
        <ele>1161.1999511719</ele>
        <time>2022-08-21T09:08:19Z</time>
      </trkpt>
      <trkpt lat="43.99104" lon="6.51081">
        <ele>1161.4000244141</ele>
        <time>2022-08-21T09:08:26Z</time>
      </trkpt>
      <trkpt lat="43.99113" lon="6.51081">
        <ele>1162.1999511719</ele>
        <time>2022-08-21T09:08:31Z</time>
      </trkpt>
      <trkpt lat="43.99117" lon="6.51081">
        <ele>1162.4000244141</ele>
        <time>2022-08-21T09:08:33Z</time>
      </trkpt>
      <trkpt lat="43.99119" lon="6.5108">
        <ele>1162.8000488281</ele>
        <time>2022-08-21T09:08:35Z</time>
      </trkpt>
      <trkpt lat="43.9912" lon="6.5108">
        <ele>1163</ele>
        <time>2022-08-21T09:08:36Z</time>
      </trkpt>
      <trkpt lat="43.99124" lon="6.5108">
        <ele>1163.5999755859</ele>
        <time>2022-08-21T09:08:39Z</time>
      </trkpt>
      <trkpt lat="43.99127" lon="6.5108">
        <ele>1164</ele>
        <time>2022-08-21T09:08:40Z</time>
      </trkpt>
      <trkpt lat="43.99133" lon="6.51081">
        <ele>1164.5999755859</ele>
        <time>2022-08-21T09:08:43Z</time>
      </trkpt>
      <trkpt lat="43.99137" lon="6.51081">
        <ele>1165</ele>
        <time>2022-08-21T09:08:45Z</time>
      </trkpt>
      <trkpt lat="43.99139" lon="6.51081">
        <ele>1165.1999511719</ele>
        <time>2022-08-21T09:08:46Z</time>
      </trkpt>
      <trkpt lat="43.99145" lon="6.51081">
        <ele>1165.8000488281</ele>
        <time>2022-08-21T09:08:49Z</time>
      </trkpt>
      <trkpt lat="43.99147" lon="6.5108">
        <ele>1166</ele>
        <time>2022-08-21T09:08:51Z</time>
      </trkpt>
      <trkpt lat="43.99148" lon="6.5108">
        <ele>1166.1999511719</ele>
        <time>2022-08-21T09:08:52Z</time>
      </trkpt>
      <trkpt lat="43.9915" lon="6.51079">
        <ele>1166.4000244141</ele>
        <time>2022-08-21T09:08:54Z</time>
      </trkpt>
      <trkpt lat="43.99152" lon="6.51081">
        <ele>1166.5999755859</ele>
        <time>2022-08-21T09:08:55Z</time>
      </trkpt>
      <trkpt lat="43.99154" lon="6.5108">
        <ele>1166.5999755859</ele>
        <time>2022-08-21T09:08:58Z</time>
      </trkpt>
      <trkpt lat="43.99163" lon="6.51072">
        <ele>1166</ele>
        <time>2022-08-21T09:09:04Z</time>
      </trkpt>
      <trkpt lat="43.99168" lon="6.51066">
        <ele>1165.5999755859</ele>
        <time>2022-08-21T09:09:06Z</time>
      </trkpt>
      <trkpt lat="43.99177" lon="6.51059">
        <ele>1164.8000488281</ele>
        <time>2022-08-21T09:09:09Z</time>
      </trkpt>
      <trkpt lat="43.99183" lon="6.51054">
        <ele>1164.1999511719</ele>
        <time>2022-08-21T09:09:11Z</time>
      </trkpt>
      <trkpt lat="43.9919" lon="6.51048">
        <ele>1163.8000488281</ele>
        <time>2022-08-21T09:09:14Z</time>
      </trkpt>
      <trkpt lat="43.99201" lon="6.51042">
        <ele>1164</ele>
        <time>2022-08-21T09:09:19Z</time>
      </trkpt>
      <trkpt lat="43.99205" lon="6.51041">
        <ele>1164.1999511719</ele>
        <time>2022-08-21T09:09:21Z</time>
      </trkpt>
      <trkpt lat="43.99214" lon="6.51039">
        <ele>1164.4000244141</ele>
        <time>2022-08-21T09:09:25Z</time>
      </trkpt>
      <trkpt lat="43.99217" lon="6.51039">
        <ele>1164.4000244141</ele>
        <time>2022-08-21T09:09:26Z</time>
      </trkpt>
      <trkpt lat="43.99225" lon="6.51038">
        <ele>1164.1999511719</ele>
        <time>2022-08-21T09:09:31Z</time>
      </trkpt>
      <trkpt lat="43.9923" lon="6.51038">
        <ele>1164.1999511719</ele>
        <time>2022-08-21T09:09:33Z</time>
      </trkpt>
      <trkpt lat="43.99235" lon="6.51039">
        <ele>1164.1999511719</ele>
        <time>2022-08-21T09:09:36Z</time>
      </trkpt>
      <trkpt lat="43.99241" lon="6.51037">
        <ele>1164.1999511719</ele>
        <time>2022-08-21T09:09:39Z</time>
      </trkpt>
      <trkpt lat="43.9925" lon="6.51038">
        <ele>1164.4000244141</ele>
        <time>2022-08-21T09:09:44Z</time>
      </trkpt>
      <trkpt lat="43.99255" lon="6.51039">
        <ele>1164.5999755859</ele>
        <time>2022-08-21T09:09:48Z</time>
      </trkpt>
      <trkpt lat="43.99263" lon="6.51039">
        <ele>1164.8000488281</ele>
        <time>2022-08-21T09:09:53Z</time>
      </trkpt>
      <trkpt lat="43.99268" lon="6.51039">
        <ele>1164.8000488281</ele>
        <time>2022-08-21T09:09:56Z</time>
      </trkpt>
      <trkpt lat="43.99272" lon="6.51039">
        <ele>1164.8000488281</ele>
        <time>2022-08-21T09:09:58Z</time>
      </trkpt>
      <trkpt lat="43.99276" lon="6.51037">
        <ele>1164.8000488281</ele>
        <time>2022-08-21T09:10:00Z</time>
      </trkpt>
      <trkpt lat="43.99287" lon="6.51034">
        <ele>1164.5999755859</ele>
        <time>2022-08-21T09:10:04Z</time>
      </trkpt>
      <trkpt lat="43.99296" lon="6.51032">
        <ele>1165</ele>
        <time>2022-08-21T09:10:07Z</time>
      </trkpt>
      <trkpt lat="43.99305" lon="6.51029">
        <ele>1165.5999755859</ele>
        <time>2022-08-21T09:10:11Z</time>
      </trkpt>
      <trkpt lat="43.99317" lon="6.5102">
        <ele>1164.5999755859</ele>
        <time>2022-08-21T09:10:15Z</time>
      </trkpt>
      <trkpt lat="43.99326" lon="6.51014">
        <ele>1163.8000488281</ele>
        <time>2022-08-21T09:10:18Z</time>
      </trkpt>
      <trkpt lat="43.99332" lon="6.51007">
        <ele>1163.4000244141</ele>
        <time>2022-08-21T09:10:20Z</time>
      </trkpt>
      <trkpt lat="43.99338" lon="6.51">
        <ele>1162.5999755859</ele>
        <time>2022-08-21T09:10:23Z</time>
      </trkpt>
      <trkpt lat="43.9934" lon="6.50996">
        <ele>1162.4000244141</ele>
        <time>2022-08-21T09:10:24Z</time>
      </trkpt>
      <trkpt lat="43.99341" lon="6.50993">
        <ele>1162.1999511719</ele>
        <time>2022-08-21T09:10:25Z</time>
      </trkpt>
      <trkpt lat="43.99343" lon="6.50991">
        <ele>1162</ele>
        <time>2022-08-21T09:10:26Z</time>
      </trkpt>
      <trkpt lat="43.99346" lon="6.50986">
        <ele>1161.4000244141</ele>
        <time>2022-08-21T09:10:28Z</time>
      </trkpt>
      <trkpt lat="43.99354" lon="6.50977">
        <ele>1160.1999511719</ele>
        <time>2022-08-21T09:10:32Z</time>
      </trkpt>
      <trkpt lat="43.99365" lon="6.50966">
        <ele>1159</ele>
        <time>2022-08-21T09:10:36Z</time>
      </trkpt>
      <trkpt lat="43.99371" lon="6.50961">
        <ele>1158.4000244141</ele>
        <time>2022-08-21T09:10:38Z</time>
      </trkpt>
      <trkpt lat="43.99373" lon="6.50959">
        <ele>1158</ele>
        <time>2022-08-21T09:10:39Z</time>
      </trkpt>
      <trkpt lat="43.99376" lon="6.50957">
        <ele>1157.8000488281</ele>
        <time>2022-08-21T09:10:40Z</time>
      </trkpt>
      <trkpt lat="43.99382" lon="6.50949">
        <ele>1157</ele>
        <time>2022-08-21T09:10:43Z</time>
      </trkpt>
      <trkpt lat="43.9939" lon="6.50943">
        <ele>1155.8000488281</ele>
        <time>2022-08-21T09:10:46Z</time>
      </trkpt>
      <trkpt lat="43.99397" lon="6.50936">
        <ele>1154.5999755859</ele>
        <time>2022-08-21T09:10:50Z</time>
      </trkpt>
      <trkpt lat="43.99399" lon="6.50933">
        <ele>1154.4000244141</ele>
        <time>2022-08-21T09:10:51Z</time>
      </trkpt>
      <trkpt lat="43.99401" lon="6.5093">
        <ele>1154</ele>
        <time>2022-08-21T09:10:52Z</time>
      </trkpt>
      <trkpt lat="43.99406" lon="6.50924">
        <ele>1153.4000244141</ele>
        <time>2022-08-21T09:10:54Z</time>
      </trkpt>
      <trkpt lat="43.99413" lon="6.50915">
        <ele>1152</ele>
        <time>2022-08-21T09:10:57Z</time>
      </trkpt>
      <trkpt lat="43.99417" lon="6.50909">
        <ele>1151.4000244141</ele>
        <time>2022-08-21T09:10:59Z</time>
      </trkpt>
      <trkpt lat="43.99421" lon="6.50904">
        <ele>1151</ele>
        <time>2022-08-21T09:11:01Z</time>
      </trkpt>
      <trkpt lat="43.99427" lon="6.50897">
        <ele>1150</ele>
        <time>2022-08-21T09:11:04Z</time>
      </trkpt>
      <trkpt lat="43.99429" lon="6.50895">
        <ele>1149.8000488281</ele>
        <time>2022-08-21T09:11:05Z</time>
      </trkpt>
      <trkpt lat="43.99439" lon="6.50887">
        <ele>1148.5999755859</ele>
        <time>2022-08-21T09:11:09Z</time>
      </trkpt>
      <trkpt lat="43.99443" lon="6.50883">
        <ele>1148</ele>
        <time>2022-08-21T09:11:11Z</time>
      </trkpt>
      <trkpt lat="43.99447" lon="6.50881">
        <ele>1147.5999755859</ele>
        <time>2022-08-21T09:11:13Z</time>
      </trkpt>
      <trkpt lat="43.99453" lon="6.50877">
        <ele>1147</ele>
        <time>2022-08-21T09:11:16Z</time>
      </trkpt>
      <trkpt lat="43.99457" lon="6.50876">
        <ele>1146.4000244141</ele>
        <time>2022-08-21T09:11:18Z</time>
      </trkpt>
      <trkpt lat="43.99465" lon="6.50871">
        <ele>1145.8000488281</ele>
        <time>2022-08-21T09:11:21Z</time>
      </trkpt>
      <trkpt lat="43.99471" lon="6.50868">
        <ele>1145.1999511719</ele>
        <time>2022-08-21T09:11:23Z</time>
      </trkpt>
      <trkpt lat="43.99481" lon="6.50866">
        <ele>1144</ele>
        <time>2022-08-21T09:11:27Z</time>
      </trkpt>
      <trkpt lat="43.99483" lon="6.50866">
        <ele>1143.5999755859</ele>
        <time>2022-08-21T09:11:28Z</time>
      </trkpt>
      <trkpt lat="43.99491" lon="6.50862">
        <ele>1142.8000488281</ele>
        <time>2022-08-21T09:11:31Z</time>
      </trkpt>
      <trkpt lat="43.99502" lon="6.50854">
        <ele>1141.5999755859</ele>
        <time>2022-08-21T09:11:35Z</time>
      </trkpt>
      <trkpt lat="43.99506" lon="6.50852">
        <ele>1141.1999511719</ele>
        <time>2022-08-21T09:11:36Z</time>
      </trkpt>
      <trkpt lat="43.99515" lon="6.50847">
        <ele>1140.1999511719</ele>
        <time>2022-08-21T09:11:39Z</time>
      </trkpt>
      <trkpt lat="43.99526" lon="6.50846">
        <ele>1139</ele>
        <time>2022-08-21T09:11:42Z</time>
      </trkpt>
      <trkpt lat="43.9953" lon="6.50845">
        <ele>1138.8000488281</ele>
        <time>2022-08-21T09:11:43Z</time>
      </trkpt>
      <trkpt lat="43.9954" lon="6.50844">
        <ele>1137.8000488281</ele>
        <time>2022-08-21T09:11:46Z</time>
      </trkpt>
      <trkpt lat="43.99551" lon="6.50839">
        <ele>1136.5999755859</ele>
        <time>2022-08-21T09:11:49Z</time>
      </trkpt>
      <trkpt lat="43.99556" lon="6.50837">
        <ele>1136.1999511719</ele>
        <time>2022-08-21T09:11:51Z</time>
      </trkpt>
      <trkpt lat="43.99564" lon="6.50834">
        <ele>1135.4000244141</ele>
        <time>2022-08-21T09:11:54Z</time>
      </trkpt>
      <trkpt lat="43.99574" lon="6.50833">
        <ele>1134.4000244141</ele>
        <time>2022-08-21T09:11:57Z</time>
      </trkpt>
      <trkpt lat="43.99577" lon="6.50833">
        <ele>1134</ele>
        <time>2022-08-21T09:11:58Z</time>
      </trkpt>
      <trkpt lat="43.99585" lon="6.50832">
        <ele>1133.4000244141</ele>
        <time>2022-08-21T09:12:01Z</time>
      </trkpt>
      <trkpt lat="43.99587" lon="6.50831">
        <ele>1133</ele>
        <time>2022-08-21T09:12:02Z</time>
      </trkpt>
      <trkpt lat="43.99592" lon="6.50828">
        <ele>1132.4000244141</ele>
        <time>2022-08-21T09:12:04Z</time>
      </trkpt>
      <trkpt lat="43.99594" lon="6.50826">
        <ele>1132</ele>
        <time>2022-08-21T09:12:05Z</time>
      </trkpt>
      <trkpt lat="43.99602" lon="6.50819">
        <ele>1131</ele>
        <time>2022-08-21T09:12:09Z</time>
      </trkpt>
      <trkpt lat="43.99604" lon="6.50818">
        <ele>1130.8000488281</ele>
        <time>2022-08-21T09:12:10Z</time>
      </trkpt>
      <trkpt lat="43.99613" lon="6.50814">
        <ele>1129.4000244141</ele>
        <time>2022-08-21T09:12:15Z</time>
      </trkpt>
      <trkpt lat="43.99621" lon="6.5081">
        <ele>1128.4000244141</ele>
        <time>2022-08-21T09:12:19Z</time>
      </trkpt>
      <trkpt lat="43.99624" lon="6.50808">
        <ele>1128</ele>
        <time>2022-08-21T09:12:21Z</time>
      </trkpt>
      <trkpt lat="43.99629" lon="6.50804">
        <ele>1127.1999511719</ele>
        <time>2022-08-21T09:12:24Z</time>
      </trkpt>
      <trkpt lat="43.99632" lon="6.50801">
        <ele>1126.4000244141</ele>
        <time>2022-08-21T09:12:27Z</time>
      </trkpt>
      <trkpt lat="43.99632" lon="6.50802">
        <ele>1126.1999511719</ele>
        <time>2022-08-21T09:12:29Z</time>
      </trkpt>
      <trkpt lat="43.99633" lon="6.50801">
        <ele>1126.1999511719</ele>
        <time>2022-08-21T09:12:30Z</time>
      </trkpt>
      <trkpt lat="43.99633" lon="6.50801">
        <ele>1126.1999511719</ele>
        <time>2022-08-21T09:12:31Z</time>
      </trkpt>
      <trkpt lat="43.99633" lon="6.50802">
        <ele>1126</ele>
        <time>2022-08-21T09:12:37Z</time>
      </trkpt>
      <trkpt lat="43.99633" lon="6.50802">
        <ele>1125.8000488281</ele>
        <time>2022-08-21T09:12:40Z</time>
      </trkpt>
      <trkpt lat="43.99634" lon="6.50802">
        <ele>1125.5999755859</ele>
        <time>2022-08-21T09:12:45Z</time>
      </trkpt>
      <trkpt lat="43.99634" lon="6.50801">
        <ele>1125.5999755859</ele>
        <time>2022-08-21T09:12:48Z</time>
      </trkpt>
      <trkpt lat="43.99643" lon="6.50793">
        <ele>1125</ele>
        <time>2022-08-21T09:12:55Z</time>
      </trkpt>
      <trkpt lat="43.99645" lon="6.50791">
        <ele>1124.8000488281</ele>
        <time>2022-08-21T09:12:56Z</time>
      </trkpt>
      <trkpt lat="43.99646" lon="6.5079">
        <ele>1124</ele>
        <time>2022-08-21T09:12:59Z</time>
      </trkpt>
      <trkpt lat="43.99647" lon="6.50789">
        <ele>1123.5999755859</ele>
        <time>2022-08-21T09:13:02Z</time>
      </trkpt>
      <trkpt lat="43.99654" lon="6.50783">
        <ele>1123.1999511719</ele>
        <time>2022-08-21T09:13:08Z</time>
      </trkpt>
      <trkpt lat="43.99659" lon="6.5078">
        <ele>1122.8000488281</ele>
        <time>2022-08-21T09:13:10Z</time>
      </trkpt>
      <trkpt lat="43.99672" lon="6.50771">
        <ele>1121.5999755859</ele>
        <time>2022-08-21T09:13:15Z</time>
      </trkpt>
      <trkpt lat="43.9968" lon="6.50765">
        <ele>1120.1999511719</ele>
        <time>2022-08-21T09:13:19Z</time>
      </trkpt>
      <trkpt lat="43.99684" lon="6.50763">
        <ele>1119.8000488281</ele>
        <time>2022-08-21T09:13:21Z</time>
      </trkpt>
      <trkpt lat="43.99691" lon="6.50759">
        <ele>1119</ele>
        <time>2022-08-21T09:13:24Z</time>
      </trkpt>
      <trkpt lat="43.99698" lon="6.50754">
        <ele>1118.1999511719</ele>
        <time>2022-08-21T09:13:28Z</time>
      </trkpt>
      <trkpt lat="43.99701" lon="6.50753">
        <ele>1118</ele>
        <time>2022-08-21T09:13:29Z</time>
      </trkpt>
      <trkpt lat="43.99709" lon="6.50751">
        <ele>1117</ele>
        <time>2022-08-21T09:13:33Z</time>
      </trkpt>
      <trkpt lat="43.99711" lon="6.50751">
        <ele>1117</ele>
        <time>2022-08-21T09:13:34Z</time>
      </trkpt>
      <trkpt lat="43.9972" lon="6.50752">
        <ele>1115.8000488281</ele>
        <time>2022-08-21T09:13:38Z</time>
      </trkpt>
      <trkpt lat="43.99726" lon="6.50751">
        <ele>1115</ele>
        <time>2022-08-21T09:13:41Z</time>
      </trkpt>
      <trkpt lat="43.99729" lon="6.50751">
        <ele>1114.5999755859</ele>
        <time>2022-08-21T09:13:42Z</time>
      </trkpt>
      <trkpt lat="43.99739" lon="6.50751">
        <ele>1113.5999755859</ele>
        <time>2022-08-21T09:13:46Z</time>
      </trkpt>
      <trkpt lat="43.99741" lon="6.50751">
        <ele>1113.4000244141</ele>
        <time>2022-08-21T09:13:47Z</time>
      </trkpt>
      <trkpt lat="43.99749" lon="6.50751">
        <ele>1112.5999755859</ele>
        <time>2022-08-21T09:13:50Z</time>
      </trkpt>
      <trkpt lat="43.99759" lon="6.5075">
        <ele>1111.5999755859</ele>
        <time>2022-08-21T09:13:54Z</time>
      </trkpt>
      <trkpt lat="43.99762" lon="6.50751">
        <ele>1111.1999511719</ele>
        <time>2022-08-21T09:13:55Z</time>
      </trkpt>
      <trkpt lat="43.9977" lon="6.50757">
        <ele>1110.4000244141</ele>
        <time>2022-08-21T09:13:59Z</time>
      </trkpt>
      <trkpt lat="43.99773" lon="6.50758">
        <ele>1110.1999511719</ele>
        <time>2022-08-21T09:14:00Z</time>
      </trkpt>
      <trkpt lat="43.99775" lon="6.50758">
        <ele>1110</ele>
        <time>2022-08-21T09:14:01Z</time>
      </trkpt>
      <trkpt lat="43.99782" lon="6.5076">
        <ele>1109.1999511719</ele>
        <time>2022-08-21T09:14:04Z</time>
      </trkpt>
      <trkpt lat="43.99793" lon="6.50763">
        <ele>1108.1999511719</ele>
        <time>2022-08-21T09:14:08Z</time>
      </trkpt>
      <trkpt lat="43.99796" lon="6.50763">
        <ele>1108</ele>
        <time>2022-08-21T09:14:09Z</time>
      </trkpt>
      <trkpt lat="43.99803" lon="6.50763">
        <ele>1107.1999511719</ele>
        <time>2022-08-21T09:14:12Z</time>
      </trkpt>
      <trkpt lat="43.99806" lon="6.50763">
        <ele>1106.8000488281</ele>
        <time>2022-08-21T09:14:13Z</time>
      </trkpt>
      <trkpt lat="43.99812" lon="6.50763">
        <ele>1106.1999511719</ele>
        <time>2022-08-21T09:14:15Z</time>
      </trkpt>
      <trkpt lat="43.99815" lon="6.50764">
        <ele>1105.8000488281</ele>
        <time>2022-08-21T09:14:16Z</time>
      </trkpt>
      <trkpt lat="43.99823" lon="6.50771">
        <ele>1104.8000488281</ele>
        <time>2022-08-21T09:14:20Z</time>
      </trkpt>
      <trkpt lat="43.99823" lon="6.50775">
        <ele>1104.5999755859</ele>
        <time>2022-08-21T09:14:21Z</time>
      </trkpt>
      <trkpt lat="43.99825" lon="6.50777">
        <ele>1104.1999511719</ele>
        <time>2022-08-21T09:14:23Z</time>
      </trkpt>
      <trkpt lat="43.99826" lon="6.50775">
        <ele>1104</ele>
        <time>2022-08-21T09:14:24Z</time>
      </trkpt>
      <trkpt lat="43.99828" lon="6.50769">
        <ele>1103.4000244141</ele>
        <time>2022-08-21T09:14:26Z</time>
      </trkpt>
      <trkpt lat="43.9983" lon="6.50766">
        <ele>1103</ele>
        <time>2022-08-21T09:14:27Z</time>
      </trkpt>
      <trkpt lat="43.99833" lon="6.5076">
        <ele>1102.1999511719</ele>
        <time>2022-08-21T09:14:29Z</time>
      </trkpt>
      <trkpt lat="43.99835" lon="6.50757">
        <ele>1101.8000488281</ele>
        <time>2022-08-21T09:14:30Z</time>
      </trkpt>
      <trkpt lat="43.99839" lon="6.5075">
        <ele>1101.1999511719</ele>
        <time>2022-08-21T09:14:32Z</time>
      </trkpt>
      <trkpt lat="43.99846" lon="6.50735">
        <ele>1100.1999511719</ele>
        <time>2022-08-21T09:14:36Z</time>
      </trkpt>
      <trkpt lat="43.99849" lon="6.50732">
        <ele>1099.8000488281</ele>
        <time>2022-08-21T09:14:37Z</time>
      </trkpt>
      <trkpt lat="43.99859" lon="6.50728">
        <ele>1099</ele>
        <time>2022-08-21T09:14:41Z</time>
      </trkpt>
      <trkpt lat="43.99864" lon="6.50739">
        <ele>1097.8000488281</ele>
        <time>2022-08-21T09:14:45Z</time>
      </trkpt>
      <trkpt lat="43.99866" lon="6.5075">
        <ele>1096.8000488281</ele>
        <time>2022-08-21T09:14:48Z</time>
      </trkpt>
      <trkpt lat="43.99869" lon="6.50755">
        <ele>1096.1999511719</ele>
        <time>2022-08-21T09:14:50Z</time>
      </trkpt>
      <trkpt lat="43.99871" lon="6.50755">
        <ele>1096</ele>
        <time>2022-08-21T09:14:51Z</time>
      </trkpt>
      <trkpt lat="43.99877" lon="6.50751">
        <ele>1095.5999755859</ele>
        <time>2022-08-21T09:14:53Z</time>
      </trkpt>
      <trkpt lat="43.99886" lon="6.5074">
        <ele>1094.4000244141</ele>
        <time>2022-08-21T09:14:57Z</time>
      </trkpt>
      <trkpt lat="43.99893" lon="6.50738">
        <ele>1093.5999755859</ele>
        <time>2022-08-21T09:15:00Z</time>
      </trkpt>
      <trkpt lat="43.99895" lon="6.50738">
        <ele>1093.4000244141</ele>
        <time>2022-08-21T09:15:01Z</time>
      </trkpt>
      <trkpt lat="43.99901" lon="6.50736">
        <ele>1092.5999755859</ele>
        <time>2022-08-21T09:15:04Z</time>
      </trkpt>
      <trkpt lat="43.99902" lon="6.50734">
        <ele>1092.4000244141</ele>
        <time>2022-08-21T09:15:05Z</time>
      </trkpt>
      <trkpt lat="43.99903" lon="6.50731">
        <ele>1092.1999511719</ele>
        <time>2022-08-21T09:15:06Z</time>
      </trkpt>
      <trkpt lat="43.99905" lon="6.50725">
        <ele>1091.8000488281</ele>
        <time>2022-08-21T09:15:08Z</time>
      </trkpt>
      <trkpt lat="43.99911" lon="6.50717">
        <ele>1091</ele>
        <time>2022-08-21T09:15:11Z</time>
      </trkpt>
      <trkpt lat="43.99923" lon="6.50708">
        <ele>1090</ele>
        <time>2022-08-21T09:15:15Z</time>
      </trkpt>
      <trkpt lat="43.99926" lon="6.50708">
        <ele>1089.8000488281</ele>
        <time>2022-08-21T09:15:16Z</time>
      </trkpt>
      <trkpt lat="43.99935" lon="6.507">
        <ele>1088.8000488281</ele>
        <time>2022-08-21T09:15:20Z</time>
      </trkpt>
      <trkpt lat="43.99936" lon="6.50697">
        <ele>1088.5999755859</ele>
        <time>2022-08-21T09:15:21Z</time>
      </trkpt>
      <trkpt lat="43.99942" lon="6.50681">
        <ele>1087.5999755859</ele>
        <time>2022-08-21T09:15:25Z</time>
      </trkpt>
      <trkpt lat="43.99946" lon="6.50667">
        <ele>1086.4000244141</ele>
        <time>2022-08-21T09:15:29Z</time>
      </trkpt>
      <trkpt lat="43.99955" lon="6.50649">
        <ele>1085</ele>
        <time>2022-08-21T09:15:33Z</time>
      </trkpt>
      <trkpt lat="43.9996" lon="6.5064">
        <ele>1084</ele>
        <time>2022-08-21T09:15:36Z</time>
      </trkpt>
      <trkpt lat="43.99962" lon="6.50638">
        <ele>1083.8000488281</ele>
        <time>2022-08-21T09:15:37Z</time>
      </trkpt>
      <trkpt lat="43.99963" lon="6.50635">
        <ele>1083.4000244141</ele>
        <time>2022-08-21T09:15:39Z</time>
      </trkpt>
      <trkpt lat="43.99963" lon="6.50635">
        <ele>1083.1999511719</ele>
        <time>2022-08-21T09:15:40Z</time>
      </trkpt>
      <trkpt lat="43.99963" lon="6.50635">
        <ele>1083</ele>
        <time>2022-08-21T09:15:42Z</time>
      </trkpt>
      <trkpt lat="43.99963" lon="6.50634">
        <ele>1082.8000488281</ele>
        <time>2022-08-21T09:15:44Z</time>
      </trkpt>
      <trkpt lat="43.99963" lon="6.50634">
        <ele>1082.8000488281</ele>
        <time>2022-08-21T09:15:48Z</time>
      </trkpt>
      <trkpt lat="43.99963" lon="6.50635">
        <ele>1082.8000488281</ele>
        <time>2022-08-21T09:15:49Z</time>
      </trkpt>
      <trkpt lat="43.99963" lon="6.50635">
        <ele>1082.8000488281</ele>
        <time>2022-08-21T09:15:52Z</time>
      </trkpt>
      <trkpt lat="43.99963" lon="6.50635">
        <ele>1082.5999755859</ele>
        <time>2022-08-21T09:15:56Z</time>
      </trkpt>
      <trkpt lat="43.99968" lon="6.50626">
        <ele>1082.1999511719</ele>
        <time>2022-08-21T09:16:01Z</time>
      </trkpt>
      <trkpt lat="43.99969" lon="6.50624">
        <ele>1082</ele>
        <time>2022-08-21T09:16:02Z</time>
      </trkpt>
      <trkpt lat="43.99971" lon="6.50618">
        <ele>1081.5999755859</ele>
        <time>2022-08-21T09:16:04Z</time>
      </trkpt>
      <trkpt lat="43.99977" lon="6.50605">
        <ele>1080.8000488281</ele>
        <time>2022-08-21T09:16:08Z</time>
      </trkpt>
      <trkpt lat="43.99979" lon="6.50602">
        <ele>1080.5999755859</ele>
        <time>2022-08-21T09:16:09Z</time>
      </trkpt>
      <trkpt lat="43.99984" lon="6.50592">
        <ele>1079.5999755859</ele>
        <time>2022-08-21T09:16:12Z</time>
      </trkpt>
      <trkpt lat="43.99985" lon="6.50589">
        <ele>1079.1999511719</ele>
        <time>2022-08-21T09:16:13Z</time>
      </trkpt>
      <trkpt lat="43.9999" lon="6.50579">
        <ele>1078.4000244141</ele>
        <time>2022-08-21T09:16:16Z</time>
      </trkpt>
      <trkpt lat="43.99993" lon="6.50574">
        <ele>1077.8000488281</ele>
        <time>2022-08-21T09:16:18Z</time>
      </trkpt>
      <trkpt lat="43.99997" lon="6.50566">
        <ele>1077.1999511719</ele>
        <time>2022-08-21T09:16:21Z</time>
      </trkpt>
      <trkpt lat="44" lon="6.50562">
        <ele>1076.8000488281</ele>
        <time>2022-08-21T09:16:23Z</time>
      </trkpt>
      <trkpt lat="44.00003" lon="6.50557">
        <ele>1076.1999511719</ele>
        <time>2022-08-21T09:16:25Z</time>
      </trkpt>
      <trkpt lat="44.00008" lon="6.50547">
        <ele>1075.4000244141</ele>
        <time>2022-08-21T09:16:29Z</time>
      </trkpt>
      <trkpt lat="44.0001" lon="6.50543">
        <ele>1075.1999511719</ele>
        <time>2022-08-21T09:16:30Z</time>
      </trkpt>
      <trkpt lat="44.00015" lon="6.50531">
        <ele>1074.1999511719</ele>
        <time>2022-08-21T09:16:34Z</time>
      </trkpt>
      <trkpt lat="44.00018" lon="6.50526">
        <ele>1073.4000244141</ele>
        <time>2022-08-21T09:16:36Z</time>
      </trkpt>
      <trkpt lat="44.00021" lon="6.50521">
        <ele>1072.8000488281</ele>
        <time>2022-08-21T09:16:38Z</time>
      </trkpt>
      <trkpt lat="44.00025" lon="6.50514">
        <ele>1072.1999511719</ele>
        <time>2022-08-21T09:16:41Z</time>
      </trkpt>
      <trkpt lat="44.00028" lon="6.50509">
        <ele>1071.5999755859</ele>
        <time>2022-08-21T09:16:43Z</time>
      </trkpt>
      <trkpt lat="44.00034" lon="6.50501">
        <ele>1070.8000488281</ele>
        <time>2022-08-21T09:16:48Z</time>
      </trkpt>
      <trkpt lat="44.00034" lon="6.505">
        <ele>1070.5999755859</ele>
        <time>2022-08-21T09:16:49Z</time>
      </trkpt>
      <trkpt lat="44.00034" lon="6.50498">
        <ele>1069.8000488281</ele>
        <time>2022-08-21T09:16:52Z</time>
      </trkpt>
      <trkpt lat="44.00034" lon="6.50498">
        <ele>1069.8000488281</ele>
        <time>2022-08-21T09:16:53Z</time>
      </trkpt>
      <trkpt lat="44.00033" lon="6.50498">
        <ele>1069.5999755859</ele>
        <time>2022-08-21T09:16:54Z</time>
      </trkpt>
      <trkpt lat="44.00033" lon="6.50498">
        <ele>1069.4000244141</ele>
        <time>2022-08-21T09:16:55Z</time>
      </trkpt>
      <trkpt lat="44.00023" lon="6.50505">
        <ele>1068.1999511719</ele>
        <time>2022-08-21T09:17:00Z</time>
      </trkpt>
      <trkpt lat="44.00021" lon="6.50506">
        <ele>1067.8000488281</ele>
        <time>2022-08-21T09:17:01Z</time>
      </trkpt>
      <trkpt lat="44.00016" lon="6.50511">
        <ele>1067.1999511719</ele>
        <time>2022-08-21T09:17:04Z</time>
      </trkpt>
      <trkpt lat="44.00014" lon="6.50513">
        <ele>1066.8000488281</ele>
        <time>2022-08-21T09:17:05Z</time>
      </trkpt>
      <trkpt lat="44.00006" lon="6.5052">
        <ele>1065.8000488281</ele>
        <time>2022-08-21T09:17:09Z</time>
      </trkpt>
      <trkpt lat="44.00003" lon="6.50524">
        <ele>1065.1999511719</ele>
        <time>2022-08-21T09:17:11Z</time>
      </trkpt>
      <trkpt lat="43.99998" lon="6.50526">
        <ele>1064.8000488281</ele>
        <time>2022-08-21T09:17:13Z</time>
      </trkpt>
      <trkpt lat="43.99998" lon="6.50526">
        <ele>1064.4000244141</ele>
        <time>2022-08-21T09:17:14Z</time>
      </trkpt>
      <trkpt lat="43.9999" lon="6.50532">
        <ele>1063.5999755859</ele>
        <time>2022-08-21T09:17:17Z</time>
      </trkpt>
      <trkpt lat="43.99985" lon="6.50531">
        <ele>1063.1999511719</ele>
        <time>2022-08-21T09:17:19Z</time>
      </trkpt>
      <trkpt lat="43.9998" lon="6.50527">
        <ele>1062.5999755859</ele>
        <time>2022-08-21T09:17:21Z</time>
      </trkpt>
      <trkpt lat="43.99973" lon="6.5052">
        <ele>1061.5999755859</ele>
        <time>2022-08-21T09:17:24Z</time>
      </trkpt>
      <trkpt lat="43.9997" lon="6.50518">
        <ele>1061.1999511719</ele>
        <time>2022-08-21T09:17:25Z</time>
      </trkpt>
      <trkpt lat="43.99963" lon="6.50513">
        <ele>1060.4000244141</ele>
        <time>2022-08-21T09:17:28Z</time>
      </trkpt>
      <trkpt lat="43.99955" lon="6.50509">
        <ele>1059.5999755859</ele>
        <time>2022-08-21T09:17:31Z</time>
      </trkpt>
      <trkpt lat="43.99955" lon="6.50509">
        <ele>1059.4000244141</ele>
        <time>2022-08-21T09:17:32Z</time>
      </trkpt>
      <trkpt lat="43.99951" lon="6.50511">
        <ele>1059</ele>
        <time>2022-08-21T09:17:33Z</time>
      </trkpt>
      <trkpt lat="43.99945" lon="6.50514">
        <ele>1058.1999511719</ele>
        <time>2022-08-21T09:17:35Z</time>
      </trkpt>
      <trkpt lat="43.99943" lon="6.50516">
        <ele>1058</ele>
        <time>2022-08-21T09:17:36Z</time>
      </trkpt>
      <trkpt lat="43.99936" lon="6.50522">
        <ele>1057</ele>
        <time>2022-08-21T09:17:39Z</time>
      </trkpt>
      <trkpt lat="43.9993" lon="6.50532">
        <ele>1056</ele>
        <time>2022-08-21T09:17:43Z</time>
      </trkpt>
      <trkpt lat="43.9993" lon="6.50532">
        <ele>1055.8000488281</ele>
        <time>2022-08-21T09:17:44Z</time>
      </trkpt>
      <trkpt lat="43.99923" lon="6.50551">
        <ele>1054.5999755859</ele>
        <time>2022-08-21T09:17:50Z</time>
      </trkpt>
      <trkpt lat="43.99923" lon="6.50554">
        <ele>1054.4000244141</ele>
        <time>2022-08-21T09:17:51Z</time>
      </trkpt>
      <trkpt lat="43.99923" lon="6.50559">
        <ele>1053.5999755859</ele>
        <time>2022-08-21T09:17:55Z</time>
      </trkpt>
      <trkpt lat="43.99922" lon="6.5056">
        <ele>1053.4000244141</ele>
        <time>2022-08-21T09:17:56Z</time>
      </trkpt>
      <trkpt lat="43.99921" lon="6.5056">
        <ele>1053.4000244141</ele>
        <time>2022-08-21T09:17:57Z</time>
      </trkpt>
      <trkpt lat="43.99919" lon="6.50559">
        <ele>1053.1999511719</ele>
        <time>2022-08-21T09:17:58Z</time>
      </trkpt>
      <trkpt lat="43.99916" lon="6.50551">
        <ele>1052.4000244141</ele>
        <time>2022-08-21T09:18:01Z</time>
      </trkpt>
      <trkpt lat="43.99916" lon="6.50549">
        <ele>1052.1999511719</ele>
        <time>2022-08-21T09:18:02Z</time>
      </trkpt>
      <trkpt lat="43.99917" lon="6.50539">
        <ele>1051.1999511719</ele>
        <time>2022-08-21T09:18:06Z</time>
      </trkpt>
      <trkpt lat="43.99917" lon="6.50536">
        <ele>1051</ele>
        <time>2022-08-21T09:18:08Z</time>
      </trkpt>
      <trkpt lat="43.99916" lon="6.50535">
        <ele>1050.5999755859</ele>
        <time>2022-08-21T09:18:11Z</time>
      </trkpt>
      <trkpt lat="43.99914" lon="6.50531">
        <ele>1050.5999755859</ele>
        <time>2022-08-21T09:18:16Z</time>
      </trkpt>
      <trkpt lat="43.99913" lon="6.5053">
        <ele>1050.8000488281</ele>
        <time>2022-08-21T09:18:18Z</time>
      </trkpt>
      <trkpt lat="43.99913" lon="6.50529">
        <ele>1051</ele>
        <time>2022-08-21T09:18:24Z</time>
      </trkpt>
      <trkpt lat="43.99912" lon="6.50528">
        <ele>1051</ele>
        <time>2022-08-21T09:18:28Z</time>
      </trkpt>
      <trkpt lat="43.99912" lon="6.50526">
        <ele>1050.5999755859</ele>
        <time>2022-08-21T09:18:31Z</time>
      </trkpt>
      <trkpt lat="43.99911" lon="6.50524">
        <ele>1050.1999511719</ele>
        <time>2022-08-21T09:18:34Z</time>
      </trkpt>
      <trkpt lat="43.99911" lon="6.50523">
        <ele>1049.8000488281</ele>
        <time>2022-08-21T09:18:35Z</time>
      </trkpt>
      <trkpt lat="43.99911" lon="6.50523">
        <ele>1049.5999755859</ele>
        <time>2022-08-21T09:18:36Z</time>
      </trkpt>
      <trkpt lat="43.9991" lon="6.50513">
        <ele>1049</ele>
        <time>2022-08-21T09:18:41Z</time>
      </trkpt>
      <trkpt lat="43.9991" lon="6.5051">
        <ele>1049</ele>
        <time>2022-08-21T09:18:42Z</time>
      </trkpt>
      <trkpt lat="43.99909" lon="6.50508">
        <ele>1048.8000488281</ele>
        <time>2022-08-21T09:18:43Z</time>
      </trkpt>
      <trkpt lat="43.99909" lon="6.50505">
        <ele>1048.8000488281</ele>
        <time>2022-08-21T09:18:44Z</time>
      </trkpt>
      <trkpt lat="43.99909" lon="6.50496">
        <ele>1048</ele>
        <time>2022-08-21T09:18:48Z</time>
      </trkpt>
      <trkpt lat="43.99908" lon="6.50495">
        <ele>1048</ele>
        <time>2022-08-21T09:18:49Z</time>
      </trkpt>
      <trkpt lat="43.99908" lon="6.50495">
        <ele>1047.8000488281</ele>
        <time>2022-08-21T09:18:50Z</time>
      </trkpt>
      <trkpt lat="43.99907" lon="6.50494">
        <ele>1047.8000488281</ele>
        <time>2022-08-21T09:18:53Z</time>
      </trkpt>
      <trkpt lat="43.99906" lon="6.50494">
        <ele>1047.4000244141</ele>
        <time>2022-08-21T09:18:58Z</time>
      </trkpt>
      <trkpt lat="43.99905" lon="6.50495">
        <ele>1047.1999511719</ele>
        <time>2022-08-21T09:19:00Z</time>
      </trkpt>
      <trkpt lat="43.99904" lon="6.50495">
        <ele>1047.1999511719</ele>
        <time>2022-08-21T09:19:04Z</time>
      </trkpt>
      <trkpt lat="43.99904" lon="6.50495">
        <ele>1047.1999511719</ele>
        <time>2022-08-21T09:19:06Z</time>
      </trkpt>
      <trkpt lat="43.99904" lon="6.50495">
        <ele>1047.1999511719</ele>
        <time>2022-08-21T09:19:10Z</time>
      </trkpt>
      <trkpt lat="43.99903" lon="6.5049">
        <ele>1047</ele>
        <time>2022-08-21T09:19:16Z</time>
      </trkpt>
      <trkpt lat="43.99907" lon="6.50481">
        <ele>1046.1999511719</ele>
        <time>2022-08-21T09:19:20Z</time>
      </trkpt>
      <trkpt lat="43.99908" lon="6.50478">
        <ele>1046</ele>
        <time>2022-08-21T09:19:21Z</time>
      </trkpt>
      <trkpt lat="43.99908" lon="6.50474">
        <ele>1045.8000488281</ele>
        <time>2022-08-21T09:19:22Z</time>
      </trkpt>
      <trkpt lat="43.99907" lon="6.50461">
        <ele>1044.8000488281</ele>
        <time>2022-08-21T09:19:25Z</time>
      </trkpt>
      <trkpt lat="43.99906" lon="6.50457">
        <ele>1044.4000244141</ele>
        <time>2022-08-21T09:19:26Z</time>
      </trkpt>
      <trkpt lat="43.99902" lon="6.50447">
        <ele>1043.5999755859</ele>
        <time>2022-08-21T09:19:29Z</time>
      </trkpt>
      <trkpt lat="43.999" lon="6.50444">
        <ele>1043.1999511719</ele>
        <time>2022-08-21T09:19:30Z</time>
      </trkpt>
      <trkpt lat="43.99898" lon="6.50442">
        <ele>1042.8000488281</ele>
        <time>2022-08-21T09:19:31Z</time>
      </trkpt>
      <trkpt lat="43.99895" lon="6.5044">
        <ele>1042.4000244141</ele>
        <time>2022-08-21T09:19:32Z</time>
      </trkpt>
      <trkpt lat="43.99886" lon="6.50428">
        <ele>1041.1999511719</ele>
        <time>2022-08-21T09:19:35Z</time>
      </trkpt>
      <trkpt lat="43.99885" lon="6.50422">
        <ele>1041</ele>
        <time>2022-08-21T09:19:36Z</time>
      </trkpt>
      <trkpt lat="43.9988" lon="6.50403">
        <ele>1040.1999511719</ele>
        <time>2022-08-21T09:19:40Z</time>
      </trkpt>
      <trkpt lat="43.99879" lon="6.50401">
        <ele>1040.1999511719</ele>
        <time>2022-08-21T09:19:41Z</time>
      </trkpt>
      <trkpt lat="43.99878" lon="6.50401">
        <ele>1040.5999755859</ele>
        <time>2022-08-21T09:19:44Z</time>
      </trkpt>
      <trkpt lat="43.99878" lon="6.504">
        <ele>1040.5999755859</ele>
        <time>2022-08-21T09:19:45Z</time>
      </trkpt>
      <trkpt lat="43.99874" lon="6.504">
        <ele>1041.1999511719</ele>
        <time>2022-08-21T09:19:49Z</time>
      </trkpt>
      <trkpt lat="43.9987" lon="6.504">
        <ele>1041.4000244141</ele>
        <time>2022-08-21T09:19:51Z</time>
      </trkpt>
      <trkpt lat="43.99855" lon="6.50399">
        <ele>1041.5999755859</ele>
        <time>2022-08-21T09:19:59Z</time>
      </trkpt>
      <trkpt lat="43.99845" lon="6.50395">
        <ele>1041.5999755859</ele>
        <time>2022-08-21T09:20:04Z</time>
      </trkpt>
      <trkpt lat="43.99838" lon="6.5039">
        <ele>1041.5999755859</ele>
        <time>2022-08-21T09:20:07Z</time>
      </trkpt>
      <trkpt lat="43.99819" lon="6.50373">
        <ele>1041.4000244141</ele>
        <time>2022-08-21T09:20:13Z</time>
      </trkpt>
      <trkpt lat="43.99813" lon="6.50366">
        <ele>1041.5999755859</ele>
        <time>2022-08-21T09:20:15Z</time>
      </trkpt>
      <trkpt lat="43.99801" lon="6.50355">
        <ele>1041.8000488281</ele>
        <time>2022-08-21T09:20:19Z</time>
      </trkpt>
      <trkpt lat="43.99796" lon="6.50351">
        <ele>1042</ele>
        <time>2022-08-21T09:20:21Z</time>
      </trkpt>
      <trkpt lat="43.99788" lon="6.50348">
        <ele>1042</ele>
        <time>2022-08-21T09:20:24Z</time>
      </trkpt>
      <trkpt lat="43.99785" lon="6.50347">
        <ele>1041.5999755859</ele>
        <time>2022-08-21T09:20:25Z</time>
      </trkpt>
      <trkpt lat="43.99782" lon="6.50347">
        <ele>1041.1999511719</ele>
        <time>2022-08-21T09:20:26Z</time>
      </trkpt>
      <trkpt lat="43.99778" lon="6.50351">
        <ele>1040.5999755859</ele>
        <time>2022-08-21T09:20:28Z</time>
      </trkpt>
      <trkpt lat="43.99776" lon="6.50354">
        <ele>1040.1999511719</ele>
        <time>2022-08-21T09:20:29Z</time>
      </trkpt>
      <trkpt lat="43.99767" lon="6.50363">
        <ele>1039.1999511719</ele>
        <time>2022-08-21T09:20:33Z</time>
      </trkpt>
      <trkpt lat="43.99762" lon="6.50368">
        <ele>1038.4000244141</ele>
        <time>2022-08-21T09:20:35Z</time>
      </trkpt>
      <trkpt lat="43.99757" lon="6.50372">
        <ele>1037.8000488281</ele>
        <time>2022-08-21T09:20:37Z</time>
      </trkpt>
      <trkpt lat="43.99751" lon="6.50378">
        <ele>1036.5999755859</ele>
        <time>2022-08-21T09:20:40Z</time>
      </trkpt>
      <trkpt lat="43.99747" lon="6.50382">
        <ele>1036</ele>
        <time>2022-08-21T09:20:42Z</time>
      </trkpt>
      <trkpt lat="43.99743" lon="6.50386">
        <ele>1035.5999755859</ele>
        <time>2022-08-21T09:20:44Z</time>
      </trkpt>
      <trkpt lat="43.99737" lon="6.50393">
        <ele>1034.4000244141</ele>
        <time>2022-08-21T09:20:47Z</time>
      </trkpt>
      <trkpt lat="43.99733" lon="6.50397">
        <ele>1033.8000488281</ele>
        <time>2022-08-21T09:20:49Z</time>
      </trkpt>
      <trkpt lat="43.99727" lon="6.50402">
        <ele>1033.4000244141</ele>
        <time>2022-08-21T09:20:51Z</time>
      </trkpt>
      <trkpt lat="43.99722" lon="6.50406">
        <ele>1032.8000488281</ele>
        <time>2022-08-21T09:20:53Z</time>
      </trkpt>
      <trkpt lat="43.99719" lon="6.50408">
        <ele>1032.4000244141</ele>
        <time>2022-08-21T09:20:54Z</time>
      </trkpt>
      <trkpt lat="43.99712" lon="6.5041">
        <ele>1031</ele>
        <time>2022-08-21T09:20:58Z</time>
      </trkpt>
      <trkpt lat="43.99703" lon="6.5041">
        <ele>1029.8000488281</ele>
        <time>2022-08-21T09:21:02Z</time>
      </trkpt>
      <trkpt lat="43.99694" lon="6.50409">
        <ele>1029.1999511719</ele>
        <time>2022-08-21T09:21:05Z</time>
      </trkpt>
      <trkpt lat="43.99688" lon="6.50408">
        <ele>1028.8000488281</ele>
        <time>2022-08-21T09:21:07Z</time>
      </trkpt>
      <trkpt lat="43.99679" lon="6.50407">
        <ele>1027.8000488281</ele>
        <time>2022-08-21T09:21:10Z</time>
      </trkpt>
      <trkpt lat="43.99677" lon="6.50407">
        <ele>1027.4000244141</ele>
        <time>2022-08-21T09:21:11Z</time>
      </trkpt>
      <trkpt lat="43.99668" lon="6.50409">
        <ele>1026.8000488281</ele>
        <time>2022-08-21T09:21:14Z</time>
      </trkpt>
      <trkpt lat="43.99656" lon="6.50416">
        <ele>1025.5999755859</ele>
        <time>2022-08-21T09:21:18Z</time>
      </trkpt>
      <trkpt lat="43.99653" lon="6.50418">
        <ele>1025.1999511719</ele>
        <time>2022-08-21T09:21:19Z</time>
      </trkpt>
      <trkpt lat="43.99647" lon="6.50423">
        <ele>1024.4000244141</ele>
        <time>2022-08-21T09:21:21Z</time>
      </trkpt>
      <trkpt lat="43.99638" lon="6.50429">
        <ele>1023.4000244141</ele>
        <time>2022-08-21T09:21:25Z</time>
      </trkpt>
      <trkpt lat="43.99623" lon="6.50436">
        <ele>1022.200012207</ele>
        <time>2022-08-21T09:21:30Z</time>
      </trkpt>
      <trkpt lat="43.99622" lon="6.50438">
        <ele>1022.200012207</ele>
        <time>2022-08-21T09:21:31Z</time>
      </trkpt>
      <trkpt lat="43.99617" lon="6.50442">
        <ele>1021.4000244141</ele>
        <time>2022-08-21T09:21:34Z</time>
      </trkpt>
      <trkpt lat="43.99616" lon="6.50442">
        <ele>1021.200012207</ele>
        <time>2022-08-21T09:21:35Z</time>
      </trkpt>
      <trkpt lat="43.99616" lon="6.50442">
        <ele>1020.799987793</ele>
        <time>2022-08-21T09:21:36Z</time>
      </trkpt>
      <trkpt lat="43.99622" lon="6.50437">
        <ele>1020.200012207</ele>
        <time>2022-08-21T09:21:39Z</time>
      </trkpt>
      <trkpt lat="43.99628" lon="6.5043">
        <ele>1019</ele>
        <time>2022-08-21T09:21:42Z</time>
      </trkpt>
      <trkpt lat="43.99633" lon="6.50419">
        <ele>1017.5999755859</ele>
        <time>2022-08-21T09:21:46Z</time>
      </trkpt>
      <trkpt lat="43.99638" lon="6.50411">
        <ele>1016.5999755859</ele>
        <time>2022-08-21T09:21:50Z</time>
      </trkpt>
      <trkpt lat="43.99642" lon="6.50404">
        <ele>1015.5999755859</ele>
        <time>2022-08-21T09:21:53Z</time>
      </trkpt>
      <trkpt lat="43.99648" lon="6.50394">
        <ele>1014.4000244141</ele>
        <time>2022-08-21T09:21:57Z</time>
      </trkpt>
      <trkpt lat="43.99655" lon="6.50388">
        <ele>1013.200012207</ele>
        <time>2022-08-21T09:22:01Z</time>
      </trkpt>
      <trkpt lat="43.99658" lon="6.50386">
        <ele>1012.799987793</ele>
        <time>2022-08-21T09:22:03Z</time>
      </trkpt>
      <trkpt lat="43.99658" lon="6.50386">
        <ele>1012.4000244141</ele>
        <time>2022-08-21T09:22:04Z</time>
      </trkpt>
      <trkpt lat="43.9966" lon="6.50386">
        <ele>1012.200012207</ele>
        <time>2022-08-21T09:22:06Z</time>
      </trkpt>
      <trkpt lat="43.9966" lon="6.50385">
        <ele>1012</ele>
        <time>2022-08-21T09:22:07Z</time>
      </trkpt>
      <trkpt lat="43.99661" lon="6.50379">
        <ele>1011.200012207</ele>
        <time>2022-08-21T09:22:13Z</time>
      </trkpt>
      <trkpt lat="43.99661" lon="6.50379">
        <ele>1011</ele>
        <time>2022-08-21T09:22:15Z</time>
      </trkpt>
      <trkpt lat="43.99661" lon="6.5038">
        <ele>1010.799987793</ele>
        <time>2022-08-21T09:22:19Z</time>
      </trkpt>
      <trkpt lat="43.99654" lon="6.50384">
        <ele>1010</ele>
        <time>2022-08-21T09:22:25Z</time>
      </trkpt>
      <trkpt lat="43.99647" lon="6.50387">
        <ele>1009.4000244141</ele>
        <time>2022-08-21T09:22:28Z</time>
      </trkpt>
      <trkpt lat="43.99645" lon="6.50387">
        <ele>1009</ele>
        <time>2022-08-21T09:22:29Z</time>
      </trkpt>
      <trkpt lat="43.99641" lon="6.50389">
        <ele>1008.4000244141</ele>
        <time>2022-08-21T09:22:31Z</time>
      </trkpt>
      <trkpt lat="43.99635" lon="6.50391">
        <ele>1008</ele>
        <time>2022-08-21T09:22:33Z</time>
      </trkpt>
      <trkpt lat="43.99632" lon="6.50392">
        <ele>1007.5999755859</ele>
        <time>2022-08-21T09:22:34Z</time>
      </trkpt>
      <trkpt lat="43.99628" lon="6.50395">
        <ele>1007</ele>
        <time>2022-08-21T09:22:36Z</time>
      </trkpt>
      <trkpt lat="43.99625" lon="6.50396">
        <ele>1006.5999755859</ele>
        <time>2022-08-21T09:22:37Z</time>
      </trkpt>
      <trkpt lat="43.99623" lon="6.50398">
        <ele>1006.4000244141</ele>
        <time>2022-08-21T09:22:38Z</time>
      </trkpt>
      <trkpt lat="43.99618" lon="6.50401">
        <ele>1005.5999755859</ele>
        <time>2022-08-21T09:22:40Z</time>
      </trkpt>
      <trkpt lat="43.99616" lon="6.50402">
        <ele>1005.200012207</ele>
        <time>2022-08-21T09:22:41Z</time>
      </trkpt>
      <trkpt lat="43.99607" lon="6.50408">
        <ele>1004.200012207</ele>
        <time>2022-08-21T09:22:44Z</time>
      </trkpt>
      <trkpt lat="43.99599" lon="6.50418">
        <ele>1003.200012207</ele>
        <time>2022-08-21T09:22:48Z</time>
      </trkpt>
      <trkpt lat="43.99591" lon="6.50432">
        <ele>1002</ele>
        <time>2022-08-21T09:22:53Z</time>
      </trkpt>
      <trkpt lat="43.9959" lon="6.50433">
        <ele>1001.799987793</ele>
        <time>2022-08-21T09:22:54Z</time>
      </trkpt>
      <trkpt lat="43.99588" lon="6.50434">
        <ele>1001.4000244141</ele>
        <time>2022-08-21T09:22:55Z</time>
      </trkpt>
      <trkpt lat="43.99584" lon="6.50435">
        <ele>1000.799987793</ele>
        <time>2022-08-21T09:22:57Z</time>
      </trkpt>
      <trkpt lat="43.99582" lon="6.50435">
        <ele>1000.5999755859</ele>
        <time>2022-08-21T09:22:58Z</time>
      </trkpt>
      <trkpt lat="43.99574" lon="6.50435">
        <ele>999.79998779297</ele>
        <time>2022-08-21T09:23:01Z</time>
      </trkpt>
      <trkpt lat="43.99568" lon="6.50435">
        <ele>999.20001220703</ele>
        <time>2022-08-21T09:23:03Z</time>
      </trkpt>
      <trkpt lat="43.99564" lon="6.50437">
        <ele>998.79998779297</ele>
        <time>2022-08-21T09:23:04Z</time>
      </trkpt>
      <trkpt lat="43.99561" lon="6.5044">
        <ele>998.40002441406</ele>
        <time>2022-08-21T09:23:05Z</time>
      </trkpt>
      <trkpt lat="43.99556" lon="6.50447">
        <ele>997.40002441406</ele>
        <time>2022-08-21T09:23:07Z</time>
      </trkpt>
      <trkpt lat="43.99546" lon="6.50458">
        <ele>996</ele>
        <time>2022-08-21T09:23:10Z</time>
      </trkpt>
      <trkpt lat="43.99542" lon="6.5046">
        <ele>995.59997558594</ele>
        <time>2022-08-21T09:23:11Z</time>
      </trkpt>
      <trkpt lat="43.99535" lon="6.50465">
        <ele>994.59997558594</ele>
        <time>2022-08-21T09:23:13Z</time>
      </trkpt>
      <trkpt lat="43.99523" lon="6.50469">
        <ele>993.20001220703</ele>
        <time>2022-08-21T09:23:16Z</time>
      </trkpt>
      <trkpt lat="43.99515" lon="6.50474">
        <ele>992</ele>
        <time>2022-08-21T09:23:19Z</time>
      </trkpt>
      <trkpt lat="43.99513" lon="6.50475">
        <ele>991.79998779297</ele>
        <time>2022-08-21T09:23:20Z</time>
      </trkpt>
      <trkpt lat="43.995" lon="6.50482">
        <ele>990.59997558594</ele>
        <time>2022-08-21T09:23:24Z</time>
      </trkpt>
      <trkpt lat="43.99494" lon="6.50487">
        <ele>989.79998779297</ele>
        <time>2022-08-21T09:23:26Z</time>
      </trkpt>
      <trkpt lat="43.99491" lon="6.50488">
        <ele>989.40002441406</ele>
        <time>2022-08-21T09:23:27Z</time>
      </trkpt>
      <trkpt lat="43.99483" lon="6.5049">
        <ele>988.59997558594</ele>
        <time>2022-08-21T09:23:30Z</time>
      </trkpt>
      <trkpt lat="43.9948" lon="6.50492">
        <ele>988.20001220703</ele>
        <time>2022-08-21T09:23:31Z</time>
      </trkpt>
      <trkpt lat="43.99473" lon="6.50499">
        <ele>987.20001220703</ele>
        <time>2022-08-21T09:23:34Z</time>
      </trkpt>
      <trkpt lat="43.99467" lon="6.50502">
        <ele>986.59997558594</ele>
        <time>2022-08-21T09:23:36Z</time>
      </trkpt>
      <trkpt lat="43.99461" lon="6.50504">
        <ele>986</ele>
        <time>2022-08-21T09:23:38Z</time>
      </trkpt>
      <trkpt lat="43.99452" lon="6.50511">
        <ele>984.59997558594</ele>
        <time>2022-08-21T09:23:43Z</time>
      </trkpt>
      <trkpt lat="43.9945" lon="6.50512">
        <ele>984.40002441406</ele>
        <time>2022-08-21T09:23:44Z</time>
      </trkpt>
      <trkpt lat="43.99446" lon="6.50514">
        <ele>983.59997558594</ele>
        <time>2022-08-21T09:23:47Z</time>
      </trkpt>
      <trkpt lat="43.99446" lon="6.50515">
        <ele>983.40002441406</ele>
        <time>2022-08-21T09:23:48Z</time>
      </trkpt>
      <trkpt lat="43.99447" lon="6.50518">
        <ele>983.20001220703</ele>
        <time>2022-08-21T09:23:51Z</time>
      </trkpt>
      <trkpt lat="43.99446" lon="6.50519">
        <ele>983.20001220703</ele>
        <time>2022-08-21T09:23:53Z</time>
      </trkpt>
      <trkpt lat="43.99445" lon="6.50521">
        <ele>983.20001220703</ele>
        <time>2022-08-21T09:24:01Z</time>
      </trkpt>
      <trkpt lat="43.99444" lon="6.50518">
        <ele>982.79998779297</ele>
        <time>2022-08-21T09:24:11Z</time>
      </trkpt>
      <trkpt lat="43.99441" lon="6.50517">
        <ele>982.79998779297</ele>
        <time>2022-08-21T09:24:17Z</time>
      </trkpt>
      <trkpt lat="43.99439" lon="6.50518">
        <ele>982.59997558594</ele>
        <time>2022-08-21T09:24:18Z</time>
      </trkpt>
      <trkpt lat="43.99437" lon="6.50518">
        <ele>982.40002441406</ele>
        <time>2022-08-21T09:24:19Z</time>
      </trkpt>
      <trkpt lat="43.99434" lon="6.50517">
        <ele>981.40002441406</ele>
        <time>2022-08-21T09:24:24Z</time>
      </trkpt>
      <trkpt lat="43.99438" lon="6.50507">
        <ele>980.20001220703</ele>
        <time>2022-08-21T09:24:28Z</time>
      </trkpt>
      <trkpt lat="43.99441" lon="6.50502">
        <ele>979.79998779297</ele>
        <time>2022-08-21T09:24:30Z</time>
      </trkpt>
      <trkpt lat="43.99443" lon="6.50501">
        <ele>979.59997558594</ele>
        <time>2022-08-21T09:24:31Z</time>
      </trkpt>
      <trkpt lat="43.99445" lon="6.50501">
        <ele>979.20001220703</ele>
        <time>2022-08-21T09:24:32Z</time>
      </trkpt>
      <trkpt lat="43.99453" lon="6.50496">
        <ele>978</ele>
        <time>2022-08-21T09:24:35Z</time>
      </trkpt>
      <trkpt lat="43.99459" lon="6.5049">
        <ele>977.40002441406</ele>
        <time>2022-08-21T09:24:37Z</time>
      </trkpt>
      <trkpt lat="43.99462" lon="6.50488">
        <ele>977</ele>
        <time>2022-08-21T09:24:38Z</time>
      </trkpt>
      <trkpt lat="43.99471" lon="6.50484">
        <ele>975.79998779297</ele>
        <time>2022-08-21T09:24:41Z</time>
      </trkpt>
      <trkpt lat="43.99477" lon="6.50479">
        <ele>975</ele>
        <time>2022-08-21T09:24:43Z</time>
      </trkpt>
      <trkpt lat="43.99479" lon="6.50475">
        <ele>974.59997558594</ele>
        <time>2022-08-21T09:24:44Z</time>
      </trkpt>
      <trkpt lat="43.99484" lon="6.5046">
        <ele>973.40002441406</ele>
        <time>2022-08-21T09:24:47Z</time>
      </trkpt>
      <trkpt lat="43.99486" lon="6.50456">
        <ele>973</ele>
        <time>2022-08-21T09:24:48Z</time>
      </trkpt>
      <trkpt lat="43.9949" lon="6.50446">
        <ele>972</ele>
        <time>2022-08-21T09:24:50Z</time>
      </trkpt>
      <trkpt lat="43.99494" lon="6.50436">
        <ele>970.79998779297</ele>
        <time>2022-08-21T09:24:52Z</time>
      </trkpt>
      <trkpt lat="43.995" lon="6.50424">
        <ele>969.40002441406</ele>
        <time>2022-08-21T09:24:55Z</time>
      </trkpt>
      <trkpt lat="43.99509" lon="6.50419">
        <ele>968.40002441406</ele>
        <time>2022-08-21T09:24:58Z</time>
      </trkpt>
      <trkpt lat="43.99512" lon="6.50416">
        <ele>968</ele>
        <time>2022-08-21T09:24:59Z</time>
      </trkpt>
      <trkpt lat="43.99518" lon="6.50407">
        <ele>967</ele>
        <time>2022-08-21T09:25:01Z</time>
      </trkpt>
      <trkpt lat="43.99522" lon="6.50397">
        <ele>965.79998779297</ele>
        <time>2022-08-21T09:25:03Z</time>
      </trkpt>
      <trkpt lat="43.99524" lon="6.50394">
        <ele>965.40002441406</ele>
        <time>2022-08-21T09:25:04Z</time>
      </trkpt>
      <trkpt lat="43.99526" lon="6.50386">
        <ele>964.59997558594</ele>
        <time>2022-08-21T09:25:06Z</time>
      </trkpt>
      <trkpt lat="43.99532" lon="6.50373">
        <ele>963.40002441406</ele>
        <time>2022-08-21T09:25:09Z</time>
      </trkpt>
      <trkpt lat="43.99533" lon="6.50369">
        <ele>963</ele>
        <time>2022-08-21T09:25:10Z</time>
      </trkpt>
      <trkpt lat="43.99539" lon="6.50359">
        <ele>962</ele>
        <time>2022-08-21T09:25:13Z</time>
      </trkpt>
      <trkpt lat="43.99544" lon="6.50345">
        <ele>960.79998779297</ele>
        <time>2022-08-21T09:25:16Z</time>
      </trkpt>
      <trkpt lat="43.99545" lon="6.50339">
        <ele>960.40002441406</ele>
        <time>2022-08-21T09:25:17Z</time>
      </trkpt>
      <trkpt lat="43.99551" lon="6.50326">
        <ele>959.79998779297</ele>
        <time>2022-08-21T09:25:20Z</time>
      </trkpt>
      <trkpt lat="43.99556" lon="6.5032">
        <ele>959.59997558594</ele>
        <time>2022-08-21T09:25:22Z</time>
      </trkpt>
      <trkpt lat="43.9957" lon="6.5031">
        <ele>959.79998779297</ele>
        <time>2022-08-21T09:25:27Z</time>
      </trkpt>
      <trkpt lat="43.99577" lon="6.50306">
        <ele>959.79998779297</ele>
        <time>2022-08-21T09:25:29Z</time>
      </trkpt>
      <trkpt lat="43.99589" lon="6.50299">
        <ele>960.20001220703</ele>
        <time>2022-08-21T09:25:33Z</time>
      </trkpt>
      <trkpt lat="43.99611" lon="6.5029">
        <ele>960.59997558594</ele>
        <time>2022-08-21T09:25:39Z</time>
      </trkpt>
      <trkpt lat="43.99618" lon="6.50286">
        <ele>960.79998779297</ele>
        <time>2022-08-21T09:25:41Z</time>
      </trkpt>
      <trkpt lat="43.99622" lon="6.50285">
        <ele>960.79998779297</ele>
        <time>2022-08-21T09:25:42Z</time>
      </trkpt>
      <trkpt lat="43.99632" lon="6.5028">
        <ele>961</ele>
        <time>2022-08-21T09:25:45Z</time>
      </trkpt>
      <trkpt lat="43.99635" lon="6.50277">
        <ele>961</ele>
        <time>2022-08-21T09:25:46Z</time>
      </trkpt>
      <trkpt lat="43.99641" lon="6.50272">
        <ele>961.20001220703</ele>
        <time>2022-08-21T09:25:48Z</time>
      </trkpt>
      <trkpt lat="43.99652" lon="6.50266">
        <ele>961.40002441406</ele>
        <time>2022-08-21T09:25:51Z</time>
      </trkpt>
      <trkpt lat="43.99668" lon="6.50247">
        <ele>961.40002441406</ele>
        <time>2022-08-21T09:25:57Z</time>
      </trkpt>
      <trkpt lat="43.99675" lon="6.50235">
        <ele>961.79998779297</ele>
        <time>2022-08-21T09:26:00Z</time>
      </trkpt>
      <trkpt lat="43.99676" lon="6.5023">
        <ele>961.79998779297</ele>
        <time>2022-08-21T09:26:01Z</time>
      </trkpt>
      <trkpt lat="43.99673" lon="6.50222">
        <ele>962</ele>
        <time>2022-08-21T09:26:02Z</time>
      </trkpt>
      <trkpt lat="43.99669" lon="6.50212">
        <ele>962</ele>
        <time>2022-08-21T09:26:04Z</time>
      </trkpt>
      <trkpt lat="43.99668" lon="6.5021">
        <ele>962</ele>
        <time>2022-08-21T09:26:05Z</time>
      </trkpt>
      <trkpt lat="43.99664" lon="6.50207">
        <ele>962.20001220703</ele>
        <time>2022-08-21T09:26:09Z</time>
      </trkpt>
      <trkpt lat="43.99662" lon="6.50207">
        <ele>962.20001220703</ele>
        <time>2022-08-21T09:26:11Z</time>
      </trkpt>
      <trkpt lat="43.99662" lon="6.50206">
        <ele>962.20001220703</ele>
        <time>2022-08-21T09:26:13Z</time>
      </trkpt>
      <trkpt lat="43.99662" lon="6.50204">
        <ele>962</ele>
        <time>2022-08-21T09:26:15Z</time>
      </trkpt>
      <trkpt lat="43.99662" lon="6.50204">
        <ele>961.79998779297</ele>
        <time>2022-08-21T09:26:19Z</time>
      </trkpt>
      <trkpt lat="43.99661" lon="6.50204">
        <ele>962</ele>
        <time>2022-08-21T09:26:29Z</time>
      </trkpt>
      <trkpt lat="43.9966" lon="6.50204">
        <ele>961.79998779297</ele>
        <time>2022-08-21T09:26:34Z</time>
      </trkpt>
      <trkpt lat="43.9966" lon="6.50204">
        <ele>961.79998779297</ele>
        <time>2022-08-21T09:26:37Z</time>
      </trkpt>
      <trkpt lat="43.9966" lon="6.50204">
        <ele>961.59997558594</ele>
        <time>2022-08-21T09:26:41Z</time>
      </trkpt>
      <trkpt lat="43.9966" lon="6.50203">
        <ele>961.59997558594</ele>
        <time>2022-08-21T09:26:44Z</time>
      </trkpt>
      <trkpt lat="43.9965" lon="6.50206">
        <ele>961.20001220703</ele>
        <time>2022-08-21T09:26:50Z</time>
      </trkpt>
      <trkpt lat="43.99646" lon="6.50206">
        <ele>961</ele>
        <time>2022-08-21T09:26:51Z</time>
      </trkpt>
      <trkpt lat="43.99638" lon="6.50208">
        <ele>960.79998779297</ele>
        <time>2022-08-21T09:26:53Z</time>
      </trkpt>
      <trkpt lat="43.99625" lon="6.50212">
        <ele>960.59997558594</ele>
        <time>2022-08-21T09:26:56Z</time>
      </trkpt>
      <trkpt lat="43.99613" lon="6.50218">
        <ele>960.20001220703</ele>
        <time>2022-08-21T09:26:59Z</time>
      </trkpt>
      <trkpt lat="43.996" lon="6.50226">
        <ele>960.20001220703</ele>
        <time>2022-08-21T09:27:02Z</time>
      </trkpt>
      <trkpt lat="43.99591" lon="6.50232">
        <ele>960.59997558594</ele>
        <time>2022-08-21T09:27:04Z</time>
      </trkpt>
      <trkpt lat="43.99587" lon="6.50235">
        <ele>960.79998779297</ele>
        <time>2022-08-21T09:27:05Z</time>
      </trkpt>
      <trkpt lat="43.99572" lon="6.50244">
        <ele>960.79998779297</ele>
        <time>2022-08-21T09:27:08Z</time>
      </trkpt>
      <trkpt lat="43.99561" lon="6.50251">
        <ele>960.59997558594</ele>
        <time>2022-08-21T09:27:10Z</time>
      </trkpt>
      <trkpt lat="43.99538" lon="6.50263">
        <ele>960.40002441406</ele>
        <time>2022-08-21T09:27:14Z</time>
      </trkpt>
      <trkpt lat="43.99526" lon="6.50271">
        <ele>960.20001220703</ele>
        <time>2022-08-21T09:27:16Z</time>
      </trkpt>
      <trkpt lat="43.99509" lon="6.50282">
        <ele>959.79998779297</ele>
        <time>2022-08-21T09:27:19Z</time>
      </trkpt>
      <trkpt lat="43.99491" lon="6.50289">
        <ele>959.79998779297</ele>
        <time>2022-08-21T09:27:22Z</time>
      </trkpt>
      <trkpt lat="43.99486" lon="6.50287">
        <ele>959.79998779297</ele>
        <time>2022-08-21T09:27:23Z</time>
      </trkpt>
      <trkpt lat="43.99481" lon="6.50283">
        <ele>960</ele>
        <time>2022-08-21T09:27:24Z</time>
      </trkpt>
      <trkpt lat="43.99468" lon="6.50268">
        <ele>960.79998779297</ele>
        <time>2022-08-21T09:27:27Z</time>
      </trkpt>
      <trkpt lat="43.99463" lon="6.50264">
        <ele>961</ele>
        <time>2022-08-21T09:27:28Z</time>
      </trkpt>
      <trkpt lat="43.99454" lon="6.50259">
        <ele>961</ele>
        <time>2022-08-21T09:27:30Z</time>
      </trkpt>
      <trkpt lat="43.99448" lon="6.5026">
        <ele>961</ele>
        <time>2022-08-21T09:27:31Z</time>
      </trkpt>
      <trkpt lat="43.99443" lon="6.50261">
        <ele>960.59997558594</ele>
        <time>2022-08-21T09:27:32Z</time>
      </trkpt>
      <trkpt lat="43.99432" lon="6.50267">
        <ele>960.40002441406</ele>
        <time>2022-08-21T09:27:34Z</time>
      </trkpt>
      <trkpt lat="43.99426" lon="6.50271">
        <ele>960.20001220703</ele>
        <time>2022-08-21T09:27:35Z</time>
      </trkpt>
      <trkpt lat="43.99416" lon="6.50279">
        <ele>960.20001220703</ele>
        <time>2022-08-21T09:27:37Z</time>
      </trkpt>
      <trkpt lat="43.99407" lon="6.50285">
        <ele>960</ele>
        <time>2022-08-21T09:27:39Z</time>
      </trkpt>
      <trkpt lat="43.99391" lon="6.50297">
        <ele>959.40002441406</ele>
        <time>2022-08-21T09:27:43Z</time>
      </trkpt>
      <trkpt lat="43.99387" lon="6.503">
        <ele>959.40002441406</ele>
        <time>2022-08-21T09:27:44Z</time>
      </trkpt>
      <trkpt lat="43.99372" lon="6.50308">
        <ele>959.59997558594</ele>
        <time>2022-08-21T09:27:47Z</time>
      </trkpt>
      <trkpt lat="43.99367" lon="6.5031">
        <ele>959.59997558594</ele>
        <time>2022-08-21T09:27:48Z</time>
      </trkpt>
      <trkpt lat="43.99357" lon="6.50313">
        <ele>959.79998779297</ele>
        <time>2022-08-21T09:27:50Z</time>
      </trkpt>
      <trkpt lat="43.99342" lon="6.50315">
        <ele>959.59997558594</ele>
        <time>2022-08-21T09:27:53Z</time>
      </trkpt>
      <trkpt lat="43.99307" lon="6.50306">
        <ele>959</ele>
        <time>2022-08-21T09:27:59Z</time>
      </trkpt>
      <trkpt lat="43.99291" lon="6.50304">
        <ele>959.40002441406</ele>
        <time>2022-08-21T09:28:02Z</time>
      </trkpt>
      <trkpt lat="43.9927" lon="6.50297">
        <ele>960</ele>
        <time>2022-08-21T09:28:06Z</time>
      </trkpt>
      <trkpt lat="43.9925" lon="6.50295">
        <ele>960.79998779297</ele>
        <time>2022-08-21T09:28:10Z</time>
      </trkpt>
      <trkpt lat="43.9924" lon="6.50297">
        <ele>960.79998779297</ele>
        <time>2022-08-21T09:28:12Z</time>
      </trkpt>
      <trkpt lat="43.9921" lon="6.50309">
        <ele>960.40002441406</ele>
        <time>2022-08-21T09:28:18Z</time>
      </trkpt>
      <trkpt lat="43.99184" lon="6.5032">
        <ele>960</ele>
        <time>2022-08-21T09:28:23Z</time>
      </trkpt>
      <trkpt lat="43.9918" lon="6.50323">
        <ele>959.79998779297</ele>
        <time>2022-08-21T09:28:24Z</time>
      </trkpt>
      <trkpt lat="43.99153" lon="6.50336">
        <ele>959.59997558594</ele>
        <time>2022-08-21T09:28:30Z</time>
      </trkpt>
      <trkpt lat="43.99148" lon="6.50337">
        <ele>959.40002441406</ele>
        <time>2022-08-21T09:28:31Z</time>
      </trkpt>
      <trkpt lat="43.99142" lon="6.50338">
        <ele>959.40002441406</ele>
        <time>2022-08-21T09:28:32Z</time>
      </trkpt>
      <trkpt lat="43.99101" lon="6.50346">
        <ele>959</ele>
        <time>2022-08-21T09:28:40Z</time>
      </trkpt>
      <trkpt lat="43.99095" lon="6.50345">
        <ele>959.20001220703</ele>
        <time>2022-08-21T09:28:41Z</time>
      </trkpt>
      <trkpt lat="43.9908" lon="6.50346">
        <ele>959.40002441406</ele>
        <time>2022-08-21T09:28:44Z</time>
      </trkpt>
      <trkpt lat="43.99064" lon="6.50351">
        <ele>959.59997558594</ele>
        <time>2022-08-21T09:28:47Z</time>
      </trkpt>
      <trkpt lat="43.9906" lon="6.50354">
        <ele>959.79998779297</ele>
        <time>2022-08-21T09:28:48Z</time>
      </trkpt>
      <trkpt lat="43.99051" lon="6.50361">
        <ele>959.79998779297</ele>
        <time>2022-08-21T09:28:50Z</time>
      </trkpt>
      <trkpt lat="43.99037" lon="6.50373">
        <ele>959.79998779297</ele>
        <time>2022-08-21T09:28:53Z</time>
      </trkpt>
      <trkpt lat="43.9901" lon="6.50409">
        <ele>959.40002441406</ele>
        <time>2022-08-21T09:29:00Z</time>
      </trkpt>
      <trkpt lat="43.99004" lon="6.50423">
        <ele>959.20001220703</ele>
        <time>2022-08-21T09:29:02Z</time>
      </trkpt>
      <trkpt lat="43.99002" lon="6.50431">
        <ele>959</ele>
        <time>2022-08-21T09:29:03Z</time>
      </trkpt>
      <trkpt lat="43.98999" lon="6.50438">
        <ele>958.79998779297</ele>
        <time>2022-08-21T09:29:04Z</time>
      </trkpt>
      <trkpt lat="43.98994" lon="6.50452">
        <ele>958.79998779297</ele>
        <time>2022-08-21T09:29:06Z</time>
      </trkpt>
      <trkpt lat="43.98987" lon="6.50474">
        <ele>957.59997558594</ele>
        <time>2022-08-21T09:29:09Z</time>
      </trkpt>
      <trkpt lat="43.98983" lon="6.50488">
        <ele>956.79998779297</ele>
        <time>2022-08-21T09:29:11Z</time>
      </trkpt>
      <trkpt lat="43.98977" lon="6.50499">
        <ele>956.20001220703</ele>
        <time>2022-08-21T09:29:13Z</time>
      </trkpt>
      <trkpt lat="43.98969" lon="6.50509">
        <ele>955.59997558594</ele>
        <time>2022-08-21T09:29:15Z</time>
      </trkpt>
      <trkpt lat="43.9896" lon="6.50516">
        <ele>955</ele>
        <time>2022-08-21T09:29:17Z</time>
      </trkpt>
      <trkpt lat="43.98955" lon="6.50518">
        <ele>954.59997558594</ele>
        <time>2022-08-21T09:29:18Z</time>
      </trkpt>
      <trkpt lat="43.98949" lon="6.50518">
        <ele>954.40002441406</ele>
        <time>2022-08-21T09:29:19Z</time>
      </trkpt>
      <trkpt lat="43.98939" lon="6.50516">
        <ele>953.79998779297</ele>
        <time>2022-08-21T09:29:21Z</time>
      </trkpt>
      <trkpt lat="43.98933" lon="6.50514">
        <ele>953.59997558594</ele>
        <time>2022-08-21T09:29:22Z</time>
      </trkpt>
      <trkpt lat="43.98924" lon="6.50509">
        <ele>953.59997558594</ele>
        <time>2022-08-21T09:29:24Z</time>
      </trkpt>
      <trkpt lat="43.98909" lon="6.50501">
        <ele>953.59997558594</ele>
        <time>2022-08-21T09:29:27Z</time>
      </trkpt>
      <trkpt lat="43.98904" lon="6.505">
        <ele>953.59997558594</ele>
        <time>2022-08-21T09:29:28Z</time>
      </trkpt>
      <trkpt lat="43.98872" lon="6.50489">
        <ele>952.59997558594</ele>
        <time>2022-08-21T09:29:34Z</time>
      </trkpt>
      <trkpt lat="43.98867" lon="6.50488">
        <ele>952.40002441406</ele>
        <time>2022-08-21T09:29:35Z</time>
      </trkpt>
      <trkpt lat="43.98839" lon="6.50477">
        <ele>951.59997558594</ele>
        <time>2022-08-21T09:29:40Z</time>
      </trkpt>
      <trkpt lat="43.9882" lon="6.50471">
        <ele>951.59997558594</ele>
        <time>2022-08-21T09:29:43Z</time>
      </trkpt>
      <trkpt lat="43.98802" lon="6.50467">
        <ele>951</ele>
        <time>2022-08-21T09:29:46Z</time>
      </trkpt>
      <trkpt lat="43.98776" lon="6.50461">
        <ele>950.59997558594</ele>
        <time>2022-08-21T09:29:50Z</time>
      </trkpt>
      <trkpt lat="43.9877" lon="6.50459">
        <ele>950.40002441406</ele>
        <time>2022-08-21T09:29:51Z</time>
      </trkpt>
      <trkpt lat="43.9875" lon="6.50454">
        <ele>950.20001220703</ele>
        <time>2022-08-21T09:29:54Z</time>
      </trkpt>
      <trkpt lat="43.9873" lon="6.50455">
        <ele>949.79998779297</ele>
        <time>2022-08-21T09:29:57Z</time>
      </trkpt>
      <trkpt lat="43.98717" lon="6.50458">
        <ele>949.40002441406</ele>
        <time>2022-08-21T09:29:59Z</time>
      </trkpt>
      <trkpt lat="43.98697" lon="6.50467">
        <ele>948.20001220703</ele>
        <time>2022-08-21T09:30:02Z</time>
      </trkpt>
      <trkpt lat="43.98691" lon="6.50472">
        <ele>947.79998779297</ele>
        <time>2022-08-21T09:30:03Z</time>
      </trkpt>
      <trkpt lat="43.98673" lon="6.50484">
        <ele>947.20001220703</ele>
        <time>2022-08-21T09:30:06Z</time>
      </trkpt>
      <trkpt lat="43.98652" lon="6.50501">
        <ele>947.20001220703</ele>
        <time>2022-08-21T09:30:10Z</time>
      </trkpt>
      <trkpt lat="43.98642" lon="6.5051">
        <ele>947</ele>
        <time>2022-08-21T09:30:12Z</time>
      </trkpt>
      <trkpt lat="43.98632" lon="6.50518">
        <ele>946.79998779297</ele>
        <time>2022-08-21T09:30:14Z</time>
      </trkpt>
      <trkpt lat="43.98622" lon="6.50528">
        <ele>946.59997558594</ele>
        <time>2022-08-21T09:30:16Z</time>
      </trkpt>
      <trkpt lat="43.98591" lon="6.50553">
        <ele>946.20001220703</ele>
        <time>2022-08-21T09:30:22Z</time>
      </trkpt>
      <trkpt lat="43.98586" lon="6.50558">
        <ele>946.20001220703</ele>
        <time>2022-08-21T09:30:23Z</time>
      </trkpt>
      <trkpt lat="43.98575" lon="6.50568">
        <ele>946</ele>
        <time>2022-08-21T09:30:25Z</time>
      </trkpt>
      <trkpt lat="43.9857" lon="6.50572">
        <ele>946</ele>
        <time>2022-08-21T09:30:26Z</time>
      </trkpt>
      <trkpt lat="43.98553" lon="6.50582">
        <ele>945.79998779297</ele>
        <time>2022-08-21T09:30:29Z</time>
      </trkpt>
      <trkpt lat="43.98542" lon="6.50587">
        <ele>945.59997558594</ele>
        <time>2022-08-21T09:30:31Z</time>
      </trkpt>
      <trkpt lat="43.98536" lon="6.5059">
        <ele>945.40002441406</ele>
        <time>2022-08-21T09:30:32Z</time>
      </trkpt>
      <trkpt lat="43.98513" lon="6.50597">
        <ele>944.79998779297</ele>
        <time>2022-08-21T09:30:36Z</time>
      </trkpt>
      <trkpt lat="43.98503" lon="6.506">
        <ele>944.79998779297</ele>
        <time>2022-08-21T09:30:38Z</time>
      </trkpt>
      <trkpt lat="43.98493" lon="6.50606">
        <ele>944.59997558594</ele>
        <time>2022-08-21T09:30:40Z</time>
      </trkpt>
      <trkpt lat="43.9848" lon="6.50617">
        <ele>944.79998779297</ele>
        <time>2022-08-21T09:30:43Z</time>
      </trkpt>
      <trkpt lat="43.98476" lon="6.50621">
        <ele>944.79998779297</ele>
        <time>2022-08-21T09:30:44Z</time>
      </trkpt>
      <trkpt lat="43.98467" lon="6.50628">
        <ele>945</ele>
        <time>2022-08-21T09:30:46Z</time>
      </trkpt>
      <trkpt lat="43.98452" lon="6.50638">
        <ele>945</ele>
        <time>2022-08-21T09:30:49Z</time>
      </trkpt>
      <trkpt lat="43.98446" lon="6.5064">
        <ele>944.79998779297</ele>
        <time>2022-08-21T09:30:50Z</time>
      </trkpt>
      <trkpt lat="43.98433" lon="6.50642">
        <ele>944.59997558594</ele>
        <time>2022-08-21T09:30:52Z</time>
      </trkpt>
      <trkpt lat="43.9842" lon="6.50645">
        <ele>944.20001220703</ele>
        <time>2022-08-21T09:30:54Z</time>
      </trkpt>
      <trkpt lat="43.98414" lon="6.50646">
        <ele>944</ele>
        <time>2022-08-21T09:30:55Z</time>
      </trkpt>
      <trkpt lat="43.98396" lon="6.50649">
        <ele>944</ele>
        <time>2022-08-21T09:30:58Z</time>
      </trkpt>
      <trkpt lat="43.98385" lon="6.50651">
        <ele>944.20001220703</ele>
        <time>2022-08-21T09:31:00Z</time>
      </trkpt>
      <trkpt lat="43.98373" lon="6.50653">
        <ele>944.20001220703</ele>
        <time>2022-08-21T09:31:02Z</time>
      </trkpt>
      <trkpt lat="43.98347" lon="6.50657">
        <ele>944</ele>
        <time>2022-08-21T09:31:06Z</time>
      </trkpt>
      <trkpt lat="43.98341" lon="6.50657">
        <ele>943.79998779297</ele>
        <time>2022-08-21T09:31:07Z</time>
      </trkpt>
      <trkpt lat="43.98321" lon="6.50661">
        <ele>943.40002441406</ele>
        <time>2022-08-21T09:31:10Z</time>
      </trkpt>
      <trkpt lat="43.98295" lon="6.50672">
        <ele>942.59997558594</ele>
        <time>2022-08-21T09:31:14Z</time>
      </trkpt>
      <trkpt lat="43.98276" lon="6.50681">
        <ele>941.79998779297</ele>
        <time>2022-08-21T09:31:17Z</time>
      </trkpt>
      <trkpt lat="43.9827" lon="6.50685">
        <ele>941.20001220703</ele>
        <time>2022-08-21T09:31:18Z</time>
      </trkpt>
      <trkpt lat="43.9824" lon="6.50701">
        <ele>940</ele>
        <time>2022-08-21T09:31:23Z</time>
      </trkpt>
      <trkpt lat="43.98227" lon="6.50708">
        <ele>939.79998779297</ele>
        <time>2022-08-21T09:31:25Z</time>
      </trkpt>
      <trkpt lat="43.98199" lon="6.50725">
        <ele>939.59997558594</ele>
        <time>2022-08-21T09:31:30Z</time>
      </trkpt>
      <trkpt lat="43.98195" lon="6.5073">
        <ele>939.40002441406</ele>
        <time>2022-08-21T09:31:31Z</time>
      </trkpt>
      <trkpt lat="43.98184" lon="6.5074">
        <ele>939</ele>
        <time>2022-08-21T09:31:33Z</time>
      </trkpt>
      <trkpt lat="43.98179" lon="6.50745">
        <ele>938.79998779297</ele>
        <time>2022-08-21T09:31:34Z</time>
      </trkpt>
      <trkpt lat="43.98172" lon="6.50748">
        <ele>938.59997558594</ele>
        <time>2022-08-21T09:31:35Z</time>
      </trkpt>
      <trkpt lat="43.98166" lon="6.50748">
        <ele>938.40002441406</ele>
        <time>2022-08-21T09:31:36Z</time>
      </trkpt>
      <trkpt lat="43.98159" lon="6.50747">
        <ele>938</ele>
        <time>2022-08-21T09:31:37Z</time>
      </trkpt>
      <trkpt lat="43.98152" lon="6.50744">
        <ele>937.79998779297</ele>
        <time>2022-08-21T09:31:38Z</time>
      </trkpt>
      <trkpt lat="43.98145" lon="6.50741">
        <ele>937.59997558594</ele>
        <time>2022-08-21T09:31:39Z</time>
      </trkpt>
      <trkpt lat="43.98132" lon="6.50734">
        <ele>937.40002441406</ele>
        <time>2022-08-21T09:31:41Z</time>
      </trkpt>
      <trkpt lat="43.9812" lon="6.50726">
        <ele>937.20001220703</ele>
        <time>2022-08-21T09:31:43Z</time>
      </trkpt>
      <trkpt lat="43.98113" lon="6.50724">
        <ele>937.20001220703</ele>
        <time>2022-08-21T09:31:44Z</time>
      </trkpt>
      <trkpt lat="43.98106" lon="6.50722">
        <ele>937</ele>
        <time>2022-08-21T09:31:45Z</time>
      </trkpt>
      <trkpt lat="43.98099" lon="6.50722">
        <ele>936.79998779297</ele>
        <time>2022-08-21T09:31:46Z</time>
      </trkpt>
      <trkpt lat="43.98085" lon="6.50725">
        <ele>936.59997558594</ele>
        <time>2022-08-21T09:31:48Z</time>
      </trkpt>
      <trkpt lat="43.98078" lon="6.50727">
        <ele>936.59997558594</ele>
        <time>2022-08-21T09:31:49Z</time>
      </trkpt>
      <trkpt lat="43.98059" lon="6.50738">
        <ele>936.40002441406</ele>
        <time>2022-08-21T09:31:52Z</time>
      </trkpt>
      <trkpt lat="43.98045" lon="6.50745">
        <ele>936.59997558594</ele>
        <time>2022-08-21T09:31:54Z</time>
      </trkpt>
      <trkpt lat="43.98032" lon="6.50749">
        <ele>936.40002441406</ele>
        <time>2022-08-21T09:31:56Z</time>
      </trkpt>
      <trkpt lat="43.98005" lon="6.50763">
        <ele>935.79998779297</ele>
        <time>2022-08-21T09:32:00Z</time>
      </trkpt>
      <trkpt lat="43.97985" lon="6.50774">
        <ele>935</ele>
        <time>2022-08-21T09:32:03Z</time>
      </trkpt>
      <trkpt lat="43.97965" lon="6.50781">
        <ele>934.79998779297</ele>
        <time>2022-08-21T09:32:06Z</time>
      </trkpt>
      <trkpt lat="43.97951" lon="6.50783">
        <ele>934.79998779297</ele>
        <time>2022-08-21T09:32:08Z</time>
      </trkpt>
      <trkpt lat="43.97912" lon="6.50786">
        <ele>935</ele>
        <time>2022-08-21T09:32:14Z</time>
      </trkpt>
      <trkpt lat="43.97882" lon="6.50795">
        <ele>935</ele>
        <time>2022-08-21T09:32:19Z</time>
      </trkpt>
      <trkpt lat="43.97877" lon="6.50798">
        <ele>935.20001220703</ele>
        <time>2022-08-21T09:32:20Z</time>
      </trkpt>
      <trkpt lat="43.97852" lon="6.50819">
        <ele>935</ele>
        <time>2022-08-21T09:32:25Z</time>
      </trkpt>
      <trkpt lat="43.97847" lon="6.50822">
        <ele>935</ele>
        <time>2022-08-21T09:32:26Z</time>
      </trkpt>
      <trkpt lat="43.97842" lon="6.50825">
        <ele>934.79998779297</ele>
        <time>2022-08-21T09:32:27Z</time>
      </trkpt>
      <trkpt lat="43.97836" lon="6.50827">
        <ele>934.79998779297</ele>
        <time>2022-08-21T09:32:28Z</time>
      </trkpt>
      <trkpt lat="43.97831" lon="6.50829">
        <ele>934.59997558594</ele>
        <time>2022-08-21T09:32:29Z</time>
      </trkpt>
      <trkpt lat="43.97821" lon="6.50832">
        <ele>934.59997558594</ele>
        <time>2022-08-21T09:32:31Z</time>
      </trkpt>
      <trkpt lat="43.9781" lon="6.50832">
        <ele>934.59997558594</ele>
        <time>2022-08-21T09:32:33Z</time>
      </trkpt>
      <trkpt lat="43.97795" lon="6.50834">
        <ele>934.59997558594</ele>
        <time>2022-08-21T09:32:36Z</time>
      </trkpt>
      <trkpt lat="43.97789" lon="6.50835">
        <ele>934.59997558594</ele>
        <time>2022-08-21T09:32:37Z</time>
      </trkpt>
      <trkpt lat="43.97762" lon="6.50842">
        <ele>933.40002441406</ele>
        <time>2022-08-21T09:32:42Z</time>
      </trkpt>
      <trkpt lat="43.97751" lon="6.50848">
        <ele>932.79998779297</ele>
        <time>2022-08-21T09:32:44Z</time>
      </trkpt>
      <trkpt lat="43.97737" lon="6.50853">
        <ele>932.40002441406</ele>
        <time>2022-08-21T09:32:46Z</time>
      </trkpt>
      <trkpt lat="43.97708" lon="6.50867">
        <ele>931.59997558594</ele>
        <time>2022-08-21T09:32:50Z</time>
      </trkpt>
      <trkpt lat="43.977" lon="6.50869">
        <ele>931.40002441406</ele>
        <time>2022-08-21T09:32:51Z</time>
      </trkpt>
      <trkpt lat="43.97674" lon="6.50882">
        <ele>931.20001220703</ele>
        <time>2022-08-21T09:32:55Z</time>
      </trkpt>
      <trkpt lat="43.97668" lon="6.50885">
        <ele>931.40002441406</ele>
        <time>2022-08-21T09:32:56Z</time>
      </trkpt>
      <trkpt lat="43.97646" lon="6.50901">
        <ele>931.59997558594</ele>
        <time>2022-08-21T09:33:00Z</time>
      </trkpt>
      <trkpt lat="43.9764" lon="6.50904">
        <ele>931.59997558594</ele>
        <time>2022-08-21T09:33:01Z</time>
      </trkpt>
      <trkpt lat="43.97611" lon="6.50919">
        <ele>931.79998779297</ele>
        <time>2022-08-21T09:33:06Z</time>
      </trkpt>
      <trkpt lat="43.97605" lon="6.50921">
        <ele>932.20001220703</ele>
        <time>2022-08-21T09:33:07Z</time>
      </trkpt>
      <trkpt lat="43.97599" lon="6.50922">
        <ele>932.40002441406</ele>
        <time>2022-08-21T09:33:08Z</time>
      </trkpt>
      <trkpt lat="43.97586" lon="6.50922">
        <ele>932.59997558594</ele>
        <time>2022-08-21T09:33:10Z</time>
      </trkpt>
      <trkpt lat="43.97568" lon="6.50918">
        <ele>932.59997558594</ele>
        <time>2022-08-21T09:33:13Z</time>
      </trkpt>
      <trkpt lat="43.97539" lon="6.50904">
        <ele>932.40002441406</ele>
        <time>2022-08-21T09:33:18Z</time>
      </trkpt>
      <trkpt lat="43.97534" lon="6.50901">
        <ele>932.40002441406</ele>
        <time>2022-08-21T09:33:19Z</time>
      </trkpt>
      <trkpt lat="43.97502" lon="6.50884">
        <ele>932</ele>
        <time>2022-08-21T09:33:25Z</time>
      </trkpt>
      <trkpt lat="43.9749" lon="6.5088">
        <ele>932</ele>
        <time>2022-08-21T09:33:27Z</time>
      </trkpt>
      <trkpt lat="43.97444" lon="6.50863">
        <ele>931.79998779297</ele>
        <time>2022-08-21T09:33:35Z</time>
      </trkpt>
      <trkpt lat="43.97407" lon="6.50852">
        <ele>932.20001220703</ele>
        <time>2022-08-21T09:33:42Z</time>
      </trkpt>
      <trkpt lat="43.97395" lon="6.50851">
        <ele>932</ele>
        <time>2022-08-21T09:33:44Z</time>
      </trkpt>
      <trkpt lat="43.97378" lon="6.50854">
        <ele>931.59997558594</ele>
        <time>2022-08-21T09:33:47Z</time>
      </trkpt>
      <trkpt lat="43.97366" lon="6.50859">
        <ele>931.40002441406</ele>
        <time>2022-08-21T09:33:49Z</time>
      </trkpt>
      <trkpt lat="43.97355" lon="6.50867">
        <ele>931.40002441406</ele>
        <time>2022-08-21T09:33:51Z</time>
      </trkpt>
      <trkpt lat="43.97349" lon="6.50872">
        <ele>931.20001220703</ele>
        <time>2022-08-21T09:33:52Z</time>
      </trkpt>
      <trkpt lat="43.97344" lon="6.50877">
        <ele>931</ele>
        <time>2022-08-21T09:33:53Z</time>
      </trkpt>
      <trkpt lat="43.97337" lon="6.50891">
        <ele>930.79998779297</ele>
        <time>2022-08-21T09:33:55Z</time>
      </trkpt>
      <trkpt lat="43.97336" lon="6.509">
        <ele>930.59997558594</ele>
        <time>2022-08-21T09:33:56Z</time>
      </trkpt>
      <trkpt lat="43.97332" lon="6.50924">
        <ele>930.20001220703</ele>
        <time>2022-08-21T09:33:59Z</time>
      </trkpt>
      <trkpt lat="43.97329" lon="6.50932">
        <ele>930</ele>
        <time>2022-08-21T09:34:00Z</time>
      </trkpt>
      <trkpt lat="43.9732" lon="6.50944">
        <ele>929.59997558594</ele>
        <time>2022-08-21T09:34:02Z</time>
      </trkpt>
      <trkpt lat="43.97306" lon="6.50946">
        <ele>929.40002441406</ele>
        <time>2022-08-21T09:34:04Z</time>
      </trkpt>
      <trkpt lat="43.973" lon="6.50942">
        <ele>929</ele>
        <time>2022-08-21T09:34:05Z</time>
      </trkpt>
      <trkpt lat="43.97294" lon="6.50937">
        <ele>928.79998779297</ele>
        <time>2022-08-21T09:34:06Z</time>
      </trkpt>
      <trkpt lat="43.97288" lon="6.50929">
        <ele>928.40002441406</ele>
        <time>2022-08-21T09:34:07Z</time>
      </trkpt>
      <trkpt lat="43.97282" lon="6.50922">
        <ele>927.79998779297</ele>
        <time>2022-08-21T09:34:08Z</time>
      </trkpt>
      <trkpt lat="43.9727" lon="6.50915">
        <ele>926.40002441406</ele>
        <time>2022-08-21T09:34:10Z</time>
      </trkpt>
      <trkpt lat="43.97264" lon="6.50914">
        <ele>925.79998779297</ele>
        <time>2022-08-21T09:34:11Z</time>
      </trkpt>
      <trkpt lat="43.97257" lon="6.50915">
        <ele>925.40002441406</ele>
        <time>2022-08-21T09:34:12Z</time>
      </trkpt>
      <trkpt lat="43.97251" lon="6.50917">
        <ele>925.20001220703</ele>
        <time>2022-08-21T09:34:13Z</time>
      </trkpt>
      <trkpt lat="43.97246" lon="6.50921">
        <ele>925.20001220703</ele>
        <time>2022-08-21T09:34:14Z</time>
      </trkpt>
      <trkpt lat="43.97241" lon="6.50924">
        <ele>925.20001220703</ele>
        <time>2022-08-21T09:34:15Z</time>
      </trkpt>
      <trkpt lat="43.97235" lon="6.50928">
        <ele>925.20001220703</ele>
        <time>2022-08-21T09:34:16Z</time>
      </trkpt>
      <trkpt lat="43.97215" lon="6.50944">
        <ele>924.59997558594</ele>
        <time>2022-08-21T09:34:20Z</time>
      </trkpt>
      <trkpt lat="43.97204" lon="6.50954">
        <ele>924</ele>
        <time>2022-08-21T09:34:22Z</time>
      </trkpt>
      <trkpt lat="43.972" lon="6.5096">
        <ele>923.59997558594</ele>
        <time>2022-08-21T09:34:23Z</time>
      </trkpt>
      <trkpt lat="43.9719" lon="6.50973">
        <ele>923</ele>
        <time>2022-08-21T09:34:25Z</time>
      </trkpt>
      <trkpt lat="43.97186" lon="6.5098">
        <ele>922.79998779297</ele>
        <time>2022-08-21T09:34:26Z</time>
      </trkpt>
      <trkpt lat="43.97165" lon="6.51016">
        <ele>922.20001220703</ele>
        <time>2022-08-21T09:34:31Z</time>
      </trkpt>
      <trkpt lat="43.97156" lon="6.51031">
        <ele>922</ele>
        <time>2022-08-21T09:34:33Z</time>
      </trkpt>
      <trkpt lat="43.97151" lon="6.51038">
        <ele>922</ele>
        <time>2022-08-21T09:34:34Z</time>
      </trkpt>
      <trkpt lat="43.9714" lon="6.51051">
        <ele>921.40002441406</ele>
        <time>2022-08-21T09:34:36Z</time>
      </trkpt>
      <trkpt lat="43.97128" lon="6.51059">
        <ele>920.79998779297</ele>
        <time>2022-08-21T09:34:38Z</time>
      </trkpt>
      <trkpt lat="43.97102" lon="6.51066">
        <ele>919.79998779297</ele>
        <time>2022-08-21T09:34:42Z</time>
      </trkpt>
      <trkpt lat="43.97097" lon="6.51068">
        <ele>919.59997558594</ele>
        <time>2022-08-21T09:34:43Z</time>
      </trkpt>
      <trkpt lat="43.97073" lon="6.51071">
        <ele>918.59997558594</ele>
        <time>2022-08-21T09:34:47Z</time>
      </trkpt>
      <trkpt lat="43.97067" lon="6.51074">
        <ele>918.20001220703</ele>
        <time>2022-08-21T09:34:48Z</time>
      </trkpt>
      <trkpt lat="43.9705" lon="6.51079">
        <ele>918.20001220703</ele>
        <time>2022-08-21T09:34:52Z</time>
      </trkpt>
      <trkpt lat="43.97046" lon="6.5108">
        <ele>918.40002441406</ele>
        <time>2022-08-21T09:34:53Z</time>
      </trkpt>
      <trkpt lat="43.97034" lon="6.51082">
        <ele>918.59997558594</ele>
        <time>2022-08-21T09:34:56Z</time>
      </trkpt>
      <trkpt lat="43.97026" lon="6.51084">
        <ele>918.40002441406</ele>
        <time>2022-08-21T09:34:58Z</time>
      </trkpt>
      <trkpt lat="43.97013" lon="6.51086">
        <ele>917.40002441406</ele>
        <time>2022-08-21T09:35:01Z</time>
      </trkpt>
      <trkpt lat="43.96991" lon="6.51088">
        <ele>917.40002441406</ele>
        <time>2022-08-21T09:35:06Z</time>
      </trkpt>
      <trkpt lat="43.96987" lon="6.51088">
        <ele>917.20001220703</ele>
        <time>2022-08-21T09:35:07Z</time>
      </trkpt>
      <trkpt lat="43.96972" lon="6.51087">
        <ele>916.59997558594</ele>
        <time>2022-08-21T09:35:10Z</time>
      </trkpt>
      <trkpt lat="43.96968" lon="6.51086">
        <ele>916.40002441406</ele>
        <time>2022-08-21T09:35:11Z</time>
      </trkpt>
      <trkpt lat="43.96964" lon="6.51084">
        <ele>916.40002441406</ele>
        <time>2022-08-21T09:35:12Z</time>
      </trkpt>
      <trkpt lat="43.96956" lon="6.51082">
        <ele>916.59997558594</ele>
        <time>2022-08-21T09:35:14Z</time>
      </trkpt>
      <trkpt lat="43.96936" lon="6.51068">
        <ele>916.79998779297</ele>
        <time>2022-08-21T09:35:19Z</time>
      </trkpt>
      <trkpt lat="43.9692" lon="6.51053">
        <ele>916.59997558594</ele>
        <time>2022-08-21T09:35:23Z</time>
      </trkpt>
      <trkpt lat="43.96912" lon="6.51045">
        <ele>916.40002441406</ele>
        <time>2022-08-21T09:35:25Z</time>
      </trkpt>
      <trkpt lat="43.96896" lon="6.51027">
        <ele>916</ele>
        <time>2022-08-21T09:35:29Z</time>
      </trkpt>
      <trkpt lat="43.96882" lon="6.51009">
        <ele>915.79998779297</ele>
        <time>2022-08-21T09:35:33Z</time>
      </trkpt>
      <trkpt lat="43.96878" lon="6.51005">
        <ele>915.79998779297</ele>
        <time>2022-08-21T09:35:34Z</time>
      </trkpt>
      <trkpt lat="43.96874" lon="6.51002">
        <ele>916</ele>
        <time>2022-08-21T09:35:35Z</time>
      </trkpt>
      <trkpt lat="43.96858" lon="6.50987">
        <ele>915.40002441406</ele>
        <time>2022-08-21T09:35:39Z</time>
      </trkpt>
      <trkpt lat="43.96855" lon="6.50983">
        <ele>915.20001220703</ele>
        <time>2022-08-21T09:35:40Z</time>
      </trkpt>
      <trkpt lat="43.96851" lon="6.50978">
        <ele>915.20001220703</ele>
        <time>2022-08-21T09:35:41Z</time>
      </trkpt>
      <trkpt lat="43.96844" lon="6.5097">
        <ele>915</ele>
        <time>2022-08-21T09:35:43Z</time>
      </trkpt>
      <trkpt lat="43.96836" lon="6.50964">
        <ele>915</ele>
        <time>2022-08-21T09:35:45Z</time>
      </trkpt>
      <trkpt lat="43.96823" lon="6.50955">
        <ele>915</ele>
        <time>2022-08-21T09:35:48Z</time>
      </trkpt>
      <trkpt lat="43.96812" lon="6.50951">
        <ele>915</ele>
        <time>2022-08-21T09:35:51Z</time>
      </trkpt>
      <trkpt lat="43.96807" lon="6.50948">
        <ele>915</ele>
        <time>2022-08-21T09:35:53Z</time>
      </trkpt>
      <trkpt lat="43.96806" lon="6.50946">
        <ele>915</ele>
        <time>2022-08-21T09:35:54Z</time>
      </trkpt>
      <trkpt lat="43.96804" lon="6.50944">
        <ele>915</ele>
        <time>2022-08-21T09:35:55Z</time>
      </trkpt>
      <trkpt lat="43.96802" lon="6.50944">
        <ele>915</ele>
        <time>2022-08-21T09:35:56Z</time>
      </trkpt>
      <trkpt lat="43.96798" lon="6.50943">
        <ele>915</ele>
        <time>2022-08-21T09:35:58Z</time>
      </trkpt>
      <trkpt lat="43.96793" lon="6.50941">
        <ele>914.79998779297</ele>
        <time>2022-08-21T09:36:01Z</time>
      </trkpt>
      <trkpt lat="43.96792" lon="6.50941">
        <ele>914.79998779297</ele>
        <time>2022-08-21T09:36:02Z</time>
      </trkpt>
      <trkpt lat="43.96788" lon="6.50941">
        <ele>914.79998779297</ele>
        <time>2022-08-21T09:36:04Z</time>
      </trkpt>
      <trkpt lat="43.96784" lon="6.50939">
        <ele>914.59997558594</ele>
        <time>2022-08-21T09:36:07Z</time>
      </trkpt>
      <trkpt lat="43.96781" lon="6.50936">
        <ele>914.59997558594</ele>
        <time>2022-08-21T09:36:09Z</time>
      </trkpt>
      <trkpt lat="43.96778" lon="6.50934">
        <ele>914.40002441406</ele>
        <time>2022-08-21T09:36:12Z</time>
      </trkpt>
      <trkpt lat="43.96777" lon="6.5093">
        <ele>914.20001220703</ele>
        <time>2022-08-21T09:36:14Z</time>
      </trkpt>
      <trkpt lat="43.96777" lon="6.50929">
        <ele>914.20001220703</ele>
        <time>2022-08-21T09:36:15Z</time>
      </trkpt>
      <trkpt lat="43.96776" lon="6.50929">
        <ele>914.20001220703</ele>
        <time>2022-08-21T09:36:19Z</time>
      </trkpt>
      <trkpt lat="43.96776" lon="6.50925">
        <ele>914.20001220703</ele>
        <time>2022-08-21T09:36:26Z</time>
      </trkpt>
      <trkpt lat="43.9677" lon="6.50924">
        <ele>913.79998779297</ele>
        <time>2022-08-21T09:36:33Z</time>
      </trkpt>
      <trkpt lat="43.96768" lon="6.50922">
        <ele>913.59997558594</ele>
        <time>2022-08-21T09:36:35Z</time>
      </trkpt>
      <trkpt lat="43.96762" lon="6.50918">
        <ele>913.20001220703</ele>
        <time>2022-08-21T09:36:43Z</time>
      </trkpt>
      <trkpt lat="43.96761" lon="6.50917">
        <ele>913.20001220703</ele>
        <time>2022-08-21T09:36:45Z</time>
      </trkpt>
      <trkpt lat="43.96754" lon="6.50906">
        <ele>912.79998779297</ele>
        <time>2022-08-21T09:36:55Z</time>
      </trkpt>
      <trkpt lat="43.96752" lon="6.50904">
        <ele>912.79998779297</ele>
        <time>2022-08-21T09:36:56Z</time>
      </trkpt>
      <trkpt lat="43.96749" lon="6.50901">
        <ele>912.79998779297</ele>
        <time>2022-08-21T09:36:58Z</time>
      </trkpt>
      <trkpt lat="43.96745" lon="6.50898">
        <ele>912.59997558594</ele>
        <time>2022-08-21T09:37:04Z</time>
      </trkpt>
      <trkpt lat="43.96743" lon="6.50898">
        <ele>912.59997558594</ele>
        <time>2022-08-21T09:37:07Z</time>
      </trkpt>
      <trkpt lat="43.96742" lon="6.50898">
        <ele>912.59997558594</ele>
        <time>2022-08-21T09:37:08Z</time>
      </trkpt>
      <trkpt lat="43.96742" lon="6.50897">
        <ele>912.59997558594</ele>
        <time>2022-08-21T09:37:09Z</time>
      </trkpt>
      <trkpt lat="43.96741" lon="6.50896">
        <ele>912.59997558594</ele>
        <time>2022-08-21T09:37:10Z</time>
      </trkpt>
      <trkpt lat="43.9674" lon="6.50895">
        <ele>912.59997558594</ele>
        <time>2022-08-21T09:37:12Z</time>
      </trkpt>
      <trkpt lat="43.96738" lon="6.50893">
        <ele>912.59997558594</ele>
        <time>2022-08-21T09:37:15Z</time>
      </trkpt>
      <trkpt lat="43.96737" lon="6.50892">
        <ele>912.59997558594</ele>
        <time>2022-08-21T09:37:17Z</time>
      </trkpt>
      <trkpt lat="43.96737" lon="6.50892">
        <ele>912.59997558594</ele>
        <time>2022-08-21T09:37:21Z</time>
      </trkpt>
      <trkpt lat="43.96737" lon="6.50891">
        <ele>912.59997558594</ele>
        <time>2022-08-21T09:37:27Z</time>
      </trkpt>
      <trkpt lat="43.96737" lon="6.50891">
        <ele>912.40002441406</ele>
        <time>2022-08-21T09:37:30Z</time>
      </trkpt>
      <trkpt lat="43.96737" lon="6.50891">
        <ele>912.20001220703</ele>
        <time>2022-08-21T09:37:38Z</time>
      </trkpt>
      <trkpt lat="43.96737" lon="6.50891">
        <ele>912.20001220703</ele>
        <time>2022-08-21T09:37:49Z</time>
      </trkpt>
      <trkpt lat="43.96737" lon="6.50891">
        <ele>912.20001220703</ele>
        <time>2022-08-21T09:37:53Z</time>
      </trkpt>
      <trkpt lat="43.96735" lon="6.50891">
        <ele>912</ele>
        <time>2022-08-21T09:38:02Z</time>
      </trkpt>
      <trkpt lat="43.96735" lon="6.50887">
        <ele>912.20001220703</ele>
        <time>2022-08-21T09:38:07Z</time>
      </trkpt>
      <trkpt lat="43.96735" lon="6.50885">
        <ele>912.40002441406</ele>
        <time>2022-08-21T09:38:17Z</time>
      </trkpt>
      <trkpt lat="43.96735" lon="6.50887">
        <ele>912</ele>
        <time>2022-08-21T09:38:29Z</time>
      </trkpt>
      <trkpt lat="43.96734" lon="6.50887">
        <ele>912</ele>
        <time>2022-08-21T09:38:32Z</time>
      </trkpt>
      <trkpt lat="43.96734" lon="6.50886">
        <ele>912</ele>
        <time>2022-08-21T09:38:43Z</time>
      </trkpt>
      <trkpt lat="43.96734" lon="6.50884">
        <ele>912</ele>
        <time>2022-08-21T09:38:49Z</time>
      </trkpt>
      <trkpt lat="43.96734" lon="6.50884">
        <ele>912</ele>
        <time>2022-08-21T09:38:51Z</time>
      </trkpt>
      <trkpt lat="43.96732" lon="6.50883">
        <ele>912</ele>
        <time>2022-08-21T09:38:59Z</time>
      </trkpt>
      <trkpt lat="43.96735" lon="6.50886">
        <ele>912</ele>
        <time>2022-08-21T09:39:08Z</time>
      </trkpt>
      <trkpt lat="43.96736" lon="6.50886">
        <ele>912</ele>
        <time>2022-08-21T09:39:13Z</time>
      </trkpt>
      <trkpt lat="43.96736" lon="6.50887">
        <ele>912</ele>
        <time>2022-08-21T09:39:18Z</time>
      </trkpt>
      <trkpt lat="43.96736" lon="6.50887">
        <ele>912</ele>
        <time>2022-08-21T09:39:19Z</time>
      </trkpt>
      <trkpt lat="43.96736" lon="6.50887">
        <ele>912</ele>
        <time>2022-08-21T09:39:20Z</time>
      </trkpt>
      <trkpt lat="43.96737" lon="6.50887">
        <ele>912</ele>
        <time>2022-08-21T09:39:30Z</time>
      </trkpt>
      <trkpt lat="43.96737" lon="6.5089">
        <ele>912</ele>
        <time>2022-08-21T09:39:39Z</time>
      </trkpt>
      <trkpt lat="43.96739" lon="6.50891">
        <ele>912</ele>
        <time>2022-08-21T09:39:45Z</time>
      </trkpt>
      <trkpt lat="43.96738" lon="6.50892">
        <ele>912</ele>
        <time>2022-08-21T09:39:48Z</time>
      </trkpt>
      <trkpt lat="43.96738" lon="6.50893">
        <ele>912</ele>
        <time>2022-08-21T09:40:01Z</time>
      </trkpt>
      <trkpt lat="43.96737" lon="6.50894">
        <ele>912</ele>
        <time>2022-08-21T09:40:09Z</time>
      </trkpt>
      <trkpt lat="43.96737" lon="6.50894">
        <ele>912</ele>
        <time>2022-08-21T09:40:14Z</time>
      </trkpt>
      <trkpt lat="43.96737" lon="6.50894">
        <ele>912</ele>
        <time>2022-08-21T09:40:15Z</time>
      </trkpt>
      <trkpt lat="43.96736" lon="6.50894">
        <ele>912</ele>
        <time>2022-08-21T09:40:25Z</time>
      </trkpt>
      <trkpt lat="43.96736" lon="6.50894">
        <ele>912</ele>
        <time>2022-08-21T09:40:28Z</time>
      </trkpt>
      <trkpt lat="43.96736" lon="6.50895">
        <ele>912</ele>
        <time>2022-08-21T09:40:35Z</time>
      </trkpt>
      <trkpt lat="43.96736" lon="6.50895">
        <ele>912</ele>
        <time>2022-08-21T09:40:39Z</time>
      </trkpt>
      <trkpt lat="43.96735" lon="6.50894">
        <ele>912</ele>
        <time>2022-08-21T09:40:48Z</time>
      </trkpt>
      <trkpt lat="43.96736" lon="6.50894">
        <ele>912</ele>
        <time>2022-08-21T09:40:50Z</time>
      </trkpt>
      <trkpt lat="43.96736" lon="6.50894">
        <ele>912</ele>
        <time>2022-08-21T09:40:59Z</time>
      </trkpt>
      <trkpt lat="43.96736" lon="6.50894">
        <ele>912</ele>
        <time>2022-08-21T09:41:02Z</time>
      </trkpt>
      <trkpt lat="43.96736" lon="6.50895">
        <ele>912</ele>
        <time>2022-08-21T09:41:14Z</time>
      </trkpt>
      <trkpt lat="43.96736" lon="6.50895">
        <ele>912</ele>
        <time>2022-08-21T09:41:16Z</time>
      </trkpt>
      <trkpt lat="43.96736" lon="6.50897">
        <ele>912</ele>
        <time>2022-08-21T09:41:28Z</time>
      </trkpt>
      <trkpt lat="43.96737" lon="6.50897">
        <ele>912</ele>
        <time>2022-08-21T09:41:40Z</time>
      </trkpt>
      <trkpt lat="43.96741" lon="6.50892">
        <ele>912</ele>
        <time>2022-08-21T09:41:54Z</time>
      </trkpt>
      <trkpt lat="43.96746" lon="6.50889">
        <ele>912</ele>
        <time>2022-08-21T09:42:00Z</time>
      </trkpt>
      <trkpt lat="43.96746" lon="6.50888">
        <ele>912</ele>
        <time>2022-08-21T09:42:02Z</time>
      </trkpt>
      <trkpt lat="43.96746" lon="6.50889">
        <ele>912</ele>
        <time>2022-08-21T09:42:06Z</time>
      </trkpt>
      <trkpt lat="43.96746" lon="6.50889">
        <ele>912</ele>
        <time>2022-08-21T09:42:12Z</time>
      </trkpt>
      <trkpt lat="43.96746" lon="6.50889">
        <ele>912</ele>
        <time>2022-08-21T09:42:13Z</time>
      </trkpt>
      <trkpt lat="43.96745" lon="6.50889">
        <ele>912</ele>
        <time>2022-08-21T09:42:15Z</time>
      </trkpt>
      <trkpt lat="43.9674" lon="6.50886">
        <ele>912</ele>
        <time>2022-08-21T09:42:27Z</time>
      </trkpt>
      <trkpt lat="43.96741" lon="6.50887">
        <ele>912</ele>
        <time>2022-08-21T09:42:34Z</time>
      </trkpt>
      <trkpt lat="43.96741" lon="6.50889">
        <ele>912</ele>
        <time>2022-08-21T09:42:44Z</time>
      </trkpt>
      <trkpt lat="43.96741" lon="6.50889">
        <ele>912</ele>
        <time>2022-08-21T09:42:49Z</time>
      </trkpt>
      <trkpt lat="43.9674" lon="6.50889">
        <ele>912</ele>
        <time>2022-08-21T09:42:51Z</time>
      </trkpt>
      <trkpt lat="43.9674" lon="6.50889">
        <ele>912</ele>
        <time>2022-08-21T09:42:54Z</time>
      </trkpt>
      <trkpt lat="43.9674" lon="6.50889">
        <ele>912</ele>
        <time>2022-08-21T09:42:56Z</time>
      </trkpt>
      <trkpt lat="43.96741" lon="6.50893">
        <ele>912</ele>
        <time>2022-08-21T09:43:07Z</time>
      </trkpt>
      <trkpt lat="43.96741" lon="6.50892">
        <ele>912</ele>
        <time>2022-08-21T09:43:08Z</time>
      </trkpt>
      <trkpt lat="43.96741" lon="6.50892">
        <ele>912</ele>
        <time>2022-08-21T09:43:12Z</time>
      </trkpt>
      <trkpt lat="43.9674" lon="6.50891">
        <ele>912</ele>
        <time>2022-08-21T09:43:21Z</time>
      </trkpt>
      <trkpt lat="43.9674" lon="6.50891">
        <ele>912</ele>
        <time>2022-08-21T09:43:25Z</time>
      </trkpt>
      <trkpt lat="43.96741" lon="6.5089">
        <ele>912</ele>
        <time>2022-08-21T09:43:32Z</time>
      </trkpt>
      <trkpt lat="43.96742" lon="6.50889">
        <ele>912</ele>
        <time>2022-08-21T09:43:36Z</time>
      </trkpt>
      <trkpt lat="43.96744" lon="6.50889">
        <ele>912</ele>
        <time>2022-08-21T09:43:43Z</time>
      </trkpt>
      <trkpt lat="43.96744" lon="6.50888">
        <ele>912</ele>
        <time>2022-08-21T09:43:46Z</time>
      </trkpt>
      <trkpt lat="43.96745" lon="6.50887">
        <ele>912</ele>
        <time>2022-08-21T09:43:49Z</time>
      </trkpt>
      <trkpt lat="43.96746" lon="6.50888">
        <ele>912</ele>
        <time>2022-08-21T09:43:55Z</time>
      </trkpt>
      <trkpt lat="43.96746" lon="6.50888">
        <ele>912</ele>
        <time>2022-08-21T09:44:01Z</time>
      </trkpt>
      <trkpt lat="43.96745" lon="6.50888">
        <ele>912</ele>
        <time>2022-08-21T09:44:04Z</time>
      </trkpt>
      <trkpt lat="43.96745" lon="6.50888">
        <ele>912</ele>
        <time>2022-08-21T09:44:05Z</time>
      </trkpt>
      <trkpt lat="43.96745" lon="6.50888">
        <ele>912</ele>
        <time>2022-08-21T09:44:09Z</time>
      </trkpt>
      <trkpt lat="43.96745" lon="6.50889">
        <ele>912</ele>
        <time>2022-08-21T09:44:15Z</time>
      </trkpt>
      <trkpt lat="43.96745" lon="6.50889">
        <ele>912</ele>
        <time>2022-08-21T09:44:17Z</time>
      </trkpt>
      <trkpt lat="43.96743" lon="6.50888">
        <ele>912</ele>
        <time>2022-08-21T09:44:30Z</time>
      </trkpt>
      <trkpt lat="43.96742" lon="6.50889">
        <ele>912</ele>
        <time>2022-08-21T09:44:42Z</time>
      </trkpt>
      <trkpt lat="43.96742" lon="6.5089">
        <ele>912</ele>
        <time>2022-08-21T09:44:45Z</time>
      </trkpt>
      <trkpt lat="43.96741" lon="6.5089">
        <ele>912</ele>
        <time>2022-08-21T09:44:51Z</time>
      </trkpt>
      <trkpt lat="43.96741" lon="6.5089">
        <ele>912</ele>
        <time>2022-08-21T09:44:54Z</time>
      </trkpt>
      <trkpt lat="43.96741" lon="6.50889">
        <ele>912</ele>
        <time>2022-08-21T09:45:01Z</time>
      </trkpt>
      <trkpt lat="43.96742" lon="6.50889">
        <ele>912</ele>
        <time>2022-08-21T09:45:12Z</time>
      </trkpt>
      <trkpt lat="43.96739" lon="6.5089">
        <ele>912</ele>
        <time>2022-08-21T09:45:21Z</time>
      </trkpt>
      <trkpt lat="43.96741" lon="6.5089">
        <ele>912</ele>
        <time>2022-08-21T09:45:30Z</time>
      </trkpt>
      <trkpt lat="43.96741" lon="6.5089">
        <ele>912</ele>
        <time>2022-08-21T09:45:32Z</time>
      </trkpt>
      <trkpt lat="43.9674" lon="6.50891">
        <ele>912</ele>
        <time>2022-08-21T09:45:34Z</time>
      </trkpt>
      <trkpt lat="43.96739" lon="6.50892">
        <ele>912</ele>
        <time>2022-08-21T09:45:38Z</time>
      </trkpt>
      <trkpt lat="43.96739" lon="6.5089">
        <ele>912</ele>
        <time>2022-08-21T09:45:42Z</time>
      </trkpt>
      <trkpt lat="43.9674" lon="6.50888">
        <ele>912</ele>
        <time>2022-08-21T09:45:53Z</time>
      </trkpt>
      <trkpt lat="43.96738" lon="6.50887">
        <ele>912</ele>
        <time>2022-08-21T09:46:03Z</time>
      </trkpt>
      <trkpt lat="43.9674" lon="6.50886">
        <ele>912</ele>
        <time>2022-08-21T09:46:13Z</time>
      </trkpt>
      <trkpt lat="43.9674" lon="6.50887">
        <ele>912</ele>
        <time>2022-08-21T09:46:24Z</time>
      </trkpt>
      <trkpt lat="43.96741" lon="6.50887">
        <ele>912</ele>
        <time>2022-08-21T09:46:28Z</time>
      </trkpt>
      <trkpt lat="43.96743" lon="6.50888">
        <ele>912</ele>
        <time>2022-08-21T09:46:33Z</time>
      </trkpt>
      <trkpt lat="43.96743" lon="6.50888">
        <ele>912</ele>
        <time>2022-08-21T09:46:38Z</time>
      </trkpt>
      <trkpt lat="43.96743" lon="6.50888">
        <ele>912</ele>
        <time>2022-08-21T09:46:42Z</time>
      </trkpt>
      <trkpt lat="43.96744" lon="6.50888">
        <ele>912</ele>
        <time>2022-08-21T09:46:46Z</time>
      </trkpt>
      <trkpt lat="43.96744" lon="6.50888">
        <ele>912</ele>
        <time>2022-08-21T09:46:49Z</time>
      </trkpt>
      <trkpt lat="43.96745" lon="6.50888">
        <ele>912</ele>
        <time>2022-08-21T09:46:55Z</time>
      </trkpt>
      <trkpt lat="43.96748" lon="6.50889">
        <ele>912</ele>
        <time>2022-08-21T09:47:02Z</time>
      </trkpt>
      <trkpt lat="43.96748" lon="6.5089">
        <ele>912</ele>
        <time>2022-08-21T09:47:08Z</time>
      </trkpt>
      <trkpt lat="43.96749" lon="6.5089">
        <ele>912</ele>
        <time>2022-08-21T09:47:10Z</time>
      </trkpt>
      <trkpt lat="43.96749" lon="6.5089">
        <ele>912</ele>
        <time>2022-08-21T09:47:12Z</time>
      </trkpt>
      <trkpt lat="43.96749" lon="6.50891">
        <ele>912</ele>
        <time>2022-08-21T09:47:19Z</time>
      </trkpt>
      <trkpt lat="43.9675" lon="6.5089">
        <ele>912</ele>
        <time>2022-08-21T09:47:29Z</time>
      </trkpt>
      <trkpt lat="43.96749" lon="6.5089">
        <ele>912</ele>
        <time>2022-08-21T09:47:31Z</time>
      </trkpt>
      <trkpt lat="43.96749" lon="6.5089">
        <ele>912</ele>
        <time>2022-08-21T09:47:36Z</time>
      </trkpt>
      <trkpt lat="43.96749" lon="6.5089">
        <ele>912</ele>
        <time>2022-08-21T09:47:37Z</time>
      </trkpt>
      <trkpt lat="43.96751" lon="6.50889">
        <ele>912</ele>
        <time>2022-08-21T09:47:45Z</time>
      </trkpt>
      <trkpt lat="43.96751" lon="6.50889">
        <ele>912</ele>
        <time>2022-08-21T09:47:48Z</time>
      </trkpt>
      <trkpt lat="43.96748" lon="6.50889">
        <ele>912</ele>
        <time>2022-08-21T09:47:59Z</time>
      </trkpt>
      <trkpt lat="43.96748" lon="6.50889">
        <ele>912</ele>
        <time>2022-08-21T09:48:00Z</time>
      </trkpt>
      <trkpt lat="43.96748" lon="6.50889">
        <ele>912</ele>
        <time>2022-08-21T09:48:01Z</time>
      </trkpt>
      <trkpt lat="43.96748" lon="6.50889">
        <ele>912</ele>
        <time>2022-08-21T09:48:05Z</time>
      </trkpt>
      <trkpt lat="43.96747" lon="6.50889">
        <ele>912</ele>
        <time>2022-08-21T09:48:09Z</time>
      </trkpt>
      <trkpt lat="43.96747" lon="6.50889">
        <ele>912</ele>
        <time>2022-08-21T09:48:11Z</time>
      </trkpt>
      <trkpt lat="43.96747" lon="6.50888">
        <ele>912</ele>
        <time>2022-08-21T09:48:13Z</time>
      </trkpt>
      <trkpt lat="43.96747" lon="6.50889">
        <ele>912</ele>
        <time>2022-08-21T09:48:19Z</time>
      </trkpt>
      <trkpt lat="43.96748" lon="6.5089">
        <ele>912</ele>
        <time>2022-08-21T09:48:26Z</time>
      </trkpt>
      <trkpt lat="43.9675" lon="6.50891">
        <ele>912</ele>
        <time>2022-08-21T09:48:29Z</time>
      </trkpt>
      <trkpt lat="43.96753" lon="6.50891">
        <ele>912</ele>
        <time>2022-08-21T09:48:40Z</time>
      </trkpt>
      <trkpt lat="43.96754" lon="6.50892">
        <ele>912</ele>
        <time>2022-08-21T09:48:47Z</time>
      </trkpt>
      <trkpt lat="43.96754" lon="6.50892">
        <ele>912</ele>
        <time>2022-08-21T09:48:49Z</time>
      </trkpt>
      <trkpt lat="43.96753" lon="6.50893">
        <ele>912</ele>
        <time>2022-08-21T09:49:00Z</time>
      </trkpt>
      <trkpt lat="43.96753" lon="6.50892">
        <ele>912</ele>
        <time>2022-08-21T09:49:01Z</time>
      </trkpt>
      <trkpt lat="43.96752" lon="6.50892">
        <ele>912</ele>
        <time>2022-08-21T09:49:08Z</time>
      </trkpt>
      <trkpt lat="43.96751" lon="6.50892">
        <ele>912</ele>
        <time>2022-08-21T09:49:13Z</time>
      </trkpt>
      <trkpt lat="43.96748" lon="6.50894">
        <ele>912</ele>
        <time>2022-08-21T09:49:27Z</time>
      </trkpt>
      <trkpt lat="43.96746" lon="6.50892">
        <ele>912</ele>
        <time>2022-08-21T09:49:39Z</time>
      </trkpt>
      <trkpt lat="43.96746" lon="6.50892">
        <ele>912</ele>
        <time>2022-08-21T09:49:47Z</time>
      </trkpt>
      <trkpt lat="43.96746" lon="6.50891">
        <ele>912</ele>
        <time>2022-08-21T09:49:52Z</time>
      </trkpt>
      <trkpt lat="43.96745" lon="6.50891">
        <ele>912</ele>
        <time>2022-08-21T09:49:53Z</time>
      </trkpt>
      <trkpt lat="43.96745" lon="6.50891">
        <ele>912</ele>
        <time>2022-08-21T09:49:54Z</time>
      </trkpt>
      <trkpt lat="43.96745" lon="6.50891">
        <ele>912</ele>
        <time>2022-08-21T09:49:55Z</time>
      </trkpt>
      <trkpt lat="43.96745" lon="6.5089">
        <ele>912</ele>
        <time>2022-08-21T09:50:03Z</time>
      </trkpt>
      <trkpt lat="43.96744" lon="6.5089">
        <ele>912</ele>
        <time>2022-08-21T09:50:05Z</time>
      </trkpt>
      <trkpt lat="43.96743" lon="6.50891">
        <ele>912</ele>
        <time>2022-08-21T09:50:17Z</time>
      </trkpt>
      <trkpt lat="43.96736" lon="6.5089">
        <ele>912</ele>
        <time>2022-08-21T09:50:29Z</time>
      </trkpt>
      <trkpt lat="43.96734" lon="6.50889">
        <ele>912</ele>
        <time>2022-08-21T09:50:35Z</time>
      </trkpt>
      <trkpt lat="43.96738" lon="6.50886">
        <ele>912</ele>
        <time>2022-08-21T09:50:40Z</time>
      </trkpt>
      <trkpt lat="43.96738" lon="6.50886">
        <ele>912</ele>
        <time>2022-08-21T09:50:42Z</time>
      </trkpt>
      <trkpt lat="43.96738" lon="6.50886">
        <ele>912</ele>
        <time>2022-08-21T09:50:50Z</time>
      </trkpt>
      <trkpt lat="43.96738" lon="6.50886">
        <ele>912</ele>
        <time>2022-08-21T09:51:03Z</time>
      </trkpt>
      <trkpt lat="43.96738" lon="6.50886">
        <ele>912</ele>
        <time>2022-08-21T09:51:09Z</time>
      </trkpt>
      <trkpt lat="43.96738" lon="6.50886">
        <ele>912</ele>
        <time>2022-08-21T09:51:15Z</time>
      </trkpt>
      <trkpt lat="43.96737" lon="6.50888">
        <ele>912</ele>
        <time>2022-08-21T09:51:21Z</time>
      </trkpt>
      <trkpt lat="43.96738" lon="6.50889">
        <ele>912</ele>
        <time>2022-08-21T09:51:27Z</time>
      </trkpt>
      <trkpt lat="43.96739" lon="6.5089">
        <ele>912</ele>
        <time>2022-08-21T09:51:37Z</time>
      </trkpt>
      <trkpt lat="43.96739" lon="6.5089">
        <ele>912</ele>
        <time>2022-08-21T09:51:38Z</time>
      </trkpt>
      <trkpt lat="43.96739" lon="6.50889">
        <ele>912</ele>
        <time>2022-08-21T09:51:48Z</time>
      </trkpt>
      <trkpt lat="43.96739" lon="6.50889">
        <ele>912</ele>
        <time>2022-08-21T09:51:52Z</time>
      </trkpt>
      <trkpt lat="43.96739" lon="6.50889">
        <ele>912</ele>
        <time>2022-08-21T09:51:53Z</time>
      </trkpt>
      <trkpt lat="43.96739" lon="6.50889">
        <ele>912</ele>
        <time>2022-08-21T09:51:56Z</time>
      </trkpt>
      <trkpt lat="43.96739" lon="6.50889">
        <ele>912</ele>
        <time>2022-08-21T09:51:58Z</time>
      </trkpt>
      <trkpt lat="43.96739" lon="6.50889">
        <ele>912</ele>
        <time>2022-08-21T09:52:00Z</time>
      </trkpt>
      <trkpt lat="43.96739" lon="6.50889">
        <ele>912</ele>
        <time>2022-08-21T09:52:04Z</time>
      </trkpt>
      <trkpt lat="43.96739" lon="6.50889">
        <ele>912</ele>
        <time>2022-08-21T09:52:08Z</time>
      </trkpt>
      <trkpt lat="43.96738" lon="6.50887">
        <ele>912</ele>
        <time>2022-08-21T09:52:19Z</time>
      </trkpt>
      <trkpt lat="43.9674" lon="6.50887">
        <ele>912</ele>
        <time>2022-08-21T09:52:24Z</time>
      </trkpt>
      <trkpt lat="43.9674" lon="6.5089">
        <ele>912</ele>
        <time>2022-08-21T09:52:28Z</time>
      </trkpt>
      <trkpt lat="43.96739" lon="6.50895">
        <ele>912</ele>
        <time>2022-08-21T09:52:31Z</time>
      </trkpt>
      <trkpt lat="43.96739" lon="6.50902">
        <ele>912</ele>
        <time>2022-08-21T09:52:35Z</time>
      </trkpt>
      <trkpt lat="43.9674" lon="6.50905">
        <ele>912</ele>
        <time>2022-08-21T09:52:37Z</time>
      </trkpt>
      <trkpt lat="43.96742" lon="6.50907">
        <ele>912</ele>
        <time>2022-08-21T09:52:40Z</time>
      </trkpt>
      <trkpt lat="43.96742" lon="6.50903">
        <ele>912.20001220703</ele>
        <time>2022-08-21T09:52:43Z</time>
      </trkpt>
      <trkpt lat="43.96738" lon="6.50893">
        <ele>912.20001220703</ele>
        <time>2022-08-21T09:52:52Z</time>
      </trkpt>
      <trkpt lat="43.96739" lon="6.5089">
        <ele>912.79998779297</ele>
        <time>2022-08-21T09:52:59Z</time>
      </trkpt>
      <trkpt lat="43.96738" lon="6.50889">
        <ele>913.20001220703</ele>
        <time>2022-08-21T09:53:03Z</time>
      </trkpt>
      <trkpt lat="43.96738" lon="6.50889">
        <ele>912.40002441406</ele>
        <time>2022-08-21T09:53:08Z</time>
      </trkpt>
      <trkpt lat="43.96738" lon="6.50889">
        <ele>912.40002441406</ele>
        <time>2022-08-21T09:53:11Z</time>
      </trkpt>
      <trkpt lat="43.96739" lon="6.5089">
        <ele>912.59997558594</ele>
        <time>2022-08-21T09:53:17Z</time>
      </trkpt>
      <trkpt lat="43.9674" lon="6.50889">
        <ele>912.79998779297</ele>
        <time>2022-08-21T09:53:24Z</time>
      </trkpt>
      <trkpt lat="43.96742" lon="6.5089">
        <ele>912.59997558594</ele>
        <time>2022-08-21T09:53:32Z</time>
      </trkpt>
      <trkpt lat="43.96744" lon="6.50889">
        <ele>913.20001220703</ele>
        <time>2022-08-21T09:53:38Z</time>
      </trkpt>
      <trkpt lat="43.96745" lon="6.50889">
        <ele>913.20001220703</ele>
        <time>2022-08-21T09:53:42Z</time>
      </trkpt>
      <trkpt lat="43.96745" lon="6.50889">
        <ele>913.20001220703</ele>
        <time>2022-08-21T09:53:43Z</time>
      </trkpt>
      <trkpt lat="43.96745" lon="6.50888">
        <ele>913.40002441406</ele>
        <time>2022-08-21T09:53:49Z</time>
      </trkpt>
      <trkpt lat="43.96745" lon="6.50888">
        <ele>913.40002441406</ele>
        <time>2022-08-21T09:53:51Z</time>
      </trkpt>
      <trkpt lat="43.96744" lon="6.50888">
        <ele>913.40002441406</ele>
        <time>2022-08-21T09:53:54Z</time>
      </trkpt>
      <trkpt lat="43.96744" lon="6.50887">
        <ele>912.59997558594</ele>
        <time>2022-08-21T09:54:03Z</time>
      </trkpt>
      <trkpt lat="43.96744" lon="6.50887">
        <ele>912.20001220703</ele>
        <time>2022-08-21T09:54:04Z</time>
      </trkpt>
      <trkpt lat="43.96744" lon="6.50887">
        <ele>912.20001220703</ele>
        <time>2022-08-21T09:54:08Z</time>
      </trkpt>
      <trkpt lat="43.96745" lon="6.50889">
        <ele>912.20001220703</ele>
        <time>2022-08-21T09:54:16Z</time>
      </trkpt>
      <trkpt lat="43.96745" lon="6.50889">
        <ele>912.20001220703</ele>
        <time>2022-08-21T09:54:26Z</time>
      </trkpt>
      <trkpt lat="43.96746" lon="6.50889">
        <ele>912.20001220703</ele>
        <time>2022-08-21T09:54:31Z</time>
      </trkpt>
      <trkpt lat="43.96745" lon="6.50889">
        <ele>912.20001220703</ele>
        <time>2022-08-21T09:54:36Z</time>
      </trkpt>
      <trkpt lat="43.96743" lon="6.50888">
        <ele>912.20001220703</ele>
        <time>2022-08-21T09:54:50Z</time>
      </trkpt>
      <trkpt lat="43.96743" lon="6.50888">
        <ele>912.20001220703</ele>
        <time>2022-08-21T09:54:51Z</time>
      </trkpt>
      <trkpt lat="43.96743" lon="6.5089">
        <ele>912.20001220703</ele>
        <time>2022-08-21T09:55:01Z</time>
      </trkpt>
      <trkpt lat="43.96742" lon="6.50891">
        <ele>912.20001220703</ele>
        <time>2022-08-21T09:55:09Z</time>
      </trkpt>
      <trkpt lat="43.96743" lon="6.50891">
        <ele>912.20001220703</ele>
        <time>2022-08-21T09:55:12Z</time>
      </trkpt>
      <trkpt lat="43.96744" lon="6.50888">
        <ele>912.20001220703</ele>
        <time>2022-08-21T09:55:21Z</time>
      </trkpt>
      <trkpt lat="43.96741" lon="6.50891">
        <ele>912.20001220703</ele>
        <time>2022-08-21T09:55:25Z</time>
      </trkpt>
      <trkpt lat="43.96743" lon="6.50891">
        <ele>912.20001220703</ele>
        <time>2022-08-21T09:55:33Z</time>
      </trkpt>
      <trkpt lat="43.96744" lon="6.50891">
        <ele>912.20001220703</ele>
        <time>2022-08-21T09:55:46Z</time>
      </trkpt>
      <trkpt lat="43.96745" lon="6.5089">
        <ele>912.20001220703</ele>
        <time>2022-08-21T09:55:55Z</time>
      </trkpt>
      <trkpt lat="43.96745" lon="6.50889">
        <ele>912.20001220703</ele>
        <time>2022-08-21T09:55:56Z</time>
      </trkpt>
      <trkpt lat="43.96745" lon="6.50889">
        <ele>912.20001220703</ele>
        <time>2022-08-21T09:56:05Z</time>
      </trkpt>
      <trkpt lat="43.96745" lon="6.50889">
        <ele>912.20001220703</ele>
        <time>2022-08-21T09:56:13Z</time>
      </trkpt>
      <trkpt lat="43.96745" lon="6.50889">
        <ele>912.20001220703</ele>
        <time>2022-08-21T09:56:16Z</time>
      </trkpt>
      <trkpt lat="43.96745" lon="6.50889">
        <ele>912.20001220703</ele>
        <time>2022-08-21T09:56:20Z</time>
      </trkpt>
      <trkpt lat="43.96744" lon="6.50888">
        <ele>912.20001220703</ele>
        <time>2022-08-21T09:56:25Z</time>
      </trkpt>
      <trkpt lat="43.96743" lon="6.50888">
        <ele>912.20001220703</ele>
        <time>2022-08-21T09:56:33Z</time>
      </trkpt>
      <trkpt lat="43.96743" lon="6.50886">
        <ele>912.20001220703</ele>
        <time>2022-08-21T09:56:39Z</time>
      </trkpt>
      <trkpt lat="43.96744" lon="6.50886">
        <ele>912.20001220703</ele>
        <time>2022-08-21T09:56:41Z</time>
      </trkpt>
      <trkpt lat="43.96744" lon="6.50886">
        <ele>912.20001220703</ele>
        <time>2022-08-21T09:56:44Z</time>
      </trkpt>
      <trkpt lat="43.96745" lon="6.50886">
        <ele>912.20001220703</ele>
        <time>2022-08-21T09:56:53Z</time>
      </trkpt>
      <trkpt lat="43.96743" lon="6.50887">
        <ele>912.20001220703</ele>
        <time>2022-08-21T09:57:04Z</time>
      </trkpt>
      <trkpt lat="43.96741" lon="6.50888">
        <ele>912.20001220703</ele>
        <time>2022-08-21T09:57:15Z</time>
      </trkpt>
      <trkpt lat="43.96742" lon="6.50888">
        <ele>912.20001220703</ele>
        <time>2022-08-21T09:57:17Z</time>
      </trkpt>
      <trkpt lat="43.96741" lon="6.50887">
        <ele>912.20001220703</ele>
        <time>2022-08-21T09:57:21Z</time>
      </trkpt>
      <trkpt lat="43.96742" lon="6.50887">
        <ele>912.20001220703</ele>
        <time>2022-08-21T09:57:24Z</time>
      </trkpt>
      <trkpt lat="43.96741" lon="6.50888">
        <ele>912.20001220703</ele>
        <time>2022-08-21T09:57:29Z</time>
      </trkpt>
      <trkpt lat="43.96739" lon="6.50889">
        <ele>912.20001220703</ele>
        <time>2022-08-21T09:57:44Z</time>
      </trkpt>
      <trkpt lat="43.9674" lon="6.50889">
        <ele>912.20001220703</ele>
        <time>2022-08-21T09:57:54Z</time>
      </trkpt>
      <trkpt lat="43.96741" lon="6.50889">
        <ele>912.20001220703</ele>
        <time>2022-08-21T09:58:09Z</time>
      </trkpt>
      <trkpt lat="43.9674" lon="6.50889">
        <ele>912.20001220703</ele>
        <time>2022-08-21T09:58:22Z</time>
      </trkpt>
      <trkpt lat="43.96737" lon="6.50888">
        <ele>912.20001220703</ele>
        <time>2022-08-21T09:58:41Z</time>
      </trkpt>
      <trkpt lat="43.96736" lon="6.50888">
        <ele>912.20001220703</ele>
        <time>2022-08-21T09:58:58Z</time>
      </trkpt>
      <trkpt lat="43.96736" lon="6.50886">
        <ele>912.20001220703</ele>
        <time>2022-08-21T09:59:07Z</time>
      </trkpt>
      <trkpt lat="43.96736" lon="6.50885">
        <ele>912.20001220703</ele>
        <time>2022-08-21T09:59:15Z</time>
      </trkpt>
      <trkpt lat="43.96737" lon="6.50887">
        <ele>912.20001220703</ele>
        <time>2022-08-21T09:59:28Z</time>
      </trkpt>
      <trkpt lat="43.96736" lon="6.50888">
        <ele>912.20001220703</ele>
        <time>2022-08-21T09:59:41Z</time>
      </trkpt>
      <trkpt lat="43.96736" lon="6.50888">
        <ele>912.20001220703</ele>
        <time>2022-08-21T09:59:43Z</time>
      </trkpt>
      <trkpt lat="43.96737" lon="6.50888">
        <ele>912.20001220703</ele>
        <time>2022-08-21T09:59:50Z</time>
      </trkpt>
      <trkpt lat="43.96738" lon="6.50887">
        <ele>912.20001220703</ele>
        <time>2022-08-21T09:59:53Z</time>
      </trkpt>
      <trkpt lat="43.96738" lon="6.50887">
        <ele>912.20001220703</ele>
        <time>2022-08-21T09:59:56Z</time>
      </trkpt>
      <trkpt lat="43.96738" lon="6.50887">
        <ele>912.20001220703</ele>
        <time>2022-08-21T10:00:01Z</time>
      </trkpt>
      <trkpt lat="43.96739" lon="6.50886">
        <ele>912.20001220703</ele>
        <time>2022-08-21T10:00:03Z</time>
      </trkpt>
      <trkpt lat="43.96739" lon="6.50886">
        <ele>912.20001220703</ele>
        <time>2022-08-21T10:00:06Z</time>
      </trkpt>
      <trkpt lat="43.96739" lon="6.50886">
        <ele>912.20001220703</ele>
        <time>2022-08-21T10:00:07Z</time>
      </trkpt>
      <trkpt lat="43.96739" lon="6.50886">
        <ele>912.20001220703</ele>
        <time>2022-08-21T10:00:13Z</time>
      </trkpt>
      <trkpt lat="43.96738" lon="6.50887">
        <ele>912.20001220703</ele>
        <time>2022-08-21T10:00:19Z</time>
      </trkpt>
      <trkpt lat="43.96738" lon="6.50887">
        <ele>912.20001220703</ele>
        <time>2022-08-21T10:00:20Z</time>
      </trkpt>
      <trkpt lat="43.96738" lon="6.50887">
        <ele>912.20001220703</ele>
        <time>2022-08-21T10:00:23Z</time>
      </trkpt>
      <trkpt lat="43.96738" lon="6.50887">
        <ele>912.20001220703</ele>
        <time>2022-08-21T10:00:25Z</time>
      </trkpt>
      <trkpt lat="43.96738" lon="6.50886">
        <ele>912.20001220703</ele>
        <time>2022-08-21T10:00:30Z</time>
      </trkpt>
      <trkpt lat="43.96738" lon="6.50886">
        <ele>912.20001220703</ele>
        <time>2022-08-21T10:00:31Z</time>
      </trkpt>
      <trkpt lat="43.96738" lon="6.50886">
        <ele>912.20001220703</ele>
        <time>2022-08-21T10:00:32Z</time>
      </trkpt>
      <trkpt lat="43.96738" lon="6.50886">
        <ele>912.20001220703</ele>
        <time>2022-08-21T10:00:34Z</time>
      </trkpt>
      <trkpt lat="43.96737" lon="6.50886">
        <ele>912.20001220703</ele>
        <time>2022-08-21T10:00:46Z</time>
      </trkpt>
      <trkpt lat="43.96737" lon="6.50886">
        <ele>912.20001220703</ele>
        <time>2022-08-21T10:00:48Z</time>
      </trkpt>
      <trkpt lat="43.96737" lon="6.50887">
        <ele>912.20001220703</ele>
        <time>2022-08-21T10:01:00Z</time>
      </trkpt>
      <trkpt lat="43.96737" lon="6.50887">
        <ele>912.20001220703</ele>
        <time>2022-08-21T10:01:04Z</time>
      </trkpt>
      <trkpt lat="43.96736" lon="6.50888">
        <ele>912.20001220703</ele>
        <time>2022-08-21T10:01:07Z</time>
      </trkpt>
      <trkpt lat="43.96737" lon="6.50888">
        <ele>912.20001220703</ele>
        <time>2022-08-21T10:01:11Z</time>
      </trkpt>
      <trkpt lat="43.96737" lon="6.50888">
        <ele>912.20001220703</ele>
        <time>2022-08-21T10:01:13Z</time>
      </trkpt>
      <trkpt lat="43.96738" lon="6.50888">
        <ele>912.20001220703</ele>
        <time>2022-08-21T10:01:23Z</time>
      </trkpt>
      <trkpt lat="43.96738" lon="6.50888">
        <ele>912.20001220703</ele>
        <time>2022-08-21T10:01:27Z</time>
      </trkpt>
      <trkpt lat="43.96738" lon="6.50888">
        <ele>912.20001220703</ele>
        <time>2022-08-21T10:01:31Z</time>
      </trkpt>
      <trkpt lat="43.96738" lon="6.50888">
        <ele>912.20001220703</ele>
        <time>2022-08-21T10:01:36Z</time>
      </trkpt>
      <trkpt lat="43.96738" lon="6.50887">
        <ele>912.20001220703</ele>
        <time>2022-08-21T10:01:38Z</time>
      </trkpt>
      <trkpt lat="43.96739" lon="6.50886">
        <ele>912.20001220703</ele>
        <time>2022-08-21T10:01:44Z</time>
      </trkpt>
      <trkpt lat="43.96739" lon="6.50886">
        <ele>912.20001220703</ele>
        <time>2022-08-21T10:01:46Z</time>
      </trkpt>
      <trkpt lat="43.96738" lon="6.50886">
        <ele>912.20001220703</ele>
        <time>2022-08-21T10:01:51Z</time>
      </trkpt>
      <trkpt lat="43.96738" lon="6.50886">
        <ele>912.20001220703</ele>
        <time>2022-08-21T10:02:00Z</time>
      </trkpt>
      <trkpt lat="43.96739" lon="6.50886">
        <ele>912.20001220703</ele>
        <time>2022-08-21T10:02:03Z</time>
      </trkpt>
      <trkpt lat="43.9674" lon="6.50887">
        <ele>912.20001220703</ele>
        <time>2022-08-21T10:02:21Z</time>
      </trkpt>
      <trkpt lat="43.9674" lon="6.50887">
        <ele>912.20001220703</ele>
        <time>2022-08-21T10:02:34Z</time>
      </trkpt>
      <trkpt lat="43.96739" lon="6.50887">
        <ele>912.20001220703</ele>
        <time>2022-08-21T10:02:43Z</time>
      </trkpt>
      <trkpt lat="43.96738" lon="6.50887">
        <ele>912.20001220703</ele>
        <time>2022-08-21T10:02:53Z</time>
      </trkpt>
      <trkpt lat="43.96738" lon="6.50886">
        <ele>912.20001220703</ele>
        <time>2022-08-21T10:03:08Z</time>
      </trkpt>
      <trkpt lat="43.96739" lon="6.50886">
        <ele>912.20001220703</ele>
        <time>2022-08-21T10:03:23Z</time>
      </trkpt>
      <trkpt lat="43.96739" lon="6.50887">
        <ele>912.20001220703</ele>
        <time>2022-08-21T10:03:31Z</time>
      </trkpt>
      <trkpt lat="43.9674" lon="6.50888">
        <ele>912.20001220703</ele>
        <time>2022-08-21T10:03:34Z</time>
      </trkpt>
      <trkpt lat="43.9674" lon="6.50888">
        <ele>912.20001220703</ele>
        <time>2022-08-21T10:03:38Z</time>
      </trkpt>
      <trkpt lat="43.96742" lon="6.50888">
        <ele>912.20001220703</ele>
        <time>2022-08-21T10:03:52Z</time>
      </trkpt>
      <trkpt lat="43.96742" lon="6.50888">
        <ele>912.20001220703</ele>
        <time>2022-08-21T10:04:05Z</time>
      </trkpt>
      <trkpt lat="43.96741" lon="6.50888">
        <ele>912.20001220703</ele>
        <time>2022-08-21T10:04:08Z</time>
      </trkpt>
      <trkpt lat="43.96741" lon="6.50888">
        <ele>912.20001220703</ele>
        <time>2022-08-21T10:04:12Z</time>
      </trkpt>
      <trkpt lat="43.96741" lon="6.50888">
        <ele>912.20001220703</ele>
        <time>2022-08-21T10:04:20Z</time>
      </trkpt>
      <trkpt lat="43.96741" lon="6.50888">
        <ele>912.20001220703</ele>
        <time>2022-08-21T10:04:31Z</time>
      </trkpt>
      <trkpt lat="43.96741" lon="6.50888">
        <ele>912.20001220703</ele>
        <time>2022-08-21T10:04:32Z</time>
      </trkpt>
      <trkpt lat="43.96743" lon="6.50886">
        <ele>912.20001220703</ele>
        <time>2022-08-21T10:04:47Z</time>
      </trkpt>
      <trkpt lat="43.96744" lon="6.50885">
        <ele>912.20001220703</ele>
        <time>2022-08-21T10:04:49Z</time>
      </trkpt>
      <trkpt lat="43.96744" lon="6.50885">
        <ele>912.20001220703</ele>
        <time>2022-08-21T10:04:50Z</time>
      </trkpt>
      <trkpt lat="43.96742" lon="6.50885">
        <ele>912.20001220703</ele>
        <time>2022-08-21T10:04:57Z</time>
      </trkpt>
      <trkpt lat="43.96741" lon="6.50885">
        <ele>912.20001220703</ele>
        <time>2022-08-21T10:04:58Z</time>
      </trkpt>
      <trkpt lat="43.96741" lon="6.50885">
        <ele>912.20001220703</ele>
        <time>2022-08-21T10:05:07Z</time>
      </trkpt>
      <trkpt lat="43.96741" lon="6.50885">
        <ele>912.20001220703</ele>
        <time>2022-08-21T10:05:11Z</time>
      </trkpt>
      <trkpt lat="43.96741" lon="6.50885">
        <ele>912.20001220703</ele>
        <time>2022-08-21T10:05:13Z</time>
      </trkpt>
      <trkpt lat="43.9674" lon="6.50885">
        <ele>912.20001220703</ele>
        <time>2022-08-21T10:05:17Z</time>
      </trkpt>
      <trkpt lat="43.9674" lon="6.50884">
        <ele>912.20001220703</ele>
        <time>2022-08-21T10:05:21Z</time>
      </trkpt>
      <trkpt lat="43.9674" lon="6.50884">
        <ele>912.20001220703</ele>
        <time>2022-08-21T10:05:23Z</time>
      </trkpt>
      <trkpt lat="43.96739" lon="6.50884">
        <ele>912.20001220703</ele>
        <time>2022-08-21T10:05:29Z</time>
      </trkpt>
      <trkpt lat="43.96739" lon="6.50886">
        <ele>912.20001220703</ele>
        <time>2022-08-21T10:05:39Z</time>
      </trkpt>
      <trkpt lat="43.96739" lon="6.50886">
        <ele>912.20001220703</ele>
        <time>2022-08-21T10:05:42Z</time>
      </trkpt>
      <trkpt lat="43.96739" lon="6.5089">
        <ele>912.20001220703</ele>
        <time>2022-08-21T10:05:53Z</time>
      </trkpt>
      <trkpt lat="43.96739" lon="6.5089">
        <ele>912.20001220703</ele>
        <time>2022-08-21T10:05:55Z</time>
      </trkpt>
      <trkpt lat="43.96739" lon="6.5089">
        <ele>912.20001220703</ele>
        <time>2022-08-21T10:05:58Z</time>
      </trkpt>
      <trkpt lat="43.9674" lon="6.50888">
        <ele>912.20001220703</ele>
        <time>2022-08-21T10:06:01Z</time>
      </trkpt>
      <trkpt lat="43.96738" lon="6.50891">
        <ele>912.20001220703</ele>
        <time>2022-08-21T10:06:11Z</time>
      </trkpt>
      <trkpt lat="43.96737" lon="6.5089">
        <ele>912.20001220703</ele>
        <time>2022-08-21T10:06:13Z</time>
      </trkpt>
      <trkpt lat="43.96738" lon="6.5089">
        <ele>912.20001220703</ele>
        <time>2022-08-21T10:06:27Z</time>
      </trkpt>
      <trkpt lat="43.96738" lon="6.5089">
        <ele>912.20001220703</ele>
        <time>2022-08-21T10:06:33Z</time>
      </trkpt>
      <trkpt lat="43.96739" lon="6.5089">
        <ele>912.20001220703</ele>
        <time>2022-08-21T10:06:37Z</time>
      </trkpt>
      <trkpt lat="43.9674" lon="6.50892">
        <ele>912.20001220703</ele>
        <time>2022-08-21T10:06:48Z</time>
      </trkpt>
      <trkpt lat="43.9674" lon="6.50893">
        <ele>912.20001220703</ele>
        <time>2022-08-21T10:06:56Z</time>
      </trkpt>
      <trkpt lat="43.9674" lon="6.50892">
        <ele>912.20001220703</ele>
        <time>2022-08-21T10:07:01Z</time>
      </trkpt>
      <trkpt lat="43.9674" lon="6.50892">
        <ele>912.20001220703</ele>
        <time>2022-08-21T10:07:06Z</time>
      </trkpt>
      <trkpt lat="43.96738" lon="6.5089">
        <ele>912.20001220703</ele>
        <time>2022-08-21T10:07:13Z</time>
      </trkpt>
      <trkpt lat="43.96738" lon="6.5089">
        <ele>912.20001220703</ele>
        <time>2022-08-21T10:07:18Z</time>
      </trkpt>
      <trkpt lat="43.96738" lon="6.5089">
        <ele>912.20001220703</ele>
        <time>2022-08-21T10:07:31Z</time>
      </trkpt>
      <trkpt lat="43.96739" lon="6.50889">
        <ele>912.20001220703</ele>
        <time>2022-08-21T10:07:38Z</time>
      </trkpt>
      <trkpt lat="43.96739" lon="6.50889">
        <ele>912.20001220703</ele>
        <time>2022-08-21T10:07:41Z</time>
      </trkpt>
      <trkpt lat="43.96739" lon="6.50889">
        <ele>912.20001220703</ele>
        <time>2022-08-21T10:07:42Z</time>
      </trkpt>
      <trkpt lat="43.96739" lon="6.50889">
        <ele>912.20001220703</ele>
        <time>2022-08-21T10:07:54Z</time>
      </trkpt>
      <trkpt lat="43.96739" lon="6.50888">
        <ele>912.20001220703</ele>
        <time>2022-08-21T10:08:07Z</time>
      </trkpt>
      <trkpt lat="43.96739" lon="6.50887">
        <ele>912.20001220703</ele>
        <time>2022-08-21T10:08:18Z</time>
      </trkpt>
      <trkpt lat="43.96739" lon="6.50887">
        <ele>912.20001220703</ele>
        <time>2022-08-21T10:08:19Z</time>
      </trkpt>
      <trkpt lat="43.9674" lon="6.50887">
        <ele>912.20001220703</ele>
        <time>2022-08-21T10:08:26Z</time>
      </trkpt>
      <trkpt lat="43.96739" lon="6.50886">
        <ele>912.20001220703</ele>
        <time>2022-08-21T10:08:30Z</time>
      </trkpt>
      <trkpt lat="43.96738" lon="6.50886">
        <ele>912.20001220703</ele>
        <time>2022-08-21T10:08:36Z</time>
      </trkpt>
      <trkpt lat="43.96737" lon="6.50886">
        <ele>912.20001220703</ele>
        <time>2022-08-21T10:08:41Z</time>
      </trkpt>
      <trkpt lat="43.96737" lon="6.50888">
        <ele>912.20001220703</ele>
        <time>2022-08-21T10:08:45Z</time>
      </trkpt>
      <trkpt lat="43.96737" lon="6.50887">
        <ele>912.20001220703</ele>
        <time>2022-08-21T10:08:52Z</time>
      </trkpt>
      <trkpt lat="43.96738" lon="6.50888">
        <ele>912.20001220703</ele>
        <time>2022-08-21T10:08:58Z</time>
      </trkpt>
      <trkpt lat="43.96738" lon="6.50888">
        <ele>912.20001220703</ele>
        <time>2022-08-21T10:09:02Z</time>
      </trkpt>
      <trkpt lat="43.96739" lon="6.50888">
        <ele>912.20001220703</ele>
        <time>2022-08-21T10:09:10Z</time>
      </trkpt>
      <trkpt lat="43.96739" lon="6.50888">
        <ele>912.20001220703</ele>
        <time>2022-08-21T10:09:20Z</time>
      </trkpt>
      <trkpt lat="43.96739" lon="6.50888">
        <ele>912.20001220703</ele>
        <time>2022-08-21T10:09:27Z</time>
      </trkpt>
      <trkpt lat="43.9674" lon="6.50889">
        <ele>912.20001220703</ele>
        <time>2022-08-21T10:09:32Z</time>
      </trkpt>
      <trkpt lat="43.9674" lon="6.50889">
        <ele>912.20001220703</ele>
        <time>2022-08-21T10:09:43Z</time>
      </trkpt>
      <trkpt lat="43.96741" lon="6.50888">
        <ele>912.20001220703</ele>
        <time>2022-08-21T10:09:46Z</time>
      </trkpt>
      <trkpt lat="43.96741" lon="6.50888">
        <ele>912.20001220703</ele>
        <time>2022-08-21T10:09:49Z</time>
      </trkpt>
      <trkpt lat="43.96742" lon="6.50886">
        <ele>912.20001220703</ele>
        <time>2022-08-21T10:09:58Z</time>
      </trkpt>
      <trkpt lat="43.96743" lon="6.50885">
        <ele>912.20001220703</ele>
        <time>2022-08-21T10:10:11Z</time>
      </trkpt>
      <trkpt lat="43.96741" lon="6.50886">
        <ele>912.20001220703</ele>
        <time>2022-08-21T10:10:23Z</time>
      </trkpt>
      <trkpt lat="43.96741" lon="6.50886">
        <ele>912.20001220703</ele>
        <time>2022-08-21T10:10:26Z</time>
      </trkpt>
      <trkpt lat="43.96741" lon="6.50885">
        <ele>912.20001220703</ele>
        <time>2022-08-21T10:10:28Z</time>
      </trkpt>
      <trkpt lat="43.96741" lon="6.50886">
        <ele>912.20001220703</ele>
        <time>2022-08-21T10:10:35Z</time>
      </trkpt>
      <trkpt lat="43.96741" lon="6.50885">
        <ele>912.20001220703</ele>
        <time>2022-08-21T10:10:50Z</time>
      </trkpt>
      <trkpt lat="43.96742" lon="6.50886">
        <ele>912.20001220703</ele>
        <time>2022-08-21T10:11:07Z</time>
      </trkpt>
      <trkpt lat="43.9674" lon="6.50885">
        <ele>912.20001220703</ele>
        <time>2022-08-21T10:11:16Z</time>
      </trkpt>
      <trkpt lat="43.9674" lon="6.50885">
        <ele>912.20001220703</ele>
        <time>2022-08-21T10:11:19Z</time>
      </trkpt>
      <trkpt lat="43.9674" lon="6.50885">
        <ele>912.20001220703</ele>
        <time>2022-08-21T10:11:25Z</time>
      </trkpt>
      <trkpt lat="43.96739" lon="6.50885">
        <ele>912.20001220703</ele>
        <time>2022-08-21T10:11:27Z</time>
      </trkpt>
      <trkpt lat="43.96739" lon="6.50885">
        <ele>912.20001220703</ele>
        <time>2022-08-21T10:11:38Z</time>
      </trkpt>
      <trkpt lat="43.96739" lon="6.50886">
        <ele>912.20001220703</ele>
        <time>2022-08-21T10:11:43Z</time>
      </trkpt>
      <trkpt lat="43.96738" lon="6.50887">
        <ele>912.20001220703</ele>
        <time>2022-08-21T10:11:47Z</time>
      </trkpt>
      <trkpt lat="43.96738" lon="6.50886">
        <ele>912.20001220703</ele>
        <time>2022-08-21T10:11:52Z</time>
      </trkpt>
      <trkpt lat="43.96738" lon="6.50886">
        <ele>912.20001220703</ele>
        <time>2022-08-21T10:11:55Z</time>
      </trkpt>
      <trkpt lat="43.96738" lon="6.50886">
        <ele>912.20001220703</ele>
        <time>2022-08-21T10:12:02Z</time>
      </trkpt>
      <trkpt lat="43.96738" lon="6.50886">
        <ele>912.20001220703</ele>
        <time>2022-08-21T10:12:07Z</time>
      </trkpt>
      <trkpt lat="43.96738" lon="6.50887">
        <ele>912.20001220703</ele>
        <time>2022-08-21T10:12:18Z</time>
      </trkpt>
      <trkpt lat="43.96737" lon="6.50887">
        <ele>912.20001220703</ele>
        <time>2022-08-21T10:12:31Z</time>
      </trkpt>
      <trkpt lat="43.96738" lon="6.50887">
        <ele>912.20001220703</ele>
        <time>2022-08-21T10:12:40Z</time>
      </trkpt>
      <trkpt lat="43.96738" lon="6.50887">
        <ele>912.20001220703</ele>
        <time>2022-08-21T10:12:46Z</time>
      </trkpt>
      <trkpt lat="43.96738" lon="6.50887">
        <ele>912.20001220703</ele>
        <time>2022-08-21T10:12:51Z</time>
      </trkpt>
      <trkpt lat="43.96738" lon="6.50888">
        <ele>912.20001220703</ele>
        <time>2022-08-21T10:13:00Z</time>
      </trkpt>
      <trkpt lat="43.9674" lon="6.50888">
        <ele>912.20001220703</ele>
        <time>2022-08-21T10:13:20Z</time>
      </trkpt>
      <trkpt lat="43.9674" lon="6.5089">
        <ele>912.20001220703</ele>
        <time>2022-08-21T10:13:29Z</time>
      </trkpt>
      <trkpt lat="43.9674" lon="6.50891">
        <ele>912.20001220703</ele>
        <time>2022-08-21T10:13:36Z</time>
      </trkpt>
      <trkpt lat="43.96738" lon="6.5089">
        <ele>912.20001220703</ele>
        <time>2022-08-21T10:13:45Z</time>
      </trkpt>
      <trkpt lat="43.96737" lon="6.50891">
        <ele>912.20001220703</ele>
        <time>2022-08-21T10:13:51Z</time>
      </trkpt>
      <trkpt lat="43.96736" lon="6.5089">
        <ele>912.20001220703</ele>
        <time>2022-08-21T10:13:54Z</time>
      </trkpt>
      <trkpt lat="43.96737" lon="6.5089">
        <ele>912.20001220703</ele>
        <time>2022-08-21T10:14:00Z</time>
      </trkpt>
      <trkpt lat="43.96737" lon="6.50888">
        <ele>912.20001220703</ele>
        <time>2022-08-21T10:14:10Z</time>
      </trkpt>
      <trkpt lat="43.96746" lon="6.50884">
        <ele>912.20001220703</ele>
        <time>2022-08-21T10:14:16Z</time>
      </trkpt>
      <trkpt lat="43.9674" lon="6.50882">
        <ele>912.20001220703</ele>
        <time>2022-08-21T10:14:19Z</time>
      </trkpt>
      <trkpt lat="43.96741" lon="6.50884">
        <ele>912.20001220703</ele>
        <time>2022-08-21T10:14:23Z</time>
      </trkpt>
      <trkpt lat="43.96739" lon="6.50883">
        <ele>912</ele>
        <time>2022-08-21T10:14:33Z</time>
      </trkpt>
      <trkpt lat="43.96741" lon="6.50885">
        <ele>912</ele>
        <time>2022-08-21T10:14:37Z</time>
      </trkpt>
      <trkpt lat="43.9674" lon="6.50885">
        <ele>912.59997558594</ele>
        <time>2022-08-21T10:14:45Z</time>
      </trkpt>
      <trkpt lat="43.96739" lon="6.50884">
        <ele>912.59997558594</ele>
        <time>2022-08-21T10:14:50Z</time>
      </trkpt>
      <trkpt lat="43.96738" lon="6.50885">
        <ele>912.59997558594</ele>
        <time>2022-08-21T10:14:52Z</time>
      </trkpt>
      <trkpt lat="43.96735" lon="6.50887">
        <ele>912.40002441406</ele>
        <time>2022-08-21T10:15:00Z</time>
      </trkpt>
      <trkpt lat="43.96735" lon="6.50887">
        <ele>912.20001220703</ele>
        <time>2022-08-21T10:15:03Z</time>
      </trkpt>
      <trkpt lat="43.96735" lon="6.50887">
        <ele>912.20001220703</ele>
        <time>2022-08-21T10:15:06Z</time>
      </trkpt>
      <trkpt lat="43.9674" lon="6.50885">
        <ele>912.40002441406</ele>
        <time>2022-08-21T10:15:19Z</time>
      </trkpt>
      <trkpt lat="43.9674" lon="6.50885">
        <ele>912.40002441406</ele>
        <time>2022-08-21T10:15:30Z</time>
      </trkpt>
      <trkpt lat="43.96739" lon="6.50886">
        <ele>912.40002441406</ele>
        <time>2022-08-21T10:15:39Z</time>
      </trkpt>
      <trkpt lat="43.9674" lon="6.50886">
        <ele>912.40002441406</ele>
        <time>2022-08-21T10:15:42Z</time>
      </trkpt>
      <trkpt lat="43.9674" lon="6.50886">
        <ele>912.40002441406</ele>
        <time>2022-08-21T10:15:43Z</time>
      </trkpt>
      <trkpt lat="43.9674" lon="6.50886">
        <ele>912.40002441406</ele>
        <time>2022-08-21T10:15:44Z</time>
      </trkpt>
      <trkpt lat="43.96738" lon="6.50887">
        <ele>912.20001220703</ele>
        <time>2022-08-21T10:15:54Z</time>
      </trkpt>
      <trkpt lat="43.96737" lon="6.50885">
        <ele>912.20001220703</ele>
        <time>2022-08-21T10:15:57Z</time>
      </trkpt>
      <trkpt lat="43.96738" lon="6.50885">
        <ele>912.20001220703</ele>
        <time>2022-08-21T10:16:02Z</time>
      </trkpt>
      <trkpt lat="43.96738" lon="6.50885">
        <ele>912</ele>
        <time>2022-08-21T10:16:05Z</time>
      </trkpt>
      <trkpt lat="43.96739" lon="6.50886">
        <ele>912</ele>
        <time>2022-08-21T10:16:15Z</time>
      </trkpt>
      <trkpt lat="43.96739" lon="6.50886">
        <ele>912</ele>
        <time>2022-08-21T10:16:29Z</time>
      </trkpt>
      <trkpt lat="43.96739" lon="6.50888">
        <ele>912</ele>
        <time>2022-08-21T10:16:44Z</time>
      </trkpt>
      <trkpt lat="43.96741" lon="6.50887">
        <ele>912</ele>
        <time>2022-08-21T10:16:47Z</time>
      </trkpt>
      <trkpt lat="43.96741" lon="6.50888">
        <ele>912</ele>
        <time>2022-08-21T10:16:54Z</time>
      </trkpt>
      <trkpt lat="43.96741" lon="6.50889">
        <ele>912</ele>
        <time>2022-08-21T10:16:58Z</time>
      </trkpt>
      <trkpt lat="43.96741" lon="6.50889">
        <ele>912</ele>
        <time>2022-08-21T10:17:06Z</time>
      </trkpt>
      <trkpt lat="43.96741" lon="6.50889">
        <ele>912</ele>
        <time>2022-08-21T10:17:12Z</time>
      </trkpt>
      <trkpt lat="43.96741" lon="6.5089">
        <ele>912</ele>
        <time>2022-08-21T10:17:14Z</time>
      </trkpt>
      <trkpt lat="43.9674" lon="6.50889">
        <ele>912</ele>
        <time>2022-08-21T10:17:17Z</time>
      </trkpt>
      <trkpt lat="43.96741" lon="6.50889">
        <ele>912</ele>
        <time>2022-08-21T10:17:22Z</time>
      </trkpt>
      <trkpt lat="43.9674" lon="6.50889">
        <ele>912</ele>
        <time>2022-08-21T10:17:24Z</time>
      </trkpt>
      <trkpt lat="43.96737" lon="6.50889">
        <ele>912</ele>
        <time>2022-08-21T10:17:36Z</time>
      </trkpt>
      <trkpt lat="43.96739" lon="6.50887">
        <ele>912</ele>
        <time>2022-08-21T10:17:44Z</time>
      </trkpt>
      <trkpt lat="43.96739" lon="6.50887">
        <ele>912</ele>
        <time>2022-08-21T10:17:49Z</time>
      </trkpt>
      <trkpt lat="43.96741" lon="6.5089">
        <ele>912</ele>
        <time>2022-08-21T10:18:02Z</time>
      </trkpt>
      <trkpt lat="43.96742" lon="6.50889">
        <ele>912</ele>
        <time>2022-08-21T10:18:07Z</time>
      </trkpt>
      <trkpt lat="43.96743" lon="6.5089">
        <ele>912</ele>
        <time>2022-08-21T10:18:14Z</time>
      </trkpt>
      <trkpt lat="43.96743" lon="6.50891">
        <ele>912</ele>
        <time>2022-08-21T10:18:26Z</time>
      </trkpt>
      <trkpt lat="43.96743" lon="6.50891">
        <ele>912</ele>
        <time>2022-08-21T10:18:31Z</time>
      </trkpt>
      <trkpt lat="43.96744" lon="6.50891">
        <ele>912</ele>
        <time>2022-08-21T10:18:34Z</time>
      </trkpt>
      <trkpt lat="43.96743" lon="6.5089">
        <ele>912</ele>
        <time>2022-08-21T10:18:40Z</time>
      </trkpt>
      <trkpt lat="43.96742" lon="6.50891">
        <ele>912</ele>
        <time>2022-08-21T10:18:49Z</time>
      </trkpt>
      <trkpt lat="43.96742" lon="6.50891">
        <ele>912</ele>
        <time>2022-08-21T10:18:51Z</time>
      </trkpt>
      <trkpt lat="43.96742" lon="6.5089">
        <ele>912</ele>
        <time>2022-08-21T10:18:59Z</time>
      </trkpt>
      <trkpt lat="43.96742" lon="6.5089">
        <ele>912</ele>
        <time>2022-08-21T10:19:06Z</time>
      </trkpt>
      <trkpt lat="43.96741" lon="6.50889">
        <ele>912</ele>
        <time>2022-08-21T10:19:09Z</time>
      </trkpt>
      <trkpt lat="43.96741" lon="6.50889">
        <ele>912</ele>
        <time>2022-08-21T10:19:18Z</time>
      </trkpt>
      <trkpt lat="43.9674" lon="6.5089">
        <ele>912</ele>
        <time>2022-08-21T10:19:26Z</time>
      </trkpt>
      <trkpt lat="43.96739" lon="6.50891">
        <ele>912</ele>
        <time>2022-08-21T10:19:33Z</time>
      </trkpt>
      <trkpt lat="43.96738" lon="6.50891">
        <ele>912</ele>
        <time>2022-08-21T10:19:34Z</time>
      </trkpt>
      <trkpt lat="43.96739" lon="6.50888">
        <ele>912</ele>
        <time>2022-08-21T10:19:37Z</time>
      </trkpt>
      <trkpt lat="43.96741" lon="6.50886">
        <ele>912</ele>
        <time>2022-08-21T10:19:44Z</time>
      </trkpt>
      <trkpt lat="43.96741" lon="6.50885">
        <ele>912</ele>
        <time>2022-08-21T10:19:46Z</time>
      </trkpt>
      <trkpt lat="43.96741" lon="6.50887">
        <ele>912</ele>
        <time>2022-08-21T10:19:56Z</time>
      </trkpt>
      <trkpt lat="43.96739" lon="6.50888">
        <ele>912</ele>
        <time>2022-08-21T10:20:02Z</time>
      </trkpt>
      <trkpt lat="43.96739" lon="6.50888">
        <ele>912</ele>
        <time>2022-08-21T10:20:03Z</time>
      </trkpt>
      <trkpt lat="43.96739" lon="6.50888">
        <ele>912</ele>
        <time>2022-08-21T10:20:04Z</time>
      </trkpt>
      <trkpt lat="43.96739" lon="6.50888">
        <ele>912</ele>
        <time>2022-08-21T10:20:06Z</time>
      </trkpt>
      <trkpt lat="43.96739" lon="6.50888">
        <ele>912</ele>
        <time>2022-08-21T10:20:07Z</time>
      </trkpt>
      <trkpt lat="43.96738" lon="6.50888">
        <ele>912</ele>
        <time>2022-08-21T10:20:17Z</time>
      </trkpt>
      <trkpt lat="43.96735" lon="6.50887">
        <ele>912</ele>
        <time>2022-08-21T10:20:36Z</time>
      </trkpt>
      <trkpt lat="43.96734" lon="6.50884">
        <ele>912</ele>
        <time>2022-08-21T10:20:47Z</time>
      </trkpt>
      <trkpt lat="43.96736" lon="6.50884">
        <ele>912</ele>
        <time>2022-08-21T10:20:55Z</time>
      </trkpt>
      <trkpt lat="43.96733" lon="6.5089">
        <ele>912</ele>
        <time>2022-08-21T10:21:03Z</time>
      </trkpt>
      <trkpt lat="43.96734" lon="6.50889">
        <ele>912</ele>
        <time>2022-08-21T10:21:12Z</time>
      </trkpt>
      <trkpt lat="43.96731" lon="6.50894">
        <ele>912</ele>
        <time>2022-08-21T10:21:20Z</time>
      </trkpt>
      <trkpt lat="43.96733" lon="6.50892">
        <ele>912</ele>
        <time>2022-08-21T10:21:31Z</time>
      </trkpt>
      <trkpt lat="43.96734" lon="6.50891">
        <ele>912</ele>
        <time>2022-08-21T10:21:35Z</time>
      </trkpt>
      <trkpt lat="43.96734" lon="6.50891">
        <ele>912</ele>
        <time>2022-08-21T10:21:39Z</time>
      </trkpt>
      <trkpt lat="43.96741" lon="6.50885">
        <ele>912</ele>
        <time>2022-08-21T10:21:50Z</time>
      </trkpt>
      <trkpt lat="43.96733" lon="6.50879">
        <ele>912</ele>
        <time>2022-08-21T10:21:56Z</time>
      </trkpt>
      <trkpt lat="43.96733" lon="6.50879">
        <ele>912</ele>
        <time>2022-08-21T10:22:01Z</time>
      </trkpt>
      <trkpt lat="43.96736" lon="6.50882">
        <ele>912</ele>
        <time>2022-08-21T10:22:05Z</time>
      </trkpt>
      <trkpt lat="43.96736" lon="6.50882">
        <ele>912</ele>
        <time>2022-08-21T10:22:06Z</time>
      </trkpt>
      <trkpt lat="43.96734" lon="6.50886">
        <ele>912</ele>
        <time>2022-08-21T10:22:12Z</time>
      </trkpt>
      <trkpt lat="43.96736" lon="6.50886">
        <ele>912</ele>
        <time>2022-08-21T10:22:16Z</time>
      </trkpt>
      <trkpt lat="43.96737" lon="6.50886">
        <ele>912</ele>
        <time>2022-08-21T10:22:24Z</time>
      </trkpt>
      <trkpt lat="43.96738" lon="6.50884">
        <ele>912</ele>
        <time>2022-08-21T10:22:41Z</time>
      </trkpt>
      <trkpt lat="43.96738" lon="6.50884">
        <ele>912</ele>
        <time>2022-08-21T10:22:44Z</time>
      </trkpt>
      <trkpt lat="43.96738" lon="6.50884">
        <ele>912</ele>
        <time>2022-08-21T10:22:49Z</time>
      </trkpt>
      <trkpt lat="43.96738" lon="6.50883">
        <ele>912</ele>
        <time>2022-08-21T10:22:54Z</time>
      </trkpt>
      <trkpt lat="43.96739" lon="6.50883">
        <ele>912</ele>
        <time>2022-08-21T10:23:05Z</time>
      </trkpt>
      <trkpt lat="43.96739" lon="6.50884">
        <ele>912</ele>
        <time>2022-08-21T10:23:11Z</time>
      </trkpt>
      <trkpt lat="43.96739" lon="6.50884">
        <ele>912</ele>
        <time>2022-08-21T10:23:18Z</time>
      </trkpt>
      <trkpt lat="43.96739" lon="6.50884">
        <ele>912</ele>
        <time>2022-08-21T10:23:22Z</time>
      </trkpt>
      <trkpt lat="43.96739" lon="6.50883">
        <ele>912</ele>
        <time>2022-08-21T10:23:35Z</time>
      </trkpt>
      <trkpt lat="43.96739" lon="6.50883">
        <ele>912</ele>
        <time>2022-08-21T10:23:42Z</time>
      </trkpt>
      <trkpt lat="43.9674" lon="6.50884">
        <ele>912</ele>
        <time>2022-08-21T10:23:49Z</time>
      </trkpt>
      <trkpt lat="43.96739" lon="6.50884">
        <ele>912</ele>
        <time>2022-08-21T10:23:57Z</time>
      </trkpt>
      <trkpt lat="43.96735" lon="6.50885">
        <ele>912</ele>
        <time>2022-08-21T10:24:07Z</time>
      </trkpt>
      <trkpt lat="43.96732" lon="6.50887">
        <ele>912</ele>
        <time>2022-08-21T10:24:16Z</time>
      </trkpt>
      <trkpt lat="43.96732" lon="6.50888">
        <ele>912</ele>
        <time>2022-08-21T10:24:22Z</time>
      </trkpt>
      <trkpt lat="43.96734" lon="6.50887">
        <ele>912</ele>
        <time>2022-08-21T10:24:24Z</time>
      </trkpt>
      <trkpt lat="43.96732" lon="6.50888">
        <ele>912</ele>
        <time>2022-08-21T10:24:33Z</time>
      </trkpt>
      <trkpt lat="43.96729" lon="6.50886">
        <ele>912</ele>
        <time>2022-08-21T10:24:41Z</time>
      </trkpt>
      <trkpt lat="43.96731" lon="6.50884">
        <ele>912</ele>
        <time>2022-08-21T10:24:47Z</time>
      </trkpt>
      <trkpt lat="43.9673" lon="6.50888">
        <ele>912</ele>
        <time>2022-08-21T10:24:57Z</time>
      </trkpt>
      <trkpt lat="43.9673" lon="6.50891">
        <ele>912</ele>
        <time>2022-08-21T10:25:02Z</time>
      </trkpt>
      <trkpt lat="43.96733" lon="6.50889">
        <ele>912</ele>
        <time>2022-08-21T10:25:13Z</time>
      </trkpt>
      <trkpt lat="43.96735" lon="6.50889">
        <ele>912</ele>
        <time>2022-08-21T10:25:20Z</time>
      </trkpt>
      <trkpt lat="43.96737" lon="6.50889">
        <ele>912</ele>
        <time>2022-08-21T10:25:29Z</time>
      </trkpt>
      <trkpt lat="43.9674" lon="6.50889">
        <ele>912</ele>
        <time>2022-08-21T10:25:34Z</time>
      </trkpt>
      <trkpt lat="43.9674" lon="6.5089">
        <ele>912</ele>
        <time>2022-08-21T10:25:39Z</time>
      </trkpt>
      <trkpt lat="43.96744" lon="6.50888">
        <ele>912</ele>
        <time>2022-08-21T10:25:47Z</time>
      </trkpt>
      <trkpt lat="43.96744" lon="6.50888">
        <ele>912</ele>
        <time>2022-08-21T10:25:54Z</time>
      </trkpt>
      <trkpt lat="43.96744" lon="6.50888">
        <ele>912</ele>
        <time>2022-08-21T10:25:55Z</time>
      </trkpt>
      <trkpt lat="43.96744" lon="6.50889">
        <ele>912</ele>
        <time>2022-08-21T10:26:01Z</time>
      </trkpt>
      <trkpt lat="43.96743" lon="6.50889">
        <ele>912</ele>
        <time>2022-08-21T10:26:07Z</time>
      </trkpt>
      <trkpt lat="43.96741" lon="6.50892">
        <ele>912</ele>
        <time>2022-08-21T10:26:24Z</time>
      </trkpt>
      <trkpt lat="43.9674" lon="6.5089">
        <ele>912</ele>
        <time>2022-08-21T10:26:27Z</time>
      </trkpt>
      <trkpt lat="43.96738" lon="6.50889">
        <ele>912</ele>
        <time>2022-08-21T10:26:33Z</time>
      </trkpt>
      <trkpt lat="43.96738" lon="6.50889">
        <ele>912</ele>
        <time>2022-08-21T10:26:34Z</time>
      </trkpt>
      <trkpt lat="43.96737" lon="6.50888">
        <ele>912</ele>
        <time>2022-08-21T10:26:36Z</time>
      </trkpt>
      <trkpt lat="43.96734" lon="6.50888">
        <ele>912</ele>
        <time>2022-08-21T10:26:39Z</time>
      </trkpt>
      <trkpt lat="43.96729" lon="6.50888">
        <ele>912</ele>
        <time>2022-08-21T10:26:47Z</time>
      </trkpt>
      <trkpt lat="43.96729" lon="6.50887">
        <ele>912</ele>
        <time>2022-08-21T10:26:49Z</time>
      </trkpt>
      <trkpt lat="43.96728" lon="6.50886">
        <ele>912</ele>
        <time>2022-08-21T10:26:56Z</time>
      </trkpt>
      <trkpt lat="43.96728" lon="6.50885">
        <ele>912</ele>
        <time>2022-08-21T10:27:03Z</time>
      </trkpt>
      <trkpt lat="43.96734" lon="6.50886">
        <ele>912</ele>
        <time>2022-08-21T10:27:12Z</time>
      </trkpt>
      <trkpt lat="43.96738" lon="6.50885">
        <ele>912</ele>
        <time>2022-08-21T10:27:17Z</time>
      </trkpt>
      <trkpt lat="43.96738" lon="6.50885">
        <ele>912</ele>
        <time>2022-08-21T10:27:21Z</time>
      </trkpt>
      <trkpt lat="43.96738" lon="6.50885">
        <ele>912</ele>
        <time>2022-08-21T10:27:24Z</time>
      </trkpt>
      <trkpt lat="43.96738" lon="6.50885">
        <ele>912</ele>
        <time>2022-08-21T10:27:28Z</time>
      </trkpt>
      <trkpt lat="43.96738" lon="6.50885">
        <ele>912</ele>
        <time>2022-08-21T10:27:31Z</time>
      </trkpt>
      <trkpt lat="43.96739" lon="6.50885">
        <ele>912</ele>
        <time>2022-08-21T10:27:33Z</time>
      </trkpt>
      <trkpt lat="43.96739" lon="6.50885">
        <ele>912</ele>
        <time>2022-08-21T10:27:42Z</time>
      </trkpt>
      <trkpt lat="43.9674" lon="6.50885">
        <ele>912</ele>
        <time>2022-08-21T10:27:48Z</time>
      </trkpt>
      <trkpt lat="43.9674" lon="6.50886">
        <ele>912</ele>
        <time>2022-08-21T10:27:55Z</time>
      </trkpt>
      <trkpt lat="43.9674" lon="6.50887">
        <ele>912</ele>
        <time>2022-08-21T10:27:59Z</time>
      </trkpt>
      <trkpt lat="43.9674" lon="6.50887">
        <ele>912</ele>
        <time>2022-08-21T10:28:02Z</time>
      </trkpt>
      <trkpt lat="43.96739" lon="6.50887">
        <ele>912</ele>
        <time>2022-08-21T10:28:04Z</time>
      </trkpt>
      <trkpt lat="43.96739" lon="6.50887">
        <ele>912</ele>
        <time>2022-08-21T10:28:06Z</time>
      </trkpt>
      <trkpt lat="43.96739" lon="6.50887">
        <ele>912</ele>
        <time>2022-08-21T10:28:08Z</time>
      </trkpt>
      <trkpt lat="43.96741" lon="6.50885">
        <ele>912</ele>
        <time>2022-08-21T10:28:16Z</time>
      </trkpt>
      <trkpt lat="43.96743" lon="6.50884">
        <ele>912</ele>
        <time>2022-08-21T10:28:21Z</time>
      </trkpt>
      <trkpt lat="43.96744" lon="6.50885">
        <ele>912</ele>
        <time>2022-08-21T10:28:28Z</time>
      </trkpt>
      <trkpt lat="43.96743" lon="6.50886">
        <ele>912</ele>
        <time>2022-08-21T10:28:33Z</time>
      </trkpt>
      <trkpt lat="43.96743" lon="6.50886">
        <ele>912</ele>
        <time>2022-08-21T10:28:35Z</time>
      </trkpt>
      <trkpt lat="43.96743" lon="6.50886">
        <ele>912</ele>
        <time>2022-08-21T10:28:39Z</time>
      </trkpt>
      <trkpt lat="43.96743" lon="6.50886">
        <ele>912</ele>
        <time>2022-08-21T10:28:46Z</time>
      </trkpt>
      <trkpt lat="43.96742" lon="6.50886">
        <ele>912</ele>
        <time>2022-08-21T10:28:55Z</time>
      </trkpt>
      <trkpt lat="43.96742" lon="6.50885">
        <ele>912</ele>
        <time>2022-08-21T10:29:03Z</time>
      </trkpt>
      <trkpt lat="43.96742" lon="6.50885">
        <ele>912</ele>
        <time>2022-08-21T10:29:16Z</time>
      </trkpt>
      <trkpt lat="43.96742" lon="6.50884">
        <ele>912</ele>
        <time>2022-08-21T10:29:20Z</time>
      </trkpt>
      <trkpt lat="43.96742" lon="6.50886">
        <ele>912</ele>
        <time>2022-08-21T10:29:31Z</time>
      </trkpt>
      <trkpt lat="43.96742" lon="6.50888">
        <ele>912</ele>
        <time>2022-08-21T10:29:36Z</time>
      </trkpt>
      <trkpt lat="43.96741" lon="6.50887">
        <ele>912</ele>
        <time>2022-08-21T10:29:41Z</time>
      </trkpt>
      <trkpt lat="43.96742" lon="6.50888">
        <ele>912</ele>
        <time>2022-08-21T10:29:56Z</time>
      </trkpt>
      <trkpt lat="43.96742" lon="6.50889">
        <ele>912</ele>
        <time>2022-08-21T10:30:15Z</time>
      </trkpt>
      <trkpt lat="43.96739" lon="6.50892">
        <ele>912</ele>
        <time>2022-08-21T10:30:28Z</time>
      </trkpt>
      <trkpt lat="43.96739" lon="6.50893">
        <ele>912</ele>
        <time>2022-08-21T10:30:30Z</time>
      </trkpt>
      <trkpt lat="43.96739" lon="6.50894">
        <ele>912</ele>
        <time>2022-08-21T10:30:36Z</time>
      </trkpt>
      <trkpt lat="43.96738" lon="6.50895">
        <ele>912</ele>
        <time>2022-08-21T10:30:48Z</time>
      </trkpt>
      <trkpt lat="43.96738" lon="6.50895">
        <ele>912</ele>
        <time>2022-08-21T10:31:01Z</time>
      </trkpt>
      <trkpt lat="43.96738" lon="6.50895">
        <ele>912</ele>
        <time>2022-08-21T10:31:02Z</time>
      </trkpt>
      <trkpt lat="43.96739" lon="6.50889">
        <ele>912</ele>
        <time>2022-08-21T10:31:17Z</time>
      </trkpt>
      <trkpt lat="43.96739" lon="6.50888">
        <ele>912</ele>
        <time>2022-08-21T10:31:25Z</time>
      </trkpt>
      <trkpt lat="43.96739" lon="6.50888">
        <ele>912</ele>
        <time>2022-08-21T10:31:31Z</time>
      </trkpt>
      <trkpt lat="43.9674" lon="6.50887">
        <ele>912</ele>
        <time>2022-08-21T10:31:33Z</time>
      </trkpt>
      <trkpt lat="43.9674" lon="6.50887">
        <ele>912</ele>
        <time>2022-08-21T10:31:42Z</time>
      </trkpt>
      <trkpt lat="43.9674" lon="6.50887">
        <ele>912</ele>
        <time>2022-08-21T10:31:44Z</time>
      </trkpt>
      <trkpt lat="43.96738" lon="6.5089">
        <ele>912</ele>
        <time>2022-08-21T10:32:00Z</time>
      </trkpt>
      <trkpt lat="43.96738" lon="6.5089">
        <ele>912</ele>
        <time>2022-08-21T10:32:05Z</time>
      </trkpt>
      <trkpt lat="43.96738" lon="6.50888">
        <ele>912</ele>
        <time>2022-08-21T10:32:19Z</time>
      </trkpt>
      <trkpt lat="43.96738" lon="6.50888">
        <ele>912</ele>
        <time>2022-08-21T10:32:20Z</time>
      </trkpt>
      <trkpt lat="43.96739" lon="6.50887">
        <ele>912</ele>
        <time>2022-08-21T10:32:28Z</time>
      </trkpt>
      <trkpt lat="43.96738" lon="6.50886">
        <ele>912</ele>
        <time>2022-08-21T10:32:34Z</time>
      </trkpt>
      <trkpt lat="43.96738" lon="6.50886">
        <ele>912</ele>
        <time>2022-08-21T10:32:38Z</time>
      </trkpt>
      <trkpt lat="43.96739" lon="6.50886">
        <ele>912</ele>
        <time>2022-08-21T10:32:49Z</time>
      </trkpt>
      <trkpt lat="43.96739" lon="6.50886">
        <ele>912</ele>
        <time>2022-08-21T10:32:51Z</time>
      </trkpt>
      <trkpt lat="43.96739" lon="6.50885">
        <ele>912</ele>
        <time>2022-08-21T10:33:03Z</time>
      </trkpt>
      <trkpt lat="43.96739" lon="6.50883">
        <ele>912</ele>
        <time>2022-08-21T10:33:20Z</time>
      </trkpt>
      <trkpt lat="43.96739" lon="6.50884">
        <ele>912</ele>
        <time>2022-08-21T10:33:38Z</time>
      </trkpt>
      <trkpt lat="43.96738" lon="6.50885">
        <ele>912</ele>
        <time>2022-08-21T10:33:51Z</time>
      </trkpt>
      <trkpt lat="43.96739" lon="6.50885">
        <ele>912</ele>
        <time>2022-08-21T10:33:53Z</time>
      </trkpt>
      <trkpt lat="43.9674" lon="6.50884">
        <ele>912</ele>
        <time>2022-08-21T10:33:57Z</time>
      </trkpt>
      <trkpt lat="43.96741" lon="6.50885">
        <ele>912</ele>
        <time>2022-08-21T10:34:05Z</time>
      </trkpt>
      <trkpt lat="43.96741" lon="6.50885">
        <ele>912</ele>
        <time>2022-08-21T10:34:07Z</time>
      </trkpt>
      <trkpt lat="43.96741" lon="6.50886">
        <ele>912</ele>
        <time>2022-08-21T10:34:17Z</time>
      </trkpt>
      <trkpt lat="43.96742" lon="6.50886">
        <ele>912</ele>
        <time>2022-08-21T10:34:32Z</time>
      </trkpt>
      <trkpt lat="43.96745" lon="6.50883">
        <ele>912</ele>
        <time>2022-08-21T10:34:40Z</time>
      </trkpt>
      <trkpt lat="43.96746" lon="6.50881">
        <ele>912</ele>
        <time>2022-08-21T10:34:53Z</time>
      </trkpt>
      <trkpt lat="43.96745" lon="6.50882">
        <ele>912</ele>
        <time>2022-08-21T10:35:02Z</time>
      </trkpt>
      <trkpt lat="43.96745" lon="6.50882">
        <ele>912</ele>
        <time>2022-08-21T10:35:08Z</time>
      </trkpt>
      <trkpt lat="43.96742" lon="6.50888">
        <ele>912</ele>
        <time>2022-08-21T10:35:21Z</time>
      </trkpt>
      <trkpt lat="43.96744" lon="6.50887">
        <ele>912</ele>
        <time>2022-08-21T10:35:29Z</time>
      </trkpt>
      <trkpt lat="43.96743" lon="6.50885">
        <ele>912</ele>
        <time>2022-08-21T10:35:36Z</time>
      </trkpt>
      <trkpt lat="43.9674" lon="6.50886">
        <ele>912</ele>
        <time>2022-08-21T10:35:47Z</time>
      </trkpt>
      <trkpt lat="43.9674" lon="6.50888">
        <ele>912</ele>
        <time>2022-08-21T10:35:54Z</time>
      </trkpt>
      <trkpt lat="43.9674" lon="6.50887">
        <ele>912</ele>
        <time>2022-08-21T10:36:01Z</time>
      </trkpt>
      <trkpt lat="43.9674" lon="6.50886">
        <ele>912</ele>
        <time>2022-08-21T10:36:13Z</time>
      </trkpt>
      <trkpt lat="43.9674" lon="6.50886">
        <ele>912</ele>
        <time>2022-08-21T10:36:15Z</time>
      </trkpt>
      <trkpt lat="43.96739" lon="6.50886">
        <ele>912</ele>
        <time>2022-08-21T10:36:26Z</time>
      </trkpt>
      <trkpt lat="43.96739" lon="6.50888">
        <ele>912</ele>
        <time>2022-08-21T10:36:37Z</time>
      </trkpt>
      <trkpt lat="43.96739" lon="6.50887">
        <ele>912</ele>
        <time>2022-08-21T10:36:47Z</time>
      </trkpt>
      <trkpt lat="43.96739" lon="6.50888">
        <ele>912</ele>
        <time>2022-08-21T10:36:57Z</time>
      </trkpt>
      <trkpt lat="43.96741" lon="6.50887">
        <ele>912</ele>
        <time>2022-08-21T10:37:07Z</time>
      </trkpt>
      <trkpt lat="43.96742" lon="6.50888">
        <ele>912</ele>
        <time>2022-08-21T10:37:20Z</time>
      </trkpt>
      <trkpt lat="43.96739" lon="6.50889">
        <ele>912</ele>
        <time>2022-08-21T10:37:26Z</time>
      </trkpt>
      <trkpt lat="43.96739" lon="6.50887">
        <ele>912</ele>
        <time>2022-08-21T10:37:30Z</time>
      </trkpt>
      <trkpt lat="43.96743" lon="6.50888">
        <ele>912</ele>
        <time>2022-08-21T10:37:39Z</time>
      </trkpt>
      <trkpt lat="43.96743" lon="6.50888">
        <ele>912</ele>
        <time>2022-08-21T10:37:44Z</time>
      </trkpt>
      <trkpt lat="43.96744" lon="6.50888">
        <ele>912</ele>
        <time>2022-08-21T10:37:48Z</time>
      </trkpt>
      <trkpt lat="43.96744" lon="6.50889">
        <ele>912</ele>
        <time>2022-08-21T10:37:53Z</time>
      </trkpt>
      <trkpt lat="43.96744" lon="6.50887">
        <ele>912</ele>
        <time>2022-08-21T10:38:00Z</time>
      </trkpt>
      <trkpt lat="43.96748" lon="6.50886">
        <ele>912</ele>
        <time>2022-08-21T10:38:10Z</time>
      </trkpt>
      <trkpt lat="43.96748" lon="6.50886">
        <ele>912</ele>
        <time>2022-08-21T10:38:13Z</time>
      </trkpt>
      <trkpt lat="43.96748" lon="6.50887">
        <ele>912</ele>
        <time>2022-08-21T10:38:17Z</time>
      </trkpt>
      <trkpt lat="43.96747" lon="6.50887">
        <ele>912</ele>
        <time>2022-08-21T10:38:24Z</time>
      </trkpt>
      <trkpt lat="43.96747" lon="6.50887">
        <ele>912</ele>
        <time>2022-08-21T10:38:26Z</time>
      </trkpt>
      <trkpt lat="43.96746" lon="6.50886">
        <ele>912</ele>
        <time>2022-08-21T10:38:37Z</time>
      </trkpt>
      <trkpt lat="43.96746" lon="6.50886">
        <ele>912</ele>
        <time>2022-08-21T10:38:40Z</time>
      </trkpt>
      <trkpt lat="43.96745" lon="6.50885">
        <ele>912</ele>
        <time>2022-08-21T10:38:50Z</time>
      </trkpt>
      <trkpt lat="43.96745" lon="6.50887">
        <ele>912</ele>
        <time>2022-08-21T10:39:00Z</time>
      </trkpt>
      <trkpt lat="43.96745" lon="6.50887">
        <ele>912</ele>
        <time>2022-08-21T10:39:07Z</time>
      </trkpt>
      <trkpt lat="43.96744" lon="6.50888">
        <ele>912</ele>
        <time>2022-08-21T10:39:09Z</time>
      </trkpt>
      <trkpt lat="43.96741" lon="6.50889">
        <ele>912</ele>
        <time>2022-08-21T10:39:21Z</time>
      </trkpt>
      <trkpt lat="43.96745" lon="6.50885">
        <ele>912</ele>
        <time>2022-08-21T10:39:28Z</time>
      </trkpt>
      <trkpt lat="43.96747" lon="6.50883">
        <ele>912</ele>
        <time>2022-08-21T10:39:32Z</time>
      </trkpt>
      <trkpt lat="43.96747" lon="6.50883">
        <ele>912</ele>
        <time>2022-08-21T10:39:34Z</time>
      </trkpt>
      <trkpt lat="43.96747" lon="6.50883">
        <ele>912</ele>
        <time>2022-08-21T10:39:36Z</time>
      </trkpt>
      <trkpt lat="43.96747" lon="6.50883">
        <ele>912</ele>
        <time>2022-08-21T10:39:37Z</time>
      </trkpt>
      <trkpt lat="43.96747" lon="6.50883">
        <ele>912</ele>
        <time>2022-08-21T10:39:39Z</time>
      </trkpt>
      <trkpt lat="43.96748" lon="6.50882">
        <ele>912</ele>
        <time>2022-08-21T10:39:47Z</time>
      </trkpt>
      <trkpt lat="43.96748" lon="6.50882">
        <ele>912</ele>
        <time>2022-08-21T10:39:50Z</time>
      </trkpt>
      <trkpt lat="43.96748" lon="6.50881">
        <ele>912</ele>
        <time>2022-08-21T10:40:00Z</time>
      </trkpt>
      <trkpt lat="43.96744" lon="6.50883">
        <ele>912</ele>
        <time>2022-08-21T10:40:11Z</time>
      </trkpt>
      <trkpt lat="43.96743" lon="6.50883">
        <ele>912</ele>
        <time>2022-08-21T10:40:13Z</time>
      </trkpt>
      <trkpt lat="43.96741" lon="6.50883">
        <ele>912</ele>
        <time>2022-08-21T10:40:19Z</time>
      </trkpt>
      <trkpt lat="43.96741" lon="6.50883">
        <ele>912</ele>
        <time>2022-08-21T10:40:26Z</time>
      </trkpt>
      <trkpt lat="43.96741" lon="6.50883">
        <ele>912</ele>
        <time>2022-08-21T10:40:27Z</time>
      </trkpt>
      <trkpt lat="43.96742" lon="6.50885">
        <ele>912</ele>
        <time>2022-08-21T10:40:38Z</time>
      </trkpt>
      <trkpt lat="43.96741" lon="6.50884">
        <ele>912</ele>
        <time>2022-08-21T10:40:51Z</time>
      </trkpt>
      <trkpt lat="43.96741" lon="6.50886">
        <ele>912</ele>
        <time>2022-08-21T10:40:59Z</time>
      </trkpt>
      <trkpt lat="43.96741" lon="6.50886">
        <ele>912</ele>
        <time>2022-08-21T10:41:00Z</time>
      </trkpt>
      <trkpt lat="43.96738" lon="6.5089">
        <ele>912</ele>
        <time>2022-08-21T10:41:10Z</time>
      </trkpt>
      <trkpt lat="43.96737" lon="6.50899">
        <ele>912</ele>
        <time>2022-08-21T10:41:17Z</time>
      </trkpt>
      <trkpt lat="43.96737" lon="6.509">
        <ele>912</ele>
        <time>2022-08-21T10:41:18Z</time>
      </trkpt>
      <trkpt lat="43.96738" lon="6.50901">
        <ele>912.20001220703</ele>
        <time>2022-08-21T10:41:19Z</time>
      </trkpt>
      <trkpt lat="43.96742" lon="6.50904">
        <ele>912</ele>
        <time>2022-08-21T10:41:24Z</time>
      </trkpt>
      <trkpt lat="43.96743" lon="6.50905">
        <ele>912</ele>
        <time>2022-08-21T10:41:26Z</time>
      </trkpt>
      <trkpt lat="43.96743" lon="6.50905">
        <ele>912</ele>
        <time>2022-08-21T10:41:31Z</time>
      </trkpt>
      <trkpt lat="43.96743" lon="6.50904">
        <ele>912</ele>
        <time>2022-08-21T10:41:39Z</time>
      </trkpt>
      <trkpt lat="43.96742" lon="6.50907">
        <ele>912</ele>
        <time>2022-08-21T10:41:46Z</time>
      </trkpt>
      <trkpt lat="43.96742" lon="6.50905">
        <ele>912</ele>
        <time>2022-08-21T10:41:48Z</time>
      </trkpt>
      <trkpt lat="43.96742" lon="6.50903">
        <ele>912.20001220703</ele>
        <time>2022-08-21T10:41:51Z</time>
      </trkpt>
      <trkpt lat="43.96738" lon="6.50895">
        <ele>912.20001220703</ele>
        <time>2022-08-21T10:42:00Z</time>
      </trkpt>
      <trkpt lat="43.96738" lon="6.50892">
        <ele>912</ele>
        <time>2022-08-21T10:42:08Z</time>
      </trkpt>
      <trkpt lat="43.96738" lon="6.50892">
        <ele>911.79998779297</ele>
        <time>2022-08-21T10:42:13Z</time>
      </trkpt>
      <trkpt lat="43.96738" lon="6.50892">
        <ele>911.59997558594</ele>
        <time>2022-08-21T10:42:18Z</time>
      </trkpt>
      <trkpt lat="43.96738" lon="6.50891">
        <ele>911.79998779297</ele>
        <time>2022-08-21T10:42:24Z</time>
      </trkpt>
      <trkpt lat="43.96738" lon="6.50891">
        <ele>911.40002441406</ele>
        <time>2022-08-21T10:42:32Z</time>
      </trkpt>
      <trkpt lat="43.96739" lon="6.50891">
        <ele>911.40002441406</ele>
        <time>2022-08-21T10:42:36Z</time>
      </trkpt>
      <trkpt lat="43.9674" lon="6.5089">
        <ele>911.40002441406</ele>
        <time>2022-08-21T10:42:47Z</time>
      </trkpt>
      <trkpt lat="43.9674" lon="6.5089">
        <ele>911.40002441406</ele>
        <time>2022-08-21T10:42:50Z</time>
      </trkpt>
      <trkpt lat="43.96739" lon="6.5089">
        <ele>911.40002441406</ele>
        <time>2022-08-21T10:42:54Z</time>
      </trkpt>
      <trkpt lat="43.96739" lon="6.5089">
        <ele>911.40002441406</ele>
        <time>2022-08-21T10:43:00Z</time>
      </trkpt>
      <trkpt lat="43.96739" lon="6.5089">
        <ele>911.40002441406</ele>
        <time>2022-08-21T10:43:06Z</time>
      </trkpt>
      <trkpt lat="43.96739" lon="6.50889">
        <ele>911.40002441406</ele>
        <time>2022-08-21T10:43:09Z</time>
      </trkpt>
      <trkpt lat="43.96739" lon="6.50888">
        <ele>911.40002441406</ele>
        <time>2022-08-21T10:43:22Z</time>
      </trkpt>
      <trkpt lat="43.96739" lon="6.50888">
        <ele>911.40002441406</ele>
        <time>2022-08-21T10:43:24Z</time>
      </trkpt>
      <trkpt lat="43.96739" lon="6.50888">
        <ele>911.40002441406</ele>
        <time>2022-08-21T10:43:27Z</time>
      </trkpt>
      <trkpt lat="43.9674" lon="6.50889">
        <ele>911.40002441406</ele>
        <time>2022-08-21T10:43:37Z</time>
      </trkpt>
      <trkpt lat="43.96741" lon="6.50888">
        <ele>911.40002441406</ele>
        <time>2022-08-21T10:43:48Z</time>
      </trkpt>
      <trkpt lat="43.96739" lon="6.50892">
        <ele>911.40002441406</ele>
        <time>2022-08-21T10:44:01Z</time>
      </trkpt>
      <trkpt lat="43.96735" lon="6.50889">
        <ele>911.40002441406</ele>
        <time>2022-08-21T10:44:09Z</time>
      </trkpt>
      <trkpt lat="43.96729" lon="6.50886">
        <ele>911.40002441406</ele>
        <time>2022-08-21T10:44:13Z</time>
      </trkpt>
      <trkpt lat="43.96723" lon="6.5088">
        <ele>911.40002441406</ele>
        <time>2022-08-21T10:44:17Z</time>
      </trkpt>
      <trkpt lat="43.96713" lon="6.50871">
        <ele>911.40002441406</ele>
        <time>2022-08-21T10:44:22Z</time>
      </trkpt>
      <trkpt lat="43.96706" lon="6.50869">
        <ele>911.40002441406</ele>
        <time>2022-08-21T10:44:24Z</time>
      </trkpt>
      <trkpt lat="43.96697" lon="6.50871">
        <ele>911.20001220703</ele>
        <time>2022-08-21T10:44:27Z</time>
      </trkpt>
      <trkpt lat="43.9669" lon="6.50868">
        <ele>911</ele>
        <time>2022-08-21T10:44:30Z</time>
      </trkpt>
      <trkpt lat="43.96683" lon="6.50861">
        <ele>911</ele>
        <time>2022-08-21T10:44:33Z</time>
      </trkpt>
      <trkpt lat="43.96675" lon="6.50855">
        <ele>911</ele>
        <time>2022-08-21T10:44:36Z</time>
      </trkpt>
      <trkpt lat="43.96672" lon="6.50851">
        <ele>910.79998779297</ele>
        <time>2022-08-21T10:44:38Z</time>
      </trkpt>
      <trkpt lat="43.9666" lon="6.50841">
        <ele>911</ele>
        <time>2022-08-21T10:44:43Z</time>
      </trkpt>
      <trkpt lat="43.9665" lon="6.50833">
        <ele>910.59997558594</ele>
        <time>2022-08-21T10:44:47Z</time>
      </trkpt>
      <trkpt lat="43.96631" lon="6.5082">
        <ele>910.59997558594</ele>
        <time>2022-08-21T10:44:54Z</time>
      </trkpt>
      <trkpt lat="43.96607" lon="6.50806">
        <ele>910.59997558594</ele>
        <time>2022-08-21T10:45:02Z</time>
      </trkpt>
      <trkpt lat="43.96589" lon="6.50791">
        <ele>910.59997558594</ele>
        <time>2022-08-21T10:45:08Z</time>
      </trkpt>
      <trkpt lat="43.96585" lon="6.50788">
        <ele>910.59997558594</ele>
        <time>2022-08-21T10:45:09Z</time>
      </trkpt>
      <trkpt lat="43.96562" lon="6.50769">
        <ele>910.59997558594</ele>
        <time>2022-08-21T10:45:16Z</time>
      </trkpt>
      <trkpt lat="43.96539" lon="6.50749">
        <ele>910.20001220703</ele>
        <time>2022-08-21T10:45:23Z</time>
      </trkpt>
      <trkpt lat="43.96522" lon="6.50736">
        <ele>910</ele>
        <time>2022-08-21T10:45:28Z</time>
      </trkpt>
      <trkpt lat="43.96497" lon="6.50718">
        <ele>910</ele>
        <time>2022-08-21T10:45:35Z</time>
      </trkpt>
      <trkpt lat="43.96487" lon="6.50709">
        <ele>910</ele>
        <time>2022-08-21T10:45:38Z</time>
      </trkpt>
      <trkpt lat="43.96467" lon="6.50688">
        <ele>910</ele>
        <time>2022-08-21T10:45:45Z</time>
      </trkpt>
      <trkpt lat="43.9646" lon="6.50672">
        <ele>910.20001220703</ele>
        <time>2022-08-21T10:45:50Z</time>
      </trkpt>
      <trkpt lat="43.96453" lon="6.50654">
        <ele>910.40002441406</ele>
        <time>2022-08-21T10:45:55Z</time>
      </trkpt>
      <trkpt lat="43.96445" lon="6.5063">
        <ele>910.79998779297</ele>
        <time>2022-08-21T10:46:01Z</time>
      </trkpt>
      <trkpt lat="43.96444" lon="6.50622">
        <ele>911</ele>
        <time>2022-08-21T10:46:03Z</time>
      </trkpt>
      <trkpt lat="43.96444" lon="6.5061">
        <ele>911.79998779297</ele>
        <time>2022-08-21T10:46:07Z</time>
      </trkpt>
      <trkpt lat="43.96445" lon="6.50603">
        <ele>912.20001220703</ele>
        <time>2022-08-21T10:46:09Z</time>
      </trkpt>
      <trkpt lat="43.96446" lon="6.50597">
        <ele>912.40002441406</ele>
        <time>2022-08-21T10:46:11Z</time>
      </trkpt>
      <trkpt lat="43.96446" lon="6.50594">
        <ele>912.59997558594</ele>
        <time>2022-08-21T10:46:12Z</time>
      </trkpt>
      <trkpt lat="43.96447" lon="6.50587">
        <ele>913</ele>
        <time>2022-08-21T10:46:14Z</time>
      </trkpt>
      <trkpt lat="43.96448" lon="6.50582">
        <ele>913.20001220703</ele>
        <time>2022-08-21T10:46:16Z</time>
      </trkpt>
      <trkpt lat="43.96449" lon="6.50579">
        <ele>913.40002441406</ele>
        <time>2022-08-21T10:46:17Z</time>
      </trkpt>
      <trkpt lat="43.96451" lon="6.50571">
        <ele>914</ele>
        <time>2022-08-21T10:46:20Z</time>
      </trkpt>
      <trkpt lat="43.96451" lon="6.50565">
        <ele>914.40002441406</ele>
        <time>2022-08-21T10:46:23Z</time>
      </trkpt>
      <trkpt lat="43.96451" lon="6.50563">
        <ele>914.40002441406</ele>
        <time>2022-08-21T10:46:24Z</time>
      </trkpt>
      <trkpt lat="43.96452" lon="6.50557">
        <ele>915</ele>
        <time>2022-08-21T10:46:27Z</time>
      </trkpt>
      <trkpt lat="43.96452" lon="6.50551">
        <ele>915.20001220703</ele>
        <time>2022-08-21T10:46:30Z</time>
      </trkpt>
      <trkpt lat="43.96452" lon="6.50549">
        <ele>915.40002441406</ele>
        <time>2022-08-21T10:46:31Z</time>
      </trkpt>
      <trkpt lat="43.96451" lon="6.50542">
        <ele>916</ele>
        <time>2022-08-21T10:46:35Z</time>
      </trkpt>
      <trkpt lat="43.96451" lon="6.50538">
        <ele>916.20001220703</ele>
        <time>2022-08-21T10:46:37Z</time>
      </trkpt>
      <trkpt lat="43.9645" lon="6.50536">
        <ele>916.40002441406</ele>
        <time>2022-08-21T10:46:38Z</time>
      </trkpt>
      <trkpt lat="43.9645" lon="6.50534">
        <ele>916.59997558594</ele>
        <time>2022-08-21T10:46:39Z</time>
      </trkpt>
      <trkpt lat="43.96445" lon="6.50528">
        <ele>917</ele>
        <time>2022-08-21T10:46:43Z</time>
      </trkpt>
      <trkpt lat="43.96436" lon="6.50523">
        <ele>917.59997558594</ele>
        <time>2022-08-21T10:46:49Z</time>
      </trkpt>
      <trkpt lat="43.96426" lon="6.5052">
        <ele>918</ele>
        <time>2022-08-21T10:46:55Z</time>
      </trkpt>
      <trkpt lat="43.96411" lon="6.50516">
        <ele>918.40002441406</ele>
        <time>2022-08-21T10:47:03Z</time>
      </trkpt>
      <trkpt lat="43.96385" lon="6.50512">
        <ele>917.40002441406</ele>
        <time>2022-08-21T10:47:11Z</time>
      </trkpt>
      <trkpt lat="43.96372" lon="6.50506">
        <ele>916.40002441406</ele>
        <time>2022-08-21T10:47:14Z</time>
      </trkpt>
      <trkpt lat="43.96367" lon="6.50503">
        <ele>916.20001220703</ele>
        <time>2022-08-21T10:47:15Z</time>
      </trkpt>
      <trkpt lat="43.96362" lon="6.505">
        <ele>916</ele>
        <time>2022-08-21T10:47:16Z</time>
      </trkpt>
      <trkpt lat="43.96346" lon="6.5049">
        <ele>915.59997558594</ele>
        <time>2022-08-21T10:47:19Z</time>
      </trkpt>
      <trkpt lat="43.96341" lon="6.50487">
        <ele>915.40002441406</ele>
        <time>2022-08-21T10:47:20Z</time>
      </trkpt>
      <trkpt lat="43.96336" lon="6.50484">
        <ele>915.40002441406</ele>
        <time>2022-08-21T10:47:21Z</time>
      </trkpt>
      <trkpt lat="43.96327" lon="6.50478">
        <ele>915.20001220703</ele>
        <time>2022-08-21T10:47:23Z</time>
      </trkpt>
      <trkpt lat="43.96301" lon="6.50458">
        <ele>915</ele>
        <time>2022-08-21T10:47:29Z</time>
      </trkpt>
      <trkpt lat="43.9629" lon="6.50447">
        <ele>915</ele>
        <time>2022-08-21T10:47:32Z</time>
      </trkpt>
      <trkpt lat="43.96287" lon="6.50443">
        <ele>915</ele>
        <time>2022-08-21T10:47:33Z</time>
      </trkpt>
      <trkpt lat="43.96281" lon="6.50434">
        <ele>914.79998779297</ele>
        <time>2022-08-21T10:47:35Z</time>
      </trkpt>
      <trkpt lat="43.96269" lon="6.50417">
        <ele>914.59997558594</ele>
        <time>2022-08-21T10:47:39Z</time>
      </trkpt>
      <trkpt lat="43.96263" lon="6.50408">
        <ele>914.59997558594</ele>
        <time>2022-08-21T10:47:41Z</time>
      </trkpt>
      <trkpt lat="43.96261" lon="6.50404">
        <ele>914.59997558594</ele>
        <time>2022-08-21T10:47:42Z</time>
      </trkpt>
      <trkpt lat="43.96253" lon="6.50392">
        <ele>915</ele>
        <time>2022-08-21T10:47:45Z</time>
      </trkpt>
      <trkpt lat="43.96248" lon="6.50381">
        <ele>915.79998779297</ele>
        <time>2022-08-21T10:47:48Z</time>
      </trkpt>
      <trkpt lat="43.96243" lon="6.50368">
        <ele>916.40002441406</ele>
        <time>2022-08-21T10:47:52Z</time>
      </trkpt>
      <trkpt lat="43.9624" lon="6.50358">
        <ele>916.79998779297</ele>
        <time>2022-08-21T10:47:55Z</time>
      </trkpt>
      <trkpt lat="43.96234" lon="6.50346">
        <ele>917.40002441406</ele>
        <time>2022-08-21T10:47:59Z</time>
      </trkpt>
      <trkpt lat="43.9623" lon="6.50336">
        <ele>917.79998779297</ele>
        <time>2022-08-21T10:48:02Z</time>
      </trkpt>
      <trkpt lat="43.96228" lon="6.5033">
        <ele>918</ele>
        <time>2022-08-21T10:48:04Z</time>
      </trkpt>
      <trkpt lat="43.96224" lon="6.50318">
        <ele>918.40002441406</ele>
        <time>2022-08-21T10:48:08Z</time>
      </trkpt>
      <trkpt lat="43.96222" lon="6.50311">
        <ele>919.20001220703</ele>
        <time>2022-08-21T10:48:12Z</time>
      </trkpt>
      <trkpt lat="43.96221" lon="6.50307">
        <ele>919.59997558594</ele>
        <time>2022-08-21T10:48:14Z</time>
      </trkpt>
      <trkpt lat="43.9622" lon="6.503">
        <ele>920</ele>
        <time>2022-08-21T10:48:17Z</time>
      </trkpt>
      <trkpt lat="43.96219" lon="6.50295">
        <ele>920.20001220703</ele>
        <time>2022-08-21T10:48:19Z</time>
      </trkpt>
      <trkpt lat="43.96219" lon="6.50289">
        <ele>920.59997558594</ele>
        <time>2022-08-21T10:48:22Z</time>
      </trkpt>
      <trkpt lat="43.96219" lon="6.50274">
        <ele>921.40002441406</ele>
        <time>2022-08-21T10:48:28Z</time>
      </trkpt>
      <trkpt lat="43.96218" lon="6.50269">
        <ele>921.79998779297</ele>
        <time>2022-08-21T10:48:30Z</time>
      </trkpt>
      <trkpt lat="43.96217" lon="6.50255">
        <ele>922.59997558594</ele>
        <time>2022-08-21T10:48:36Z</time>
      </trkpt>
      <trkpt lat="43.96216" lon="6.5025">
        <ele>922.79998779297</ele>
        <time>2022-08-21T10:48:38Z</time>
      </trkpt>
      <trkpt lat="43.96212" lon="6.50243">
        <ele>923.20001220703</ele>
        <time>2022-08-21T10:48:42Z</time>
      </trkpt>
      <trkpt lat="43.96211" lon="6.50242">
        <ele>923.20001220703</ele>
        <time>2022-08-21T10:48:43Z</time>
      </trkpt>
      <trkpt lat="43.96204" lon="6.50237">
        <ele>923.79998779297</ele>
        <time>2022-08-21T10:48:47Z</time>
      </trkpt>
      <trkpt lat="43.96199" lon="6.50232">
        <ele>924</ele>
        <time>2022-08-21T10:48:50Z</time>
      </trkpt>
      <trkpt lat="43.96197" lon="6.50231">
        <ele>924</ele>
        <time>2022-08-21T10:48:51Z</time>
      </trkpt>
      <trkpt lat="43.96181" lon="6.50212">
        <ele>924.59997558594</ele>
        <time>2022-08-21T10:49:00Z</time>
      </trkpt>
      <trkpt lat="43.96173" lon="6.50199">
        <ele>924.79998779297</ele>
        <time>2022-08-21T10:49:05Z</time>
      </trkpt>
      <trkpt lat="43.96171" lon="6.50197">
        <ele>924.79998779297</ele>
        <time>2022-08-21T10:49:06Z</time>
      </trkpt>
      <trkpt lat="43.96156" lon="6.5019">
        <ele>925</ele>
        <time>2022-08-21T10:49:13Z</time>
      </trkpt>
      <trkpt lat="43.96144" lon="6.50187">
        <ele>924.79998779297</ele>
        <time>2022-08-21T10:49:18Z</time>
      </trkpt>
      <trkpt lat="43.96138" lon="6.50183">
        <ele>924.79998779297</ele>
        <time>2022-08-21T10:49:21Z</time>
      </trkpt>
      <trkpt lat="43.96133" lon="6.50181">
        <ele>924.79998779297</ele>
        <time>2022-08-21T10:49:23Z</time>
      </trkpt>
      <trkpt lat="43.96119" lon="6.50177">
        <ele>924.59997558594</ele>
        <time>2022-08-21T10:49:29Z</time>
      </trkpt>
      <trkpt lat="43.96097" lon="6.5018">
        <ele>923.59997558594</ele>
        <time>2022-08-21T10:49:35Z</time>
      </trkpt>
      <trkpt lat="43.96086" lon="6.50182">
        <ele>923</ele>
        <time>2022-08-21T10:49:37Z</time>
      </trkpt>
      <trkpt lat="43.96081" lon="6.50182">
        <ele>922.59997558594</ele>
        <time>2022-08-21T10:49:38Z</time>
      </trkpt>
      <trkpt lat="43.96071" lon="6.50182">
        <ele>921.59997558594</ele>
        <time>2022-08-21T10:49:40Z</time>
      </trkpt>
      <trkpt lat="43.96065" lon="6.50181">
        <ele>921.40002441406</ele>
        <time>2022-08-21T10:49:41Z</time>
      </trkpt>
      <trkpt lat="43.96049" lon="6.50179">
        <ele>921</ele>
        <time>2022-08-21T10:49:44Z</time>
      </trkpt>
      <trkpt lat="43.96039" lon="6.5018">
        <ele>921</ele>
        <time>2022-08-21T10:49:46Z</time>
      </trkpt>
      <trkpt lat="43.96025" lon="6.50179">
        <ele>921</ele>
        <time>2022-08-21T10:49:49Z</time>
      </trkpt>
      <trkpt lat="43.96017" lon="6.50173">
        <ele>921.20001220703</ele>
        <time>2022-08-21T10:49:52Z</time>
      </trkpt>
      <trkpt lat="43.96008" lon="6.50163">
        <ele>921.79998779297</ele>
        <time>2022-08-21T10:49:57Z</time>
      </trkpt>
      <trkpt lat="43.96007" lon="6.5016">
        <ele>921.79998779297</ele>
        <time>2022-08-21T10:49:59Z</time>
      </trkpt>
      <trkpt lat="43.96003" lon="6.50157">
        <ele>922.20001220703</ele>
        <time>2022-08-21T10:50:02Z</time>
      </trkpt>
      <trkpt lat="43.96002" lon="6.50156">
        <ele>922.20001220703</ele>
        <time>2022-08-21T10:50:03Z</time>
      </trkpt>
      <trkpt lat="43.96001" lon="6.50151">
        <ele>922.40002441406</ele>
        <time>2022-08-21T10:50:05Z</time>
      </trkpt>
      <trkpt lat="43.95999" lon="6.50148">
        <ele>922.59997558594</ele>
        <time>2022-08-21T10:50:06Z</time>
      </trkpt>
      <trkpt lat="43.95991" lon="6.50137">
        <ele>923.40002441406</ele>
        <time>2022-08-21T10:50:11Z</time>
      </trkpt>
      <trkpt lat="43.9599" lon="6.50135">
        <ele>923.59997558594</ele>
        <time>2022-08-21T10:50:12Z</time>
      </trkpt>
      <trkpt lat="43.95989" lon="6.50133">
        <ele>923.79998779297</ele>
        <time>2022-08-21T10:50:13Z</time>
      </trkpt>
      <trkpt lat="43.95989" lon="6.50125">
        <ele>924.79998779297</ele>
        <time>2022-08-21T10:50:17Z</time>
      </trkpt>
      <trkpt lat="43.95989" lon="6.50123">
        <ele>925</ele>
        <time>2022-08-21T10:50:18Z</time>
      </trkpt>
      <trkpt lat="43.95988" lon="6.50117">
        <ele>925.40002441406</ele>
        <time>2022-08-21T10:50:21Z</time>
      </trkpt>
      <trkpt lat="43.95987" lon="6.50113">
        <ele>925.79998779297</ele>
        <time>2022-08-21T10:50:23Z</time>
      </trkpt>
      <trkpt lat="43.95987" lon="6.50111">
        <ele>926</ele>
        <time>2022-08-21T10:50:24Z</time>
      </trkpt>
      <trkpt lat="43.95986" lon="6.50106">
        <ele>926.40002441406</ele>
        <time>2022-08-21T10:50:26Z</time>
      </trkpt>
      <trkpt lat="43.95986" lon="6.50105">
        <ele>926.40002441406</ele>
        <time>2022-08-21T10:50:27Z</time>
      </trkpt>
      <trkpt lat="43.95983" lon="6.50104">
        <ele>926.79998779297</ele>
        <time>2022-08-21T10:50:29Z</time>
      </trkpt>
      <trkpt lat="43.95982" lon="6.50104">
        <ele>927</ele>
        <time>2022-08-21T10:50:30Z</time>
      </trkpt>
      <trkpt lat="43.95982" lon="6.50106">
        <ele>927.20001220703</ele>
        <time>2022-08-21T10:50:31Z</time>
      </trkpt>
      <trkpt lat="43.9598" lon="6.50109">
        <ele>927.40002441406</ele>
        <time>2022-08-21T10:50:33Z</time>
      </trkpt>
      <trkpt lat="43.9598" lon="6.50113">
        <ele>927.59997558594</ele>
        <time>2022-08-21T10:50:35Z</time>
      </trkpt>
      <trkpt lat="43.9598" lon="6.50114">
        <ele>927.79998779297</ele>
        <time>2022-08-21T10:50:36Z</time>
      </trkpt>
      <trkpt lat="43.95981" lon="6.50119">
        <ele>928.20001220703</ele>
        <time>2022-08-21T10:50:38Z</time>
      </trkpt>
      <trkpt lat="43.95981" lon="6.5012">
        <ele>928.20001220703</ele>
        <time>2022-08-21T10:50:39Z</time>
      </trkpt>
      <trkpt lat="43.95981" lon="6.50124">
        <ele>928.40002441406</ele>
        <time>2022-08-21T10:50:41Z</time>
      </trkpt>
      <trkpt lat="43.95979" lon="6.50129">
        <ele>928.79998779297</ele>
        <time>2022-08-21T10:50:45Z</time>
      </trkpt>
      <trkpt lat="43.95979" lon="6.50129">
        <ele>929</ele>
        <time>2022-08-21T10:50:46Z</time>
      </trkpt>
      <trkpt lat="43.95979" lon="6.50132">
        <ele>929.20001220703</ele>
        <time>2022-08-21T10:50:48Z</time>
      </trkpt>
      <trkpt lat="43.95977" lon="6.50134">
        <ele>929.79998779297</ele>
        <time>2022-08-21T10:50:51Z</time>
      </trkpt>
      <trkpt lat="43.95973" lon="6.50136">
        <ele>930.40002441406</ele>
        <time>2022-08-21T10:50:54Z</time>
      </trkpt>
      <trkpt lat="43.95968" lon="6.50137">
        <ele>930.79998779297</ele>
        <time>2022-08-21T10:50:57Z</time>
      </trkpt>
      <trkpt lat="43.95962" lon="6.50137">
        <ele>931.40002441406</ele>
        <time>2022-08-21T10:51:01Z</time>
      </trkpt>
      <trkpt lat="43.95953" lon="6.50136">
        <ele>932.40002441406</ele>
        <time>2022-08-21T10:51:08Z</time>
      </trkpt>
      <trkpt lat="43.95952" lon="6.50136">
        <ele>932.59997558594</ele>
        <time>2022-08-21T10:51:09Z</time>
      </trkpt>
      <trkpt lat="43.95941" lon="6.50134">
        <ele>933.40002441406</ele>
        <time>2022-08-21T10:51:16Z</time>
      </trkpt>
      <trkpt lat="43.95938" lon="6.50134">
        <ele>933.79998779297</ele>
        <time>2022-08-21T10:51:18Z</time>
      </trkpt>
      <trkpt lat="43.95926" lon="6.50132">
        <ele>934.59997558594</ele>
        <time>2022-08-21T10:51:25Z</time>
      </trkpt>
      <trkpt lat="43.95921" lon="6.50132">
        <ele>934.79998779297</ele>
        <time>2022-08-21T10:51:28Z</time>
      </trkpt>
      <trkpt lat="43.95911" lon="6.50129">
        <ele>935.59997558594</ele>
        <time>2022-08-21T10:51:35Z</time>
      </trkpt>
      <trkpt lat="43.9591" lon="6.50128">
        <ele>935.79998779297</ele>
        <time>2022-08-21T10:51:36Z</time>
      </trkpt>
      <trkpt lat="43.95908" lon="6.50127">
        <ele>936</ele>
        <time>2022-08-21T10:51:38Z</time>
      </trkpt>
      <trkpt lat="43.95903" lon="6.50126">
        <ele>936.40002441406</ele>
        <time>2022-08-21T10:51:42Z</time>
      </trkpt>
      <trkpt lat="43.95898" lon="6.50125">
        <ele>936.59997558594</ele>
        <time>2022-08-21T10:51:45Z</time>
      </trkpt>
      <trkpt lat="43.95897" lon="6.50126">
        <ele>936.79998779297</ele>
        <time>2022-08-21T10:51:46Z</time>
      </trkpt>
      <trkpt lat="43.95892" lon="6.50128">
        <ele>937.20001220703</ele>
        <time>2022-08-21T10:51:49Z</time>
      </trkpt>
      <trkpt lat="43.95887" lon="6.50138">
        <ele>937.79998779297</ele>
        <time>2022-08-21T10:51:54Z</time>
      </trkpt>
      <trkpt lat="43.95886" lon="6.50142">
        <ele>938</ele>
        <time>2022-08-21T10:51:56Z</time>
      </trkpt>
      <trkpt lat="43.95878" lon="6.50151">
        <ele>938.79998779297</ele>
        <time>2022-08-21T10:52:03Z</time>
      </trkpt>
      <trkpt lat="43.95877" lon="6.50153">
        <ele>938.79998779297</ele>
        <time>2022-08-21T10:52:04Z</time>
      </trkpt>
      <trkpt lat="43.95867" lon="6.50166">
        <ele>939.40002441406</ele>
        <time>2022-08-21T10:52:12Z</time>
      </trkpt>
      <trkpt lat="43.95857" lon="6.50184">
        <ele>939.79998779297</ele>
        <time>2022-08-21T10:52:20Z</time>
      </trkpt>
      <trkpt lat="43.95846" lon="6.50202">
        <ele>940</ele>
        <time>2022-08-21T10:52:28Z</time>
      </trkpt>
      <trkpt lat="43.95844" lon="6.50203">
        <ele>940</ele>
        <time>2022-08-21T10:52:29Z</time>
      </trkpt>
      <trkpt lat="43.95839" lon="6.50201">
        <ele>940.20001220703</ele>
        <time>2022-08-21T10:52:32Z</time>
      </trkpt>
      <trkpt lat="43.95832" lon="6.50191">
        <ele>940.79998779297</ele>
        <time>2022-08-21T10:52:38Z</time>
      </trkpt>
      <trkpt lat="43.95819" lon="6.50184">
        <ele>941.59997558594</ele>
        <time>2022-08-21T10:52:45Z</time>
      </trkpt>
      <trkpt lat="43.95817" lon="6.50181">
        <ele>942</ele>
        <time>2022-08-21T10:52:47Z</time>
      </trkpt>
      <trkpt lat="43.95808" lon="6.50172">
        <ele>942.79998779297</ele>
        <time>2022-08-21T10:52:54Z</time>
      </trkpt>
      <trkpt lat="43.95805" lon="6.5017">
        <ele>943</ele>
        <time>2022-08-21T10:52:56Z</time>
      </trkpt>
      <trkpt lat="43.95798" lon="6.50161">
        <ele>944</ele>
        <time>2022-08-21T10:53:03Z</time>
      </trkpt>
      <trkpt lat="43.95798" lon="6.5016">
        <ele>944.20001220703</ele>
        <time>2022-08-21T10:53:04Z</time>
      </trkpt>
      <trkpt lat="43.95792" lon="6.50149">
        <ele>945.20001220703</ele>
        <time>2022-08-21T10:53:10Z</time>
      </trkpt>
      <trkpt lat="43.95789" lon="6.50146">
        <ele>945.79998779297</ele>
        <time>2022-08-21T10:53:13Z</time>
      </trkpt>
      <trkpt lat="43.95785" lon="6.50142">
        <ele>946.40002441406</ele>
        <time>2022-08-21T10:53:16Z</time>
      </trkpt>
      <trkpt lat="43.95784" lon="6.5014">
        <ele>946.59997558594</ele>
        <time>2022-08-21T10:53:18Z</time>
      </trkpt>
      <trkpt lat="43.95782" lon="6.50135">
        <ele>947</ele>
        <time>2022-08-21T10:53:21Z</time>
      </trkpt>
      <trkpt lat="43.95779" lon="6.50132">
        <ele>947.40002441406</ele>
        <time>2022-08-21T10:53:24Z</time>
      </trkpt>
      <trkpt lat="43.95777" lon="6.50126">
        <ele>948.20001220703</ele>
        <time>2022-08-21T10:53:29Z</time>
      </trkpt>
      <trkpt lat="43.95776" lon="6.50122">
        <ele>948.59997558594</ele>
        <time>2022-08-21T10:53:31Z</time>
      </trkpt>
      <trkpt lat="43.95776" lon="6.50111">
        <ele>949.59997558594</ele>
        <time>2022-08-21T10:53:37Z</time>
      </trkpt>
      <trkpt lat="43.95776" lon="6.50109">
        <ele>949.59997558594</ele>
        <time>2022-08-21T10:53:38Z</time>
      </trkpt>
      <trkpt lat="43.95777" lon="6.501">
        <ele>950.40002441406</ele>
        <time>2022-08-21T10:53:44Z</time>
      </trkpt>
      <trkpt lat="43.95778" lon="6.50098">
        <ele>950.59997558594</ele>
        <time>2022-08-21T10:53:45Z</time>
      </trkpt>
      <trkpt lat="43.9578" lon="6.50095">
        <ele>950.79998779297</ele>
        <time>2022-08-21T10:53:47Z</time>
      </trkpt>
      <trkpt lat="43.95783" lon="6.50085">
        <ele>951.59997558594</ele>
        <time>2022-08-21T10:53:54Z</time>
      </trkpt>
      <trkpt lat="43.95784" lon="6.50083">
        <ele>952</ele>
        <time>2022-08-21T10:53:56Z</time>
      </trkpt>
      <trkpt lat="43.95784" lon="6.50079">
        <ele>952.40002441406</ele>
        <time>2022-08-21T10:53:59Z</time>
      </trkpt>
      <trkpt lat="43.95784" lon="6.50075">
        <ele>952.59997558594</ele>
        <time>2022-08-21T10:54:01Z</time>
      </trkpt>
      <trkpt lat="43.95785" lon="6.50071">
        <ele>953</ele>
        <time>2022-08-21T10:54:04Z</time>
      </trkpt>
      <trkpt lat="43.95788" lon="6.50062">
        <ele>953.59997558594</ele>
        <time>2022-08-21T10:54:09Z</time>
      </trkpt>
      <trkpt lat="43.95788" lon="6.5006">
        <ele>953.59997558594</ele>
        <time>2022-08-21T10:54:10Z</time>
      </trkpt>
      <trkpt lat="43.95788" lon="6.50055">
        <ele>953.79998779297</ele>
        <time>2022-08-21T10:54:12Z</time>
      </trkpt>
      <trkpt lat="43.95789" lon="6.50052">
        <ele>954.20001220703</ele>
        <time>2022-08-21T10:54:14Z</time>
      </trkpt>
      <trkpt lat="43.95789" lon="6.5005">
        <ele>954.20001220703</ele>
        <time>2022-08-21T10:54:15Z</time>
      </trkpt>
      <trkpt lat="43.9579" lon="6.50045">
        <ele>954.40002441406</ele>
        <time>2022-08-21T10:54:17Z</time>
      </trkpt>
      <trkpt lat="43.9579" lon="6.50043">
        <ele>954.59997558594</ele>
        <time>2022-08-21T10:54:18Z</time>
      </trkpt>
      <trkpt lat="43.95792" lon="6.50035">
        <ele>955.20001220703</ele>
        <time>2022-08-21T10:54:22Z</time>
      </trkpt>
      <trkpt lat="43.95792" lon="6.50033">
        <ele>955.20001220703</ele>
        <time>2022-08-21T10:54:23Z</time>
      </trkpt>
      <trkpt lat="43.95794" lon="6.50027">
        <ele>955.59997558594</ele>
        <time>2022-08-21T10:54:27Z</time>
      </trkpt>
      <trkpt lat="43.95794" lon="6.50025">
        <ele>955.79998779297</ele>
        <time>2022-08-21T10:54:28Z</time>
      </trkpt>
      <trkpt lat="43.95798" lon="6.50017">
        <ele>956.40002441406</ele>
        <time>2022-08-21T10:54:33Z</time>
      </trkpt>
      <trkpt lat="43.958" lon="6.50014">
        <ele>956.40002441406</ele>
        <time>2022-08-21T10:54:35Z</time>
      </trkpt>
      <trkpt lat="43.95809" lon="6.50005">
        <ele>957.40002441406</ele>
        <time>2022-08-21T10:54:43Z</time>
      </trkpt>
      <trkpt lat="43.9581" lon="6.50004">
        <ele>957.59997558594</ele>
        <time>2022-08-21T10:54:44Z</time>
      </trkpt>
      <trkpt lat="43.95821" lon="6.49992">
        <ele>958.59997558594</ele>
        <time>2022-08-21T10:54:53Z</time>
      </trkpt>
      <trkpt lat="43.95832" lon="6.4998">
        <ele>959.59997558594</ele>
        <time>2022-08-21T10:55:03Z</time>
      </trkpt>
      <trkpt lat="43.95833" lon="6.49979">
        <ele>959.79998779297</ele>
        <time>2022-08-21T10:55:04Z</time>
      </trkpt>
      <trkpt lat="43.95842" lon="6.49974">
        <ele>960.59997558594</ele>
        <time>2022-08-21T10:55:11Z</time>
      </trkpt>
      <trkpt lat="43.95843" lon="6.49974">
        <ele>960.59997558594</ele>
        <time>2022-08-21T10:55:12Z</time>
      </trkpt>
      <trkpt lat="43.95854" lon="6.49965">
        <ele>961.40002441406</ele>
        <time>2022-08-21T10:55:20Z</time>
      </trkpt>
      <trkpt lat="43.95857" lon="6.49962">
        <ele>961.59997558594</ele>
        <time>2022-08-21T10:55:23Z</time>
      </trkpt>
      <trkpt lat="43.95859" lon="6.4996">
        <ele>961.79998779297</ele>
        <time>2022-08-21T10:55:24Z</time>
      </trkpt>
      <trkpt lat="43.95861" lon="6.49958">
        <ele>962</ele>
        <time>2022-08-21T10:55:26Z</time>
      </trkpt>
      <trkpt lat="43.95867" lon="6.49948">
        <ele>962.79998779297</ele>
        <time>2022-08-21T10:55:33Z</time>
      </trkpt>
      <trkpt lat="43.95868" lon="6.49946">
        <ele>962.79998779297</ele>
        <time>2022-08-21T10:55:34Z</time>
      </trkpt>
      <trkpt lat="43.95871" lon="6.49939">
        <ele>963.20001220703</ele>
        <time>2022-08-21T10:55:38Z</time>
      </trkpt>
      <trkpt lat="43.95871" lon="6.49935">
        <ele>963.40002441406</ele>
        <time>2022-08-21T10:55:40Z</time>
      </trkpt>
      <trkpt lat="43.95871" lon="6.49933">
        <ele>963.59997558594</ele>
        <time>2022-08-21T10:55:41Z</time>
      </trkpt>
      <trkpt lat="43.95871" lon="6.49931">
        <ele>963.79998779297</ele>
        <time>2022-08-21T10:55:43Z</time>
      </trkpt>
      <trkpt lat="43.95868" lon="6.49922">
        <ele>964.79998779297</ele>
        <time>2022-08-21T10:55:49Z</time>
      </trkpt>
      <trkpt lat="43.95867" lon="6.4992">
        <ele>965</ele>
        <time>2022-08-21T10:55:50Z</time>
      </trkpt>
      <trkpt lat="43.95865" lon="6.49915">
        <ele>965.40002441406</ele>
        <time>2022-08-21T10:55:53Z</time>
      </trkpt>
      <trkpt lat="43.95863" lon="6.4991">
        <ele>965.79998779297</ele>
        <time>2022-08-21T10:55:56Z</time>
      </trkpt>
      <trkpt lat="43.95863" lon="6.49908">
        <ele>965.79998779297</ele>
        <time>2022-08-21T10:55:57Z</time>
      </trkpt>
      <trkpt lat="43.95863" lon="6.49906">
        <ele>966</ele>
        <time>2022-08-21T10:55:58Z</time>
      </trkpt>
      <trkpt lat="43.95863" lon="6.49894">
        <ele>966.59997558594</ele>
        <time>2022-08-21T10:56:05Z</time>
      </trkpt>
      <trkpt lat="43.95865" lon="6.49889">
        <ele>967</ele>
        <time>2022-08-21T10:56:08Z</time>
      </trkpt>
      <trkpt lat="43.95869" lon="6.49884">
        <ele>967.40002441406</ele>
        <time>2022-08-21T10:56:12Z</time>
      </trkpt>
      <trkpt lat="43.95869" lon="6.49882">
        <ele>967.59997558594</ele>
        <time>2022-08-21T10:56:13Z</time>
      </trkpt>
      <trkpt lat="43.9587" lon="6.49878">
        <ele>968</ele>
        <time>2022-08-21T10:56:16Z</time>
      </trkpt>
      <trkpt lat="43.95872" lon="6.49875">
        <ele>968.40002441406</ele>
        <time>2022-08-21T10:56:18Z</time>
      </trkpt>
      <trkpt lat="43.95874" lon="6.49871">
        <ele>968.79998779297</ele>
        <time>2022-08-21T10:56:21Z</time>
      </trkpt>
      <trkpt lat="43.95875" lon="6.49866">
        <ele>969.20001220703</ele>
        <time>2022-08-21T10:56:24Z</time>
      </trkpt>
      <trkpt lat="43.95875" lon="6.49864">
        <ele>969.20001220703</ele>
        <time>2022-08-21T10:56:25Z</time>
      </trkpt>
      <trkpt lat="43.95877" lon="6.49856">
        <ele>970</ele>
        <time>2022-08-21T10:56:30Z</time>
      </trkpt>
      <trkpt lat="43.95877" lon="6.49854">
        <ele>970.20001220703</ele>
        <time>2022-08-21T10:56:31Z</time>
      </trkpt>
      <trkpt lat="43.95878" lon="6.49853">
        <ele>970.40002441406</ele>
        <time>2022-08-21T10:56:32Z</time>
      </trkpt>
      <trkpt lat="43.95879" lon="6.49851">
        <ele>970.59997558594</ele>
        <time>2022-08-21T10:56:34Z</time>
      </trkpt>
      <trkpt lat="43.95881" lon="6.49846">
        <ele>971.20001220703</ele>
        <time>2022-08-21T10:56:38Z</time>
      </trkpt>
      <trkpt lat="43.95883" lon="6.49841">
        <ele>972</ele>
        <time>2022-08-21T10:56:42Z</time>
      </trkpt>
      <trkpt lat="43.95885" lon="6.49838">
        <ele>972.40002441406</ele>
        <time>2022-08-21T10:56:45Z</time>
      </trkpt>
      <trkpt lat="43.9589" lon="6.49832">
        <ele>972.79998779297</ele>
        <time>2022-08-21T10:56:50Z</time>
      </trkpt>
      <trkpt lat="43.95895" lon="6.49829">
        <ele>973.40002441406</ele>
        <time>2022-08-21T10:56:55Z</time>
      </trkpt>
      <trkpt lat="43.95896" lon="6.49827">
        <ele>973.79998779297</ele>
        <time>2022-08-21T10:56:57Z</time>
      </trkpt>
      <trkpt lat="43.959" lon="6.49822">
        <ele>974.40002441406</ele>
        <time>2022-08-21T10:57:01Z</time>
      </trkpt>
      <trkpt lat="43.95906" lon="6.49813">
        <ele>975.59997558594</ele>
        <time>2022-08-21T10:57:07Z</time>
      </trkpt>
      <trkpt lat="43.95913" lon="6.49809">
        <ele>976.59997558594</ele>
        <time>2022-08-21T10:57:13Z</time>
      </trkpt>
      <trkpt lat="43.95916" lon="6.49806">
        <ele>977.40002441406</ele>
        <time>2022-08-21T10:57:17Z</time>
      </trkpt>
      <trkpt lat="43.95918" lon="6.49804">
        <ele>977.79998779297</ele>
        <time>2022-08-21T10:57:19Z</time>
      </trkpt>
      <trkpt lat="43.95925" lon="6.49796">
        <ele>978.79998779297</ele>
        <time>2022-08-21T10:57:27Z</time>
      </trkpt>
      <trkpt lat="43.95926" lon="6.49795">
        <ele>979</ele>
        <time>2022-08-21T10:57:28Z</time>
      </trkpt>
      <trkpt lat="43.95926" lon="6.49794">
        <ele>979</ele>
        <time>2022-08-21T10:57:29Z</time>
      </trkpt>
      <trkpt lat="43.95927" lon="6.49787">
        <ele>979.79998779297</ele>
        <time>2022-08-21T10:57:33Z</time>
      </trkpt>
      <trkpt lat="43.95928" lon="6.49785">
        <ele>979.79998779297</ele>
        <time>2022-08-21T10:57:34Z</time>
      </trkpt>
      <trkpt lat="43.95932" lon="6.49774">
        <ele>980.59997558594</ele>
        <time>2022-08-21T10:57:40Z</time>
      </trkpt>
      <trkpt lat="43.95933" lon="6.49767">
        <ele>981</ele>
        <time>2022-08-21T10:57:43Z</time>
      </trkpt>
      <trkpt lat="43.95936" lon="6.49759">
        <ele>981.59997558594</ele>
        <time>2022-08-21T10:57:48Z</time>
      </trkpt>
      <trkpt lat="43.95938" lon="6.49756">
        <ele>982</ele>
        <time>2022-08-21T10:57:50Z</time>
      </trkpt>
      <trkpt lat="43.95943" lon="6.49747">
        <ele>983.20001220703</ele>
        <time>2022-08-21T10:57:57Z</time>
      </trkpt>
      <trkpt lat="43.95946" lon="6.4974">
        <ele>984</ele>
        <time>2022-08-21T10:58:03Z</time>
      </trkpt>
      <trkpt lat="43.95941" lon="6.49741">
        <ele>984.20001220703</ele>
        <time>2022-08-21T10:58:06Z</time>
      </trkpt>
      <trkpt lat="43.9594" lon="6.49742">
        <ele>984.20001220703</ele>
        <time>2022-08-21T10:58:07Z</time>
      </trkpt>
      <trkpt lat="43.95939" lon="6.49743">
        <ele>984.20001220703</ele>
        <time>2022-08-21T10:58:08Z</time>
      </trkpt>
      <trkpt lat="43.95938" lon="6.49745">
        <ele>984.40002441406</ele>
        <time>2022-08-21T10:58:09Z</time>
      </trkpt>
      <trkpt lat="43.95931" lon="6.49754">
        <ele>984.20001220703</ele>
        <time>2022-08-21T10:58:14Z</time>
      </trkpt>
      <trkpt lat="43.95928" lon="6.49756">
        <ele>984</ele>
        <time>2022-08-21T10:58:16Z</time>
      </trkpt>
      <trkpt lat="43.95921" lon="6.49762">
        <ele>983.79998779297</ele>
        <time>2022-08-21T10:58:19Z</time>
      </trkpt>
      <trkpt lat="43.95911" lon="6.4977">
        <ele>983.40002441406</ele>
        <time>2022-08-21T10:58:22Z</time>
      </trkpt>
      <trkpt lat="43.95903" lon="6.49776">
        <ele>983.20001220703</ele>
        <time>2022-08-21T10:58:24Z</time>
      </trkpt>
      <trkpt lat="43.9589" lon="6.49792">
        <ele>982.59997558594</ele>
        <time>2022-08-21T10:58:28Z</time>
      </trkpt>
      <trkpt lat="43.95879" lon="6.49808">
        <ele>982.20001220703</ele>
        <time>2022-08-21T10:58:31Z</time>
      </trkpt>
      <trkpt lat="43.95875" lon="6.49811">
        <ele>982</ele>
        <time>2022-08-21T10:58:32Z</time>
      </trkpt>
      <trkpt lat="43.95871" lon="6.49814">
        <ele>981.79998779297</ele>
        <time>2022-08-21T10:58:33Z</time>
      </trkpt>
      <trkpt lat="43.95867" lon="6.49817">
        <ele>981.59997558594</ele>
        <time>2022-08-21T10:58:34Z</time>
      </trkpt>
      <trkpt lat="43.95854" lon="6.49829">
        <ele>981.20001220703</ele>
        <time>2022-08-21T10:58:37Z</time>
      </trkpt>
      <trkpt lat="43.95849" lon="6.49833">
        <ele>981.20001220703</ele>
        <time>2022-08-21T10:58:38Z</time>
      </trkpt>
      <trkpt lat="43.95845" lon="6.49837">
        <ele>981</ele>
        <time>2022-08-21T10:58:39Z</time>
      </trkpt>
      <trkpt lat="43.95841" lon="6.49841">
        <ele>980.79998779297</ele>
        <time>2022-08-21T10:58:40Z</time>
      </trkpt>
      <trkpt lat="43.95832" lon="6.4985">
        <ele>980.79998779297</ele>
        <time>2022-08-21T10:58:42Z</time>
      </trkpt>
      <trkpt lat="43.95827" lon="6.49855">
        <ele>980.59997558594</ele>
        <time>2022-08-21T10:58:43Z</time>
      </trkpt>
      <trkpt lat="43.95799" lon="6.49882">
        <ele>980.20001220703</ele>
        <time>2022-08-21T10:58:50Z</time>
      </trkpt>
      <trkpt lat="43.95787" lon="6.49891">
        <ele>980.20001220703</ele>
        <time>2022-08-21T10:58:53Z</time>
      </trkpt>
      <trkpt lat="43.95776" lon="6.49896">
        <ele>980.20001220703</ele>
        <time>2022-08-21T10:58:55Z</time>
      </trkpt>
      <trkpt lat="43.95751" lon="6.49904">
        <ele>980.20001220703</ele>
        <time>2022-08-21T10:59:00Z</time>
      </trkpt>
      <trkpt lat="43.95742" lon="6.49908">
        <ele>980.20001220703</ele>
        <time>2022-08-21T10:59:02Z</time>
      </trkpt>
      <trkpt lat="43.95738" lon="6.49911">
        <ele>980.20001220703</ele>
        <time>2022-08-21T10:59:03Z</time>
      </trkpt>
      <trkpt lat="43.95734" lon="6.49915">
        <ele>980.20001220703</ele>
        <time>2022-08-21T10:59:04Z</time>
      </trkpt>
      <trkpt lat="43.95731" lon="6.4992">
        <ele>980.40002441406</ele>
        <time>2022-08-21T10:59:05Z</time>
      </trkpt>
      <trkpt lat="43.95716" lon="6.49951">
        <ele>980.59997558594</ele>
        <time>2022-08-21T10:59:12Z</time>
      </trkpt>
      <trkpt lat="43.95702" lon="6.49978">
        <ele>981</ele>
        <time>2022-08-21T10:59:19Z</time>
      </trkpt>
      <trkpt lat="43.95683" lon="6.50007">
        <ele>981.20001220703</ele>
        <time>2022-08-21T10:59:27Z</time>
      </trkpt>
      <trkpt lat="43.95664" lon="6.50026">
        <ele>981.79998779297</ele>
        <time>2022-08-21T10:59:34Z</time>
      </trkpt>
      <trkpt lat="43.95643" lon="6.50048">
        <ele>982</ele>
        <time>2022-08-21T10:59:42Z</time>
      </trkpt>
      <trkpt lat="43.9564" lon="6.50051">
        <ele>982</ele>
        <time>2022-08-21T10:59:43Z</time>
      </trkpt>
      <trkpt lat="43.95612" lon="6.50083">
        <ele>982.20001220703</ele>
        <time>2022-08-21T10:59:53Z</time>
      </trkpt>
      <trkpt lat="43.95605" lon="6.50097">
        <ele>982.20001220703</ele>
        <time>2022-08-21T10:59:57Z</time>
      </trkpt>
      <trkpt lat="43.95601" lon="6.50115">
        <ele>982.40002441406</ele>
        <time>2022-08-21T11:00:01Z</time>
      </trkpt>
      <trkpt lat="43.95602" lon="6.50135">
        <ele>982.40002441406</ele>
        <time>2022-08-21T11:00:05Z</time>
      </trkpt>
      <trkpt lat="43.95598" lon="6.50159">
        <ele>982.59997558594</ele>
        <time>2022-08-21T11:00:10Z</time>
      </trkpt>
      <trkpt lat="43.95587" lon="6.50184">
        <ele>982</ele>
        <time>2022-08-21T11:00:16Z</time>
      </trkpt>
      <trkpt lat="43.95575" lon="6.50196">
        <ele>981</ele>
        <time>2022-08-21T11:00:20Z</time>
      </trkpt>
      <trkpt lat="43.95572" lon="6.50198">
        <ele>980.59997558594</ele>
        <time>2022-08-21T11:00:21Z</time>
      </trkpt>
      <trkpt lat="43.95569" lon="6.502">
        <ele>980.40002441406</ele>
        <time>2022-08-21T11:00:22Z</time>
      </trkpt>
      <trkpt lat="43.9556" lon="6.50203">
        <ele>979.59997558594</ele>
        <time>2022-08-21T11:00:25Z</time>
      </trkpt>
      <trkpt lat="43.95558" lon="6.50203">
        <ele>979.59997558594</ele>
        <time>2022-08-21T11:00:27Z</time>
      </trkpt>
      <trkpt lat="43.95557" lon="6.50204">
        <ele>980</ele>
        <time>2022-08-21T11:00:29Z</time>
      </trkpt>
      <trkpt lat="43.95556" lon="6.50205">
        <ele>980.40002441406</ele>
        <time>2022-08-21T11:00:31Z</time>
      </trkpt>
      <trkpt lat="43.95555" lon="6.50207">
        <ele>980.79998779297</ele>
        <time>2022-08-21T11:00:33Z</time>
      </trkpt>
      <trkpt lat="43.95553" lon="6.50209">
        <ele>981.40002441406</ele>
        <time>2022-08-21T11:00:36Z</time>
      </trkpt>
      <trkpt lat="43.9555" lon="6.50212">
        <ele>981.79998779297</ele>
        <time>2022-08-21T11:00:38Z</time>
      </trkpt>
      <trkpt lat="43.95548" lon="6.50215">
        <ele>982.59997558594</ele>
        <time>2022-08-21T11:00:41Z</time>
      </trkpt>
      <trkpt lat="43.95546" lon="6.50215">
        <ele>983</ele>
        <time>2022-08-21T11:00:43Z</time>
      </trkpt>
      <trkpt lat="43.95544" lon="6.50215">
        <ele>983</ele>
        <time>2022-08-21T11:00:46Z</time>
      </trkpt>
      <trkpt lat="43.95543" lon="6.50216">
        <ele>983</ele>
        <time>2022-08-21T11:00:52Z</time>
      </trkpt>
      <trkpt lat="43.95543" lon="6.50216">
        <ele>983</ele>
        <time>2022-08-21T11:00:53Z</time>
      </trkpt>
      <trkpt lat="43.95541" lon="6.50219">
        <ele>983.40002441406</ele>
        <time>2022-08-21T11:01:04Z</time>
      </trkpt>
      <trkpt lat="43.9554" lon="6.50221">
        <ele>983.59997558594</ele>
        <time>2022-08-21T11:01:15Z</time>
      </trkpt>
      <trkpt lat="43.9554" lon="6.5022">
        <ele>983.59997558594</ele>
        <time>2022-08-21T11:01:21Z</time>
      </trkpt>
      <trkpt lat="43.95541" lon="6.5022">
        <ele>983.59997558594</ele>
        <time>2022-08-21T11:01:24Z</time>
      </trkpt>
      <trkpt lat="43.95541" lon="6.5022">
        <ele>983.59997558594</ele>
        <time>2022-08-21T11:01:25Z</time>
      </trkpt>
      <trkpt lat="43.95539" lon="6.50221">
        <ele>983.20001220703</ele>
        <time>2022-08-21T11:01:35Z</time>
      </trkpt>
      <trkpt lat="43.95539" lon="6.50222">
        <ele>983.20001220703</ele>
        <time>2022-08-21T11:01:39Z</time>
      </trkpt>
      <trkpt lat="43.95538" lon="6.50222">
        <ele>983</ele>
        <time>2022-08-21T11:01:41Z</time>
      </trkpt>
      <trkpt lat="43.95538" lon="6.50222">
        <ele>983</ele>
        <time>2022-08-21T11:01:42Z</time>
      </trkpt>
      <trkpt lat="43.95538" lon="6.50222">
        <ele>983</ele>
        <time>2022-08-21T11:01:43Z</time>
      </trkpt>
      <trkpt lat="43.95539" lon="6.50222">
        <ele>983</ele>
        <time>2022-08-21T11:01:48Z</time>
      </trkpt>
      <trkpt lat="43.95539" lon="6.50222">
        <ele>982.79998779297</ele>
        <time>2022-08-21T11:01:52Z</time>
      </trkpt>
      <trkpt lat="43.95539" lon="6.50223">
        <ele>982.79998779297</ele>
        <time>2022-08-21T11:01:54Z</time>
      </trkpt>
      <trkpt lat="43.95539" lon="6.50224">
        <ele>982.79998779297</ele>
        <time>2022-08-21T11:01:56Z</time>
      </trkpt>
      <trkpt lat="43.95538" lon="6.50226">
        <ele>982.79998779297</ele>
        <time>2022-08-21T11:01:59Z</time>
      </trkpt>
      <trkpt lat="43.95537" lon="6.50228">
        <ele>982.79998779297</ele>
        <time>2022-08-21T11:02:01Z</time>
      </trkpt>
      <trkpt lat="43.95536" lon="6.50228">
        <ele>982.79998779297</ele>
        <time>2022-08-21T11:02:02Z</time>
      </trkpt>
      <trkpt lat="43.95534" lon="6.5023">
        <ele>982.79998779297</ele>
        <time>2022-08-21T11:02:06Z</time>
      </trkpt>
      <trkpt lat="43.95533" lon="6.5023">
        <ele>982.79998779297</ele>
        <time>2022-08-21T11:02:07Z</time>
      </trkpt>
      <trkpt lat="43.95532" lon="6.50231">
        <ele>982.79998779297</ele>
        <time>2022-08-21T11:02:11Z</time>
      </trkpt>
      <trkpt lat="43.95535" lon="6.50239">
        <ele>982.79998779297</ele>
        <time>2022-08-21T11:02:15Z</time>
      </trkpt>
      <trkpt lat="43.95536" lon="6.50242">
        <ele>982.79998779297</ele>
        <time>2022-08-21T11:02:16Z</time>
      </trkpt>
      <trkpt lat="43.95536" lon="6.50246">
        <ele>979.20001220703</ele>
        <time>2022-08-21T11:02:17Z</time>
      </trkpt>
      <trkpt lat="43.95537" lon="6.5025">
        <ele>979.20001220703</ele>
        <time>2022-08-21T11:02:18Z</time>
      </trkpt>
      <trkpt lat="43.95541" lon="6.50266">
        <ele>979.59997558594</ele>
        <time>2022-08-21T11:02:26Z</time>
      </trkpt>
      <trkpt lat="43.95542" lon="6.50274">
        <ele>978.79998779297</ele>
        <time>2022-08-21T11:02:29Z</time>
      </trkpt>
      <trkpt lat="43.95545" lon="6.50281">
        <ele>978.40002441406</ele>
        <time>2022-08-21T11:02:31Z</time>
      </trkpt>
      <trkpt lat="43.95546" lon="6.50288">
        <ele>978.20001220703</ele>
        <time>2022-08-21T11:02:33Z</time>
      </trkpt>
      <trkpt lat="43.95547" lon="6.50291">
        <ele>977.79998779297</ele>
        <time>2022-08-21T11:02:34Z</time>
      </trkpt>
      <trkpt lat="43.95552" lon="6.50301">
        <ele>977.20001220703</ele>
        <time>2022-08-21T11:02:37Z</time>
      </trkpt>
      <trkpt lat="43.95555" lon="6.50306">
        <ele>976.79998779297</ele>
        <time>2022-08-21T11:02:39Z</time>
      </trkpt>
      <trkpt lat="43.95562" lon="6.50321">
        <ele>976</ele>
        <time>2022-08-21T11:02:43Z</time>
      </trkpt>
      <trkpt lat="43.95564" lon="6.50324">
        <ele>975.79998779297</ele>
        <time>2022-08-21T11:02:44Z</time>
      </trkpt>
      <trkpt lat="43.95576" lon="6.5034">
        <ele>975</ele>
        <time>2022-08-21T11:02:49Z</time>
      </trkpt>
      <trkpt lat="43.95579" lon="6.50343">
        <ele>974.79998779297</ele>
        <time>2022-08-21T11:02:50Z</time>
      </trkpt>
      <trkpt lat="43.95589" lon="6.50355">
        <ele>974</ele>
        <time>2022-08-21T11:02:54Z</time>
      </trkpt>
      <trkpt lat="43.95596" lon="6.50364">
        <ele>973.40002441406</ele>
        <time>2022-08-21T11:02:57Z</time>
      </trkpt>
      <trkpt lat="43.95597" lon="6.50367">
        <ele>973.20001220703</ele>
        <time>2022-08-21T11:02:58Z</time>
      </trkpt>
      <trkpt lat="43.95596" lon="6.50374">
        <ele>973</ele>
        <time>2022-08-21T11:03:00Z</time>
      </trkpt>
      <trkpt lat="43.95596" lon="6.50377">
        <ele>973</ele>
        <time>2022-08-21T11:03:01Z</time>
      </trkpt>
      <trkpt lat="43.95596" lon="6.50381">
        <ele>972.20001220703</ele>
        <time>2022-08-21T11:03:04Z</time>
      </trkpt>
      <trkpt lat="43.95596" lon="6.50384">
        <ele>972</ele>
        <time>2022-08-21T11:03:05Z</time>
      </trkpt>
      <trkpt lat="43.95596" lon="6.50388">
        <ele>971.79998779297</ele>
        <time>2022-08-21T11:03:06Z</time>
      </trkpt>
      <trkpt lat="43.9559" lon="6.50408">
        <ele>970.59997558594</ele>
        <time>2022-08-21T11:03:10Z</time>
      </trkpt>
      <trkpt lat="43.95588" lon="6.50414">
        <ele>970.20001220703</ele>
        <time>2022-08-21T11:03:11Z</time>
      </trkpt>
      <trkpt lat="43.95585" lon="6.50427">
        <ele>969.40002441406</ele>
        <time>2022-08-21T11:03:13Z</time>
      </trkpt>
      <trkpt lat="43.95578" lon="6.50447">
        <ele>968.20001220703</ele>
        <time>2022-08-21T11:03:16Z</time>
      </trkpt>
      <trkpt lat="43.95573" lon="6.50462">
        <ele>967</ele>
        <time>2022-08-21T11:03:18Z</time>
      </trkpt>
      <trkpt lat="43.95568" lon="6.50477">
        <ele>966.20001220703</ele>
        <time>2022-08-21T11:03:20Z</time>
      </trkpt>
      <trkpt lat="43.95566" lon="6.50485">
        <ele>966</ele>
        <time>2022-08-21T11:03:21Z</time>
      </trkpt>
      <trkpt lat="43.9556" lon="6.50516">
        <ele>964.79998779297</ele>
        <time>2022-08-21T11:03:25Z</time>
      </trkpt>
      <trkpt lat="43.95559" lon="6.50524">
        <ele>964.59997558594</ele>
        <time>2022-08-21T11:03:26Z</time>
      </trkpt>
      <trkpt lat="43.95555" lon="6.50547">
        <ele>963.59997558594</ele>
        <time>2022-08-21T11:03:30Z</time>
      </trkpt>
      <trkpt lat="43.95555" lon="6.50553">
        <ele>963.40002441406</ele>
        <time>2022-08-21T11:03:31Z</time>
      </trkpt>
      <trkpt lat="43.95557" lon="6.50559">
        <ele>963</ele>
        <time>2022-08-21T11:03:32Z</time>
      </trkpt>
      <trkpt lat="43.9556" lon="6.50564">
        <ele>962.40002441406</ele>
        <time>2022-08-21T11:03:33Z</time>
      </trkpt>
      <trkpt lat="43.95563" lon="6.50568">
        <ele>962</ele>
        <time>2022-08-21T11:03:34Z</time>
      </trkpt>
      <trkpt lat="43.95569" lon="6.50579">
        <ele>961.20001220703</ele>
        <time>2022-08-21T11:03:36Z</time>
      </trkpt>
      <trkpt lat="43.95571" lon="6.5059">
        <ele>960.40002441406</ele>
        <time>2022-08-21T11:03:38Z</time>
      </trkpt>
      <trkpt lat="43.95571" lon="6.50596">
        <ele>960</ele>
        <time>2022-08-21T11:03:39Z</time>
      </trkpt>
      <trkpt lat="43.95572" lon="6.50616">
        <ele>958.59997558594</ele>
        <time>2022-08-21T11:03:42Z</time>
      </trkpt>
      <trkpt lat="43.95572" lon="6.50622">
        <ele>958.20001220703</ele>
        <time>2022-08-21T11:03:43Z</time>
      </trkpt>
      <trkpt lat="43.95569" lon="6.50631">
        <ele>957.40002441406</ele>
        <time>2022-08-21T11:03:45Z</time>
      </trkpt>
      <trkpt lat="43.95562" lon="6.5064">
        <ele>956.40002441406</ele>
        <time>2022-08-21T11:03:47Z</time>
      </trkpt>
      <trkpt lat="43.95558" lon="6.50642">
        <ele>956</ele>
        <time>2022-08-21T11:03:48Z</time>
      </trkpt>
      <trkpt lat="43.95554" lon="6.50643">
        <ele>955.79998779297</ele>
        <time>2022-08-21T11:03:49Z</time>
      </trkpt>
      <trkpt lat="43.95548" lon="6.5065">
        <ele>955.59997558594</ele>
        <time>2022-08-21T11:03:51Z</time>
      </trkpt>
      <trkpt lat="43.95544" lon="6.50656">
        <ele>956</ele>
        <time>2022-08-21T11:03:53Z</time>
      </trkpt>
      <trkpt lat="43.95536" lon="6.50673">
        <ele>957</ele>
        <time>2022-08-21T11:03:58Z</time>
      </trkpt>
      <trkpt lat="43.95535" lon="6.50677">
        <ele>957.20001220703</ele>
        <time>2022-08-21T11:03:59Z</time>
      </trkpt>
      <trkpt lat="43.95525" lon="6.50698">
        <ele>957.79998779297</ele>
        <time>2022-08-21T11:04:05Z</time>
      </trkpt>
      <trkpt lat="43.95518" lon="6.50706">
        <ele>958</ele>
        <time>2022-08-21T11:04:08Z</time>
      </trkpt>
      <trkpt lat="43.95516" lon="6.50708">
        <ele>958.20001220703</ele>
        <time>2022-08-21T11:04:09Z</time>
      </trkpt>
      <trkpt lat="43.95512" lon="6.50713">
        <ele>958.59997558594</ele>
        <time>2022-08-21T11:04:11Z</time>
      </trkpt>
      <trkpt lat="43.95508" lon="6.50718">
        <ele>959</ele>
        <time>2022-08-21T11:04:13Z</time>
      </trkpt>
      <trkpt lat="43.95504" lon="6.50723">
        <ele>959.20001220703</ele>
        <time>2022-08-21T11:04:15Z</time>
      </trkpt>
      <trkpt lat="43.95502" lon="6.50726">
        <ele>959.20001220703</ele>
        <time>2022-08-21T11:04:16Z</time>
      </trkpt>
      <trkpt lat="43.955" lon="6.50728">
        <ele>959.40002441406</ele>
        <time>2022-08-21T11:04:17Z</time>
      </trkpt>
      <trkpt lat="43.95498" lon="6.5073">
        <ele>959.40002441406</ele>
        <time>2022-08-21T11:04:18Z</time>
      </trkpt>
      <trkpt lat="43.95492" lon="6.50734">
        <ele>959.40002441406</ele>
        <time>2022-08-21T11:04:20Z</time>
      </trkpt>
      <trkpt lat="43.95479" lon="6.50743">
        <ele>959.20001220703</ele>
        <time>2022-08-21T11:04:24Z</time>
      </trkpt>
      <trkpt lat="43.9546" lon="6.50764">
        <ele>958.40002441406</ele>
        <time>2022-08-21T11:04:31Z</time>
      </trkpt>
      <trkpt lat="43.95458" lon="6.50767">
        <ele>958.59997558594</ele>
        <time>2022-08-21T11:04:32Z</time>
      </trkpt>
      <trkpt lat="43.95451" lon="6.50773">
        <ele>958.59997558594</ele>
        <time>2022-08-21T11:04:35Z</time>
      </trkpt>
      <trkpt lat="43.95448" lon="6.50775">
        <ele>958.79998779297</ele>
        <time>2022-08-21T11:04:37Z</time>
      </trkpt>
      <trkpt lat="43.95445" lon="6.50775">
        <ele>959</ele>
        <time>2022-08-21T11:04:39Z</time>
      </trkpt>
      <trkpt lat="43.95445" lon="6.50774">
        <ele>959</ele>
        <time>2022-08-21T11:04:41Z</time>
      </trkpt>
      <trkpt lat="43.95445" lon="6.50774">
        <ele>959</ele>
        <time>2022-08-21T11:04:42Z</time>
      </trkpt>
      <trkpt lat="43.95444" lon="6.50774">
        <ele>958.79998779297</ele>
        <time>2022-08-21T11:04:44Z</time>
      </trkpt>
      <trkpt lat="43.95444" lon="6.50774">
        <ele>958.79998779297</ele>
        <time>2022-08-21T11:04:47Z</time>
      </trkpt>
      <trkpt lat="43.95444" lon="6.50774">
        <ele>958.79998779297</ele>
        <time>2022-08-21T11:04:50Z</time>
      </trkpt>
      <trkpt lat="43.95444" lon="6.50774">
        <ele>958.79998779297</ele>
        <time>2022-08-21T11:04:52Z</time>
      </trkpt>
      <trkpt lat="43.95444" lon="6.50775">
        <ele>958.79998779297</ele>
        <time>2022-08-21T11:04:54Z</time>
      </trkpt>
      <trkpt lat="43.95444" lon="6.50775">
        <ele>958.40002441406</ele>
        <time>2022-08-21T11:05:03Z</time>
      </trkpt>
      <trkpt lat="43.95444" lon="6.50775">
        <ele>958.20001220703</ele>
        <time>2022-08-21T11:05:07Z</time>
      </trkpt>
      <trkpt lat="43.95444" lon="6.50776">
        <ele>958</ele>
        <time>2022-08-21T11:05:16Z</time>
      </trkpt>
      <trkpt lat="43.95444" lon="6.50776">
        <ele>957.79998779297</ele>
        <time>2022-08-21T11:05:20Z</time>
      </trkpt>
      <trkpt lat="43.95444" lon="6.50777">
        <ele>957.59997558594</ele>
        <time>2022-08-21T11:05:26Z</time>
      </trkpt>
      <trkpt lat="43.95444" lon="6.50777">
        <ele>957.40002441406</ele>
        <time>2022-08-21T11:05:31Z</time>
      </trkpt>
      <trkpt lat="43.95436" lon="6.50773">
        <ele>957.20001220703</ele>
        <time>2022-08-21T11:05:38Z</time>
      </trkpt>
      <trkpt lat="43.95431" lon="6.50769">
        <ele>956.79998779297</ele>
        <time>2022-08-21T11:05:40Z</time>
      </trkpt>
      <trkpt lat="43.95429" lon="6.50767">
        <ele>956.59997558594</ele>
        <time>2022-08-21T11:05:41Z</time>
      </trkpt>
      <trkpt lat="43.95419" lon="6.50761">
        <ele>955.59997558594</ele>
        <time>2022-08-21T11:05:44Z</time>
      </trkpt>
      <trkpt lat="43.95412" lon="6.50759">
        <ele>954.40002441406</ele>
        <time>2022-08-21T11:05:46Z</time>
      </trkpt>
      <trkpt lat="43.95406" lon="6.50757">
        <ele>953.20001220703</ele>
        <time>2022-08-21T11:05:48Z</time>
      </trkpt>
      <trkpt lat="43.95399" lon="6.50756">
        <ele>951.79998779297</ele>
        <time>2022-08-21T11:05:51Z</time>
      </trkpt>
      <trkpt lat="43.95398" lon="6.50755">
        <ele>951.40002441406</ele>
        <time>2022-08-21T11:05:52Z</time>
      </trkpt>
      <trkpt lat="43.95395" lon="6.50753">
        <ele>950.59997558594</ele>
        <time>2022-08-21T11:05:54Z</time>
      </trkpt>
      <trkpt lat="43.95387" lon="6.50751">
        <ele>949.40002441406</ele>
        <time>2022-08-21T11:05:57Z</time>
      </trkpt>
      <trkpt lat="43.95383" lon="6.50752">
        <ele>948.79998779297</ele>
        <time>2022-08-21T11:05:58Z</time>
      </trkpt>
      <trkpt lat="43.9538" lon="6.50753">
        <ele>948.40002441406</ele>
        <time>2022-08-21T11:05:59Z</time>
      </trkpt>
      <trkpt lat="43.95378" lon="6.50755">
        <ele>948.20001220703</ele>
        <time>2022-08-21T11:06:00Z</time>
      </trkpt>
      <trkpt lat="43.95378" lon="6.50761">
        <ele>947.79998779297</ele>
        <time>2022-08-21T11:06:02Z</time>
      </trkpt>
      <trkpt lat="43.95384" lon="6.50775">
        <ele>947.59997558594</ele>
        <time>2022-08-21T11:06:07Z</time>
      </trkpt>
      <trkpt lat="43.95382" lon="6.50795">
        <ele>947.59997558594</ele>
        <time>2022-08-21T11:06:13Z</time>
      </trkpt>
      <trkpt lat="43.95377" lon="6.50806">
        <ele>948.40002441406</ele>
        <time>2022-08-21T11:06:18Z</time>
      </trkpt>
      <trkpt lat="43.95377" lon="6.50808">
        <ele>948.59997558594</ele>
        <time>2022-08-21T11:06:19Z</time>
      </trkpt>
      <trkpt lat="43.95374" lon="6.50812">
        <ele>949</ele>
        <time>2022-08-21T11:06:22Z</time>
      </trkpt>
      <trkpt lat="43.95371" lon="6.50813">
        <ele>949.59997558594</ele>
        <time>2022-08-21T11:06:24Z</time>
      </trkpt>
      <trkpt lat="43.95368" lon="6.50812">
        <ele>950</ele>
        <time>2022-08-21T11:06:26Z</time>
      </trkpt>
      <trkpt lat="43.95367" lon="6.50809">
        <ele>950.59997558594</ele>
        <time>2022-08-21T11:06:28Z</time>
      </trkpt>
      <trkpt lat="43.95368" lon="6.508">
        <ele>951</ele>
        <time>2022-08-21T11:06:31Z</time>
      </trkpt>
      <trkpt lat="43.95368" lon="6.50794">
        <ele>951</ele>
        <time>2022-08-21T11:06:33Z</time>
      </trkpt>
      <trkpt lat="43.95367" lon="6.50791">
        <ele>951.20001220703</ele>
        <time>2022-08-21T11:06:34Z</time>
      </trkpt>
      <trkpt lat="43.95367" lon="6.50789">
        <ele>951.20001220703</ele>
        <time>2022-08-21T11:06:35Z</time>
      </trkpt>
      <trkpt lat="43.95364" lon="6.50785">
        <ele>951.40002441406</ele>
        <time>2022-08-21T11:06:37Z</time>
      </trkpt>
      <trkpt lat="43.95362" lon="6.50784">
        <ele>951.59997558594</ele>
        <time>2022-08-21T11:06:38Z</time>
      </trkpt>
      <trkpt lat="43.9536" lon="6.50783">
        <ele>951.79998779297</ele>
        <time>2022-08-21T11:06:39Z</time>
      </trkpt>
      <trkpt lat="43.95359" lon="6.50782">
        <ele>951.79998779297</ele>
        <time>2022-08-21T11:06:40Z</time>
      </trkpt>
      <trkpt lat="43.95358" lon="6.50782">
        <ele>952</ele>
        <time>2022-08-21T11:06:41Z</time>
      </trkpt>
      <trkpt lat="43.95357" lon="6.50783">
        <ele>952.20001220703</ele>
        <time>2022-08-21T11:06:43Z</time>
      </trkpt>
      <trkpt lat="43.95355" lon="6.50785">
        <ele>952.40002441406</ele>
        <time>2022-08-21T11:06:44Z</time>
      </trkpt>
      <trkpt lat="43.95352" lon="6.50791">
        <ele>952.59997558594</ele>
        <time>2022-08-21T11:06:46Z</time>
      </trkpt>
      <trkpt lat="43.95344" lon="6.50808">
        <ele>953.59997558594</ele>
        <time>2022-08-21T11:06:53Z</time>
      </trkpt>
      <trkpt lat="43.95337" lon="6.50822">
        <ele>954.59997558594</ele>
        <time>2022-08-21T11:07:00Z</time>
      </trkpt>
      <trkpt lat="43.95329" lon="6.50835">
        <ele>955.59997558594</ele>
        <time>2022-08-21T11:07:06Z</time>
      </trkpt>
      <trkpt lat="43.95327" lon="6.50839">
        <ele>955.79998779297</ele>
        <time>2022-08-21T11:07:08Z</time>
      </trkpt>
      <trkpt lat="43.95323" lon="6.50845">
        <ele>956.59997558594</ele>
        <time>2022-08-21T11:07:12Z</time>
      </trkpt>
      <trkpt lat="43.95321" lon="6.50849">
        <ele>957</ele>
        <time>2022-08-21T11:07:14Z</time>
      </trkpt>
      <trkpt lat="43.95316" lon="6.50858">
        <ele>957.59997558594</ele>
        <time>2022-08-21T11:07:19Z</time>
      </trkpt>
      <trkpt lat="43.95309" lon="6.50861">
        <ele>958</ele>
        <time>2022-08-21T11:07:23Z</time>
      </trkpt>
      <trkpt lat="43.95305" lon="6.50861">
        <ele>958.20001220703</ele>
        <time>2022-08-21T11:07:25Z</time>
      </trkpt>
      <trkpt lat="43.95297" lon="6.50851">
        <ele>958.79998779297</ele>
        <time>2022-08-21T11:07:31Z</time>
      </trkpt>
      <trkpt lat="43.95297" lon="6.50849">
        <ele>958.79998779297</ele>
        <time>2022-08-21T11:07:32Z</time>
      </trkpt>
      <trkpt lat="43.95297" lon="6.50846">
        <ele>959</ele>
        <time>2022-08-21T11:07:33Z</time>
      </trkpt>
      <trkpt lat="43.95299" lon="6.50839">
        <ele>959.20001220703</ele>
        <time>2022-08-21T11:07:36Z</time>
      </trkpt>
      <trkpt lat="43.95307" lon="6.50827">
        <ele>960</ele>
        <time>2022-08-21T11:07:42Z</time>
      </trkpt>
      <trkpt lat="43.95315" lon="6.50814">
        <ele>961.20001220703</ele>
        <time>2022-08-21T11:07:49Z</time>
      </trkpt>
      <trkpt lat="43.95319" lon="6.508">
        <ele>962.20001220703</ele>
        <time>2022-08-21T11:07:56Z</time>
      </trkpt>
      <trkpt lat="43.95318" lon="6.50792">
        <ele>962.79998779297</ele>
        <time>2022-08-21T11:08:00Z</time>
      </trkpt>
      <trkpt lat="43.95315" lon="6.50787">
        <ele>963</ele>
        <time>2022-08-21T11:08:03Z</time>
      </trkpt>
      <trkpt lat="43.95314" lon="6.50786">
        <ele>963.20001220703</ele>
        <time>2022-08-21T11:08:04Z</time>
      </trkpt>
      <trkpt lat="43.95313" lon="6.50785">
        <ele>963.40002441406</ele>
        <time>2022-08-21T11:08:05Z</time>
      </trkpt>
      <trkpt lat="43.95306" lon="6.50782">
        <ele>963.79998779297</ele>
        <time>2022-08-21T11:08:09Z</time>
      </trkpt>
      <trkpt lat="43.95296" lon="6.50779">
        <ele>964.40002441406</ele>
        <time>2022-08-21T11:08:15Z</time>
      </trkpt>
      <trkpt lat="43.95293" lon="6.50779">
        <ele>964.79998779297</ele>
        <time>2022-08-21T11:08:17Z</time>
      </trkpt>
      <trkpt lat="43.95282" lon="6.50781">
        <ele>965.40002441406</ele>
        <time>2022-08-21T11:08:24Z</time>
      </trkpt>
      <trkpt lat="43.9528" lon="6.50782">
        <ele>965.59997558594</ele>
        <time>2022-08-21T11:08:25Z</time>
      </trkpt>
      <trkpt lat="43.95271" lon="6.5079">
        <ele>966.40002441406</ele>
        <time>2022-08-21T11:08:33Z</time>
      </trkpt>
      <trkpt lat="43.95268" lon="6.50794">
        <ele>966.59997558594</ele>
        <time>2022-08-21T11:08:35Z</time>
      </trkpt>
      <trkpt lat="43.95263" lon="6.50809">
        <ele>967.40002441406</ele>
        <time>2022-08-21T11:08:42Z</time>
      </trkpt>
      <trkpt lat="43.95261" lon="6.50814">
        <ele>967.59997558594</ele>
        <time>2022-08-21T11:08:44Z</time>
      </trkpt>
      <trkpt lat="43.95257" lon="6.50833">
        <ele>968.59997558594</ele>
        <time>2022-08-21T11:08:52Z</time>
      </trkpt>
      <trkpt lat="43.95255" lon="6.50837">
        <ele>968.79998779297</ele>
        <time>2022-08-21T11:08:54Z</time>
      </trkpt>
      <trkpt lat="43.95249" lon="6.50849">
        <ele>969.59997558594</ele>
        <time>2022-08-21T11:09:00Z</time>
      </trkpt>
      <trkpt lat="43.95248" lon="6.50849">
        <ele>969.79998779297</ele>
        <time>2022-08-21T11:09:01Z</time>
      </trkpt>
      <trkpt lat="43.95243" lon="6.50847">
        <ele>970.20001220703</ele>
        <time>2022-08-21T11:09:04Z</time>
      </trkpt>
      <trkpt lat="43.9524" lon="6.50835">
        <ele>970.59997558594</ele>
        <time>2022-08-21T11:09:10Z</time>
      </trkpt>
      <trkpt lat="43.95241" lon="6.50833">
        <ele>970.79998779297</ele>
        <time>2022-08-21T11:09:11Z</time>
      </trkpt>
      <trkpt lat="43.95244" lon="6.50824">
        <ele>971.20001220703</ele>
        <time>2022-08-21T11:09:15Z</time>
      </trkpt>
      <trkpt lat="43.95247" lon="6.50802">
        <ele>972</ele>
        <time>2022-08-21T11:09:23Z</time>
      </trkpt>
      <trkpt lat="43.95247" lon="6.50796">
        <ele>972.20001220703</ele>
        <time>2022-08-21T11:09:25Z</time>
      </trkpt>
      <trkpt lat="43.95245" lon="6.50782">
        <ele>972.79998779297</ele>
        <time>2022-08-21T11:09:31Z</time>
      </trkpt>
      <trkpt lat="43.95246" lon="6.50777">
        <ele>973</ele>
        <time>2022-08-21T11:09:33Z</time>
      </trkpt>
      <trkpt lat="43.95246" lon="6.50773">
        <ele>973.20001220703</ele>
        <time>2022-08-21T11:09:35Z</time>
      </trkpt>
      <trkpt lat="43.95246" lon="6.50768">
        <ele>973.40002441406</ele>
        <time>2022-08-21T11:09:37Z</time>
      </trkpt>
      <trkpt lat="43.95247" lon="6.50763">
        <ele>973.59997558594</ele>
        <time>2022-08-21T11:09:39Z</time>
      </trkpt>
      <trkpt lat="43.95247" lon="6.50755">
        <ele>974</ele>
        <time>2022-08-21T11:09:42Z</time>
      </trkpt>
      <trkpt lat="43.95247" lon="6.50752">
        <ele>974</ele>
        <time>2022-08-21T11:09:43Z</time>
      </trkpt>
      <trkpt lat="43.95249" lon="6.50737">
        <ele>974.59997558594</ele>
        <time>2022-08-21T11:09:49Z</time>
      </trkpt>
      <trkpt lat="43.95253" lon="6.50725">
        <ele>975</ele>
        <time>2022-08-21T11:09:54Z</time>
      </trkpt>
      <trkpt lat="43.95256" lon="6.50718">
        <ele>975.20001220703</ele>
        <time>2022-08-21T11:09:57Z</time>
      </trkpt>
      <trkpt lat="43.95262" lon="6.50705">
        <ele>975.79998779297</ele>
        <time>2022-08-21T11:10:03Z</time>
      </trkpt>
      <trkpt lat="43.95264" lon="6.50701">
        <ele>976.20001220703</ele>
        <time>2022-08-21T11:10:05Z</time>
      </trkpt>
      <trkpt lat="43.95266" lon="6.50691">
        <ele>976.40002441406</ele>
        <time>2022-08-21T11:10:09Z</time>
      </trkpt>
      <trkpt lat="43.95263" lon="6.50688">
        <ele>976.79998779297</ele>
        <time>2022-08-21T11:10:11Z</time>
      </trkpt>
      <trkpt lat="43.95259" lon="6.50686">
        <ele>977.20001220703</ele>
        <time>2022-08-21T11:10:13Z</time>
      </trkpt>
      <trkpt lat="43.95258" lon="6.50686">
        <ele>977.40002441406</ele>
        <time>2022-08-21T11:10:14Z</time>
      </trkpt>
      <trkpt lat="43.95253" lon="6.50692">
        <ele>978</ele>
        <time>2022-08-21T11:10:18Z</time>
      </trkpt>
      <trkpt lat="43.9525" lon="6.50698">
        <ele>978.20001220703</ele>
        <time>2022-08-21T11:10:20Z</time>
      </trkpt>
      <trkpt lat="43.95246" lon="6.50709">
        <ele>978.79998779297</ele>
        <time>2022-08-21T11:10:25Z</time>
      </trkpt>
      <trkpt lat="43.95242" lon="6.50721">
        <ele>979.20001220703</ele>
        <time>2022-08-21T11:10:30Z</time>
      </trkpt>
      <trkpt lat="43.95235" lon="6.50733">
        <ele>980</ele>
        <time>2022-08-21T11:10:36Z</time>
      </trkpt>
      <trkpt lat="43.95234" lon="6.50737">
        <ele>980.40002441406</ele>
        <time>2022-08-21T11:10:38Z</time>
      </trkpt>
      <trkpt lat="43.95228" lon="6.50746">
        <ele>981.40002441406</ele>
        <time>2022-08-21T11:10:43Z</time>
      </trkpt>
      <trkpt lat="43.95227" lon="6.50748">
        <ele>981.40002441406</ele>
        <time>2022-08-21T11:10:44Z</time>
      </trkpt>
      <trkpt lat="43.95221" lon="6.50754">
        <ele>982.20001220703</ele>
        <time>2022-08-21T11:10:49Z</time>
      </trkpt>
      <trkpt lat="43.95218" lon="6.50756">
        <ele>982.40002441406</ele>
        <time>2022-08-21T11:10:51Z</time>
      </trkpt>
      <trkpt lat="43.95206" lon="6.50768">
        <ele>983.20001220703</ele>
        <time>2022-08-21T11:10:59Z</time>
      </trkpt>
      <trkpt lat="43.95201" lon="6.50772">
        <ele>983.59997558594</ele>
        <time>2022-08-21T11:11:02Z</time>
      </trkpt>
      <trkpt lat="43.95195" lon="6.50777">
        <ele>984</ele>
        <time>2022-08-21T11:11:06Z</time>
      </trkpt>
      <trkpt lat="43.95189" lon="6.50783">
        <ele>984.59997558594</ele>
        <time>2022-08-21T11:11:10Z</time>
      </trkpt>
      <trkpt lat="43.95187" lon="6.50786">
        <ele>984.79998779297</ele>
        <time>2022-08-21T11:11:12Z</time>
      </trkpt>
      <trkpt lat="43.95178" lon="6.50798">
        <ele>985.59997558594</ele>
        <time>2022-08-21T11:11:20Z</time>
      </trkpt>
      <trkpt lat="43.95172" lon="6.50808">
        <ele>986.20001220703</ele>
        <time>2022-08-21T11:11:26Z</time>
      </trkpt>
      <trkpt lat="43.95166" lon="6.50817">
        <ele>986.79998779297</ele>
        <time>2022-08-21T11:11:31Z</time>
      </trkpt>
      <trkpt lat="43.95163" lon="6.50822">
        <ele>987</ele>
        <time>2022-08-21T11:11:34Z</time>
      </trkpt>
      <trkpt lat="43.95157" lon="6.50824">
        <ele>987.40002441406</ele>
        <time>2022-08-21T11:11:38Z</time>
      </trkpt>
      <trkpt lat="43.95155" lon="6.50826">
        <ele>987.59997558594</ele>
        <time>2022-08-21T11:11:40Z</time>
      </trkpt>
      <trkpt lat="43.9515" lon="6.50829">
        <ele>987.79998779297</ele>
        <time>2022-08-21T11:11:43Z</time>
      </trkpt>
      <trkpt lat="43.95142" lon="6.50833">
        <ele>988.40002441406</ele>
        <time>2022-08-21T11:11:48Z</time>
      </trkpt>
      <trkpt lat="43.95136" lon="6.50834">
        <ele>988.79998779297</ele>
        <time>2022-08-21T11:11:52Z</time>
      </trkpt>
      <trkpt lat="43.9513" lon="6.50832">
        <ele>989.20001220703</ele>
        <time>2022-08-21T11:11:55Z</time>
      </trkpt>
      <trkpt lat="43.95125" lon="6.50831">
        <ele>989.59997558594</ele>
        <time>2022-08-21T11:11:58Z</time>
      </trkpt>
      <trkpt lat="43.95119" lon="6.50829">
        <ele>989.59997558594</ele>
        <time>2022-08-21T11:12:01Z</time>
      </trkpt>
      <trkpt lat="43.95114" lon="6.50827">
        <ele>990</ele>
        <time>2022-08-21T11:12:04Z</time>
      </trkpt>
      <trkpt lat="43.95103" lon="6.5082">
        <ele>990.59997558594</ele>
        <time>2022-08-21T11:12:11Z</time>
      </trkpt>
      <trkpt lat="43.95101" lon="6.50819">
        <ele>990.79998779297</ele>
        <time>2022-08-21T11:12:12Z</time>
      </trkpt>
      <trkpt lat="43.95099" lon="6.50818">
        <ele>991</ele>
        <time>2022-08-21T11:12:13Z</time>
      </trkpt>
      <trkpt lat="43.95093" lon="6.50813">
        <ele>991.40002441406</ele>
        <time>2022-08-21T11:12:17Z</time>
      </trkpt>
      <trkpt lat="43.9509" lon="6.5081">
        <ele>991.59997558594</ele>
        <time>2022-08-21T11:12:19Z</time>
      </trkpt>
      <trkpt lat="43.95085" lon="6.50805">
        <ele>992</ele>
        <time>2022-08-21T11:12:23Z</time>
      </trkpt>
      <trkpt lat="43.95077" lon="6.50802">
        <ele>992.59997558594</ele>
        <time>2022-08-21T11:12:27Z</time>
      </trkpt>
      <trkpt lat="43.95067" lon="6.50802">
        <ele>993.20001220703</ele>
        <time>2022-08-21T11:12:33Z</time>
      </trkpt>
      <trkpt lat="43.95065" lon="6.50802">
        <ele>993.40002441406</ele>
        <time>2022-08-21T11:12:35Z</time>
      </trkpt>
      <trkpt lat="43.95057" lon="6.50799">
        <ele>994.20001220703</ele>
        <time>2022-08-21T11:12:40Z</time>
      </trkpt>
      <trkpt lat="43.9505" lon="6.50797">
        <ele>994.79998779297</ele>
        <time>2022-08-21T11:12:44Z</time>
      </trkpt>
      <trkpt lat="43.95038" lon="6.50786">
        <ele>995.20001220703</ele>
        <time>2022-08-21T11:12:51Z</time>
      </trkpt>
      <trkpt lat="43.95035" lon="6.50783">
        <ele>995.40002441406</ele>
        <time>2022-08-21T11:12:53Z</time>
      </trkpt>
      <trkpt lat="43.95024" lon="6.50776">
        <ele>996</ele>
        <time>2022-08-21T11:13:00Z</time>
      </trkpt>
      <trkpt lat="43.9502" lon="6.50776">
        <ele>996.40002441406</ele>
        <time>2022-08-21T11:13:02Z</time>
      </trkpt>
      <trkpt lat="43.95014" lon="6.50777">
        <ele>996.59997558594</ele>
        <time>2022-08-21T11:13:05Z</time>
      </trkpt>
      <trkpt lat="43.95007" lon="6.50778">
        <ele>996.79998779297</ele>
        <time>2022-08-21T11:13:09Z</time>
      </trkpt>
      <trkpt lat="43.95004" lon="6.50778">
        <ele>997</ele>
        <time>2022-08-21T11:13:11Z</time>
      </trkpt>
      <trkpt lat="43.94999" lon="6.50777">
        <ele>997.20001220703</ele>
        <time>2022-08-21T11:13:14Z</time>
      </trkpt>
      <trkpt lat="43.94998" lon="6.50777">
        <ele>997.40002441406</ele>
        <time>2022-08-21T11:13:15Z</time>
      </trkpt>
      <trkpt lat="43.94992" lon="6.50771">
        <ele>998.40002441406</ele>
        <time>2022-08-21T11:13:19Z</time>
      </trkpt>
      <trkpt lat="43.94992" lon="6.5077">
        <ele>998.40002441406</ele>
        <time>2022-08-21T11:13:20Z</time>
      </trkpt>
      <trkpt lat="43.94991" lon="6.50768">
        <ele>998.59997558594</ele>
        <time>2022-08-21T11:13:21Z</time>
      </trkpt>
      <trkpt lat="43.94991" lon="6.50761">
        <ele>999</ele>
        <time>2022-08-21T11:13:25Z</time>
      </trkpt>
      <trkpt lat="43.94995" lon="6.50757">
        <ele>999.59997558594</ele>
        <time>2022-08-21T11:13:28Z</time>
      </trkpt>
      <trkpt lat="43.94998" lon="6.50755">
        <ele>999.79998779297</ele>
        <time>2022-08-21T11:13:31Z</time>
      </trkpt>
      <trkpt lat="43.95012" lon="6.50757">
        <ele>1000.200012207</ele>
        <time>2022-08-21T11:13:39Z</time>
      </trkpt>
      <trkpt lat="43.95023" lon="6.50757">
        <ele>1000.5999755859</ele>
        <time>2022-08-21T11:13:45Z</time>
      </trkpt>
      <trkpt lat="43.95025" lon="6.50757">
        <ele>1000.5999755859</ele>
        <time>2022-08-21T11:13:46Z</time>
      </trkpt>
      <trkpt lat="43.95042" lon="6.50752">
        <ele>1001.5999755859</ele>
        <time>2022-08-21T11:13:55Z</time>
      </trkpt>
      <trkpt lat="43.95058" lon="6.50748">
        <ele>1002.5999755859</ele>
        <time>2022-08-21T11:14:04Z</time>
      </trkpt>
      <trkpt lat="43.9506" lon="6.50747">
        <ele>1002.5999755859</ele>
        <time>2022-08-21T11:14:05Z</time>
      </trkpt>
      <trkpt lat="43.95071" lon="6.50744">
        <ele>1003.5999755859</ele>
        <time>2022-08-21T11:14:12Z</time>
      </trkpt>
      <trkpt lat="43.95073" lon="6.50744">
        <ele>1003.799987793</ele>
        <time>2022-08-21T11:14:13Z</time>
      </trkpt>
      <trkpt lat="43.9509" lon="6.50733">
        <ele>1004.5999755859</ele>
        <time>2022-08-21T11:14:23Z</time>
      </trkpt>
      <trkpt lat="43.95092" lon="6.50731">
        <ele>1004.799987793</ele>
        <time>2022-08-21T11:14:24Z</time>
      </trkpt>
      <trkpt lat="43.95101" lon="6.50717">
        <ele>1005.4000244141</ele>
        <time>2022-08-21T11:14:31Z</time>
      </trkpt>
      <trkpt lat="43.95106" lon="6.50707">
        <ele>1005.799987793</ele>
        <time>2022-08-21T11:14:36Z</time>
      </trkpt>
      <trkpt lat="43.95108" lon="6.50703">
        <ele>1006</ele>
        <time>2022-08-21T11:14:38Z</time>
      </trkpt>
      <trkpt lat="43.95111" lon="6.507">
        <ele>1006.200012207</ele>
        <time>2022-08-21T11:14:40Z</time>
      </trkpt>
      <trkpt lat="43.95117" lon="6.50692">
        <ele>1006.799987793</ele>
        <time>2022-08-21T11:14:45Z</time>
      </trkpt>
      <trkpt lat="43.95123" lon="6.50686">
        <ele>1007.4000244141</ele>
        <time>2022-08-21T11:14:49Z</time>
      </trkpt>
      <trkpt lat="43.95133" lon="6.50679">
        <ele>1008</ele>
        <time>2022-08-21T11:14:55Z</time>
      </trkpt>
      <trkpt lat="43.95139" lon="6.50676">
        <ele>1008.4000244141</ele>
        <time>2022-08-21T11:14:59Z</time>
      </trkpt>
      <trkpt lat="43.95145" lon="6.50671">
        <ele>1009</ele>
        <time>2022-08-21T11:15:04Z</time>
      </trkpt>
      <trkpt lat="43.9515" lon="6.50668">
        <ele>1009.4000244141</ele>
        <time>2022-08-21T11:15:07Z</time>
      </trkpt>
      <trkpt lat="43.95155" lon="6.50664">
        <ele>1010</ele>
        <time>2022-08-21T11:15:11Z</time>
      </trkpt>
      <trkpt lat="43.95161" lon="6.50661">
        <ele>1010.4000244141</ele>
        <time>2022-08-21T11:15:15Z</time>
      </trkpt>
      <trkpt lat="43.95171" lon="6.50655">
        <ele>1011</ele>
        <time>2022-08-21T11:15:21Z</time>
      </trkpt>
      <trkpt lat="43.95172" lon="6.50654">
        <ele>1011.200012207</ele>
        <time>2022-08-21T11:15:22Z</time>
      </trkpt>
      <trkpt lat="43.95175" lon="6.50641">
        <ele>1011.5999755859</ele>
        <time>2022-08-21T11:15:28Z</time>
      </trkpt>
      <trkpt lat="43.9517" lon="6.50635">
        <ele>1012.200012207</ele>
        <time>2022-08-21T11:15:32Z</time>
      </trkpt>
      <trkpt lat="43.95165" lon="6.50634">
        <ele>1012.5999755859</ele>
        <time>2022-08-21T11:15:36Z</time>
      </trkpt>
      <trkpt lat="43.9516" lon="6.50642">
        <ele>1013.200012207</ele>
        <time>2022-08-21T11:15:42Z</time>
      </trkpt>
      <trkpt lat="43.9516" lon="6.50643">
        <ele>1013.4000244141</ele>
        <time>2022-08-21T11:15:43Z</time>
      </trkpt>
      <trkpt lat="43.95155" lon="6.50649">
        <ele>1013.799987793</ele>
        <time>2022-08-21T11:15:47Z</time>
      </trkpt>
      <trkpt lat="43.9515" lon="6.50653">
        <ele>1014.4000244141</ele>
        <time>2022-08-21T11:15:53Z</time>
      </trkpt>
      <trkpt lat="43.95148" lon="6.50654">
        <ele>1014.5999755859</ele>
        <time>2022-08-21T11:15:54Z</time>
      </trkpt>
      <trkpt lat="43.95137" lon="6.50658">
        <ele>1015.4000244141</ele>
        <time>2022-08-21T11:16:00Z</time>
      </trkpt>
      <trkpt lat="43.95132" lon="6.50663">
        <ele>1015.799987793</ele>
        <time>2022-08-21T11:16:03Z</time>
      </trkpt>
      <trkpt lat="43.95121" lon="6.50666">
        <ele>1016.5999755859</ele>
        <time>2022-08-21T11:16:10Z</time>
      </trkpt>
      <trkpt lat="43.95117" lon="6.50666">
        <ele>1016.799987793</ele>
        <time>2022-08-21T11:16:12Z</time>
      </trkpt>
      <trkpt lat="43.95104" lon="6.5067">
        <ele>1017.5999755859</ele>
        <time>2022-08-21T11:16:21Z</time>
      </trkpt>
      <trkpt lat="43.95087" lon="6.5068">
        <ele>1018.5999755859</ele>
        <time>2022-08-21T11:16:31Z</time>
      </trkpt>
      <trkpt lat="43.95076" lon="6.50685">
        <ele>1019.5999755859</ele>
        <time>2022-08-21T11:16:40Z</time>
      </trkpt>
      <trkpt lat="43.95074" lon="6.50685">
        <ele>1019.799987793</ele>
        <time>2022-08-21T11:16:42Z</time>
      </trkpt>
      <trkpt lat="43.95067" lon="6.50687">
        <ele>1020.5999755859</ele>
        <time>2022-08-21T11:16:48Z</time>
      </trkpt>
      <trkpt lat="43.95063" lon="6.50688">
        <ele>1020.799987793</ele>
        <time>2022-08-21T11:16:50Z</time>
      </trkpt>
      <trkpt lat="43.9505" lon="6.50691">
        <ele>1021.799987793</ele>
        <time>2022-08-21T11:16:57Z</time>
      </trkpt>
      <trkpt lat="43.95048" lon="6.50692">
        <ele>1021.799987793</ele>
        <time>2022-08-21T11:16:58Z</time>
      </trkpt>
      <trkpt lat="43.95038" lon="6.50693">
        <ele>1022.5999755859</ele>
        <time>2022-08-21T11:17:04Z</time>
      </trkpt>
      <trkpt lat="43.95034" lon="6.50693">
        <ele>1022.799987793</ele>
        <time>2022-08-21T11:17:06Z</time>
      </trkpt>
      <trkpt lat="43.95033" lon="6.50693">
        <ele>1023</ele>
        <time>2022-08-21T11:17:07Z</time>
      </trkpt>
      <trkpt lat="43.95022" lon="6.50694">
        <ele>1023.799987793</ele>
        <time>2022-08-21T11:17:15Z</time>
      </trkpt>
      <trkpt lat="43.9502" lon="6.50693">
        <ele>1024</ele>
        <time>2022-08-21T11:17:16Z</time>
      </trkpt>
      <trkpt lat="43.95006" lon="6.50687">
        <ele>1025</ele>
        <time>2022-08-21T11:17:25Z</time>
      </trkpt>
      <trkpt lat="43.95004" lon="6.50687">
        <ele>1025</ele>
        <time>2022-08-21T11:17:26Z</time>
      </trkpt>
      <trkpt lat="43.94994" lon="6.50688">
        <ele>1025.4000244141</ele>
        <time>2022-08-21T11:17:31Z</time>
      </trkpt>
      <trkpt lat="43.94988" lon="6.50692">
        <ele>1026</ele>
        <time>2022-08-21T11:17:35Z</time>
      </trkpt>
      <trkpt lat="43.94982" lon="6.50696">
        <ele>1026.4000244141</ele>
        <time>2022-08-21T11:17:38Z</time>
      </trkpt>
      <trkpt lat="43.94969" lon="6.50705">
        <ele>1027</ele>
        <time>2022-08-21T11:17:46Z</time>
      </trkpt>
      <trkpt lat="43.94968" lon="6.50705">
        <ele>1027.1999511719</ele>
        <time>2022-08-21T11:17:47Z</time>
      </trkpt>
      <trkpt lat="43.94957" lon="6.5071">
        <ele>1028.1999511719</ele>
        <time>2022-08-21T11:17:55Z</time>
      </trkpt>
      <trkpt lat="43.94956" lon="6.50711">
        <ele>1028.1999511719</ele>
        <time>2022-08-21T11:17:56Z</time>
      </trkpt>
      <trkpt lat="43.94948" lon="6.50716">
        <ele>1028.8000488281</ele>
        <time>2022-08-21T11:18:01Z</time>
      </trkpt>
      <trkpt lat="43.94945" lon="6.50717">
        <ele>1029.4000244141</ele>
        <time>2022-08-21T11:18:04Z</time>
      </trkpt>
      <trkpt lat="43.94943" lon="6.50719">
        <ele>1029.5999755859</ele>
        <time>2022-08-21T11:18:07Z</time>
      </trkpt>
      <trkpt lat="43.94942" lon="6.50722">
        <ele>1029.8000488281</ele>
        <time>2022-08-21T11:18:12Z</time>
      </trkpt>
      <trkpt lat="43.94941" lon="6.50723">
        <ele>1029.8000488281</ele>
        <time>2022-08-21T11:18:19Z</time>
      </trkpt>
      <trkpt lat="43.94941" lon="6.50722">
        <ele>1030</ele>
        <time>2022-08-21T11:18:21Z</time>
      </trkpt>
      <trkpt lat="43.94941" lon="6.50722">
        <ele>1029.8000488281</ele>
        <time>2022-08-21T11:18:26Z</time>
      </trkpt>
      <trkpt lat="43.94941" lon="6.50722">
        <ele>1029.8000488281</ele>
        <time>2022-08-21T11:18:33Z</time>
      </trkpt>
      <trkpt lat="43.94942" lon="6.50722">
        <ele>1029.8000488281</ele>
        <time>2022-08-21T11:18:45Z</time>
      </trkpt>
      <trkpt lat="43.94941" lon="6.50721">
        <ele>1029.5999755859</ele>
        <time>2022-08-21T11:19:02Z</time>
      </trkpt>
      <trkpt lat="43.94941" lon="6.50722">
        <ele>1030</ele>
        <time>2022-08-21T11:19:17Z</time>
      </trkpt>
      <trkpt lat="43.9494" lon="6.50723">
        <ele>1030</ele>
        <time>2022-08-21T11:19:25Z</time>
      </trkpt>
      <trkpt lat="43.9494" lon="6.50723">
        <ele>1030</ele>
        <time>2022-08-21T11:19:27Z</time>
      </trkpt>
      <trkpt lat="43.94941" lon="6.50723">
        <ele>1030</ele>
        <time>2022-08-21T11:19:40Z</time>
      </trkpt>
      <trkpt lat="43.94941" lon="6.50723">
        <ele>1030</ele>
        <time>2022-08-21T11:19:52Z</time>
      </trkpt>
      <trkpt lat="43.9494" lon="6.50723">
        <ele>1030</ele>
        <time>2022-08-21T11:19:55Z</time>
      </trkpt>
      <trkpt lat="43.94941" lon="6.50723">
        <ele>1030</ele>
        <time>2022-08-21T11:20:01Z</time>
      </trkpt>
      <trkpt lat="43.9494" lon="6.50724">
        <ele>1030</ele>
        <time>2022-08-21T11:20:06Z</time>
      </trkpt>
      <trkpt lat="43.9494" lon="6.50725">
        <ele>1030</ele>
        <time>2022-08-21T11:20:12Z</time>
      </trkpt>
      <trkpt lat="43.9494" lon="6.50724">
        <ele>1030</ele>
        <time>2022-08-21T11:20:20Z</time>
      </trkpt>
      <trkpt lat="43.9494" lon="6.50724">
        <ele>1030</ele>
        <time>2022-08-21T11:20:22Z</time>
      </trkpt>
      <trkpt lat="43.9494" lon="6.50724">
        <ele>1030</ele>
        <time>2022-08-21T11:20:24Z</time>
      </trkpt>
      <trkpt lat="43.9494" lon="6.50723">
        <ele>1030</ele>
        <time>2022-08-21T11:20:32Z</time>
      </trkpt>
      <trkpt lat="43.94941" lon="6.50723">
        <ele>1030</ele>
        <time>2022-08-21T11:20:38Z</time>
      </trkpt>
      <trkpt lat="43.94934" lon="6.50727">
        <ele>1030</ele>
        <time>2022-08-21T11:20:52Z</time>
      </trkpt>
      <trkpt lat="43.94931" lon="6.50728">
        <ele>1030</ele>
        <time>2022-08-21T11:20:54Z</time>
      </trkpt>
      <trkpt lat="43.94922" lon="6.50729">
        <ele>1030.4000244141</ele>
        <time>2022-08-21T11:21:00Z</time>
      </trkpt>
      <trkpt lat="43.9492" lon="6.50729">
        <ele>1030.5999755859</ele>
        <time>2022-08-21T11:21:01Z</time>
      </trkpt>
      <trkpt lat="43.94918" lon="6.5073">
        <ele>1030.5999755859</ele>
        <time>2022-08-21T11:21:02Z</time>
      </trkpt>
      <trkpt lat="43.94911" lon="6.50734">
        <ele>1031.5999755859</ele>
        <time>2022-08-21T11:21:07Z</time>
      </trkpt>
      <trkpt lat="43.94903" lon="6.50739">
        <ele>1032.5999755859</ele>
        <time>2022-08-21T11:21:12Z</time>
      </trkpt>
      <trkpt lat="43.94898" lon="6.50741">
        <ele>1033.1999511719</ele>
        <time>2022-08-21T11:21:15Z</time>
      </trkpt>
      <trkpt lat="43.94895" lon="6.5074">
        <ele>1033.5999755859</ele>
        <time>2022-08-21T11:21:17Z</time>
      </trkpt>
      <trkpt lat="43.94895" lon="6.50739">
        <ele>1033.5999755859</ele>
        <time>2022-08-21T11:21:18Z</time>
      </trkpt>
      <trkpt lat="43.94893" lon="6.50736">
        <ele>1034</ele>
        <time>2022-08-21T11:21:20Z</time>
      </trkpt>
      <trkpt lat="43.94892" lon="6.50729">
        <ele>1034.5999755859</ele>
        <time>2022-08-21T11:21:24Z</time>
      </trkpt>
      <trkpt lat="43.94892" lon="6.50727">
        <ele>1034.8000488281</ele>
        <time>2022-08-21T11:21:25Z</time>
      </trkpt>
      <trkpt lat="43.94893" lon="6.50725">
        <ele>1034.8000488281</ele>
        <time>2022-08-21T11:21:26Z</time>
      </trkpt>
      <trkpt lat="43.94896" lon="6.50721">
        <ele>1035</ele>
        <time>2022-08-21T11:21:28Z</time>
      </trkpt>
      <trkpt lat="43.94903" lon="6.50714">
        <ele>1035.1999511719</ele>
        <time>2022-08-21T11:21:33Z</time>
      </trkpt>
      <trkpt lat="43.9491" lon="6.5071">
        <ele>1035.8000488281</ele>
        <time>2022-08-21T11:21:38Z</time>
      </trkpt>
      <trkpt lat="43.94912" lon="6.5071">
        <ele>1036.1999511719</ele>
        <time>2022-08-21T11:21:40Z</time>
      </trkpt>
      <trkpt lat="43.94919" lon="6.50705">
        <ele>1037</ele>
        <time>2022-08-21T11:21:46Z</time>
      </trkpt>
      <trkpt lat="43.94925" lon="6.50701">
        <ele>1037.4000244141</ele>
        <time>2022-08-21T11:21:50Z</time>
      </trkpt>
      <trkpt lat="43.94929" lon="6.50694">
        <ele>1038</ele>
        <time>2022-08-21T11:21:54Z</time>
      </trkpt>
      <trkpt lat="43.94935" lon="6.50684">
        <ele>1038.5999755859</ele>
        <time>2022-08-21T11:22:00Z</time>
      </trkpt>
      <trkpt lat="43.94937" lon="6.50679">
        <ele>1039</ele>
        <time>2022-08-21T11:22:03Z</time>
      </trkpt>
      <trkpt lat="43.94942" lon="6.50672">
        <ele>1039.5999755859</ele>
        <time>2022-08-21T11:22:08Z</time>
      </trkpt>
      <trkpt lat="43.94947" lon="6.50669">
        <ele>1040</ele>
        <time>2022-08-21T11:22:11Z</time>
      </trkpt>
      <trkpt lat="43.94952" lon="6.50664">
        <ele>1040.4000244141</ele>
        <time>2022-08-21T11:22:15Z</time>
      </trkpt>
      <trkpt lat="43.94953" lon="6.50663">
        <ele>1040.5999755859</ele>
        <time>2022-08-21T11:22:16Z</time>
      </trkpt>
      <trkpt lat="43.94958" lon="6.50661">
        <ele>1041</ele>
        <time>2022-08-21T11:22:19Z</time>
      </trkpt>
      <trkpt lat="43.94965" lon="6.50658">
        <ele>1041.5999755859</ele>
        <time>2022-08-21T11:22:24Z</time>
      </trkpt>
      <trkpt lat="43.94967" lon="6.50653">
        <ele>1042</ele>
        <time>2022-08-21T11:22:27Z</time>
      </trkpt>
      <trkpt lat="43.94969" lon="6.50648">
        <ele>1042.5999755859</ele>
        <time>2022-08-21T11:22:30Z</time>
      </trkpt>
      <trkpt lat="43.94969" lon="6.50647">
        <ele>1042.8000488281</ele>
        <time>2022-08-21T11:22:31Z</time>
      </trkpt>
      <trkpt lat="43.94967" lon="6.50642">
        <ele>1043.1999511719</ele>
        <time>2022-08-21T11:22:34Z</time>
      </trkpt>
      <trkpt lat="43.94966" lon="6.50641">
        <ele>1043.4000244141</ele>
        <time>2022-08-21T11:22:35Z</time>
      </trkpt>
      <trkpt lat="43.94961" lon="6.50639">
        <ele>1043.8000488281</ele>
        <time>2022-08-21T11:22:38Z</time>
      </trkpt>
      <trkpt lat="43.94955" lon="6.50641">
        <ele>1044.4000244141</ele>
        <time>2022-08-21T11:22:42Z</time>
      </trkpt>
      <trkpt lat="43.9495" lon="6.50643">
        <ele>1045</ele>
        <time>2022-08-21T11:22:46Z</time>
      </trkpt>
      <trkpt lat="43.94943" lon="6.5065">
        <ele>1045.1999511719</ele>
        <time>2022-08-21T11:22:51Z</time>
      </trkpt>
      <trkpt lat="43.94938" lon="6.50652">
        <ele>1045.1999511719</ele>
        <time>2022-08-21T11:22:53Z</time>
      </trkpt>
      <trkpt lat="43.94926" lon="6.50655">
        <ele>1045.1999511719</ele>
        <time>2022-08-21T11:22:58Z</time>
      </trkpt>
      <trkpt lat="43.94921" lon="6.50654">
        <ele>1045.4000244141</ele>
        <time>2022-08-21T11:23:00Z</time>
      </trkpt>
      <trkpt lat="43.94911" lon="6.50654">
        <ele>1046</ele>
        <time>2022-08-21T11:23:05Z</time>
      </trkpt>
      <trkpt lat="43.94901" lon="6.50655">
        <ele>1046.5999755859</ele>
        <time>2022-08-21T11:23:09Z</time>
      </trkpt>
      <trkpt lat="43.94895" lon="6.50657">
        <ele>1047</ele>
        <time>2022-08-21T11:23:12Z</time>
      </trkpt>
      <trkpt lat="43.94889" lon="6.5066">
        <ele>1047.5999755859</ele>
        <time>2022-08-21T11:23:16Z</time>
      </trkpt>
      <trkpt lat="43.94886" lon="6.50664">
        <ele>1048.1999511719</ele>
        <time>2022-08-21T11:23:19Z</time>
      </trkpt>
      <trkpt lat="43.94882" lon="6.50667">
        <ele>1048.5999755859</ele>
        <time>2022-08-21T11:23:22Z</time>
      </trkpt>
      <trkpt lat="43.94877" lon="6.50673">
        <ele>1049.8000488281</ele>
        <time>2022-08-21T11:23:27Z</time>
      </trkpt>
      <trkpt lat="43.94876" lon="6.50674">
        <ele>1049.8000488281</ele>
        <time>2022-08-21T11:23:28Z</time>
      </trkpt>
      <trkpt lat="43.94862" lon="6.50681">
        <ele>1050.8000488281</ele>
        <time>2022-08-21T11:23:36Z</time>
      </trkpt>
      <trkpt lat="43.9485" lon="6.50687">
        <ele>1052</ele>
        <time>2022-08-21T11:23:43Z</time>
      </trkpt>
      <trkpt lat="43.94846" lon="6.50688">
        <ele>1052.4000244141</ele>
        <time>2022-08-21T11:23:45Z</time>
      </trkpt>
      <trkpt lat="43.94839" lon="6.50692">
        <ele>1053</ele>
        <time>2022-08-21T11:23:49Z</time>
      </trkpt>
      <trkpt lat="43.94833" lon="6.50696">
        <ele>1053.8000488281</ele>
        <time>2022-08-21T11:23:52Z</time>
      </trkpt>
      <trkpt lat="43.9483" lon="6.50699">
        <ele>1054.1999511719</ele>
        <time>2022-08-21T11:23:54Z</time>
      </trkpt>
      <trkpt lat="43.94823" lon="6.50708">
        <ele>1055</ele>
        <time>2022-08-21T11:23:59Z</time>
      </trkpt>
      <trkpt lat="43.94822" lon="6.50709">
        <ele>1055.4000244141</ele>
        <time>2022-08-21T11:24:00Z</time>
      </trkpt>
      <trkpt lat="43.94816" lon="6.50715">
        <ele>1056.4000244141</ele>
        <time>2022-08-21T11:24:05Z</time>
      </trkpt>
      <trkpt lat="43.94811" lon="6.50719">
        <ele>1057</ele>
        <time>2022-08-21T11:24:08Z</time>
      </trkpt>
      <trkpt lat="43.94805" lon="6.50725">
        <ele>1057.5999755859</ele>
        <time>2022-08-21T11:24:12Z</time>
      </trkpt>
      <trkpt lat="43.94803" lon="6.50727">
        <ele>1057.8000488281</ele>
        <time>2022-08-21T11:24:14Z</time>
      </trkpt>
      <trkpt lat="43.94796" lon="6.50736">
        <ele>1058.5999755859</ele>
        <time>2022-08-21T11:24:19Z</time>
      </trkpt>
      <trkpt lat="43.94793" lon="6.50739">
        <ele>1059</ele>
        <time>2022-08-21T11:24:22Z</time>
      </trkpt>
      <trkpt lat="43.9479" lon="6.50745">
        <ele>1059.5999755859</ele>
        <time>2022-08-21T11:24:26Z</time>
      </trkpt>
      <trkpt lat="43.94778" lon="6.50755">
        <ele>1060.4000244141</ele>
        <time>2022-08-21T11:24:33Z</time>
      </trkpt>
      <trkpt lat="43.94773" lon="6.50758">
        <ele>1060.8000488281</ele>
        <time>2022-08-21T11:24:35Z</time>
      </trkpt>
      <trkpt lat="43.94759" lon="6.50759">
        <ele>1061.5999755859</ele>
        <time>2022-08-21T11:24:42Z</time>
      </trkpt>
      <trkpt lat="43.94757" lon="6.50759">
        <ele>1061.8000488281</ele>
        <time>2022-08-21T11:24:43Z</time>
      </trkpt>
      <trkpt lat="43.94745" lon="6.50754">
        <ele>1062.8000488281</ele>
        <time>2022-08-21T11:24:49Z</time>
      </trkpt>
      <trkpt lat="43.94743" lon="6.50754">
        <ele>1063</ele>
        <time>2022-08-21T11:24:50Z</time>
      </trkpt>
      <trkpt lat="43.94734" lon="6.50747">
        <ele>1063.8000488281</ele>
        <time>2022-08-21T11:24:55Z</time>
      </trkpt>
      <trkpt lat="43.94725" lon="6.50743">
        <ele>1064.5999755859</ele>
        <time>2022-08-21T11:25:00Z</time>
      </trkpt>
      <trkpt lat="43.94714" lon="6.50734">
        <ele>1064.8000488281</ele>
        <time>2022-08-21T11:25:06Z</time>
      </trkpt>
      <trkpt lat="43.94711" lon="6.50732">
        <ele>1064.8000488281</ele>
        <time>2022-08-21T11:25:07Z</time>
      </trkpt>
      <trkpt lat="43.94689" lon="6.5072">
        <ele>1064.8000488281</ele>
        <time>2022-08-21T11:25:15Z</time>
      </trkpt>
      <trkpt lat="43.94671" lon="6.50711">
        <ele>1064.8000488281</ele>
        <time>2022-08-21T11:25:21Z</time>
      </trkpt>
      <trkpt lat="43.94668" lon="6.5071">
        <ele>1064.8000488281</ele>
        <time>2022-08-21T11:25:22Z</time>
      </trkpt>
      <trkpt lat="43.94655" lon="6.50705">
        <ele>1065</ele>
        <time>2022-08-21T11:25:27Z</time>
      </trkpt>
      <trkpt lat="43.94649" lon="6.50703">
        <ele>1065.1999511719</ele>
        <time>2022-08-21T11:25:29Z</time>
      </trkpt>
      <trkpt lat="43.94646" lon="6.50703">
        <ele>1065.1999511719</ele>
        <time>2022-08-21T11:25:30Z</time>
      </trkpt>
      <trkpt lat="43.94637" lon="6.50701">
        <ele>1065.4000244141</ele>
        <time>2022-08-21T11:25:33Z</time>
      </trkpt>
      <trkpt lat="43.94629" lon="6.50699">
        <ele>1065.5999755859</ele>
        <time>2022-08-21T11:25:36Z</time>
      </trkpt>
      <trkpt lat="43.94606" lon="6.50696">
        <ele>1065.8000488281</ele>
        <time>2022-08-21T11:25:43Z</time>
      </trkpt>
      <trkpt lat="43.94596" lon="6.50693">
        <ele>1065.8000488281</ele>
        <time>2022-08-21T11:25:46Z</time>
      </trkpt>
      <trkpt lat="43.94575" lon="6.50688">
        <ele>1065.8000488281</ele>
        <time>2022-08-21T11:25:53Z</time>
      </trkpt>
      <trkpt lat="43.9457" lon="6.50685">
        <ele>1065.8000488281</ele>
        <time>2022-08-21T11:25:55Z</time>
      </trkpt>
      <trkpt lat="43.94553" lon="6.50674">
        <ele>1066.5999755859</ele>
        <time>2022-08-21T11:26:01Z</time>
      </trkpt>
      <trkpt lat="43.94546" lon="6.50666">
        <ele>1067</ele>
        <time>2022-08-21T11:26:04Z</time>
      </trkpt>
      <trkpt lat="43.94536" lon="6.50659">
        <ele>1067.5999755859</ele>
        <time>2022-08-21T11:26:08Z</time>
      </trkpt>
      <trkpt lat="43.94526" lon="6.50654">
        <ele>1068.1999511719</ele>
        <time>2022-08-21T11:26:12Z</time>
      </trkpt>
      <trkpt lat="43.94518" lon="6.50648">
        <ele>1068.8000488281</ele>
        <time>2022-08-21T11:26:16Z</time>
      </trkpt>
      <trkpt lat="43.94509" lon="6.50643">
        <ele>1069.1999511719</ele>
        <time>2022-08-21T11:26:20Z</time>
      </trkpt>
      <trkpt lat="43.945" lon="6.50637">
        <ele>1069.8000488281</ele>
        <time>2022-08-21T11:26:24Z</time>
      </trkpt>
      <trkpt lat="43.94498" lon="6.50635">
        <ele>1069.8000488281</ele>
        <time>2022-08-21T11:26:25Z</time>
      </trkpt>
      <trkpt lat="43.94492" lon="6.5063">
        <ele>1070.1999511719</ele>
        <time>2022-08-21T11:26:28Z</time>
      </trkpt>
      <trkpt lat="43.94485" lon="6.50622">
        <ele>1071</ele>
        <time>2022-08-21T11:26:33Z</time>
      </trkpt>
      <trkpt lat="43.9448" lon="6.50617">
        <ele>1071.1999511719</ele>
        <time>2022-08-21T11:26:36Z</time>
      </trkpt>
      <trkpt lat="43.94474" lon="6.50612">
        <ele>1071.8000488281</ele>
        <time>2022-08-21T11:26:40Z</time>
      </trkpt>
      <trkpt lat="43.94463" lon="6.50605">
        <ele>1072.4000244141</ele>
        <time>2022-08-21T11:26:46Z</time>
      </trkpt>
      <trkpt lat="43.94458" lon="6.506">
        <ele>1072.5999755859</ele>
        <time>2022-08-21T11:26:49Z</time>
      </trkpt>
      <trkpt lat="43.94456" lon="6.50599">
        <ele>1072.8000488281</ele>
        <time>2022-08-21T11:26:50Z</time>
      </trkpt>
      <trkpt lat="43.94446" lon="6.5059">
        <ele>1073.4000244141</ele>
        <time>2022-08-21T11:26:57Z</time>
      </trkpt>
      <trkpt lat="43.94441" lon="6.50585">
        <ele>1073.8000488281</ele>
        <time>2022-08-21T11:27:00Z</time>
      </trkpt>
      <trkpt lat="43.94432" lon="6.50576">
        <ele>1074.4000244141</ele>
        <time>2022-08-21T11:27:06Z</time>
      </trkpt>
      <trkpt lat="43.94422" lon="6.50565">
        <ele>1075.1999511719</ele>
        <time>2022-08-21T11:27:13Z</time>
      </trkpt>
      <trkpt lat="43.94416" lon="6.50559">
        <ele>1075.5999755859</ele>
        <time>2022-08-21T11:27:17Z</time>
      </trkpt>
      <trkpt lat="43.94413" lon="6.50556">
        <ele>1075.5999755859</ele>
        <time>2022-08-21T11:27:19Z</time>
      </trkpt>
      <trkpt lat="43.94402" lon="6.50543">
        <ele>1076.5999755859</ele>
        <time>2022-08-21T11:27:27Z</time>
      </trkpt>
      <trkpt lat="43.94399" lon="6.5054">
        <ele>1076.8000488281</ele>
        <time>2022-08-21T11:27:29Z</time>
      </trkpt>
      <trkpt lat="43.94393" lon="6.50533">
        <ele>1077.1999511719</ele>
        <time>2022-08-21T11:27:33Z</time>
      </trkpt>
      <trkpt lat="43.9439" lon="6.50528">
        <ele>1077.1999511719</ele>
        <time>2022-08-21T11:27:35Z</time>
      </trkpt>
      <trkpt lat="43.94388" lon="6.50525">
        <ele>1077.4000244141</ele>
        <time>2022-08-21T11:27:37Z</time>
      </trkpt>
      <trkpt lat="43.94385" lon="6.50522">
        <ele>1077.5999755859</ele>
        <time>2022-08-21T11:27:39Z</time>
      </trkpt>
      <trkpt lat="43.94371" lon="6.50513">
        <ele>1078.4000244141</ele>
        <time>2022-08-21T11:27:47Z</time>
      </trkpt>
      <trkpt lat="43.94368" lon="6.50511">
        <ele>1078.5999755859</ele>
        <time>2022-08-21T11:27:49Z</time>
      </trkpt>
      <trkpt lat="43.94359" lon="6.50506">
        <ele>1079</ele>
        <time>2022-08-21T11:27:54Z</time>
      </trkpt>
      <trkpt lat="43.94346" lon="6.505">
        <ele>1079.8000488281</ele>
        <time>2022-08-21T11:28:01Z</time>
      </trkpt>
      <trkpt lat="43.9434" lon="6.50495">
        <ele>1080.1999511719</ele>
        <time>2022-08-21T11:28:05Z</time>
      </trkpt>
      <trkpt lat="43.94337" lon="6.50492">
        <ele>1080.4000244141</ele>
        <time>2022-08-21T11:28:07Z</time>
      </trkpt>
      <trkpt lat="43.94331" lon="6.50487">
        <ele>1080.8000488281</ele>
        <time>2022-08-21T11:28:11Z</time>
      </trkpt>
      <trkpt lat="43.94326" lon="6.50484">
        <ele>1081.1999511719</ele>
        <time>2022-08-21T11:28:14Z</time>
      </trkpt>
      <trkpt lat="43.94317" lon="6.50477">
        <ele>1081.8000488281</ele>
        <time>2022-08-21T11:28:20Z</time>
      </trkpt>
      <trkpt lat="43.94312" lon="6.50476">
        <ele>1082.1999511719</ele>
        <time>2022-08-21T11:28:23Z</time>
      </trkpt>
      <trkpt lat="43.94303" lon="6.50471">
        <ele>1083</ele>
        <time>2022-08-21T11:28:29Z</time>
      </trkpt>
      <trkpt lat="43.943" lon="6.5047">
        <ele>1083.1999511719</ele>
        <time>2022-08-21T11:28:31Z</time>
      </trkpt>
      <trkpt lat="43.94289" lon="6.50465">
        <ele>1084</ele>
        <time>2022-08-21T11:28:38Z</time>
      </trkpt>
      <trkpt lat="43.94286" lon="6.50465">
        <ele>1084.4000244141</ele>
        <time>2022-08-21T11:28:40Z</time>
      </trkpt>
      <trkpt lat="43.94272" lon="6.50464">
        <ele>1085</ele>
        <time>2022-08-21T11:28:49Z</time>
      </trkpt>
      <trkpt lat="43.94258" lon="6.50465">
        <ele>1086.1999511719</ele>
        <time>2022-08-21T11:28:57Z</time>
      </trkpt>
      <trkpt lat="43.9425" lon="6.50464">
        <ele>1086.5999755859</ele>
        <time>2022-08-21T11:29:01Z</time>
      </trkpt>
      <trkpt lat="43.94238" lon="6.50462">
        <ele>1087.1999511719</ele>
        <time>2022-08-21T11:29:08Z</time>
      </trkpt>
      <trkpt lat="43.94234" lon="6.50463">
        <ele>1087.1999511719</ele>
        <time>2022-08-21T11:29:10Z</time>
      </trkpt>
      <trkpt lat="43.94221" lon="6.50463">
        <ele>1087.8000488281</ele>
        <time>2022-08-21T11:29:17Z</time>
      </trkpt>
      <trkpt lat="43.94209" lon="6.5046">
        <ele>1088</ele>
        <time>2022-08-21T11:29:23Z</time>
      </trkpt>
      <trkpt lat="43.94203" lon="6.50458">
        <ele>1088.1999511719</ele>
        <time>2022-08-21T11:29:26Z</time>
      </trkpt>
      <trkpt lat="43.94201" lon="6.50457">
        <ele>1088.1999511719</ele>
        <time>2022-08-21T11:29:27Z</time>
      </trkpt>
      <trkpt lat="43.94183" lon="6.5045">
        <ele>1089</ele>
        <time>2022-08-21T11:29:36Z</time>
      </trkpt>
      <trkpt lat="43.94181" lon="6.50449">
        <ele>1089.1999511719</ele>
        <time>2022-08-21T11:29:37Z</time>
      </trkpt>
      <trkpt lat="43.94168" lon="6.50444">
        <ele>1089.5999755859</ele>
        <time>2022-08-21T11:29:44Z</time>
      </trkpt>
      <trkpt lat="43.94158" lon="6.50441">
        <ele>1090.1999511719</ele>
        <time>2022-08-21T11:29:49Z</time>
      </trkpt>
      <trkpt lat="43.94154" lon="6.5044">
        <ele>1090.4000244141</ele>
        <time>2022-08-21T11:29:51Z</time>
      </trkpt>
      <trkpt lat="43.9414" lon="6.50435">
        <ele>1091.4000244141</ele>
        <time>2022-08-21T11:29:59Z</time>
      </trkpt>
      <trkpt lat="43.94136" lon="6.50433">
        <ele>1091.5999755859</ele>
        <time>2022-08-21T11:30:01Z</time>
      </trkpt>
      <trkpt lat="43.94123" lon="6.50429">
        <ele>1092.4000244141</ele>
        <time>2022-08-21T11:30:08Z</time>
      </trkpt>
      <trkpt lat="43.9412" lon="6.50427">
        <ele>1092.8000488281</ele>
        <time>2022-08-21T11:30:10Z</time>
      </trkpt>
      <trkpt lat="43.94112" lon="6.50422">
        <ele>1093.4000244141</ele>
        <time>2022-08-21T11:30:15Z</time>
      </trkpt>
      <trkpt lat="43.94105" lon="6.50416">
        <ele>1094</ele>
        <time>2022-08-21T11:30:20Z</time>
      </trkpt>
      <trkpt lat="43.94099" lon="6.50411">
        <ele>1094.4000244141</ele>
        <time>2022-08-21T11:30:24Z</time>
      </trkpt>
      <trkpt lat="43.94091" lon="6.504">
        <ele>1095</ele>
        <time>2022-08-21T11:30:30Z</time>
      </trkpt>
      <trkpt lat="43.94085" lon="6.50394">
        <ele>1095.5999755859</ele>
        <time>2022-08-21T11:30:35Z</time>
      </trkpt>
      <trkpt lat="43.94079" lon="6.5039">
        <ele>1096</ele>
        <time>2022-08-21T11:30:39Z</time>
      </trkpt>
      <trkpt lat="43.94072" lon="6.50385">
        <ele>1096.5999755859</ele>
        <time>2022-08-21T11:30:44Z</time>
      </trkpt>
      <trkpt lat="43.94065" lon="6.50382">
        <ele>1096.8000488281</ele>
        <time>2022-08-21T11:30:48Z</time>
      </trkpt>
      <trkpt lat="43.94053" lon="6.50375">
        <ele>1097.5999755859</ele>
        <time>2022-08-21T11:30:55Z</time>
      </trkpt>
      <trkpt lat="43.9405" lon="6.50373">
        <ele>1097.8000488281</ele>
        <time>2022-08-21T11:30:57Z</time>
      </trkpt>
      <trkpt lat="43.94038" lon="6.50366">
        <ele>1098.4000244141</ele>
        <time>2022-08-21T11:31:05Z</time>
      </trkpt>
      <trkpt lat="43.94036" lon="6.50366">
        <ele>1098.5999755859</ele>
        <time>2022-08-21T11:31:06Z</time>
      </trkpt>
      <trkpt lat="43.94023" lon="6.50359">
        <ele>1099.5999755859</ele>
        <time>2022-08-21T11:31:14Z</time>
      </trkpt>
      <trkpt lat="43.94017" lon="6.50357">
        <ele>1100.1999511719</ele>
        <time>2022-08-21T11:31:18Z</time>
      </trkpt>
      <trkpt lat="43.94011" lon="6.50353">
        <ele>1100.5999755859</ele>
        <time>2022-08-21T11:31:22Z</time>
      </trkpt>
      <trkpt lat="43.93999" lon="6.50348">
        <ele>1101.4000244141</ele>
        <time>2022-08-21T11:31:29Z</time>
      </trkpt>
      <trkpt lat="43.93994" lon="6.50346">
        <ele>1101.8000488281</ele>
        <time>2022-08-21T11:31:32Z</time>
      </trkpt>
      <trkpt lat="43.93986" lon="6.50344">
        <ele>1102.8000488281</ele>
        <time>2022-08-21T11:31:37Z</time>
      </trkpt>
      <trkpt lat="43.93983" lon="6.50344">
        <ele>1103</ele>
        <time>2022-08-21T11:31:39Z</time>
      </trkpt>
      <trkpt lat="43.93973" lon="6.50342">
        <ele>1103.8000488281</ele>
        <time>2022-08-21T11:31:45Z</time>
      </trkpt>
      <trkpt lat="43.9397" lon="6.5034">
        <ele>1104</ele>
        <time>2022-08-21T11:31:47Z</time>
      </trkpt>
      <trkpt lat="43.9396" lon="6.50333">
        <ele>1104.8000488281</ele>
        <time>2022-08-21T11:31:53Z</time>
      </trkpt>
      <trkpt lat="43.93956" lon="6.5033">
        <ele>1105</ele>
        <time>2022-08-21T11:31:56Z</time>
      </trkpt>
      <trkpt lat="43.93951" lon="6.50326">
        <ele>1105.4000244141</ele>
        <time>2022-08-21T11:32:00Z</time>
      </trkpt>
      <trkpt lat="43.93942" lon="6.50319">
        <ele>1106.1999511719</ele>
        <time>2022-08-21T11:32:06Z</time>
      </trkpt>
      <trkpt lat="43.93938" lon="6.50316">
        <ele>1106.4000244141</ele>
        <time>2022-08-21T11:32:09Z</time>
      </trkpt>
      <trkpt lat="43.93938" lon="6.50315">
        <ele>1106.5999755859</ele>
        <time>2022-08-21T11:32:11Z</time>
      </trkpt>
      <trkpt lat="43.93939" lon="6.50315">
        <ele>1106.5999755859</ele>
        <time>2022-08-21T11:32:13Z</time>
      </trkpt>
      <trkpt lat="43.93938" lon="6.50316">
        <ele>1106.5999755859</ele>
        <time>2022-08-21T11:32:17Z</time>
      </trkpt>
      <trkpt lat="43.93938" lon="6.50316">
        <ele>1106.5999755859</ele>
        <time>2022-08-21T11:32:22Z</time>
      </trkpt>
      <trkpt lat="43.93938" lon="6.50315">
        <ele>1106.5999755859</ele>
        <time>2022-08-21T11:32:24Z</time>
      </trkpt>
      <trkpt lat="43.93937" lon="6.50312">
        <ele>1106.4000244141</ele>
        <time>2022-08-21T11:32:35Z</time>
      </trkpt>
      <trkpt lat="43.93938" lon="6.50312">
        <ele>1106.1999511719</ele>
        <time>2022-08-21T11:32:42Z</time>
      </trkpt>
      <trkpt lat="43.93938" lon="6.50312">
        <ele>1106.1999511719</ele>
        <time>2022-08-21T11:32:45Z</time>
      </trkpt>
      <trkpt lat="43.93938" lon="6.50312">
        <ele>1106.1999511719</ele>
        <time>2022-08-21T11:32:49Z</time>
      </trkpt>
      <trkpt lat="43.93939" lon="6.50312">
        <ele>1106</ele>
        <time>2022-08-21T11:32:58Z</time>
      </trkpt>
      <trkpt lat="43.93938" lon="6.50318">
        <ele>1106.5999755859</ele>
        <time>2022-08-21T11:33:11Z</time>
      </trkpt>
      <trkpt lat="43.93938" lon="6.50317">
        <ele>1107</ele>
        <time>2022-08-21T11:33:15Z</time>
      </trkpt>
      <trkpt lat="43.93938" lon="6.50317">
        <ele>1107</ele>
        <time>2022-08-21T11:33:16Z</time>
      </trkpt>
      <trkpt lat="43.93938" lon="6.50317">
        <ele>1107</ele>
        <time>2022-08-21T11:33:18Z</time>
      </trkpt>
      <trkpt lat="43.93938" lon="6.50318">
        <ele>1106.8000488281</ele>
        <time>2022-08-21T11:33:25Z</time>
      </trkpt>
      <trkpt lat="43.93938" lon="6.50318">
        <ele>1106.8000488281</ele>
        <time>2022-08-21T11:33:31Z</time>
      </trkpt>
      <trkpt lat="43.93938" lon="6.50319">
        <ele>1106.8000488281</ele>
        <time>2022-08-21T11:33:39Z</time>
      </trkpt>
      <trkpt lat="43.93939" lon="6.50319">
        <ele>1106.8000488281</ele>
        <time>2022-08-21T11:33:47Z</time>
      </trkpt>
      <trkpt lat="43.93939" lon="6.50319">
        <ele>1106.8000488281</ele>
        <time>2022-08-21T11:33:48Z</time>
      </trkpt>
      <trkpt lat="43.9394" lon="6.50318">
        <ele>1106.8000488281</ele>
        <time>2022-08-21T11:33:55Z</time>
      </trkpt>
      <trkpt lat="43.93939" lon="6.50318">
        <ele>1106.8000488281</ele>
        <time>2022-08-21T11:33:56Z</time>
      </trkpt>
      <trkpt lat="43.93939" lon="6.50318">
        <ele>1106.8000488281</ele>
        <time>2022-08-21T11:33:59Z</time>
      </trkpt>
      <trkpt lat="43.93938" lon="6.50318">
        <ele>1106.8000488281</ele>
        <time>2022-08-21T11:34:06Z</time>
      </trkpt>
      <trkpt lat="43.93938" lon="6.50318">
        <ele>1106.8000488281</ele>
        <time>2022-08-21T11:34:09Z</time>
      </trkpt>
      <trkpt lat="43.93939" lon="6.50318">
        <ele>1106.8000488281</ele>
        <time>2022-08-21T11:34:19Z</time>
      </trkpt>
      <trkpt lat="43.93939" lon="6.50317">
        <ele>1106.8000488281</ele>
        <time>2022-08-21T11:34:24Z</time>
      </trkpt>
      <trkpt lat="43.93938" lon="6.50317">
        <ele>1106.8000488281</ele>
        <time>2022-08-21T11:34:29Z</time>
      </trkpt>
      <trkpt lat="43.93938" lon="6.50317">
        <ele>1106.8000488281</ele>
        <time>2022-08-21T11:34:34Z</time>
      </trkpt>
      <trkpt lat="43.93938" lon="6.50317">
        <ele>1106.8000488281</ele>
        <time>2022-08-21T11:34:46Z</time>
      </trkpt>
      <trkpt lat="43.93937" lon="6.50317">
        <ele>1106.8000488281</ele>
        <time>2022-08-21T11:34:59Z</time>
      </trkpt>
      <trkpt lat="43.93936" lon="6.50318">
        <ele>1106.8000488281</ele>
        <time>2022-08-21T11:35:15Z</time>
      </trkpt>
      <trkpt lat="43.93936" lon="6.50318">
        <ele>1106.8000488281</ele>
        <time>2022-08-21T11:35:25Z</time>
      </trkpt>
      <trkpt lat="43.93938" lon="6.50318">
        <ele>1106.8000488281</ele>
        <time>2022-08-21T11:35:34Z</time>
      </trkpt>
      <trkpt lat="43.93938" lon="6.50319">
        <ele>1106.8000488281</ele>
        <time>2022-08-21T11:35:39Z</time>
      </trkpt>
      <trkpt lat="43.93938" lon="6.50318">
        <ele>1106.8000488281</ele>
        <time>2022-08-21T11:35:49Z</time>
      </trkpt>
      <trkpt lat="43.93938" lon="6.50318">
        <ele>1106.8000488281</ele>
        <time>2022-08-21T11:35:58Z</time>
      </trkpt>
      <trkpt lat="43.93938" lon="6.50318">
        <ele>1106.8000488281</ele>
        <time>2022-08-21T11:36:00Z</time>
      </trkpt>
      <trkpt lat="43.93938" lon="6.50318">
        <ele>1106.8000488281</ele>
        <time>2022-08-21T11:36:02Z</time>
      </trkpt>
      <trkpt lat="43.93939" lon="6.50318">
        <ele>1106.8000488281</ele>
        <time>2022-08-21T11:36:15Z</time>
      </trkpt>
      <trkpt lat="43.93939" lon="6.50318">
        <ele>1106.8000488281</ele>
        <time>2022-08-21T11:36:17Z</time>
      </trkpt>
      <trkpt lat="43.9394" lon="6.50318">
        <ele>1106.8000488281</ele>
        <time>2022-08-21T11:36:24Z</time>
      </trkpt>
      <trkpt lat="43.9394" lon="6.50318">
        <ele>1106.8000488281</ele>
        <time>2022-08-21T11:36:25Z</time>
      </trkpt>
      <trkpt lat="43.9394" lon="6.50317">
        <ele>1106.8000488281</ele>
        <time>2022-08-21T11:36:35Z</time>
      </trkpt>
      <trkpt lat="43.93941" lon="6.50317">
        <ele>1106.8000488281</ele>
        <time>2022-08-21T11:36:39Z</time>
      </trkpt>
      <trkpt lat="43.9394" lon="6.50317">
        <ele>1106.8000488281</ele>
        <time>2022-08-21T11:36:44Z</time>
      </trkpt>
      <trkpt lat="43.9394" lon="6.50316">
        <ele>1106.8000488281</ele>
        <time>2022-08-21T11:36:47Z</time>
      </trkpt>
      <trkpt lat="43.93939" lon="6.50315">
        <ele>1106.8000488281</ele>
        <time>2022-08-21T11:36:55Z</time>
      </trkpt>
      <trkpt lat="43.93941" lon="6.50307">
        <ele>1106.8000488281</ele>
        <time>2022-08-21T11:37:01Z</time>
      </trkpt>
      <trkpt lat="43.93943" lon="6.50302">
        <ele>1106.8000488281</ele>
        <time>2022-08-21T11:37:03Z</time>
      </trkpt>
      <trkpt lat="43.93944" lon="6.50301">
        <ele>1106.8000488281</ele>
        <time>2022-08-21T11:37:04Z</time>
      </trkpt>
      <trkpt lat="43.93946" lon="6.50298">
        <ele>1106.8000488281</ele>
        <time>2022-08-21T11:37:06Z</time>
      </trkpt>
      <trkpt lat="43.93951" lon="6.50299">
        <ele>1106.8000488281</ele>
        <time>2022-08-21T11:37:09Z</time>
      </trkpt>
      <trkpt lat="43.93955" lon="6.50303">
        <ele>1107</ele>
        <time>2022-08-21T11:37:12Z</time>
      </trkpt>
      <trkpt lat="43.93957" lon="6.50305">
        <ele>1107.1999511719</ele>
        <time>2022-08-21T11:37:13Z</time>
      </trkpt>
      <trkpt lat="43.93959" lon="6.50309">
        <ele>1107.5999755859</ele>
        <time>2022-08-21T11:37:15Z</time>
      </trkpt>
      <trkpt lat="43.93965" lon="6.50311">
        <ele>1108.1999511719</ele>
        <time>2022-08-21T11:37:19Z</time>
      </trkpt>
      <trkpt lat="43.93968" lon="6.50312">
        <ele>1108.5999755859</ele>
        <time>2022-08-21T11:37:21Z</time>
      </trkpt>
      <trkpt lat="43.93973" lon="6.50314">
        <ele>1109.4000244141</ele>
        <time>2022-08-21T11:37:24Z</time>
      </trkpt>
      <trkpt lat="43.93979" lon="6.50314">
        <ele>1110.5999755859</ele>
        <time>2022-08-21T11:37:28Z</time>
      </trkpt>
      <trkpt lat="43.93981" lon="6.50313">
        <ele>1110.8000488281</ele>
        <time>2022-08-21T11:37:29Z</time>
      </trkpt>
      <trkpt lat="43.93985" lon="6.50313">
        <ele>1111</ele>
        <time>2022-08-21T11:37:31Z</time>
      </trkpt>
      <trkpt lat="43.93991" lon="6.50311">
        <ele>1111.5999755859</ele>
        <time>2022-08-21T11:37:34Z</time>
      </trkpt>
      <trkpt lat="43.93994" lon="6.5031">
        <ele>1111.8000488281</ele>
        <time>2022-08-21T11:37:36Z</time>
      </trkpt>
      <trkpt lat="43.94001" lon="6.50307">
        <ele>1112.5999755859</ele>
        <time>2022-08-21T11:37:40Z</time>
      </trkpt>
      <trkpt lat="43.94003" lon="6.50306">
        <ele>1112.8000488281</ele>
        <time>2022-08-21T11:37:41Z</time>
      </trkpt>
      <trkpt lat="43.94008" lon="6.50301">
        <ele>1113.1999511719</ele>
        <time>2022-08-21T11:37:44Z</time>
      </trkpt>
      <trkpt lat="43.94017" lon="6.50293">
        <ele>1113.8000488281</ele>
        <time>2022-08-21T11:37:49Z</time>
      </trkpt>
      <trkpt lat="43.94022" lon="6.50287">
        <ele>1114.4000244141</ele>
        <time>2022-08-21T11:37:52Z</time>
      </trkpt>
      <trkpt lat="43.94027" lon="6.50282">
        <ele>1115</ele>
        <time>2022-08-21T11:37:55Z</time>
      </trkpt>
      <trkpt lat="43.94033" lon="6.50271">
        <ele>1115.8000488281</ele>
        <time>2022-08-21T11:38:00Z</time>
      </trkpt>
      <trkpt lat="43.94035" lon="6.50267">
        <ele>1116</ele>
        <time>2022-08-21T11:38:02Z</time>
      </trkpt>
      <trkpt lat="43.94041" lon="6.50251">
        <ele>1116.8000488281</ele>
        <time>2022-08-21T11:38:08Z</time>
      </trkpt>
      <trkpt lat="43.94043" lon="6.50247">
        <ele>1117.1999511719</ele>
        <time>2022-08-21T11:38:10Z</time>
      </trkpt>
      <trkpt lat="43.94046" lon="6.50234">
        <ele>1117.5999755859</ele>
        <time>2022-08-21T11:38:15Z</time>
      </trkpt>
      <trkpt lat="43.94044" lon="6.50223">
        <ele>1118.1999511719</ele>
        <time>2022-08-21T11:38:20Z</time>
      </trkpt>
      <trkpt lat="43.94043" lon="6.50221">
        <ele>1118.4000244141</ele>
        <time>2022-08-21T11:38:21Z</time>
      </trkpt>
      <trkpt lat="43.9404" lon="6.50216">
        <ele>1118.8000488281</ele>
        <time>2022-08-21T11:38:24Z</time>
      </trkpt>
      <trkpt lat="43.94035" lon="6.50214">
        <ele>1119.1999511719</ele>
        <time>2022-08-21T11:38:27Z</time>
      </trkpt>
      <trkpt lat="43.94033" lon="6.50213">
        <ele>1119.4000244141</ele>
        <time>2022-08-21T11:38:28Z</time>
      </trkpt>
      <trkpt lat="43.94024" lon="6.50215">
        <ele>1119.8000488281</ele>
        <time>2022-08-21T11:38:33Z</time>
      </trkpt>
      <trkpt lat="43.94021" lon="6.50217">
        <ele>1120.1999511719</ele>
        <time>2022-08-21T11:38:35Z</time>
      </trkpt>
      <trkpt lat="43.94017" lon="6.50222">
        <ele>1120.4000244141</ele>
        <time>2022-08-21T11:38:37Z</time>
      </trkpt>
      <trkpt lat="43.94005" lon="6.50231">
        <ele>1121.1999511719</ele>
        <time>2022-08-21T11:38:44Z</time>
      </trkpt>
      <trkpt lat="43.93996" lon="6.50236">
        <ele>1121.5999755859</ele>
        <time>2022-08-21T11:38:49Z</time>
      </trkpt>
      <trkpt lat="43.9399" lon="6.5024">
        <ele>1121.8000488281</ele>
        <time>2022-08-21T11:38:53Z</time>
      </trkpt>
      <trkpt lat="43.93984" lon="6.50242">
        <ele>1122</ele>
        <time>2022-08-21T11:38:56Z</time>
      </trkpt>
      <trkpt lat="43.93978" lon="6.5024">
        <ele>1122.4000244141</ele>
        <time>2022-08-21T11:39:00Z</time>
      </trkpt>
      <trkpt lat="43.93974" lon="6.50237">
        <ele>1122.5999755859</ele>
        <time>2022-08-21T11:39:02Z</time>
      </trkpt>
      <trkpt lat="43.93974" lon="6.50234">
        <ele>1122.5999755859</ele>
        <time>2022-08-21T11:39:03Z</time>
      </trkpt>
      <trkpt lat="43.93973" lon="6.50232">
        <ele>1122.5999755859</ele>
        <time>2022-08-21T11:39:04Z</time>
      </trkpt>
      <trkpt lat="43.93974" lon="6.50229">
        <ele>1122.8000488281</ele>
        <time>2022-08-21T11:39:05Z</time>
      </trkpt>
      <trkpt lat="43.93981" lon="6.50218">
        <ele>1123.5999755859</ele>
        <time>2022-08-21T11:39:11Z</time>
      </trkpt>
      <trkpt lat="43.93982" lon="6.50216">
        <ele>1123.5999755859</ele>
        <time>2022-08-21T11:39:12Z</time>
      </trkpt>
      <trkpt lat="43.93988" lon="6.50211">
        <ele>1124.4000244141</ele>
        <time>2022-08-21T11:39:16Z</time>
      </trkpt>
      <trkpt lat="43.93989" lon="6.5021">
        <ele>1124.4000244141</ele>
        <time>2022-08-21T11:39:17Z</time>
      </trkpt>
      <trkpt lat="43.93992" lon="6.50207">
        <ele>1124.8000488281</ele>
        <time>2022-08-21T11:39:20Z</time>
      </trkpt>
      <trkpt lat="43.93995" lon="6.50203">
        <ele>1125.1999511719</ele>
        <time>2022-08-21T11:39:23Z</time>
      </trkpt>
      <trkpt lat="43.93997" lon="6.50201">
        <ele>1125.5999755859</ele>
        <time>2022-08-21T11:39:25Z</time>
      </trkpt>
      <trkpt lat="43.93999" lon="6.50198">
        <ele>1125.8000488281</ele>
        <time>2022-08-21T11:39:27Z</time>
      </trkpt>
      <trkpt lat="43.94005" lon="6.50186">
        <ele>1126.5999755859</ele>
        <time>2022-08-21T11:39:34Z</time>
      </trkpt>
      <trkpt lat="43.94008" lon="6.50181">
        <ele>1126.8000488281</ele>
        <time>2022-08-21T11:39:37Z</time>
      </trkpt>
      <trkpt lat="43.94012" lon="6.50174">
        <ele>1127.4000244141</ele>
        <time>2022-08-21T11:39:41Z</time>
      </trkpt>
      <trkpt lat="43.94016" lon="6.50168">
        <ele>1128</ele>
        <time>2022-08-21T11:39:44Z</time>
      </trkpt>
      <trkpt lat="43.94022" lon="6.50155">
        <ele>1128.8000488281</ele>
        <time>2022-08-21T11:39:50Z</time>
      </trkpt>
      <trkpt lat="43.94023" lon="6.50153">
        <ele>1129</ele>
        <time>2022-08-21T11:39:51Z</time>
      </trkpt>
      <trkpt lat="43.94028" lon="6.50138">
        <ele>1130</ele>
        <time>2022-08-21T11:39:57Z</time>
      </trkpt>
      <trkpt lat="43.94028" lon="6.50136">
        <ele>1130.1999511719</ele>
        <time>2022-08-21T11:39:58Z</time>
      </trkpt>
      <trkpt lat="43.94023" lon="6.50131">
        <ele>1130.5999755859</ele>
        <time>2022-08-21T11:40:01Z</time>
      </trkpt>
      <trkpt lat="43.94017" lon="6.50132">
        <ele>1131.1999511719</ele>
        <time>2022-08-21T11:40:04Z</time>
      </trkpt>
      <trkpt lat="43.94012" lon="6.50138">
        <ele>1131.5999755859</ele>
        <time>2022-08-21T11:40:07Z</time>
      </trkpt>
      <trkpt lat="43.94007" lon="6.50149">
        <ele>1132.1999511719</ele>
        <time>2022-08-21T11:40:12Z</time>
      </trkpt>
      <trkpt lat="43.94002" lon="6.50158">
        <ele>1133.1999511719</ele>
        <time>2022-08-21T11:40:17Z</time>
      </trkpt>
      <trkpt lat="43.94001" lon="6.5016">
        <ele>1133.1999511719</ele>
        <time>2022-08-21T11:40:18Z</time>
      </trkpt>
      <trkpt lat="43.9399" lon="6.50166">
        <ele>1134.4000244141</ele>
        <time>2022-08-21T11:40:25Z</time>
      </trkpt>
      <trkpt lat="43.93988" lon="6.50166">
        <ele>1134.4000244141</ele>
        <time>2022-08-21T11:40:26Z</time>
      </trkpt>
      <trkpt lat="43.93983" lon="6.50166">
        <ele>1134.8000488281</ele>
        <time>2022-08-21T11:40:29Z</time>
      </trkpt>
      <trkpt lat="43.93974" lon="6.50165">
        <ele>1135.4000244141</ele>
        <time>2022-08-21T11:40:34Z</time>
      </trkpt>
      <trkpt lat="43.93961" lon="6.50162">
        <ele>1136.4000244141</ele>
        <time>2022-08-21T11:40:41Z</time>
      </trkpt>
      <trkpt lat="43.93959" lon="6.50162">
        <ele>1136.5999755859</ele>
        <time>2022-08-21T11:40:42Z</time>
      </trkpt>
      <trkpt lat="43.93943" lon="6.5016">
        <ele>1137.4000244141</ele>
        <time>2022-08-21T11:40:50Z</time>
      </trkpt>
      <trkpt lat="43.93941" lon="6.50158">
        <ele>1137.5999755859</ele>
        <time>2022-08-21T11:40:51Z</time>
      </trkpt>
      <trkpt lat="43.93939" lon="6.50148">
        <ele>1138.1999511719</ele>
        <time>2022-08-21T11:40:55Z</time>
      </trkpt>
      <trkpt lat="43.93942" lon="6.50144">
        <ele>1138.5999755859</ele>
        <time>2022-08-21T11:40:57Z</time>
      </trkpt>
      <trkpt lat="43.93945" lon="6.50142">
        <ele>1138.8000488281</ele>
        <time>2022-08-21T11:40:59Z</time>
      </trkpt>
      <trkpt lat="43.93947" lon="6.50142">
        <ele>1139</ele>
        <time>2022-08-21T11:41:00Z</time>
      </trkpt>
      <trkpt lat="43.93956" lon="6.50143">
        <ele>1139.5999755859</ele>
        <time>2022-08-21T11:41:05Z</time>
      </trkpt>
      <trkpt lat="43.93962" lon="6.50143">
        <ele>1139.8000488281</ele>
        <time>2022-08-21T11:41:08Z</time>
      </trkpt>
      <trkpt lat="43.93971" lon="6.50143">
        <ele>1140.1999511719</ele>
        <time>2022-08-21T11:41:12Z</time>
      </trkpt>
      <trkpt lat="43.93976" lon="6.50144">
        <ele>1140.5999755859</ele>
        <time>2022-08-21T11:41:15Z</time>
      </trkpt>
      <trkpt lat="43.93981" lon="6.50142">
        <ele>1141.1999511719</ele>
        <time>2022-08-21T11:41:19Z</time>
      </trkpt>
      <trkpt lat="43.93985" lon="6.50138">
        <ele>1141.5999755859</ele>
        <time>2022-08-21T11:41:22Z</time>
      </trkpt>
      <trkpt lat="43.93992" lon="6.5013">
        <ele>1142.1999511719</ele>
        <time>2022-08-21T11:41:27Z</time>
      </trkpt>
      <trkpt lat="43.93995" lon="6.50123">
        <ele>1142.8000488281</ele>
        <time>2022-08-21T11:41:31Z</time>
      </trkpt>
      <trkpt lat="43.93998" lon="6.50115">
        <ele>1143.4000244141</ele>
        <time>2022-08-21T11:41:35Z</time>
      </trkpt>
      <trkpt lat="43.94001" lon="6.50107">
        <ele>1143.8000488281</ele>
        <time>2022-08-21T11:41:39Z</time>
      </trkpt>
      <trkpt lat="43.94003" lon="6.50097">
        <ele>1144.4000244141</ele>
        <time>2022-08-21T11:41:43Z</time>
      </trkpt>
      <trkpt lat="43.94006" lon="6.50091">
        <ele>1145</ele>
        <time>2022-08-21T11:41:46Z</time>
      </trkpt>
      <trkpt lat="43.94009" lon="6.50085">
        <ele>1145.5999755859</ele>
        <time>2022-08-21T11:41:49Z</time>
      </trkpt>
      <trkpt lat="43.9401" lon="6.5008">
        <ele>1146</ele>
        <time>2022-08-21T11:41:51Z</time>
      </trkpt>
      <trkpt lat="43.94014" lon="6.50066">
        <ele>1147</ele>
        <time>2022-08-21T11:41:57Z</time>
      </trkpt>
      <trkpt lat="43.94014" lon="6.50064">
        <ele>1147</ele>
        <time>2022-08-21T11:41:58Z</time>
      </trkpt>
      <trkpt lat="43.94015" lon="6.50062">
        <ele>1147.1999511719</ele>
        <time>2022-08-21T11:41:59Z</time>
      </trkpt>
      <trkpt lat="43.9402" lon="6.50047">
        <ele>1148.1999511719</ele>
        <time>2022-08-21T11:42:06Z</time>
      </trkpt>
      <trkpt lat="43.9402" lon="6.50045">
        <ele>1148.4000244141</ele>
        <time>2022-08-21T11:42:07Z</time>
      </trkpt>
      <trkpt lat="43.94023" lon="6.50033">
        <ele>1149.1999511719</ele>
        <time>2022-08-21T11:42:13Z</time>
      </trkpt>
      <trkpt lat="43.94023" lon="6.5003">
        <ele>1149.4000244141</ele>
        <time>2022-08-21T11:42:14Z</time>
      </trkpt>
      <trkpt lat="43.94024" lon="6.50014">
        <ele>1150.4000244141</ele>
        <time>2022-08-21T11:42:20Z</time>
      </trkpt>
      <trkpt lat="43.94025" lon="6.50011">
        <ele>1150.5999755859</ele>
        <time>2022-08-21T11:42:21Z</time>
      </trkpt>
      <trkpt lat="43.94027" lon="6.49998">
        <ele>1151.5999755859</ele>
        <time>2022-08-21T11:42:26Z</time>
      </trkpt>
      <trkpt lat="43.94029" lon="6.49986">
        <ele>1152.4000244141</ele>
        <time>2022-08-21T11:42:31Z</time>
      </trkpt>
      <trkpt lat="43.9403" lon="6.49984">
        <ele>1152.5999755859</ele>
        <time>2022-08-21T11:42:32Z</time>
      </trkpt>
      <trkpt lat="43.94034" lon="6.49968">
        <ele>1153.4000244141</ele>
        <time>2022-08-21T11:42:39Z</time>
      </trkpt>
      <trkpt lat="43.94036" lon="6.4996">
        <ele>1153.8000488281</ele>
        <time>2022-08-21T11:42:42Z</time>
      </trkpt>
      <trkpt lat="43.94038" lon="6.49953">
        <ele>1154</ele>
        <time>2022-08-21T11:42:45Z</time>
      </trkpt>
      <trkpt lat="43.94042" lon="6.4994">
        <ele>1154.8000488281</ele>
        <time>2022-08-21T11:42:50Z</time>
      </trkpt>
      <trkpt lat="43.94045" lon="6.49933">
        <ele>1155.4000244141</ele>
        <time>2022-08-21T11:42:53Z</time>
      </trkpt>
      <trkpt lat="43.94047" lon="6.49921">
        <ele>1155.8000488281</ele>
        <time>2022-08-21T11:42:58Z</time>
      </trkpt>
      <trkpt lat="43.94046" lon="6.49916">
        <ele>1156.1999511719</ele>
        <time>2022-08-21T11:43:00Z</time>
      </trkpt>
      <trkpt lat="43.94045" lon="6.49914">
        <ele>1156.1999511719</ele>
        <time>2022-08-21T11:43:01Z</time>
      </trkpt>
      <trkpt lat="43.94036" lon="6.49909">
        <ele>1156.5999755859</ele>
        <time>2022-08-21T11:43:06Z</time>
      </trkpt>
      <trkpt lat="43.9403" lon="6.49914">
        <ele>1157</ele>
        <time>2022-08-21T11:43:10Z</time>
      </trkpt>
      <trkpt lat="43.94028" lon="6.4992">
        <ele>1157.1999511719</ele>
        <time>2022-08-21T11:43:12Z</time>
      </trkpt>
      <trkpt lat="43.94022" lon="6.49933">
        <ele>1158</ele>
        <time>2022-08-21T11:43:17Z</time>
      </trkpt>
      <trkpt lat="43.94016" lon="6.49945">
        <ele>1158.5999755859</ele>
        <time>2022-08-21T11:43:22Z</time>
      </trkpt>
      <trkpt lat="43.94013" lon="6.4995">
        <ele>1159</ele>
        <time>2022-08-21T11:43:25Z</time>
      </trkpt>
      <trkpt lat="43.94008" lon="6.49958">
        <ele>1159.8000488281</ele>
        <time>2022-08-21T11:43:29Z</time>
      </trkpt>
      <trkpt lat="43.94006" lon="6.49961">
        <ele>1160.1999511719</ele>
        <time>2022-08-21T11:43:31Z</time>
      </trkpt>
      <trkpt lat="43.93999" lon="6.49966">
        <ele>1160.5999755859</ele>
        <time>2022-08-21T11:43:35Z</time>
      </trkpt>
      <trkpt lat="43.93993" lon="6.49968">
        <ele>1161.1999511719</ele>
        <time>2022-08-21T11:43:38Z</time>
      </trkpt>
      <trkpt lat="43.93984" lon="6.4997">
        <ele>1161.8000488281</ele>
        <time>2022-08-21T11:43:43Z</time>
      </trkpt>
      <trkpt lat="43.93977" lon="6.49968">
        <ele>1162.1999511719</ele>
        <time>2022-08-21T11:43:47Z</time>
      </trkpt>
      <trkpt lat="43.93973" lon="6.49967">
        <ele>1162.5999755859</ele>
        <time>2022-08-21T11:43:49Z</time>
      </trkpt>
      <trkpt lat="43.93967" lon="6.49966">
        <ele>1163</ele>
        <time>2022-08-21T11:43:52Z</time>
      </trkpt>
      <trkpt lat="43.93962" lon="6.49966">
        <ele>1163.4000244141</ele>
        <time>2022-08-21T11:43:55Z</time>
      </trkpt>
      <trkpt lat="43.93954" lon="6.49965">
        <ele>1164</ele>
        <time>2022-08-21T11:44:00Z</time>
      </trkpt>
      <trkpt lat="43.9395" lon="6.49965">
        <ele>1164.4000244141</ele>
        <time>2022-08-21T11:44:02Z</time>
      </trkpt>
      <trkpt lat="43.9394" lon="6.4996">
        <ele>1165.1999511719</ele>
        <time>2022-08-21T11:44:08Z</time>
      </trkpt>
      <trkpt lat="43.93937" lon="6.49958">
        <ele>1165.4000244141</ele>
        <time>2022-08-21T11:44:10Z</time>
      </trkpt>
      <trkpt lat="43.93926" lon="6.49949">
        <ele>1166.4000244141</ele>
        <time>2022-08-21T11:44:17Z</time>
      </trkpt>
      <trkpt lat="43.93923" lon="6.49947">
        <ele>1166.8000488281</ele>
        <time>2022-08-21T11:44:19Z</time>
      </trkpt>
      <trkpt lat="43.93914" lon="6.49939">
        <ele>1167.5999755859</ele>
        <time>2022-08-21T11:44:25Z</time>
      </trkpt>
      <trkpt lat="43.93908" lon="6.49935">
        <ele>1168</ele>
        <time>2022-08-21T11:44:29Z</time>
      </trkpt>
      <trkpt lat="43.93901" lon="6.49929">
        <ele>1168.5999755859</ele>
        <time>2022-08-21T11:44:34Z</time>
      </trkpt>
      <trkpt lat="43.93896" lon="6.49926">
        <ele>1169</ele>
        <time>2022-08-21T11:44:37Z</time>
      </trkpt>
      <trkpt lat="43.93893" lon="6.49924">
        <ele>1169.1999511719</ele>
        <time>2022-08-21T11:44:39Z</time>
      </trkpt>
      <trkpt lat="43.93887" lon="6.49919">
        <ele>1169.5999755859</ele>
        <time>2022-08-21T11:44:43Z</time>
      </trkpt>
      <trkpt lat="43.93877" lon="6.49905">
        <ele>1170.5999755859</ele>
        <time>2022-08-21T11:44:51Z</time>
      </trkpt>
      <trkpt lat="43.93876" lon="6.49903">
        <ele>1170.5999755859</ele>
        <time>2022-08-21T11:44:52Z</time>
      </trkpt>
      <trkpt lat="43.93872" lon="6.49886">
        <ele>1171.5999755859</ele>
        <time>2022-08-21T11:45:00Z</time>
      </trkpt>
      <trkpt lat="43.93871" lon="6.49866">
        <ele>1172.8000488281</ele>
        <time>2022-08-21T11:45:08Z</time>
      </trkpt>
      <trkpt lat="43.93873" lon="6.49859">
        <ele>1173.4000244141</ele>
        <time>2022-08-21T11:45:11Z</time>
      </trkpt>
      <trkpt lat="43.93876" lon="6.49849">
        <ele>1174</ele>
        <time>2022-08-21T11:45:15Z</time>
      </trkpt>
      <trkpt lat="43.93877" lon="6.49847">
        <ele>1174.4000244141</ele>
        <time>2022-08-21T11:45:16Z</time>
      </trkpt>
      <trkpt lat="43.93881" lon="6.49838">
        <ele>1175</ele>
        <time>2022-08-21T11:45:20Z</time>
      </trkpt>
      <trkpt lat="43.93885" lon="6.49824">
        <ele>1175.8000488281</ele>
        <time>2022-08-21T11:45:26Z</time>
      </trkpt>
      <trkpt lat="43.93886" lon="6.49817">
        <ele>1176.1999511719</ele>
        <time>2022-08-21T11:45:29Z</time>
      </trkpt>
      <trkpt lat="43.9389" lon="6.498">
        <ele>1177.4000244141</ele>
        <time>2022-08-21T11:45:36Z</time>
      </trkpt>
      <trkpt lat="43.93886" lon="6.49783">
        <ele>1178</ele>
        <time>2022-08-21T11:45:44Z</time>
      </trkpt>
      <trkpt lat="43.93882" lon="6.49779">
        <ele>1178.4000244141</ele>
        <time>2022-08-21T11:45:46Z</time>
      </trkpt>
      <trkpt lat="43.93869" lon="6.49769">
        <ele>1179</ele>
        <time>2022-08-21T11:45:53Z</time>
      </trkpt>
      <trkpt lat="43.93864" lon="6.49768">
        <ele>1179.4000244141</ele>
        <time>2022-08-21T11:45:56Z</time>
      </trkpt>
      <trkpt lat="43.93851" lon="6.49769">
        <ele>1180</ele>
        <time>2022-08-21T11:46:03Z</time>
      </trkpt>
      <trkpt lat="43.93846" lon="6.49771">
        <ele>1180.4000244141</ele>
        <time>2022-08-21T11:46:06Z</time>
      </trkpt>
      <trkpt lat="43.93841" lon="6.49773">
        <ele>1180.8000488281</ele>
        <time>2022-08-21T11:46:09Z</time>
      </trkpt>
      <trkpt lat="43.93831" lon="6.49779">
        <ele>1181.4000244141</ele>
        <time>2022-08-21T11:46:15Z</time>
      </trkpt>
      <trkpt lat="43.9383" lon="6.49779">
        <ele>1181.5999755859</ele>
        <time>2022-08-21T11:46:16Z</time>
      </trkpt>
      <trkpt lat="43.93825" lon="6.49781">
        <ele>1182</ele>
        <time>2022-08-21T11:46:19Z</time>
      </trkpt>
      <trkpt lat="43.93817" lon="6.49784">
        <ele>1182.5999755859</ele>
        <time>2022-08-21T11:46:23Z</time>
      </trkpt>
      <trkpt lat="43.93803" lon="6.49784">
        <ele>1183.5999755859</ele>
        <time>2022-08-21T11:46:30Z</time>
      </trkpt>
      <trkpt lat="43.93788" lon="6.4978">
        <ele>1184.5999755859</ele>
        <time>2022-08-21T11:46:38Z</time>
      </trkpt>
      <trkpt lat="43.93783" lon="6.49778">
        <ele>1185</ele>
        <time>2022-08-21T11:46:41Z</time>
      </trkpt>
      <trkpt lat="43.93778" lon="6.49777">
        <ele>1185.5999755859</ele>
        <time>2022-08-21T11:46:44Z</time>
      </trkpt>
      <trkpt lat="43.93776" lon="6.49777">
        <ele>1185.5999755859</ele>
        <time>2022-08-21T11:46:45Z</time>
      </trkpt>
      <trkpt lat="43.93762" lon="6.49773">
        <ele>1186.5999755859</ele>
        <time>2022-08-21T11:46:52Z</time>
      </trkpt>
      <trkpt lat="43.93759" lon="6.49775">
        <ele>1186.8000488281</ele>
        <time>2022-08-21T11:46:54Z</time>
      </trkpt>
      <trkpt lat="43.93757" lon="6.49778">
        <ele>1187</ele>
        <time>2022-08-21T11:46:56Z</time>
      </trkpt>
      <trkpt lat="43.93756" lon="6.4978">
        <ele>1187.1999511719</ele>
        <time>2022-08-21T11:46:57Z</time>
      </trkpt>
      <trkpt lat="43.93758" lon="6.49794">
        <ele>1187.8000488281</ele>
        <time>2022-08-21T11:47:03Z</time>
      </trkpt>
      <trkpt lat="43.9376" lon="6.49798">
        <ele>1187.8000488281</ele>
        <time>2022-08-21T11:47:05Z</time>
      </trkpt>
      <trkpt lat="43.93768" lon="6.49801">
        <ele>1188.1999511719</ele>
        <time>2022-08-21T11:47:09Z</time>
      </trkpt>
      <trkpt lat="43.93781" lon="6.49797">
        <ele>1188.5999755859</ele>
        <time>2022-08-21T11:47:15Z</time>
      </trkpt>
      <trkpt lat="43.93783" lon="6.49797">
        <ele>1188.8000488281</ele>
        <time>2022-08-21T11:47:17Z</time>
      </trkpt>
      <trkpt lat="43.93783" lon="6.49797">
        <ele>1189</ele>
        <time>2022-08-21T11:47:18Z</time>
      </trkpt>
      <trkpt lat="43.93783" lon="6.49797">
        <ele>1189</ele>
        <time>2022-08-21T11:47:19Z</time>
      </trkpt>
      <trkpt lat="43.93783" lon="6.49797">
        <ele>1189</ele>
        <time>2022-08-21T11:47:20Z</time>
      </trkpt>
      <trkpt lat="43.93783" lon="6.49797">
        <ele>1189</ele>
        <time>2022-08-21T11:47:23Z</time>
      </trkpt>
      <trkpt lat="43.93783" lon="6.49797">
        <ele>1188.8000488281</ele>
        <time>2022-08-21T11:47:27Z</time>
      </trkpt>
      <trkpt lat="43.93783" lon="6.49797">
        <ele>1189</ele>
        <time>2022-08-21T11:47:29Z</time>
      </trkpt>
      <trkpt lat="43.93783" lon="6.49797">
        <ele>1189.1999511719</ele>
        <time>2022-08-21T11:47:34Z</time>
      </trkpt>
      <trkpt lat="43.93783" lon="6.49797">
        <ele>1189.4000244141</ele>
        <time>2022-08-21T11:47:39Z</time>
      </trkpt>
      <trkpt lat="43.93783" lon="6.498">
        <ele>1189</ele>
        <time>2022-08-21T11:47:55Z</time>
      </trkpt>
      <trkpt lat="43.93783" lon="6.498">
        <ele>1189</ele>
        <time>2022-08-21T11:47:56Z</time>
      </trkpt>
      <trkpt lat="43.93783" lon="6.498">
        <ele>1189</ele>
        <time>2022-08-21T11:47:58Z</time>
      </trkpt>
      <trkpt lat="43.93783" lon="6.498">
        <ele>1189</ele>
        <time>2022-08-21T11:48:02Z</time>
      </trkpt>
      <trkpt lat="43.93783" lon="6.49801">
        <ele>1188.8000488281</ele>
        <time>2022-08-21T11:48:10Z</time>
      </trkpt>
      <trkpt lat="43.93783" lon="6.49801">
        <ele>1188.8000488281</ele>
        <time>2022-08-21T11:48:31Z</time>
      </trkpt>
      <trkpt lat="43.93783" lon="6.49801">
        <ele>1188.8000488281</ele>
        <time>2022-08-21T11:48:33Z</time>
      </trkpt>
      <trkpt lat="43.93783" lon="6.49801">
        <ele>1188.8000488281</ele>
        <time>2022-08-21T11:48:35Z</time>
      </trkpt>
      <trkpt lat="43.93784" lon="6.49801">
        <ele>1188.8000488281</ele>
        <time>2022-08-21T11:48:42Z</time>
      </trkpt>
      <trkpt lat="43.93784" lon="6.49801">
        <ele>1188.8000488281</ele>
        <time>2022-08-21T11:48:44Z</time>
      </trkpt>
      <trkpt lat="43.93784" lon="6.49801">
        <ele>1188.8000488281</ele>
        <time>2022-08-21T11:48:46Z</time>
      </trkpt>
      <trkpt lat="43.93784" lon="6.49801">
        <ele>1188.8000488281</ele>
        <time>2022-08-21T11:48:49Z</time>
      </trkpt>
      <trkpt lat="43.93784" lon="6.498">
        <ele>1188.8000488281</ele>
        <time>2022-08-21T11:48:53Z</time>
      </trkpt>
      <trkpt lat="43.93783" lon="6.49799">
        <ele>1188.8000488281</ele>
        <time>2022-08-21T11:49:07Z</time>
      </trkpt>
      <trkpt lat="43.93783" lon="6.49798">
        <ele>1188.8000488281</ele>
        <time>2022-08-21T11:49:19Z</time>
      </trkpt>
      <trkpt lat="43.93783" lon="6.49799">
        <ele>1188.8000488281</ele>
        <time>2022-08-21T11:49:34Z</time>
      </trkpt>
      <trkpt lat="43.93783" lon="6.49799">
        <ele>1188.8000488281</ele>
        <time>2022-08-21T11:49:41Z</time>
      </trkpt>
      <trkpt lat="43.93783" lon="6.49799">
        <ele>1188.8000488281</ele>
        <time>2022-08-21T11:49:45Z</time>
      </trkpt>
      <trkpt lat="43.93783" lon="6.49799">
        <ele>1188.8000488281</ele>
        <time>2022-08-21T11:49:51Z</time>
      </trkpt>
      <trkpt lat="43.93784" lon="6.498">
        <ele>1188.8000488281</ele>
        <time>2022-08-21T11:50:02Z</time>
      </trkpt>
      <trkpt lat="43.93784" lon="6.498">
        <ele>1188.8000488281</ele>
        <time>2022-08-21T11:50:04Z</time>
      </trkpt>
      <trkpt lat="43.93784" lon="6.49799">
        <ele>1188.8000488281</ele>
        <time>2022-08-21T11:50:19Z</time>
      </trkpt>
      <trkpt lat="43.93784" lon="6.49799">
        <ele>1188.8000488281</ele>
        <time>2022-08-21T11:50:22Z</time>
      </trkpt>
      <trkpt lat="43.93792" lon="6.49807">
        <ele>1188.8000488281</ele>
        <time>2022-08-21T11:50:28Z</time>
      </trkpt>
      <trkpt lat="43.93795" lon="6.49811">
        <ele>1188.8000488281</ele>
        <time>2022-08-21T11:50:30Z</time>
      </trkpt>
      <trkpt lat="43.93796" lon="6.49814">
        <ele>1188.8000488281</ele>
        <time>2022-08-21T11:50:34Z</time>
      </trkpt>
      <trkpt lat="43.93796" lon="6.49814">
        <ele>1188.8000488281</ele>
        <time>2022-08-21T11:50:35Z</time>
      </trkpt>
      <trkpt lat="43.93796" lon="6.49814">
        <ele>1189</ele>
        <time>2022-08-21T11:50:36Z</time>
      </trkpt>
      <trkpt lat="43.93796" lon="6.49814">
        <ele>1189.1999511719</ele>
        <time>2022-08-21T11:50:39Z</time>
      </trkpt>
      <trkpt lat="43.93796" lon="6.49814">
        <ele>1189.1999511719</ele>
        <time>2022-08-21T11:50:44Z</time>
      </trkpt>
      <trkpt lat="43.93796" lon="6.49814">
        <ele>1189.1999511719</ele>
        <time>2022-08-21T11:50:48Z</time>
      </trkpt>
      <trkpt lat="43.93796" lon="6.49814">
        <ele>1189.4000244141</ele>
        <time>2022-08-21T11:51:01Z</time>
      </trkpt>
      <trkpt lat="43.93796" lon="6.49814">
        <ele>1189.4000244141</ele>
        <time>2022-08-21T11:51:04Z</time>
      </trkpt>
      <trkpt lat="43.93796" lon="6.49814">
        <ele>1189.4000244141</ele>
        <time>2022-08-21T11:51:07Z</time>
      </trkpt>
      <trkpt lat="43.93796" lon="6.49814">
        <ele>1189.4000244141</ele>
        <time>2022-08-21T11:51:23Z</time>
      </trkpt>
      <trkpt lat="43.93796" lon="6.49814">
        <ele>1189.4000244141</ele>
        <time>2022-08-21T11:51:30Z</time>
      </trkpt>
      <trkpt lat="43.93796" lon="6.49814">
        <ele>1189.5999755859</ele>
        <time>2022-08-21T11:51:32Z</time>
      </trkpt>
      <trkpt lat="43.93796" lon="6.49815">
        <ele>1189.5999755859</ele>
        <time>2022-08-21T11:51:34Z</time>
      </trkpt>
      <trkpt lat="43.93796" lon="6.49815">
        <ele>1189.5999755859</ele>
        <time>2022-08-21T11:51:39Z</time>
      </trkpt>
      <trkpt lat="43.93796" lon="6.49815">
        <ele>1189.5999755859</ele>
        <time>2022-08-21T11:51:42Z</time>
      </trkpt>
      <trkpt lat="43.93796" lon="6.49815">
        <ele>1189.5999755859</ele>
        <time>2022-08-21T11:51:45Z</time>
      </trkpt>
      <trkpt lat="43.93796" lon="6.49815">
        <ele>1189.8000488281</ele>
        <time>2022-08-21T11:51:48Z</time>
      </trkpt>
      <trkpt lat="43.93796" lon="6.49815">
        <ele>1189.8000488281</ele>
        <time>2022-08-21T11:52:08Z</time>
      </trkpt>
      <trkpt lat="43.93796" lon="6.49815">
        <ele>1189.8000488281</ele>
        <time>2022-08-21T11:52:15Z</time>
      </trkpt>
      <trkpt lat="43.93796" lon="6.49815">
        <ele>1189.8000488281</ele>
        <time>2022-08-21T11:52:26Z</time>
      </trkpt>
      <trkpt lat="43.93796" lon="6.49815">
        <ele>1189.5999755859</ele>
        <time>2022-08-21T11:52:49Z</time>
      </trkpt>
      <trkpt lat="43.93796" lon="6.49814">
        <ele>1189.5999755859</ele>
        <time>2022-08-21T11:53:07Z</time>
      </trkpt>
      <trkpt lat="43.93796" lon="6.49814">
        <ele>1189.5999755859</ele>
        <time>2022-08-21T11:53:25Z</time>
      </trkpt>
      <trkpt lat="43.93796" lon="6.49815">
        <ele>1189.5999755859</ele>
        <time>2022-08-21T11:54:00Z</time>
      </trkpt>
      <trkpt lat="43.93796" lon="6.49815">
        <ele>1189.5999755859</ele>
        <time>2022-08-21T11:54:12Z</time>
      </trkpt>
      <trkpt lat="43.93796" lon="6.49815">
        <ele>1189.5999755859</ele>
        <time>2022-08-21T11:54:47Z</time>
      </trkpt>
      <trkpt lat="43.93796" lon="6.49815">
        <ele>1189.5999755859</ele>
        <time>2022-08-21T11:54:58Z</time>
      </trkpt>
      <trkpt lat="43.93796" lon="6.49814">
        <ele>1189.5999755859</ele>
        <time>2022-08-21T11:55:08Z</time>
      </trkpt>
      <trkpt lat="43.93796" lon="6.49814">
        <ele>1189.5999755859</ele>
        <time>2022-08-21T11:55:11Z</time>
      </trkpt>
      <trkpt lat="43.93796" lon="6.49814">
        <ele>1189.5999755859</ele>
        <time>2022-08-21T11:55:13Z</time>
      </trkpt>
      <trkpt lat="43.93796" lon="6.49814">
        <ele>1189.5999755859</ele>
        <time>2022-08-21T11:55:17Z</time>
      </trkpt>
      <trkpt lat="43.93798" lon="6.49827">
        <ele>1189.5999755859</ele>
        <time>2022-08-21T11:55:25Z</time>
      </trkpt>
      <trkpt lat="43.93796" lon="6.49837">
        <ele>1189.5999755859</ele>
        <time>2022-08-21T11:55:28Z</time>
      </trkpt>
      <trkpt lat="43.93792" lon="6.49847">
        <ele>1189.5999755859</ele>
        <time>2022-08-21T11:55:32Z</time>
      </trkpt>
      <trkpt lat="43.93787" lon="6.49855">
        <ele>1190</ele>
        <time>2022-08-21T11:55:36Z</time>
      </trkpt>
      <trkpt lat="43.93777" lon="6.49864">
        <ele>1190.4000244141</ele>
        <time>2022-08-21T11:55:41Z</time>
      </trkpt>
      <trkpt lat="43.93769" lon="6.49869">
        <ele>1191</ele>
        <time>2022-08-21T11:55:45Z</time>
      </trkpt>
      <trkpt lat="43.93761" lon="6.49873">
        <ele>1191.4000244141</ele>
        <time>2022-08-21T11:55:49Z</time>
      </trkpt>
      <trkpt lat="43.93753" lon="6.49876">
        <ele>1192</ele>
        <time>2022-08-21T11:55:53Z</time>
      </trkpt>
      <trkpt lat="43.93746" lon="6.49879">
        <ele>1192.8000488281</ele>
        <time>2022-08-21T11:55:57Z</time>
      </trkpt>
      <trkpt lat="43.93743" lon="6.49881">
        <ele>1193</ele>
        <time>2022-08-21T11:55:59Z</time>
      </trkpt>
      <trkpt lat="43.93732" lon="6.4989">
        <ele>1194.1999511719</ele>
        <time>2022-08-21T11:56:06Z</time>
      </trkpt>
      <trkpt lat="43.9372" lon="6.49897">
        <ele>1195.1999511719</ele>
        <time>2022-08-21T11:56:13Z</time>
      </trkpt>
      <trkpt lat="43.93718" lon="6.49898">
        <ele>1195.1999511719</ele>
        <time>2022-08-21T11:56:14Z</time>
      </trkpt>
      <trkpt lat="43.93708" lon="6.49904">
        <ele>1196.1999511719</ele>
        <time>2022-08-21T11:56:21Z</time>
      </trkpt>
      <trkpt lat="43.937" lon="6.49911">
        <ele>1197.4000244141</ele>
        <time>2022-08-21T11:56:28Z</time>
      </trkpt>
      <trkpt lat="43.93697" lon="6.49914">
        <ele>1197.5999755859</ele>
        <time>2022-08-21T11:56:30Z</time>
      </trkpt>
      <trkpt lat="43.93687" lon="6.49922">
        <ele>1198.4000244141</ele>
        <time>2022-08-21T11:56:36Z</time>
      </trkpt>
      <trkpt lat="43.93678" lon="6.49927">
        <ele>1199</ele>
        <time>2022-08-21T11:56:41Z</time>
      </trkpt>
      <trkpt lat="43.9367" lon="6.49932">
        <ele>1199.5999755859</ele>
        <time>2022-08-21T11:56:46Z</time>
      </trkpt>
      <trkpt lat="43.93663" lon="6.49934">
        <ele>1200.1999511719</ele>
        <time>2022-08-21T11:56:50Z</time>
      </trkpt>
      <trkpt lat="43.93656" lon="6.49937">
        <ele>1200.5999755859</ele>
        <time>2022-08-21T11:56:54Z</time>
      </trkpt>
      <trkpt lat="43.9364" lon="6.49945">
        <ele>1201.8000488281</ele>
        <time>2022-08-21T11:57:03Z</time>
      </trkpt>
      <trkpt lat="43.93637" lon="6.49948">
        <ele>1202</ele>
        <time>2022-08-21T11:57:05Z</time>
      </trkpt>
      <trkpt lat="43.93627" lon="6.49959">
        <ele>1203</ele>
        <time>2022-08-21T11:57:12Z</time>
      </trkpt>
      <trkpt lat="43.93625" lon="6.49961">
        <ele>1203</ele>
        <time>2022-08-21T11:57:13Z</time>
      </trkpt>
      <trkpt lat="43.93623" lon="6.49966">
        <ele>1203.1999511719</ele>
        <time>2022-08-21T11:57:15Z</time>
      </trkpt>
      <trkpt lat="43.93618" lon="6.49974">
        <ele>1204</ele>
        <time>2022-08-21T11:57:19Z</time>
      </trkpt>
      <trkpt lat="43.93615" lon="6.49978">
        <ele>1204.1999511719</ele>
        <time>2022-08-21T11:57:21Z</time>
      </trkpt>
      <trkpt lat="43.936" lon="6.49989">
        <ele>1205.1999511719</ele>
        <time>2022-08-21T11:57:29Z</time>
      </trkpt>
      <trkpt lat="43.93598" lon="6.49989">
        <ele>1205.4000244141</ele>
        <time>2022-08-21T11:57:30Z</time>
      </trkpt>
      <trkpt lat="43.93592" lon="6.49983">
        <ele>1205.5999755859</ele>
        <time>2022-08-21T11:57:33Z</time>
      </trkpt>
      <trkpt lat="43.93591" lon="6.49977">
        <ele>1205.8000488281</ele>
        <time>2022-08-21T11:57:35Z</time>
      </trkpt>
      <trkpt lat="43.93593" lon="6.49971">
        <ele>1206</ele>
        <time>2022-08-21T11:57:37Z</time>
      </trkpt>
      <trkpt lat="43.93595" lon="6.49969">
        <ele>1206.1999511719</ele>
        <time>2022-08-21T11:57:38Z</time>
      </trkpt>
      <trkpt lat="43.93606" lon="6.4996">
        <ele>1207.1999511719</ele>
        <time>2022-08-21T11:57:43Z</time>
      </trkpt>
      <trkpt lat="43.93608" lon="6.49958">
        <ele>1207.4000244141</ele>
        <time>2022-08-21T11:57:44Z</time>
      </trkpt>
      <trkpt lat="43.93617" lon="6.49945">
        <ele>1208.4000244141</ele>
        <time>2022-08-21T11:57:50Z</time>
      </trkpt>
      <trkpt lat="43.93618" lon="6.49942">
        <ele>1208.8000488281</ele>
        <time>2022-08-21T11:57:51Z</time>
      </trkpt>
      <trkpt lat="43.93624" lon="6.49931">
        <ele>1209.5999755859</ele>
        <time>2022-08-21T11:57:55Z</time>
      </trkpt>
      <trkpt lat="43.93631" lon="6.49916">
        <ele>1210.8000488281</ele>
        <time>2022-08-21T11:58:01Z</time>
      </trkpt>
      <trkpt lat="43.93638" lon="6.49906">
        <ele>1212</ele>
        <time>2022-08-21T11:58:06Z</time>
      </trkpt>
      <trkpt lat="43.93641" lon="6.49899">
        <ele>1212.4000244141</ele>
        <time>2022-08-21T11:58:09Z</time>
      </trkpt>
      <trkpt lat="43.93646" lon="6.49894">
        <ele>1213</ele>
        <time>2022-08-21T11:58:12Z</time>
      </trkpt>
      <trkpt lat="43.93652" lon="6.49884">
        <ele>1213.5999755859</ele>
        <time>2022-08-21T11:58:17Z</time>
      </trkpt>
      <trkpt lat="43.93656" lon="6.49878">
        <ele>1214.1999511719</ele>
        <time>2022-08-21T11:58:20Z</time>
      </trkpt>
      <trkpt lat="43.93661" lon="6.49867">
        <ele>1215.1999511719</ele>
        <time>2022-08-21T11:58:25Z</time>
      </trkpt>
      <trkpt lat="43.93663" lon="6.49863">
        <ele>1215.5999755859</ele>
        <time>2022-08-21T11:58:27Z</time>
      </trkpt>
      <trkpt lat="43.93664" lon="6.4985">
        <ele>1216.4000244141</ele>
        <time>2022-08-21T11:58:32Z</time>
      </trkpt>
      <trkpt lat="43.93663" lon="6.49845">
        <ele>1216.5999755859</ele>
        <time>2022-08-21T11:58:34Z</time>
      </trkpt>
      <trkpt lat="43.93658" lon="6.4984">
        <ele>1217</ele>
        <time>2022-08-21T11:58:37Z</time>
      </trkpt>
      <trkpt lat="43.93655" lon="6.4984">
        <ele>1217.1999511719</ele>
        <time>2022-08-21T11:58:38Z</time>
      </trkpt>
      <trkpt lat="43.93653" lon="6.49841">
        <ele>1217.4000244141</ele>
        <time>2022-08-21T11:58:39Z</time>
      </trkpt>
      <trkpt lat="43.93646" lon="6.4985">
        <ele>1218</ele>
        <time>2022-08-21T11:58:43Z</time>
      </trkpt>
      <trkpt lat="43.93643" lon="6.4986">
        <ele>1218.4000244141</ele>
        <time>2022-08-21T11:58:46Z</time>
      </trkpt>
      <trkpt lat="43.93636" lon="6.49876">
        <ele>1219.5999755859</ele>
        <time>2022-08-21T11:58:52Z</time>
      </trkpt>
      <trkpt lat="43.93623" lon="6.49889">
        <ele>1220.5999755859</ele>
        <time>2022-08-21T11:58:59Z</time>
      </trkpt>
      <trkpt lat="43.93621" lon="6.4989">
        <ele>1220.5999755859</ele>
        <time>2022-08-21T11:59:00Z</time>
      </trkpt>
      <trkpt lat="43.93605" lon="6.49894">
        <ele>1221.4000244141</ele>
        <time>2022-08-21T11:59:07Z</time>
      </trkpt>
      <trkpt lat="43.93599" lon="6.49896">
        <ele>1221.8000488281</ele>
        <time>2022-08-21T11:59:10Z</time>
      </trkpt>
      <trkpt lat="43.9359" lon="6.49901">
        <ele>1222.4000244141</ele>
        <time>2022-08-21T11:59:14Z</time>
      </trkpt>
      <trkpt lat="43.93583" lon="6.49907">
        <ele>1222.8000488281</ele>
        <time>2022-08-21T11:59:18Z</time>
      </trkpt>
      <trkpt lat="43.93578" lon="6.49911">
        <ele>1223.4000244141</ele>
        <time>2022-08-21T11:59:21Z</time>
      </trkpt>
      <trkpt lat="43.93574" lon="6.49915">
        <ele>1223.8000488281</ele>
        <time>2022-08-21T11:59:23Z</time>
      </trkpt>
      <trkpt lat="43.93564" lon="6.49922">
        <ele>1224.5999755859</ele>
        <time>2022-08-21T11:59:28Z</time>
      </trkpt>
      <trkpt lat="43.93559" lon="6.49926">
        <ele>1225</ele>
        <time>2022-08-21T11:59:31Z</time>
      </trkpt>
      <trkpt lat="43.93546" lon="6.49941">
        <ele>1226</ele>
        <time>2022-08-21T11:59:39Z</time>
      </trkpt>
      <trkpt lat="43.93532" lon="6.49956">
        <ele>1227</ele>
        <time>2022-08-21T11:59:46Z</time>
      </trkpt>
      <trkpt lat="43.9352" lon="6.49969">
        <ele>1228.1999511719</ele>
        <time>2022-08-21T11:59:53Z</time>
      </trkpt>
      <trkpt lat="43.93505" lon="6.49977">
        <ele>1229</ele>
        <time>2022-08-21T12:00:00Z</time>
      </trkpt>
      <trkpt lat="43.93499" lon="6.49981">
        <ele>1229.1999511719</ele>
        <time>2022-08-21T12:00:03Z</time>
      </trkpt>
      <trkpt lat="43.93488" lon="6.4999">
        <ele>1230</ele>
        <time>2022-08-21T12:00:09Z</time>
      </trkpt>
      <trkpt lat="43.93485" lon="6.49993">
        <ele>1230.1999511719</ele>
        <time>2022-08-21T12:00:11Z</time>
      </trkpt>
      <trkpt lat="43.93475" lon="6.49998">
        <ele>1231</ele>
        <time>2022-08-21T12:00:16Z</time>
      </trkpt>
      <trkpt lat="43.93469" lon="6.50002">
        <ele>1231.4000244141</ele>
        <time>2022-08-21T12:00:19Z</time>
      </trkpt>
      <trkpt lat="43.93455" lon="6.50013">
        <ele>1232.4000244141</ele>
        <time>2022-08-21T12:00:27Z</time>
      </trkpt>
      <trkpt lat="43.93453" lon="6.50014">
        <ele>1232.5999755859</ele>
        <time>2022-08-21T12:00:28Z</time>
      </trkpt>
      <trkpt lat="43.93451" lon="6.50016">
        <ele>1232.5999755859</ele>
        <time>2022-08-21T12:00:29Z</time>
      </trkpt>
      <trkpt lat="43.93442" lon="6.50028">
        <ele>1233.4000244141</ele>
        <time>2022-08-21T12:00:35Z</time>
      </trkpt>
      <trkpt lat="43.93433" lon="6.50046">
        <ele>1234.5999755859</ele>
        <time>2022-08-21T12:00:42Z</time>
      </trkpt>
      <trkpt lat="43.93421" lon="6.50049">
        <ele>1235.5999755859</ele>
        <time>2022-08-21T12:00:48Z</time>
      </trkpt>
      <trkpt lat="43.93419" lon="6.50046">
        <ele>1235.8000488281</ele>
        <time>2022-08-21T12:00:49Z</time>
      </trkpt>
      <trkpt lat="43.93417" lon="6.50041">
        <ele>1236</ele>
        <time>2022-08-21T12:00:51Z</time>
      </trkpt>
      <trkpt lat="43.93417" lon="6.50038">
        <ele>1236.1999511719</ele>
        <time>2022-08-21T12:00:52Z</time>
      </trkpt>
      <trkpt lat="43.93421" lon="6.50026">
        <ele>1236.8000488281</ele>
        <time>2022-08-21T12:00:56Z</time>
      </trkpt>
      <trkpt lat="43.93424" lon="6.50021">
        <ele>1237</ele>
        <time>2022-08-21T12:00:58Z</time>
      </trkpt>
      <trkpt lat="43.93431" lon="6.50008">
        <ele>1237.8000488281</ele>
        <time>2022-08-21T12:01:04Z</time>
      </trkpt>
      <trkpt lat="43.93433" lon="6.50004">
        <ele>1238</ele>
        <time>2022-08-21T12:01:06Z</time>
      </trkpt>
      <trkpt lat="43.93435" lon="6.49992">
        <ele>1239</ele>
        <time>2022-08-21T12:01:12Z</time>
      </trkpt>
      <trkpt lat="43.93436" lon="6.49991">
        <ele>1239</ele>
        <time>2022-08-21T12:01:13Z</time>
      </trkpt>
      <trkpt lat="43.9344" lon="6.49977">
        <ele>1239.8000488281</ele>
        <time>2022-08-21T12:01:21Z</time>
      </trkpt>
      <trkpt lat="43.93441" lon="6.49975">
        <ele>1240</ele>
        <time>2022-08-21T12:01:22Z</time>
      </trkpt>
      <trkpt lat="43.93444" lon="6.4997">
        <ele>1240.4000244141</ele>
        <time>2022-08-21T12:01:26Z</time>
      </trkpt>
      <trkpt lat="43.93445" lon="6.49967">
        <ele>1240.5999755859</ele>
        <time>2022-08-21T12:01:28Z</time>
      </trkpt>
      <trkpt lat="43.93451" lon="6.49962">
        <ele>1241</ele>
        <time>2022-08-21T12:01:33Z</time>
      </trkpt>
      <trkpt lat="43.93452" lon="6.4996">
        <ele>1241</ele>
        <time>2022-08-21T12:01:34Z</time>
      </trkpt>
      <trkpt lat="43.93456" lon="6.49955">
        <ele>1241.5999755859</ele>
        <time>2022-08-21T12:01:39Z</time>
      </trkpt>
      <trkpt lat="43.93457" lon="6.49954">
        <ele>1241.5999755859</ele>
        <time>2022-08-21T12:01:40Z</time>
      </trkpt>
      <trkpt lat="43.93459" lon="6.49949">
        <ele>1242</ele>
        <time>2022-08-21T12:01:43Z</time>
      </trkpt>
      <trkpt lat="43.93461" lon="6.49947">
        <ele>1242.1999511719</ele>
        <time>2022-08-21T12:01:45Z</time>
      </trkpt>
      <trkpt lat="43.93463" lon="6.49942">
        <ele>1242.5999755859</ele>
        <time>2022-08-21T12:01:48Z</time>
      </trkpt>
      <trkpt lat="43.93464" lon="6.49937">
        <ele>1243</ele>
        <time>2022-08-21T12:01:51Z</time>
      </trkpt>
      <trkpt lat="43.93464" lon="6.49935">
        <ele>1243</ele>
        <time>2022-08-21T12:01:52Z</time>
      </trkpt>
      <trkpt lat="43.93464" lon="6.4993">
        <ele>1243.1999511719</ele>
        <time>2022-08-21T12:01:55Z</time>
      </trkpt>
      <trkpt lat="43.93459" lon="6.49915">
        <ele>1244</ele>
        <time>2022-08-21T12:02:03Z</time>
      </trkpt>
      <trkpt lat="43.93458" lon="6.49913">
        <ele>1244.1999511719</ele>
        <time>2022-08-21T12:02:04Z</time>
      </trkpt>
      <trkpt lat="43.93449" lon="6.499">
        <ele>1245.1999511719</ele>
        <time>2022-08-21T12:02:12Z</time>
      </trkpt>
      <trkpt lat="43.93446" lon="6.49897">
        <ele>1245.5999755859</ele>
        <time>2022-08-21T12:02:15Z</time>
      </trkpt>
      <trkpt lat="43.93441" lon="6.49895">
        <ele>1246</ele>
        <time>2022-08-21T12:02:19Z</time>
      </trkpt>
      <trkpt lat="43.93438" lon="6.49895">
        <ele>1246.1999511719</ele>
        <time>2022-08-21T12:02:21Z</time>
      </trkpt>
      <trkpt lat="43.93428" lon="6.49896">
        <ele>1246.8000488281</ele>
        <time>2022-08-21T12:02:28Z</time>
      </trkpt>
      <trkpt lat="43.93423" lon="6.49901">
        <ele>1247.4000244141</ele>
        <time>2022-08-21T12:02:32Z</time>
      </trkpt>
      <trkpt lat="43.93417" lon="6.49908">
        <ele>1248</ele>
        <time>2022-08-21T12:02:37Z</time>
      </trkpt>
      <trkpt lat="43.93411" lon="6.49915">
        <ele>1248.4000244141</ele>
        <time>2022-08-21T12:02:42Z</time>
      </trkpt>
      <trkpt lat="43.93405" lon="6.49924">
        <ele>1249</ele>
        <time>2022-08-21T12:02:47Z</time>
      </trkpt>
      <trkpt lat="43.93399" lon="6.49932">
        <ele>1249.4000244141</ele>
        <time>2022-08-21T12:02:51Z</time>
      </trkpt>
      <trkpt lat="43.93392" lon="6.49946">
        <ele>1250.5999755859</ele>
        <time>2022-08-21T12:02:57Z</time>
      </trkpt>
      <trkpt lat="43.93391" lon="6.49948">
        <ele>1250.5999755859</ele>
        <time>2022-08-21T12:02:58Z</time>
      </trkpt>
      <trkpt lat="43.93387" lon="6.49967">
        <ele>1251.5999755859</ele>
        <time>2022-08-21T12:03:05Z</time>
      </trkpt>
      <trkpt lat="43.93386" lon="6.49972">
        <ele>1252</ele>
        <time>2022-08-21T12:03:07Z</time>
      </trkpt>
      <trkpt lat="43.93383" lon="6.49985">
        <ele>1252.8000488281</ele>
        <time>2022-08-21T12:03:12Z</time>
      </trkpt>
      <trkpt lat="43.9338" lon="6.49993">
        <ele>1253.4000244141</ele>
        <time>2022-08-21T12:03:15Z</time>
      </trkpt>
      <trkpt lat="43.93379" lon="6.49995">
        <ele>1253.5999755859</ele>
        <time>2022-08-21T12:03:16Z</time>
      </trkpt>
      <trkpt lat="43.93379" lon="6.49998">
        <ele>1253.8000488281</ele>
        <time>2022-08-21T12:03:17Z</time>
      </trkpt>
      <trkpt lat="43.93375" lon="6.50009">
        <ele>1254.5999755859</ele>
        <time>2022-08-21T12:03:21Z</time>
      </trkpt>
      <trkpt lat="43.93374" lon="6.50014">
        <ele>1254.8000488281</ele>
        <time>2022-08-21T12:03:23Z</time>
      </trkpt>
      <trkpt lat="43.93374" lon="6.50017">
        <ele>1255</ele>
        <time>2022-08-21T12:03:24Z</time>
      </trkpt>
      <trkpt lat="43.93368" lon="6.50033">
        <ele>1256</ele>
        <time>2022-08-21T12:03:30Z</time>
      </trkpt>
      <trkpt lat="43.93367" lon="6.50036">
        <ele>1256.1999511719</ele>
        <time>2022-08-21T12:03:31Z</time>
      </trkpt>
      <trkpt lat="43.9336" lon="6.50052">
        <ele>1257.1999511719</ele>
        <time>2022-08-21T12:03:37Z</time>
      </trkpt>
      <trkpt lat="43.93359" lon="6.50055">
        <ele>1257.4000244141</ele>
        <time>2022-08-21T12:03:38Z</time>
      </trkpt>
      <trkpt lat="43.93356" lon="6.50069">
        <ele>1258.1999511719</ele>
        <time>2022-08-21T12:03:43Z</time>
      </trkpt>
      <trkpt lat="43.93352" lon="6.50082">
        <ele>1259.1999511719</ele>
        <time>2022-08-21T12:03:48Z</time>
      </trkpt>
      <trkpt lat="43.93352" lon="6.50085">
        <ele>1259.5999755859</ele>
        <time>2022-08-21T12:03:49Z</time>
      </trkpt>
      <trkpt lat="43.93349" lon="6.50099">
        <ele>1260.5999755859</ele>
        <time>2022-08-21T12:03:54Z</time>
      </trkpt>
      <trkpt lat="43.93347" lon="6.50104">
        <ele>1261.1999511719</ele>
        <time>2022-08-21T12:03:56Z</time>
      </trkpt>
      <trkpt lat="43.93348" lon="6.50113">
        <ele>1261.8000488281</ele>
        <time>2022-08-21T12:03:59Z</time>
      </trkpt>
      <trkpt lat="43.93348" lon="6.50119">
        <ele>1262.1999511719</ele>
        <time>2022-08-21T12:04:01Z</time>
      </trkpt>
      <trkpt lat="43.9335" lon="6.50127">
        <ele>1262.8000488281</ele>
        <time>2022-08-21T12:04:04Z</time>
      </trkpt>
      <trkpt lat="43.93351" lon="6.50132">
        <ele>1263.1999511719</ele>
        <time>2022-08-21T12:04:06Z</time>
      </trkpt>
      <trkpt lat="43.93353" lon="6.50143">
        <ele>1264</ele>
        <time>2022-08-21T12:04:10Z</time>
      </trkpt>
      <trkpt lat="43.93361" lon="6.50156">
        <ele>1264.5999755859</ele>
        <time>2022-08-21T12:04:15Z</time>
      </trkpt>
      <trkpt lat="43.93366" lon="6.50161">
        <ele>1265</ele>
        <time>2022-08-21T12:04:18Z</time>
      </trkpt>
      <trkpt lat="43.93373" lon="6.50169">
        <ele>1265.4000244141</ele>
        <time>2022-08-21T12:04:22Z</time>
      </trkpt>
      <trkpt lat="43.93372" lon="6.50183">
        <ele>1266</ele>
        <time>2022-08-21T12:04:26Z</time>
      </trkpt>
      <trkpt lat="43.9337" lon="6.50185">
        <ele>1266</ele>
        <time>2022-08-21T12:04:27Z</time>
      </trkpt>
      <trkpt lat="43.93366" lon="6.50187">
        <ele>1266.4000244141</ele>
        <time>2022-08-21T12:04:29Z</time>
      </trkpt>
      <trkpt lat="43.93364" lon="6.50187">
        <ele>1266.5999755859</ele>
        <time>2022-08-21T12:04:30Z</time>
      </trkpt>
      <trkpt lat="43.93357" lon="6.50182">
        <ele>1267.1999511719</ele>
        <time>2022-08-21T12:04:34Z</time>
      </trkpt>
      <trkpt lat="43.93349" lon="6.50176">
        <ele>1268</ele>
        <time>2022-08-21T12:04:38Z</time>
      </trkpt>
      <trkpt lat="43.93346" lon="6.50173">
        <ele>1268.4000244141</ele>
        <time>2022-08-21T12:04:40Z</time>
      </trkpt>
      <trkpt lat="43.93333" lon="6.50164">
        <ele>1269.4000244141</ele>
        <time>2022-08-21T12:04:47Z</time>
      </trkpt>
      <trkpt lat="43.93322" lon="6.50163">
        <ele>1270.4000244141</ele>
        <time>2022-08-21T12:04:54Z</time>
      </trkpt>
      <trkpt lat="43.9332" lon="6.50163">
        <ele>1270.5999755859</ele>
        <time>2022-08-21T12:04:55Z</time>
      </trkpt>
      <trkpt lat="43.93317" lon="6.50166">
        <ele>1271</ele>
        <time>2022-08-21T12:04:57Z</time>
      </trkpt>
      <trkpt lat="43.93308" lon="6.50169">
        <ele>1271.5999755859</ele>
        <time>2022-08-21T12:05:01Z</time>
      </trkpt>
      <trkpt lat="43.93294" lon="6.5017">
        <ele>1272.8000488281</ele>
        <time>2022-08-21T12:05:07Z</time>
      </trkpt>
      <trkpt lat="43.93292" lon="6.5017">
        <ele>1273</ele>
        <time>2022-08-21T12:05:08Z</time>
      </trkpt>
      <trkpt lat="43.93282" lon="6.50163">
        <ele>1273.8000488281</ele>
        <time>2022-08-21T12:05:13Z</time>
      </trkpt>
      <trkpt lat="43.9328" lon="6.50159">
        <ele>1274.1999511719</ele>
        <time>2022-08-21T12:05:15Z</time>
      </trkpt>
      <trkpt lat="43.93275" lon="6.50149">
        <ele>1274.8000488281</ele>
        <time>2022-08-21T12:05:20Z</time>
      </trkpt>
      <trkpt lat="43.93275" lon="6.50139">
        <ele>1275.5999755859</ele>
        <time>2022-08-21T12:05:24Z</time>
      </trkpt>
      <trkpt lat="43.93274" lon="6.50131">
        <ele>1276</ele>
        <time>2022-08-21T12:05:27Z</time>
      </trkpt>
      <trkpt lat="43.93273" lon="6.50118">
        <ele>1277.1999511719</ele>
        <time>2022-08-21T12:05:32Z</time>
      </trkpt>
      <trkpt lat="43.93273" lon="6.50115">
        <ele>1277.5999755859</ele>
        <time>2022-08-21T12:05:33Z</time>
      </trkpt>
      <trkpt lat="43.93274" lon="6.50106">
        <ele>1278.1999511719</ele>
        <time>2022-08-21T12:05:36Z</time>
      </trkpt>
      <trkpt lat="43.93278" lon="6.50093">
        <ele>1278.8000488281</ele>
        <time>2022-08-21T12:05:41Z</time>
      </trkpt>
      <trkpt lat="43.9328" lon="6.50088">
        <ele>1279.1999511719</ele>
        <time>2022-08-21T12:05:43Z</time>
      </trkpt>
      <trkpt lat="43.93284" lon="6.50072">
        <ele>1280</ele>
        <time>2022-08-21T12:05:49Z</time>
      </trkpt>
      <trkpt lat="43.93285" lon="6.5007">
        <ele>1280.1999511719</ele>
        <time>2022-08-21T12:05:50Z</time>
      </trkpt>
      <trkpt lat="43.93286" lon="6.50068">
        <ele>1280.1999511719</ele>
        <time>2022-08-21T12:05:51Z</time>
      </trkpt>
      <trkpt lat="43.93287" lon="6.50052">
        <ele>1281.1999511719</ele>
        <time>2022-08-21T12:05:57Z</time>
      </trkpt>
      <trkpt lat="43.93287" lon="6.5005">
        <ele>1281.4000244141</ele>
        <time>2022-08-21T12:05:58Z</time>
      </trkpt>
      <trkpt lat="43.93284" lon="6.50032">
        <ele>1282.4000244141</ele>
        <time>2022-08-21T12:06:05Z</time>
      </trkpt>
      <trkpt lat="43.93272" lon="6.50012">
        <ele>1283.1999511719</ele>
        <time>2022-08-21T12:06:13Z</time>
      </trkpt>
      <trkpt lat="43.93268" lon="6.50007">
        <ele>1283.4000244141</ele>
        <time>2022-08-21T12:06:15Z</time>
      </trkpt>
      <trkpt lat="43.93249" lon="6.49988">
        <ele>1284.5999755859</ele>
        <time>2022-08-21T12:06:23Z</time>
      </trkpt>
      <trkpt lat="43.93247" lon="6.49986">
        <ele>1285</ele>
        <time>2022-08-21T12:06:24Z</time>
      </trkpt>
      <trkpt lat="43.93241" lon="6.49976">
        <ele>1285.8000488281</ele>
        <time>2022-08-21T12:06:28Z</time>
      </trkpt>
      <trkpt lat="43.93237" lon="6.49967">
        <ele>1286.5999755859</ele>
        <time>2022-08-21T12:06:31Z</time>
      </trkpt>
      <trkpt lat="43.93234" lon="6.49961">
        <ele>1286.8000488281</ele>
        <time>2022-08-21T12:06:33Z</time>
      </trkpt>
      <trkpt lat="43.93229" lon="6.49946">
        <ele>1287.8000488281</ele>
        <time>2022-08-21T12:06:39Z</time>
      </trkpt>
      <trkpt lat="43.93225" lon="6.4994">
        <ele>1288.4000244141</ele>
        <time>2022-08-21T12:06:42Z</time>
      </trkpt>
      <trkpt lat="43.93221" lon="6.49932">
        <ele>1289</ele>
        <time>2022-08-21T12:06:45Z</time>
      </trkpt>
      <trkpt lat="43.93219" lon="6.4993">
        <ele>1289.1999511719</ele>
        <time>2022-08-21T12:06:46Z</time>
      </trkpt>
      <trkpt lat="43.9321" lon="6.49934">
        <ele>1289.5999755859</ele>
        <time>2022-08-21T12:06:50Z</time>
      </trkpt>
      <trkpt lat="43.93209" lon="6.49937">
        <ele>1289.8000488281</ele>
        <time>2022-08-21T12:06:51Z</time>
      </trkpt>
      <trkpt lat="43.93208" lon="6.49947">
        <ele>1290</ele>
        <time>2022-08-21T12:06:54Z</time>
      </trkpt>
      <trkpt lat="43.93209" lon="6.49949">
        <ele>1290</ele>
        <time>2022-08-21T12:06:55Z</time>
      </trkpt>
      <trkpt lat="43.93217" lon="6.49961">
        <ele>1290.8000488281</ele>
        <time>2022-08-21T12:07:00Z</time>
      </trkpt>
      <trkpt lat="43.9322" lon="6.49967">
        <ele>1291.1999511719</ele>
        <time>2022-08-21T12:07:02Z</time>
      </trkpt>
      <trkpt lat="43.93223" lon="6.49981">
        <ele>1292</ele>
        <time>2022-08-21T12:07:06Z</time>
      </trkpt>
      <trkpt lat="43.93224" lon="6.49987">
        <ele>1292.1999511719</ele>
        <time>2022-08-21T12:07:08Z</time>
      </trkpt>
      <trkpt lat="43.93221" lon="6.50002">
        <ele>1293</ele>
        <time>2022-08-21T12:07:12Z</time>
      </trkpt>
      <trkpt lat="43.93218" lon="6.50011">
        <ele>1293.4000244141</ele>
        <time>2022-08-21T12:07:15Z</time>
      </trkpt>
      <trkpt lat="43.93214" lon="6.50029">
        <ele>1294.1999511719</ele>
        <time>2022-08-21T12:07:21Z</time>
      </trkpt>
      <trkpt lat="43.93212" lon="6.50035">
        <ele>1294.4000244141</ele>
        <time>2022-08-21T12:07:23Z</time>
      </trkpt>
      <trkpt lat="43.9321" lon="6.50043">
        <ele>1294.8000488281</ele>
        <time>2022-08-21T12:07:26Z</time>
      </trkpt>
      <trkpt lat="43.93207" lon="6.50059">
        <ele>1295.4000244141</ele>
        <time>2022-08-21T12:07:31Z</time>
      </trkpt>
      <trkpt lat="43.93206" lon="6.50063">
        <ele>1295.5999755859</ele>
        <time>2022-08-21T12:07:32Z</time>
      </trkpt>
      <trkpt lat="43.93198" lon="6.50087">
        <ele>1296.5999755859</ele>
        <time>2022-08-21T12:07:40Z</time>
      </trkpt>
      <trkpt lat="43.93197" lon="6.50093">
        <ele>1297</ele>
        <time>2022-08-21T12:07:42Z</time>
      </trkpt>
      <trkpt lat="43.93194" lon="6.50106">
        <ele>1297.8000488281</ele>
        <time>2022-08-21T12:07:46Z</time>
      </trkpt>
      <trkpt lat="43.93192" lon="6.50121">
        <ele>1298.5999755859</ele>
        <time>2022-08-21T12:07:50Z</time>
      </trkpt>
      <trkpt lat="43.93192" lon="6.50124">
        <ele>1299</ele>
        <time>2022-08-21T12:07:51Z</time>
      </trkpt>
      <trkpt lat="43.93195" lon="6.50141">
        <ele>1299.8000488281</ele>
        <time>2022-08-21T12:07:56Z</time>
      </trkpt>
      <trkpt lat="43.93196" lon="6.50145">
        <ele>1300</ele>
        <time>2022-08-21T12:07:57Z</time>
      </trkpt>
      <trkpt lat="43.93198" lon="6.50159">
        <ele>1300.5999755859</ele>
        <time>2022-08-21T12:08:01Z</time>
      </trkpt>
      <trkpt lat="43.93193" lon="6.50168">
        <ele>1301</ele>
        <time>2022-08-21T12:08:04Z</time>
      </trkpt>
      <trkpt lat="43.93191" lon="6.50168">
        <ele>1301.1999511719</ele>
        <time>2022-08-21T12:08:05Z</time>
      </trkpt>
      <trkpt lat="43.93188" lon="6.50167">
        <ele>1301.4000244141</ele>
        <time>2022-08-21T12:08:06Z</time>
      </trkpt>
      <trkpt lat="43.93186" lon="6.50165">
        <ele>1301.4000244141</ele>
        <time>2022-08-21T12:08:07Z</time>
      </trkpt>
      <trkpt lat="43.93185" lon="6.50162">
        <ele>1301.5999755859</ele>
        <time>2022-08-21T12:08:08Z</time>
      </trkpt>
      <trkpt lat="43.93183" lon="6.50148">
        <ele>1302.1999511719</ele>
        <time>2022-08-21T12:08:12Z</time>
      </trkpt>
      <trkpt lat="43.93182" lon="6.50137">
        <ele>1302.5999755859</ele>
        <time>2022-08-21T12:08:15Z</time>
      </trkpt>
      <trkpt lat="43.93181" lon="6.50123">
        <ele>1303.4000244141</ele>
        <time>2022-08-21T12:08:19Z</time>
      </trkpt>
      <trkpt lat="43.93177" lon="6.50117">
        <ele>1303.8000488281</ele>
        <time>2022-08-21T12:08:21Z</time>
      </trkpt>
      <trkpt lat="43.93169" lon="6.5011">
        <ele>1304.5999755859</ele>
        <time>2022-08-21T12:08:25Z</time>
      </trkpt>
      <trkpt lat="43.93167" lon="6.5011">
        <ele>1304.8000488281</ele>
        <time>2022-08-21T12:08:26Z</time>
      </trkpt>
      <trkpt lat="43.93156" lon="6.50122">
        <ele>1305.5999755859</ele>
        <time>2022-08-21T12:08:32Z</time>
      </trkpt>
      <trkpt lat="43.93154" lon="6.50125">
        <ele>1305.5999755859</ele>
        <time>2022-08-21T12:08:33Z</time>
      </trkpt>
      <trkpt lat="43.93144" lon="6.50143">
        <ele>1306.5999755859</ele>
        <time>2022-08-21T12:08:40Z</time>
      </trkpt>
      <trkpt lat="43.93143" lon="6.50146">
        <ele>1306.5999755859</ele>
        <time>2022-08-21T12:08:41Z</time>
      </trkpt>
      <trkpt lat="43.93141" lon="6.50149">
        <ele>1306.8000488281</ele>
        <time>2022-08-21T12:08:42Z</time>
      </trkpt>
      <trkpt lat="43.93137" lon="6.50155">
        <ele>1307.4000244141</ele>
        <time>2022-08-21T12:08:47Z</time>
      </trkpt>
      <trkpt lat="43.93137" lon="6.50155">
        <ele>1307.4000244141</ele>
        <time>2022-08-21T12:08:48Z</time>
      </trkpt>
      <trkpt lat="43.93137" lon="6.50156">
        <ele>1307.4000244141</ele>
        <time>2022-08-21T12:08:52Z</time>
      </trkpt>
      <trkpt lat="43.93136" lon="6.50155">
        <ele>1307.4000244141</ele>
        <time>2022-08-21T12:08:55Z</time>
      </trkpt>
      <trkpt lat="43.93136" lon="6.50154">
        <ele>1307.5999755859</ele>
        <time>2022-08-21T12:08:58Z</time>
      </trkpt>
      <trkpt lat="43.93136" lon="6.50156">
        <ele>1306.8000488281</ele>
        <time>2022-08-21T12:09:08Z</time>
      </trkpt>
      <trkpt lat="43.93136" lon="6.50153">
        <ele>1307.1999511719</ele>
        <time>2022-08-21T12:09:15Z</time>
      </trkpt>
      <trkpt lat="43.93136" lon="6.50153">
        <ele>1306.5999755859</ele>
        <time>2022-08-21T12:09:24Z</time>
      </trkpt>
      <trkpt lat="43.93137" lon="6.50152">
        <ele>1306.5999755859</ele>
        <time>2022-08-21T12:09:28Z</time>
      </trkpt>
      <trkpt lat="43.93137" lon="6.50152">
        <ele>1306.5999755859</ele>
        <time>2022-08-21T12:09:32Z</time>
      </trkpt>
      <trkpt lat="43.93137" lon="6.50152">
        <ele>1306.5999755859</ele>
        <time>2022-08-21T12:09:36Z</time>
      </trkpt>
      <trkpt lat="43.93143" lon="6.50142">
        <ele>1306</ele>
        <time>2022-08-21T12:09:47Z</time>
      </trkpt>
      <trkpt lat="43.93144" lon="6.50141">
        <ele>1306</ele>
        <time>2022-08-21T12:09:48Z</time>
      </trkpt>
      <trkpt lat="43.93145" lon="6.50139">
        <ele>1306</ele>
        <time>2022-08-21T12:09:50Z</time>
      </trkpt>
      <trkpt lat="43.93145" lon="6.50134">
        <ele>1305.8000488281</ele>
        <time>2022-08-21T12:09:53Z</time>
      </trkpt>
      <trkpt lat="43.93146" lon="6.50133">
        <ele>1305.8000488281</ele>
        <time>2022-08-21T12:09:54Z</time>
      </trkpt>
      <trkpt lat="43.93149" lon="6.50126">
        <ele>1305.8000488281</ele>
        <time>2022-08-21T12:09:59Z</time>
      </trkpt>
      <trkpt lat="43.93152" lon="6.50123">
        <ele>1305.5999755859</ele>
        <time>2022-08-21T12:10:03Z</time>
      </trkpt>
      <trkpt lat="43.93156" lon="6.50117">
        <ele>1304.5999755859</ele>
        <time>2022-08-21T12:10:09Z</time>
      </trkpt>
      <trkpt lat="43.93157" lon="6.50117">
        <ele>1304.5999755859</ele>
        <time>2022-08-21T12:10:10Z</time>
      </trkpt>
      <trkpt lat="43.93159" lon="6.50113">
        <ele>1304.4000244141</ele>
        <time>2022-08-21T12:10:14Z</time>
      </trkpt>
      <trkpt lat="43.93162" lon="6.50109">
        <ele>1304</ele>
        <time>2022-08-21T12:10:18Z</time>
      </trkpt>
      <trkpt lat="43.93166" lon="6.50107">
        <ele>1303.8000488281</ele>
        <time>2022-08-21T12:10:21Z</time>
      </trkpt>
      <trkpt lat="43.93168" lon="6.50107">
        <ele>1303.8000488281</ele>
        <time>2022-08-21T12:10:23Z</time>
      </trkpt>
      <trkpt lat="43.93169" lon="6.50107">
        <ele>1303.5999755859</ele>
        <time>2022-08-21T12:10:24Z</time>
      </trkpt>
      <trkpt lat="43.93171" lon="6.50109">
        <ele>1303.5999755859</ele>
        <time>2022-08-21T12:10:26Z</time>
      </trkpt>
      <trkpt lat="43.93172" lon="6.5011">
        <ele>1303.5999755859</ele>
        <time>2022-08-21T12:10:27Z</time>
      </trkpt>
      <trkpt lat="43.93173" lon="6.50109">
        <ele>1303.5999755859</ele>
        <time>2022-08-21T12:10:30Z</time>
      </trkpt>
      <trkpt lat="43.93173" lon="6.50109">
        <ele>1303.5999755859</ele>
        <time>2022-08-21T12:10:36Z</time>
      </trkpt>
      <trkpt lat="43.93173" lon="6.50109">
        <ele>1303.5999755859</ele>
        <time>2022-08-21T12:10:40Z</time>
      </trkpt>
      <trkpt lat="43.93173" lon="6.5011">
        <ele>1303.5999755859</ele>
        <time>2022-08-21T12:10:43Z</time>
      </trkpt>
      <trkpt lat="43.93173" lon="6.5011">
        <ele>1303.5999755859</ele>
        <time>2022-08-21T12:10:48Z</time>
      </trkpt>
      <trkpt lat="43.93172" lon="6.5011">
        <ele>1303.5999755859</ele>
        <time>2022-08-21T12:10:53Z</time>
      </trkpt>
      <trkpt lat="43.93173" lon="6.50111">
        <ele>1303.8000488281</ele>
        <time>2022-08-21T12:11:01Z</time>
      </trkpt>
      <trkpt lat="43.93173" lon="6.50111">
        <ele>1303.5999755859</ele>
        <time>2022-08-21T12:11:04Z</time>
      </trkpt>
      <trkpt lat="43.93173" lon="6.50111">
        <ele>1303.5999755859</ele>
        <time>2022-08-21T12:11:09Z</time>
      </trkpt>
      <trkpt lat="43.93173" lon="6.50111">
        <ele>1303.4000244141</ele>
        <time>2022-08-21T12:11:20Z</time>
      </trkpt>
      <trkpt lat="43.93173" lon="6.50111">
        <ele>1303.4000244141</ele>
        <time>2022-08-21T12:11:24Z</time>
      </trkpt>
      <trkpt lat="43.93173" lon="6.50109">
        <ele>1303</ele>
        <time>2022-08-21T12:11:41Z</time>
      </trkpt>
      <trkpt lat="43.93173" lon="6.50109">
        <ele>1303</ele>
        <time>2022-08-21T12:11:50Z</time>
      </trkpt>
      <trkpt lat="43.93173" lon="6.50109">
        <ele>1303</ele>
        <time>2022-08-21T12:11:53Z</time>
      </trkpt>
      <trkpt lat="43.93173" lon="6.50109">
        <ele>1303</ele>
        <time>2022-08-21T12:11:54Z</time>
      </trkpt>
      <trkpt lat="43.93173" lon="6.50109">
        <ele>1303</ele>
        <time>2022-08-21T12:11:56Z</time>
      </trkpt>
      <trkpt lat="43.93173" lon="6.50109">
        <ele>1303</ele>
        <time>2022-08-21T12:11:57Z</time>
      </trkpt>
      <trkpt lat="43.93173" lon="6.50109">
        <ele>1303</ele>
        <time>2022-08-21T12:12:02Z</time>
      </trkpt>
      <trkpt lat="43.93173" lon="6.50109">
        <ele>1303</ele>
        <time>2022-08-21T12:12:08Z</time>
      </trkpt>
      <trkpt lat="43.93173" lon="6.50111">
        <ele>1303</ele>
        <time>2022-08-21T12:12:23Z</time>
      </trkpt>
      <trkpt lat="43.93172" lon="6.50111">
        <ele>1303</ele>
        <time>2022-08-21T12:12:24Z</time>
      </trkpt>
      <trkpt lat="43.93173" lon="6.50111">
        <ele>1303</ele>
        <time>2022-08-21T12:12:30Z</time>
      </trkpt>
      <trkpt lat="43.93172" lon="6.5011">
        <ele>1303</ele>
        <time>2022-08-21T12:12:37Z</time>
      </trkpt>
      <trkpt lat="43.93171" lon="6.5011">
        <ele>1303</ele>
        <time>2022-08-21T12:12:38Z</time>
      </trkpt>
      <trkpt lat="43.93171" lon="6.50111">
        <ele>1303</ele>
        <time>2022-08-21T12:12:49Z</time>
      </trkpt>
      <trkpt lat="43.93172" lon="6.50111">
        <ele>1303</ele>
        <time>2022-08-21T12:12:59Z</time>
      </trkpt>
      <trkpt lat="43.93172" lon="6.5011">
        <ele>1303</ele>
        <time>2022-08-21T12:13:01Z</time>
      </trkpt>
      <trkpt lat="43.93172" lon="6.5011">
        <ele>1303</ele>
        <time>2022-08-21T12:13:04Z</time>
      </trkpt>
      <trkpt lat="43.93172" lon="6.5011">
        <ele>1303</ele>
        <time>2022-08-21T12:13:06Z</time>
      </trkpt>
      <trkpt lat="43.93172" lon="6.5011">
        <ele>1303</ele>
        <time>2022-08-21T12:13:18Z</time>
      </trkpt>
      <trkpt lat="43.93172" lon="6.5011">
        <ele>1303</ele>
        <time>2022-08-21T12:13:34Z</time>
      </trkpt>
      <trkpt lat="43.93172" lon="6.5011">
        <ele>1303</ele>
        <time>2022-08-21T12:13:42Z</time>
      </trkpt>
      <trkpt lat="43.93172" lon="6.5011">
        <ele>1303</ele>
        <time>2022-08-21T12:13:44Z</time>
      </trkpt>
      <trkpt lat="43.93172" lon="6.5011">
        <ele>1303</ele>
        <time>2022-08-21T12:13:48Z</time>
      </trkpt>
      <trkpt lat="43.93169" lon="6.50112">
        <ele>1303</ele>
        <time>2022-08-21T12:14:01Z</time>
      </trkpt>
      <trkpt lat="43.93165" lon="6.50114">
        <ele>1303</ele>
        <time>2022-08-21T12:14:04Z</time>
      </trkpt>
      <trkpt lat="43.93164" lon="6.50115">
        <ele>1303</ele>
        <time>2022-08-21T12:14:05Z</time>
      </trkpt>
      <trkpt lat="43.93158" lon="6.50122">
        <ele>1303.1999511719</ele>
        <time>2022-08-21T12:14:09Z</time>
      </trkpt>
      <trkpt lat="43.93155" lon="6.50127">
        <ele>1303.1999511719</ele>
        <time>2022-08-21T12:14:11Z</time>
      </trkpt>
      <trkpt lat="43.93149" lon="6.50138">
        <ele>1304</ele>
        <time>2022-08-21T12:14:15Z</time>
      </trkpt>
      <trkpt lat="43.93146" lon="6.50143">
        <ele>1304.1999511719</ele>
        <time>2022-08-21T12:14:17Z</time>
      </trkpt>
      <trkpt lat="43.93146" lon="6.50144">
        <ele>1304.4000244141</ele>
        <time>2022-08-21T12:14:18Z</time>
      </trkpt>
      <trkpt lat="43.93142" lon="6.50149">
        <ele>1304.5999755859</ele>
        <time>2022-08-21T12:14:23Z</time>
      </trkpt>
      <trkpt lat="43.93141" lon="6.5015">
        <ele>1304.5999755859</ele>
        <time>2022-08-21T12:14:24Z</time>
      </trkpt>
      <trkpt lat="43.93141" lon="6.50151">
        <ele>1304.4000244141</ele>
        <time>2022-08-21T12:14:25Z</time>
      </trkpt>
      <trkpt lat="43.9314" lon="6.50153">
        <ele>1304.4000244141</ele>
        <time>2022-08-21T12:14:27Z</time>
      </trkpt>
      <trkpt lat="43.93139" lon="6.50154">
        <ele>1304.5999755859</ele>
        <time>2022-08-21T12:14:29Z</time>
      </trkpt>
      <trkpt lat="43.93138" lon="6.50154">
        <ele>1304.5999755859</ele>
        <time>2022-08-21T12:14:32Z</time>
      </trkpt>
      <trkpt lat="43.93138" lon="6.50156">
        <ele>1304.5999755859</ele>
        <time>2022-08-21T12:14:37Z</time>
      </trkpt>
      <trkpt lat="43.93138" lon="6.50155">
        <ele>1304.5999755859</ele>
        <time>2022-08-21T12:14:40Z</time>
      </trkpt>
      <trkpt lat="43.93138" lon="6.50155">
        <ele>1304.5999755859</ele>
        <time>2022-08-21T12:14:44Z</time>
      </trkpt>
      <trkpt lat="43.93138" lon="6.50155">
        <ele>1304.8000488281</ele>
        <time>2022-08-21T12:14:52Z</time>
      </trkpt>
      <trkpt lat="43.93138" lon="6.50155">
        <ele>1305</ele>
        <time>2022-08-21T12:15:00Z</time>
      </trkpt>
      <trkpt lat="43.93138" lon="6.50155">
        <ele>1305</ele>
        <time>2022-08-21T12:15:03Z</time>
      </trkpt>
      <trkpt lat="43.93138" lon="6.50156">
        <ele>1305</ele>
        <time>2022-08-21T12:15:18Z</time>
      </trkpt>
      <trkpt lat="43.93138" lon="6.50156">
        <ele>1305</ele>
        <time>2022-08-21T12:15:32Z</time>
      </trkpt>
      <trkpt lat="43.93138" lon="6.50156">
        <ele>1304.8000488281</ele>
        <time>2022-08-21T12:15:48Z</time>
      </trkpt>
      <trkpt lat="43.93137" lon="6.50156">
        <ele>1304.8000488281</ele>
        <time>2022-08-21T12:15:54Z</time>
      </trkpt>
      <trkpt lat="43.93137" lon="6.50155">
        <ele>1304.8000488281</ele>
        <time>2022-08-21T12:15:57Z</time>
      </trkpt>
      <trkpt lat="43.93137" lon="6.50155">
        <ele>1305</ele>
        <time>2022-08-21T12:16:03Z</time>
      </trkpt>
      <trkpt lat="43.93137" lon="6.50154">
        <ele>1305</ele>
        <time>2022-08-21T12:16:15Z</time>
      </trkpt>
      <trkpt lat="43.93138" lon="6.50153">
        <ele>1305.1999511719</ele>
        <time>2022-08-21T12:16:23Z</time>
      </trkpt>
      <trkpt lat="43.93138" lon="6.50153">
        <ele>1305.1999511719</ele>
        <time>2022-08-21T12:16:26Z</time>
      </trkpt>
      <trkpt lat="43.93138" lon="6.50153">
        <ele>1305.1999511719</ele>
        <time>2022-08-21T12:16:36Z</time>
      </trkpt>
      <trkpt lat="43.93138" lon="6.50153">
        <ele>1305.1999511719</ele>
        <time>2022-08-21T12:16:49Z</time>
      </trkpt>
      <trkpt lat="43.93137" lon="6.50153">
        <ele>1305.1999511719</ele>
        <time>2022-08-21T12:17:04Z</time>
      </trkpt>
      <trkpt lat="43.93137" lon="6.50153">
        <ele>1305.1999511719</ele>
        <time>2022-08-21T12:17:14Z</time>
      </trkpt>
      <trkpt lat="43.93137" lon="6.50153">
        <ele>1305.1999511719</ele>
        <time>2022-08-21T12:17:28Z</time>
      </trkpt>
      <trkpt lat="43.93138" lon="6.50152">
        <ele>1305.1999511719</ele>
        <time>2022-08-21T12:17:40Z</time>
      </trkpt>
      <trkpt lat="43.93138" lon="6.50152">
        <ele>1305.1999511719</ele>
        <time>2022-08-21T12:17:47Z</time>
      </trkpt>
      <trkpt lat="43.93138" lon="6.50152">
        <ele>1305.1999511719</ele>
        <time>2022-08-21T12:17:50Z</time>
      </trkpt>
      <trkpt lat="43.93137" lon="6.50155">
        <ele>1305.1999511719</ele>
        <time>2022-08-21T12:18:01Z</time>
      </trkpt>
      <trkpt lat="43.93137" lon="6.50155">
        <ele>1305.1999511719</ele>
        <time>2022-08-21T12:18:02Z</time>
      </trkpt>
      <trkpt lat="43.93138" lon="6.50155">
        <ele>1305.1999511719</ele>
        <time>2022-08-21T12:18:08Z</time>
      </trkpt>
      <trkpt lat="43.93139" lon="6.50158">
        <ele>1305.1999511719</ele>
        <time>2022-08-21T12:18:16Z</time>
      </trkpt>
      <trkpt lat="43.93138" lon="6.50159">
        <ele>1305.1999511719</ele>
        <time>2022-08-21T12:18:21Z</time>
      </trkpt>
      <trkpt lat="43.93138" lon="6.50159">
        <ele>1305.1999511719</ele>
        <time>2022-08-21T12:18:24Z</time>
      </trkpt>
      <trkpt lat="43.93126" lon="6.50178">
        <ele>1305.1999511719</ele>
        <time>2022-08-21T12:18:32Z</time>
      </trkpt>
      <trkpt lat="43.93122" lon="6.50184">
        <ele>1305.1999511719</ele>
        <time>2022-08-21T12:18:34Z</time>
      </trkpt>
      <trkpt lat="43.93112" lon="6.502">
        <ele>1304.8000488281</ele>
        <time>2022-08-21T12:18:38Z</time>
      </trkpt>
      <trkpt lat="43.93092" lon="6.50237">
        <ele>1303.8000488281</ele>
        <time>2022-08-21T12:18:45Z</time>
      </trkpt>
      <trkpt lat="43.93089" lon="6.50243">
        <ele>1303.5999755859</ele>
        <time>2022-08-21T12:18:46Z</time>
      </trkpt>
      <trkpt lat="43.93084" lon="6.50257">
        <ele>1303.1999511719</ele>
        <time>2022-08-21T12:18:48Z</time>
      </trkpt>
      <trkpt lat="43.93083" lon="6.50264">
        <ele>1303</ele>
        <time>2022-08-21T12:18:49Z</time>
      </trkpt>
      <trkpt lat="43.9308" lon="6.50278">
        <ele>1303</ele>
        <time>2022-08-21T12:18:51Z</time>
      </trkpt>
      <trkpt lat="43.93079" lon="6.50285">
        <ele>1303</ele>
        <time>2022-08-21T12:18:52Z</time>
      </trkpt>
      <trkpt lat="43.93077" lon="6.50314">
        <ele>1303.5999755859</ele>
        <time>2022-08-21T12:18:57Z</time>
      </trkpt>
      <trkpt lat="43.93073" lon="6.50338">
        <ele>1304.4000244141</ele>
        <time>2022-08-21T12:19:01Z</time>
      </trkpt>
      <trkpt lat="43.9307" lon="6.50349">
        <ele>1304.8000488281</ele>
        <time>2022-08-21T12:19:03Z</time>
      </trkpt>
      <trkpt lat="43.93068" lon="6.50355">
        <ele>1305</ele>
        <time>2022-08-21T12:19:04Z</time>
      </trkpt>
      <trkpt lat="43.9306" lon="6.50369">
        <ele>1305.5999755859</ele>
        <time>2022-08-21T12:19:07Z</time>
      </trkpt>
      <trkpt lat="43.93057" lon="6.50372">
        <ele>1305.8000488281</ele>
        <time>2022-08-21T12:19:08Z</time>
      </trkpt>
      <trkpt lat="43.93053" lon="6.50378">
        <ele>1306.1999511719</ele>
        <time>2022-08-21T12:19:10Z</time>
      </trkpt>
      <trkpt lat="43.9305" lon="6.50381">
        <ele>1306.5999755859</ele>
        <time>2022-08-21T12:19:11Z</time>
      </trkpt>
      <trkpt lat="43.93046" lon="6.50388">
        <ele>1306.8000488281</ele>
        <time>2022-08-21T12:19:13Z</time>
      </trkpt>
      <trkpt lat="43.93036" lon="6.50402">
        <ele>1306.8000488281</ele>
        <time>2022-08-21T12:19:16Z</time>
      </trkpt>
      <trkpt lat="43.93024" lon="6.50418">
        <ele>1305.8000488281</ele>
        <time>2022-08-21T12:19:19Z</time>
      </trkpt>
      <trkpt lat="43.93005" lon="6.50441">
        <ele>1304.4000244141</ele>
        <time>2022-08-21T12:19:23Z</time>
      </trkpt>
      <trkpt lat="43.92992" lon="6.50453">
        <ele>1303.4000244141</ele>
        <time>2022-08-21T12:19:25Z</time>
      </trkpt>
      <trkpt lat="43.92979" lon="6.50464">
        <ele>1302.1999511719</ele>
        <time>2022-08-21T12:19:27Z</time>
      </trkpt>
      <trkpt lat="43.92966" lon="6.50475">
        <ele>1301</ele>
        <time>2022-08-21T12:19:29Z</time>
      </trkpt>
      <trkpt lat="43.92946" lon="6.50492">
        <ele>1300</ele>
        <time>2022-08-21T12:19:32Z</time>
      </trkpt>
      <trkpt lat="43.92934" lon="6.50503">
        <ele>1299.5999755859</ele>
        <time>2022-08-21T12:19:34Z</time>
      </trkpt>
      <trkpt lat="43.92922" lon="6.50512">
        <ele>1299.5999755859</ele>
        <time>2022-08-21T12:19:36Z</time>
      </trkpt>
      <trkpt lat="43.92916" lon="6.50515">
        <ele>1299.5999755859</ele>
        <time>2022-08-21T12:19:37Z</time>
      </trkpt>
      <trkpt lat="43.92905" lon="6.5052">
        <ele>1300</ele>
        <time>2022-08-21T12:19:39Z</time>
      </trkpt>
      <trkpt lat="43.92893" lon="6.50523">
        <ele>1300.4000244141</ele>
        <time>2022-08-21T12:19:41Z</time>
      </trkpt>
      <trkpt lat="43.92889" lon="6.50525">
        <ele>1300.5999755859</ele>
        <time>2022-08-21T12:19:42Z</time>
      </trkpt>
      <trkpt lat="43.9288" lon="6.50531">
        <ele>1300.5999755859</ele>
        <time>2022-08-21T12:19:44Z</time>
      </trkpt>
      <trkpt lat="43.92875" lon="6.50534">
        <ele>1300.5999755859</ele>
        <time>2022-08-21T12:19:45Z</time>
      </trkpt>
      <trkpt lat="43.92854" lon="6.50544">
        <ele>1299.5999755859</ele>
        <time>2022-08-21T12:19:49Z</time>
      </trkpt>
      <trkpt lat="43.92848" lon="6.50547">
        <ele>1298.8000488281</ele>
        <time>2022-08-21T12:19:50Z</time>
      </trkpt>
      <trkpt lat="43.92831" lon="6.5056">
        <ele>1297.4000244141</ele>
        <time>2022-08-21T12:19:53Z</time>
      </trkpt>
      <trkpt lat="43.92815" lon="6.50576">
        <ele>1296.4000244141</ele>
        <time>2022-08-21T12:19:56Z</time>
      </trkpt>
      <trkpt lat="43.92806" lon="6.50583">
        <ele>1296</ele>
        <time>2022-08-21T12:19:58Z</time>
      </trkpt>
      <trkpt lat="43.92801" lon="6.50587">
        <ele>1296</ele>
        <time>2022-08-21T12:19:59Z</time>
      </trkpt>
      <trkpt lat="43.92788" lon="6.50599">
        <ele>1295</ele>
        <time>2022-08-21T12:20:02Z</time>
      </trkpt>
      <trkpt lat="43.9278" lon="6.50609">
        <ele>1294.1999511719</ele>
        <time>2022-08-21T12:20:04Z</time>
      </trkpt>
      <trkpt lat="43.92777" lon="6.50614">
        <ele>1293.8000488281</ele>
        <time>2022-08-21T12:20:05Z</time>
      </trkpt>
      <trkpt lat="43.92764" lon="6.50635">
        <ele>1293.4000244141</ele>
        <time>2022-08-21T12:20:10Z</time>
      </trkpt>
      <trkpt lat="43.92763" lon="6.50638">
        <ele>1293.4000244141</ele>
        <time>2022-08-21T12:20:11Z</time>
      </trkpt>
      <trkpt lat="43.92749" lon="6.50652">
        <ele>1293</ele>
        <time>2022-08-21T12:20:16Z</time>
      </trkpt>
      <trkpt lat="43.92745" lon="6.50654">
        <ele>1292.5999755859</ele>
        <time>2022-08-21T12:20:17Z</time>
      </trkpt>
      <trkpt lat="43.92731" lon="6.50658">
        <ele>1291.4000244141</ele>
        <time>2022-08-21T12:20:20Z</time>
      </trkpt>
      <trkpt lat="43.92721" lon="6.5066">
        <ele>1290.5999755859</ele>
        <time>2022-08-21T12:20:22Z</time>
      </trkpt>
      <trkpt lat="43.92717" lon="6.50662">
        <ele>1290</ele>
        <time>2022-08-21T12:20:23Z</time>
      </trkpt>
      <trkpt lat="43.92704" lon="6.50668">
        <ele>1289.1999511719</ele>
        <time>2022-08-21T12:20:26Z</time>
      </trkpt>
      <trkpt lat="43.927" lon="6.5067">
        <ele>1289</ele>
        <time>2022-08-21T12:20:27Z</time>
      </trkpt>
      <trkpt lat="43.92692" lon="6.50676">
        <ele>1288.5999755859</ele>
        <time>2022-08-21T12:20:29Z</time>
      </trkpt>
      <trkpt lat="43.92685" lon="6.50681">
        <ele>1288.1999511719</ele>
        <time>2022-08-21T12:20:31Z</time>
      </trkpt>
      <trkpt lat="43.92679" lon="6.50686">
        <ele>1287.8000488281</ele>
        <time>2022-08-21T12:20:33Z</time>
      </trkpt>
      <trkpt lat="43.92676" lon="6.50689">
        <ele>1287.5999755859</ele>
        <time>2022-08-21T12:20:34Z</time>
      </trkpt>
      <trkpt lat="43.92666" lon="6.50707">
        <ele>1286.8000488281</ele>
        <time>2022-08-21T12:20:39Z</time>
      </trkpt>
      <trkpt lat="43.92665" lon="6.50713">
        <ele>1286.5999755859</ele>
        <time>2022-08-21T12:20:40Z</time>
      </trkpt>
      <trkpt lat="43.92661" lon="6.50744">
        <ele>1285.5999755859</ele>
        <time>2022-08-21T12:20:45Z</time>
      </trkpt>
      <trkpt lat="43.92657" lon="6.50772">
        <ele>1284.8000488281</ele>
        <time>2022-08-21T12:20:49Z</time>
      </trkpt>
      <trkpt lat="43.92656" lon="6.50778">
        <ele>1284.5999755859</ele>
        <time>2022-08-21T12:20:50Z</time>
      </trkpt>
      <trkpt lat="43.92654" lon="6.50785">
        <ele>1284.5999755859</ele>
        <time>2022-08-21T12:20:51Z</time>
      </trkpt>
      <trkpt lat="43.92647" lon="6.50803">
        <ele>1284.1999511719</ele>
        <time>2022-08-21T12:20:54Z</time>
      </trkpt>
      <trkpt lat="43.92639" lon="6.5082">
        <ele>1283.8000488281</ele>
        <time>2022-08-21T12:20:57Z</time>
      </trkpt>
      <trkpt lat="43.92635" lon="6.50824">
        <ele>1283.5999755859</ele>
        <time>2022-08-21T12:20:58Z</time>
      </trkpt>
      <trkpt lat="43.92632" lon="6.50829">
        <ele>1283.5999755859</ele>
        <time>2022-08-21T12:20:59Z</time>
      </trkpt>
      <trkpt lat="43.92621" lon="6.50839">
        <ele>1283.1999511719</ele>
        <time>2022-08-21T12:21:02Z</time>
      </trkpt>
      <trkpt lat="43.92617" lon="6.50842">
        <ele>1283</ele>
        <time>2022-08-21T12:21:03Z</time>
      </trkpt>
      <trkpt lat="43.92605" lon="6.50849">
        <ele>1282.8000488281</ele>
        <time>2022-08-21T12:21:06Z</time>
      </trkpt>
      <trkpt lat="43.926" lon="6.50849">
        <ele>1282.5999755859</ele>
        <time>2022-08-21T12:21:07Z</time>
      </trkpt>
      <trkpt lat="43.92578" lon="6.50848">
        <ele>1283.4000244141</ele>
        <time>2022-08-21T12:21:14Z</time>
      </trkpt>
      <trkpt lat="43.9257" lon="6.50848">
        <ele>1284.4000244141</ele>
        <time>2022-08-21T12:21:19Z</time>
      </trkpt>
      <trkpt lat="43.92569" lon="6.50849">
        <ele>1284.4000244141</ele>
        <time>2022-08-21T12:21:20Z</time>
      </trkpt>
      <trkpt lat="43.92568" lon="6.50849">
        <ele>1284.5999755859</ele>
        <time>2022-08-21T12:21:21Z</time>
      </trkpt>
      <trkpt lat="43.92562" lon="6.50855">
        <ele>1285</ele>
        <time>2022-08-21T12:21:26Z</time>
      </trkpt>
      <trkpt lat="43.92561" lon="6.50858">
        <ele>1285.1999511719</ele>
        <time>2022-08-21T12:21:28Z</time>
      </trkpt>
      <trkpt lat="43.92562" lon="6.50861">
        <ele>1285.4000244141</ele>
        <time>2022-08-21T12:21:30Z</time>
      </trkpt>
      <trkpt lat="43.92563" lon="6.50863">
        <ele>1285.5999755859</ele>
        <time>2022-08-21T12:21:31Z</time>
      </trkpt>
      <trkpt lat="43.92563" lon="6.50864">
        <ele>1285.8000488281</ele>
        <time>2022-08-21T12:21:32Z</time>
      </trkpt>
      <trkpt lat="43.92565" lon="6.50871">
        <ele>1286.1999511719</ele>
        <time>2022-08-21T12:21:36Z</time>
      </trkpt>
      <trkpt lat="43.92567" lon="6.50876">
        <ele>1286.8000488281</ele>
        <time>2022-08-21T12:21:39Z</time>
      </trkpt>
      <trkpt lat="43.92568" lon="6.50879">
        <ele>1287.1999511719</ele>
        <time>2022-08-21T12:21:41Z</time>
      </trkpt>
      <trkpt lat="43.92569" lon="6.50881">
        <ele>1287.4000244141</ele>
        <time>2022-08-21T12:21:43Z</time>
      </trkpt>
      <trkpt lat="43.92571" lon="6.50884">
        <ele>1288</ele>
        <time>2022-08-21T12:21:45Z</time>
      </trkpt>
      <trkpt lat="43.92573" lon="6.50889">
        <ele>1288.5999755859</ele>
        <time>2022-08-21T12:21:48Z</time>
      </trkpt>
      <trkpt lat="43.92574" lon="6.50891">
        <ele>1288.8000488281</ele>
        <time>2022-08-21T12:21:50Z</time>
      </trkpt>
      <trkpt lat="43.92574" lon="6.50893">
        <ele>1289</ele>
        <time>2022-08-21T12:21:51Z</time>
      </trkpt>
      <trkpt lat="43.92575" lon="6.50897">
        <ele>1289.4000244141</ele>
        <time>2022-08-21T12:21:53Z</time>
      </trkpt>
      <trkpt lat="43.92574" lon="6.50903">
        <ele>1290.1999511719</ele>
        <time>2022-08-21T12:21:56Z</time>
      </trkpt>
      <trkpt lat="43.92573" lon="6.50907">
        <ele>1290.8000488281</ele>
        <time>2022-08-21T12:21:58Z</time>
      </trkpt>
      <trkpt lat="43.92573" lon="6.50908">
        <ele>1291.1999511719</ele>
        <time>2022-08-21T12:21:59Z</time>
      </trkpt>
      <trkpt lat="43.92573" lon="6.50909">
        <ele>1291.4000244141</ele>
        <time>2022-08-21T12:22:00Z</time>
      </trkpt>
      <trkpt lat="43.92573" lon="6.50911">
        <ele>1292</ele>
        <time>2022-08-21T12:22:02Z</time>
      </trkpt>
      <trkpt lat="43.92572" lon="6.50914">
        <ele>1292.4000244141</ele>
        <time>2022-08-21T12:22:05Z</time>
      </trkpt>
      <trkpt lat="43.92572" lon="6.50915">
        <ele>1292.4000244141</ele>
        <time>2022-08-21T12:22:06Z</time>
      </trkpt>
      <trkpt lat="43.92573" lon="6.50915">
        <ele>1293</ele>
        <time>2022-08-21T12:22:12Z</time>
      </trkpt>
      <trkpt lat="43.92573" lon="6.50915">
        <ele>1293</ele>
        <time>2022-08-21T12:22:13Z</time>
      </trkpt>
      <trkpt lat="43.92573" lon="6.50914">
        <ele>1292.8000488281</ele>
        <time>2022-08-21T12:22:21Z</time>
      </trkpt>
      <trkpt lat="43.92573" lon="6.50915">
        <ele>1292.8000488281</ele>
        <time>2022-08-21T12:22:26Z</time>
      </trkpt>
      <trkpt lat="43.92572" lon="6.50915">
        <ele>1292.8000488281</ele>
        <time>2022-08-21T12:22:34Z</time>
      </trkpt>
      <trkpt lat="43.92572" lon="6.50915">
        <ele>1292.8000488281</ele>
        <time>2022-08-21T12:22:39Z</time>
      </trkpt>
      <trkpt lat="43.92572" lon="6.50915">
        <ele>1292.8000488281</ele>
        <time>2022-08-21T12:22:41Z</time>
      </trkpt>
      <trkpt lat="43.92572" lon="6.50915">
        <ele>1292.5999755859</ele>
        <time>2022-08-21T12:22:43Z</time>
      </trkpt>
      <trkpt lat="43.92572" lon="6.50915">
        <ele>1292.5999755859</ele>
        <time>2022-08-21T12:22:45Z</time>
      </trkpt>
      <trkpt lat="43.92572" lon="6.50915">
        <ele>1292.4000244141</ele>
        <time>2022-08-21T12:22:47Z</time>
      </trkpt>
      <trkpt lat="43.92572" lon="6.50915">
        <ele>1292.4000244141</ele>
        <time>2022-08-21T12:22:49Z</time>
      </trkpt>
      <trkpt lat="43.92572" lon="6.50915">
        <ele>1292.4000244141</ele>
        <time>2022-08-21T12:22:51Z</time>
      </trkpt>
      <trkpt lat="43.92572" lon="6.50915">
        <ele>1292.4000244141</ele>
        <time>2022-08-21T12:22:54Z</time>
      </trkpt>
      <trkpt lat="43.92572" lon="6.50915">
        <ele>1292.4000244141</ele>
        <time>2022-08-21T12:22:57Z</time>
      </trkpt>
      <trkpt lat="43.92572" lon="6.50915">
        <ele>1292.4000244141</ele>
        <time>2022-08-21T12:22:59Z</time>
      </trkpt>
      <trkpt lat="43.92572" lon="6.50915">
        <ele>1292.4000244141</ele>
        <time>2022-08-21T12:23:01Z</time>
      </trkpt>
      <trkpt lat="43.92578" lon="6.50913">
        <ele>1292.8000488281</ele>
        <time>2022-08-21T12:23:26Z</time>
      </trkpt>
      <trkpt lat="43.9258" lon="6.50913">
        <ele>1292.8000488281</ele>
        <time>2022-08-21T12:23:35Z</time>
      </trkpt>
      <trkpt lat="43.9258" lon="6.50913">
        <ele>1292.8000488281</ele>
        <time>2022-08-21T12:23:42Z</time>
      </trkpt>
      <trkpt lat="43.9258" lon="6.50912">
        <ele>1292.8000488281</ele>
        <time>2022-08-21T12:23:48Z</time>
      </trkpt>
      <trkpt lat="43.92579" lon="6.50917">
        <ele>1292.8000488281</ele>
        <time>2022-08-21T12:23:58Z</time>
      </trkpt>
      <trkpt lat="43.9258" lon="6.50919">
        <ele>1292.8000488281</ele>
        <time>2022-08-21T12:24:01Z</time>
      </trkpt>
      <trkpt lat="43.92577" lon="6.5092">
        <ele>1292.8000488281</ele>
        <time>2022-08-21T12:24:09Z</time>
      </trkpt>
      <trkpt lat="43.92577" lon="6.50919">
        <ele>1292.8000488281</ele>
        <time>2022-08-21T12:24:16Z</time>
      </trkpt>
      <trkpt lat="43.92577" lon="6.50916">
        <ele>1292.8000488281</ele>
        <time>2022-08-21T12:24:27Z</time>
      </trkpt>
      <trkpt lat="43.92577" lon="6.50914">
        <ele>1292.8000488281</ele>
        <time>2022-08-21T12:24:34Z</time>
      </trkpt>
      <trkpt lat="43.92578" lon="6.50914">
        <ele>1292.8000488281</ele>
        <time>2022-08-21T12:24:42Z</time>
      </trkpt>
      <trkpt lat="43.92578" lon="6.50914">
        <ele>1292.8000488281</ele>
        <time>2022-08-21T12:24:43Z</time>
      </trkpt>
      <trkpt lat="43.92578" lon="6.50914">
        <ele>1292.8000488281</ele>
        <time>2022-08-21T12:24:46Z</time>
      </trkpt>
      <trkpt lat="43.92578" lon="6.50915">
        <ele>1292.8000488281</ele>
        <time>2022-08-21T12:24:49Z</time>
      </trkpt>
      <trkpt lat="43.92578" lon="6.50915">
        <ele>1292.8000488281</ele>
        <time>2022-08-21T12:24:56Z</time>
      </trkpt>
      <trkpt lat="43.92578" lon="6.50915">
        <ele>1292.8000488281</ele>
        <time>2022-08-21T12:25:00Z</time>
      </trkpt>
      <trkpt lat="43.92579" lon="6.50915">
        <ele>1292.8000488281</ele>
        <time>2022-08-21T12:25:12Z</time>
      </trkpt>
      <trkpt lat="43.9258" lon="6.50915">
        <ele>1292.8000488281</ele>
        <time>2022-08-21T12:25:18Z</time>
      </trkpt>
      <trkpt lat="43.92581" lon="6.50914">
        <ele>1292.8000488281</ele>
        <time>2022-08-21T12:25:24Z</time>
      </trkpt>
      <trkpt lat="43.92582" lon="6.50921">
        <ele>1292.8000488281</ele>
        <time>2022-08-21T12:25:33Z</time>
      </trkpt>
      <trkpt lat="43.92587" lon="6.50918">
        <ele>1292.8000488281</ele>
        <time>2022-08-21T12:25:41Z</time>
      </trkpt>
      <trkpt lat="43.92587" lon="6.50916">
        <ele>1292.8000488281</ele>
        <time>2022-08-21T12:25:45Z</time>
      </trkpt>
      <trkpt lat="43.92587" lon="6.50914">
        <ele>1292.8000488281</ele>
        <time>2022-08-21T12:25:50Z</time>
      </trkpt>
      <trkpt lat="43.92587" lon="6.50913">
        <ele>1292.8000488281</ele>
        <time>2022-08-21T12:25:52Z</time>
      </trkpt>
      <trkpt lat="43.92587" lon="6.50912">
        <ele>1292.8000488281</ele>
        <time>2022-08-21T12:25:54Z</time>
      </trkpt>
      <trkpt lat="43.92588" lon="6.50912">
        <ele>1292.8000488281</ele>
        <time>2022-08-21T12:26:03Z</time>
      </trkpt>
      <trkpt lat="43.92588" lon="6.50912">
        <ele>1292.8000488281</ele>
        <time>2022-08-21T12:26:06Z</time>
      </trkpt>
      <trkpt lat="43.9259" lon="6.50911">
        <ele>1292.8000488281</ele>
        <time>2022-08-21T12:26:16Z</time>
      </trkpt>
      <trkpt lat="43.9259" lon="6.50912">
        <ele>1292.8000488281</ele>
        <time>2022-08-21T12:26:18Z</time>
      </trkpt>
      <trkpt lat="43.9259" lon="6.50915">
        <ele>1292.8000488281</ele>
        <time>2022-08-21T12:26:25Z</time>
      </trkpt>
      <trkpt lat="43.9259" lon="6.50915">
        <ele>1292.8000488281</ele>
        <time>2022-08-21T12:26:27Z</time>
      </trkpt>
      <trkpt lat="43.9259" lon="6.50915">
        <ele>1292.8000488281</ele>
        <time>2022-08-21T12:26:28Z</time>
      </trkpt>
      <trkpt lat="43.92589" lon="6.50916">
        <ele>1292.8000488281</ele>
        <time>2022-08-21T12:26:36Z</time>
      </trkpt>
      <trkpt lat="43.92589" lon="6.50917">
        <ele>1292.8000488281</ele>
        <time>2022-08-21T12:26:47Z</time>
      </trkpt>
      <trkpt lat="43.92582" lon="6.50922">
        <ele>1292.8000488281</ele>
        <time>2022-08-21T12:26:56Z</time>
      </trkpt>
      <trkpt lat="43.92579" lon="6.50921">
        <ele>1292.8000488281</ele>
        <time>2022-08-21T12:26:59Z</time>
      </trkpt>
      <trkpt lat="43.92578" lon="6.50921">
        <ele>1292.8000488281</ele>
        <time>2022-08-21T12:27:01Z</time>
      </trkpt>
      <trkpt lat="43.92578" lon="6.5092">
        <ele>1292.8000488281</ele>
        <time>2022-08-21T12:27:02Z</time>
      </trkpt>
      <trkpt lat="43.92577" lon="6.50915">
        <ele>1292.5999755859</ele>
        <time>2022-08-21T12:27:09Z</time>
      </trkpt>
      <trkpt lat="43.92578" lon="6.50914">
        <ele>1292.4000244141</ele>
        <time>2022-08-21T12:27:10Z</time>
      </trkpt>
      <trkpt lat="43.92581" lon="6.50913">
        <ele>1292.4000244141</ele>
        <time>2022-08-21T12:27:13Z</time>
      </trkpt>
      <trkpt lat="43.92584" lon="6.50912">
        <ele>1292.1999511719</ele>
        <time>2022-08-21T12:27:16Z</time>
      </trkpt>
      <trkpt lat="43.92585" lon="6.50912">
        <ele>1292.1999511719</ele>
        <time>2022-08-21T12:27:18Z</time>
      </trkpt>
      <trkpt lat="43.92585" lon="6.50912">
        <ele>1292</ele>
        <time>2022-08-21T12:27:19Z</time>
      </trkpt>
      <trkpt lat="43.92585" lon="6.50911">
        <ele>1291.8000488281</ele>
        <time>2022-08-21T12:27:25Z</time>
      </trkpt>
      <trkpt lat="43.92586" lon="6.50912">
        <ele>1292.1999511719</ele>
        <time>2022-08-21T12:27:34Z</time>
      </trkpt>
      <trkpt lat="43.92581" lon="6.50917">
        <ele>1292.4000244141</ele>
        <time>2022-08-21T12:27:45Z</time>
      </trkpt>
      <trkpt lat="43.92578" lon="6.50915">
        <ele>1292.5999755859</ele>
        <time>2022-08-21T12:27:50Z</time>
      </trkpt>
      <trkpt lat="43.92578" lon="6.50915">
        <ele>1293</ele>
        <time>2022-08-21T12:27:53Z</time>
      </trkpt>
      <trkpt lat="43.92578" lon="6.50914">
        <ele>1292.5999755859</ele>
        <time>2022-08-21T12:28:00Z</time>
      </trkpt>
      <trkpt lat="43.92578" lon="6.50914">
        <ele>1292.5999755859</ele>
        <time>2022-08-21T12:28:01Z</time>
      </trkpt>
      <trkpt lat="43.92577" lon="6.50912">
        <ele>1292.1999511719</ele>
        <time>2022-08-21T12:28:09Z</time>
      </trkpt>
      <trkpt lat="43.92577" lon="6.50911">
        <ele>1292</ele>
        <time>2022-08-21T12:28:11Z</time>
      </trkpt>
      <trkpt lat="43.92576" lon="6.50911">
        <ele>1292</ele>
        <time>2022-08-21T12:28:17Z</time>
      </trkpt>
      <trkpt lat="43.92576" lon="6.50911">
        <ele>1292</ele>
        <time>2022-08-21T12:28:24Z</time>
      </trkpt>
      <trkpt lat="43.92576" lon="6.50911">
        <ele>1292.1999511719</ele>
        <time>2022-08-21T12:28:27Z</time>
      </trkpt>
      <trkpt lat="43.92577" lon="6.50911">
        <ele>1292</ele>
        <time>2022-08-21T12:28:35Z</time>
      </trkpt>
      <trkpt lat="43.92577" lon="6.50908">
        <ele>1292</ele>
        <time>2022-08-21T12:28:37Z</time>
      </trkpt>
      <trkpt lat="43.92577" lon="6.50898">
        <ele>1289.4000244141</ele>
        <time>2022-08-21T12:28:41Z</time>
      </trkpt>
      <trkpt lat="43.92573" lon="6.5089">
        <ele>1289.4000244141</ele>
        <time>2022-08-21T12:28:44Z</time>
      </trkpt>
      <trkpt lat="43.92569" lon="6.50877">
        <ele>1288</ele>
        <time>2022-08-21T12:28:48Z</time>
      </trkpt>
      <trkpt lat="43.92566" lon="6.5087">
        <ele>1286.8000488281</ele>
        <time>2022-08-21T12:28:50Z</time>
      </trkpt>
      <trkpt lat="43.92565" lon="6.50868">
        <ele>1286.1999511719</ele>
        <time>2022-08-21T12:28:51Z</time>
      </trkpt>
      <trkpt lat="43.92563" lon="6.50865">
        <ele>1285.5999755859</ele>
        <time>2022-08-21T12:28:52Z</time>
      </trkpt>
      <trkpt lat="43.9256" lon="6.50861">
        <ele>1284.4000244141</ele>
        <time>2022-08-21T12:28:55Z</time>
      </trkpt>
      <trkpt lat="43.92557" lon="6.50859">
        <ele>1283.8000488281</ele>
        <time>2022-08-21T12:28:57Z</time>
      </trkpt>
      <trkpt lat="43.9255" lon="6.50859">
        <ele>1283.1999511719</ele>
        <time>2022-08-21T12:29:00Z</time>
      </trkpt>
      <trkpt lat="43.92542" lon="6.50863">
        <ele>1282.1999511719</ele>
        <time>2022-08-21T12:29:04Z</time>
      </trkpt>
      <trkpt lat="43.92538" lon="6.50865">
        <ele>1282</ele>
        <time>2022-08-21T12:29:05Z</time>
      </trkpt>
      <trkpt lat="43.92526" lon="6.50877">
        <ele>1280.8000488281</ele>
        <time>2022-08-21T12:29:09Z</time>
      </trkpt>
      <trkpt lat="43.92522" lon="6.5088">
        <ele>1280.5999755859</ele>
        <time>2022-08-21T12:29:10Z</time>
      </trkpt>
      <trkpt lat="43.9251" lon="6.50886">
        <ele>1280</ele>
        <time>2022-08-21T12:29:13Z</time>
      </trkpt>
      <trkpt lat="43.92503" lon="6.50887">
        <ele>1279.8000488281</ele>
        <time>2022-08-21T12:29:15Z</time>
      </trkpt>
      <trkpt lat="43.92484" lon="6.50889">
        <ele>1279.4000244141</ele>
        <time>2022-08-21T12:29:19Z</time>
      </trkpt>
      <trkpt lat="43.92474" lon="6.50893">
        <ele>1279</ele>
        <time>2022-08-21T12:29:21Z</time>
      </trkpt>
      <trkpt lat="43.92469" lon="6.50895">
        <ele>1278.5999755859</ele>
        <time>2022-08-21T12:29:22Z</time>
      </trkpt>
      <trkpt lat="43.92458" lon="6.50901">
        <ele>1278</ele>
        <time>2022-08-21T12:29:24Z</time>
      </trkpt>
      <trkpt lat="43.92448" lon="6.50908">
        <ele>1277.4000244141</ele>
        <time>2022-08-21T12:29:26Z</time>
      </trkpt>
      <trkpt lat="43.92442" lon="6.50912">
        <ele>1277.4000244141</ele>
        <time>2022-08-21T12:29:27Z</time>
      </trkpt>
      <trkpt lat="43.92395" lon="6.50933">
        <ele>1276.4000244141</ele>
        <time>2022-08-21T12:29:35Z</time>
      </trkpt>
      <trkpt lat="43.92378" lon="6.5094">
        <ele>1276.1999511719</ele>
        <time>2022-08-21T12:29:38Z</time>
      </trkpt>
      <trkpt lat="43.92358" lon="6.50947">
        <ele>1276.1999511719</ele>
        <time>2022-08-21T12:29:42Z</time>
      </trkpt>
      <trkpt lat="43.92353" lon="6.50948">
        <ele>1276.4000244141</ele>
        <time>2022-08-21T12:29:43Z</time>
      </trkpt>
      <trkpt lat="43.92329" lon="6.50953">
        <ele>1276.5999755859</ele>
        <time>2022-08-21T12:29:49Z</time>
      </trkpt>
      <trkpt lat="43.92317" lon="6.50955">
        <ele>1277.1999511719</ele>
        <time>2022-08-21T12:29:53Z</time>
      </trkpt>
      <trkpt lat="43.92313" lon="6.50956">
        <ele>1277.1999511719</ele>
        <time>2022-08-21T12:29:55Z</time>
      </trkpt>
      <trkpt lat="43.92301" lon="6.50958">
        <ele>1277.5999755859</ele>
        <time>2022-08-21T12:30:00Z</time>
      </trkpt>
      <trkpt lat="43.92295" lon="6.5096">
        <ele>1277.5999755859</ele>
        <time>2022-08-21T12:30:02Z</time>
      </trkpt>
      <trkpt lat="43.92281" lon="6.50962">
        <ele>1278.1999511719</ele>
        <time>2022-08-21T12:30:07Z</time>
      </trkpt>
      <trkpt lat="43.92276" lon="6.50964">
        <ele>1278.5999755859</ele>
        <time>2022-08-21T12:30:09Z</time>
      </trkpt>
      <trkpt lat="43.92274" lon="6.50966">
        <ele>1278.8000488281</ele>
        <time>2022-08-21T12:30:10Z</time>
      </trkpt>
      <trkpt lat="43.92263" lon="6.50973">
        <ele>1279.5999755859</ele>
        <time>2022-08-21T12:30:15Z</time>
      </trkpt>
      <trkpt lat="43.92261" lon="6.50974">
        <ele>1279.5999755859</ele>
        <time>2022-08-21T12:30:16Z</time>
      </trkpt>
      <trkpt lat="43.92257" lon="6.50978">
        <ele>1279.8000488281</ele>
        <time>2022-08-21T12:30:18Z</time>
      </trkpt>
      <trkpt lat="43.92256" lon="6.50979">
        <ele>1280</ele>
        <time>2022-08-21T12:30:19Z</time>
      </trkpt>
      <trkpt lat="43.92251" lon="6.50984">
        <ele>1280.5999755859</ele>
        <time>2022-08-21T12:30:22Z</time>
      </trkpt>
      <trkpt lat="43.92242" lon="6.50992">
        <ele>1281.5999755859</ele>
        <time>2022-08-21T12:30:28Z</time>
      </trkpt>
      <trkpt lat="43.92239" lon="6.50994">
        <ele>1281.8000488281</ele>
        <time>2022-08-21T12:30:30Z</time>
      </trkpt>
      <trkpt lat="43.92234" lon="6.50997">
        <ele>1281.8000488281</ele>
        <time>2022-08-21T12:30:33Z</time>
      </trkpt>
      <trkpt lat="43.92229" lon="6.50998">
        <ele>1281.8000488281</ele>
        <time>2022-08-21T12:30:35Z</time>
      </trkpt>
      <trkpt lat="43.92216" lon="6.51">
        <ele>1281.4000244141</ele>
        <time>2022-08-21T12:30:40Z</time>
      </trkpt>
      <trkpt lat="43.92208" lon="6.51001">
        <ele>1281.1999511719</ele>
        <time>2022-08-21T12:30:42Z</time>
      </trkpt>
      <trkpt lat="43.92198" lon="6.51003">
        <ele>1280.5999755859</ele>
        <time>2022-08-21T12:30:45Z</time>
      </trkpt>
      <trkpt lat="43.92184" lon="6.51001">
        <ele>1280</ele>
        <time>2022-08-21T12:30:49Z</time>
      </trkpt>
      <trkpt lat="43.92174" lon="6.51001">
        <ele>1279.1999511719</ele>
        <time>2022-08-21T12:30:52Z</time>
      </trkpt>
      <trkpt lat="43.9216" lon="6.51003">
        <ele>1278</ele>
        <time>2022-08-21T12:30:56Z</time>
      </trkpt>
      <trkpt lat="43.92157" lon="6.51003">
        <ele>1278</ele>
        <time>2022-08-21T12:30:57Z</time>
      </trkpt>
      <trkpt lat="43.92146" lon="6.51002">
        <ele>1277.4000244141</ele>
        <time>2022-08-21T12:31:00Z</time>
      </trkpt>
      <trkpt lat="43.92139" lon="6.51001">
        <ele>1277</ele>
        <time>2022-08-21T12:31:02Z</time>
      </trkpt>
      <trkpt lat="43.92132" lon="6.50999">
        <ele>1276.5999755859</ele>
        <time>2022-08-21T12:31:04Z</time>
      </trkpt>
      <trkpt lat="43.92119" lon="6.5099">
        <ele>1276.5999755859</ele>
        <time>2022-08-21T12:31:08Z</time>
      </trkpt>
      <trkpt lat="43.92109" lon="6.50982">
        <ele>1276.8000488281</ele>
        <time>2022-08-21T12:31:12Z</time>
      </trkpt>
      <trkpt lat="43.92092" lon="6.50972">
        <ele>1276.4000244141</ele>
        <time>2022-08-21T12:31:18Z</time>
      </trkpt>
      <trkpt lat="43.92085" lon="6.50969">
        <ele>1276</ele>
        <time>2022-08-21T12:31:20Z</time>
      </trkpt>
      <trkpt lat="43.92081" lon="6.50967">
        <ele>1275.5999755859</ele>
        <time>2022-08-21T12:31:21Z</time>
      </trkpt>
      <trkpt lat="43.92071" lon="6.50961">
        <ele>1274.8000488281</ele>
        <time>2022-08-21T12:31:24Z</time>
      </trkpt>
      <trkpt lat="43.92068" lon="6.50959">
        <ele>1274.5999755859</ele>
        <time>2022-08-21T12:31:25Z</time>
      </trkpt>
      <trkpt lat="43.92056" lon="6.50952">
        <ele>1274</ele>
        <time>2022-08-21T12:31:28Z</time>
      </trkpt>
      <trkpt lat="43.92052" lon="6.5095">
        <ele>1273.5999755859</ele>
        <time>2022-08-21T12:31:29Z</time>
      </trkpt>
      <trkpt lat="43.92047" lon="6.50947">
        <ele>1273.1999511719</ele>
        <time>2022-08-21T12:31:30Z</time>
      </trkpt>
      <trkpt lat="43.92038" lon="6.50941">
        <ele>1272.5999755859</ele>
        <time>2022-08-21T12:31:32Z</time>
      </trkpt>
      <trkpt lat="43.92034" lon="6.50938">
        <ele>1272.1999511719</ele>
        <time>2022-08-21T12:31:33Z</time>
      </trkpt>
      <trkpt lat="43.92019" lon="6.5093">
        <ele>1271.4000244141</ele>
        <time>2022-08-21T12:31:36Z</time>
      </trkpt>
      <trkpt lat="43.92015" lon="6.50929">
        <ele>1271</ele>
        <time>2022-08-21T12:31:37Z</time>
      </trkpt>
      <trkpt lat="43.92011" lon="6.50928">
        <ele>1270.8000488281</ele>
        <time>2022-08-21T12:31:38Z</time>
      </trkpt>
      <trkpt lat="43.92004" lon="6.50928">
        <ele>1270.8000488281</ele>
        <time>2022-08-21T12:31:40Z</time>
      </trkpt>
      <trkpt lat="43.91998" lon="6.50929">
        <ele>1270.8000488281</ele>
        <time>2022-08-21T12:31:42Z</time>
      </trkpt>
      <trkpt lat="43.91981" lon="6.5093">
        <ele>1271.5999755859</ele>
        <time>2022-08-21T12:31:48Z</time>
      </trkpt>
      <trkpt lat="43.91976" lon="6.50928">
        <ele>1272.1999511719</ele>
        <time>2022-08-21T12:31:50Z</time>
      </trkpt>
      <trkpt lat="43.9197" lon="6.50922">
        <ele>1273.1999511719</ele>
        <time>2022-08-21T12:31:54Z</time>
      </trkpt>
      <trkpt lat="43.91968" lon="6.5092">
        <ele>1273.1999511719</ele>
        <time>2022-08-21T12:31:55Z</time>
      </trkpt>
      <trkpt lat="43.91966" lon="6.50918">
        <ele>1273.1999511719</ele>
        <time>2022-08-21T12:31:56Z</time>
      </trkpt>
      <trkpt lat="43.91965" lon="6.50915">
        <ele>1273.4000244141</ele>
        <time>2022-08-21T12:31:57Z</time>
      </trkpt>
      <trkpt lat="43.91961" lon="6.50911">
        <ele>1273.4000244141</ele>
        <time>2022-08-21T12:31:59Z</time>
      </trkpt>
      <trkpt lat="43.91959" lon="6.50909">
        <ele>1273.4000244141</ele>
        <time>2022-08-21T12:32:00Z</time>
      </trkpt>
      <trkpt lat="43.91957" lon="6.50906">
        <ele>1273.5999755859</ele>
        <time>2022-08-21T12:32:01Z</time>
      </trkpt>
      <trkpt lat="43.91953" lon="6.50902">
        <ele>1273.5999755859</ele>
        <time>2022-08-21T12:32:03Z</time>
      </trkpt>
      <trkpt lat="43.91938" lon="6.50891">
        <ele>1273.8000488281</ele>
        <time>2022-08-21T12:32:09Z</time>
      </trkpt>
      <trkpt lat="43.9192" lon="6.50887">
        <ele>1273.8000488281</ele>
        <time>2022-08-21T12:32:15Z</time>
      </trkpt>
      <trkpt lat="43.91891" lon="6.50882">
        <ele>1273</ele>
        <time>2022-08-21T12:32:23Z</time>
      </trkpt>
      <trkpt lat="43.91863" lon="6.50877">
        <ele>1272.1999511719</ele>
        <time>2022-08-21T12:32:30Z</time>
      </trkpt>
      <trkpt lat="43.91859" lon="6.50876">
        <ele>1272.1999511719</ele>
        <time>2022-08-21T12:32:31Z</time>
      </trkpt>
      <trkpt lat="43.91838" lon="6.50873">
        <ele>1272</ele>
        <time>2022-08-21T12:32:37Z</time>
      </trkpt>
      <trkpt lat="43.91834" lon="6.50873">
        <ele>1271.8000488281</ele>
        <time>2022-08-21T12:32:38Z</time>
      </trkpt>
      <trkpt lat="43.91819" lon="6.50874">
        <ele>1271.4000244141</ele>
        <time>2022-08-21T12:32:42Z</time>
      </trkpt>
      <trkpt lat="43.91801" lon="6.50873">
        <ele>1271</ele>
        <time>2022-08-21T12:32:47Z</time>
      </trkpt>
      <trkpt lat="43.91783" lon="6.50874">
        <ele>1271</ele>
        <time>2022-08-21T12:32:52Z</time>
      </trkpt>
      <trkpt lat="43.9178" lon="6.50875">
        <ele>1270.8000488281</ele>
        <time>2022-08-21T12:32:53Z</time>
      </trkpt>
      <trkpt lat="43.9177" lon="6.50876">
        <ele>1270.4000244141</ele>
        <time>2022-08-21T12:32:55Z</time>
      </trkpt>
      <trkpt lat="43.91765" lon="6.50876">
        <ele>1270</ele>
        <time>2022-08-21T12:32:56Z</time>
      </trkpt>
      <trkpt lat="43.91745" lon="6.50876">
        <ele>1269</ele>
        <time>2022-08-21T12:33:00Z</time>
      </trkpt>
      <trkpt lat="43.91736" lon="6.50877">
        <ele>1268.5999755859</ele>
        <time>2022-08-21T12:33:02Z</time>
      </trkpt>
      <trkpt lat="43.91717" lon="6.5088">
        <ele>1267.8000488281</ele>
        <time>2022-08-21T12:33:06Z</time>
      </trkpt>
      <trkpt lat="43.91712" lon="6.50881">
        <ele>1267.5999755859</ele>
        <time>2022-08-21T12:33:07Z</time>
      </trkpt>
      <trkpt lat="43.91702" lon="6.50883">
        <ele>1267</ele>
        <time>2022-08-21T12:33:09Z</time>
      </trkpt>
      <trkpt lat="43.91697" lon="6.50884">
        <ele>1266.8000488281</ele>
        <time>2022-08-21T12:33:10Z</time>
      </trkpt>
      <trkpt lat="43.91676" lon="6.50889">
        <ele>1266</ele>
        <time>2022-08-21T12:33:14Z</time>
      </trkpt>
      <trkpt lat="43.91672" lon="6.50889">
        <ele>1266</ele>
        <time>2022-08-21T12:33:15Z</time>
      </trkpt>
      <trkpt lat="43.91666" lon="6.50889">
        <ele>1265.8000488281</ele>
        <time>2022-08-21T12:33:17Z</time>
      </trkpt>
      <trkpt lat="43.91663" lon="6.50888">
        <ele>1265.5999755859</ele>
        <time>2022-08-21T12:33:18Z</time>
      </trkpt>
      <trkpt lat="43.91652" lon="6.50893">
        <ele>1264.8000488281</ele>
        <time>2022-08-21T12:33:22Z</time>
      </trkpt>
      <trkpt lat="43.91648" lon="6.50895">
        <ele>1264.4000244141</ele>
        <time>2022-08-21T12:33:23Z</time>
      </trkpt>
      <trkpt lat="43.91639" lon="6.50898">
        <ele>1263.5999755859</ele>
        <time>2022-08-21T12:33:25Z</time>
      </trkpt>
      <trkpt lat="43.91634" lon="6.50901">
        <ele>1263.1999511719</ele>
        <time>2022-08-21T12:33:26Z</time>
      </trkpt>
      <trkpt lat="43.91631" lon="6.50904">
        <ele>1263</ele>
        <time>2022-08-21T12:33:27Z</time>
      </trkpt>
      <trkpt lat="43.91619" lon="6.50921">
        <ele>1263.8000488281</ele>
        <time>2022-08-21T12:33:32Z</time>
      </trkpt>
      <trkpt lat="43.91617" lon="6.50922">
        <ele>1264</ele>
        <time>2022-08-21T12:33:33Z</time>
      </trkpt>
      <trkpt lat="43.91615" lon="6.50923">
        <ele>1264.1999511719</ele>
        <time>2022-08-21T12:33:34Z</time>
      </trkpt>
      <trkpt lat="43.91612" lon="6.50924">
        <ele>1264.4000244141</ele>
        <time>2022-08-21T12:33:35Z</time>
      </trkpt>
      <trkpt lat="43.91602" lon="6.50927">
        <ele>1264.5999755859</ele>
        <time>2022-08-21T12:33:39Z</time>
      </trkpt>
      <trkpt lat="43.91582" lon="6.50931">
        <ele>1264.8000488281</ele>
        <time>2022-08-21T12:33:46Z</time>
      </trkpt>
      <trkpt lat="43.91579" lon="6.50931">
        <ele>1264.8000488281</ele>
        <time>2022-08-21T12:33:47Z</time>
      </trkpt>
      <trkpt lat="43.91576" lon="6.50932">
        <ele>1264.5999755859</ele>
        <time>2022-08-21T12:33:48Z</time>
      </trkpt>
      <trkpt lat="43.9157" lon="6.50933">
        <ele>1264.1999511719</ele>
        <time>2022-08-21T12:33:50Z</time>
      </trkpt>
      <trkpt lat="43.91567" lon="6.50933">
        <ele>1264</ele>
        <time>2022-08-21T12:33:51Z</time>
      </trkpt>
      <trkpt lat="43.91558" lon="6.50936">
        <ele>1263.8000488281</ele>
        <time>2022-08-21T12:33:54Z</time>
      </trkpt>
      <trkpt lat="43.91555" lon="6.50936">
        <ele>1263.8000488281</ele>
        <time>2022-08-21T12:33:55Z</time>
      </trkpt>
      <trkpt lat="43.91531" lon="6.50931">
        <ele>1264.5999755859</ele>
        <time>2022-08-21T12:34:03Z</time>
      </trkpt>
      <trkpt lat="43.91509" lon="6.50923">
        <ele>1265.4000244141</ele>
        <time>2022-08-21T12:34:11Z</time>
      </trkpt>
      <trkpt lat="43.91507" lon="6.50923">
        <ele>1265.5999755859</ele>
        <time>2022-08-21T12:34:12Z</time>
      </trkpt>
      <trkpt lat="43.91492" lon="6.50921">
        <ele>1266.4000244141</ele>
        <time>2022-08-21T12:34:18Z</time>
      </trkpt>
      <trkpt lat="43.91487" lon="6.50922">
        <ele>1266.4000244141</ele>
        <time>2022-08-21T12:34:20Z</time>
      </trkpt>
      <trkpt lat="43.91484" lon="6.50922">
        <ele>1266.5999755859</ele>
        <time>2022-08-21T12:34:21Z</time>
      </trkpt>
      <trkpt lat="43.91472" lon="6.5092">
        <ele>1267.1999511719</ele>
        <time>2022-08-21T12:34:27Z</time>
      </trkpt>
      <trkpt lat="43.9146" lon="6.50924">
        <ele>1267</ele>
        <time>2022-08-21T12:34:32Z</time>
      </trkpt>
      <trkpt lat="43.91449" lon="6.50928">
        <ele>1266.5999755859</ele>
        <time>2022-08-21T12:34:36Z</time>
      </trkpt>
      <trkpt lat="43.91436" lon="6.50933">
        <ele>1266</ele>
        <time>2022-08-21T12:34:41Z</time>
      </trkpt>
      <trkpt lat="43.9143" lon="6.50933">
        <ele>1265.4000244141</ele>
        <time>2022-08-21T12:34:44Z</time>
      </trkpt>
      <trkpt lat="43.91428" lon="6.50934">
        <ele>1265.1999511719</ele>
        <time>2022-08-21T12:34:45Z</time>
      </trkpt>
      <trkpt lat="43.91424" lon="6.50937">
        <ele>1264.4000244141</ele>
        <time>2022-08-21T12:34:47Z</time>
      </trkpt>
      <trkpt lat="43.91422" lon="6.50938">
        <ele>1264</ele>
        <time>2022-08-21T12:34:48Z</time>
      </trkpt>
      <trkpt lat="43.91413" lon="6.50941">
        <ele>1262.8000488281</ele>
        <time>2022-08-21T12:34:52Z</time>
      </trkpt>
      <trkpt lat="43.91406" lon="6.50941">
        <ele>1262</ele>
        <time>2022-08-21T12:34:55Z</time>
      </trkpt>
      <trkpt lat="43.91403" lon="6.50941">
        <ele>1261.5999755859</ele>
        <time>2022-08-21T12:34:56Z</time>
      </trkpt>
      <trkpt lat="43.91395" lon="6.50947">
        <ele>1260.1999511719</ele>
        <time>2022-08-21T12:34:59Z</time>
      </trkpt>
      <trkpt lat="43.91392" lon="6.50947">
        <ele>1259.8000488281</ele>
        <time>2022-08-21T12:35:00Z</time>
      </trkpt>
      <trkpt lat="43.91387" lon="6.50948">
        <ele>1259</ele>
        <time>2022-08-21T12:35:02Z</time>
      </trkpt>
      <trkpt lat="43.91381" lon="6.50955">
        <ele>1257.8000488281</ele>
        <time>2022-08-21T12:35:05Z</time>
      </trkpt>
      <trkpt lat="43.91376" lon="6.50958">
        <ele>1256.8000488281</ele>
        <time>2022-08-21T12:35:08Z</time>
      </trkpt>
      <trkpt lat="43.91375" lon="6.50958">
        <ele>1256.5999755859</ele>
        <time>2022-08-21T12:35:09Z</time>
      </trkpt>
      <trkpt lat="43.91373" lon="6.50959">
        <ele>1256.4000244141</ele>
        <time>2022-08-21T12:35:10Z</time>
      </trkpt>
      <trkpt lat="43.91362" lon="6.5096">
        <ele>1255.5999755859</ele>
        <time>2022-08-21T12:35:15Z</time>
      </trkpt>
      <trkpt lat="43.91353" lon="6.5096">
        <ele>1254.1999511719</ele>
        <time>2022-08-21T12:35:18Z</time>
      </trkpt>
      <trkpt lat="43.9135" lon="6.5096">
        <ele>1253.8000488281</ele>
        <time>2022-08-21T12:35:19Z</time>
      </trkpt>
      <trkpt lat="43.91346" lon="6.50962">
        <ele>1253.1999511719</ele>
        <time>2022-08-21T12:35:21Z</time>
      </trkpt>
      <trkpt lat="43.91344" lon="6.5096">
        <ele>1252.8000488281</ele>
        <time>2022-08-21T12:35:23Z</time>
      </trkpt>
      <trkpt lat="43.91341" lon="6.5096">
        <ele>1252.5999755859</ele>
        <time>2022-08-21T12:35:25Z</time>
      </trkpt>
      <trkpt lat="43.9134" lon="6.50962">
        <ele>1252.1999511719</ele>
        <time>2022-08-21T12:35:27Z</time>
      </trkpt>
      <trkpt lat="43.91335" lon="6.50969">
        <ele>1251</ele>
        <time>2022-08-21T12:35:31Z</time>
      </trkpt>
      <trkpt lat="43.9133" lon="6.50971">
        <ele>1250.5999755859</ele>
        <time>2022-08-21T12:35:33Z</time>
      </trkpt>
      <trkpt lat="43.91324" lon="6.50973">
        <ele>1249.8000488281</ele>
        <time>2022-08-21T12:35:37Z</time>
      </trkpt>
      <trkpt lat="43.91321" lon="6.50974">
        <ele>1249.4000244141</ele>
        <time>2022-08-21T12:35:39Z</time>
      </trkpt>
      <trkpt lat="43.91313" lon="6.50977">
        <ele>1248.8000488281</ele>
        <time>2022-08-21T12:35:43Z</time>
      </trkpt>
      <trkpt lat="43.91311" lon="6.50977">
        <ele>1248.5999755859</ele>
        <time>2022-08-21T12:35:44Z</time>
      </trkpt>
      <trkpt lat="43.91309" lon="6.50978">
        <ele>1248.4000244141</ele>
        <time>2022-08-21T12:35:45Z</time>
      </trkpt>
      <trkpt lat="43.91304" lon="6.50983">
        <ele>1247.5999755859</ele>
        <time>2022-08-21T12:35:49Z</time>
      </trkpt>
      <trkpt lat="43.91301" lon="6.50986">
        <ele>1246.8000488281</ele>
        <time>2022-08-21T12:35:51Z</time>
      </trkpt>
      <trkpt lat="43.91299" lon="6.50987">
        <ele>1246.4000244141</ele>
        <time>2022-08-21T12:35:52Z</time>
      </trkpt>
      <trkpt lat="43.91297" lon="6.50988">
        <ele>1245.8000488281</ele>
        <time>2022-08-21T12:35:54Z</time>
      </trkpt>
      <trkpt lat="43.91296" lon="6.50988">
        <ele>1245.5999755859</ele>
        <time>2022-08-21T12:35:55Z</time>
      </trkpt>
      <trkpt lat="43.91295" lon="6.50989">
        <ele>1245.5999755859</ele>
        <time>2022-08-21T12:35:59Z</time>
      </trkpt>
      <trkpt lat="43.91293" lon="6.50988">
        <ele>1245.4000244141</ele>
        <time>2022-08-21T12:36:06Z</time>
      </trkpt>
      <trkpt lat="43.91293" lon="6.50989">
        <ele>1245.4000244141</ele>
        <time>2022-08-21T12:36:08Z</time>
      </trkpt>
      <trkpt lat="43.91293" lon="6.50989">
        <ele>1245</ele>
        <time>2022-08-21T12:36:17Z</time>
      </trkpt>
      <trkpt lat="43.91288" lon="6.5099">
        <ele>1244.1999511719</ele>
        <time>2022-08-21T12:36:23Z</time>
      </trkpt>
      <trkpt lat="43.91285" lon="6.50988">
        <ele>1243.5999755859</ele>
        <time>2022-08-21T12:36:27Z</time>
      </trkpt>
      <trkpt lat="43.91284" lon="6.50988">
        <ele>1243</ele>
        <time>2022-08-21T12:36:31Z</time>
      </trkpt>
      <trkpt lat="43.9128" lon="6.50989">
        <ele>1242.1999511719</ele>
        <time>2022-08-21T12:36:36Z</time>
      </trkpt>
      <trkpt lat="43.9128" lon="6.50989">
        <ele>1242</ele>
        <time>2022-08-21T12:36:37Z</time>
      </trkpt>
      <trkpt lat="43.9128" lon="6.50988">
        <ele>1241.4000244141</ele>
        <time>2022-08-21T12:36:44Z</time>
      </trkpt>
      <trkpt lat="43.91276" lon="6.50986">
        <ele>1240.8000488281</ele>
        <time>2022-08-21T12:36:47Z</time>
      </trkpt>
      <trkpt lat="43.91272" lon="6.50982">
        <ele>1240</ele>
        <time>2022-08-21T12:36:50Z</time>
      </trkpt>
      <trkpt lat="43.9127" lon="6.5098">
        <ele>1239.5999755859</ele>
        <time>2022-08-21T12:36:51Z</time>
      </trkpt>
      <trkpt lat="43.91268" lon="6.50978">
        <ele>1239.1999511719</ele>
        <time>2022-08-21T12:36:52Z</time>
      </trkpt>
      <trkpt lat="43.91261" lon="6.50969">
        <ele>1238.5999755859</ele>
        <time>2022-08-21T12:36:56Z</time>
      </trkpt>
      <trkpt lat="43.91259" lon="6.50967">
        <ele>1238.4000244141</ele>
        <time>2022-08-21T12:36:58Z</time>
      </trkpt>
      <trkpt lat="43.91259" lon="6.50967">
        <ele>1238.4000244141</ele>
        <time>2022-08-21T12:36:59Z</time>
      </trkpt>
      <trkpt lat="43.91259" lon="6.50968">
        <ele>1238.4000244141</ele>
        <time>2022-08-21T12:37:01Z</time>
      </trkpt>
      <trkpt lat="43.91259" lon="6.50968">
        <ele>1238.5999755859</ele>
        <time>2022-08-21T12:37:02Z</time>
      </trkpt>
      <trkpt lat="43.91258" lon="6.50966">
        <ele>1238.4000244141</ele>
        <time>2022-08-21T12:37:05Z</time>
      </trkpt>
      <trkpt lat="43.91255" lon="6.50957">
        <ele>1237.5999755859</ele>
        <time>2022-08-21T12:37:16Z</time>
      </trkpt>
      <trkpt lat="43.91255" lon="6.50956">
        <ele>1237.4000244141</ele>
        <time>2022-08-21T12:37:18Z</time>
      </trkpt>
      <trkpt lat="43.91252" lon="6.50953">
        <ele>1236.4000244141</ele>
        <time>2022-08-21T12:37:26Z</time>
      </trkpt>
      <trkpt lat="43.91249" lon="6.50951">
        <ele>1235.8000488281</ele>
        <time>2022-08-21T12:37:33Z</time>
      </trkpt>
      <trkpt lat="43.91247" lon="6.50949">
        <ele>1235.4000244141</ele>
        <time>2022-08-21T12:37:35Z</time>
      </trkpt>
      <trkpt lat="43.91244" lon="6.50944">
        <ele>1234.1999511719</ele>
        <time>2022-08-21T12:37:39Z</time>
      </trkpt>
      <trkpt lat="43.91239" lon="6.50942">
        <ele>1233.1999511719</ele>
        <time>2022-08-21T12:37:42Z</time>
      </trkpt>
      <trkpt lat="43.91234" lon="6.5094">
        <ele>1232</ele>
        <time>2022-08-21T12:37:45Z</time>
      </trkpt>
      <trkpt lat="43.91231" lon="6.50938">
        <ele>1231.1999511719</ele>
        <time>2022-08-21T12:37:47Z</time>
      </trkpt>
      <trkpt lat="43.9123" lon="6.50938">
        <ele>1230.8000488281</ele>
        <time>2022-08-21T12:37:48Z</time>
      </trkpt>
      <trkpt lat="43.91226" lon="6.50937">
        <ele>1230</ele>
        <time>2022-08-21T12:37:50Z</time>
      </trkpt>
      <trkpt lat="43.91225" lon="6.50937">
        <ele>1229.5999755859</ele>
        <time>2022-08-21T12:37:51Z</time>
      </trkpt>
      <trkpt lat="43.9122" lon="6.50934">
        <ele>1228.4000244141</ele>
        <time>2022-08-21T12:37:54Z</time>
      </trkpt>
      <trkpt lat="43.91216" lon="6.50931">
        <ele>1227.8000488281</ele>
        <time>2022-08-21T12:37:56Z</time>
      </trkpt>
      <trkpt lat="43.91213" lon="6.50928">
        <ele>1227</ele>
        <time>2022-08-21T12:37:58Z</time>
      </trkpt>
      <trkpt lat="43.91207" lon="6.50921">
        <ele>1225.8000488281</ele>
        <time>2022-08-21T12:38:02Z</time>
      </trkpt>
      <trkpt lat="43.91205" lon="6.5092">
        <ele>1225.4000244141</ele>
        <time>2022-08-21T12:38:04Z</time>
      </trkpt>
      <trkpt lat="43.91203" lon="6.50918">
        <ele>1224.8000488281</ele>
        <time>2022-08-21T12:38:06Z</time>
      </trkpt>
      <trkpt lat="43.91199" lon="6.50915">
        <ele>1223.5999755859</ele>
        <time>2022-08-21T12:38:09Z</time>
      </trkpt>
      <trkpt lat="43.91197" lon="6.50914">
        <ele>1223.1999511719</ele>
        <time>2022-08-21T12:38:10Z</time>
      </trkpt>
      <trkpt lat="43.91195" lon="6.50912">
        <ele>1222.4000244141</ele>
        <time>2022-08-21T12:38:12Z</time>
      </trkpt>
      <trkpt lat="43.91191" lon="6.50908">
        <ele>1221.4000244141</ele>
        <time>2022-08-21T12:38:15Z</time>
      </trkpt>
      <trkpt lat="43.9119" lon="6.50907">
        <ele>1220.4000244141</ele>
        <time>2022-08-21T12:38:18Z</time>
      </trkpt>
      <trkpt lat="43.9119" lon="6.50906">
        <ele>1220.1999511719</ele>
        <time>2022-08-21T12:38:19Z</time>
      </trkpt>
      <trkpt lat="43.91183" lon="6.50905">
        <ele>1219</ele>
        <time>2022-08-21T12:38:26Z</time>
      </trkpt>
      <trkpt lat="43.91179" lon="6.50902">
        <ele>1217.8000488281</ele>
        <time>2022-08-21T12:38:29Z</time>
      </trkpt>
      <trkpt lat="43.91179" lon="6.50902">
        <ele>1217.4000244141</ele>
        <time>2022-08-21T12:38:30Z</time>
      </trkpt>
      <trkpt lat="43.91179" lon="6.50901">
        <ele>1216.8000488281</ele>
        <time>2022-08-21T12:38:32Z</time>
      </trkpt>
      <trkpt lat="43.91179" lon="6.50901">
        <ele>1216.5999755859</ele>
        <time>2022-08-21T12:38:33Z</time>
      </trkpt>
      <trkpt lat="43.91179" lon="6.50901">
        <ele>1216.4000244141</ele>
        <time>2022-08-21T12:38:35Z</time>
      </trkpt>
      <trkpt lat="43.91177" lon="6.50901">
        <ele>1216.1999511719</ele>
        <time>2022-08-21T12:38:38Z</time>
      </trkpt>
      <trkpt lat="43.91175" lon="6.509">
        <ele>1215.5999755859</ele>
        <time>2022-08-21T12:38:41Z</time>
      </trkpt>
      <trkpt lat="43.91174" lon="6.50899">
        <ele>1215</ele>
        <time>2022-08-21T12:38:44Z</time>
      </trkpt>
      <trkpt lat="43.91172" lon="6.50897">
        <ele>1214.4000244141</ele>
        <time>2022-08-21T12:38:47Z</time>
      </trkpt>
      <trkpt lat="43.91169" lon="6.50894">
        <ele>1213.4000244141</ele>
        <time>2022-08-21T12:38:53Z</time>
      </trkpt>
      <trkpt lat="43.91167" lon="6.50892">
        <ele>1212.4000244141</ele>
        <time>2022-08-21T12:38:57Z</time>
      </trkpt>
      <trkpt lat="43.91167" lon="6.50892">
        <ele>1212.1999511719</ele>
        <time>2022-08-21T12:38:58Z</time>
      </trkpt>
      <trkpt lat="43.91164" lon="6.50887">
        <ele>1211.4000244141</ele>
        <time>2022-08-21T12:39:08Z</time>
      </trkpt>
      <trkpt lat="43.91164" lon="6.50887">
        <ele>1211.1999511719</ele>
        <time>2022-08-21T12:39:09Z</time>
      </trkpt>
      <trkpt lat="43.91162" lon="6.50884">
        <ele>1210.1999511719</ele>
        <time>2022-08-21T12:39:14Z</time>
      </trkpt>
      <trkpt lat="43.91162" lon="6.50884">
        <ele>1210</ele>
        <time>2022-08-21T12:39:17Z</time>
      </trkpt>
      <trkpt lat="43.91162" lon="6.50884">
        <ele>1210</ele>
        <time>2022-08-21T12:39:19Z</time>
      </trkpt>
      <trkpt lat="43.91162" lon="6.50885">
        <ele>1209.5999755859</ele>
        <time>2022-08-21T12:39:25Z</time>
      </trkpt>
      <trkpt lat="43.9116" lon="6.50888">
        <ele>1209</ele>
        <time>2022-08-21T12:39:31Z</time>
      </trkpt>
      <trkpt lat="43.91157" lon="6.50887">
        <ele>1208.5999755859</ele>
        <time>2022-08-21T12:39:34Z</time>
      </trkpt>
      <trkpt lat="43.91155" lon="6.50885">
        <ele>1208.5999755859</ele>
        <time>2022-08-21T12:39:36Z</time>
      </trkpt>
      <trkpt lat="43.9115" lon="6.5088">
        <ele>1210</ele>
        <time>2022-08-21T12:39:46Z</time>
      </trkpt>
      <trkpt lat="43.91147" lon="6.50882">
        <ele>1210.5999755859</ele>
        <time>2022-08-21T12:39:53Z</time>
      </trkpt>
      <trkpt lat="43.91149" lon="6.50884">
        <ele>1211</ele>
        <time>2022-08-21T12:39:58Z</time>
      </trkpt>
      <trkpt lat="43.91152" lon="6.50887">
        <ele>1211.5999755859</ele>
        <time>2022-08-21T12:40:05Z</time>
      </trkpt>
      <trkpt lat="43.91153" lon="6.5089">
        <ele>1211.8000488281</ele>
        <time>2022-08-21T12:40:08Z</time>
      </trkpt>
      <trkpt lat="43.91151" lon="6.50893">
        <ele>1211.8000488281</ele>
        <time>2022-08-21T12:40:14Z</time>
      </trkpt>
      <trkpt lat="43.91151" lon="6.50893">
        <ele>1211.8000488281</ele>
        <time>2022-08-21T12:40:22Z</time>
      </trkpt>
      <trkpt lat="43.91149" lon="6.50911">
        <ele>1211.4000244141</ele>
        <time>2022-08-21T12:40:35Z</time>
      </trkpt>
      <trkpt lat="43.91141" lon="6.50927">
        <ele>1211.1999511719</ele>
        <time>2022-08-21T12:40:41Z</time>
      </trkpt>
      <trkpt lat="43.91132" lon="6.50942">
        <ele>1212.1999511719</ele>
        <time>2022-08-21T12:40:48Z</time>
      </trkpt>
      <trkpt lat="43.9113" lon="6.50947">
        <ele>1213</ele>
        <time>2022-08-21T12:40:51Z</time>
      </trkpt>
      <trkpt lat="43.91128" lon="6.50952">
        <ele>1213.1999511719</ele>
        <time>2022-08-21T12:40:53Z</time>
      </trkpt>
      <trkpt lat="43.91127" lon="6.50953">
        <ele>1213.4000244141</ele>
        <time>2022-08-21T12:40:54Z</time>
      </trkpt>
      <trkpt lat="43.91124" lon="6.50959">
        <ele>1214.1999511719</ele>
        <time>2022-08-21T12:40:59Z</time>
      </trkpt>
      <trkpt lat="43.91123" lon="6.50962">
        <ele>1214.1999511719</ele>
        <time>2022-08-21T12:41:00Z</time>
      </trkpt>
      <trkpt lat="43.91119" lon="6.50972">
        <ele>1213.5999755859</ele>
        <time>2022-08-21T12:41:03Z</time>
      </trkpt>
      <trkpt lat="43.91117" lon="6.50978">
        <ele>1213.4000244141</ele>
        <time>2022-08-21T12:41:06Z</time>
      </trkpt>
      <trkpt lat="43.91117" lon="6.50979">
        <ele>1213.5999755859</ele>
        <time>2022-08-21T12:41:08Z</time>
      </trkpt>
      <trkpt lat="43.91117" lon="6.5098">
        <ele>1213.8000488281</ele>
        <time>2022-08-21T12:41:10Z</time>
      </trkpt>
      <trkpt lat="43.91115" lon="6.50985">
        <ele>1214.4000244141</ele>
        <time>2022-08-21T12:41:15Z</time>
      </trkpt>
      <trkpt lat="43.91113" lon="6.50986">
        <ele>1214.8000488281</ele>
        <time>2022-08-21T12:41:17Z</time>
      </trkpt>
      <trkpt lat="43.91111" lon="6.50989">
        <ele>1215.4000244141</ele>
        <time>2022-08-21T12:41:21Z</time>
      </trkpt>
      <trkpt lat="43.91109" lon="6.50995">
        <ele>1216</ele>
        <time>2022-08-21T12:41:28Z</time>
      </trkpt>
      <trkpt lat="43.91104" lon="6.51014">
        <ele>1215.8000488281</ele>
        <time>2022-08-21T12:41:37Z</time>
      </trkpt>
      <trkpt lat="43.91096" lon="6.51041">
        <ele>1214.5999755859</ele>
        <time>2022-08-21T12:41:45Z</time>
      </trkpt>
      <trkpt lat="43.91094" lon="6.51046">
        <ele>1214.4000244141</ele>
        <time>2022-08-21T12:41:46Z</time>
      </trkpt>
      <trkpt lat="43.91089" lon="6.5106">
        <ele>1213.5999755859</ele>
        <time>2022-08-21T12:41:49Z</time>
      </trkpt>
      <trkpt lat="43.91088" lon="6.51065">
        <ele>1213.1999511719</ele>
        <time>2022-08-21T12:41:50Z</time>
      </trkpt>
      <trkpt lat="43.91087" lon="6.51069">
        <ele>1212.8000488281</ele>
        <time>2022-08-21T12:41:51Z</time>
      </trkpt>
      <trkpt lat="43.91084" lon="6.51082">
        <ele>1211.8000488281</ele>
        <time>2022-08-21T12:41:54Z</time>
      </trkpt>
      <trkpt lat="43.91079" lon="6.51093">
        <ele>1210.8000488281</ele>
        <time>2022-08-21T12:41:56Z</time>
      </trkpt>
      <trkpt lat="43.91077" lon="6.51099">
        <ele>1210.1999511719</ele>
        <time>2022-08-21T12:41:57Z</time>
      </trkpt>
      <trkpt lat="43.91073" lon="6.51105">
        <ele>1209.5999755859</ele>
        <time>2022-08-21T12:41:58Z</time>
      </trkpt>
      <trkpt lat="43.91061" lon="6.51127">
        <ele>1208.5999755859</ele>
        <time>2022-08-21T12:42:02Z</time>
      </trkpt>
      <trkpt lat="43.91059" lon="6.51131">
        <ele>1208.5999755859</ele>
        <time>2022-08-21T12:42:03Z</time>
      </trkpt>
      <trkpt lat="43.91058" lon="6.51136">
        <ele>1208.8000488281</ele>
        <time>2022-08-21T12:42:04Z</time>
      </trkpt>
      <trkpt lat="43.91057" lon="6.5114">
        <ele>1209</ele>
        <time>2022-08-21T12:42:05Z</time>
      </trkpt>
      <trkpt lat="43.91055" lon="6.51145">
        <ele>1209.1999511719</ele>
        <time>2022-08-21T12:42:06Z</time>
      </trkpt>
      <trkpt lat="43.91053" lon="6.51148">
        <ele>1209.4000244141</ele>
        <time>2022-08-21T12:42:07Z</time>
      </trkpt>
      <trkpt lat="43.91049" lon="6.51157">
        <ele>1209.5999755859</ele>
        <time>2022-08-21T12:42:11Z</time>
      </trkpt>
      <trkpt lat="43.91049" lon="6.5116">
        <ele>1209.5999755859</ele>
        <time>2022-08-21T12:42:12Z</time>
      </trkpt>
      <trkpt lat="43.91049" lon="6.51176">
        <ele>1209.5999755859</ele>
        <time>2022-08-21T12:42:16Z</time>
      </trkpt>
      <trkpt lat="43.91049" lon="6.51184">
        <ele>1209.5999755859</ele>
        <time>2022-08-21T12:42:18Z</time>
      </trkpt>
      <trkpt lat="43.91049" lon="6.51203">
        <ele>1209</ele>
        <time>2022-08-21T12:42:24Z</time>
      </trkpt>
      <trkpt lat="43.91047" lon="6.5121">
        <ele>1208.5999755859</ele>
        <time>2022-08-21T12:42:26Z</time>
      </trkpt>
      <trkpt lat="43.91043" lon="6.51223">
        <ele>1208.1999511719</ele>
        <time>2022-08-21T12:42:30Z</time>
      </trkpt>
      <trkpt lat="43.91033" lon="6.51245">
        <ele>1207.8000488281</ele>
        <time>2022-08-21T12:42:36Z</time>
      </trkpt>
      <trkpt lat="43.91027" lon="6.51261">
        <ele>1208.1999511719</ele>
        <time>2022-08-21T12:42:42Z</time>
      </trkpt>
      <trkpt lat="43.91016" lon="6.51283">
        <ele>1207.4000244141</ele>
        <time>2022-08-21T12:42:48Z</time>
      </trkpt>
      <trkpt lat="43.91011" lon="6.5129">
        <ele>1207.4000244141</ele>
        <time>2022-08-21T12:42:50Z</time>
      </trkpt>
      <trkpt lat="43.90991" lon="6.51311">
        <ele>1207.5999755859</ele>
        <time>2022-08-21T12:42:57Z</time>
      </trkpt>
      <trkpt lat="43.90978" lon="6.51319">
        <ele>1208.5999755859</ele>
        <time>2022-08-21T12:43:03Z</time>
      </trkpt>
      <trkpt lat="43.90979" lon="6.51319">
        <ele>1208.8000488281</ele>
        <time>2022-08-21T12:43:04Z</time>
      </trkpt>
      <trkpt lat="43.90979" lon="6.5132">
        <ele>1209.1999511719</ele>
        <time>2022-08-21T12:43:09Z</time>
      </trkpt>
      <trkpt lat="43.90979" lon="6.5132">
        <ele>1210.4000244141</ele>
        <time>2022-08-21T12:43:12Z</time>
      </trkpt>
      <trkpt lat="43.90979" lon="6.51321">
        <ele>1210.4000244141</ele>
        <time>2022-08-21T12:43:13Z</time>
      </trkpt>
      <trkpt lat="43.90979" lon="6.5132">
        <ele>1210.4000244141</ele>
        <time>2022-08-21T12:43:26Z</time>
      </trkpt>
      <trkpt lat="43.90979" lon="6.5132">
        <ele>1210.4000244141</ele>
        <time>2022-08-21T12:43:27Z</time>
      </trkpt>
      <trkpt lat="43.90978" lon="6.5132">
        <ele>1210.4000244141</ele>
        <time>2022-08-21T12:43:34Z</time>
      </trkpt>
      <trkpt lat="43.90978" lon="6.5132">
        <ele>1210.4000244141</ele>
        <time>2022-08-21T12:43:38Z</time>
      </trkpt>
      <trkpt lat="43.90978" lon="6.5132">
        <ele>1210.4000244141</ele>
        <time>2022-08-21T12:43:39Z</time>
      </trkpt>
      <trkpt lat="43.90978" lon="6.5132">
        <ele>1210.4000244141</ele>
        <time>2022-08-21T12:43:43Z</time>
      </trkpt>
      <trkpt lat="43.90978" lon="6.5132">
        <ele>1210.4000244141</ele>
        <time>2022-08-21T12:43:44Z</time>
      </trkpt>
      <trkpt lat="43.90976" lon="6.51321">
        <ele>1210.4000244141</ele>
        <time>2022-08-21T12:43:54Z</time>
      </trkpt>
      <trkpt lat="43.90975" lon="6.51322">
        <ele>1210.4000244141</ele>
        <time>2022-08-21T12:43:55Z</time>
      </trkpt>
      <trkpt lat="43.9097" lon="6.51324">
        <ele>1210.4000244141</ele>
        <time>2022-08-21T12:43:57Z</time>
      </trkpt>
      <trkpt lat="43.9096" lon="6.51329">
        <ele>1210.4000244141</ele>
        <time>2022-08-21T12:44:02Z</time>
      </trkpt>
      <trkpt lat="43.90952" lon="6.51337">
        <ele>1210.4000244141</ele>
        <time>2022-08-21T12:44:06Z</time>
      </trkpt>
      <trkpt lat="43.90951" lon="6.51339">
        <ele>1210.4000244141</ele>
        <time>2022-08-21T12:44:07Z</time>
      </trkpt>
      <trkpt lat="43.90951" lon="6.51341">
        <ele>1210.5999755859</ele>
        <time>2022-08-21T12:44:08Z</time>
      </trkpt>
      <trkpt lat="43.90949" lon="6.51347">
        <ele>1210.5999755859</ele>
        <time>2022-08-21T12:44:10Z</time>
      </trkpt>
      <trkpt lat="43.90947" lon="6.51357">
        <ele>1210.8000488281</ele>
        <time>2022-08-21T12:44:14Z</time>
      </trkpt>
      <trkpt lat="43.90943" lon="6.51368">
        <ele>1211.5999755859</ele>
        <time>2022-08-21T12:44:20Z</time>
      </trkpt>
      <trkpt lat="43.90942" lon="6.5137">
        <ele>1211.5999755859</ele>
        <time>2022-08-21T12:44:21Z</time>
      </trkpt>
      <trkpt lat="43.90938" lon="6.51376">
        <ele>1212.5999755859</ele>
        <time>2022-08-21T12:44:26Z</time>
      </trkpt>
      <trkpt lat="43.90935" lon="6.51382">
        <ele>1213.1999511719</ele>
        <time>2022-08-21T12:44:30Z</time>
      </trkpt>
      <trkpt lat="43.90932" lon="6.5139">
        <ele>1213.1999511719</ele>
        <time>2022-08-21T12:44:33Z</time>
      </trkpt>
      <trkpt lat="43.90928" lon="6.51399">
        <ele>1213.1999511719</ele>
        <time>2022-08-21T12:44:36Z</time>
      </trkpt>
      <trkpt lat="43.90924" lon="6.51406">
        <ele>1213</ele>
        <time>2022-08-21T12:44:39Z</time>
      </trkpt>
      <trkpt lat="43.90911" lon="6.51431">
        <ele>1212.8000488281</ele>
        <time>2022-08-21T12:44:47Z</time>
      </trkpt>
      <trkpt lat="43.90899" lon="6.51451">
        <ele>1213</ele>
        <time>2022-08-21T12:44:54Z</time>
      </trkpt>
      <trkpt lat="43.90889" lon="6.51464">
        <ele>1213.4000244141</ele>
        <time>2022-08-21T12:44:59Z</time>
      </trkpt>
      <trkpt lat="43.90886" lon="6.51469">
        <ele>1213.5999755859</ele>
        <time>2022-08-21T12:45:01Z</time>
      </trkpt>
      <trkpt lat="43.90883" lon="6.51471">
        <ele>1214</ele>
        <time>2022-08-21T12:45:03Z</time>
      </trkpt>
      <trkpt lat="43.90879" lon="6.51474">
        <ele>1214.4000244141</ele>
        <time>2022-08-21T12:45:05Z</time>
      </trkpt>
      <trkpt lat="43.90877" lon="6.51475">
        <ele>1214.4000244141</ele>
        <time>2022-08-21T12:45:06Z</time>
      </trkpt>
      <trkpt lat="43.90874" lon="6.51478">
        <ele>1214.8000488281</ele>
        <time>2022-08-21T12:45:08Z</time>
      </trkpt>
      <trkpt lat="43.90863" lon="6.51486">
        <ele>1215.1999511719</ele>
        <time>2022-08-21T12:45:14Z</time>
      </trkpt>
      <trkpt lat="43.90858" lon="6.51491">
        <ele>1215</ele>
        <time>2022-08-21T12:45:17Z</time>
      </trkpt>
      <trkpt lat="43.9085" lon="6.51499">
        <ele>1214.4000244141</ele>
        <time>2022-08-21T12:45:21Z</time>
      </trkpt>
      <trkpt lat="43.90841" lon="6.51508">
        <ele>1213.4000244141</ele>
        <time>2022-08-21T12:45:25Z</time>
      </trkpt>
      <trkpt lat="43.90834" lon="6.51516">
        <ele>1212.8000488281</ele>
        <time>2022-08-21T12:45:28Z</time>
      </trkpt>
      <trkpt lat="43.90826" lon="6.51527">
        <ele>1213</ele>
        <time>2022-08-21T12:45:32Z</time>
      </trkpt>
      <trkpt lat="43.90817" lon="6.51537">
        <ele>1213</ele>
        <time>2022-08-21T12:45:36Z</time>
      </trkpt>
      <trkpt lat="43.90801" lon="6.51549">
        <ele>1213.4000244141</ele>
        <time>2022-08-21T12:45:43Z</time>
      </trkpt>
      <trkpt lat="43.9079" lon="6.51555">
        <ele>1213.5999755859</ele>
        <time>2022-08-21T12:45:49Z</time>
      </trkpt>
      <trkpt lat="43.90777" lon="6.51566">
        <ele>1213.8000488281</ele>
        <time>2022-08-21T12:45:57Z</time>
      </trkpt>
      <trkpt lat="43.90759" lon="6.51579">
        <ele>1213.4000244141</ele>
        <time>2022-08-21T12:46:06Z</time>
      </trkpt>
      <trkpt lat="43.90745" lon="6.51583">
        <ele>1212.5999755859</ele>
        <time>2022-08-21T12:46:12Z</time>
      </trkpt>
      <trkpt lat="43.90744" lon="6.51582">
        <ele>1212.4000244141</ele>
        <time>2022-08-21T12:46:13Z</time>
      </trkpt>
      <trkpt lat="43.90744" lon="6.51582">
        <ele>1212.4000244141</ele>
        <time>2022-08-21T12:46:14Z</time>
      </trkpt>
      <trkpt lat="43.90743" lon="6.51581">
        <ele>1212.4000244141</ele>
        <time>2022-08-21T12:46:16Z</time>
      </trkpt>
      <trkpt lat="43.90743" lon="6.51581">
        <ele>1212.4000244141</ele>
        <time>2022-08-21T12:46:18Z</time>
      </trkpt>
      <trkpt lat="43.90741" lon="6.51584">
        <ele>1212.4000244141</ele>
        <time>2022-08-21T12:46:23Z</time>
      </trkpt>
      <trkpt lat="43.90734" lon="6.51588">
        <ele>1211.5999755859</ele>
        <time>2022-08-21T12:46:27Z</time>
      </trkpt>
      <trkpt lat="43.90731" lon="6.51589">
        <ele>1211.1999511719</ele>
        <time>2022-08-21T12:46:28Z</time>
      </trkpt>
      <trkpt lat="43.90723" lon="6.51591">
        <ele>1210.1999511719</ele>
        <time>2022-08-21T12:46:31Z</time>
      </trkpt>
      <trkpt lat="43.90708" lon="6.51595">
        <ele>1209.4000244141</ele>
        <time>2022-08-21T12:46:36Z</time>
      </trkpt>
      <trkpt lat="43.90703" lon="6.51597">
        <ele>1209.1999511719</ele>
        <time>2022-08-21T12:46:38Z</time>
      </trkpt>
      <trkpt lat="43.90694" lon="6.51603">
        <ele>1208.5999755859</ele>
        <time>2022-08-21T12:46:41Z</time>
      </trkpt>
      <trkpt lat="43.90676" lon="6.51606">
        <ele>1208.4000244141</ele>
        <time>2022-08-21T12:46:47Z</time>
      </trkpt>
      <trkpt lat="43.90663" lon="6.51609">
        <ele>1209.1999511719</ele>
        <time>2022-08-21T12:46:52Z</time>
      </trkpt>
      <trkpt lat="43.90653" lon="6.5161">
        <ele>1209.4000244141</ele>
        <time>2022-08-21T12:46:56Z</time>
      </trkpt>
      <trkpt lat="43.90649" lon="6.5161">
        <ele>1209.4000244141</ele>
        <time>2022-08-21T12:46:58Z</time>
      </trkpt>
      <trkpt lat="43.90646" lon="6.51609">
        <ele>1209.1999511719</ele>
        <time>2022-08-21T12:47:00Z</time>
      </trkpt>
      <trkpt lat="43.90642" lon="6.51612">
        <ele>1209</ele>
        <time>2022-08-21T12:47:03Z</time>
      </trkpt>
      <trkpt lat="43.90641" lon="6.51618">
        <ele>1208.1999511719</ele>
        <time>2022-08-21T12:47:05Z</time>
      </trkpt>
      <trkpt lat="43.90641" lon="6.51621">
        <ele>1208</ele>
        <time>2022-08-21T12:47:06Z</time>
      </trkpt>
      <trkpt lat="43.90641" lon="6.51625">
        <ele>1208</ele>
        <time>2022-08-21T12:47:08Z</time>
      </trkpt>
      <trkpt lat="43.9064" lon="6.51631">
        <ele>1208.1999511719</ele>
        <time>2022-08-21T12:47:14Z</time>
      </trkpt>
      <trkpt lat="43.90641" lon="6.51634">
        <ele>1208.4000244141</ele>
        <time>2022-08-21T12:47:16Z</time>
      </trkpt>
      <trkpt lat="43.90643" lon="6.5165">
        <ele>1207.4000244141</ele>
        <time>2022-08-21T12:47:24Z</time>
      </trkpt>
      <trkpt lat="43.90643" lon="6.51652">
        <ele>1207.4000244141</ele>
        <time>2022-08-21T12:47:25Z</time>
      </trkpt>
      <trkpt lat="43.90643" lon="6.51658">
        <ele>1207.1999511719</ele>
        <time>2022-08-21T12:47:27Z</time>
      </trkpt>
      <trkpt lat="43.90642" lon="6.51663">
        <ele>1207.4000244141</ele>
        <time>2022-08-21T12:47:29Z</time>
      </trkpt>
      <trkpt lat="43.90642" lon="6.51669">
        <ele>1207.5999755859</ele>
        <time>2022-08-21T12:47:32Z</time>
      </trkpt>
      <trkpt lat="43.90642" lon="6.51691">
        <ele>1207</ele>
        <time>2022-08-21T12:47:39Z</time>
      </trkpt>
      <trkpt lat="43.90642" lon="6.51698">
        <ele>1206.1999511719</ele>
        <time>2022-08-21T12:47:42Z</time>
      </trkpt>
      <trkpt lat="43.90642" lon="6.51701">
        <ele>1206</ele>
        <time>2022-08-21T12:47:43Z</time>
      </trkpt>
      <trkpt lat="43.90642" lon="6.51704">
        <ele>1205.8000488281</ele>
        <time>2022-08-21T12:47:44Z</time>
      </trkpt>
      <trkpt lat="43.90642" lon="6.51708">
        <ele>1205.4000244141</ele>
        <time>2022-08-21T12:47:46Z</time>
      </trkpt>
      <trkpt lat="43.90642" lon="6.51711">
        <ele>1205.1999511719</ele>
        <time>2022-08-21T12:47:47Z</time>
      </trkpt>
      <trkpt lat="43.9064" lon="6.51716">
        <ele>1204.8000488281</ele>
        <time>2022-08-21T12:47:49Z</time>
      </trkpt>
      <trkpt lat="43.90637" lon="6.51721">
        <ele>1204.1999511719</ele>
        <time>2022-08-21T12:47:52Z</time>
      </trkpt>
      <trkpt lat="43.90636" lon="6.51722">
        <ele>1204.1999511719</ele>
        <time>2022-08-21T12:47:53Z</time>
      </trkpt>
      <trkpt lat="43.90631" lon="6.51729">
        <ele>1204.4000244141</ele>
        <time>2022-08-21T12:47:58Z</time>
      </trkpt>
      <trkpt lat="43.9063" lon="6.51731">
        <ele>1204.4000244141</ele>
        <time>2022-08-21T12:47:59Z</time>
      </trkpt>
      <trkpt lat="43.90628" lon="6.51735">
        <ele>1204.4000244141</ele>
        <time>2022-08-21T12:48:01Z</time>
      </trkpt>
      <trkpt lat="43.9062" lon="6.51751">
        <ele>1203.5999755859</ele>
        <time>2022-08-21T12:48:06Z</time>
      </trkpt>
      <trkpt lat="43.90615" lon="6.5176">
        <ele>1202.5999755859</ele>
        <time>2022-08-21T12:48:09Z</time>
      </trkpt>
      <trkpt lat="43.9061" lon="6.51769">
        <ele>1201.5999755859</ele>
        <time>2022-08-21T12:48:12Z</time>
      </trkpt>
      <trkpt lat="43.90608" lon="6.51772">
        <ele>1201.4000244141</ele>
        <time>2022-08-21T12:48:13Z</time>
      </trkpt>
      <trkpt lat="43.90605" lon="6.51778">
        <ele>1201</ele>
        <time>2022-08-21T12:48:16Z</time>
      </trkpt>
      <trkpt lat="43.90599" lon="6.5179">
        <ele>1200</ele>
        <time>2022-08-21T12:48:19Z</time>
      </trkpt>
      <trkpt lat="43.90595" lon="6.51801">
        <ele>1199.1999511719</ele>
        <time>2022-08-21T12:48:22Z</time>
      </trkpt>
      <trkpt lat="43.90593" lon="6.51805">
        <ele>1198.8000488281</ele>
        <time>2022-08-21T12:48:23Z</time>
      </trkpt>
      <trkpt lat="43.90586" lon="6.51819">
        <ele>1197.8000488281</ele>
        <time>2022-08-21T12:48:26Z</time>
      </trkpt>
      <trkpt lat="43.90582" lon="6.51827">
        <ele>1197.4000244141</ele>
        <time>2022-08-21T12:48:28Z</time>
      </trkpt>
      <trkpt lat="43.90578" lon="6.51837">
        <ele>1196.8000488281</ele>
        <time>2022-08-21T12:48:30Z</time>
      </trkpt>
      <trkpt lat="43.90574" lon="6.51847">
        <ele>1196</ele>
        <time>2022-08-21T12:48:32Z</time>
      </trkpt>
      <trkpt lat="43.90571" lon="6.5185">
        <ele>1195.5999755859</ele>
        <time>2022-08-21T12:48:33Z</time>
      </trkpt>
      <trkpt lat="43.90569" lon="6.51853">
        <ele>1195.4000244141</ele>
        <time>2022-08-21T12:48:34Z</time>
      </trkpt>
      <trkpt lat="43.90566" lon="6.5186">
        <ele>1195.1999511719</ele>
        <time>2022-08-21T12:48:36Z</time>
      </trkpt>
      <trkpt lat="43.90563" lon="6.51867">
        <ele>1195.1999511719</ele>
        <time>2022-08-21T12:48:38Z</time>
      </trkpt>
      <trkpt lat="43.90557" lon="6.5188">
        <ele>1194.4000244141</ele>
        <time>2022-08-21T12:48:43Z</time>
      </trkpt>
      <trkpt lat="43.90554" lon="6.51891">
        <ele>1193.1999511719</ele>
        <time>2022-08-21T12:48:46Z</time>
      </trkpt>
      <trkpt lat="43.90548" lon="6.51905">
        <ele>1192.8000488281</ele>
        <time>2022-08-21T12:48:50Z</time>
      </trkpt>
      <trkpt lat="43.90542" lon="6.51921">
        <ele>1192.5999755859</ele>
        <time>2022-08-21T12:48:54Z</time>
      </trkpt>
      <trkpt lat="43.90536" lon="6.51939">
        <ele>1192.5999755859</ele>
        <time>2022-08-21T12:48:58Z</time>
      </trkpt>
      <trkpt lat="43.9053" lon="6.51958">
        <ele>1192.1999511719</ele>
        <time>2022-08-21T12:49:03Z</time>
      </trkpt>
      <trkpt lat="43.90529" lon="6.51962">
        <ele>1192</ele>
        <time>2022-08-21T12:49:04Z</time>
      </trkpt>
      <trkpt lat="43.90524" lon="6.51976">
        <ele>1191.4000244141</ele>
        <time>2022-08-21T12:49:09Z</time>
      </trkpt>
      <trkpt lat="43.90523" lon="6.51987">
        <ele>1191.1999511719</ele>
        <time>2022-08-21T12:49:12Z</time>
      </trkpt>
      <trkpt lat="43.90521" lon="6.51998">
        <ele>1191.4000244141</ele>
        <time>2022-08-21T12:49:16Z</time>
      </trkpt>
      <trkpt lat="43.90519" lon="6.52014">
        <ele>1191.4000244141</ele>
        <time>2022-08-21T12:49:22Z</time>
      </trkpt>
      <trkpt lat="43.90518" lon="6.52018">
        <ele>1191.4000244141</ele>
        <time>2022-08-21T12:49:23Z</time>
      </trkpt>
      <trkpt lat="43.90517" lon="6.52025">
        <ele>1191.1999511719</ele>
        <time>2022-08-21T12:49:25Z</time>
      </trkpt>
      <trkpt lat="43.90516" lon="6.52031">
        <ele>1191</ele>
        <time>2022-08-21T12:49:27Z</time>
      </trkpt>
      <trkpt lat="43.90514" lon="6.52039">
        <ele>1190.4000244141</ele>
        <time>2022-08-21T12:49:30Z</time>
      </trkpt>
      <trkpt lat="43.90513" lon="6.52043">
        <ele>1190.1999511719</ele>
        <time>2022-08-21T12:49:31Z</time>
      </trkpt>
      <trkpt lat="43.90508" lon="6.52054">
        <ele>1189</ele>
        <time>2022-08-21T12:49:35Z</time>
      </trkpt>
      <trkpt lat="43.90506" lon="6.5206">
        <ele>1188.5999755859</ele>
        <time>2022-08-21T12:49:37Z</time>
      </trkpt>
      <trkpt lat="43.90497" lon="6.5208">
        <ele>1187.8000488281</ele>
        <time>2022-08-21T12:49:44Z</time>
      </trkpt>
      <trkpt lat="43.90495" lon="6.52089">
        <ele>1187</ele>
        <time>2022-08-21T12:49:47Z</time>
      </trkpt>
      <trkpt lat="43.90494" lon="6.52092">
        <ele>1186.5999755859</ele>
        <time>2022-08-21T12:49:48Z</time>
      </trkpt>
      <trkpt lat="43.90493" lon="6.52099">
        <ele>1186</ele>
        <time>2022-08-21T12:49:50Z</time>
      </trkpt>
      <trkpt lat="43.90491" lon="6.52106">
        <ele>1185.1999511719</ele>
        <time>2022-08-21T12:49:52Z</time>
      </trkpt>
      <trkpt lat="43.9049" lon="6.52115">
        <ele>1184.1999511719</ele>
        <time>2022-08-21T12:49:56Z</time>
      </trkpt>
      <trkpt lat="43.90489" lon="6.52124">
        <ele>1182.8000488281</ele>
        <time>2022-08-21T12:50:00Z</time>
      </trkpt>
      <trkpt lat="43.90488" lon="6.52128">
        <ele>1182.4000244141</ele>
        <time>2022-08-21T12:50:02Z</time>
      </trkpt>
      <trkpt lat="43.90488" lon="6.52128">
        <ele>1182.1999511719</ele>
        <time>2022-08-21T12:50:03Z</time>
      </trkpt>
      <trkpt lat="43.90487" lon="6.52128">
        <ele>1182</ele>
        <time>2022-08-21T12:50:07Z</time>
      </trkpt>
      <trkpt lat="43.90486" lon="6.52129">
        <ele>1181.8000488281</ele>
        <time>2022-08-21T12:50:10Z</time>
      </trkpt>
      <trkpt lat="43.90487" lon="6.52133">
        <ele>1181.4000244141</ele>
        <time>2022-08-21T12:50:14Z</time>
      </trkpt>
      <trkpt lat="43.90486" lon="6.52139">
        <ele>1180.8000488281</ele>
        <time>2022-08-21T12:50:18Z</time>
      </trkpt>
      <trkpt lat="43.90486" lon="6.5214">
        <ele>1180.4000244141</ele>
        <time>2022-08-21T12:50:20Z</time>
      </trkpt>
      <trkpt lat="43.90486" lon="6.52141">
        <ele>1179.8000488281</ele>
        <time>2022-08-21T12:50:23Z</time>
      </trkpt>
      <trkpt lat="43.90486" lon="6.52141">
        <ele>1179.8000488281</ele>
        <time>2022-08-21T12:50:24Z</time>
      </trkpt>
      <trkpt lat="43.90483" lon="6.52149">
        <ele>1179.1999511719</ele>
        <time>2022-08-21T12:50:30Z</time>
      </trkpt>
      <trkpt lat="43.90482" lon="6.52154">
        <ele>1178.4000244141</ele>
        <time>2022-08-21T12:50:32Z</time>
      </trkpt>
      <trkpt lat="43.90481" lon="6.52156">
        <ele>1177.5999755859</ele>
        <time>2022-08-21T12:50:34Z</time>
      </trkpt>
      <trkpt lat="43.9048" lon="6.52157">
        <ele>1177.1999511719</ele>
        <time>2022-08-21T12:50:35Z</time>
      </trkpt>
      <trkpt lat="43.90476" lon="6.52159">
        <ele>1176.4000244141</ele>
        <time>2022-08-21T12:50:38Z</time>
      </trkpt>
      <trkpt lat="43.90475" lon="6.5216">
        <ele>1176</ele>
        <time>2022-08-21T12:50:39Z</time>
      </trkpt>
      <trkpt lat="43.9047" lon="6.52163">
        <ele>1174.8000488281</ele>
        <time>2022-08-21T12:50:43Z</time>
      </trkpt>
      <trkpt lat="43.90467" lon="6.52165">
        <ele>1174</ele>
        <time>2022-08-21T12:50:45Z</time>
      </trkpt>
      <trkpt lat="43.90465" lon="6.52164">
        <ele>1173.5999755859</ele>
        <time>2022-08-21T12:50:46Z</time>
      </trkpt>
      <trkpt lat="43.9046" lon="6.52162">
        <ele>1173.1999511719</ele>
        <time>2022-08-21T12:50:48Z</time>
      </trkpt>
      <trkpt lat="43.90458" lon="6.52161">
        <ele>1172.5999755859</ele>
        <time>2022-08-21T12:50:50Z</time>
      </trkpt>
      <trkpt lat="43.90458" lon="6.52161">
        <ele>1172.5999755859</ele>
        <time>2022-08-21T12:50:51Z</time>
      </trkpt>
      <trkpt lat="43.90454" lon="6.52161">
        <ele>1171.8000488281</ele>
        <time>2022-08-21T12:50:56Z</time>
      </trkpt>
      <trkpt lat="43.90451" lon="6.52162">
        <ele>1171.4000244141</ele>
        <time>2022-08-21T12:50:59Z</time>
      </trkpt>
      <trkpt lat="43.90442" lon="6.52167">
        <ele>1170.1999511719</ele>
        <time>2022-08-21T12:51:03Z</time>
      </trkpt>
      <trkpt lat="43.90441" lon="6.52168">
        <ele>1170</ele>
        <time>2022-08-21T12:51:04Z</time>
      </trkpt>
      <trkpt lat="43.90433" lon="6.52178">
        <ele>1169</ele>
        <time>2022-08-21T12:51:10Z</time>
      </trkpt>
      <trkpt lat="43.90426" lon="6.52183">
        <ele>1168</ele>
        <time>2022-08-21T12:51:12Z</time>
      </trkpt>
      <trkpt lat="43.90411" lon="6.52193">
        <ele>1166.8000488281</ele>
        <time>2022-08-21T12:51:16Z</time>
      </trkpt>
      <trkpt lat="43.90404" lon="6.52195">
        <ele>1167</ele>
        <time>2022-08-21T12:51:18Z</time>
      </trkpt>
      <trkpt lat="43.9039" lon="6.52191">
        <ele>1168.1999511719</ele>
        <time>2022-08-21T12:51:24Z</time>
      </trkpt>
      <trkpt lat="43.90382" lon="6.52189">
        <ele>1168.5999755859</ele>
        <time>2022-08-21T12:51:29Z</time>
      </trkpt>
      <trkpt lat="43.90381" lon="6.5219">
        <ele>1168.5999755859</ele>
        <time>2022-08-21T12:51:30Z</time>
      </trkpt>
      <trkpt lat="43.9038" lon="6.5219">
        <ele>1168.4000244141</ele>
        <time>2022-08-21T12:51:31Z</time>
      </trkpt>
      <trkpt lat="43.90379" lon="6.52189">
        <ele>1168.4000244141</ele>
        <time>2022-08-21T12:51:32Z</time>
      </trkpt>
      <trkpt lat="43.90377" lon="6.52189">
        <ele>1168.1999511719</ele>
        <time>2022-08-21T12:51:34Z</time>
      </trkpt>
      <trkpt lat="43.90376" lon="6.52189">
        <ele>1167.8000488281</ele>
        <time>2022-08-21T12:51:37Z</time>
      </trkpt>
      <trkpt lat="43.90377" lon="6.52189">
        <ele>1167.8000488281</ele>
        <time>2022-08-21T12:51:42Z</time>
      </trkpt>
      <trkpt lat="43.90377" lon="6.52189">
        <ele>1167.8000488281</ele>
        <time>2022-08-21T12:51:53Z</time>
      </trkpt>
      <trkpt lat="43.90373" lon="6.52183">
        <ele>1167</ele>
        <time>2022-08-21T12:52:00Z</time>
      </trkpt>
      <trkpt lat="43.90372" lon="6.52182">
        <ele>1166.5999755859</ele>
        <time>2022-08-21T12:52:01Z</time>
      </trkpt>
      <trkpt lat="43.90371" lon="6.52181">
        <ele>1165.8000488281</ele>
        <time>2022-08-21T12:52:03Z</time>
      </trkpt>
      <trkpt lat="43.90371" lon="6.5218">
        <ele>1165</ele>
        <time>2022-08-21T12:52:08Z</time>
      </trkpt>
      <trkpt lat="43.90369" lon="6.52179">
        <ele>1164.8000488281</ele>
        <time>2022-08-21T12:52:11Z</time>
      </trkpt>
      <trkpt lat="43.90367" lon="6.52179">
        <ele>1164.5999755859</ele>
        <time>2022-08-21T12:52:12Z</time>
      </trkpt>
      <trkpt lat="43.90364" lon="6.52176">
        <ele>1163.5999755859</ele>
        <time>2022-08-21T12:52:14Z</time>
      </trkpt>
      <trkpt lat="43.90364" lon="6.52173">
        <ele>1163</ele>
        <time>2022-08-21T12:52:15Z</time>
      </trkpt>
      <trkpt lat="43.90361" lon="6.52166">
        <ele>1161.8000488281</ele>
        <time>2022-08-21T12:52:18Z</time>
      </trkpt>
      <trkpt lat="43.9036" lon="6.52164">
        <ele>1161.5999755859</ele>
        <time>2022-08-21T12:52:19Z</time>
      </trkpt>
      <trkpt lat="43.90358" lon="6.52161">
        <ele>1160.8000488281</ele>
        <time>2022-08-21T12:52:21Z</time>
      </trkpt>
      <trkpt lat="43.90355" lon="6.52157">
        <ele>1159.8000488281</ele>
        <time>2022-08-21T12:52:24Z</time>
      </trkpt>
      <trkpt lat="43.90355" lon="6.52156">
        <ele>1159.4000244141</ele>
        <time>2022-08-21T12:52:25Z</time>
      </trkpt>
      <trkpt lat="43.90354" lon="6.52154">
        <ele>1158.8000488281</ele>
        <time>2022-08-21T12:52:28Z</time>
      </trkpt>
      <trkpt lat="43.90353" lon="6.52153">
        <ele>1158.5999755859</ele>
        <time>2022-08-21T12:52:29Z</time>
      </trkpt>
      <trkpt lat="43.90349" lon="6.52146">
        <ele>1157.5999755859</ele>
        <time>2022-08-21T12:52:33Z</time>
      </trkpt>
      <trkpt lat="43.90347" lon="6.5214">
        <ele>1156</ele>
        <time>2022-08-21T12:52:36Z</time>
      </trkpt>
      <trkpt lat="43.90346" lon="6.52139">
        <ele>1155.5999755859</ele>
        <time>2022-08-21T12:52:37Z</time>
      </trkpt>
      <trkpt lat="43.90345" lon="6.52136">
        <ele>1155</ele>
        <time>2022-08-21T12:52:38Z</time>
      </trkpt>
      <trkpt lat="43.90343" lon="6.5213">
        <ele>1154</ele>
        <time>2022-08-21T12:52:41Z</time>
      </trkpt>
      <trkpt lat="43.9034" lon="6.52124">
        <ele>1152.8000488281</ele>
        <time>2022-08-21T12:52:45Z</time>
      </trkpt>
      <trkpt lat="43.90339" lon="6.52123">
        <ele>1152.4000244141</ele>
        <time>2022-08-21T12:52:46Z</time>
      </trkpt>
      <trkpt lat="43.90339" lon="6.52123">
        <ele>1151.8000488281</ele>
        <time>2022-08-21T12:52:48Z</time>
      </trkpt>
      <trkpt lat="43.90338" lon="6.52123">
        <ele>1151.4000244141</ele>
        <time>2022-08-21T12:52:50Z</time>
      </trkpt>
      <trkpt lat="43.90337" lon="6.52123">
        <ele>1151.1999511719</ele>
        <time>2022-08-21T12:52:55Z</time>
      </trkpt>
      <trkpt lat="43.90334" lon="6.52116">
        <ele>1150.5999755859</ele>
        <time>2022-08-21T12:53:02Z</time>
      </trkpt>
      <trkpt lat="43.90331" lon="6.52111">
        <ele>1150</ele>
        <time>2022-08-21T12:53:04Z</time>
      </trkpt>
      <trkpt lat="43.9033" lon="6.52108">
        <ele>1149.5999755859</ele>
        <time>2022-08-21T12:53:05Z</time>
      </trkpt>
      <trkpt lat="43.90326" lon="6.521">
        <ele>1148.5999755859</ele>
        <time>2022-08-21T12:53:07Z</time>
      </trkpt>
      <trkpt lat="43.90321" lon="6.52083">
        <ele>1147.4000244141</ele>
        <time>2022-08-21T12:53:10Z</time>
      </trkpt>
      <trkpt lat="43.90316" lon="6.52067">
        <ele>1146</ele>
        <time>2022-08-21T12:53:13Z</time>
      </trkpt>
      <trkpt lat="43.90313" lon="6.52056">
        <ele>1145.1999511719</ele>
        <time>2022-08-21T12:53:15Z</time>
      </trkpt>
      <trkpt lat="43.90311" lon="6.52052">
        <ele>1144.8000488281</ele>
        <time>2022-08-21T12:53:16Z</time>
      </trkpt>
      <trkpt lat="43.90307" lon="6.52041">
        <ele>1143.8000488281</ele>
        <time>2022-08-21T12:53:20Z</time>
      </trkpt>
      <trkpt lat="43.90305" lon="6.52038">
        <ele>1143.5999755859</ele>
        <time>2022-08-21T12:53:21Z</time>
      </trkpt>
      <trkpt lat="43.90298" lon="6.52028">
        <ele>1142.8000488281</ele>
        <time>2022-08-21T12:53:25Z</time>
      </trkpt>
      <trkpt lat="43.90296" lon="6.52025">
        <ele>1142.5999755859</ele>
        <time>2022-08-21T12:53:26Z</time>
      </trkpt>
      <trkpt lat="43.90295" lon="6.52022">
        <ele>1142.4000244141</ele>
        <time>2022-08-21T12:53:27Z</time>
      </trkpt>
      <trkpt lat="43.90289" lon="6.52012">
        <ele>1141.4000244141</ele>
        <time>2022-08-21T12:53:31Z</time>
      </trkpt>
      <trkpt lat="43.90282" lon="6.52005">
        <ele>1140</ele>
        <time>2022-08-21T12:53:34Z</time>
      </trkpt>
      <trkpt lat="43.90277" lon="6.52001">
        <ele>1138.8000488281</ele>
        <time>2022-08-21T12:53:37Z</time>
      </trkpt>
      <trkpt lat="43.90272" lon="6.51994">
        <ele>1138</ele>
        <time>2022-08-21T12:53:40Z</time>
      </trkpt>
      <trkpt lat="43.90271" lon="6.51992">
        <ele>1137.8000488281</ele>
        <time>2022-08-21T12:53:41Z</time>
      </trkpt>
      <trkpt lat="43.9027" lon="6.5199">
        <ele>1137.5999755859</ele>
        <time>2022-08-21T12:53:42Z</time>
      </trkpt>
      <trkpt lat="43.90267" lon="6.51987">
        <ele>1137</ele>
        <time>2022-08-21T12:53:44Z</time>
      </trkpt>
      <trkpt lat="43.90266" lon="6.51985">
        <ele>1136.8000488281</ele>
        <time>2022-08-21T12:53:45Z</time>
      </trkpt>
      <trkpt lat="43.90261" lon="6.51979">
        <ele>1136</ele>
        <time>2022-08-21T12:53:49Z</time>
      </trkpt>
      <trkpt lat="43.90259" lon="6.51978">
        <ele>1135.8000488281</ele>
        <time>2022-08-21T12:53:50Z</time>
      </trkpt>
      <trkpt lat="43.90257" lon="6.51975">
        <ele>1135.4000244141</ele>
        <time>2022-08-21T12:53:51Z</time>
      </trkpt>
      <trkpt lat="43.90255" lon="6.5197">
        <ele>1134.8000488281</ele>
        <time>2022-08-21T12:53:53Z</time>
      </trkpt>
      <trkpt lat="43.90254" lon="6.51969">
        <ele>1134.5999755859</ele>
        <time>2022-08-21T12:53:54Z</time>
      </trkpt>
      <trkpt lat="43.90252" lon="6.51967">
        <ele>1134.1999511719</ele>
        <time>2022-08-21T12:53:55Z</time>
      </trkpt>
      <trkpt lat="43.90245" lon="6.51966">
        <ele>1133.1999511719</ele>
        <time>2022-08-21T12:53:59Z</time>
      </trkpt>
      <trkpt lat="43.90241" lon="6.51969">
        <ele>1132.1999511719</ele>
        <time>2022-08-21T12:54:02Z</time>
      </trkpt>
      <trkpt lat="43.90239" lon="6.51973">
        <ele>1131.1999511719</ele>
        <time>2022-08-21T12:54:04Z</time>
      </trkpt>
      <trkpt lat="43.90235" lon="6.51975">
        <ele>1130.1999511719</ele>
        <time>2022-08-21T12:54:06Z</time>
      </trkpt>
      <trkpt lat="43.90231" lon="6.51974">
        <ele>1129</ele>
        <time>2022-08-21T12:54:08Z</time>
      </trkpt>
      <trkpt lat="43.90228" lon="6.51974">
        <ele>1128.8000488281</ele>
        <time>2022-08-21T12:54:09Z</time>
      </trkpt>
      <trkpt lat="43.90225" lon="6.51973">
        <ele>1128.4000244141</ele>
        <time>2022-08-21T12:54:10Z</time>
      </trkpt>
      <trkpt lat="43.90222" lon="6.51973">
        <ele>1128</ele>
        <time>2022-08-21T12:54:11Z</time>
      </trkpt>
      <trkpt lat="43.90212" lon="6.51973">
        <ele>1126.5999755859</ele>
        <time>2022-08-21T12:54:14Z</time>
      </trkpt>
      <trkpt lat="43.90208" lon="6.51973">
        <ele>1125.5999755859</ele>
        <time>2022-08-21T12:54:16Z</time>
      </trkpt>
      <trkpt lat="43.90208" lon="6.51975">
        <ele>1125.4000244141</ele>
        <time>2022-08-21T12:54:17Z</time>
      </trkpt>
      <trkpt lat="43.90217" lon="6.51987">
        <ele>1124.5999755859</ele>
        <time>2022-08-21T12:54:21Z</time>
      </trkpt>
      <trkpt lat="43.9022" lon="6.51991">
        <ele>1124.1999511719</ele>
        <time>2022-08-21T12:54:22Z</time>
      </trkpt>
      <trkpt lat="43.90228" lon="6.52">
        <ele>1122.5999755859</ele>
        <time>2022-08-21T12:54:25Z</time>
      </trkpt>
      <trkpt lat="43.90233" lon="6.5201">
        <ele>1121.4000244141</ele>
        <time>2022-08-21T12:54:28Z</time>
      </trkpt>
      <trkpt lat="43.90235" lon="6.52016">
        <ele>1120.4000244141</ele>
        <time>2022-08-21T12:54:30Z</time>
      </trkpt>
      <trkpt lat="43.90234" lon="6.5202">
        <ele>1119.8000488281</ele>
        <time>2022-08-21T12:54:31Z</time>
      </trkpt>
      <trkpt lat="43.90234" lon="6.52024">
        <ele>1119.4000244141</ele>
        <time>2022-08-21T12:54:32Z</time>
      </trkpt>
      <trkpt lat="43.90233" lon="6.52028">
        <ele>1118.8000488281</ele>
        <time>2022-08-21T12:54:33Z</time>
      </trkpt>
      <trkpt lat="43.90229" lon="6.52036">
        <ele>1117.5999755859</ele>
        <time>2022-08-21T12:54:36Z</time>
      </trkpt>
      <trkpt lat="43.90223" lon="6.5204">
        <ele>1116</ele>
        <time>2022-08-21T12:54:39Z</time>
      </trkpt>
      <trkpt lat="43.90221" lon="6.52045">
        <ele>1115</ele>
        <time>2022-08-21T12:54:41Z</time>
      </trkpt>
      <trkpt lat="43.90221" lon="6.52048">
        <ele>1114.4000244141</ele>
        <time>2022-08-21T12:54:42Z</time>
      </trkpt>
      <trkpt lat="43.90222" lon="6.52051">
        <ele>1113.8000488281</ele>
        <time>2022-08-21T12:54:43Z</time>
      </trkpt>
      <trkpt lat="43.90224" lon="6.5206">
        <ele>1112.5999755859</ele>
        <time>2022-08-21T12:54:45Z</time>
      </trkpt>
      <trkpt lat="43.90226" lon="6.52065">
        <ele>1112</ele>
        <time>2022-08-21T12:54:46Z</time>
      </trkpt>
      <trkpt lat="43.90228" lon="6.52069">
        <ele>1111.5999755859</ele>
        <time>2022-08-21T12:54:47Z</time>
      </trkpt>
      <trkpt lat="43.90233" lon="6.52084">
        <ele>1110.1999511719</ele>
        <time>2022-08-21T12:54:50Z</time>
      </trkpt>
      <trkpt lat="43.90236" lon="6.52093">
        <ele>1109.1999511719</ele>
        <time>2022-08-21T12:54:52Z</time>
      </trkpt>
      <trkpt lat="43.90237" lon="6.5211">
        <ele>1108</ele>
        <time>2022-08-21T12:54:56Z</time>
      </trkpt>
      <trkpt lat="43.90236" lon="6.52115">
        <ele>1107.5999755859</ele>
        <time>2022-08-21T12:54:57Z</time>
      </trkpt>
      <trkpt lat="43.90235" lon="6.52127">
        <ele>1106.5999755859</ele>
        <time>2022-08-21T12:54:59Z</time>
      </trkpt>
      <trkpt lat="43.90236" lon="6.52138">
        <ele>1105.1999511719</ele>
        <time>2022-08-21T12:55:01Z</time>
      </trkpt>
      <trkpt lat="43.90239" lon="6.52147">
        <ele>1104.5999755859</ele>
        <time>2022-08-21T12:55:03Z</time>
      </trkpt>
      <trkpt lat="43.90242" lon="6.52155">
        <ele>1104.1999511719</ele>
        <time>2022-08-21T12:55:05Z</time>
      </trkpt>
      <trkpt lat="43.90242" lon="6.52163">
        <ele>1103.8000488281</ele>
        <time>2022-08-21T12:55:07Z</time>
      </trkpt>
      <trkpt lat="43.90235" lon="6.52178">
        <ele>1103.1999511719</ele>
        <time>2022-08-21T12:55:12Z</time>
      </trkpt>
      <trkpt lat="43.90233" lon="6.5218">
        <ele>1103</ele>
        <time>2022-08-21T12:55:13Z</time>
      </trkpt>
      <trkpt lat="43.90225" lon="6.52187">
        <ele>1101.5999755859</ele>
        <time>2022-08-21T12:55:16Z</time>
      </trkpt>
      <trkpt lat="43.90223" lon="6.52189">
        <ele>1100.4000244141</ele>
        <time>2022-08-21T12:55:17Z</time>
      </trkpt>
      <trkpt lat="43.90219" lon="6.52191">
        <ele>1099.4000244141</ele>
        <time>2022-08-21T12:55:19Z</time>
      </trkpt>
      <trkpt lat="43.90216" lon="6.52193">
        <ele>1098.8000488281</ele>
        <time>2022-08-21T12:55:20Z</time>
      </trkpt>
      <trkpt lat="43.90214" lon="6.52193">
        <ele>1098.1999511719</ele>
        <time>2022-08-21T12:55:21Z</time>
      </trkpt>
      <trkpt lat="43.90208" lon="6.52196">
        <ele>1096.5999755859</ele>
        <time>2022-08-21T12:55:23Z</time>
      </trkpt>
      <trkpt lat="43.90202" lon="6.52197">
        <ele>1095.1999511719</ele>
        <time>2022-08-21T12:55:25Z</time>
      </trkpt>
      <trkpt lat="43.90198" lon="6.522">
        <ele>1093.8000488281</ele>
        <time>2022-08-21T12:55:27Z</time>
      </trkpt>
      <trkpt lat="43.90194" lon="6.52203">
        <ele>1092.4000244141</ele>
        <time>2022-08-21T12:55:29Z</time>
      </trkpt>
      <trkpt lat="43.90193" lon="6.52205">
        <ele>1092</ele>
        <time>2022-08-21T12:55:30Z</time>
      </trkpt>
      <trkpt lat="43.9019" lon="6.52208">
        <ele>1091.1999511719</ele>
        <time>2022-08-21T12:55:31Z</time>
      </trkpt>
      <trkpt lat="43.90186" lon="6.52212">
        <ele>1090</ele>
        <time>2022-08-21T12:55:33Z</time>
      </trkpt>
      <trkpt lat="43.90184" lon="6.52215">
        <ele>1089.5999755859</ele>
        <time>2022-08-21T12:55:34Z</time>
      </trkpt>
      <trkpt lat="43.90183" lon="6.5222">
        <ele>1089.1999511719</ele>
        <time>2022-08-21T12:55:35Z</time>
      </trkpt>
      <trkpt lat="43.90182" lon="6.52226">
        <ele>1088.5999755859</ele>
        <time>2022-08-21T12:55:36Z</time>
      </trkpt>
      <trkpt lat="43.9018" lon="6.52242">
        <ele>1087.1999511719</ele>
        <time>2022-08-21T12:55:38Z</time>
      </trkpt>
      <trkpt lat="43.90179" lon="6.52256">
        <ele>1086.4000244141</ele>
        <time>2022-08-21T12:55:40Z</time>
      </trkpt>
      <trkpt lat="43.90178" lon="6.52262">
        <ele>1086.1999511719</ele>
        <time>2022-08-21T12:55:41Z</time>
      </trkpt>
      <trkpt lat="43.90175" lon="6.52277">
        <ele>1085.5999755859</ele>
        <time>2022-08-21T12:55:44Z</time>
      </trkpt>
      <trkpt lat="43.90173" lon="6.52283">
        <ele>1085</ele>
        <time>2022-08-21T12:55:45Z</time>
      </trkpt>
      <trkpt lat="43.90171" lon="6.52288">
        <ele>1084.1999511719</ele>
        <time>2022-08-21T12:55:46Z</time>
      </trkpt>
      <trkpt lat="43.90168" lon="6.52293">
        <ele>1083.4000244141</ele>
        <time>2022-08-21T12:55:47Z</time>
      </trkpt>
      <trkpt lat="43.90161" lon="6.52305">
        <ele>1082</ele>
        <time>2022-08-21T12:55:49Z</time>
      </trkpt>
      <trkpt lat="43.90157" lon="6.5231">
        <ele>1080.8000488281</ele>
        <time>2022-08-21T12:55:50Z</time>
      </trkpt>
      <trkpt lat="43.90153" lon="6.52316">
        <ele>1079.5999755859</ele>
        <time>2022-08-21T12:55:51Z</time>
      </trkpt>
      <trkpt lat="43.90146" lon="6.52327">
        <ele>1078.5999755859</ele>
        <time>2022-08-21T12:55:53Z</time>
      </trkpt>
      <trkpt lat="43.90143" lon="6.52333">
        <ele>1078</ele>
        <time>2022-08-21T12:55:54Z</time>
      </trkpt>
      <trkpt lat="43.90139" lon="6.52339">
        <ele>1077.4000244141</ele>
        <time>2022-08-21T12:55:55Z</time>
      </trkpt>
      <trkpt lat="43.90131" lon="6.52348">
        <ele>1075.8000488281</ele>
        <time>2022-08-21T12:55:57Z</time>
      </trkpt>
      <trkpt lat="43.90127" lon="6.5235">
        <ele>1075</ele>
        <time>2022-08-21T12:55:58Z</time>
      </trkpt>
      <trkpt lat="43.90123" lon="6.52352">
        <ele>1074.4000244141</ele>
        <time>2022-08-21T12:55:59Z</time>
      </trkpt>
      <trkpt lat="43.90115" lon="6.52352">
        <ele>1073.4000244141</ele>
        <time>2022-08-21T12:56:01Z</time>
      </trkpt>
      <trkpt lat="43.90111" lon="6.52349">
        <ele>1073.1999511719</ele>
        <time>2022-08-21T12:56:02Z</time>
      </trkpt>
      <trkpt lat="43.90108" lon="6.52346">
        <ele>1072.8000488281</ele>
        <time>2022-08-21T12:56:03Z</time>
      </trkpt>
      <trkpt lat="43.90105" lon="6.52334">
        <ele>1072</ele>
        <time>2022-08-21T12:56:05Z</time>
      </trkpt>
      <trkpt lat="43.90104" lon="6.5232">
        <ele>1070.5999755859</ele>
        <time>2022-08-21T12:56:07Z</time>
      </trkpt>
      <trkpt lat="43.90104" lon="6.52314">
        <ele>1070</ele>
        <time>2022-08-21T12:56:08Z</time>
      </trkpt>
      <trkpt lat="43.90102" lon="6.52307">
        <ele>1069.1999511719</ele>
        <time>2022-08-21T12:56:09Z</time>
      </trkpt>
      <trkpt lat="43.901" lon="6.52301">
        <ele>1068.5999755859</ele>
        <time>2022-08-21T12:56:10Z</time>
      </trkpt>
      <trkpt lat="43.90097" lon="6.52296">
        <ele>1068.1999511719</ele>
        <time>2022-08-21T12:56:11Z</time>
      </trkpt>
      <trkpt lat="43.90095" lon="6.52291">
        <ele>1067.4000244141</ele>
        <time>2022-08-21T12:56:12Z</time>
      </trkpt>
      <trkpt lat="43.90092" lon="6.52287">
        <ele>1066.4000244141</ele>
        <time>2022-08-21T12:56:13Z</time>
      </trkpt>
      <trkpt lat="43.90087" lon="6.52281">
        <ele>1065.1999511719</ele>
        <time>2022-08-21T12:56:15Z</time>
      </trkpt>
      <trkpt lat="43.90084" lon="6.52277">
        <ele>1064.8000488281</ele>
        <time>2022-08-21T12:56:16Z</time>
      </trkpt>
      <trkpt lat="43.9008" lon="6.52272">
        <ele>1063.5999755859</ele>
        <time>2022-08-21T12:56:18Z</time>
      </trkpt>
      <trkpt lat="43.90077" lon="6.52269">
        <ele>1062.5999755859</ele>
        <time>2022-08-21T12:56:20Z</time>
      </trkpt>
      <trkpt lat="43.90076" lon="6.52269">
        <ele>1062.1999511719</ele>
        <time>2022-08-21T12:56:21Z</time>
      </trkpt>
      <trkpt lat="43.90067" lon="6.52271">
        <ele>1061.4000244141</ele>
        <time>2022-08-21T12:56:25Z</time>
      </trkpt>
      <trkpt lat="43.90057" lon="6.52275">
        <ele>1060.4000244141</ele>
        <time>2022-08-21T12:56:28Z</time>
      </trkpt>
      <trkpt lat="43.9004" lon="6.52281">
        <ele>1059</ele>
        <time>2022-08-21T12:56:32Z</time>
      </trkpt>
      <trkpt lat="43.90033" lon="6.52283">
        <ele>1058</ele>
        <time>2022-08-21T12:56:34Z</time>
      </trkpt>
      <trkpt lat="43.90027" lon="6.52286">
        <ele>1057</ele>
        <time>2022-08-21T12:56:37Z</time>
      </trkpt>
      <trkpt lat="43.90026" lon="6.52287">
        <ele>1056.8000488281</ele>
        <time>2022-08-21T12:56:38Z</time>
      </trkpt>
      <trkpt lat="43.90025" lon="6.52288">
        <ele>1056.5999755859</ele>
        <time>2022-08-21T12:56:39Z</time>
      </trkpt>
      <trkpt lat="43.90021" lon="6.52291">
        <ele>1056</ele>
        <time>2022-08-21T12:56:42Z</time>
      </trkpt>
      <trkpt lat="43.9002" lon="6.52291">
        <ele>1055.8000488281</ele>
        <time>2022-08-21T12:56:43Z</time>
      </trkpt>
      <trkpt lat="43.90017" lon="6.52294">
        <ele>1055.1999511719</ele>
        <time>2022-08-21T12:56:45Z</time>
      </trkpt>
      <trkpt lat="43.90009" lon="6.523">
        <ele>1054.4000244141</ele>
        <time>2022-08-21T12:56:48Z</time>
      </trkpt>
      <trkpt lat="43.89999" lon="6.52304">
        <ele>1053.1999511719</ele>
        <time>2022-08-21T12:56:51Z</time>
      </trkpt>
      <trkpt lat="43.89996" lon="6.52306">
        <ele>1053</ele>
        <time>2022-08-21T12:56:52Z</time>
      </trkpt>
      <trkpt lat="43.89991" lon="6.52309">
        <ele>1052.5999755859</ele>
        <time>2022-08-21T12:56:54Z</time>
      </trkpt>
      <trkpt lat="43.89988" lon="6.52312">
        <ele>1052.5999755859</ele>
        <time>2022-08-21T12:56:56Z</time>
      </trkpt>
      <trkpt lat="43.89985" lon="6.52315">
        <ele>1052.4000244141</ele>
        <time>2022-08-21T12:56:59Z</time>
      </trkpt>
      <trkpt lat="43.89981" lon="6.52318">
        <ele>1052.1999511719</ele>
        <time>2022-08-21T12:57:02Z</time>
      </trkpt>
      <trkpt lat="43.89978" lon="6.52322">
        <ele>1051.8000488281</ele>
        <time>2022-08-21T12:57:04Z</time>
      </trkpt>
      <trkpt lat="43.89969" lon="6.52334">
        <ele>1051.8000488281</ele>
        <time>2022-08-21T12:57:11Z</time>
      </trkpt>
      <trkpt lat="43.8996" lon="6.52343">
        <ele>1052</ele>
        <time>2022-08-21T12:57:18Z</time>
      </trkpt>
      <trkpt lat="43.89955" lon="6.52355">
        <ele>1051.5999755859</ele>
        <time>2022-08-21T12:57:25Z</time>
      </trkpt>
      <trkpt lat="43.89954" lon="6.52357">
        <ele>1051.8000488281</ele>
        <time>2022-08-21T12:57:28Z</time>
      </trkpt>
      <trkpt lat="43.89953" lon="6.52357">
        <ele>1051.8000488281</ele>
        <time>2022-08-21T12:57:30Z</time>
      </trkpt>
      <trkpt lat="43.89952" lon="6.52357">
        <ele>1051.5999755859</ele>
        <time>2022-08-21T12:57:35Z</time>
      </trkpt>
      <trkpt lat="43.8995" lon="6.52358">
        <ele>1051.8000488281</ele>
        <time>2022-08-21T12:57:46Z</time>
      </trkpt>
      <trkpt lat="43.89949" lon="6.52361">
        <ele>1051.8000488281</ele>
        <time>2022-08-21T12:57:55Z</time>
      </trkpt>
      <trkpt lat="43.89949" lon="6.52362">
        <ele>1051.8000488281</ele>
        <time>2022-08-21T12:57:57Z</time>
      </trkpt>
      <trkpt lat="43.89949" lon="6.52362">
        <ele>1051.8000488281</ele>
        <time>2022-08-21T12:58:00Z</time>
      </trkpt>
      <trkpt lat="43.89948" lon="6.5236">
        <ele>1051.1999511719</ele>
        <time>2022-08-21T12:58:08Z</time>
      </trkpt>
      <trkpt lat="43.89949" lon="6.52359">
        <ele>1051.1999511719</ele>
        <time>2022-08-21T12:58:19Z</time>
      </trkpt>
      <trkpt lat="43.89948" lon="6.5236">
        <ele>1051.1999511719</ele>
        <time>2022-08-21T12:58:24Z</time>
      </trkpt>
      <trkpt lat="43.89949" lon="6.5236">
        <ele>1051.4000244141</ele>
        <time>2022-08-21T12:58:30Z</time>
      </trkpt>
      <trkpt lat="43.89949" lon="6.5236">
        <ele>1051.4000244141</ele>
        <time>2022-08-21T12:58:31Z</time>
      </trkpt>
      <trkpt lat="43.89952" lon="6.5236">
        <ele>1050.8000488281</ele>
        <time>2022-08-21T12:58:40Z</time>
      </trkpt>
      <trkpt lat="43.89953" lon="6.5236">
        <ele>1051</ele>
        <time>2022-08-21T12:58:42Z</time>
      </trkpt>
      <trkpt lat="43.89954" lon="6.52361">
        <ele>1051.4000244141</ele>
        <time>2022-08-21T12:58:51Z</time>
      </trkpt>
      <trkpt lat="43.89955" lon="6.52361">
        <ele>1051.5999755859</ele>
        <time>2022-08-21T12:58:54Z</time>
      </trkpt>
      <trkpt lat="43.89955" lon="6.52361">
        <ele>1051.5999755859</ele>
        <time>2022-08-21T12:58:55Z</time>
      </trkpt>
      <trkpt lat="43.89955" lon="6.5236">
        <ele>1051</ele>
        <time>2022-08-21T12:59:03Z</time>
      </trkpt>
      <trkpt lat="43.89954" lon="6.52359">
        <ele>1051</ele>
        <time>2022-08-21T12:59:08Z</time>
      </trkpt>
      <trkpt lat="43.89954" lon="6.52358">
        <ele>1051</ele>
        <time>2022-08-21T12:59:16Z</time>
      </trkpt>
      <trkpt lat="43.89952" lon="6.52354">
        <ele>1051.1999511719</ele>
        <time>2022-08-21T12:59:22Z</time>
      </trkpt>
      <trkpt lat="43.89953" lon="6.52354">
        <ele>1051.4000244141</ele>
        <time>2022-08-21T12:59:26Z</time>
      </trkpt>
      <trkpt lat="43.89954" lon="6.52354">
        <ele>1051.4000244141</ele>
        <time>2022-08-21T12:59:30Z</time>
      </trkpt>
      <trkpt lat="43.89954" lon="6.52355">
        <ele>1050.8000488281</ele>
        <time>2022-08-21T12:59:33Z</time>
      </trkpt>
      <trkpt lat="43.89953" lon="6.52354">
        <ele>1050.8000488281</ele>
        <time>2022-08-21T12:59:41Z</time>
      </trkpt>
      <trkpt lat="43.89953" lon="6.52355">
        <ele>1050.8000488281</ele>
        <time>2022-08-21T12:59:43Z</time>
      </trkpt>
      <trkpt lat="43.89953" lon="6.52355">
        <ele>1050.8000488281</ele>
        <time>2022-08-21T12:59:48Z</time>
      </trkpt>
      <trkpt lat="43.89953" lon="6.52355">
        <ele>1050.8000488281</ele>
        <time>2022-08-21T12:59:50Z</time>
      </trkpt>
      <trkpt lat="43.89953" lon="6.52355">
        <ele>1050.8000488281</ele>
        <time>2022-08-21T12:59:53Z</time>
      </trkpt>
      <trkpt lat="43.89953" lon="6.52356">
        <ele>1050.8000488281</ele>
        <time>2022-08-21T12:59:57Z</time>
      </trkpt>
      <trkpt lat="43.89953" lon="6.52357">
        <ele>1050.8000488281</ele>
        <time>2022-08-21T13:00:00Z</time>
      </trkpt>
      <trkpt lat="43.89954" lon="6.52358">
        <ele>1050.8000488281</ele>
        <time>2022-08-21T13:00:05Z</time>
      </trkpt>
      <trkpt lat="43.89953" lon="6.52359">
        <ele>1050.8000488281</ele>
        <time>2022-08-21T13:00:08Z</time>
      </trkpt>
      <trkpt lat="43.89954" lon="6.5236">
        <ele>1050.8000488281</ele>
        <time>2022-08-21T13:00:11Z</time>
      </trkpt>
      <trkpt lat="43.89955" lon="6.52361">
        <ele>1050.8000488281</ele>
        <time>2022-08-21T13:00:14Z</time>
      </trkpt>
      <trkpt lat="43.89954" lon="6.52362">
        <ele>1050.8000488281</ele>
        <time>2022-08-21T13:00:18Z</time>
      </trkpt>
      <trkpt lat="43.89955" lon="6.52362">
        <ele>1050.8000488281</ele>
        <time>2022-08-21T13:00:23Z</time>
      </trkpt>
      <trkpt lat="43.89954" lon="6.52363">
        <ele>1050.8000488281</ele>
        <time>2022-08-21T13:00:32Z</time>
      </trkpt>
      <trkpt lat="43.89954" lon="6.52362">
        <ele>1050.8000488281</ele>
        <time>2022-08-21T13:00:35Z</time>
      </trkpt>
      <trkpt lat="43.89954" lon="6.52362">
        <ele>1050.8000488281</ele>
        <time>2022-08-21T13:00:36Z</time>
      </trkpt>
      <trkpt lat="43.89954" lon="6.52362">
        <ele>1050.8000488281</ele>
        <time>2022-08-21T13:00:43Z</time>
      </trkpt>
      <trkpt lat="43.89955" lon="6.52361">
        <ele>1050.8000488281</ele>
        <time>2022-08-21T13:00:56Z</time>
      </trkpt>
      <trkpt lat="43.89956" lon="6.52362">
        <ele>1050.8000488281</ele>
        <time>2022-08-21T13:01:00Z</time>
      </trkpt>
      <trkpt lat="43.89956" lon="6.52361">
        <ele>1050.8000488281</ele>
        <time>2022-08-21T13:01:02Z</time>
      </trkpt>
      <trkpt lat="43.89955" lon="6.52361">
        <ele>1050.8000488281</ele>
        <time>2022-08-21T13:01:10Z</time>
      </trkpt>
      <trkpt lat="43.89955" lon="6.52361">
        <ele>1050.8000488281</ele>
        <time>2022-08-21T13:01:14Z</time>
      </trkpt>
      <trkpt lat="43.89955" lon="6.52359">
        <ele>1050.8000488281</ele>
        <time>2022-08-21T13:01:19Z</time>
      </trkpt>
      <trkpt lat="43.89955" lon="6.52359">
        <ele>1050.8000488281</ele>
        <time>2022-08-21T13:01:22Z</time>
      </trkpt>
      <trkpt lat="43.89956" lon="6.52357">
        <ele>1050.8000488281</ele>
        <time>2022-08-21T13:01:36Z</time>
      </trkpt>
      <trkpt lat="43.89955" lon="6.52355">
        <ele>1050.8000488281</ele>
        <time>2022-08-21T13:01:52Z</time>
      </trkpt>
      <trkpt lat="43.89956" lon="6.52353">
        <ele>1050.8000488281</ele>
        <time>2022-08-21T13:02:07Z</time>
      </trkpt>
      <trkpt lat="43.89956" lon="6.52352">
        <ele>1050.8000488281</ele>
        <time>2022-08-21T13:02:15Z</time>
      </trkpt>
      <trkpt lat="43.89955" lon="6.52352">
        <ele>1050.8000488281</ele>
        <time>2022-08-21T13:02:22Z</time>
      </trkpt>
      <trkpt lat="43.89955" lon="6.52353">
        <ele>1050.8000488281</ele>
        <time>2022-08-21T13:02:36Z</time>
      </trkpt>
      <trkpt lat="43.89955" lon="6.52353">
        <ele>1050.8000488281</ele>
        <time>2022-08-21T13:02:45Z</time>
      </trkpt>
      <trkpt lat="43.89955" lon="6.52354">
        <ele>1050.8000488281</ele>
        <time>2022-08-21T13:02:52Z</time>
      </trkpt>
      <trkpt lat="43.89955" lon="6.52354">
        <ele>1050.8000488281</ele>
        <time>2022-08-21T13:03:01Z</time>
      </trkpt>
      <trkpt lat="43.89955" lon="6.52355">
        <ele>1050.8000488281</ele>
        <time>2022-08-21T13:03:16Z</time>
      </trkpt>
      <trkpt lat="43.89955" lon="6.52354">
        <ele>1050.8000488281</ele>
        <time>2022-08-21T13:03:27Z</time>
      </trkpt>
      <trkpt lat="43.89955" lon="6.52354">
        <ele>1050.8000488281</ele>
        <time>2022-08-21T13:03:32Z</time>
      </trkpt>
      <trkpt lat="43.89955" lon="6.52355">
        <ele>1050.8000488281</ele>
        <time>2022-08-21T13:03:39Z</time>
      </trkpt>
      <trkpt lat="43.89956" lon="6.52355">
        <ele>1050.8000488281</ele>
        <time>2022-08-21T13:03:40Z</time>
      </trkpt>
      <trkpt lat="43.89956" lon="6.52357">
        <ele>1050.8000488281</ele>
        <time>2022-08-21T13:03:50Z</time>
      </trkpt>
      <trkpt lat="43.89955" lon="6.52356">
        <ele>1050.8000488281</ele>
        <time>2022-08-21T13:03:53Z</time>
      </trkpt>
      <trkpt lat="43.89955" lon="6.52357">
        <ele>1050.8000488281</ele>
        <time>2022-08-21T13:03:54Z</time>
      </trkpt>
      <trkpt lat="43.89955" lon="6.52357">
        <ele>1050.8000488281</ele>
        <time>2022-08-21T13:03:55Z</time>
      </trkpt>
      <trkpt lat="43.89955" lon="6.52357">
        <ele>1050.8000488281</ele>
        <time>2022-08-21T13:03:58Z</time>
      </trkpt>
      <trkpt lat="43.89955" lon="6.52357">
        <ele>1050.8000488281</ele>
        <time>2022-08-21T13:04:03Z</time>
      </trkpt>
      <trkpt lat="43.89953" lon="6.52356">
        <ele>1050.8000488281</ele>
        <time>2022-08-21T13:04:15Z</time>
      </trkpt>
      <trkpt lat="43.89953" lon="6.52357">
        <ele>1050.8000488281</ele>
        <time>2022-08-21T13:04:17Z</time>
      </trkpt>
      <trkpt lat="43.89953" lon="6.52357">
        <ele>1050.8000488281</ele>
        <time>2022-08-21T13:04:26Z</time>
      </trkpt>
      <trkpt lat="43.89953" lon="6.52357">
        <ele>1050.8000488281</ele>
        <time>2022-08-21T13:04:27Z</time>
      </trkpt>
      <trkpt lat="43.89953" lon="6.52358">
        <ele>1050.8000488281</ele>
        <time>2022-08-21T13:04:39Z</time>
      </trkpt>
      <trkpt lat="43.89953" lon="6.52359">
        <ele>1050.8000488281</ele>
        <time>2022-08-21T13:04:49Z</time>
      </trkpt>
      <trkpt lat="43.89953" lon="6.52359">
        <ele>1050.8000488281</ele>
        <time>2022-08-21T13:04:58Z</time>
      </trkpt>
      <trkpt lat="43.89953" lon="6.52359">
        <ele>1050.8000488281</ele>
        <time>2022-08-21T13:05:13Z</time>
      </trkpt>
      <trkpt lat="43.89953" lon="6.52359">
        <ele>1050.8000488281</ele>
        <time>2022-08-21T13:05:18Z</time>
      </trkpt>
      <trkpt lat="43.89954" lon="6.52359">
        <ele>1050.8000488281</ele>
        <time>2022-08-21T13:05:30Z</time>
      </trkpt>
      <trkpt lat="43.89955" lon="6.52359">
        <ele>1050.8000488281</ele>
        <time>2022-08-21T13:05:45Z</time>
      </trkpt>
      <trkpt lat="43.89955" lon="6.52359">
        <ele>1050.8000488281</ele>
        <time>2022-08-21T13:05:49Z</time>
      </trkpt>
      <trkpt lat="43.89955" lon="6.52359">
        <ele>1050.8000488281</ele>
        <time>2022-08-21T13:05:57Z</time>
      </trkpt>
      <trkpt lat="43.89955" lon="6.52358">
        <ele>1050.8000488281</ele>
        <time>2022-08-21T13:06:01Z</time>
      </trkpt>
      <trkpt lat="43.89955" lon="6.52359">
        <ele>1050.8000488281</ele>
        <time>2022-08-21T13:06:09Z</time>
      </trkpt>
      <trkpt lat="43.89954" lon="6.52358">
        <ele>1050.8000488281</ele>
        <time>2022-08-21T13:06:10Z</time>
      </trkpt>
      <trkpt lat="43.89953" lon="6.52357">
        <ele>1050.8000488281</ele>
        <time>2022-08-21T13:06:12Z</time>
      </trkpt>
      <trkpt lat="43.89954" lon="6.52359">
        <ele>1050.8000488281</ele>
        <time>2022-08-21T13:06:16Z</time>
      </trkpt>
      <trkpt lat="43.89954" lon="6.5236">
        <ele>1050.8000488281</ele>
        <time>2022-08-21T13:06:17Z</time>
      </trkpt>
      <trkpt lat="43.89952" lon="6.52371">
        <ele>1050.8000488281</ele>
        <time>2022-08-21T13:06:25Z</time>
      </trkpt>
      <trkpt lat="43.8995" lon="6.52373">
        <ele>1050.8000488281</ele>
        <time>2022-08-21T13:06:32Z</time>
      </trkpt>
      <trkpt lat="43.89949" lon="6.52373">
        <ele>1050.8000488281</ele>
        <time>2022-08-21T13:06:36Z</time>
      </trkpt>
      <trkpt lat="43.89951" lon="6.52374">
        <ele>1050.8000488281</ele>
        <time>2022-08-21T13:06:39Z</time>
      </trkpt>
      <trkpt lat="43.89951" lon="6.52378">
        <ele>1048.4000244141</ele>
        <time>2022-08-21T13:06:43Z</time>
      </trkpt>
      <trkpt lat="43.8995" lon="6.52379">
        <ele>1048.4000244141</ele>
        <time>2022-08-21T13:06:47Z</time>
      </trkpt>
      <trkpt lat="43.89949" lon="6.52379">
        <ele>1048.4000244141</ele>
        <time>2022-08-21T13:06:48Z</time>
      </trkpt>
      <trkpt lat="43.89948" lon="6.5238">
        <ele>1049</ele>
        <time>2022-08-21T13:06:55Z</time>
      </trkpt>
      <trkpt lat="43.89948" lon="6.5238">
        <ele>1049</ele>
        <time>2022-08-21T13:06:56Z</time>
      </trkpt>
      <trkpt lat="43.89944" lon="6.52379">
        <ele>1048.5999755859</ele>
        <time>2022-08-21T13:07:09Z</time>
      </trkpt>
      <trkpt lat="43.89945" lon="6.52381">
        <ele>1048.4000244141</ele>
        <time>2022-08-21T13:07:12Z</time>
      </trkpt>
      <trkpt lat="43.89945" lon="6.52391">
        <ele>1048.4000244141</ele>
        <time>2022-08-21T13:07:24Z</time>
      </trkpt>
      <trkpt lat="43.89945" lon="6.52392">
        <ele>1048.4000244141</ele>
        <time>2022-08-21T13:07:26Z</time>
      </trkpt>
      <trkpt lat="43.89945" lon="6.52387">
        <ele>1048.4000244141</ele>
        <time>2022-08-21T13:07:31Z</time>
      </trkpt>
      <trkpt lat="43.89945" lon="6.52378">
        <ele>1047.5999755859</ele>
        <time>2022-08-21T13:07:38Z</time>
      </trkpt>
      <trkpt lat="43.89945" lon="6.52377">
        <ele>1047.5999755859</ele>
        <time>2022-08-21T13:07:40Z</time>
      </trkpt>
      <trkpt lat="43.89946" lon="6.52378">
        <ele>1047.8000488281</ele>
        <time>2022-08-21T13:07:45Z</time>
      </trkpt>
      <trkpt lat="43.89946" lon="6.52379">
        <ele>1047.5999755859</ele>
        <time>2022-08-21T13:07:48Z</time>
      </trkpt>
      <trkpt lat="43.89947" lon="6.52378">
        <ele>1047.8000488281</ele>
        <time>2022-08-21T13:07:55Z</time>
      </trkpt>
      <trkpt lat="43.89948" lon="6.52377">
        <ele>1048.1999511719</ele>
        <time>2022-08-21T13:08:02Z</time>
      </trkpt>
      <trkpt lat="43.89947" lon="6.52374">
        <ele>1048.4000244141</ele>
        <time>2022-08-21T13:08:05Z</time>
      </trkpt>
      <trkpt lat="43.8995" lon="6.5237">
        <ele>1048.5999755859</ele>
        <time>2022-08-21T13:08:14Z</time>
      </trkpt>
      <trkpt lat="43.8995" lon="6.5237">
        <ele>1049</ele>
        <time>2022-08-21T13:08:19Z</time>
      </trkpt>
      <trkpt lat="43.89952" lon="6.52365">
        <ele>1049.1999511719</ele>
        <time>2022-08-21T13:08:32Z</time>
      </trkpt>
      <trkpt lat="43.89951" lon="6.52363">
        <ele>1049.4000244141</ele>
        <time>2022-08-21T13:08:34Z</time>
      </trkpt>
      <trkpt lat="43.8995" lon="6.52359">
        <ele>1049.5999755859</ele>
        <time>2022-08-21T13:08:42Z</time>
      </trkpt>
      <trkpt lat="43.8995" lon="6.52358">
        <ele>1049.4000244141</ele>
        <time>2022-08-21T13:08:45Z</time>
      </trkpt>
      <trkpt lat="43.8995" lon="6.52357">
        <ele>1049.5999755859</ele>
        <time>2022-08-21T13:08:56Z</time>
      </trkpt>
      <trkpt lat="43.8995" lon="6.52359">
        <ele>1049.8000488281</ele>
        <time>2022-08-21T13:09:03Z</time>
      </trkpt>
      <trkpt lat="43.8995" lon="6.52359">
        <ele>1049.8000488281</ele>
        <time>2022-08-21T13:09:07Z</time>
      </trkpt>
      <trkpt lat="43.8995" lon="6.52359">
        <ele>1049.8000488281</ele>
        <time>2022-08-21T13:09:08Z</time>
      </trkpt>
      <trkpt lat="43.8995" lon="6.52359">
        <ele>1049.8000488281</ele>
        <time>2022-08-21T13:09:10Z</time>
      </trkpt>
      <trkpt lat="43.8995" lon="6.52359">
        <ele>1050</ele>
        <time>2022-08-21T13:09:13Z</time>
      </trkpt>
      <trkpt lat="43.8995" lon="6.52362">
        <ele>1050.4000244141</ele>
        <time>2022-08-21T13:09:20Z</time>
      </trkpt>
      <trkpt lat="43.89951" lon="6.52371">
        <ele>1049.8000488281</ele>
        <time>2022-08-21T13:09:24Z</time>
      </trkpt>
      <trkpt lat="43.89947" lon="6.52382">
        <ele>1048.1999511719</ele>
        <time>2022-08-21T13:09:27Z</time>
      </trkpt>
      <trkpt lat="43.8995" lon="6.52397">
        <ele>1048</ele>
        <time>2022-08-21T13:09:31Z</time>
      </trkpt>
      <trkpt lat="43.89951" lon="6.524">
        <ele>1048.1999511719</ele>
        <time>2022-08-21T13:09:32Z</time>
      </trkpt>
      <trkpt lat="43.89954" lon="6.52416">
        <ele>1048.4000244141</ele>
        <time>2022-08-21T13:09:39Z</time>
      </trkpt>
      <trkpt lat="43.89954" lon="6.52429">
        <ele>1047.5999755859</ele>
        <time>2022-08-21T13:09:43Z</time>
      </trkpt>
      <trkpt lat="43.89954" lon="6.52433">
        <ele>1047.4000244141</ele>
        <time>2022-08-21T13:09:44Z</time>
      </trkpt>
      <trkpt lat="43.89952" lon="6.52439">
        <ele>1047.1999511719</ele>
        <time>2022-08-21T13:09:46Z</time>
      </trkpt>
      <trkpt lat="43.89952" lon="6.52452">
        <ele>1046.5999755859</ele>
        <time>2022-08-21T13:09:51Z</time>
      </trkpt>
      <trkpt lat="43.89951" lon="6.52455">
        <ele>1046.5999755859</ele>
        <time>2022-08-21T13:09:52Z</time>
      </trkpt>
      <trkpt lat="43.89949" lon="6.52466">
        <ele>1046.1999511719</ele>
        <time>2022-08-21T13:09:55Z</time>
      </trkpt>
      <trkpt lat="43.89949" lon="6.5247">
        <ele>1046.1999511719</ele>
        <time>2022-08-21T13:09:56Z</time>
      </trkpt>
      <trkpt lat="43.89946" lon="6.52485">
        <ele>1046</ele>
        <time>2022-08-21T13:09:59Z</time>
      </trkpt>
      <trkpt lat="43.89939" lon="6.52521">
        <ele>1045.4000244141</ele>
        <time>2022-08-21T13:10:06Z</time>
      </trkpt>
      <trkpt lat="43.89939" lon="6.52546">
        <ele>1045</ele>
        <time>2022-08-21T13:10:11Z</time>
      </trkpt>
      <trkpt lat="43.89939" lon="6.52552">
        <ele>1044.8000488281</ele>
        <time>2022-08-21T13:10:12Z</time>
      </trkpt>
      <trkpt lat="43.89941" lon="6.52572">
        <ele>1043.8000488281</ele>
        <time>2022-08-21T13:10:15Z</time>
      </trkpt>
      <trkpt lat="43.89942" lon="6.52579">
        <ele>1043.5999755859</ele>
        <time>2022-08-21T13:10:16Z</time>
      </trkpt>
      <trkpt lat="43.89943" lon="6.52591">
        <ele>1043.4000244141</ele>
        <time>2022-08-21T13:10:18Z</time>
      </trkpt>
      <trkpt lat="43.89943" lon="6.52597">
        <ele>1043.4000244141</ele>
        <time>2022-08-21T13:10:19Z</time>
      </trkpt>
      <trkpt lat="43.89943" lon="6.52609">
        <ele>1044.1999511719</ele>
        <time>2022-08-21T13:10:23Z</time>
      </trkpt>
      <trkpt lat="43.89942" lon="6.52615">
        <ele>1045.1999511719</ele>
        <time>2022-08-21T13:10:26Z</time>
      </trkpt>
      <trkpt lat="43.89942" lon="6.52619">
        <ele>1045.4000244141</ele>
        <time>2022-08-21T13:10:28Z</time>
      </trkpt>
      <trkpt lat="43.89941" lon="6.52627">
        <ele>1046.1999511719</ele>
        <time>2022-08-21T13:10:32Z</time>
      </trkpt>
      <trkpt lat="43.8994" lon="6.52629">
        <ele>1046.4000244141</ele>
        <time>2022-08-21T13:10:34Z</time>
      </trkpt>
      <trkpt lat="43.89939" lon="6.52633">
        <ele>1047</ele>
        <time>2022-08-21T13:10:37Z</time>
      </trkpt>
      <trkpt lat="43.8994" lon="6.52636">
        <ele>1047.4000244141</ele>
        <time>2022-08-21T13:10:39Z</time>
      </trkpt>
      <trkpt lat="43.89939" lon="6.52637">
        <ele>1047.4000244141</ele>
        <time>2022-08-21T13:10:40Z</time>
      </trkpt>
      <trkpt lat="43.89939" lon="6.52638">
        <ele>1047.8000488281</ele>
        <time>2022-08-21T13:10:44Z</time>
      </trkpt>
      <trkpt lat="43.89939" lon="6.52638">
        <ele>1048</ele>
        <time>2022-08-21T13:10:46Z</time>
      </trkpt>
      <trkpt lat="43.89939" lon="6.52638">
        <ele>1048</ele>
        <time>2022-08-21T13:10:47Z</time>
      </trkpt>
      <trkpt lat="43.89939" lon="6.52638">
        <ele>1048</ele>
        <time>2022-08-21T13:10:48Z</time>
      </trkpt>
      <trkpt lat="43.89939" lon="6.52638">
        <ele>1048.4000244141</ele>
        <time>2022-08-21T13:10:49Z</time>
      </trkpt>
      <trkpt lat="43.89938" lon="6.52638">
        <ele>1048.4000244141</ele>
        <time>2022-08-21T13:11:00Z</time>
      </trkpt>
      <trkpt lat="43.89937" lon="6.52637">
        <ele>1048.4000244141</ele>
        <time>2022-08-21T13:11:11Z</time>
      </trkpt>
      <trkpt lat="43.89937" lon="6.52637">
        <ele>1048.4000244141</ele>
        <time>2022-08-21T13:11:17Z</time>
      </trkpt>
      <trkpt lat="43.89937" lon="6.52637">
        <ele>1048.4000244141</ele>
        <time>2022-08-21T13:11:19Z</time>
      </trkpt>
      <trkpt lat="43.89937" lon="6.52637">
        <ele>1048.4000244141</ele>
        <time>2022-08-21T13:11:28Z</time>
      </trkpt>
      <trkpt lat="43.89937" lon="6.52637">
        <ele>1048.4000244141</ele>
        <time>2022-08-21T13:11:30Z</time>
      </trkpt>
      <trkpt lat="43.89937" lon="6.52637">
        <ele>1048.4000244141</ele>
        <time>2022-08-21T13:11:31Z</time>
      </trkpt>
      <trkpt lat="43.89937" lon="6.52637">
        <ele>1048.4000244141</ele>
        <time>2022-08-21T13:11:33Z</time>
      </trkpt>
      <trkpt lat="43.89937" lon="6.52637">
        <ele>1048.4000244141</ele>
        <time>2022-08-21T13:11:37Z</time>
      </trkpt>
      <trkpt lat="43.89937" lon="6.52637">
        <ele>1048.4000244141</ele>
        <time>2022-08-21T13:11:42Z</time>
      </trkpt>
      <trkpt lat="43.89938" lon="6.52637">
        <ele>1048.4000244141</ele>
        <time>2022-08-21T13:11:44Z</time>
      </trkpt>
      <trkpt lat="43.89938" lon="6.52637">
        <ele>1048.4000244141</ele>
        <time>2022-08-21T13:11:48Z</time>
      </trkpt>
      <trkpt lat="43.89938" lon="6.52637">
        <ele>1048.4000244141</ele>
        <time>2022-08-21T13:11:51Z</time>
      </trkpt>
      <trkpt lat="43.89938" lon="6.52637">
        <ele>1048.4000244141</ele>
        <time>2022-08-21T13:11:55Z</time>
      </trkpt>
      <trkpt lat="43.89938" lon="6.52636">
        <ele>1048.4000244141</ele>
        <time>2022-08-21T13:12:08Z</time>
      </trkpt>
      <trkpt lat="43.89938" lon="6.52636">
        <ele>1048.4000244141</ele>
        <time>2022-08-21T13:12:15Z</time>
      </trkpt>
      <trkpt lat="43.89939" lon="6.52631">
        <ele>1048.4000244141</ele>
        <time>2022-08-21T13:12:20Z</time>
      </trkpt>
      <trkpt lat="43.89939" lon="6.52623">
        <ele>1048.4000244141</ele>
        <time>2022-08-21T13:12:22Z</time>
      </trkpt>
      <trkpt lat="43.8994" lon="6.52612">
        <ele>1048.4000244141</ele>
        <time>2022-08-21T13:12:24Z</time>
      </trkpt>
      <trkpt lat="43.89938" lon="6.52575">
        <ele>1047.4000244141</ele>
        <time>2022-08-21T13:12:29Z</time>
      </trkpt>
      <trkpt lat="43.89936" lon="6.52561">
        <ele>1046.8000488281</ele>
        <time>2022-08-21T13:12:31Z</time>
      </trkpt>
      <trkpt lat="43.89936" lon="6.52546">
        <ele>1046.8000488281</ele>
        <time>2022-08-21T13:12:34Z</time>
      </trkpt>
      <trkpt lat="43.89936" lon="6.52534">
        <ele>1047.1999511719</ele>
        <time>2022-08-21T13:12:38Z</time>
      </trkpt>
      <trkpt lat="43.89936" lon="6.52531">
        <ele>1047.4000244141</ele>
        <time>2022-08-21T13:12:39Z</time>
      </trkpt>
      <trkpt lat="43.89937" lon="6.52516">
        <ele>1048</ele>
        <time>2022-08-21T13:12:43Z</time>
      </trkpt>
      <trkpt lat="43.89938" lon="6.52513">
        <ele>1048</ele>
        <time>2022-08-21T13:12:44Z</time>
      </trkpt>
      <trkpt lat="43.89941" lon="6.52505">
        <ele>1048.1999511719</ele>
        <time>2022-08-21T13:12:46Z</time>
      </trkpt>
      <trkpt lat="43.89943" lon="6.52496">
        <ele>1048.1999511719</ele>
        <time>2022-08-21T13:12:48Z</time>
      </trkpt>
      <trkpt lat="43.89945" lon="6.52488">
        <ele>1048.4000244141</ele>
        <time>2022-08-21T13:12:50Z</time>
      </trkpt>
      <trkpt lat="43.89947" lon="6.5248">
        <ele>1048.5999755859</ele>
        <time>2022-08-21T13:12:52Z</time>
      </trkpt>
      <trkpt lat="43.89949" lon="6.52477">
        <ele>1048.5999755859</ele>
        <time>2022-08-21T13:12:53Z</time>
      </trkpt>
      <trkpt lat="43.89951" lon="6.52469">
        <ele>1049</ele>
        <time>2022-08-21T13:12:56Z</time>
      </trkpt>
      <trkpt lat="43.89951" lon="6.52462">
        <ele>1049.1999511719</ele>
        <time>2022-08-21T13:12:58Z</time>
      </trkpt>
      <trkpt lat="43.89951" lon="6.52454">
        <ele>1049.5999755859</ele>
        <time>2022-08-21T13:13:01Z</time>
      </trkpt>
      <trkpt lat="43.89951" lon="6.52446">
        <ele>1050</ele>
        <time>2022-08-21T13:13:05Z</time>
      </trkpt>
      <trkpt lat="43.89952" lon="6.52444">
        <ele>1050.1999511719</ele>
        <time>2022-08-21T13:13:08Z</time>
      </trkpt>
      <trkpt lat="43.89952" lon="6.52444">
        <ele>1050.1999511719</ele>
        <time>2022-08-21T13:13:09Z</time>
      </trkpt>
      <trkpt lat="43.89952" lon="6.52444">
        <ele>1050.4000244141</ele>
        <time>2022-08-21T13:13:10Z</time>
      </trkpt>
      <trkpt lat="43.89952" lon="6.52444">
        <ele>1050.1999511719</ele>
        <time>2022-08-21T13:13:13Z</time>
      </trkpt>
      <trkpt lat="43.89952" lon="6.52444">
        <ele>1050.1999511719</ele>
        <time>2022-08-21T13:13:17Z</time>
      </trkpt>
      <trkpt lat="43.89952" lon="6.52444">
        <ele>1050.4000244141</ele>
        <time>2022-08-21T13:13:22Z</time>
      </trkpt>
      <trkpt lat="43.89952" lon="6.52444">
        <ele>1050.5999755859</ele>
        <time>2022-08-21T13:13:23Z</time>
      </trkpt>
      <trkpt lat="43.89953" lon="6.52444">
        <ele>1050.4000244141</ele>
        <time>2022-08-21T13:13:31Z</time>
      </trkpt>
      <trkpt lat="43.89952" lon="6.52443">
        <ele>1050.4000244141</ele>
        <time>2022-08-21T13:13:37Z</time>
      </trkpt>
      <trkpt lat="43.89952" lon="6.52435">
        <ele>1050.5999755859</ele>
        <time>2022-08-21T13:13:42Z</time>
      </trkpt>
      <trkpt lat="43.89953" lon="6.52432">
        <ele>1050.5999755859</ele>
        <time>2022-08-21T13:13:44Z</time>
      </trkpt>
      <trkpt lat="43.89954" lon="6.52421">
        <ele>1050.5999755859</ele>
        <time>2022-08-21T13:13:49Z</time>
      </trkpt>
      <trkpt lat="43.89952" lon="6.52409">
        <ele>1051.1999511719</ele>
        <time>2022-08-21T13:13:55Z</time>
      </trkpt>
      <trkpt lat="43.89952" lon="6.52407">
        <ele>1051.1999511719</ele>
        <time>2022-08-21T13:13:56Z</time>
      </trkpt>
      <trkpt lat="43.8995" lon="6.52399">
        <ele>1051</ele>
        <time>2022-08-21T13:14:00Z</time>
      </trkpt>
      <trkpt lat="43.89947" lon="6.52389">
        <ele>1050.8000488281</ele>
        <time>2022-08-21T13:14:03Z</time>
      </trkpt>
      <trkpt lat="43.89949" lon="6.52371">
        <ele>1050.8000488281</ele>
        <time>2022-08-21T13:14:08Z</time>
      </trkpt>
      <trkpt lat="43.89951" lon="6.52358">
        <ele>1051.8000488281</ele>
        <time>2022-08-21T13:14:13Z</time>
      </trkpt>
      <trkpt lat="43.89951" lon="6.52352">
        <ele>1052.1999511719</ele>
        <time>2022-08-21T13:14:16Z</time>
      </trkpt>
      <trkpt lat="43.89953" lon="6.52348">
        <ele>1052.4000244141</ele>
        <time>2022-08-21T13:14:18Z</time>
      </trkpt>
      <trkpt lat="43.89964" lon="6.52334">
        <ele>1052.1999511719</ele>
        <time>2022-08-21T13:14:25Z</time>
      </trkpt>
      <trkpt lat="43.89969" lon="6.52329">
        <ele>1052</ele>
        <time>2022-08-21T13:14:28Z</time>
      </trkpt>
      <trkpt lat="43.89972" lon="6.52326">
        <ele>1052</ele>
        <time>2022-08-21T13:14:30Z</time>
      </trkpt>
      <trkpt lat="43.89975" lon="6.52321">
        <ele>1052</ele>
        <time>2022-08-21T13:14:33Z</time>
      </trkpt>
      <trkpt lat="43.89976" lon="6.52319">
        <ele>1052</ele>
        <time>2022-08-21T13:14:34Z</time>
      </trkpt>
      <trkpt lat="43.89983" lon="6.52315">
        <ele>1052.4000244141</ele>
        <time>2022-08-21T13:14:39Z</time>
      </trkpt>
      <trkpt lat="43.89985" lon="6.52316">
        <ele>1052.4000244141</ele>
        <time>2022-08-21T13:14:44Z</time>
      </trkpt>
      <trkpt lat="43.89985" lon="6.52316">
        <ele>1052.4000244141</ele>
        <time>2022-08-21T13:14:45Z</time>
      </trkpt>
      <trkpt lat="43.89986" lon="6.52316">
        <ele>1052.1999511719</ele>
        <time>2022-08-21T13:14:51Z</time>
      </trkpt>
      <trkpt lat="43.89986" lon="6.52317">
        <ele>1052</ele>
        <time>2022-08-21T13:14:57Z</time>
      </trkpt>
      <trkpt lat="43.89986" lon="6.52317">
        <ele>1052</ele>
        <time>2022-08-21T13:15:01Z</time>
      </trkpt>
      <trkpt lat="43.89986" lon="6.52317">
        <ele>1052</ele>
        <time>2022-08-21T13:15:04Z</time>
      </trkpt>
      <trkpt lat="43.89986" lon="6.52317">
        <ele>1052</ele>
        <time>2022-08-21T13:15:11Z</time>
      </trkpt>
      <trkpt lat="43.89986" lon="6.52316">
        <ele>1052.1999511719</ele>
        <time>2022-08-21T13:15:20Z</time>
      </trkpt>
      <trkpt lat="43.8999" lon="6.52313">
        <ele>1052.1999511719</ele>
        <time>2022-08-21T13:15:27Z</time>
      </trkpt>
      <trkpt lat="43.89994" lon="6.52309">
        <ele>1052.1999511719</ele>
        <time>2022-08-21T13:15:30Z</time>
      </trkpt>
      <trkpt lat="43.9" lon="6.52305">
        <ele>1053.8000488281</ele>
        <time>2022-08-21T13:15:33Z</time>
      </trkpt>
      <trkpt lat="43.90004" lon="6.52303">
        <ele>1053.8000488281</ele>
        <time>2022-08-21T13:15:35Z</time>
      </trkpt>
      <trkpt lat="43.90008" lon="6.52301">
        <ele>1053.8000488281</ele>
        <time>2022-08-21T13:15:37Z</time>
      </trkpt>
      <trkpt lat="43.90015" lon="6.52295">
        <ele>1054.5999755859</ele>
        <time>2022-08-21T13:15:42Z</time>
      </trkpt>
      <trkpt lat="43.90017" lon="6.52292">
        <ele>1054.8000488281</ele>
        <time>2022-08-21T13:15:44Z</time>
      </trkpt>
      <trkpt lat="43.90018" lon="6.52278">
        <ele>1055.8000488281</ele>
        <time>2022-08-21T13:15:50Z</time>
      </trkpt>
      <trkpt lat="43.90017" lon="6.52273">
        <ele>1056</ele>
        <time>2022-08-21T13:15:52Z</time>
      </trkpt>
      <trkpt lat="43.90012" lon="6.5226">
        <ele>1056.5999755859</ele>
        <time>2022-08-21T13:15:58Z</time>
      </trkpt>
      <trkpt lat="43.9001" lon="6.52252">
        <ele>1056.8000488281</ele>
        <time>2022-08-21T13:16:01Z</time>
      </trkpt>
      <trkpt lat="43.9001" lon="6.5225">
        <ele>1057</ele>
        <time>2022-08-21T13:16:02Z</time>
      </trkpt>
      <trkpt lat="43.90008" lon="6.5224">
        <ele>1057.4000244141</ele>
        <time>2022-08-21T13:16:06Z</time>
      </trkpt>
      <trkpt lat="43.90008" lon="6.52238">
        <ele>1057.5999755859</ele>
        <time>2022-08-21T13:16:07Z</time>
      </trkpt>
      <trkpt lat="43.90006" lon="6.52231">
        <ele>1058</ele>
        <time>2022-08-21T13:16:10Z</time>
      </trkpt>
      <trkpt lat="43.90003" lon="6.52225">
        <ele>1058.5999755859</ele>
        <time>2022-08-21T13:16:13Z</time>
      </trkpt>
      <trkpt lat="43.90002" lon="6.52216">
        <ele>1059</ele>
        <time>2022-08-21T13:16:17Z</time>
      </trkpt>
      <trkpt lat="43.9" lon="6.52206">
        <ele>1059.8000488281</ele>
        <time>2022-08-21T13:16:21Z</time>
      </trkpt>
      <trkpt lat="43.9" lon="6.52203">
        <ele>1059.8000488281</ele>
        <time>2022-08-21T13:16:22Z</time>
      </trkpt>
      <trkpt lat="43.89996" lon="6.52191">
        <ele>1060.1999511719</ele>
        <time>2022-08-21T13:16:26Z</time>
      </trkpt>
      <trkpt lat="43.89991" lon="6.52178">
        <ele>1060.4000244141</ele>
        <time>2022-08-21T13:16:31Z</time>
      </trkpt>
      <trkpt lat="43.89985" lon="6.52159">
        <ele>1061</ele>
        <time>2022-08-21T13:16:38Z</time>
      </trkpt>
      <trkpt lat="43.89982" lon="6.52148">
        <ele>1061.1999511719</ele>
        <time>2022-08-21T13:16:42Z</time>
      </trkpt>
      <trkpt lat="43.8998" lon="6.52129">
        <ele>1061.4000244141</ele>
        <time>2022-08-21T13:16:47Z</time>
      </trkpt>
      <trkpt lat="43.89973" lon="6.52111">
        <ele>1061.5999755859</ele>
        <time>2022-08-21T13:16:52Z</time>
      </trkpt>
      <trkpt lat="43.89956" lon="6.52101">
        <ele>1062</ele>
        <time>2022-08-21T13:16:58Z</time>
      </trkpt>
      <trkpt lat="43.89953" lon="6.521">
        <ele>1062.1999511719</ele>
        <time>2022-08-21T13:16:59Z</time>
      </trkpt>
      <trkpt lat="43.89935" lon="6.52088">
        <ele>1063.4000244141</ele>
        <time>2022-08-21T13:17:06Z</time>
      </trkpt>
      <trkpt lat="43.89924" lon="6.52079">
        <ele>1064.5999755859</ele>
        <time>2022-08-21T13:17:12Z</time>
      </trkpt>
      <trkpt lat="43.89922" lon="6.52077">
        <ele>1065.1999511719</ele>
        <time>2022-08-21T13:17:14Z</time>
      </trkpt>
      <trkpt lat="43.89918" lon="6.52072">
        <ele>1065.8000488281</ele>
        <time>2022-08-21T13:17:17Z</time>
      </trkpt>
      <trkpt lat="43.89914" lon="6.52067">
        <ele>1066.8000488281</ele>
        <time>2022-08-21T13:17:21Z</time>
      </trkpt>
      <trkpt lat="43.89907" lon="6.52057">
        <ele>1068</ele>
        <time>2022-08-21T13:17:27Z</time>
      </trkpt>
      <trkpt lat="43.89905" lon="6.52054">
        <ele>1068.4000244141</ele>
        <time>2022-08-21T13:17:29Z</time>
      </trkpt>
      <trkpt lat="43.89898" lon="6.52043">
        <ele>1069</ele>
        <time>2022-08-21T13:17:35Z</time>
      </trkpt>
      <trkpt lat="43.89897" lon="6.52041">
        <ele>1069</ele>
        <time>2022-08-21T13:17:36Z</time>
      </trkpt>
      <trkpt lat="43.89895" lon="6.52022">
        <ele>1069.4000244141</ele>
        <time>2022-08-21T13:17:42Z</time>
      </trkpt>
      <trkpt lat="43.89903" lon="6.51994">
        <ele>1069.8000488281</ele>
        <time>2022-08-21T13:17:49Z</time>
      </trkpt>
      <trkpt lat="43.89909" lon="6.51966">
        <ele>1069.8000488281</ele>
        <time>2022-08-21T13:17:55Z</time>
      </trkpt>
      <trkpt lat="43.89914" lon="6.51918">
        <ele>1069.4000244141</ele>
        <time>2022-08-21T13:18:05Z</time>
      </trkpt>
      <trkpt lat="43.89917" lon="6.519">
        <ele>1070.1999511719</ele>
        <time>2022-08-21T13:18:09Z</time>
      </trkpt>
      <trkpt lat="43.89916" lon="6.51882">
        <ele>1070.8000488281</ele>
        <time>2022-08-21T13:18:13Z</time>
      </trkpt>
      <trkpt lat="43.89914" lon="6.51868">
        <ele>1071.1999511719</ele>
        <time>2022-08-21T13:18:16Z</time>
      </trkpt>
      <trkpt lat="43.89908" lon="6.51834">
        <ele>1071</ele>
        <time>2022-08-21T13:18:22Z</time>
      </trkpt>
      <trkpt lat="43.89907" lon="6.51827">
        <ele>1070.8000488281</ele>
        <time>2022-08-21T13:18:23Z</time>
      </trkpt>
      <trkpt lat="43.89906" lon="6.5182">
        <ele>1070.8000488281</ele>
        <time>2022-08-21T13:18:24Z</time>
      </trkpt>
      <trkpt lat="43.89908" lon="6.51799">
        <ele>1070.5999755859</ele>
        <time>2022-08-21T13:18:27Z</time>
      </trkpt>
      <trkpt lat="43.89909" lon="6.51792">
        <ele>1070.5999755859</ele>
        <time>2022-08-21T13:18:28Z</time>
      </trkpt>
      <trkpt lat="43.89915" lon="6.51758">
        <ele>1071.1999511719</ele>
        <time>2022-08-21T13:18:33Z</time>
      </trkpt>
      <trkpt lat="43.89915" lon="6.51744">
        <ele>1071.1999511719</ele>
        <time>2022-08-21T13:18:35Z</time>
      </trkpt>
      <trkpt lat="43.89911" lon="6.51732">
        <ele>1071.1999511719</ele>
        <time>2022-08-21T13:18:37Z</time>
      </trkpt>
      <trkpt lat="43.89907" lon="6.51727">
        <ele>1071.1999511719</ele>
        <time>2022-08-21T13:18:38Z</time>
      </trkpt>
      <trkpt lat="43.89903" lon="6.51724">
        <ele>1071.4000244141</ele>
        <time>2022-08-21T13:18:39Z</time>
      </trkpt>
      <trkpt lat="43.89894" lon="6.51722">
        <ele>1071.4000244141</ele>
        <time>2022-08-21T13:18:41Z</time>
      </trkpt>
      <trkpt lat="43.89875" lon="6.51722">
        <ele>1071.5999755859</ele>
        <time>2022-08-21T13:18:45Z</time>
      </trkpt>
      <trkpt lat="43.89868" lon="6.51728">
        <ele>1071.5999755859</ele>
        <time>2022-08-21T13:18:47Z</time>
      </trkpt>
      <trkpt lat="43.89862" lon="6.51738">
        <ele>1071.4000244141</ele>
        <time>2022-08-21T13:18:49Z</time>
      </trkpt>
      <trkpt lat="43.89855" lon="6.51748">
        <ele>1071.4000244141</ele>
        <time>2022-08-21T13:18:51Z</time>
      </trkpt>
      <trkpt lat="43.89847" lon="6.51754">
        <ele>1071.8000488281</ele>
        <time>2022-08-21T13:18:53Z</time>
      </trkpt>
      <trkpt lat="43.89843" lon="6.51756">
        <ele>1072</ele>
        <time>2022-08-21T13:18:54Z</time>
      </trkpt>
      <trkpt lat="43.89839" lon="6.51758">
        <ele>1072.1999511719</ele>
        <time>2022-08-21T13:18:55Z</time>
      </trkpt>
      <trkpt lat="43.89827" lon="6.51761">
        <ele>1073.1999511719</ele>
        <time>2022-08-21T13:18:58Z</time>
      </trkpt>
      <trkpt lat="43.89821" lon="6.51764">
        <ele>1073.5999755859</ele>
        <time>2022-08-21T13:19:00Z</time>
      </trkpt>
      <trkpt lat="43.89809" lon="6.51767">
        <ele>1074.5999755859</ele>
        <time>2022-08-21T13:19:04Z</time>
      </trkpt>
      <trkpt lat="43.89804" lon="6.51769">
        <ele>1075.5999755859</ele>
        <time>2022-08-21T13:19:06Z</time>
      </trkpt>
      <trkpt lat="43.89801" lon="6.51771">
        <ele>1075.8000488281</ele>
        <time>2022-08-21T13:19:07Z</time>
      </trkpt>
      <trkpt lat="43.89787" lon="6.51781">
        <ele>1076.5999755859</ele>
        <time>2022-08-21T13:19:13Z</time>
      </trkpt>
      <trkpt lat="43.89783" lon="6.51785">
        <ele>1076.8000488281</ele>
        <time>2022-08-21T13:19:15Z</time>
      </trkpt>
      <trkpt lat="43.89775" lon="6.51792">
        <ele>1077.4000244141</ele>
        <time>2022-08-21T13:19:19Z</time>
      </trkpt>
      <trkpt lat="43.89771" lon="6.51795">
        <ele>1077.5999755859</ele>
        <time>2022-08-21T13:19:21Z</time>
      </trkpt>
      <trkpt lat="43.89767" lon="6.51797">
        <ele>1078</ele>
        <time>2022-08-21T13:19:23Z</time>
      </trkpt>
      <trkpt lat="43.89756" lon="6.518">
        <ele>1079</ele>
        <time>2022-08-21T13:19:29Z</time>
      </trkpt>
      <trkpt lat="43.89754" lon="6.51801">
        <ele>1079</ele>
        <time>2022-08-21T13:19:30Z</time>
      </trkpt>
      <trkpt lat="43.89741" lon="6.51805">
        <ele>1080.1999511719</ele>
        <time>2022-08-21T13:19:37Z</time>
      </trkpt>
      <trkpt lat="43.89737" lon="6.51809">
        <ele>1080.4000244141</ele>
        <time>2022-08-21T13:19:39Z</time>
      </trkpt>
      <trkpt lat="43.8972" lon="6.51815">
        <ele>1081.1999511719</ele>
        <time>2022-08-21T13:19:47Z</time>
      </trkpt>
      <trkpt lat="43.89718" lon="6.51814">
        <ele>1081.4000244141</ele>
        <time>2022-08-21T13:19:48Z</time>
      </trkpt>
      <trkpt lat="43.89704" lon="6.5181">
        <ele>1082.1999511719</ele>
        <time>2022-08-21T13:19:54Z</time>
      </trkpt>
      <trkpt lat="43.89701" lon="6.51809">
        <ele>1082.4000244141</ele>
        <time>2022-08-21T13:19:55Z</time>
      </trkpt>
      <trkpt lat="43.89684" lon="6.51799">
        <ele>1082.8000488281</ele>
        <time>2022-08-21T13:20:03Z</time>
      </trkpt>
      <trkpt lat="43.89676" lon="6.51793">
        <ele>1083.4000244141</ele>
        <time>2022-08-21T13:20:07Z</time>
      </trkpt>
      <trkpt lat="43.89668" lon="6.51782">
        <ele>1084.4000244141</ele>
        <time>2022-08-21T13:20:12Z</time>
      </trkpt>
      <trkpt lat="43.89667" lon="6.51779">
        <ele>1084.5999755859</ele>
        <time>2022-08-21T13:20:13Z</time>
      </trkpt>
      <trkpt lat="43.89654" lon="6.51758">
        <ele>1085.1999511719</ele>
        <time>2022-08-21T13:20:21Z</time>
      </trkpt>
      <trkpt lat="43.89649" lon="6.51748">
        <ele>1085.5999755859</ele>
        <time>2022-08-21T13:20:25Z</time>
      </trkpt>
      <trkpt lat="43.89645" lon="6.51741">
        <ele>1086.1999511719</ele>
        <time>2022-08-21T13:20:29Z</time>
      </trkpt>
      <trkpt lat="43.89642" lon="6.51736">
        <ele>1086.8000488281</ele>
        <time>2022-08-21T13:20:32Z</time>
      </trkpt>
      <trkpt lat="43.89636" lon="6.51729">
        <ele>1087.5999755859</ele>
        <time>2022-08-21T13:20:37Z</time>
      </trkpt>
      <trkpt lat="43.89633" lon="6.51725">
        <ele>1087.8000488281</ele>
        <time>2022-08-21T13:20:40Z</time>
      </trkpt>
      <trkpt lat="43.89627" lon="6.51718">
        <ele>1088.4000244141</ele>
        <time>2022-08-21T13:20:45Z</time>
      </trkpt>
      <trkpt lat="43.89624" lon="6.51716">
        <ele>1088.8000488281</ele>
        <time>2022-08-21T13:20:47Z</time>
      </trkpt>
      <trkpt lat="43.89617" lon="6.51708">
        <ele>1089.5999755859</ele>
        <time>2022-08-21T13:20:53Z</time>
      </trkpt>
      <trkpt lat="43.89612" lon="6.51702">
        <ele>1089.8000488281</ele>
        <time>2022-08-21T13:20:58Z</time>
      </trkpt>
      <trkpt lat="43.89606" lon="6.51697">
        <ele>1090.4000244141</ele>
        <time>2022-08-21T13:21:02Z</time>
      </trkpt>
      <trkpt lat="43.89603" lon="6.51693">
        <ele>1091</ele>
        <time>2022-08-21T13:21:05Z</time>
      </trkpt>
      <trkpt lat="43.89598" lon="6.51685">
        <ele>1092</ele>
        <time>2022-08-21T13:21:10Z</time>
      </trkpt>
      <trkpt lat="43.89597" lon="6.51683">
        <ele>1092.1999511719</ele>
        <time>2022-08-21T13:21:11Z</time>
      </trkpt>
      <trkpt lat="43.89592" lon="6.51675">
        <ele>1093</ele>
        <time>2022-08-21T13:21:16Z</time>
      </trkpt>
      <trkpt lat="43.89586" lon="6.51666">
        <ele>1093.8000488281</ele>
        <time>2022-08-21T13:21:21Z</time>
      </trkpt>
      <trkpt lat="43.89583" lon="6.5166">
        <ele>1094.1999511719</ele>
        <time>2022-08-21T13:21:24Z</time>
      </trkpt>
      <trkpt lat="43.89575" lon="6.51648">
        <ele>1095.1999511719</ele>
        <time>2022-08-21T13:21:32Z</time>
      </trkpt>
      <trkpt lat="43.89573" lon="6.51646">
        <ele>1095.1999511719</ele>
        <time>2022-08-21T13:21:33Z</time>
      </trkpt>
      <trkpt lat="43.89562" lon="6.51633">
        <ele>1096.1999511719</ele>
        <time>2022-08-21T13:21:41Z</time>
      </trkpt>
      <trkpt lat="43.89561" lon="6.51631">
        <ele>1096.1999511719</ele>
        <time>2022-08-21T13:21:42Z</time>
      </trkpt>
      <trkpt lat="43.89552" lon="6.51613">
        <ele>1097</ele>
        <time>2022-08-21T13:21:51Z</time>
      </trkpt>
      <trkpt lat="43.89546" lon="6.51601">
        <ele>1097.4000244141</ele>
        <time>2022-08-21T13:21:57Z</time>
      </trkpt>
      <trkpt lat="43.8954" lon="6.51592">
        <ele>1097.5999755859</ele>
        <time>2022-08-21T13:22:01Z</time>
      </trkpt>
      <trkpt lat="43.89526" lon="6.51576">
        <ele>1097.8000488281</ele>
        <time>2022-08-21T13:22:08Z</time>
      </trkpt>
      <trkpt lat="43.89524" lon="6.51573">
        <ele>1098</ele>
        <time>2022-08-21T13:22:09Z</time>
      </trkpt>
      <trkpt lat="43.89514" lon="6.51562">
        <ele>1098.4000244141</ele>
        <time>2022-08-21T13:22:14Z</time>
      </trkpt>
      <trkpt lat="43.8951" lon="6.51555">
        <ele>1098.8000488281</ele>
        <time>2022-08-21T13:22:17Z</time>
      </trkpt>
      <trkpt lat="43.89501" lon="6.51541">
        <ele>1099.5999755859</ele>
        <time>2022-08-21T13:22:23Z</time>
      </trkpt>
      <trkpt lat="43.89497" lon="6.51533">
        <ele>1100</ele>
        <time>2022-08-21T13:22:26Z</time>
      </trkpt>
      <trkpt lat="43.8949" lon="6.51505">
        <ele>1100.4000244141</ele>
        <time>2022-08-21T13:22:35Z</time>
      </trkpt>
      <trkpt lat="43.89488" lon="6.51496">
        <ele>1100.5999755859</ele>
        <time>2022-08-21T13:22:38Z</time>
      </trkpt>
      <trkpt lat="43.89484" lon="6.51483">
        <ele>1101</ele>
        <time>2022-08-21T13:22:42Z</time>
      </trkpt>
      <trkpt lat="43.89475" lon="6.51467">
        <ele>1101.5999755859</ele>
        <time>2022-08-21T13:22:49Z</time>
      </trkpt>
      <trkpt lat="43.89474" lon="6.51464">
        <ele>1101.8000488281</ele>
        <time>2022-08-21T13:22:50Z</time>
      </trkpt>
      <trkpt lat="43.89461" lon="6.51443">
        <ele>1102.5999755859</ele>
        <time>2022-08-21T13:22:59Z</time>
      </trkpt>
      <trkpt lat="43.89451" lon="6.51426">
        <ele>1103.8000488281</ele>
        <time>2022-08-21T13:23:06Z</time>
      </trkpt>
      <trkpt lat="43.89446" lon="6.51418">
        <ele>1103.8000488281</ele>
        <time>2022-08-21T13:23:09Z</time>
      </trkpt>
      <trkpt lat="43.89443" lon="6.51412">
        <ele>1103.8000488281</ele>
        <time>2022-08-21T13:23:11Z</time>
      </trkpt>
      <trkpt lat="43.89437" lon="6.51394">
        <ele>1105</ele>
        <time>2022-08-21T13:23:17Z</time>
      </trkpt>
      <trkpt lat="43.89437" lon="6.51374">
        <ele>1105.8000488281</ele>
        <time>2022-08-21T13:23:23Z</time>
      </trkpt>
      <trkpt lat="43.89437" lon="6.51371">
        <ele>1106</ele>
        <time>2022-08-21T13:23:24Z</time>
      </trkpt>
      <trkpt lat="43.89435" lon="6.51346">
        <ele>1106.4000244141</ele>
        <time>2022-08-21T13:23:30Z</time>
      </trkpt>
      <trkpt lat="43.89432" lon="6.5132">
        <ele>1106.5999755859</ele>
        <time>2022-08-21T13:23:37Z</time>
      </trkpt>
      <trkpt lat="43.8943" lon="6.51307">
        <ele>1107.1999511719</ele>
        <time>2022-08-21T13:23:41Z</time>
      </trkpt>
      <trkpt lat="43.89428" lon="6.51297">
        <ele>1107.5999755859</ele>
        <time>2022-08-21T13:23:44Z</time>
      </trkpt>
      <trkpt lat="43.89424" lon="6.51286">
        <ele>1108.1999511719</ele>
        <time>2022-08-21T13:23:48Z</time>
      </trkpt>
      <trkpt lat="43.89416" lon="6.51275">
        <ele>1109</ele>
        <time>2022-08-21T13:23:53Z</time>
      </trkpt>
      <trkpt lat="43.89413" lon="6.51271">
        <ele>1109.1999511719</ele>
        <time>2022-08-21T13:23:55Z</time>
      </trkpt>
      <trkpt lat="43.89406" lon="6.51261">
        <ele>1110.4000244141</ele>
        <time>2022-08-21T13:24:01Z</time>
      </trkpt>
      <trkpt lat="43.89405" lon="6.51259">
        <ele>1110.5999755859</ele>
        <time>2022-08-21T13:24:02Z</time>
      </trkpt>
      <trkpt lat="43.89398" lon="6.51252">
        <ele>1111.4000244141</ele>
        <time>2022-08-21T13:24:08Z</time>
      </trkpt>
      <trkpt lat="43.89397" lon="6.51251">
        <ele>1111.5999755859</ele>
        <time>2022-08-21T13:24:09Z</time>
      </trkpt>
      <trkpt lat="43.89387" lon="6.51243">
        <ele>1112.1999511719</ele>
        <time>2022-08-21T13:24:16Z</time>
      </trkpt>
      <trkpt lat="43.89384" lon="6.51242">
        <ele>1112.4000244141</ele>
        <time>2022-08-21T13:24:18Z</time>
      </trkpt>
      <trkpt lat="43.89376" lon="6.51232">
        <ele>1113.4000244141</ele>
        <time>2022-08-21T13:24:25Z</time>
      </trkpt>
      <trkpt lat="43.89374" lon="6.51229">
        <ele>1113.5999755859</ele>
        <time>2022-08-21T13:24:27Z</time>
      </trkpt>
      <trkpt lat="43.89367" lon="6.51217">
        <ele>1114.1999511719</ele>
        <time>2022-08-21T13:24:34Z</time>
      </trkpt>
      <trkpt lat="43.89366" lon="6.51213">
        <ele>1114.5999755859</ele>
        <time>2022-08-21T13:24:36Z</time>
      </trkpt>
      <trkpt lat="43.89367" lon="6.51209">
        <ele>1114.8000488281</ele>
        <time>2022-08-21T13:24:38Z</time>
      </trkpt>
      <trkpt lat="43.89368" lon="6.51207">
        <ele>1115</ele>
        <time>2022-08-21T13:24:39Z</time>
      </trkpt>
      <trkpt lat="43.8937" lon="6.51204">
        <ele>1115.1999511719</ele>
        <time>2022-08-21T13:24:41Z</time>
      </trkpt>
      <trkpt lat="43.8937" lon="6.512">
        <ele>1115.4000244141</ele>
        <time>2022-08-21T13:24:43Z</time>
      </trkpt>
      <trkpt lat="43.89369" lon="6.51199">
        <ele>1115.4000244141</ele>
        <time>2022-08-21T13:24:44Z</time>
      </trkpt>
      <trkpt lat="43.89355" lon="6.51192">
        <ele>1115.5999755859</ele>
        <time>2022-08-21T13:24:53Z</time>
      </trkpt>
      <trkpt lat="43.89351" lon="6.51184">
        <ele>1117</ele>
        <time>2022-08-21T13:24:58Z</time>
      </trkpt>
      <trkpt lat="43.89347" lon="6.51174">
        <ele>1117.8000488281</ele>
        <time>2022-08-21T13:25:03Z</time>
      </trkpt>
      <trkpt lat="43.89346" lon="6.51171">
        <ele>1118</ele>
        <time>2022-08-21T13:25:05Z</time>
      </trkpt>
      <trkpt lat="43.89342" lon="6.51152">
        <ele>1119.1999511719</ele>
        <time>2022-08-21T13:25:14Z</time>
      </trkpt>
      <trkpt lat="43.89341" lon="6.5115">
        <ele>1119.4000244141</ele>
        <time>2022-08-21T13:25:15Z</time>
      </trkpt>
      <trkpt lat="43.8934" lon="6.51143">
        <ele>1120.1999511719</ele>
        <time>2022-08-21T13:25:18Z</time>
      </trkpt>
      <trkpt lat="43.89337" lon="6.51131">
        <ele>1121</ele>
        <time>2022-08-21T13:25:24Z</time>
      </trkpt>
      <trkpt lat="43.89335" lon="6.51125">
        <ele>1121.1999511719</ele>
        <time>2022-08-21T13:25:27Z</time>
      </trkpt>
      <trkpt lat="43.89332" lon="6.5112">
        <ele>1121.5999755859</ele>
        <time>2022-08-21T13:25:30Z</time>
      </trkpt>
      <trkpt lat="43.89328" lon="6.51116">
        <ele>1122.4000244141</ele>
        <time>2022-08-21T13:25:34Z</time>
      </trkpt>
      <trkpt lat="43.89323" lon="6.51114">
        <ele>1122.8000488281</ele>
        <time>2022-08-21T13:25:38Z</time>
      </trkpt>
      <trkpt lat="43.89316" lon="6.51111">
        <ele>1123.4000244141</ele>
        <time>2022-08-21T13:25:43Z</time>
      </trkpt>
      <trkpt lat="43.89309" lon="6.51107">
        <ele>1123.8000488281</ele>
        <time>2022-08-21T13:25:48Z</time>
      </trkpt>
      <trkpt lat="43.893" lon="6.51102">
        <ele>1124.4000244141</ele>
        <time>2022-08-21T13:25:53Z</time>
      </trkpt>
      <trkpt lat="43.89294" lon="6.51096">
        <ele>1125</ele>
        <time>2022-08-21T13:25:57Z</time>
      </trkpt>
      <trkpt lat="43.89287" lon="6.51085">
        <ele>1125.5999755859</ele>
        <time>2022-08-21T13:26:03Z</time>
      </trkpt>
      <trkpt lat="43.89284" lon="6.51079">
        <ele>1126</ele>
        <time>2022-08-21T13:26:06Z</time>
      </trkpt>
      <trkpt lat="43.89272" lon="6.5106">
        <ele>1126.5999755859</ele>
        <time>2022-08-21T13:26:16Z</time>
      </trkpt>
      <trkpt lat="43.89266" lon="6.51055">
        <ele>1127.4000244141</ele>
        <time>2022-08-21T13:26:21Z</time>
      </trkpt>
      <trkpt lat="43.89261" lon="6.51052">
        <ele>1127.8000488281</ele>
        <time>2022-08-21T13:26:24Z</time>
      </trkpt>
      <trkpt lat="43.89253" lon="6.51037">
        <ele>1128.5999755859</ele>
        <time>2022-08-21T13:26:32Z</time>
      </trkpt>
      <trkpt lat="43.89253" lon="6.51036">
        <ele>1128.8000488281</ele>
        <time>2022-08-21T13:26:33Z</time>
      </trkpt>
      <trkpt lat="43.89251" lon="6.51028">
        <ele>1128.8000488281</ele>
        <time>2022-08-21T13:26:37Z</time>
      </trkpt>
      <trkpt lat="43.89251" lon="6.51025">
        <ele>1129</ele>
        <time>2022-08-21T13:26:39Z</time>
      </trkpt>
      <trkpt lat="43.89249" lon="6.51022">
        <ele>1129</ele>
        <time>2022-08-21T13:26:41Z</time>
      </trkpt>
      <trkpt lat="43.89248" lon="6.51011">
        <ele>1129</ele>
        <time>2022-08-21T13:26:46Z</time>
      </trkpt>
      <trkpt lat="43.89248" lon="6.50997">
        <ele>1129</ele>
        <time>2022-08-21T13:26:52Z</time>
      </trkpt>
      <trkpt lat="43.89248" lon="6.50989">
        <ele>1129.4000244141</ele>
        <time>2022-08-21T13:26:58Z</time>
      </trkpt>
      <trkpt lat="43.89248" lon="6.50986">
        <ele>1129.4000244141</ele>
        <time>2022-08-21T13:27:00Z</time>
      </trkpt>
      <trkpt lat="43.89249" lon="6.50976">
        <ele>1129.1999511719</ele>
        <time>2022-08-21T13:27:05Z</time>
      </trkpt>
      <trkpt lat="43.89248" lon="6.50975">
        <ele>1129.1999511719</ele>
        <time>2022-08-21T13:27:07Z</time>
      </trkpt>
      <trkpt lat="43.89248" lon="6.50977">
        <ele>1129.1999511719</ele>
        <time>2022-08-21T13:27:09Z</time>
      </trkpt>
      <trkpt lat="43.8925" lon="6.5098">
        <ele>1129</ele>
        <time>2022-08-21T13:27:12Z</time>
      </trkpt>
      <trkpt lat="43.89251" lon="6.50987">
        <ele>1129</ele>
        <time>2022-08-21T13:27:16Z</time>
      </trkpt>
      <trkpt lat="43.89251" lon="6.50995">
        <ele>1128.5999755859</ele>
        <time>2022-08-21T13:27:19Z</time>
      </trkpt>
      <trkpt lat="43.89252" lon="6.51016">
        <ele>1128.4000244141</ele>
        <time>2022-08-21T13:27:26Z</time>
      </trkpt>
      <trkpt lat="43.89252" lon="6.51031">
        <ele>1128.4000244141</ele>
        <time>2022-08-21T13:27:32Z</time>
      </trkpt>
      <trkpt lat="43.89254" lon="6.51037">
        <ele>1128</ele>
        <time>2022-08-21T13:27:35Z</time>
      </trkpt>
      <trkpt lat="43.89255" lon="6.5104">
        <ele>1128</ele>
        <time>2022-08-21T13:27:39Z</time>
      </trkpt>
      <trkpt lat="43.89255" lon="6.5104">
        <ele>1128</ele>
        <time>2022-08-21T13:27:41Z</time>
      </trkpt>
      <trkpt lat="43.89255" lon="6.5104">
        <ele>1128</ele>
        <time>2022-08-21T13:27:42Z</time>
      </trkpt>
      <trkpt lat="43.89255" lon="6.51041">
        <ele>1127.8000488281</ele>
        <time>2022-08-21T13:27:45Z</time>
      </trkpt>
      <trkpt lat="43.89255" lon="6.51041">
        <ele>1127.8000488281</ele>
        <time>2022-08-21T13:27:49Z</time>
      </trkpt>
      <trkpt lat="43.89255" lon="6.51041">
        <ele>1127.8000488281</ele>
        <time>2022-08-21T13:27:53Z</time>
      </trkpt>
      <trkpt lat="43.89255" lon="6.51041">
        <ele>1127.8000488281</ele>
        <time>2022-08-21T13:27:57Z</time>
      </trkpt>
      <trkpt lat="43.89255" lon="6.51041">
        <ele>1127.8000488281</ele>
        <time>2022-08-21T13:27:58Z</time>
      </trkpt>
      <trkpt lat="43.89255" lon="6.51041">
        <ele>1127.8000488281</ele>
        <time>2022-08-21T13:28:01Z</time>
      </trkpt>
      <trkpt lat="43.89256" lon="6.51041">
        <ele>1127.5999755859</ele>
        <time>2022-08-21T13:28:04Z</time>
      </trkpt>
      <trkpt lat="43.89254" lon="6.51034">
        <ele>1127.5999755859</ele>
        <time>2022-08-21T13:28:09Z</time>
      </trkpt>
      <trkpt lat="43.89252" lon="6.51031">
        <ele>1127.5999755859</ele>
        <time>2022-08-21T13:28:10Z</time>
      </trkpt>
      <trkpt lat="43.89251" lon="6.51028">
        <ele>1127.5999755859</ele>
        <time>2022-08-21T13:28:11Z</time>
      </trkpt>
      <trkpt lat="43.89251" lon="6.51009">
        <ele>1127.8000488281</ele>
        <time>2022-08-21T13:28:17Z</time>
      </trkpt>
      <trkpt lat="43.8925" lon="6.50989">
        <ele>1128.1999511719</ele>
        <time>2022-08-21T13:28:24Z</time>
      </trkpt>
      <trkpt lat="43.89244" lon="6.50959">
        <ele>1128.5999755859</ele>
        <time>2022-08-21T13:28:32Z</time>
      </trkpt>
      <trkpt lat="43.89241" lon="6.50949">
        <ele>1128.8000488281</ele>
        <time>2022-08-21T13:28:35Z</time>
      </trkpt>
      <trkpt lat="43.89237" lon="6.5094">
        <ele>1129</ele>
        <time>2022-08-21T13:28:38Z</time>
      </trkpt>
      <trkpt lat="43.89235" lon="6.50935">
        <ele>1129.1999511719</ele>
        <time>2022-08-21T13:28:40Z</time>
      </trkpt>
      <trkpt lat="43.89234" lon="6.50933">
        <ele>1129.4000244141</ele>
        <time>2022-08-21T13:28:41Z</time>
      </trkpt>
      <trkpt lat="43.89231" lon="6.50928">
        <ele>1129.5999755859</ele>
        <time>2022-08-21T13:28:43Z</time>
      </trkpt>
      <trkpt lat="43.89227" lon="6.50919">
        <ele>1129.8000488281</ele>
        <time>2022-08-21T13:28:46Z</time>
      </trkpt>
      <trkpt lat="43.89225" lon="6.50913">
        <ele>1130</ele>
        <time>2022-08-21T13:28:48Z</time>
      </trkpt>
      <trkpt lat="43.8922" lon="6.5089">
        <ele>1130.5999755859</ele>
        <time>2022-08-21T13:28:55Z</time>
      </trkpt>
      <trkpt lat="43.89217" lon="6.50866">
        <ele>1130.8000488281</ele>
        <time>2022-08-21T13:29:01Z</time>
      </trkpt>
      <trkpt lat="43.89216" lon="6.50855">
        <ele>1131</ele>
        <time>2022-08-21T13:29:04Z</time>
      </trkpt>
      <trkpt lat="43.89211" lon="6.50831">
        <ele>1131.8000488281</ele>
        <time>2022-08-21T13:29:11Z</time>
      </trkpt>
      <trkpt lat="43.89208" lon="6.50823">
        <ele>1131.8000488281</ele>
        <time>2022-08-21T13:29:13Z</time>
      </trkpt>
      <trkpt lat="43.892" lon="6.50796">
        <ele>1132.8000488281</ele>
        <time>2022-08-21T13:29:20Z</time>
      </trkpt>
      <trkpt lat="43.89199" lon="6.50792">
        <ele>1132.8000488281</ele>
        <time>2022-08-21T13:29:21Z</time>
      </trkpt>
      <trkpt lat="43.89198" lon="6.50774">
        <ele>1133.5999755859</ele>
        <time>2022-08-21T13:29:26Z</time>
      </trkpt>
      <trkpt lat="43.89199" lon="6.50767">
        <ele>1133.8000488281</ele>
        <time>2022-08-21T13:29:28Z</time>
      </trkpt>
      <trkpt lat="43.89204" lon="6.50754">
        <ele>1134.1999511719</ele>
        <time>2022-08-21T13:29:32Z</time>
      </trkpt>
      <trkpt lat="43.89216" lon="6.50725">
        <ele>1134.4000244141</ele>
        <time>2022-08-21T13:29:40Z</time>
      </trkpt>
      <trkpt lat="43.89218" lon="6.50715">
        <ele>1135</ele>
        <time>2022-08-21T13:29:43Z</time>
      </trkpt>
      <trkpt lat="43.89222" lon="6.50704">
        <ele>1135.5999755859</ele>
        <time>2022-08-21T13:29:46Z</time>
      </trkpt>
      <trkpt lat="43.89226" lon="6.50693">
        <ele>1136</ele>
        <time>2022-08-21T13:29:49Z</time>
      </trkpt>
      <trkpt lat="43.89231" lon="6.50678">
        <ele>1136.5999755859</ele>
        <time>2022-08-21T13:29:54Z</time>
      </trkpt>
      <trkpt lat="43.89232" lon="6.50669">
        <ele>1137</ele>
        <time>2022-08-21T13:29:57Z</time>
      </trkpt>
      <trkpt lat="43.89234" lon="6.50659">
        <ele>1137.1999511719</ele>
        <time>2022-08-21T13:30:00Z</time>
      </trkpt>
      <trkpt lat="43.89233" lon="6.50633">
        <ele>1137.5999755859</ele>
        <time>2022-08-21T13:30:07Z</time>
      </trkpt>
      <trkpt lat="43.89228" lon="6.50595">
        <ele>1137.5999755859</ele>
        <time>2022-08-21T13:30:15Z</time>
      </trkpt>
      <trkpt lat="43.89229" lon="6.50554">
        <ele>1138</ele>
        <time>2022-08-21T13:30:23Z</time>
      </trkpt>
      <trkpt lat="43.89226" lon="6.50513">
        <ele>1138</ele>
        <time>2022-08-21T13:30:30Z</time>
      </trkpt>
      <trkpt lat="43.89225" lon="6.50506">
        <ele>1137.8000488281</ele>
        <time>2022-08-21T13:30:31Z</time>
      </trkpt>
      <trkpt lat="43.89225" lon="6.50499">
        <ele>1137.5999755859</ele>
        <time>2022-08-21T13:30:32Z</time>
      </trkpt>
      <trkpt lat="43.89226" lon="6.50485">
        <ele>1137.1999511719</ele>
        <time>2022-08-21T13:30:34Z</time>
      </trkpt>
      <trkpt lat="43.89228" lon="6.50478">
        <ele>1137</ele>
        <time>2022-08-21T13:30:35Z</time>
      </trkpt>
      <trkpt lat="43.89231" lon="6.50472">
        <ele>1137</ele>
        <time>2022-08-21T13:30:36Z</time>
      </trkpt>
      <trkpt lat="43.89235" lon="6.50461">
        <ele>1136.8000488281</ele>
        <time>2022-08-21T13:30:38Z</time>
      </trkpt>
      <trkpt lat="43.89238" lon="6.5045">
        <ele>1136.8000488281</ele>
        <time>2022-08-21T13:30:40Z</time>
      </trkpt>
      <trkpt lat="43.89241" lon="6.50433">
        <ele>1136.8000488281</ele>
        <time>2022-08-21T13:30:43Z</time>
      </trkpt>
      <trkpt lat="43.89242" lon="6.50427">
        <ele>1136.8000488281</ele>
        <time>2022-08-21T13:30:44Z</time>
      </trkpt>
      <trkpt lat="43.89242" lon="6.50413">
        <ele>1136.4000244141</ele>
        <time>2022-08-21T13:30:46Z</time>
      </trkpt>
      <trkpt lat="43.89242" lon="6.50406">
        <ele>1135.8000488281</ele>
        <time>2022-08-21T13:30:47Z</time>
      </trkpt>
      <trkpt lat="43.89241" lon="6.50398">
        <ele>1135.5999755859</ele>
        <time>2022-08-21T13:30:48Z</time>
      </trkpt>
      <trkpt lat="43.89239" lon="6.50382">
        <ele>1135.1999511719</ele>
        <time>2022-08-21T13:30:50Z</time>
      </trkpt>
      <trkpt lat="43.89237" lon="6.50366">
        <ele>1135</ele>
        <time>2022-08-21T13:30:52Z</time>
      </trkpt>
      <trkpt lat="43.89236" lon="6.50358">
        <ele>1134.8000488281</ele>
        <time>2022-08-21T13:30:53Z</time>
      </trkpt>
      <trkpt lat="43.89233" lon="6.50317">
        <ele>1133.4000244141</ele>
        <time>2022-08-21T13:30:58Z</time>
      </trkpt>
      <trkpt lat="43.89235" lon="6.50299">
        <ele>1132.5999755859</ele>
        <time>2022-08-21T13:31:00Z</time>
      </trkpt>
      <trkpt lat="43.89239" lon="6.50291">
        <ele>1132.1999511719</ele>
        <time>2022-08-21T13:31:01Z</time>
      </trkpt>
      <trkpt lat="43.89244" lon="6.50284">
        <ele>1132</ele>
        <time>2022-08-21T13:31:02Z</time>
      </trkpt>
      <trkpt lat="43.8925" lon="6.50279">
        <ele>1132</ele>
        <time>2022-08-21T13:31:03Z</time>
      </trkpt>
      <trkpt lat="43.89272" lon="6.50264">
        <ele>1133</ele>
        <time>2022-08-21T13:31:08Z</time>
      </trkpt>
      <trkpt lat="43.89275" lon="6.50263">
        <ele>1133.4000244141</ele>
        <time>2022-08-21T13:31:09Z</time>
      </trkpt>
      <trkpt lat="43.89279" lon="6.50259">
        <ele>1134.4000244141</ele>
        <time>2022-08-21T13:31:11Z</time>
      </trkpt>
      <trkpt lat="43.89281" lon="6.50256">
        <ele>1134.8000488281</ele>
        <time>2022-08-21T13:31:12Z</time>
      </trkpt>
      <trkpt lat="43.89281" lon="6.50248">
        <ele>1135.4000244141</ele>
        <time>2022-08-21T13:31:14Z</time>
      </trkpt>
      <trkpt lat="43.8928" lon="6.50244">
        <ele>1135.5999755859</ele>
        <time>2022-08-21T13:31:15Z</time>
      </trkpt>
      <trkpt lat="43.89275" lon="6.50233">
        <ele>1135.8000488281</ele>
        <time>2022-08-21T13:31:18Z</time>
      </trkpt>
      <trkpt lat="43.89272" lon="6.5023">
        <ele>1136</ele>
        <time>2022-08-21T13:31:20Z</time>
      </trkpt>
      <trkpt lat="43.89271" lon="6.50229">
        <ele>1136.1999511719</ele>
        <time>2022-08-21T13:31:21Z</time>
      </trkpt>
      <trkpt lat="43.89269" lon="6.50228">
        <ele>1136.4000244141</ele>
        <time>2022-08-21T13:31:22Z</time>
      </trkpt>
      <trkpt lat="43.89265" lon="6.50226">
        <ele>1136.8000488281</ele>
        <time>2022-08-21T13:31:24Z</time>
      </trkpt>
      <trkpt lat="43.89259" lon="6.50222">
        <ele>1137.8000488281</ele>
        <time>2022-08-21T13:31:28Z</time>
      </trkpt>
      <trkpt lat="43.89256" lon="6.5022">
        <ele>1138</ele>
        <time>2022-08-21T13:31:30Z</time>
      </trkpt>
      <trkpt lat="43.89255" lon="6.50218">
        <ele>1138.1999511719</ele>
        <time>2022-08-21T13:31:31Z</time>
      </trkpt>
      <trkpt lat="43.89249" lon="6.50215">
        <ele>1138.5999755859</ele>
        <time>2022-08-21T13:31:35Z</time>
      </trkpt>
      <trkpt lat="43.89242" lon="6.50208">
        <ele>1139</ele>
        <time>2022-08-21T13:31:40Z</time>
      </trkpt>
      <trkpt lat="43.89239" lon="6.50206">
        <ele>1139</ele>
        <time>2022-08-21T13:31:42Z</time>
      </trkpt>
      <trkpt lat="43.89237" lon="6.50204">
        <ele>1139.1999511719</ele>
        <time>2022-08-21T13:31:44Z</time>
      </trkpt>
      <trkpt lat="43.89235" lon="6.50203">
        <ele>1139.4000244141</ele>
        <time>2022-08-21T13:31:45Z</time>
      </trkpt>
      <trkpt lat="43.89224" lon="6.50196">
        <ele>1139.8000488281</ele>
        <time>2022-08-21T13:31:51Z</time>
      </trkpt>
      <trkpt lat="43.89222" lon="6.50195">
        <ele>1140</ele>
        <time>2022-08-21T13:31:52Z</time>
      </trkpt>
      <trkpt lat="43.8922" lon="6.50194">
        <ele>1140.1999511719</ele>
        <time>2022-08-21T13:31:53Z</time>
      </trkpt>
      <trkpt lat="43.89211" lon="6.5019">
        <ele>1141.1999511719</ele>
        <time>2022-08-21T13:31:59Z</time>
      </trkpt>
      <trkpt lat="43.89208" lon="6.5019">
        <ele>1141.4000244141</ele>
        <time>2022-08-21T13:32:01Z</time>
      </trkpt>
      <trkpt lat="43.89205" lon="6.50188">
        <ele>1141.8000488281</ele>
        <time>2022-08-21T13:32:04Z</time>
      </trkpt>
      <trkpt lat="43.89203" lon="6.50186">
        <ele>1142</ele>
        <time>2022-08-21T13:32:07Z</time>
      </trkpt>
      <trkpt lat="43.89191" lon="6.50179">
        <ele>1141.1999511719</ele>
        <time>2022-08-21T13:32:16Z</time>
      </trkpt>
      <trkpt lat="43.89184" lon="6.50176">
        <ele>1140</ele>
        <time>2022-08-21T13:32:19Z</time>
      </trkpt>
      <trkpt lat="43.8918" lon="6.50175">
        <ele>1139</ele>
        <time>2022-08-21T13:32:21Z</time>
      </trkpt>
      <trkpt lat="43.89178" lon="6.50176">
        <ele>1138.5999755859</ele>
        <time>2022-08-21T13:32:22Z</time>
      </trkpt>
      <trkpt lat="43.89175" lon="6.50179">
        <ele>1137.4000244141</ele>
        <time>2022-08-21T13:32:24Z</time>
      </trkpt>
      <trkpt lat="43.89172" lon="6.50183">
        <ele>1136.1999511719</ele>
        <time>2022-08-21T13:32:26Z</time>
      </trkpt>
      <trkpt lat="43.89171" lon="6.50185">
        <ele>1135.8000488281</ele>
        <time>2022-08-21T13:32:27Z</time>
      </trkpt>
      <trkpt lat="43.89169" lon="6.50187">
        <ele>1135</ele>
        <time>2022-08-21T13:32:28Z</time>
      </trkpt>
      <trkpt lat="43.89166" lon="6.50191">
        <ele>1133.5999755859</ele>
        <time>2022-08-21T13:32:30Z</time>
      </trkpt>
      <trkpt lat="43.89161" lon="6.50195">
        <ele>1132.4000244141</ele>
        <time>2022-08-21T13:32:32Z</time>
      </trkpt>
      <trkpt lat="43.89156" lon="6.50197">
        <ele>1131.5999755859</ele>
        <time>2022-08-21T13:32:34Z</time>
      </trkpt>
      <trkpt lat="43.89153" lon="6.50198">
        <ele>1131</ele>
        <time>2022-08-21T13:32:35Z</time>
      </trkpt>
      <trkpt lat="43.89146" lon="6.50193">
        <ele>1129.8000488281</ele>
        <time>2022-08-21T13:32:37Z</time>
      </trkpt>
      <trkpt lat="43.89143" lon="6.5019">
        <ele>1129.1999511719</ele>
        <time>2022-08-21T13:32:38Z</time>
      </trkpt>
      <trkpt lat="43.89136" lon="6.50183">
        <ele>1128.5999755859</ele>
        <time>2022-08-21T13:32:41Z</time>
      </trkpt>
      <trkpt lat="43.89132" lon="6.5018">
        <ele>1128.5999755859</ele>
        <time>2022-08-21T13:32:43Z</time>
      </trkpt>
      <trkpt lat="43.89123" lon="6.50174">
        <ele>1129.5999755859</ele>
        <time>2022-08-21T13:32:49Z</time>
      </trkpt>
      <trkpt lat="43.89121" lon="6.50172">
        <ele>1129.5999755859</ele>
        <time>2022-08-21T13:32:50Z</time>
      </trkpt>
      <trkpt lat="43.89103" lon="6.50164">
        <ele>1128.5999755859</ele>
        <time>2022-08-21T13:32:56Z</time>
      </trkpt>
      <trkpt lat="43.891" lon="6.50163">
        <ele>1128.4000244141</ele>
        <time>2022-08-21T13:32:57Z</time>
      </trkpt>
      <trkpt lat="43.89085" lon="6.50158">
        <ele>1128.1999511719</ele>
        <time>2022-08-21T13:33:04Z</time>
      </trkpt>
      <trkpt lat="43.8908" lon="6.50158">
        <ele>1128</ele>
        <time>2022-08-21T13:33:07Z</time>
      </trkpt>
      <trkpt lat="43.89078" lon="6.50158">
        <ele>1127.8000488281</ele>
        <time>2022-08-21T13:33:08Z</time>
      </trkpt>
      <trkpt lat="43.89074" lon="6.50156">
        <ele>1127.4000244141</ele>
        <time>2022-08-21T13:33:10Z</time>
      </trkpt>
      <trkpt lat="43.89073" lon="6.50155">
        <ele>1127.1999511719</ele>
        <time>2022-08-21T13:33:11Z</time>
      </trkpt>
      <trkpt lat="43.89066" lon="6.50151">
        <ele>1126.1999511719</ele>
        <time>2022-08-21T13:33:16Z</time>
      </trkpt>
      <trkpt lat="43.89065" lon="6.50151">
        <ele>1126</ele>
        <time>2022-08-21T13:33:17Z</time>
      </trkpt>
      <trkpt lat="43.89059" lon="6.50149">
        <ele>1125.1999511719</ele>
        <time>2022-08-21T13:33:21Z</time>
      </trkpt>
      <trkpt lat="43.89055" lon="6.50148">
        <ele>1124</ele>
        <time>2022-08-21T13:33:25Z</time>
      </trkpt>
      <trkpt lat="43.89055" lon="6.50148">
        <ele>1123.8000488281</ele>
        <time>2022-08-21T13:33:26Z</time>
      </trkpt>
      <trkpt lat="43.89054" lon="6.50148">
        <ele>1123.8000488281</ele>
        <time>2022-08-21T13:33:27Z</time>
      </trkpt>
      <trkpt lat="43.89053" lon="6.50147">
        <ele>1123.5999755859</ele>
        <time>2022-08-21T13:33:31Z</time>
      </trkpt>
      <trkpt lat="43.89053" lon="6.50147">
        <ele>1123.5999755859</ele>
        <time>2022-08-21T13:33:36Z</time>
      </trkpt>
      <trkpt lat="43.89053" lon="6.50148">
        <ele>1123.5999755859</ele>
        <time>2022-08-21T13:33:38Z</time>
      </trkpt>
      <trkpt lat="43.89049" lon="6.50144">
        <ele>1123</ele>
        <time>2022-08-21T13:33:48Z</time>
      </trkpt>
      <trkpt lat="43.89048" lon="6.50143">
        <ele>1122.8000488281</ele>
        <time>2022-08-21T13:33:49Z</time>
      </trkpt>
      <trkpt lat="43.89045" lon="6.50141">
        <ele>1122.1999511719</ele>
        <time>2022-08-21T13:33:51Z</time>
      </trkpt>
      <trkpt lat="43.89043" lon="6.5014">
        <ele>1121.8000488281</ele>
        <time>2022-08-21T13:33:53Z</time>
      </trkpt>
      <trkpt lat="43.89042" lon="6.50139">
        <ele>1121.5999755859</ele>
        <time>2022-08-21T13:33:54Z</time>
      </trkpt>
      <trkpt lat="43.89039" lon="6.5014">
        <ele>1121.4000244141</ele>
        <time>2022-08-21T13:33:57Z</time>
      </trkpt>
      <trkpt lat="43.89039" lon="6.5014">
        <ele>1120.8000488281</ele>
        <time>2022-08-21T13:34:02Z</time>
      </trkpt>
      <trkpt lat="43.89038" lon="6.5014">
        <ele>1120.5999755859</ele>
        <time>2022-08-21T13:34:07Z</time>
      </trkpt>
      <trkpt lat="43.89037" lon="6.5014">
        <ele>1120.5999755859</ele>
        <time>2022-08-21T13:34:09Z</time>
      </trkpt>
      <trkpt lat="43.89035" lon="6.50139">
        <ele>1120.4000244141</ele>
        <time>2022-08-21T13:34:11Z</time>
      </trkpt>
      <trkpt lat="43.89032" lon="6.50137">
        <ele>1119.8000488281</ele>
        <time>2022-08-21T13:34:13Z</time>
      </trkpt>
      <trkpt lat="43.89028" lon="6.50136">
        <ele>1118.5999755859</ele>
        <time>2022-08-21T13:34:16Z</time>
      </trkpt>
      <trkpt lat="43.89025" lon="6.50137">
        <ele>1118.1999511719</ele>
        <time>2022-08-21T13:34:18Z</time>
      </trkpt>
      <trkpt lat="43.89022" lon="6.50139">
        <ele>1117.4000244141</ele>
        <time>2022-08-21T13:34:20Z</time>
      </trkpt>
      <trkpt lat="43.89021" lon="6.50139">
        <ele>1116.8000488281</ele>
        <time>2022-08-21T13:34:22Z</time>
      </trkpt>
      <trkpt lat="43.89021" lon="6.50139">
        <ele>1116.4000244141</ele>
        <time>2022-08-21T13:34:23Z</time>
      </trkpt>
      <trkpt lat="43.89022" lon="6.50139">
        <ele>1116</ele>
        <time>2022-08-21T13:34:27Z</time>
      </trkpt>
      <trkpt lat="43.89021" lon="6.50139">
        <ele>1116</ele>
        <time>2022-08-21T13:34:30Z</time>
      </trkpt>
      <trkpt lat="43.89021" lon="6.50139">
        <ele>1116</ele>
        <time>2022-08-21T13:34:31Z</time>
      </trkpt>
      <trkpt lat="43.89022" lon="6.5014">
        <ele>1116</ele>
        <time>2022-08-21T13:34:33Z</time>
      </trkpt>
      <trkpt lat="43.89022" lon="6.5014">
        <ele>1116</ele>
        <time>2022-08-21T13:34:35Z</time>
      </trkpt>
      <trkpt lat="43.89022" lon="6.5014">
        <ele>1115.8000488281</ele>
        <time>2022-08-21T13:34:39Z</time>
      </trkpt>
      <trkpt lat="43.89017" lon="6.50143">
        <ele>1115.4000244141</ele>
        <time>2022-08-21T13:34:47Z</time>
      </trkpt>
      <trkpt lat="43.89014" lon="6.50145">
        <ele>1114.4000244141</ele>
        <time>2022-08-21T13:34:49Z</time>
      </trkpt>
      <trkpt lat="43.89012" lon="6.50146">
        <ele>1113.8000488281</ele>
        <time>2022-08-21T13:34:50Z</time>
      </trkpt>
      <trkpt lat="43.89007" lon="6.5015">
        <ele>1112.5999755859</ele>
        <time>2022-08-21T13:34:53Z</time>
      </trkpt>
      <trkpt lat="43.89006" lon="6.50151">
        <ele>1112</ele>
        <time>2022-08-21T13:34:54Z</time>
      </trkpt>
      <trkpt lat="43.89003" lon="6.50152">
        <ele>1111.1999511719</ele>
        <time>2022-08-21T13:34:56Z</time>
      </trkpt>
      <trkpt lat="43.89001" lon="6.50153">
        <ele>1110.5999755859</ele>
        <time>2022-08-21T13:34:57Z</time>
      </trkpt>
      <trkpt lat="43.88999" lon="6.50156">
        <ele>1109.8000488281</ele>
        <time>2022-08-21T13:34:59Z</time>
      </trkpt>
      <trkpt lat="43.88995" lon="6.5016">
        <ele>1108.5999755859</ele>
        <time>2022-08-21T13:35:02Z</time>
      </trkpt>
      <trkpt lat="43.88992" lon="6.50162">
        <ele>1107.5999755859</ele>
        <time>2022-08-21T13:35:04Z</time>
      </trkpt>
      <trkpt lat="43.88988" lon="6.50165">
        <ele>1106.4000244141</ele>
        <time>2022-08-21T13:35:07Z</time>
      </trkpt>
      <trkpt lat="43.88983" lon="6.50167">
        <ele>1105.1999511719</ele>
        <time>2022-08-21T13:35:10Z</time>
      </trkpt>
      <trkpt lat="43.88982" lon="6.50168">
        <ele>1104.8000488281</ele>
        <time>2022-08-21T13:35:11Z</time>
      </trkpt>
      <trkpt lat="43.88982" lon="6.5017">
        <ele>1104.4000244141</ele>
        <time>2022-08-21T13:35:12Z</time>
      </trkpt>
      <trkpt lat="43.8898" lon="6.50172">
        <ele>1104</ele>
        <time>2022-08-21T13:35:13Z</time>
      </trkpt>
      <trkpt lat="43.88975" lon="6.50178">
        <ele>1102.8000488281</ele>
        <time>2022-08-21T13:35:16Z</time>
      </trkpt>
      <trkpt lat="43.88971" lon="6.5018">
        <ele>1102</ele>
        <time>2022-08-21T13:35:18Z</time>
      </trkpt>
      <trkpt lat="43.8897" lon="6.50181">
        <ele>1101.5999755859</ele>
        <time>2022-08-21T13:35:19Z</time>
      </trkpt>
      <trkpt lat="43.88969" lon="6.50183">
        <ele>1101.4000244141</ele>
        <time>2022-08-21T13:35:20Z</time>
      </trkpt>
      <trkpt lat="43.88966" lon="6.50188">
        <ele>1100.8000488281</ele>
        <time>2022-08-21T13:35:23Z</time>
      </trkpt>
      <trkpt lat="43.88964" lon="6.5019">
        <ele>1100.5999755859</ele>
        <time>2022-08-21T13:35:24Z</time>
      </trkpt>
      <trkpt lat="43.88956" lon="6.50197">
        <ele>1099.5999755859</ele>
        <time>2022-08-21T13:35:28Z</time>
      </trkpt>
      <trkpt lat="43.88953" lon="6.502">
        <ele>1099.4000244141</ele>
        <time>2022-08-21T13:35:29Z</time>
      </trkpt>
      <trkpt lat="43.8895" lon="6.50201">
        <ele>1099.1999511719</ele>
        <time>2022-08-21T13:35:30Z</time>
      </trkpt>
      <trkpt lat="43.88947" lon="6.50204">
        <ele>1099</ele>
        <time>2022-08-21T13:35:31Z</time>
      </trkpt>
      <trkpt lat="43.88939" lon="6.5021">
        <ele>1098.5999755859</ele>
        <time>2022-08-21T13:35:34Z</time>
      </trkpt>
      <trkpt lat="43.88933" lon="6.50214">
        <ele>1098.5999755859</ele>
        <time>2022-08-21T13:35:37Z</time>
      </trkpt>
      <trkpt lat="43.8893" lon="6.50214">
        <ele>1098.5999755859</ele>
        <time>2022-08-21T13:35:39Z</time>
      </trkpt>
      <trkpt lat="43.88922" lon="6.50219">
        <ele>1098.4000244141</ele>
        <time>2022-08-21T13:35:44Z</time>
      </trkpt>
      <trkpt lat="43.8892" lon="6.5022">
        <ele>1098.1999511719</ele>
        <time>2022-08-21T13:35:45Z</time>
      </trkpt>
      <trkpt lat="43.88915" lon="6.50221">
        <ele>1097.4000244141</ele>
        <time>2022-08-21T13:35:49Z</time>
      </trkpt>
      <trkpt lat="43.8891" lon="6.50221">
        <ele>1096.5999755859</ele>
        <time>2022-08-21T13:35:51Z</time>
      </trkpt>
      <trkpt lat="43.88906" lon="6.5022">
        <ele>1096.1999511719</ele>
        <time>2022-08-21T13:35:52Z</time>
      </trkpt>
      <trkpt lat="43.88897" lon="6.50219">
        <ele>1095</ele>
        <time>2022-08-21T13:35:55Z</time>
      </trkpt>
      <trkpt lat="43.8889" lon="6.50213">
        <ele>1094.4000244141</ele>
        <time>2022-08-21T13:35:58Z</time>
      </trkpt>
      <trkpt lat="43.88883" lon="6.50209">
        <ele>1093.8000488281</ele>
        <time>2022-08-21T13:36:02Z</time>
      </trkpt>
      <trkpt lat="43.88881" lon="6.50209">
        <ele>1093.8000488281</ele>
        <time>2022-08-21T13:36:03Z</time>
      </trkpt>
      <trkpt lat="43.88879" lon="6.50209">
        <ele>1093.5999755859</ele>
        <time>2022-08-21T13:36:04Z</time>
      </trkpt>
      <trkpt lat="43.88873" lon="6.50205">
        <ele>1092.8000488281</ele>
        <time>2022-08-21T13:36:08Z</time>
      </trkpt>
      <trkpt lat="43.88871" lon="6.50201">
        <ele>1092.4000244141</ele>
        <time>2022-08-21T13:36:10Z</time>
      </trkpt>
      <trkpt lat="43.88867" lon="6.50196">
        <ele>1091.8000488281</ele>
        <time>2022-08-21T13:36:13Z</time>
      </trkpt>
      <trkpt lat="43.88864" lon="6.50186">
        <ele>1090.8000488281</ele>
        <time>2022-08-21T13:36:18Z</time>
      </trkpt>
      <trkpt lat="43.88863" lon="6.50184">
        <ele>1090.5999755859</ele>
        <time>2022-08-21T13:36:19Z</time>
      </trkpt>
      <trkpt lat="43.88862" lon="6.5018">
        <ele>1090.1999511719</ele>
        <time>2022-08-21T13:36:23Z</time>
      </trkpt>
      <trkpt lat="43.88862" lon="6.5018">
        <ele>1090.1999511719</ele>
        <time>2022-08-21T13:36:25Z</time>
      </trkpt>
      <trkpt lat="43.88861" lon="6.50179">
        <ele>1090</ele>
        <time>2022-08-21T13:36:30Z</time>
      </trkpt>
      <trkpt lat="43.88861" lon="6.50178">
        <ele>1090.1999511719</ele>
        <time>2022-08-21T13:36:32Z</time>
      </trkpt>
      <trkpt lat="43.8886" lon="6.50177">
        <ele>1090</ele>
        <time>2022-08-21T13:36:40Z</time>
      </trkpt>
      <trkpt lat="43.88854" lon="6.50175">
        <ele>1089.5999755859</ele>
        <time>2022-08-21T13:36:45Z</time>
      </trkpt>
      <trkpt lat="43.88853" lon="6.50174">
        <ele>1089.4000244141</ele>
        <time>2022-08-21T13:36:46Z</time>
      </trkpt>
      <trkpt lat="43.88851" lon="6.50172">
        <ele>1089.1999511719</ele>
        <time>2022-08-21T13:36:47Z</time>
      </trkpt>
      <trkpt lat="43.88843" lon="6.50168">
        <ele>1088.8000488281</ele>
        <time>2022-08-21T13:36:52Z</time>
      </trkpt>
      <trkpt lat="43.88839" lon="6.50167">
        <ele>1089</ele>
        <time>2022-08-21T13:36:58Z</time>
      </trkpt>
      <trkpt lat="43.88838" lon="6.50168">
        <ele>1089</ele>
        <time>2022-08-21T13:37:03Z</time>
      </trkpt>
      <trkpt lat="43.88838" lon="6.50169">
        <ele>1088.8000488281</ele>
        <time>2022-08-21T13:37:07Z</time>
      </trkpt>
      <trkpt lat="43.88838" lon="6.50168">
        <ele>1088.8000488281</ele>
        <time>2022-08-21T13:37:15Z</time>
      </trkpt>
      <trkpt lat="43.88838" lon="6.5017">
        <ele>1088.5999755859</ele>
        <time>2022-08-21T13:37:22Z</time>
      </trkpt>
      <trkpt lat="43.88837" lon="6.50175">
        <ele>1088.1999511719</ele>
        <time>2022-08-21T13:37:25Z</time>
      </trkpt>
      <trkpt lat="43.88832" lon="6.50179">
        <ele>1088</ele>
        <time>2022-08-21T13:37:27Z</time>
      </trkpt>
      <trkpt lat="43.88825" lon="6.5019">
        <ele>1087.4000244141</ele>
        <time>2022-08-21T13:37:30Z</time>
      </trkpt>
      <trkpt lat="43.88822" lon="6.50195">
        <ele>1087.1999511719</ele>
        <time>2022-08-21T13:37:31Z</time>
      </trkpt>
      <trkpt lat="43.88816" lon="6.50211">
        <ele>1087</ele>
        <time>2022-08-21T13:37:35Z</time>
      </trkpt>
      <trkpt lat="43.88811" lon="6.50215">
        <ele>1087</ele>
        <time>2022-08-21T13:37:37Z</time>
      </trkpt>
      <trkpt lat="43.88794" lon="6.50218">
        <ele>1087.4000244141</ele>
        <time>2022-08-21T13:37:44Z</time>
      </trkpt>
      <trkpt lat="43.88781" lon="6.50222">
        <ele>1087.8000488281</ele>
        <time>2022-08-21T13:37:49Z</time>
      </trkpt>
      <trkpt lat="43.88778" lon="6.50223">
        <ele>1088</ele>
        <time>2022-08-21T13:37:50Z</time>
      </trkpt>
      <trkpt lat="43.88775" lon="6.50225">
        <ele>1088.1999511719</ele>
        <time>2022-08-21T13:37:51Z</time>
      </trkpt>
      <trkpt lat="43.88774" lon="6.50227">
        <ele>1088.5999755859</ele>
        <time>2022-08-21T13:37:52Z</time>
      </trkpt>
      <trkpt lat="43.8877" lon="6.50232">
        <ele>1089.5999755859</ele>
        <time>2022-08-21T13:37:55Z</time>
      </trkpt>
      <trkpt lat="43.88769" lon="6.50233">
        <ele>1089.5999755859</ele>
        <time>2022-08-21T13:37:56Z</time>
      </trkpt>
      <trkpt lat="43.88767" lon="6.50233">
        <ele>1089.8000488281</ele>
        <time>2022-08-21T13:37:57Z</time>
      </trkpt>
      <trkpt lat="43.88758" lon="6.50231">
        <ele>1089.5999755859</ele>
        <time>2022-08-21T13:38:01Z</time>
      </trkpt>
      <trkpt lat="43.88753" lon="6.50229">
        <ele>1089.4000244141</ele>
        <time>2022-08-21T13:38:03Z</time>
      </trkpt>
      <trkpt lat="43.88747" lon="6.50226">
        <ele>1088.8000488281</ele>
        <time>2022-08-21T13:38:06Z</time>
      </trkpt>
      <trkpt lat="43.88743" lon="6.50223">
        <ele>1088.4000244141</ele>
        <time>2022-08-21T13:38:08Z</time>
      </trkpt>
      <trkpt lat="43.88738" lon="6.50221">
        <ele>1087.5999755859</ele>
        <time>2022-08-21T13:38:10Z</time>
      </trkpt>
      <trkpt lat="43.88736" lon="6.5022">
        <ele>1087.1999511719</ele>
        <time>2022-08-21T13:38:11Z</time>
      </trkpt>
      <trkpt lat="43.88726" lon="6.50215">
        <ele>1085.8000488281</ele>
        <time>2022-08-21T13:38:15Z</time>
      </trkpt>
      <trkpt lat="43.88721" lon="6.50213">
        <ele>1085.1999511719</ele>
        <time>2022-08-21T13:38:17Z</time>
      </trkpt>
      <trkpt lat="43.88716" lon="6.50212">
        <ele>1084.8000488281</ele>
        <time>2022-08-21T13:38:19Z</time>
      </trkpt>
      <trkpt lat="43.88712" lon="6.50211">
        <ele>1084</ele>
        <time>2022-08-21T13:38:21Z</time>
      </trkpt>
      <trkpt lat="43.88707" lon="6.50209">
        <ele>1083.4000244141</ele>
        <time>2022-08-21T13:38:23Z</time>
      </trkpt>
      <trkpt lat="43.887" lon="6.50204">
        <ele>1082.4000244141</ele>
        <time>2022-08-21T13:38:26Z</time>
      </trkpt>
      <trkpt lat="43.88697" lon="6.50201">
        <ele>1082.1999511719</ele>
        <time>2022-08-21T13:38:27Z</time>
      </trkpt>
      <trkpt lat="43.88692" lon="6.50196">
        <ele>1081.5999755859</ele>
        <time>2022-08-21T13:38:29Z</time>
      </trkpt>
      <trkpt lat="43.88689" lon="6.50196">
        <ele>1081.4000244141</ele>
        <time>2022-08-21T13:38:30Z</time>
      </trkpt>
      <trkpt lat="43.88687" lon="6.50198">
        <ele>1081.1999511719</ele>
        <time>2022-08-21T13:38:31Z</time>
      </trkpt>
      <trkpt lat="43.88679" lon="6.50208">
        <ele>1081</ele>
        <time>2022-08-21T13:38:34Z</time>
      </trkpt>
      <trkpt lat="43.88669" lon="6.50217">
        <ele>1081</ele>
        <time>2022-08-21T13:38:37Z</time>
      </trkpt>
      <trkpt lat="43.88654" lon="6.50224">
        <ele>1081</ele>
        <time>2022-08-21T13:38:41Z</time>
      </trkpt>
      <trkpt lat="43.88626" lon="6.50234">
        <ele>1080.4000244141</ele>
        <time>2022-08-21T13:38:47Z</time>
      </trkpt>
      <trkpt lat="43.88618" lon="6.50237">
        <ele>1080.4000244141</ele>
        <time>2022-08-21T13:38:49Z</time>
      </trkpt>
      <trkpt lat="43.88612" lon="6.50243">
        <ele>1080.4000244141</ele>
        <time>2022-08-21T13:38:51Z</time>
      </trkpt>
      <trkpt lat="43.88609" lon="6.50248">
        <ele>1080.4000244141</ele>
        <time>2022-08-21T13:38:52Z</time>
      </trkpt>
      <trkpt lat="43.88594" lon="6.50264">
        <ele>1080.1999511719</ele>
        <time>2022-08-21T13:38:57Z</time>
      </trkpt>
      <trkpt lat="43.88591" lon="6.50265">
        <ele>1080</ele>
        <time>2022-08-21T13:38:58Z</time>
      </trkpt>
      <trkpt lat="43.8857" lon="6.50276">
        <ele>1079</ele>
        <time>2022-08-21T13:39:03Z</time>
      </trkpt>
      <trkpt lat="43.88566" lon="6.50278">
        <ele>1078.8000488281</ele>
        <time>2022-08-21T13:39:04Z</time>
      </trkpt>
      <trkpt lat="43.88557" lon="6.50283">
        <ele>1078.5999755859</ele>
        <time>2022-08-21T13:39:07Z</time>
      </trkpt>
      <trkpt lat="43.88552" lon="6.50288">
        <ele>1078.8000488281</ele>
        <time>2022-08-21T13:39:09Z</time>
      </trkpt>
      <trkpt lat="43.88537" lon="6.50305">
        <ele>1079.5999755859</ele>
        <time>2022-08-21T13:39:14Z</time>
      </trkpt>
      <trkpt lat="43.88519" lon="6.5032">
        <ele>1079</ele>
        <time>2022-08-21T13:39:19Z</time>
      </trkpt>
      <trkpt lat="43.88499" lon="6.50343">
        <ele>1078</ele>
        <time>2022-08-21T13:39:24Z</time>
      </trkpt>
      <trkpt lat="43.88494" lon="6.50348">
        <ele>1077.8000488281</ele>
        <time>2022-08-21T13:39:25Z</time>
      </trkpt>
      <trkpt lat="43.88491" lon="6.50352">
        <ele>1077.8000488281</ele>
        <time>2022-08-21T13:39:26Z</time>
      </trkpt>
      <trkpt lat="43.88483" lon="6.50362">
        <ele>1077.4000244141</ele>
        <time>2022-08-21T13:39:28Z</time>
      </trkpt>
      <trkpt lat="43.88473" lon="6.50381">
        <ele>1077.1999511719</ele>
        <time>2022-08-21T13:39:31Z</time>
      </trkpt>
      <trkpt lat="43.8847" lon="6.50388">
        <ele>1077.1999511719</ele>
        <time>2022-08-21T13:39:32Z</time>
      </trkpt>
      <trkpt lat="43.88466" lon="6.50396">
        <ele>1077</ele>
        <time>2022-08-21T13:39:33Z</time>
      </trkpt>
      <trkpt lat="43.88452" lon="6.50414">
        <ele>1076.1999511719</ele>
        <time>2022-08-21T13:39:36Z</time>
      </trkpt>
      <trkpt lat="43.88448" lon="6.50421">
        <ele>1076</ele>
        <time>2022-08-21T13:39:37Z</time>
      </trkpt>
      <trkpt lat="43.88431" lon="6.50451">
        <ele>1075.5999755859</ele>
        <time>2022-08-21T13:39:41Z</time>
      </trkpt>
      <trkpt lat="43.88423" lon="6.50467">
        <ele>1077.4000244141</ele>
        <time>2022-08-21T13:39:44Z</time>
      </trkpt>
      <trkpt lat="43.88416" lon="6.50479">
        <ele>1078.5999755859</ele>
        <time>2022-08-21T13:39:47Z</time>
      </trkpt>
      <trkpt lat="43.88415" lon="6.50483">
        <ele>1079</ele>
        <time>2022-08-21T13:39:48Z</time>
      </trkpt>
      <trkpt lat="43.88412" lon="6.50494">
        <ele>1079.4000244141</ele>
        <time>2022-08-21T13:39:51Z</time>
      </trkpt>
      <trkpt lat="43.8841" lon="6.50503">
        <ele>1079.5999755859</ele>
        <time>2022-08-21T13:39:53Z</time>
      </trkpt>
      <trkpt lat="43.88407" lon="6.50512">
        <ele>1079.4000244141</ele>
        <time>2022-08-21T13:39:55Z</time>
      </trkpt>
      <trkpt lat="43.88403" lon="6.50525">
        <ele>1079.1999511719</ele>
        <time>2022-08-21T13:39:58Z</time>
      </trkpt>
      <trkpt lat="43.88398" lon="6.50534">
        <ele>1079.1999511719</ele>
        <time>2022-08-21T13:40:00Z</time>
      </trkpt>
      <trkpt lat="43.88395" lon="6.50539">
        <ele>1079.1999511719</ele>
        <time>2022-08-21T13:40:01Z</time>
      </trkpt>
      <trkpt lat="43.88386" lon="6.50558">
        <ele>1079.1999511719</ele>
        <time>2022-08-21T13:40:04Z</time>
      </trkpt>
      <trkpt lat="43.88375" lon="6.50573">
        <ele>1079.5999755859</ele>
        <time>2022-08-21T13:40:07Z</time>
      </trkpt>
      <trkpt lat="43.88373" lon="6.50578">
        <ele>1079.8000488281</ele>
        <time>2022-08-21T13:40:08Z</time>
      </trkpt>
      <trkpt lat="43.88362" lon="6.50595">
        <ele>1080.5999755859</ele>
        <time>2022-08-21T13:40:13Z</time>
      </trkpt>
      <trkpt lat="43.88358" lon="6.50601">
        <ele>1080.8000488281</ele>
        <time>2022-08-21T13:40:15Z</time>
      </trkpt>
      <trkpt lat="43.88352" lon="6.50609">
        <ele>1081</ele>
        <time>2022-08-21T13:40:18Z</time>
      </trkpt>
      <trkpt lat="43.8835" lon="6.50612">
        <ele>1081.1999511719</ele>
        <time>2022-08-21T13:40:19Z</time>
      </trkpt>
      <trkpt lat="43.88341" lon="6.50623">
        <ele>1081.8000488281</ele>
        <time>2022-08-21T13:40:24Z</time>
      </trkpt>
      <trkpt lat="43.88338" lon="6.50628">
        <ele>1082</ele>
        <time>2022-08-21T13:40:26Z</time>
      </trkpt>
      <trkpt lat="43.88328" lon="6.50644">
        <ele>1082.5999755859</ele>
        <time>2022-08-21T13:40:32Z</time>
      </trkpt>
      <trkpt lat="43.88325" lon="6.50649">
        <ele>1082.8000488281</ele>
        <time>2022-08-21T13:40:34Z</time>
      </trkpt>
      <trkpt lat="43.88314" lon="6.50661">
        <ele>1083.4000244141</ele>
        <time>2022-08-21T13:40:40Z</time>
      </trkpt>
      <trkpt lat="43.88305" lon="6.50664">
        <ele>1083.4000244141</ele>
        <time>2022-08-21T13:40:44Z</time>
      </trkpt>
      <trkpt lat="43.88301" lon="6.50662">
        <ele>1083.4000244141</ele>
        <time>2022-08-21T13:40:46Z</time>
      </trkpt>
      <trkpt lat="43.88297" lon="6.50664">
        <ele>1083</ele>
        <time>2022-08-21T13:40:50Z</time>
      </trkpt>
      <trkpt lat="43.88296" lon="6.50664">
        <ele>1083</ele>
        <time>2022-08-21T13:40:52Z</time>
      </trkpt>
      <trkpt lat="43.88296" lon="6.50664">
        <ele>1082.8000488281</ele>
        <time>2022-08-21T13:40:55Z</time>
      </trkpt>
      <trkpt lat="43.88297" lon="6.50665">
        <ele>1082.8000488281</ele>
        <time>2022-08-21T13:40:58Z</time>
      </trkpt>
      <trkpt lat="43.88297" lon="6.50666">
        <ele>1083</ele>
        <time>2022-08-21T13:41:07Z</time>
      </trkpt>
      <trkpt lat="43.88296" lon="6.50666">
        <ele>1083.1999511719</ele>
        <time>2022-08-21T13:41:15Z</time>
      </trkpt>
      <trkpt lat="43.88297" lon="6.50666">
        <ele>1083</ele>
        <time>2022-08-21T13:41:17Z</time>
      </trkpt>
      <trkpt lat="43.88297" lon="6.50666">
        <ele>1083</ele>
        <time>2022-08-21T13:41:18Z</time>
      </trkpt>
      <trkpt lat="43.88297" lon="6.50666">
        <ele>1082.8000488281</ele>
        <time>2022-08-21T13:41:25Z</time>
      </trkpt>
      <trkpt lat="43.88297" lon="6.50666">
        <ele>1083</ele>
        <time>2022-08-21T13:41:30Z</time>
      </trkpt>
      <trkpt lat="43.88293" lon="6.50661">
        <ele>1081.8000488281</ele>
        <time>2022-08-21T13:41:38Z</time>
      </trkpt>
      <trkpt lat="43.88292" lon="6.50661">
        <ele>1081.4000244141</ele>
        <time>2022-08-21T13:41:39Z</time>
      </trkpt>
      <trkpt lat="43.8829" lon="6.5066">
        <ele>1081</ele>
        <time>2022-08-21T13:41:40Z</time>
      </trkpt>
      <trkpt lat="43.88289" lon="6.50659">
        <ele>1080.4000244141</ele>
        <time>2022-08-21T13:41:41Z</time>
      </trkpt>
      <trkpt lat="43.88286" lon="6.50659">
        <ele>1079.4000244141</ele>
        <time>2022-08-21T13:41:44Z</time>
      </trkpt>
      <trkpt lat="43.88282" lon="6.50657">
        <ele>1078.4000244141</ele>
        <time>2022-08-21T13:41:47Z</time>
      </trkpt>
      <trkpt lat="43.88281" lon="6.50657">
        <ele>1078</ele>
        <time>2022-08-21T13:41:48Z</time>
      </trkpt>
      <trkpt lat="43.88278" lon="6.50662">
        <ele>1077</ele>
        <time>2022-08-21T13:41:51Z</time>
      </trkpt>
      <trkpt lat="43.88277" lon="6.50665">
        <ele>1076.5999755859</ele>
        <time>2022-08-21T13:41:52Z</time>
      </trkpt>
      <trkpt lat="43.88272" lon="6.50669">
        <ele>1075.4000244141</ele>
        <time>2022-08-21T13:41:56Z</time>
      </trkpt>
      <trkpt lat="43.88269" lon="6.50668">
        <ele>1075.1999511719</ele>
        <time>2022-08-21T13:41:57Z</time>
      </trkpt>
      <trkpt lat="43.88267" lon="6.50667">
        <ele>1074.4000244141</ele>
        <time>2022-08-21T13:41:59Z</time>
      </trkpt>
      <trkpt lat="43.88264" lon="6.50662">
        <ele>1073.4000244141</ele>
        <time>2022-08-21T13:42:03Z</time>
      </trkpt>
      <trkpt lat="43.88264" lon="6.50661">
        <ele>1073.1999511719</ele>
        <time>2022-08-21T13:42:04Z</time>
      </trkpt>
      <trkpt lat="43.88263" lon="6.50654">
        <ele>1072.1999511719</ele>
        <time>2022-08-21T13:42:08Z</time>
      </trkpt>
      <trkpt lat="43.88263" lon="6.50654">
        <ele>1071.5999755859</ele>
        <time>2022-08-21T13:42:10Z</time>
      </trkpt>
      <trkpt lat="43.88261" lon="6.50652">
        <ele>1071.1999511719</ele>
        <time>2022-08-21T13:42:15Z</time>
      </trkpt>
      <trkpt lat="43.88257" lon="6.50655">
        <ele>1070.8000488281</ele>
        <time>2022-08-21T13:42:22Z</time>
      </trkpt>
      <trkpt lat="43.88255" lon="6.50647">
        <ele>1070.1999511719</ele>
        <time>2022-08-21T13:42:26Z</time>
      </trkpt>
      <trkpt lat="43.88254" lon="6.50645">
        <ele>1070</ele>
        <time>2022-08-21T13:42:27Z</time>
      </trkpt>
      <trkpt lat="43.88252" lon="6.50642">
        <ele>1069.5999755859</ele>
        <time>2022-08-21T13:42:29Z</time>
      </trkpt>
      <trkpt lat="43.8825" lon="6.5064">
        <ele>1069.4000244141</ele>
        <time>2022-08-21T13:42:30Z</time>
      </trkpt>
      <trkpt lat="43.88248" lon="6.50637">
        <ele>1068.8000488281</ele>
        <time>2022-08-21T13:42:32Z</time>
      </trkpt>
      <trkpt lat="43.88244" lon="6.50632">
        <ele>1067.8000488281</ele>
        <time>2022-08-21T13:42:36Z</time>
      </trkpt>
      <trkpt lat="43.88243" lon="6.50632">
        <ele>1067.1999511719</ele>
        <time>2022-08-21T13:42:38Z</time>
      </trkpt>
      <trkpt lat="43.88241" lon="6.5063">
        <ele>1067</ele>
        <time>2022-08-21T13:42:40Z</time>
      </trkpt>
      <trkpt lat="43.8824" lon="6.50629">
        <ele>1066.8000488281</ele>
        <time>2022-08-21T13:42:42Z</time>
      </trkpt>
      <trkpt lat="43.88235" lon="6.50622">
        <ele>1065.8000488281</ele>
        <time>2022-08-21T13:42:46Z</time>
      </trkpt>
      <trkpt lat="43.88234" lon="6.5062">
        <ele>1065.4000244141</ele>
        <time>2022-08-21T13:42:47Z</time>
      </trkpt>
      <trkpt lat="43.88229" lon="6.50612">
        <ele>1064.1999511719</ele>
        <time>2022-08-21T13:42:52Z</time>
      </trkpt>
      <trkpt lat="43.88227" lon="6.50609">
        <ele>1063.4000244141</ele>
        <time>2022-08-21T13:42:54Z</time>
      </trkpt>
      <trkpt lat="43.88224" lon="6.50606">
        <ele>1062.8000488281</ele>
        <time>2022-08-21T13:42:56Z</time>
      </trkpt>
      <trkpt lat="43.88218" lon="6.506">
        <ele>1061.5999755859</ele>
        <time>2022-08-21T13:43:00Z</time>
      </trkpt>
      <trkpt lat="43.88215" lon="6.50595">
        <ele>1060.4000244141</ele>
        <time>2022-08-21T13:43:03Z</time>
      </trkpt>
      <trkpt lat="43.88211" lon="6.5059">
        <ele>1059.5999755859</ele>
        <time>2022-08-21T13:43:06Z</time>
      </trkpt>
      <trkpt lat="43.8821" lon="6.50588">
        <ele>1059.4000244141</ele>
        <time>2022-08-21T13:43:07Z</time>
      </trkpt>
      <trkpt lat="43.88206" lon="6.50583">
        <ele>1058.8000488281</ele>
        <time>2022-08-21T13:43:10Z</time>
      </trkpt>
      <trkpt lat="43.88205" lon="6.50582">
        <ele>1058.4000244141</ele>
        <time>2022-08-21T13:43:11Z</time>
      </trkpt>
      <trkpt lat="43.88204" lon="6.5058">
        <ele>1058.1999511719</ele>
        <time>2022-08-21T13:43:12Z</time>
      </trkpt>
      <trkpt lat="43.882" lon="6.50572">
        <ele>1057</ele>
        <time>2022-08-21T13:43:16Z</time>
      </trkpt>
      <trkpt lat="43.88199" lon="6.50568">
        <ele>1056.4000244141</ele>
        <time>2022-08-21T13:43:18Z</time>
      </trkpt>
      <trkpt lat="43.88197" lon="6.50566">
        <ele>1055.8000488281</ele>
        <time>2022-08-21T13:43:20Z</time>
      </trkpt>
      <trkpt lat="43.88198" lon="6.50566">
        <ele>1055.5999755859</ele>
        <time>2022-08-21T13:43:21Z</time>
      </trkpt>
      <trkpt lat="43.88198" lon="6.50566">
        <ele>1055.4000244141</ele>
        <time>2022-08-21T13:43:22Z</time>
      </trkpt>
      <trkpt lat="43.88196" lon="6.50564">
        <ele>1055.1999511719</ele>
        <time>2022-08-21T13:43:25Z</time>
      </trkpt>
      <trkpt lat="43.88192" lon="6.5056">
        <ele>1054.8000488281</ele>
        <time>2022-08-21T13:43:28Z</time>
      </trkpt>
      <trkpt lat="43.88189" lon="6.50554">
        <ele>1053.8000488281</ele>
        <time>2022-08-21T13:43:31Z</time>
      </trkpt>
      <trkpt lat="43.88188" lon="6.50551">
        <ele>1053.1999511719</ele>
        <time>2022-08-21T13:43:33Z</time>
      </trkpt>
      <trkpt lat="43.88187" lon="6.50548">
        <ele>1052.5999755859</ele>
        <time>2022-08-21T13:43:35Z</time>
      </trkpt>
      <trkpt lat="43.88188" lon="6.50548">
        <ele>1052.4000244141</ele>
        <time>2022-08-21T13:43:36Z</time>
      </trkpt>
      <trkpt lat="43.88188" lon="6.50548">
        <ele>1052.1999511719</ele>
        <time>2022-08-21T13:43:37Z</time>
      </trkpt>
      <trkpt lat="43.88186" lon="6.50545">
        <ele>1051.8000488281</ele>
        <time>2022-08-21T13:43:42Z</time>
      </trkpt>
      <trkpt lat="43.88186" lon="6.50545">
        <ele>1051.5999755859</ele>
        <time>2022-08-21T13:43:43Z</time>
      </trkpt>
      <trkpt lat="43.88185" lon="6.50545">
        <ele>1051.4000244141</ele>
        <time>2022-08-21T13:43:44Z</time>
      </trkpt>
      <trkpt lat="43.88185" lon="6.50554">
        <ele>1050.4000244141</ele>
        <time>2022-08-21T13:43:50Z</time>
      </trkpt>
      <trkpt lat="43.88185" lon="6.50557">
        <ele>1050.1999511719</ele>
        <time>2022-08-21T13:43:51Z</time>
      </trkpt>
      <trkpt lat="43.88186" lon="6.50559">
        <ele>1049.8000488281</ele>
        <time>2022-08-21T13:43:52Z</time>
      </trkpt>
      <trkpt lat="43.88186" lon="6.50565">
        <ele>1049.1999511719</ele>
        <time>2022-08-21T13:43:54Z</time>
      </trkpt>
      <trkpt lat="43.88184" lon="6.5057">
        <ele>1048.1999511719</ele>
        <time>2022-08-21T13:43:57Z</time>
      </trkpt>
      <trkpt lat="43.88184" lon="6.50573">
        <ele>1047.8000488281</ele>
        <time>2022-08-21T13:43:59Z</time>
      </trkpt>
      <trkpt lat="43.88185" lon="6.50579">
        <ele>1047</ele>
        <time>2022-08-21T13:44:02Z</time>
      </trkpt>
      <trkpt lat="43.88185" lon="6.50582">
        <ele>1046.4000244141</ele>
        <time>2022-08-21T13:44:04Z</time>
      </trkpt>
      <trkpt lat="43.88185" lon="6.50587">
        <ele>1046</ele>
        <time>2022-08-21T13:44:06Z</time>
      </trkpt>
      <trkpt lat="43.88185" lon="6.50589">
        <ele>1045.5999755859</ele>
        <time>2022-08-21T13:44:07Z</time>
      </trkpt>
      <trkpt lat="43.88186" lon="6.50596">
        <ele>1044.8000488281</ele>
        <time>2022-08-21T13:44:10Z</time>
      </trkpt>
      <trkpt lat="43.88186" lon="6.50597">
        <ele>1044.1999511719</ele>
        <time>2022-08-21T13:44:12Z</time>
      </trkpt>
      <trkpt lat="43.88186" lon="6.50598">
        <ele>1043.8000488281</ele>
        <time>2022-08-21T13:44:14Z</time>
      </trkpt>
      <trkpt lat="43.88186" lon="6.50598">
        <ele>1043.5999755859</ele>
        <time>2022-08-21T13:44:16Z</time>
      </trkpt>
      <trkpt lat="43.88186" lon="6.50599">
        <ele>1043.4000244141</ele>
        <time>2022-08-21T13:44:21Z</time>
      </trkpt>
      <trkpt lat="43.88187" lon="6.50599">
        <ele>1043.1999511719</ele>
        <time>2022-08-21T13:44:24Z</time>
      </trkpt>
      <trkpt lat="43.88187" lon="6.506">
        <ele>1042.8000488281</ele>
        <time>2022-08-21T13:44:29Z</time>
      </trkpt>
      <trkpt lat="43.88187" lon="6.50601">
        <ele>1042.5999755859</ele>
        <time>2022-08-21T13:44:33Z</time>
      </trkpt>
      <trkpt lat="43.88187" lon="6.50604">
        <ele>1042.1999511719</ele>
        <time>2022-08-21T13:44:41Z</time>
      </trkpt>
      <trkpt lat="43.88187" lon="6.50605">
        <ele>1041.4000244141</ele>
        <time>2022-08-21T13:44:44Z</time>
      </trkpt>
      <trkpt lat="43.88187" lon="6.50609">
        <ele>1041</ele>
        <time>2022-08-21T13:44:48Z</time>
      </trkpt>
      <trkpt lat="43.88184" lon="6.50609">
        <ele>1040.4000244141</ele>
        <time>2022-08-21T13:44:50Z</time>
      </trkpt>
      <trkpt lat="43.88181" lon="6.50606">
        <ele>1039.8000488281</ele>
        <time>2022-08-21T13:44:52Z</time>
      </trkpt>
      <trkpt lat="43.8818" lon="6.50605">
        <ele>1039.5999755859</ele>
        <time>2022-08-21T13:44:53Z</time>
      </trkpt>
      <trkpt lat="43.88179" lon="6.50603">
        <ele>1039.4000244141</ele>
        <time>2022-08-21T13:44:54Z</time>
      </trkpt>
      <trkpt lat="43.88176" lon="6.50599">
        <ele>1038.5999755859</ele>
        <time>2022-08-21T13:44:57Z</time>
      </trkpt>
      <trkpt lat="43.88173" lon="6.50597">
        <ele>1038</ele>
        <time>2022-08-21T13:44:59Z</time>
      </trkpt>
      <trkpt lat="43.88172" lon="6.50595">
        <ele>1037.8000488281</ele>
        <time>2022-08-21T13:45:00Z</time>
      </trkpt>
      <trkpt lat="43.88169" lon="6.50588">
        <ele>1037</ele>
        <time>2022-08-21T13:45:03Z</time>
      </trkpt>
      <trkpt lat="43.88163" lon="6.50572">
        <ele>1035.8000488281</ele>
        <time>2022-08-21T13:45:08Z</time>
      </trkpt>
      <trkpt lat="43.88162" lon="6.50567">
        <ele>1035.5999755859</ele>
        <time>2022-08-21T13:45:09Z</time>
      </trkpt>
      <trkpt lat="43.88159" lon="6.50559">
        <ele>1035.1999511719</ele>
        <time>2022-08-21T13:45:11Z</time>
      </trkpt>
      <trkpt lat="43.88157" lon="6.50553">
        <ele>1035</ele>
        <time>2022-08-21T13:45:13Z</time>
      </trkpt>
      <trkpt lat="43.88154" lon="6.50544">
        <ele>1034.5999755859</ele>
        <time>2022-08-21T13:45:16Z</time>
      </trkpt>
      <trkpt lat="43.88153" lon="6.50542">
        <ele>1034.1999511719</ele>
        <time>2022-08-21T13:45:17Z</time>
      </trkpt>
      <trkpt lat="43.88149" lon="6.50537">
        <ele>1033.4000244141</ele>
        <time>2022-08-21T13:45:20Z</time>
      </trkpt>
      <trkpt lat="43.88146" lon="6.50535">
        <ele>1033</ele>
        <time>2022-08-21T13:45:22Z</time>
      </trkpt>
      <trkpt lat="43.88143" lon="6.50532">
        <ele>1032</ele>
        <time>2022-08-21T13:45:24Z</time>
      </trkpt>
      <trkpt lat="43.88139" lon="6.50526">
        <ele>1030.8000488281</ele>
        <time>2022-08-21T13:45:28Z</time>
      </trkpt>
      <trkpt lat="43.88139" lon="6.50526">
        <ele>1030.5999755859</ele>
        <time>2022-08-21T13:45:29Z</time>
      </trkpt>
      <trkpt lat="43.88139" lon="6.50526">
        <ele>1030</ele>
        <time>2022-08-21T13:45:32Z</time>
      </trkpt>
      <trkpt lat="43.88139" lon="6.50526">
        <ele>1029.8000488281</ele>
        <time>2022-08-21T13:45:34Z</time>
      </trkpt>
      <trkpt lat="43.88139" lon="6.50525">
        <ele>1029.5999755859</ele>
        <time>2022-08-21T13:45:38Z</time>
      </trkpt>
      <trkpt lat="43.88138" lon="6.50525">
        <ele>1029.1999511719</ele>
        <time>2022-08-21T13:45:42Z</time>
      </trkpt>
      <trkpt lat="43.88132" lon="6.50522">
        <ele>1028.5999755859</ele>
        <time>2022-08-21T13:45:47Z</time>
      </trkpt>
      <trkpt lat="43.8813" lon="6.50521">
        <ele>1028</ele>
        <time>2022-08-21T13:45:49Z</time>
      </trkpt>
      <trkpt lat="43.88126" lon="6.50519">
        <ele>1027.1999511719</ele>
        <time>2022-08-21T13:45:51Z</time>
      </trkpt>
      <trkpt lat="43.88125" lon="6.50518">
        <ele>1026.5999755859</ele>
        <time>2022-08-21T13:45:53Z</time>
      </trkpt>
      <trkpt lat="43.88125" lon="6.50519">
        <ele>1026.4000244141</ele>
        <time>2022-08-21T13:45:54Z</time>
      </trkpt>
      <trkpt lat="43.88125" lon="6.50519">
        <ele>1026.1999511719</ele>
        <time>2022-08-21T13:45:55Z</time>
      </trkpt>
      <trkpt lat="43.88123" lon="6.50519">
        <ele>1026</ele>
        <time>2022-08-21T13:45:57Z</time>
      </trkpt>
      <trkpt lat="43.88117" lon="6.50514">
        <ele>1025.1999511719</ele>
        <time>2022-08-21T13:46:01Z</time>
      </trkpt>
      <trkpt lat="43.88116" lon="6.50513">
        <ele>1024.8000488281</ele>
        <time>2022-08-21T13:46:02Z</time>
      </trkpt>
      <trkpt lat="43.88113" lon="6.50511">
        <ele>1024</ele>
        <time>2022-08-21T13:46:04Z</time>
      </trkpt>
      <trkpt lat="43.8811" lon="6.50509">
        <ele>1023.4000244141</ele>
        <time>2022-08-21T13:46:06Z</time>
      </trkpt>
      <trkpt lat="43.88109" lon="6.50509">
        <ele>1023</ele>
        <time>2022-08-21T13:46:07Z</time>
      </trkpt>
      <trkpt lat="43.88109" lon="6.50508">
        <ele>1022.4000244141</ele>
        <time>2022-08-21T13:46:08Z</time>
      </trkpt>
      <trkpt lat="43.88109" lon="6.50508">
        <ele>1022</ele>
        <time>2022-08-21T13:46:10Z</time>
      </trkpt>
      <trkpt lat="43.88108" lon="6.50509">
        <ele>1021.799987793</ele>
        <time>2022-08-21T13:46:12Z</time>
      </trkpt>
      <trkpt lat="43.88108" lon="6.50509">
        <ele>1021.799987793</ele>
        <time>2022-08-21T13:46:13Z</time>
      </trkpt>
      <trkpt lat="43.88105" lon="6.50502">
        <ele>1020.799987793</ele>
        <time>2022-08-21T13:46:18Z</time>
      </trkpt>
      <trkpt lat="43.88101" lon="6.505">
        <ele>1019.799987793</ele>
        <time>2022-08-21T13:46:22Z</time>
      </trkpt>
      <trkpt lat="43.881" lon="6.505">
        <ele>1019.5999755859</ele>
        <time>2022-08-21T13:46:23Z</time>
      </trkpt>
      <trkpt lat="43.88098" lon="6.50496">
        <ele>1018.799987793</ele>
        <time>2022-08-21T13:46:27Z</time>
      </trkpt>
      <trkpt lat="43.88097" lon="6.50494">
        <ele>1018.5999755859</ele>
        <time>2022-08-21T13:46:29Z</time>
      </trkpt>
      <trkpt lat="43.88096" lon="6.50493">
        <ele>1018.4000244141</ele>
        <time>2022-08-21T13:46:30Z</time>
      </trkpt>
      <trkpt lat="43.88094" lon="6.50487">
        <ele>1017.4000244141</ele>
        <time>2022-08-21T13:46:35Z</time>
      </trkpt>
      <trkpt lat="43.88091" lon="6.50482">
        <ele>1016.4000244141</ele>
        <time>2022-08-21T13:46:39Z</time>
      </trkpt>
      <trkpt lat="43.8809" lon="6.50481">
        <ele>1016.200012207</ele>
        <time>2022-08-21T13:46:40Z</time>
      </trkpt>
      <trkpt lat="43.8809" lon="6.50478">
        <ele>1015.799987793</ele>
        <time>2022-08-21T13:46:42Z</time>
      </trkpt>
      <trkpt lat="43.88088" lon="6.50475">
        <ele>1015.200012207</ele>
        <time>2022-08-21T13:46:46Z</time>
      </trkpt>
      <trkpt lat="43.88086" lon="6.5047">
        <ele>1014</ele>
        <time>2022-08-21T13:46:52Z</time>
      </trkpt>
      <trkpt lat="43.88085" lon="6.50463">
        <ele>1013</ele>
        <time>2022-08-21T13:46:58Z</time>
      </trkpt>
      <trkpt lat="43.88085" lon="6.50462">
        <ele>1012.799987793</ele>
        <time>2022-08-21T13:46:59Z</time>
      </trkpt>
      <trkpt lat="43.88082" lon="6.50458">
        <ele>1011.799987793</ele>
        <time>2022-08-21T13:47:04Z</time>
      </trkpt>
      <trkpt lat="43.88082" lon="6.50456">
        <ele>1011.5999755859</ele>
        <time>2022-08-21T13:47:05Z</time>
      </trkpt>
      <trkpt lat="43.88079" lon="6.50451">
        <ele>1010.5999755859</ele>
        <time>2022-08-21T13:47:10Z</time>
      </trkpt>
      <trkpt lat="43.88079" lon="6.50445">
        <ele>1009.5999755859</ele>
        <time>2022-08-21T13:47:16Z</time>
      </trkpt>
      <trkpt lat="43.88078" lon="6.50437">
        <ele>1008.5999755859</ele>
        <time>2022-08-21T13:47:22Z</time>
      </trkpt>
      <trkpt lat="43.88078" lon="6.50436">
        <ele>1008.200012207</ele>
        <time>2022-08-21T13:47:23Z</time>
      </trkpt>
      <trkpt lat="43.88078" lon="6.50434">
        <ele>1007.4000244141</ele>
        <time>2022-08-21T13:47:29Z</time>
      </trkpt>
      <trkpt lat="43.88078" lon="6.50434">
        <ele>1007.200012207</ele>
        <time>2022-08-21T13:47:31Z</time>
      </trkpt>
      <trkpt lat="43.88079" lon="6.50434">
        <ele>1007</ele>
        <time>2022-08-21T13:47:36Z</time>
      </trkpt>
      <trkpt lat="43.8808" lon="6.50435">
        <ele>1006.799987793</ele>
        <time>2022-08-21T13:47:43Z</time>
      </trkpt>
      <trkpt lat="43.8808" lon="6.50434">
        <ele>1006.799987793</ele>
        <time>2022-08-21T13:47:46Z</time>
      </trkpt>
      <trkpt lat="43.8808" lon="6.50434">
        <ele>1006.5999755859</ele>
        <time>2022-08-21T13:47:50Z</time>
      </trkpt>
      <trkpt lat="43.88079" lon="6.50428">
        <ele>1006.4000244141</ele>
        <time>2022-08-21T13:47:55Z</time>
      </trkpt>
      <trkpt lat="43.88079" lon="6.50427">
        <ele>1006.200012207</ele>
        <time>2022-08-21T13:47:56Z</time>
      </trkpt>
      <trkpt lat="43.88079" lon="6.50426">
        <ele>1006</ele>
        <time>2022-08-21T13:47:57Z</time>
      </trkpt>
      <trkpt lat="43.88079" lon="6.50424">
        <ele>1005.5999755859</ele>
        <time>2022-08-21T13:47:59Z</time>
      </trkpt>
      <trkpt lat="43.88079" lon="6.50421">
        <ele>1005.200012207</ele>
        <time>2022-08-21T13:48:01Z</time>
      </trkpt>
      <trkpt lat="43.88078" lon="6.50416">
        <ele>1004.5999755859</ele>
        <time>2022-08-21T13:48:05Z</time>
      </trkpt>
      <trkpt lat="43.88078" lon="6.50414">
        <ele>1004.4000244141</ele>
        <time>2022-08-21T13:48:07Z</time>
      </trkpt>
      <trkpt lat="43.88078" lon="6.50414">
        <ele>1004.200012207</ele>
        <time>2022-08-21T13:48:08Z</time>
      </trkpt>
      <trkpt lat="43.88077" lon="6.50413">
        <ele>1004</ele>
        <time>2022-08-21T13:48:11Z</time>
      </trkpt>
      <trkpt lat="43.88078" lon="6.5041">
        <ele>1003.4000244141</ele>
        <time>2022-08-21T13:48:17Z</time>
      </trkpt>
      <trkpt lat="43.88078" lon="6.50406">
        <ele>1003.200012207</ele>
        <time>2022-08-21T13:48:21Z</time>
      </trkpt>
      <trkpt lat="43.88077" lon="6.50401">
        <ele>1002.200012207</ele>
        <time>2022-08-21T13:48:27Z</time>
      </trkpt>
      <trkpt lat="43.88077" lon="6.50399">
        <ele>1001.799987793</ele>
        <time>2022-08-21T13:48:29Z</time>
      </trkpt>
      <trkpt lat="43.88075" lon="6.50393">
        <ele>1001</ele>
        <time>2022-08-21T13:48:34Z</time>
      </trkpt>
      <trkpt lat="43.88074" lon="6.50387">
        <ele>1000</ele>
        <time>2022-08-21T13:48:39Z</time>
      </trkpt>
      <trkpt lat="43.88074" lon="6.50385">
        <ele>999.79998779297</ele>
        <time>2022-08-21T13:48:40Z</time>
      </trkpt>
      <trkpt lat="43.88074" lon="6.50384">
        <ele>999.59997558594</ele>
        <time>2022-08-21T13:48:41Z</time>
      </trkpt>
      <trkpt lat="43.88074" lon="6.50379">
        <ele>999</ele>
        <time>2022-08-21T13:48:45Z</time>
      </trkpt>
      <trkpt lat="43.88074" lon="6.50378">
        <ele>998.79998779297</ele>
        <time>2022-08-21T13:48:46Z</time>
      </trkpt>
      <trkpt lat="43.88073" lon="6.50375">
        <ele>998.40002441406</ele>
        <time>2022-08-21T13:48:48Z</time>
      </trkpt>
      <trkpt lat="43.88073" lon="6.5037">
        <ele>997.59997558594</ele>
        <time>2022-08-21T13:48:53Z</time>
      </trkpt>
      <trkpt lat="43.88073" lon="6.50365">
        <ele>996.59997558594</ele>
        <time>2022-08-21T13:48:59Z</time>
      </trkpt>
      <trkpt lat="43.88073" lon="6.50364">
        <ele>996.40002441406</ele>
        <time>2022-08-21T13:49:00Z</time>
      </trkpt>
      <trkpt lat="43.88072" lon="6.50358">
        <ele>995.20001220703</ele>
        <time>2022-08-21T13:49:06Z</time>
      </trkpt>
      <trkpt lat="43.88072" lon="6.50355">
        <ele>994.79998779297</ele>
        <time>2022-08-21T13:49:09Z</time>
      </trkpt>
      <trkpt lat="43.88072" lon="6.50351">
        <ele>994.20001220703</ele>
        <time>2022-08-21T13:49:13Z</time>
      </trkpt>
      <trkpt lat="43.88073" lon="6.50345">
        <ele>993.20001220703</ele>
        <time>2022-08-21T13:49:20Z</time>
      </trkpt>
      <trkpt lat="43.88074" lon="6.50341">
        <ele>992</ele>
        <time>2022-08-21T13:49:27Z</time>
      </trkpt>
      <trkpt lat="43.88074" lon="6.50337">
        <ele>991.20001220703</ele>
        <time>2022-08-21T13:49:33Z</time>
      </trkpt>
      <trkpt lat="43.88074" lon="6.50336">
        <ele>991</ele>
        <time>2022-08-21T13:49:34Z</time>
      </trkpt>
      <trkpt lat="43.88074" lon="6.50327">
        <ele>990</ele>
        <time>2022-08-21T13:49:42Z</time>
      </trkpt>
      <trkpt lat="43.88074" lon="6.50322">
        <ele>989.59997558594</ele>
        <time>2022-08-21T13:49:46Z</time>
      </trkpt>
      <trkpt lat="43.88074" lon="6.50318">
        <ele>989</ele>
        <time>2022-08-21T13:49:50Z</time>
      </trkpt>
      <trkpt lat="43.88075" lon="6.50315">
        <ele>988.20001220703</ele>
        <time>2022-08-21T13:49:56Z</time>
      </trkpt>
      <trkpt lat="43.88073" lon="6.50312">
        <ele>987.79998779297</ele>
        <time>2022-08-21T13:50:01Z</time>
      </trkpt>
      <trkpt lat="43.88073" lon="6.50311">
        <ele>987.59997558594</ele>
        <time>2022-08-21T13:50:04Z</time>
      </trkpt>
      <trkpt lat="43.88072" lon="6.50306">
        <ele>986.79998779297</ele>
        <time>2022-08-21T13:50:09Z</time>
      </trkpt>
      <trkpt lat="43.8807" lon="6.50306">
        <ele>985.59997558594</ele>
        <time>2022-08-21T13:50:14Z</time>
      </trkpt>
      <trkpt lat="43.88068" lon="6.50307">
        <ele>985.40002441406</ele>
        <time>2022-08-21T13:50:16Z</time>
      </trkpt>
      <trkpt lat="43.88063" lon="6.50306">
        <ele>984.40002441406</ele>
        <time>2022-08-21T13:50:24Z</time>
      </trkpt>
      <trkpt lat="43.88063" lon="6.50304">
        <ele>984</ele>
        <time>2022-08-21T13:50:26Z</time>
      </trkpt>
      <trkpt lat="43.88063" lon="6.50305">
        <ele>983.59997558594</ele>
        <time>2022-08-21T13:50:32Z</time>
      </trkpt>
      <trkpt lat="43.88062" lon="6.50297">
        <ele>983.20001220703</ele>
        <time>2022-08-21T13:50:39Z</time>
      </trkpt>
      <trkpt lat="43.88061" lon="6.50288">
        <ele>982</ele>
        <time>2022-08-21T13:50:43Z</time>
      </trkpt>
      <trkpt lat="43.88061" lon="6.50282">
        <ele>980.79998779297</ele>
        <time>2022-08-21T13:50:46Z</time>
      </trkpt>
      <trkpt lat="43.88061" lon="6.50281">
        <ele>980.59997558594</ele>
        <time>2022-08-21T13:50:47Z</time>
      </trkpt>
      <trkpt lat="43.88061" lon="6.5028">
        <ele>980.20001220703</ele>
        <time>2022-08-21T13:50:48Z</time>
      </trkpt>
      <trkpt lat="43.88061" lon="6.5028">
        <ele>979.79998779297</ele>
        <time>2022-08-21T13:50:49Z</time>
      </trkpt>
      <trkpt lat="43.8806" lon="6.50281">
        <ele>979.59997558594</ele>
        <time>2022-08-21T13:50:50Z</time>
      </trkpt>
      <trkpt lat="43.88061" lon="6.50277">
        <ele>979.40002441406</ele>
        <time>2022-08-21T13:50:54Z</time>
      </trkpt>
      <trkpt lat="43.88061" lon="6.50272">
        <ele>978.79998779297</ele>
        <time>2022-08-21T13:50:59Z</time>
      </trkpt>
      <trkpt lat="43.88061" lon="6.50273">
        <ele>978.59997558594</ele>
        <time>2022-08-21T13:51:02Z</time>
      </trkpt>
      <trkpt lat="43.88058" lon="6.50275">
        <ele>978.40002441406</ele>
        <time>2022-08-21T13:51:08Z</time>
      </trkpt>
      <trkpt lat="43.88054" lon="6.50274">
        <ele>978</ele>
        <time>2022-08-21T13:51:11Z</time>
      </trkpt>
      <trkpt lat="43.88053" lon="6.50273">
        <ele>977.79998779297</ele>
        <time>2022-08-21T13:51:12Z</time>
      </trkpt>
      <trkpt lat="43.88052" lon="6.50272">
        <ele>977.40002441406</ele>
        <time>2022-08-21T13:51:13Z</time>
      </trkpt>
      <trkpt lat="43.88051" lon="6.50268">
        <ele>976.79998779297</ele>
        <time>2022-08-21T13:51:15Z</time>
      </trkpt>
      <trkpt lat="43.88052" lon="6.50266">
        <ele>976.59997558594</ele>
        <time>2022-08-21T13:51:16Z</time>
      </trkpt>
      <trkpt lat="43.88051" lon="6.50261">
        <ele>975.20001220703</ele>
        <time>2022-08-21T13:51:20Z</time>
      </trkpt>
      <trkpt lat="43.88046" lon="6.50259">
        <ele>974.40002441406</ele>
        <time>2022-08-21T13:51:24Z</time>
      </trkpt>
      <trkpt lat="43.88044" lon="6.50259">
        <ele>974.20001220703</ele>
        <time>2022-08-21T13:51:25Z</time>
      </trkpt>
      <trkpt lat="43.88042" lon="6.50259">
        <ele>973.79998779297</ele>
        <time>2022-08-21T13:51:27Z</time>
      </trkpt>
      <trkpt lat="43.88039" lon="6.50259">
        <ele>973</ele>
        <time>2022-08-21T13:51:29Z</time>
      </trkpt>
      <trkpt lat="43.88036" lon="6.5026">
        <ele>972</ele>
        <time>2022-08-21T13:51:32Z</time>
      </trkpt>
      <trkpt lat="43.88035" lon="6.50259">
        <ele>971.59997558594</ele>
        <time>2022-08-21T13:51:33Z</time>
      </trkpt>
      <trkpt lat="43.88031" lon="6.50255">
        <ele>970.79998779297</ele>
        <time>2022-08-21T13:51:36Z</time>
      </trkpt>
      <trkpt lat="43.8803" lon="6.50255">
        <ele>970.40002441406</ele>
        <time>2022-08-21T13:51:37Z</time>
      </trkpt>
      <trkpt lat="43.88029" lon="6.50255">
        <ele>970</ele>
        <time>2022-08-21T13:51:38Z</time>
      </trkpt>
      <trkpt lat="43.88028" lon="6.50256">
        <ele>969.59997558594</ele>
        <time>2022-08-21T13:51:39Z</time>
      </trkpt>
      <trkpt lat="43.88025" lon="6.50257">
        <ele>969</ele>
        <time>2022-08-21T13:51:41Z</time>
      </trkpt>
      <trkpt lat="43.88024" lon="6.50257">
        <ele>968.59997558594</ele>
        <time>2022-08-21T13:51:42Z</time>
      </trkpt>
      <trkpt lat="43.88019" lon="6.5026">
        <ele>967.59997558594</ele>
        <time>2022-08-21T13:51:45Z</time>
      </trkpt>
      <trkpt lat="43.88018" lon="6.50261">
        <ele>967</ele>
        <time>2022-08-21T13:51:46Z</time>
      </trkpt>
      <trkpt lat="43.88016" lon="6.50262">
        <ele>966.59997558594</ele>
        <time>2022-08-21T13:51:47Z</time>
      </trkpt>
      <trkpt lat="43.88011" lon="6.50262">
        <ele>965.40002441406</ele>
        <time>2022-08-21T13:51:49Z</time>
      </trkpt>
      <trkpt lat="43.88007" lon="6.5026">
        <ele>964.40002441406</ele>
        <time>2022-08-21T13:51:51Z</time>
      </trkpt>
      <trkpt lat="43.88006" lon="6.50259">
        <ele>964</ele>
        <time>2022-08-21T13:51:52Z</time>
      </trkpt>
      <trkpt lat="43.88005" lon="6.50258">
        <ele>963.59997558594</ele>
        <time>2022-08-21T13:51:54Z</time>
      </trkpt>
      <trkpt lat="43.88005" lon="6.50258">
        <ele>963.40002441406</ele>
        <time>2022-08-21T13:51:55Z</time>
      </trkpt>
      <trkpt lat="43.88002" lon="6.50259">
        <ele>963</ele>
        <time>2022-08-21T13:51:57Z</time>
      </trkpt>
      <trkpt lat="43.88" lon="6.50258">
        <ele>962.79998779297</ele>
        <time>2022-08-21T13:51:58Z</time>
      </trkpt>
      <trkpt lat="43.87998" lon="6.50257">
        <ele>962.59997558594</ele>
        <time>2022-08-21T13:51:59Z</time>
      </trkpt>
      <trkpt lat="43.87997" lon="6.50256">
        <ele>962.40002441406</ele>
        <time>2022-08-21T13:52:01Z</time>
      </trkpt>
      <trkpt lat="43.87996" lon="6.50256">
        <ele>962.20001220703</ele>
        <time>2022-08-21T13:52:03Z</time>
      </trkpt>
      <trkpt lat="43.87995" lon="6.50255">
        <ele>962</ele>
        <time>2022-08-21T13:52:06Z</time>
      </trkpt>
      <trkpt lat="43.87995" lon="6.50255">
        <ele>961.79998779297</ele>
        <time>2022-08-21T13:52:08Z</time>
      </trkpt>
      <trkpt lat="43.87994" lon="6.50253">
        <ele>961.79998779297</ele>
        <time>2022-08-21T13:52:13Z</time>
      </trkpt>
      <trkpt lat="43.87993" lon="6.50251">
        <ele>961.79998779297</ele>
        <time>2022-08-21T13:52:17Z</time>
      </trkpt>
      <trkpt lat="43.87996" lon="6.50252">
        <ele>961.40002441406</ele>
        <time>2022-08-21T13:52:25Z</time>
      </trkpt>
      <trkpt lat="43.87996" lon="6.50251">
        <ele>961.40002441406</ele>
        <time>2022-08-21T13:52:28Z</time>
      </trkpt>
      <trkpt lat="43.87996" lon="6.50251">
        <ele>961.20001220703</ele>
        <time>2022-08-21T13:52:32Z</time>
      </trkpt>
      <trkpt lat="43.87996" lon="6.50251">
        <ele>961.20001220703</ele>
        <time>2022-08-21T13:52:34Z</time>
      </trkpt>
      <trkpt lat="43.87995" lon="6.50251">
        <ele>961.20001220703</ele>
        <time>2022-08-21T13:52:39Z</time>
      </trkpt>
      <trkpt lat="43.87996" lon="6.50254">
        <ele>961</ele>
        <time>2022-08-21T13:52:45Z</time>
      </trkpt>
      <trkpt lat="43.87995" lon="6.50255">
        <ele>960.79998779297</ele>
        <time>2022-08-21T13:52:49Z</time>
      </trkpt>
      <trkpt lat="43.87998" lon="6.50254">
        <ele>961</ele>
        <time>2022-08-21T13:52:56Z</time>
      </trkpt>
      <trkpt lat="43.87999" lon="6.50254">
        <ele>960.79998779297</ele>
        <time>2022-08-21T13:53:05Z</time>
      </trkpt>
      <trkpt lat="43.87999" lon="6.50254">
        <ele>960.79998779297</ele>
        <time>2022-08-21T13:53:08Z</time>
      </trkpt>
      <trkpt lat="43.87998" lon="6.50257">
        <ele>960.59997558594</ele>
        <time>2022-08-21T13:53:26Z</time>
      </trkpt>
      <trkpt lat="43.87997" lon="6.5026">
        <ele>960.79998779297</ele>
        <time>2022-08-21T13:53:35Z</time>
      </trkpt>
      <trkpt lat="43.87996" lon="6.5026">
        <ele>960.59997558594</ele>
        <time>2022-08-21T13:53:46Z</time>
      </trkpt>
      <trkpt lat="43.87996" lon="6.5026">
        <ele>960.59997558594</ele>
        <time>2022-08-21T13:53:49Z</time>
      </trkpt>
      <trkpt lat="43.87996" lon="6.5026">
        <ele>960.40002441406</ele>
        <time>2022-08-21T13:53:55Z</time>
      </trkpt>
      <trkpt lat="43.87996" lon="6.50258">
        <ele>960.40002441406</ele>
        <time>2022-08-21T13:54:05Z</time>
      </trkpt>
      <trkpt lat="43.87996" lon="6.50256">
        <ele>960.40002441406</ele>
        <time>2022-08-21T13:54:10Z</time>
      </trkpt>
      <trkpt lat="43.87997" lon="6.50256">
        <ele>960.59997558594</ele>
        <time>2022-08-21T13:54:17Z</time>
      </trkpt>
      <trkpt lat="43.87996" lon="6.50257">
        <ele>960.59997558594</ele>
        <time>2022-08-21T13:54:25Z</time>
      </trkpt>
      <trkpt lat="43.87996" lon="6.50257">
        <ele>960.59997558594</ele>
        <time>2022-08-21T13:54:28Z</time>
      </trkpt>
      <trkpt lat="43.87995" lon="6.50257">
        <ele>960.59997558594</ele>
        <time>2022-08-21T13:54:36Z</time>
      </trkpt>
      <trkpt lat="43.87996" lon="6.50255">
        <ele>960.59997558594</ele>
        <time>2022-08-21T13:54:49Z</time>
      </trkpt>
      <trkpt lat="43.87997" lon="6.50256">
        <ele>960.59997558594</ele>
        <time>2022-08-21T13:55:00Z</time>
      </trkpt>
      <trkpt lat="43.87997" lon="6.50256">
        <ele>960.59997558594</ele>
        <time>2022-08-21T13:55:03Z</time>
      </trkpt>
      <trkpt lat="43.87997" lon="6.50256">
        <ele>960.59997558594</ele>
        <time>2022-08-21T13:55:06Z</time>
      </trkpt>
      <trkpt lat="43.87997" lon="6.50256">
        <ele>960.59997558594</ele>
        <time>2022-08-21T13:55:09Z</time>
      </trkpt>
      <trkpt lat="43.87997" lon="6.50256">
        <ele>960.59997558594</ele>
        <time>2022-08-21T13:55:10Z</time>
      </trkpt>
      <trkpt lat="43.87997" lon="6.50256">
        <ele>960.59997558594</ele>
        <time>2022-08-21T13:55:11Z</time>
      </trkpt>
      <trkpt lat="43.87997" lon="6.50256">
        <ele>960.59997558594</ele>
        <time>2022-08-21T13:55:13Z</time>
      </trkpt>
      <trkpt lat="43.87997" lon="6.50256">
        <ele>960.59997558594</ele>
        <time>2022-08-21T13:55:23Z</time>
      </trkpt>
      <trkpt lat="43.87996" lon="6.50257">
        <ele>960.59997558594</ele>
        <time>2022-08-21T13:55:35Z</time>
      </trkpt>
      <trkpt lat="43.87996" lon="6.50257">
        <ele>960.59997558594</ele>
        <time>2022-08-21T13:55:37Z</time>
      </trkpt>
      <trkpt lat="43.87996" lon="6.50257">
        <ele>960.59997558594</ele>
        <time>2022-08-21T13:55:46Z</time>
      </trkpt>
      <trkpt lat="43.87996" lon="6.50257">
        <ele>960.59997558594</ele>
        <time>2022-08-21T13:55:49Z</time>
      </trkpt>
      <trkpt lat="43.87994" lon="6.50255">
        <ele>960.59997558594</ele>
        <time>2022-08-21T13:55:56Z</time>
      </trkpt>
      <trkpt lat="43.87994" lon="6.50256">
        <ele>960.59997558594</ele>
        <time>2022-08-21T13:55:59Z</time>
      </trkpt>
      <trkpt lat="43.87995" lon="6.50256">
        <ele>960.59997558594</ele>
        <time>2022-08-21T13:56:07Z</time>
      </trkpt>
      <trkpt lat="43.87996" lon="6.50255">
        <ele>960.59997558594</ele>
        <time>2022-08-21T13:56:22Z</time>
      </trkpt>
      <trkpt lat="43.87995" lon="6.50255">
        <ele>960.59997558594</ele>
        <time>2022-08-21T13:56:28Z</time>
      </trkpt>
      <trkpt lat="43.87994" lon="6.50253">
        <ele>960.59997558594</ele>
        <time>2022-08-21T13:56:30Z</time>
      </trkpt>
      <trkpt lat="43.87994" lon="6.50253">
        <ele>960.59997558594</ele>
        <time>2022-08-21T13:56:31Z</time>
      </trkpt>
      <trkpt lat="43.87993" lon="6.50254">
        <ele>960.59997558594</ele>
        <time>2022-08-21T13:56:33Z</time>
      </trkpt>
      <trkpt lat="43.87992" lon="6.50253">
        <ele>960.59997558594</ele>
        <time>2022-08-21T13:56:37Z</time>
      </trkpt>
      <trkpt lat="43.87993" lon="6.50253">
        <ele>960.59997558594</ele>
        <time>2022-08-21T13:56:47Z</time>
      </trkpt>
      <trkpt lat="43.87982" lon="6.50247">
        <ele>960.59997558594</ele>
        <time>2022-08-21T13:57:00Z</time>
      </trkpt>
      <trkpt lat="43.8797" lon="6.50235">
        <ele>960.59997558594</ele>
        <time>2022-08-21T13:57:03Z</time>
      </trkpt>
      <trkpt lat="43.8796" lon="6.50227">
        <ele>960.40002441406</ele>
        <time>2022-08-21T13:57:05Z</time>
      </trkpt>
      <trkpt lat="43.87954" lon="6.50223">
        <ele>960.20001220703</ele>
        <time>2022-08-21T13:57:06Z</time>
      </trkpt>
      <trkpt lat="43.87943" lon="6.50218">
        <ele>959.59997558594</ele>
        <time>2022-08-21T13:57:08Z</time>
      </trkpt>
      <trkpt lat="43.87937" lon="6.50218">
        <ele>959</ele>
        <time>2022-08-21T13:57:09Z</time>
      </trkpt>
      <trkpt lat="43.87932" lon="6.50219">
        <ele>958.40002441406</ele>
        <time>2022-08-21T13:57:10Z</time>
      </trkpt>
      <trkpt lat="43.87922" lon="6.50224">
        <ele>957.59997558594</ele>
        <time>2022-08-21T13:57:12Z</time>
      </trkpt>
      <trkpt lat="43.87918" lon="6.50227">
        <ele>957.20001220703</ele>
        <time>2022-08-21T13:57:13Z</time>
      </trkpt>
      <trkpt lat="43.87913" lon="6.50232">
        <ele>957</ele>
        <time>2022-08-21T13:57:14Z</time>
      </trkpt>
      <trkpt lat="43.87905" lon="6.50245">
        <ele>956.40002441406</ele>
        <time>2022-08-21T13:57:16Z</time>
      </trkpt>
      <trkpt lat="43.87901" lon="6.50252">
        <ele>956</ele>
        <time>2022-08-21T13:57:17Z</time>
      </trkpt>
      <trkpt lat="43.87894" lon="6.50266">
        <ele>955</ele>
        <time>2022-08-21T13:57:19Z</time>
      </trkpt>
      <trkpt lat="43.87878" lon="6.50293">
        <ele>954</ele>
        <time>2022-08-21T13:57:23Z</time>
      </trkpt>
      <trkpt lat="43.87874" lon="6.50299">
        <ele>954</ele>
        <time>2022-08-21T13:57:24Z</time>
      </trkpt>
      <trkpt lat="43.87865" lon="6.50308">
        <ele>953.79998779297</ele>
        <time>2022-08-21T13:57:26Z</time>
      </trkpt>
      <trkpt lat="43.8785" lon="6.50321">
        <ele>953.40002441406</ele>
        <time>2022-08-21T13:57:29Z</time>
      </trkpt>
      <trkpt lat="43.87845" lon="6.50325">
        <ele>953.20001220703</ele>
        <time>2022-08-21T13:57:30Z</time>
      </trkpt>
      <trkpt lat="43.8784" lon="6.5033">
        <ele>953</ele>
        <time>2022-08-21T13:57:31Z</time>
      </trkpt>
      <trkpt lat="43.87831" lon="6.50341">
        <ele>952.40002441406</ele>
        <time>2022-08-21T13:57:33Z</time>
      </trkpt>
      <trkpt lat="43.87822" lon="6.50354">
        <ele>951.59997558594</ele>
        <time>2022-08-21T13:57:35Z</time>
      </trkpt>
      <trkpt lat="43.87818" lon="6.50361">
        <ele>951</ele>
        <time>2022-08-21T13:57:36Z</time>
      </trkpt>
      <trkpt lat="43.87814" lon="6.50368">
        <ele>950.59997558594</ele>
        <time>2022-08-21T13:57:37Z</time>
      </trkpt>
      <trkpt lat="43.87801" lon="6.50387">
        <ele>949.20001220703</ele>
        <time>2022-08-21T13:57:40Z</time>
      </trkpt>
      <trkpt lat="43.8779" lon="6.50406">
        <ele>948.20001220703</ele>
        <time>2022-08-21T13:57:43Z</time>
      </trkpt>
      <trkpt lat="43.87786" lon="6.50412">
        <ele>947.59997558594</ele>
        <time>2022-08-21T13:57:44Z</time>
      </trkpt>
      <trkpt lat="43.87778" lon="6.50424">
        <ele>947</ele>
        <time>2022-08-21T13:57:46Z</time>
      </trkpt>
      <trkpt lat="43.8776" lon="6.50458">
        <ele>945.79998779297</ele>
        <time>2022-08-21T13:57:51Z</time>
      </trkpt>
      <trkpt lat="43.87748" lon="6.5048">
        <ele>944.59997558594</ele>
        <time>2022-08-21T13:57:54Z</time>
      </trkpt>
      <trkpt lat="43.8774" lon="6.50494">
        <ele>943.40002441406</ele>
        <time>2022-08-21T13:57:56Z</time>
      </trkpt>
      <trkpt lat="43.87728" lon="6.50514">
        <ele>942.59997558594</ele>
        <time>2022-08-21T13:57:59Z</time>
      </trkpt>
      <trkpt lat="43.87725" lon="6.5052">
        <ele>942.40002441406</ele>
        <time>2022-08-21T13:58:00Z</time>
      </trkpt>
      <trkpt lat="43.87704" lon="6.50559">
        <ele>941.20001220703</ele>
        <time>2022-08-21T13:58:07Z</time>
      </trkpt>
      <trkpt lat="43.8769" lon="6.50588">
        <ele>940.20001220703</ele>
        <time>2022-08-21T13:58:13Z</time>
      </trkpt>
      <trkpt lat="43.87686" lon="6.50596">
        <ele>940</ele>
        <time>2022-08-21T13:58:15Z</time>
      </trkpt>
      <trkpt lat="43.87673" lon="6.50628">
        <ele>939</ele>
        <time>2022-08-21T13:58:22Z</time>
      </trkpt>
      <trkpt lat="43.8766" lon="6.50655">
        <ele>938.20001220703</ele>
        <time>2022-08-21T13:58:27Z</time>
      </trkpt>
      <trkpt lat="43.87658" lon="6.50661">
        <ele>938</ele>
        <time>2022-08-21T13:58:28Z</time>
      </trkpt>
      <trkpt lat="43.87656" lon="6.50666">
        <ele>937.59997558594</ele>
        <time>2022-08-21T13:58:29Z</time>
      </trkpt>
      <trkpt lat="43.87653" lon="6.50684">
        <ele>936.79998779297</ele>
        <time>2022-08-21T13:58:32Z</time>
      </trkpt>
      <trkpt lat="43.8765" lon="6.50708">
        <ele>935.79998779297</ele>
        <time>2022-08-21T13:58:36Z</time>
      </trkpt>
      <trkpt lat="43.87649" lon="6.50715">
        <ele>935.59997558594</ele>
        <time>2022-08-21T13:58:37Z</time>
      </trkpt>
      <trkpt lat="43.87648" lon="6.50722">
        <ele>935.40002441406</ele>
        <time>2022-08-21T13:58:38Z</time>
      </trkpt>
      <trkpt lat="43.87642" lon="6.5074">
        <ele>934.59997558594</ele>
        <time>2022-08-21T13:58:41Z</time>
      </trkpt>
      <trkpt lat="43.8764" lon="6.50746">
        <ele>934.20001220703</ele>
        <time>2022-08-21T13:58:42Z</time>
      </trkpt>
      <trkpt lat="43.87637" lon="6.5075">
        <ele>933.79998779297</ele>
        <time>2022-08-21T13:58:43Z</time>
      </trkpt>
      <trkpt lat="43.87632" lon="6.50759">
        <ele>933.20001220703</ele>
        <time>2022-08-21T13:58:45Z</time>
      </trkpt>
      <trkpt lat="43.8763" lon="6.50764">
        <ele>933</ele>
        <time>2022-08-21T13:58:46Z</time>
      </trkpt>
      <trkpt lat="43.87629" lon="6.5077">
        <ele>932.79998779297</ele>
        <time>2022-08-21T13:58:47Z</time>
      </trkpt>
      <trkpt lat="43.87622" lon="6.5079">
        <ele>932.20001220703</ele>
        <time>2022-08-21T13:58:51Z</time>
      </trkpt>
      <trkpt lat="43.8762" lon="6.50795">
        <ele>932.20001220703</ele>
        <time>2022-08-21T13:58:52Z</time>
      </trkpt>
      <trkpt lat="43.87615" lon="6.50805">
        <ele>931.79998779297</ele>
        <time>2022-08-21T13:58:54Z</time>
      </trkpt>
      <trkpt lat="43.87609" lon="6.50815">
        <ele>931.20001220703</ele>
        <time>2022-08-21T13:58:56Z</time>
      </trkpt>
      <trkpt lat="43.87599" lon="6.5083">
        <ele>930.40002441406</ele>
        <time>2022-08-21T13:58:59Z</time>
      </trkpt>
      <trkpt lat="43.87595" lon="6.50834">
        <ele>930.20001220703</ele>
        <time>2022-08-21T13:59:00Z</time>
      </trkpt>
      <trkpt lat="43.87591" lon="6.50838">
        <ele>930</ele>
        <time>2022-08-21T13:59:01Z</time>
      </trkpt>
      <trkpt lat="43.87583" lon="6.50843">
        <ele>929.79998779297</ele>
        <time>2022-08-21T13:59:03Z</time>
      </trkpt>
      <trkpt lat="43.87575" lon="6.50844">
        <ele>929.79998779297</ele>
        <time>2022-08-21T13:59:05Z</time>
      </trkpt>
      <trkpt lat="43.87563" lon="6.50841">
        <ele>930</ele>
        <time>2022-08-21T13:59:08Z</time>
      </trkpt>
      <trkpt lat="43.87555" lon="6.50837">
        <ele>930</ele>
        <time>2022-08-21T13:59:10Z</time>
      </trkpt>
      <trkpt lat="43.87532" lon="6.50822">
        <ele>929.40002441406</ele>
        <time>2022-08-21T13:59:15Z</time>
      </trkpt>
      <trkpt lat="43.87526" lon="6.50821">
        <ele>929.40002441406</ele>
        <time>2022-08-21T13:59:16Z</time>
      </trkpt>
      <trkpt lat="43.8752" lon="6.50821">
        <ele>929</ele>
        <time>2022-08-21T13:59:17Z</time>
      </trkpt>
      <trkpt lat="43.8751" lon="6.5083">
        <ele>928.40002441406</ele>
        <time>2022-08-21T13:59:19Z</time>
      </trkpt>
      <trkpt lat="43.87501" lon="6.50844">
        <ele>928</ele>
        <time>2022-08-21T13:59:21Z</time>
      </trkpt>
      <trkpt lat="43.87487" lon="6.50866">
        <ele>927</ele>
        <time>2022-08-21T13:59:24Z</time>
      </trkpt>
      <trkpt lat="43.87483" lon="6.50874">
        <ele>926.79998779297</ele>
        <time>2022-08-21T13:59:25Z</time>
      </trkpt>
      <trkpt lat="43.87468" lon="6.50899">
        <ele>925.79998779297</ele>
        <time>2022-08-21T13:59:28Z</time>
      </trkpt>
      <trkpt lat="43.87454" lon="6.50926">
        <ele>924.40002441406</ele>
        <time>2022-08-21T13:59:31Z</time>
      </trkpt>
      <trkpt lat="43.87435" lon="6.50964">
        <ele>923.20001220703</ele>
        <time>2022-08-21T13:59:35Z</time>
      </trkpt>
      <trkpt lat="43.87423" lon="6.50981">
        <ele>922.40002441406</ele>
        <time>2022-08-21T13:59:37Z</time>
      </trkpt>
      <trkpt lat="43.87417" lon="6.50989">
        <ele>922</ele>
        <time>2022-08-21T13:59:38Z</time>
      </trkpt>
      <trkpt lat="43.87396" lon="6.51013">
        <ele>920.59997558594</ele>
        <time>2022-08-21T13:59:41Z</time>
      </trkpt>
      <trkpt lat="43.87382" lon="6.51027">
        <ele>920</ele>
        <time>2022-08-21T13:59:43Z</time>
      </trkpt>
      <trkpt lat="43.87365" lon="6.51038">
        <ele>919.40002441406</ele>
        <time>2022-08-21T13:59:45Z</time>
      </trkpt>
      <trkpt lat="43.87332" lon="6.51058">
        <ele>918.20001220703</ele>
        <time>2022-08-21T13:59:49Z</time>
      </trkpt>
      <trkpt lat="43.87323" lon="6.51063">
        <ele>917.59997558594</ele>
        <time>2022-08-21T13:59:50Z</time>
      </trkpt>
      <trkpt lat="43.87314" lon="6.51066">
        <ele>917.20001220703</ele>
        <time>2022-08-21T13:59:51Z</time>
      </trkpt>
      <trkpt lat="43.87296" lon="6.51073">
        <ele>915.40002441406</ele>
        <time>2022-08-21T13:59:53Z</time>
      </trkpt>
      <trkpt lat="43.87277" lon="6.5108">
        <ele>914</ele>
        <time>2022-08-21T13:59:55Z</time>
      </trkpt>
      <trkpt lat="43.87268" lon="6.51083">
        <ele>913.59997558594</ele>
        <time>2022-08-21T13:59:56Z</time>
      </trkpt>
      <trkpt lat="43.87242" lon="6.51095">
        <ele>912.59997558594</ele>
        <time>2022-08-21T13:59:59Z</time>
      </trkpt>
      <trkpt lat="43.87217" lon="6.51105">
        <ele>911.20001220703</ele>
        <time>2022-08-21T14:00:02Z</time>
      </trkpt>
      <trkpt lat="43.87209" lon="6.51108">
        <ele>911</ele>
        <time>2022-08-21T14:00:03Z</time>
      </trkpt>
      <trkpt lat="43.87162" lon="6.51129">
        <ele>909.79998779297</ele>
        <time>2022-08-21T14:00:09Z</time>
      </trkpt>
      <trkpt lat="43.8714" lon="6.51136">
        <ele>908.79998779297</ele>
        <time>2022-08-21T14:00:12Z</time>
      </trkpt>
      <trkpt lat="43.87119" lon="6.51139">
        <ele>908.40002441406</ele>
        <time>2022-08-21T14:00:15Z</time>
      </trkpt>
      <trkpt lat="43.87102" lon="6.51144">
        <ele>908.59997558594</ele>
        <time>2022-08-21T14:00:18Z</time>
      </trkpt>
      <trkpt lat="43.87097" lon="6.51148">
        <ele>908.59997558594</ele>
        <time>2022-08-21T14:00:19Z</time>
      </trkpt>
      <trkpt lat="43.87092" lon="6.51153">
        <ele>908.59997558594</ele>
        <time>2022-08-21T14:00:20Z</time>
      </trkpt>
      <trkpt lat="43.87085" lon="6.51163">
        <ele>908.59997558594</ele>
        <time>2022-08-21T14:00:22Z</time>
      </trkpt>
      <trkpt lat="43.87081" lon="6.51168">
        <ele>908.59997558594</ele>
        <time>2022-08-21T14:00:23Z</time>
      </trkpt>
      <trkpt lat="43.87073" lon="6.51186">
        <ele>908.20001220703</ele>
        <time>2022-08-21T14:00:26Z</time>
      </trkpt>
      <trkpt lat="43.87073" lon="6.51197">
        <ele>908.40002441406</ele>
        <time>2022-08-21T14:00:28Z</time>
      </trkpt>
      <trkpt lat="43.87078" lon="6.51207">
        <ele>908.40002441406</ele>
        <time>2022-08-21T14:00:30Z</time>
      </trkpt>
      <trkpt lat="43.87081" lon="6.51211">
        <ele>908.40002441406</ele>
        <time>2022-08-21T14:00:31Z</time>
      </trkpt>
      <trkpt lat="43.8711" lon="6.51236">
        <ele>908.79998779297</ele>
        <time>2022-08-21T14:00:38Z</time>
      </trkpt>
      <trkpt lat="43.87114" lon="6.51239">
        <ele>908.79998779297</ele>
        <time>2022-08-21T14:00:39Z</time>
      </trkpt>
      <trkpt lat="43.87123" lon="6.51244">
        <ele>908.79998779297</ele>
        <time>2022-08-21T14:00:41Z</time>
      </trkpt>
      <trkpt lat="43.87146" lon="6.51254">
        <ele>908.79998779297</ele>
        <time>2022-08-21T14:00:46Z</time>
      </trkpt>
      <trkpt lat="43.87159" lon="6.5126">
        <ele>908.79998779297</ele>
        <time>2022-08-21T14:00:49Z</time>
      </trkpt>
      <trkpt lat="43.87166" lon="6.51264">
        <ele>908.79998779297</ele>
        <time>2022-08-21T14:00:51Z</time>
      </trkpt>
      <trkpt lat="43.8717" lon="6.51266">
        <ele>908.79998779297</ele>
        <time>2022-08-21T14:00:52Z</time>
      </trkpt>
      <trkpt lat="43.87192" lon="6.5128">
        <ele>908.20001220703</ele>
        <time>2022-08-21T14:00:57Z</time>
      </trkpt>
      <trkpt lat="43.87211" lon="6.51292">
        <ele>908.20001220703</ele>
        <time>2022-08-21T14:01:01Z</time>
      </trkpt>
      <trkpt lat="43.87249" lon="6.51328">
        <ele>907.79998779297</ele>
        <time>2022-08-21T14:01:10Z</time>
      </trkpt>
      <trkpt lat="43.87253" lon="6.51333">
        <ele>907.79998779297</ele>
        <time>2022-08-21T14:01:11Z</time>
      </trkpt>
      <trkpt lat="43.87278" lon="6.5136">
        <ele>907.40002441406</ele>
        <time>2022-08-21T14:01:17Z</time>
      </trkpt>
      <trkpt lat="43.87318" lon="6.51401">
        <ele>907</ele>
        <time>2022-08-21T14:01:26Z</time>
      </trkpt>
      <trkpt lat="43.87332" lon="6.51415">
        <ele>906.79998779297</ele>
        <time>2022-08-21T14:01:29Z</time>
      </trkpt>
      <trkpt lat="43.87341" lon="6.51425">
        <ele>906.59997558594</ele>
        <time>2022-08-21T14:01:31Z</time>
      </trkpt>
      <trkpt lat="43.87348" lon="6.51439">
        <ele>906.40002441406</ele>
        <time>2022-08-21T14:01:33Z</time>
      </trkpt>
      <trkpt lat="43.87358" lon="6.51479">
        <ele>906.20001220703</ele>
        <time>2022-08-21T14:01:38Z</time>
      </trkpt>
      <trkpt lat="43.87364" lon="6.51538">
        <ele>907</ele>
        <time>2022-08-21T14:01:45Z</time>
      </trkpt>
      <trkpt lat="43.87366" lon="6.51586">
        <ele>907</ele>
        <time>2022-08-21T14:01:51Z</time>
      </trkpt>
      <trkpt lat="43.87368" lon="6.51627">
        <ele>905.59997558594</ele>
        <time>2022-08-21T14:01:56Z</time>
      </trkpt>
      <trkpt lat="43.87369" lon="6.51636">
        <ele>905.40002441406</ele>
        <time>2022-08-21T14:01:57Z</time>
      </trkpt>
      <trkpt lat="43.87371" lon="6.5169">
        <ele>904.59997558594</ele>
        <time>2022-08-21T14:02:03Z</time>
      </trkpt>
      <trkpt lat="43.87373" lon="6.51709">
        <ele>904.59997558594</ele>
        <time>2022-08-21T14:02:05Z</time>
      </trkpt>
      <trkpt lat="43.87375" lon="6.51737">
        <ele>904.20001220703</ele>
        <time>2022-08-21T14:02:08Z</time>
      </trkpt>
      <trkpt lat="43.87378" lon="6.51775">
        <ele>903.59997558594</ele>
        <time>2022-08-21T14:02:12Z</time>
      </trkpt>
      <trkpt lat="43.8738" lon="6.51795">
        <ele>903.20001220703</ele>
        <time>2022-08-21T14:02:14Z</time>
      </trkpt>
      <trkpt lat="43.87381" lon="6.51815">
        <ele>902.59997558594</ele>
        <time>2022-08-21T14:02:16Z</time>
      </trkpt>
      <trkpt lat="43.87382" lon="6.51845">
        <ele>902</ele>
        <time>2022-08-21T14:02:19Z</time>
      </trkpt>
      <trkpt lat="43.87383" lon="6.51865">
        <ele>901.59997558594</ele>
        <time>2022-08-21T14:02:21Z</time>
      </trkpt>
      <trkpt lat="43.87383" lon="6.51875">
        <ele>901.40002441406</ele>
        <time>2022-08-21T14:02:22Z</time>
      </trkpt>
      <trkpt lat="43.87385" lon="6.51904">
        <ele>901</ele>
        <time>2022-08-21T14:02:25Z</time>
      </trkpt>
      <trkpt lat="43.87386" lon="6.51922">
        <ele>900.20001220703</ele>
        <time>2022-08-21T14:02:27Z</time>
      </trkpt>
      <trkpt lat="43.87387" lon="6.51931">
        <ele>900</ele>
        <time>2022-08-21T14:02:28Z</time>
      </trkpt>
      <trkpt lat="43.87388" lon="6.51959">
        <ele>899.40002441406</ele>
        <time>2022-08-21T14:02:31Z</time>
      </trkpt>
      <trkpt lat="43.87388" lon="6.51976">
        <ele>899.20001220703</ele>
        <time>2022-08-21T14:02:33Z</time>
      </trkpt>
      <trkpt lat="43.8739" lon="6.52001">
        <ele>899</ele>
        <time>2022-08-21T14:02:36Z</time>
      </trkpt>
      <trkpt lat="43.87389" lon="6.52009">
        <ele>899</ele>
        <time>2022-08-21T14:02:37Z</time>
      </trkpt>
      <trkpt lat="43.87387" lon="6.52032">
        <ele>899</ele>
        <time>2022-08-21T14:02:40Z</time>
      </trkpt>
      <trkpt lat="43.87382" lon="6.52067">
        <ele>899.40002441406</ele>
        <time>2022-08-21T14:02:45Z</time>
      </trkpt>
      <trkpt lat="43.8738" lon="6.52088">
        <ele>899.59997558594</ele>
        <time>2022-08-21T14:02:48Z</time>
      </trkpt>
      <trkpt lat="43.87376" lon="6.52122">
        <ele>899.40002441406</ele>
        <time>2022-08-21T14:02:53Z</time>
      </trkpt>
      <trkpt lat="43.87374" lon="6.52138">
        <ele>899.40002441406</ele>
        <time>2022-08-21T14:02:56Z</time>
      </trkpt>
      <trkpt lat="43.87372" lon="6.52152">
        <ele>899.59997558594</ele>
        <time>2022-08-21T14:02:59Z</time>
      </trkpt>
      <trkpt lat="43.87372" lon="6.5216">
        <ele>899.59997558594</ele>
        <time>2022-08-21T14:03:01Z</time>
      </trkpt>
      <trkpt lat="43.87376" lon="6.52158">
        <ele>899.59997558594</ele>
        <time>2022-08-21T14:03:03Z</time>
      </trkpt>
      <trkpt lat="43.87378" lon="6.52137">
        <ele>899.59997558594</ele>
        <time>2022-08-21T14:03:08Z</time>
      </trkpt>
      <trkpt lat="43.87381" lon="6.52105">
        <ele>899.59997558594</ele>
        <time>2022-08-21T14:03:14Z</time>
      </trkpt>
      <trkpt lat="43.87388" lon="6.52077">
        <ele>899.59997558594</ele>
        <time>2022-08-21T14:03:20Z</time>
      </trkpt>
      <trkpt lat="43.87388" lon="6.52068">
        <ele>899.79998779297</ele>
        <time>2022-08-21T14:03:23Z</time>
      </trkpt>
      <trkpt lat="43.87389" lon="6.52064">
        <ele>899.79998779297</ele>
        <time>2022-08-21T14:03:24Z</time>
      </trkpt>
      <trkpt lat="43.87389" lon="6.52049">
        <ele>900</ele>
        <time>2022-08-21T14:03:27Z</time>
      </trkpt>
      <trkpt lat="43.87392" lon="6.5203">
        <ele>900</ele>
        <time>2022-08-21T14:03:31Z</time>
      </trkpt>
      <trkpt lat="43.87394" lon="6.51992">
        <ele>899.40002441406</ele>
        <time>2022-08-21T14:03:38Z</time>
      </trkpt>
      <trkpt lat="43.87392" lon="6.51956">
        <ele>899.20001220703</ele>
        <time>2022-08-21T14:03:45Z</time>
      </trkpt>
      <trkpt lat="43.87392" lon="6.51942">
        <ele>899.40002441406</ele>
        <time>2022-08-21T14:03:49Z</time>
      </trkpt>
      <trkpt lat="43.87394" lon="6.51942">
        <ele>899.40002441406</ele>
        <time>2022-08-21T14:03:50Z</time>
      </trkpt>
      <trkpt lat="43.87398" lon="6.51942">
        <ele>899.20001220703</ele>
        <time>2022-08-21T14:03:52Z</time>
      </trkpt>
      <trkpt lat="43.87401" lon="6.51941">
        <ele>898.79998779297</ele>
        <time>2022-08-21T14:03:53Z</time>
      </trkpt>
      <trkpt lat="43.87403" lon="6.51941">
        <ele>898.40002441406</ele>
        <time>2022-08-21T14:03:54Z</time>
      </trkpt>
      <trkpt lat="43.87407" lon="6.51942">
        <ele>897.40002441406</ele>
        <time>2022-08-21T14:03:56Z</time>
      </trkpt>
      <trkpt lat="43.87408" lon="6.51944">
        <ele>897</ele>
        <time>2022-08-21T14:03:57Z</time>
      </trkpt>
      <trkpt lat="43.87409" lon="6.51948">
        <ele>896.20001220703</ele>
        <time>2022-08-21T14:03:59Z</time>
      </trkpt>
      <trkpt lat="43.87414" lon="6.51955">
        <ele>895</ele>
        <time>2022-08-21T14:04:02Z</time>
      </trkpt>
      <trkpt lat="43.87418" lon="6.51966">
        <ele>894.20001220703</ele>
        <time>2022-08-21T14:04:05Z</time>
      </trkpt>
      <trkpt lat="43.8742" lon="6.51968">
        <ele>894</ele>
        <time>2022-08-21T14:04:06Z</time>
      </trkpt>
      <trkpt lat="43.87428" lon="6.51983">
        <ele>892.79998779297</ele>
        <time>2022-08-21T14:04:12Z</time>
      </trkpt>
      <trkpt lat="43.87428" lon="6.51988">
        <ele>892.59997558594</ele>
        <time>2022-08-21T14:04:14Z</time>
      </trkpt>
      <trkpt lat="43.87428" lon="6.51999">
        <ele>892.40002441406</ele>
        <time>2022-08-21T14:04:18Z</time>
      </trkpt>
      <trkpt lat="43.87428" lon="6.52002">
        <ele>892.40002441406</ele>
        <time>2022-08-21T14:04:19Z</time>
      </trkpt>
      <trkpt lat="43.87423" lon="6.52019">
        <ele>892</ele>
        <time>2022-08-21T14:04:26Z</time>
      </trkpt>
      <trkpt lat="43.87423" lon="6.52019">
        <ele>892</ele>
        <time>2022-08-21T14:04:29Z</time>
      </trkpt>
      <trkpt lat="43.87423" lon="6.52019">
        <ele>892</ele>
        <time>2022-08-21T14:04:31Z</time>
      </trkpt>
      <trkpt lat="43.87424" lon="6.52018">
        <ele>891.79998779297</ele>
        <time>2022-08-21T14:04:36Z</time>
      </trkpt>
      <trkpt lat="43.87424" lon="6.52017">
        <ele>892</ele>
        <time>2022-08-21T14:04:41Z</time>
      </trkpt>
      <trkpt lat="43.87425" lon="6.52017">
        <ele>891.79998779297</ele>
        <time>2022-08-21T14:04:45Z</time>
      </trkpt>
      <trkpt lat="43.87425" lon="6.52017">
        <ele>891.79998779297</ele>
        <time>2022-08-21T14:04:46Z</time>
      </trkpt>
      <trkpt lat="43.87425" lon="6.52017">
        <ele>891.79998779297</ele>
        <time>2022-08-21T14:04:50Z</time>
      </trkpt>
      <trkpt lat="43.87423" lon="6.52016">
        <ele>891.79998779297</ele>
        <time>2022-08-21T14:05:00Z</time>
      </trkpt>
      <trkpt lat="43.87423" lon="6.52017">
        <ele>891.59997558594</ele>
        <time>2022-08-21T14:05:04Z</time>
      </trkpt>
      <trkpt lat="43.87423" lon="6.52017">
        <ele>891.59997558594</ele>
        <time>2022-08-21T14:05:06Z</time>
      </trkpt>
      <trkpt lat="43.87422" lon="6.52016">
        <ele>891.40002441406</ele>
        <time>2022-08-21T14:05:08Z</time>
      </trkpt>
      <trkpt lat="43.87422" lon="6.52016">
        <ele>891.40002441406</ele>
        <time>2022-08-21T14:05:10Z</time>
      </trkpt>
      <trkpt lat="43.87422" lon="6.52017">
        <ele>891.40002441406</ele>
        <time>2022-08-21T14:05:16Z</time>
      </trkpt>
      <trkpt lat="43.87424" lon="6.52016">
        <ele>891.59997558594</ele>
        <time>2022-08-21T14:05:26Z</time>
      </trkpt>
      <trkpt lat="43.87425" lon="6.52016">
        <ele>891.59997558594</ele>
        <time>2022-08-21T14:05:31Z</time>
      </trkpt>
      <trkpt lat="43.87426" lon="6.52017">
        <ele>891.20001220703</ele>
        <time>2022-08-21T14:05:34Z</time>
      </trkpt>
      <trkpt lat="43.87427" lon="6.52019">
        <ele>890.79998779297</ele>
        <time>2022-08-21T14:05:39Z</time>
      </trkpt>
      <trkpt lat="43.87427" lon="6.5202">
        <ele>890.59997558594</ele>
        <time>2022-08-21T14:05:45Z</time>
      </trkpt>
      <trkpt lat="43.87426" lon="6.5202">
        <ele>890.59997558594</ele>
        <time>2022-08-21T14:05:47Z</time>
      </trkpt>
      <trkpt lat="43.87424" lon="6.52018">
        <ele>891</ele>
        <time>2022-08-21T14:05:53Z</time>
      </trkpt>
      <trkpt lat="43.87423" lon="6.52017">
        <ele>891.59997558594</ele>
        <time>2022-08-21T14:05:58Z</time>
      </trkpt>
      <trkpt lat="43.87423" lon="6.52017">
        <ele>891.40002441406</ele>
        <time>2022-08-21T14:05:59Z</time>
      </trkpt>
      <trkpt lat="43.87423" lon="6.52018">
        <ele>890.79998779297</ele>
        <time>2022-08-21T14:06:05Z</time>
      </trkpt>
      <trkpt lat="43.87423" lon="6.52019">
        <ele>890.40002441406</ele>
        <time>2022-08-21T14:06:09Z</time>
      </trkpt>
      <trkpt lat="43.87424" lon="6.52018">
        <ele>890.79998779297</ele>
        <time>2022-08-21T14:06:17Z</time>
      </trkpt>
      <trkpt lat="43.87424" lon="6.52018">
        <ele>891</ele>
        <time>2022-08-21T14:06:19Z</time>
      </trkpt>
      <trkpt lat="43.87424" lon="6.52019">
        <ele>890.79998779297</ele>
        <time>2022-08-21T14:06:22Z</time>
      </trkpt>
      <trkpt lat="43.87424" lon="6.52019">
        <ele>891</ele>
        <time>2022-08-21T14:06:25Z</time>
      </trkpt>
      <trkpt lat="43.87423" lon="6.52019">
        <ele>890.79998779297</ele>
        <time>2022-08-21T14:06:31Z</time>
      </trkpt>
      <trkpt lat="43.87423" lon="6.52019">
        <ele>890.59997558594</ele>
        <time>2022-08-21T14:06:32Z</time>
      </trkpt>
      <trkpt lat="43.87423" lon="6.52019">
        <ele>889.79998779297</ele>
        <time>2022-08-21T14:06:39Z</time>
      </trkpt>
      <trkpt lat="43.87423" lon="6.52019">
        <ele>889.59997558594</ele>
        <time>2022-08-21T14:06:46Z</time>
      </trkpt>
      <trkpt lat="43.87423" lon="6.5202">
        <ele>889.59997558594</ele>
        <time>2022-08-21T14:06:49Z</time>
      </trkpt>
      <trkpt lat="43.87424" lon="6.52021">
        <ele>889.59997558594</ele>
        <time>2022-08-21T14:06:55Z</time>
      </trkpt>
      <trkpt lat="43.87424" lon="6.52021">
        <ele>889.59997558594</ele>
        <time>2022-08-21T14:06:58Z</time>
      </trkpt>
      <trkpt lat="43.87425" lon="6.52021">
        <ele>889.59997558594</ele>
        <time>2022-08-21T14:07:11Z</time>
      </trkpt>
      <trkpt lat="43.87425" lon="6.52021">
        <ele>889.59997558594</ele>
        <time>2022-08-21T14:07:18Z</time>
      </trkpt>
      <trkpt lat="43.87425" lon="6.5202">
        <ele>889.59997558594</ele>
        <time>2022-08-21T14:07:22Z</time>
      </trkpt>
      <trkpt lat="43.87425" lon="6.5202">
        <ele>889.40002441406</ele>
        <time>2022-08-21T14:07:31Z</time>
      </trkpt>
      <trkpt lat="43.87426" lon="6.5202">
        <ele>889.59997558594</ele>
        <time>2022-08-21T14:07:37Z</time>
      </trkpt>
      <trkpt lat="43.87426" lon="6.52019">
        <ele>890</ele>
        <time>2022-08-21T14:07:43Z</time>
      </trkpt>
      <trkpt lat="43.87425" lon="6.52019">
        <ele>890.20001220703</ele>
        <time>2022-08-21T14:07:47Z</time>
      </trkpt>
      <trkpt lat="43.87425" lon="6.52019">
        <ele>890.40002441406</ele>
        <time>2022-08-21T14:07:52Z</time>
      </trkpt>
      <trkpt lat="43.87423" lon="6.52019">
        <ele>889.79998779297</ele>
        <time>2022-08-21T14:08:01Z</time>
      </trkpt>
      <trkpt lat="43.87422" lon="6.52019">
        <ele>889.79998779297</ele>
        <time>2022-08-21T14:08:04Z</time>
      </trkpt>
      <trkpt lat="43.8742" lon="6.52017">
        <ele>889.79998779297</ele>
        <time>2022-08-21T14:08:09Z</time>
      </trkpt>
      <trkpt lat="43.87421" lon="6.52018">
        <ele>890.20001220703</ele>
        <time>2022-08-21T14:08:18Z</time>
      </trkpt>
      <trkpt lat="43.87424" lon="6.52023">
        <ele>889.59997558594</ele>
        <time>2022-08-21T14:08:30Z</time>
      </trkpt>
      <trkpt lat="43.87424" lon="6.52023">
        <ele>889.59997558594</ele>
        <time>2022-08-21T14:08:32Z</time>
      </trkpt>
      <trkpt lat="43.87424" lon="6.52023">
        <ele>889.40002441406</ele>
        <time>2022-08-21T14:08:34Z</time>
      </trkpt>
      <trkpt lat="43.87424" lon="6.52025">
        <ele>889.40002441406</ele>
        <time>2022-08-21T14:08:37Z</time>
      </trkpt>
      <trkpt lat="43.87424" lon="6.52026">
        <ele>889.20001220703</ele>
        <time>2022-08-21T14:08:42Z</time>
      </trkpt>
      <trkpt lat="43.87424" lon="6.52026">
        <ele>889</ele>
        <time>2022-08-21T14:08:49Z</time>
      </trkpt>
      <trkpt lat="43.87424" lon="6.52026">
        <ele>889.20001220703</ele>
        <time>2022-08-21T14:08:53Z</time>
      </trkpt>
      <trkpt lat="43.87426" lon="6.52026">
        <ele>889.40002441406</ele>
        <time>2022-08-21T14:08:59Z</time>
      </trkpt>
      <trkpt lat="43.87426" lon="6.52029">
        <ele>889.40002441406</ele>
        <time>2022-08-21T14:09:06Z</time>
      </trkpt>
      <trkpt lat="43.87425" lon="6.52029">
        <ele>889.20001220703</ele>
        <time>2022-08-21T14:09:07Z</time>
      </trkpt>
      <trkpt lat="43.87426" lon="6.5203">
        <ele>889.20001220703</ele>
        <time>2022-08-21T14:09:18Z</time>
      </trkpt>
      <trkpt lat="43.87426" lon="6.5203">
        <ele>889.40002441406</ele>
        <time>2022-08-21T14:09:23Z</time>
      </trkpt>
      <trkpt lat="43.87426" lon="6.52031">
        <ele>889.59997558594</ele>
        <time>2022-08-21T14:09:27Z</time>
      </trkpt>
      <trkpt lat="43.87426" lon="6.52031">
        <ele>889.40002441406</ele>
        <time>2022-08-21T14:09:29Z</time>
      </trkpt>
      <trkpt lat="43.87425" lon="6.52032">
        <ele>889.79998779297</ele>
        <time>2022-08-21T14:09:41Z</time>
      </trkpt>
      <trkpt lat="43.87424" lon="6.52031">
        <ele>890</ele>
        <time>2022-08-21T14:09:51Z</time>
      </trkpt>
      <trkpt lat="43.87424" lon="6.52032">
        <ele>890.20001220703</ele>
        <time>2022-08-21T14:09:56Z</time>
      </trkpt>
      <trkpt lat="43.87426" lon="6.52032">
        <ele>889.79998779297</ele>
        <time>2022-08-21T14:10:04Z</time>
      </trkpt>
      <trkpt lat="43.87426" lon="6.52032">
        <ele>889.79998779297</ele>
        <time>2022-08-21T14:10:05Z</time>
      </trkpt>
      <trkpt lat="43.87425" lon="6.52032">
        <ele>889.59997558594</ele>
        <time>2022-08-21T14:10:08Z</time>
      </trkpt>
      <trkpt lat="43.87425" lon="6.52034">
        <ele>889.59997558594</ele>
        <time>2022-08-21T14:10:11Z</time>
      </trkpt>
      <trkpt lat="43.87424" lon="6.52035">
        <ele>889.79998779297</ele>
        <time>2022-08-21T14:10:18Z</time>
      </trkpt>
      <trkpt lat="43.87425" lon="6.52036">
        <ele>889.79998779297</ele>
        <time>2022-08-21T14:10:22Z</time>
      </trkpt>
      <trkpt lat="43.87424" lon="6.52036">
        <ele>889.79998779297</ele>
        <time>2022-08-21T14:10:25Z</time>
      </trkpt>
      <trkpt lat="43.87425" lon="6.52037">
        <ele>889.79998779297</ele>
        <time>2022-08-21T14:10:30Z</time>
      </trkpt>
      <trkpt lat="43.87426" lon="6.52039">
        <ele>889.40002441406</ele>
        <time>2022-08-21T14:10:40Z</time>
      </trkpt>
      <trkpt lat="43.87427" lon="6.52039">
        <ele>889.59997558594</ele>
        <time>2022-08-21T14:10:48Z</time>
      </trkpt>
      <trkpt lat="43.87427" lon="6.5204">
        <ele>889.59997558594</ele>
        <time>2022-08-21T14:10:50Z</time>
      </trkpt>
      <trkpt lat="43.87427" lon="6.52042">
        <ele>889.59997558594</ele>
        <time>2022-08-21T14:10:59Z</time>
      </trkpt>
      <trkpt lat="43.87428" lon="6.52046">
        <ele>889.59997558594</ele>
        <time>2022-08-21T14:11:11Z</time>
      </trkpt>
      <trkpt lat="43.87428" lon="6.52047">
        <ele>889.59997558594</ele>
        <time>2022-08-21T14:11:17Z</time>
      </trkpt>
      <trkpt lat="43.8743" lon="6.52047">
        <ele>889.59997558594</ele>
        <time>2022-08-21T14:11:29Z</time>
      </trkpt>
      <trkpt lat="43.8743" lon="6.52047">
        <ele>889.59997558594</ele>
        <time>2022-08-21T14:11:32Z</time>
      </trkpt>
      <trkpt lat="43.8743" lon="6.52047">
        <ele>889.59997558594</ele>
        <time>2022-08-21T14:11:38Z</time>
      </trkpt>
      <trkpt lat="43.87431" lon="6.52049">
        <ele>889.59997558594</ele>
        <time>2022-08-21T14:11:49Z</time>
      </trkpt>
      <trkpt lat="43.87431" lon="6.5205">
        <ele>889.59997558594</ele>
        <time>2022-08-21T14:11:56Z</time>
      </trkpt>
      <trkpt lat="43.87431" lon="6.52051">
        <ele>889.59997558594</ele>
        <time>2022-08-21T14:12:06Z</time>
      </trkpt>
      <trkpt lat="43.87432" lon="6.52051">
        <ele>889.59997558594</ele>
        <time>2022-08-21T14:12:14Z</time>
      </trkpt>
      <trkpt lat="43.87432" lon="6.52052">
        <ele>889.59997558594</ele>
        <time>2022-08-21T14:12:18Z</time>
      </trkpt>
      <trkpt lat="43.87432" lon="6.52052">
        <ele>889.59997558594</ele>
        <time>2022-08-21T14:12:23Z</time>
      </trkpt>
      <trkpt lat="43.87433" lon="6.52052">
        <ele>889.59997558594</ele>
        <time>2022-08-21T14:12:29Z</time>
      </trkpt>
      <trkpt lat="43.87433" lon="6.52052">
        <ele>889.59997558594</ele>
        <time>2022-08-21T14:12:31Z</time>
      </trkpt>
      <trkpt lat="43.87433" lon="6.52051">
        <ele>889.59997558594</ele>
        <time>2022-08-21T14:12:43Z</time>
      </trkpt>
      <trkpt lat="43.87433" lon="6.52051">
        <ele>889.59997558594</ele>
        <time>2022-08-21T14:12:55Z</time>
      </trkpt>
      <trkpt lat="43.87432" lon="6.52051">
        <ele>889.59997558594</ele>
        <time>2022-08-21T14:12:57Z</time>
      </trkpt>
      <trkpt lat="43.87432" lon="6.52051">
        <ele>889.59997558594</ele>
        <time>2022-08-21T14:13:07Z</time>
      </trkpt>
      <trkpt lat="43.87432" lon="6.52052">
        <ele>889.59997558594</ele>
        <time>2022-08-21T14:13:14Z</time>
      </trkpt>
      <trkpt lat="43.87432" lon="6.52054">
        <ele>889.59997558594</ele>
        <time>2022-08-21T14:13:19Z</time>
      </trkpt>
      <trkpt lat="43.87432" lon="6.52055">
        <ele>889.59997558594</ele>
        <time>2022-08-21T14:13:26Z</time>
      </trkpt>
      <trkpt lat="43.87433" lon="6.52056">
        <ele>889.59997558594</ele>
        <time>2022-08-21T14:13:32Z</time>
      </trkpt>
      <trkpt lat="43.87433" lon="6.52057">
        <ele>889.59997558594</ele>
        <time>2022-08-21T14:13:34Z</time>
      </trkpt>
      <trkpt lat="43.87433" lon="6.52057">
        <ele>889.59997558594</ele>
        <time>2022-08-21T14:13:36Z</time>
      </trkpt>
      <trkpt lat="43.87433" lon="6.52057">
        <ele>889.59997558594</ele>
        <time>2022-08-21T14:13:40Z</time>
      </trkpt>
      <trkpt lat="43.87432" lon="6.52056">
        <ele>889.59997558594</ele>
        <time>2022-08-21T14:13:48Z</time>
      </trkpt>
      <trkpt lat="43.87431" lon="6.52058">
        <ele>889.59997558594</ele>
        <time>2022-08-21T14:13:57Z</time>
      </trkpt>
      <trkpt lat="43.87431" lon="6.52058">
        <ele>889.59997558594</ele>
        <time>2022-08-21T14:13:59Z</time>
      </trkpt>
      <trkpt lat="43.8743" lon="6.52061">
        <ele>889.59997558594</ele>
        <time>2022-08-21T14:14:08Z</time>
      </trkpt>
      <trkpt lat="43.87431" lon="6.52063">
        <ele>889.59997558594</ele>
        <time>2022-08-21T14:14:38Z</time>
      </trkpt>
      <trkpt lat="43.87432" lon="6.52063">
        <ele>889.59997558594</ele>
        <time>2022-08-21T14:14:39Z</time>
      </trkpt>
      <trkpt lat="43.87433" lon="6.52063">
        <ele>889.59997558594</ele>
        <time>2022-08-21T14:14:45Z</time>
      </trkpt>
      <trkpt lat="43.87433" lon="6.52063">
        <ele>889.59997558594</ele>
        <time>2022-08-21T14:14:49Z</time>
      </trkpt>
      <trkpt lat="43.87432" lon="6.52063">
        <ele>889.59997558594</ele>
        <time>2022-08-21T14:14:57Z</time>
      </trkpt>
      <trkpt lat="43.87408" lon="6.5206">
        <ele>825.20001220703</ele>
        <time>2022-08-21T14:18:32Z</time>
      </trkpt>
      <trkpt lat="43.87429" lon="6.52054">
        <ele>825.40002441406</ele>
        <time>2022-08-21T14:18:33Z</time>
      </trkpt>
      <trkpt lat="43.87444" lon="6.52049">
        <ele>825.40002441406</ele>
        <time>2022-08-21T14:18:36Z</time>
      </trkpt>
      <trkpt lat="43.87443" lon="6.52049">
        <ele>825.20001220703</ele>
        <time>2022-08-21T14:18:40Z</time>
      </trkpt>
      <trkpt lat="43.87442" lon="6.52047">
        <ele>824.79998779297</ele>
        <time>2022-08-21T14:18:49Z</time>
      </trkpt>
      <trkpt lat="43.87442" lon="6.52044">
        <ele>825.20001220703</ele>
        <time>2022-08-21T14:19:01Z</time>
      </trkpt>
      <trkpt lat="43.87441" lon="6.52042">
        <ele>825.40002441406</ele>
        <time>2022-08-21T14:19:11Z</time>
      </trkpt>
      <trkpt lat="43.8744" lon="6.52042">
        <ele>825.59997558594</ele>
        <time>2022-08-21T14:19:14Z</time>
      </trkpt>
      <trkpt lat="43.8744" lon="6.52041">
        <ele>825.59997558594</ele>
        <time>2022-08-21T14:19:15Z</time>
      </trkpt>
      <trkpt lat="43.8744" lon="6.52041">
        <ele>825.59997558594</ele>
        <time>2022-08-21T14:19:26Z</time>
      </trkpt>
      <trkpt lat="43.8744" lon="6.52042">
        <ele>825.79998779297</ele>
        <time>2022-08-21T14:19:31Z</time>
      </trkpt>
      <trkpt lat="43.8744" lon="6.52042">
        <ele>826</ele>
        <time>2022-08-21T14:19:34Z</time>
      </trkpt>
      <trkpt lat="43.8744" lon="6.52041">
        <ele>826.20001220703</ele>
        <time>2022-08-21T14:19:36Z</time>
      </trkpt>
      <trkpt lat="43.87439" lon="6.52041">
        <ele>826.59997558594</ele>
        <time>2022-08-21T14:19:42Z</time>
      </trkpt>
      <trkpt lat="43.8744" lon="6.5204">
        <ele>826.79998779297</ele>
        <time>2022-08-21T14:19:43Z</time>
      </trkpt>
      <trkpt lat="43.8744" lon="6.5204">
        <ele>827</ele>
        <time>2022-08-21T14:19:48Z</time>
      </trkpt>
      <trkpt lat="43.8744" lon="6.52039">
        <ele>826.79998779297</ele>
        <time>2022-08-21T14:19:50Z</time>
      </trkpt>
      <trkpt lat="43.87439" lon="6.52038">
        <ele>826.79998779297</ele>
        <time>2022-08-21T14:19:57Z</time>
      </trkpt>
      <trkpt lat="43.87438" lon="6.52038">
        <ele>826.79998779297</ele>
        <time>2022-08-21T14:20:00Z</time>
      </trkpt>
      <trkpt lat="43.87438" lon="6.52037">
        <ele>826.79998779297</ele>
        <time>2022-08-21T14:20:01Z</time>
      </trkpt>
      <trkpt lat="43.87438" lon="6.52036">
        <ele>826.79998779297</ele>
        <time>2022-08-21T14:20:05Z</time>
      </trkpt>
      <trkpt lat="43.87437" lon="6.52035">
        <ele>826.79998779297</ele>
        <time>2022-08-21T14:20:09Z</time>
      </trkpt>
      <trkpt lat="43.87436" lon="6.52034">
        <ele>826.79998779297</ele>
        <time>2022-08-21T14:20:18Z</time>
      </trkpt>
      <trkpt lat="43.87436" lon="6.52033">
        <ele>826.79998779297</ele>
        <time>2022-08-21T14:20:25Z</time>
      </trkpt>
      <trkpt lat="43.87436" lon="6.52033">
        <ele>826.79998779297</ele>
        <time>2022-08-21T14:20:30Z</time>
      </trkpt>
      <trkpt lat="43.87434" lon="6.52031">
        <ele>826.79998779297</ele>
        <time>2022-08-21T14:20:37Z</time>
      </trkpt>
      <trkpt lat="43.87431" lon="6.52029">
        <ele>826.79998779297</ele>
        <time>2022-08-21T14:20:49Z</time>
      </trkpt>
      <trkpt lat="43.8743" lon="6.52029">
        <ele>826.79998779297</ele>
        <time>2022-08-21T14:20:52Z</time>
      </trkpt>
      <trkpt lat="43.87429" lon="6.52026">
        <ele>826.79998779297</ele>
        <time>2022-08-21T14:21:03Z</time>
      </trkpt>
      <trkpt lat="43.87428" lon="6.52024">
        <ele>826.79998779297</ele>
        <time>2022-08-21T14:21:13Z</time>
      </trkpt>
      <trkpt lat="43.87429" lon="6.52023">
        <ele>826.79998779297</ele>
        <time>2022-08-21T14:21:20Z</time>
      </trkpt>
      <trkpt lat="43.87427" lon="6.5202">
        <ele>826.79998779297</ele>
        <time>2022-08-21T14:21:30Z</time>
      </trkpt>
      <trkpt lat="43.87428" lon="6.5202">
        <ele>826.79998779297</ele>
        <time>2022-08-21T14:21:32Z</time>
      </trkpt>
      <trkpt lat="43.87427" lon="6.5202">
        <ele>826.79998779297</ele>
        <time>2022-08-21T14:21:34Z</time>
      </trkpt>
      <trkpt lat="43.87426" lon="6.5202">
        <ele>826.79998779297</ele>
        <time>2022-08-21T14:21:39Z</time>
      </trkpt>
      <trkpt lat="43.87426" lon="6.52019">
        <ele>826.79998779297</ele>
        <time>2022-08-21T14:21:50Z</time>
      </trkpt>
      <trkpt lat="43.87426" lon="6.5202">
        <ele>826.79998779297</ele>
        <time>2022-08-21T14:21:56Z</time>
      </trkpt>
      <trkpt lat="43.87426" lon="6.5202">
        <ele>826.79998779297</ele>
        <time>2022-08-21T14:22:00Z</time>
      </trkpt>
      <trkpt lat="43.87425" lon="6.52017">
        <ele>826.79998779297</ele>
        <time>2022-08-21T14:22:08Z</time>
      </trkpt>
      <trkpt lat="43.87426" lon="6.52017">
        <ele>826.79998779297</ele>
        <time>2022-08-21T14:22:13Z</time>
      </trkpt>
      <trkpt lat="43.87425" lon="6.52018">
        <ele>826.79998779297</ele>
        <time>2022-08-21T14:22:17Z</time>
      </trkpt>
      <trkpt lat="43.87424" lon="6.52018">
        <ele>826.79998779297</ele>
        <time>2022-08-21T14:22:18Z</time>
      </trkpt>
      <trkpt lat="43.87422" lon="6.52017">
        <ele>826.79998779297</ele>
        <time>2022-08-21T14:22:23Z</time>
      </trkpt>
      <trkpt lat="43.87424" lon="6.52018">
        <ele>826.79998779297</ele>
        <time>2022-08-21T14:22:31Z</time>
      </trkpt>
      <trkpt lat="43.87424" lon="6.52018">
        <ele>826.79998779297</ele>
        <time>2022-08-21T14:22:33Z</time>
      </trkpt>
      <trkpt lat="43.87424" lon="6.52018">
        <ele>826.79998779297</ele>
        <time>2022-08-21T14:22:37Z</time>
      </trkpt>
      <trkpt lat="43.87424" lon="6.52018">
        <ele>826.79998779297</ele>
        <time>2022-08-21T14:22:42Z</time>
      </trkpt>
      <trkpt lat="43.87424" lon="6.52018">
        <ele>826.79998779297</ele>
        <time>2022-08-21T14:22:51Z</time>
      </trkpt>
      <trkpt lat="43.87424" lon="6.52018">
        <ele>826.79998779297</ele>
        <time>2022-08-21T14:22:52Z</time>
      </trkpt>
      <trkpt lat="43.87425" lon="6.5202">
        <ele>826.79998779297</ele>
        <time>2022-08-21T14:23:01Z</time>
      </trkpt>
      <trkpt lat="43.87425" lon="6.5202">
        <ele>826.79998779297</ele>
        <time>2022-08-21T14:23:03Z</time>
      </trkpt>
      <trkpt lat="43.87425" lon="6.5202">
        <ele>826.79998779297</ele>
        <time>2022-08-21T14:23:04Z</time>
      </trkpt>
      <trkpt lat="43.87425" lon="6.5202">
        <ele>826.79998779297</ele>
        <time>2022-08-21T14:23:09Z</time>
      </trkpt>
      <trkpt lat="43.87425" lon="6.5202">
        <ele>826.79998779297</ele>
        <time>2022-08-21T14:23:21Z</time>
      </trkpt>
      <trkpt lat="43.87425" lon="6.52021">
        <ele>826.79998779297</ele>
        <time>2022-08-21T14:23:28Z</time>
      </trkpt>
      <trkpt lat="43.87424" lon="6.52021">
        <ele>826.79998779297</ele>
        <time>2022-08-21T14:23:31Z</time>
      </trkpt>
      <trkpt lat="43.87424" lon="6.52021">
        <ele>826.79998779297</ele>
        <time>2022-08-21T14:23:37Z</time>
      </trkpt>
      <trkpt lat="43.87424" lon="6.52022">
        <ele>826.79998779297</ele>
        <time>2022-08-21T14:23:38Z</time>
      </trkpt>
      <trkpt lat="43.87424" lon="6.52021">
        <ele>826.79998779297</ele>
        <time>2022-08-21T14:23:40Z</time>
      </trkpt>
      <trkpt lat="43.87423" lon="6.52021">
        <ele>826.79998779297</ele>
        <time>2022-08-21T14:23:41Z</time>
      </trkpt>
      <trkpt lat="43.87423" lon="6.52021">
        <ele>826.79998779297</ele>
        <time>2022-08-21T14:23:43Z</time>
      </trkpt>
      <trkpt lat="43.87424" lon="6.5202">
        <ele>826.79998779297</ele>
        <time>2022-08-21T14:23:51Z</time>
      </trkpt>
      <trkpt lat="43.87424" lon="6.5202">
        <ele>826.79998779297</ele>
        <time>2022-08-21T14:23:58Z</time>
      </trkpt>
      <trkpt lat="43.87424" lon="6.52019">
        <ele>826.79998779297</ele>
        <time>2022-08-21T14:24:00Z</time>
      </trkpt>
      <trkpt lat="43.87424" lon="6.52019">
        <ele>826.79998779297</ele>
        <time>2022-08-21T14:24:07Z</time>
      </trkpt>
      <trkpt lat="43.87424" lon="6.52019">
        <ele>826.79998779297</ele>
        <time>2022-08-21T14:24:14Z</time>
      </trkpt>
      <trkpt lat="43.87423" lon="6.52019">
        <ele>826.79998779297</ele>
        <time>2022-08-21T14:24:23Z</time>
      </trkpt>
      <trkpt lat="43.87422" lon="6.52019">
        <ele>826.79998779297</ele>
        <time>2022-08-21T14:24:29Z</time>
      </trkpt>
      <trkpt lat="43.87421" lon="6.52018">
        <ele>826.79998779297</ele>
        <time>2022-08-21T14:24:40Z</time>
      </trkpt>
      <trkpt lat="43.87422" lon="6.52019">
        <ele>826.79998779297</ele>
        <time>2022-08-21T14:24:53Z</time>
      </trkpt>
      <trkpt lat="43.87422" lon="6.52018">
        <ele>826.79998779297</ele>
        <time>2022-08-21T14:24:57Z</time>
      </trkpt>
      <trkpt lat="43.87422" lon="6.52018">
        <ele>826.79998779297</ele>
        <time>2022-08-21T14:24:59Z</time>
      </trkpt>
      <trkpt lat="43.87422" lon="6.52019">
        <ele>826.79998779297</ele>
        <time>2022-08-21T14:25:09Z</time>
      </trkpt>
      <trkpt lat="43.87422" lon="6.5202">
        <ele>826.79998779297</ele>
        <time>2022-08-21T14:25:11Z</time>
      </trkpt>
      <trkpt lat="43.87424" lon="6.52018">
        <ele>826.79998779297</ele>
        <time>2022-08-21T14:25:23Z</time>
      </trkpt>
      <trkpt lat="43.87422" lon="6.52018">
        <ele>826.79998779297</ele>
        <time>2022-08-21T14:25:27Z</time>
      </trkpt>
      <trkpt lat="43.87422" lon="6.52018">
        <ele>826.79998779297</ele>
        <time>2022-08-21T14:25:28Z</time>
      </trkpt>
      <trkpt lat="43.87422" lon="6.52018">
        <ele>826.79998779297</ele>
        <time>2022-08-21T14:25:29Z</time>
      </trkpt>
      <trkpt lat="43.87422" lon="6.52018">
        <ele>826.79998779297</ele>
        <time>2022-08-21T14:25:38Z</time>
      </trkpt>
      <trkpt lat="43.87423" lon="6.52018">
        <ele>826.79998779297</ele>
        <time>2022-08-21T14:25:41Z</time>
      </trkpt>
      <trkpt lat="43.87423" lon="6.52018">
        <ele>826.79998779297</ele>
        <time>2022-08-21T14:25:45Z</time>
      </trkpt>
      <trkpt lat="43.87424" lon="6.5202">
        <ele>826.79998779297</ele>
        <time>2022-08-21T14:25:54Z</time>
      </trkpt>
      <trkpt lat="43.87424" lon="6.5202">
        <ele>826.79998779297</ele>
        <time>2022-08-21T14:26:04Z</time>
      </trkpt>
      <trkpt lat="43.87423" lon="6.5202">
        <ele>826.79998779297</ele>
        <time>2022-08-21T14:26:17Z</time>
      </trkpt>
      <trkpt lat="43.87423" lon="6.52021">
        <ele>826.79998779297</ele>
        <time>2022-08-21T14:26:25Z</time>
      </trkpt>
      <trkpt lat="43.87423" lon="6.52021">
        <ele>826.79998779297</ele>
        <time>2022-08-21T14:26:28Z</time>
      </trkpt>
      <trkpt lat="43.87423" lon="6.52021">
        <ele>826.79998779297</ele>
        <time>2022-08-21T14:26:35Z</time>
      </trkpt>
      <trkpt lat="43.87423" lon="6.5202">
        <ele>826.79998779297</ele>
        <time>2022-08-21T14:26:45Z</time>
      </trkpt>
      <trkpt lat="43.87424" lon="6.52019">
        <ele>826.79998779297</ele>
        <time>2022-08-21T14:26:59Z</time>
      </trkpt>
      <trkpt lat="43.87424" lon="6.52019">
        <ele>826.79998779297</ele>
        <time>2022-08-21T14:27:05Z</time>
      </trkpt>
      <trkpt lat="43.87424" lon="6.52019">
        <ele>826.79998779297</ele>
        <time>2022-08-21T14:27:08Z</time>
      </trkpt>
      <trkpt lat="43.87424" lon="6.52019">
        <ele>826.79998779297</ele>
        <time>2022-08-21T14:27:15Z</time>
      </trkpt>
      <trkpt lat="43.87422" lon="6.52018">
        <ele>826.79998779297</ele>
        <time>2022-08-21T14:27:24Z</time>
      </trkpt>
      <trkpt lat="43.87421" lon="6.52018">
        <ele>826.79998779297</ele>
        <time>2022-08-21T14:27:32Z</time>
      </trkpt>
      <trkpt lat="43.87421" lon="6.52018">
        <ele>826.79998779297</ele>
        <time>2022-08-21T14:27:38Z</time>
      </trkpt>
      <trkpt lat="43.87422" lon="6.52018">
        <ele>826.79998779297</ele>
        <time>2022-08-21T14:27:44Z</time>
      </trkpt>
      <trkpt lat="43.87421" lon="6.52019">
        <ele>826.79998779297</ele>
        <time>2022-08-21T14:27:53Z</time>
      </trkpt>
      <trkpt lat="43.8742" lon="6.52018">
        <ele>826.79998779297</ele>
        <time>2022-08-21T14:28:04Z</time>
      </trkpt>
      <trkpt lat="43.87421" lon="6.52018">
        <ele>826.79998779297</ele>
        <time>2022-08-21T14:28:09Z</time>
      </trkpt>
      <trkpt lat="43.87421" lon="6.52018">
        <ele>826.79998779297</ele>
        <time>2022-08-21T14:28:11Z</time>
      </trkpt>
      <trkpt lat="43.8742" lon="6.52018">
        <ele>826.79998779297</ele>
        <time>2022-08-21T14:28:15Z</time>
      </trkpt>
      <trkpt lat="43.87421" lon="6.52017">
        <ele>826.79998779297</ele>
        <time>2022-08-21T14:28:22Z</time>
      </trkpt>
      <trkpt lat="43.87421" lon="6.52017">
        <ele>826.79998779297</ele>
        <time>2022-08-21T14:28:25Z</time>
      </trkpt>
      <trkpt lat="43.87421" lon="6.52018">
        <ele>826.79998779297</ele>
        <time>2022-08-21T14:28:34Z</time>
      </trkpt>
      <trkpt lat="43.87421" lon="6.52018">
        <ele>826.79998779297</ele>
        <time>2022-08-21T14:28:35Z</time>
      </trkpt>
      <trkpt lat="43.87421" lon="6.52018">
        <ele>826.79998779297</ele>
        <time>2022-08-21T14:28:36Z</time>
      </trkpt>
      <trkpt lat="43.87422" lon="6.52018">
        <ele>826.79998779297</ele>
        <time>2022-08-21T14:28:39Z</time>
      </trkpt>
      <trkpt lat="43.87422" lon="6.52018">
        <ele>826.79998779297</ele>
        <time>2022-08-21T14:28:41Z</time>
      </trkpt>
      <trkpt lat="43.87422" lon="6.52018">
        <ele>826.79998779297</ele>
        <time>2022-08-21T14:28:53Z</time>
      </trkpt>
      <trkpt lat="43.87421" lon="6.52017">
        <ele>826.79998779297</ele>
        <time>2022-08-21T14:28:57Z</time>
      </trkpt>
      <trkpt lat="43.87421" lon="6.52017">
        <ele>826.79998779297</ele>
        <time>2022-08-21T14:29:07Z</time>
      </trkpt>
      <trkpt lat="43.87421" lon="6.52017">
        <ele>826.79998779297</ele>
        <time>2022-08-21T14:29:10Z</time>
      </trkpt>
      <trkpt lat="43.87422" lon="6.52019">
        <ele>826.79998779297</ele>
        <time>2022-08-21T14:29:25Z</time>
      </trkpt>
      <trkpt lat="43.87422" lon="6.52018">
        <ele>826.79998779297</ele>
        <time>2022-08-21T14:29:26Z</time>
      </trkpt>
      <trkpt lat="43.87422" lon="6.52019">
        <ele>826.79998779297</ele>
        <time>2022-08-21T14:29:33Z</time>
      </trkpt>
      <trkpt lat="43.87423" lon="6.52019">
        <ele>826.79998779297</ele>
        <time>2022-08-21T14:29:46Z</time>
      </trkpt>
      <trkpt lat="43.87426" lon="6.52019">
        <ele>826.79998779297</ele>
        <time>2022-08-21T14:30:03Z</time>
      </trkpt>
      <trkpt lat="43.87426" lon="6.52019">
        <ele>826.79998779297</ele>
        <time>2022-08-21T14:30:17Z</time>
      </trkpt>
      <trkpt lat="43.87426" lon="6.5202">
        <ele>826.79998779297</ele>
        <time>2022-08-21T14:30:33Z</time>
      </trkpt>
      <trkpt lat="43.87426" lon="6.52019">
        <ele>826.79998779297</ele>
        <time>2022-08-21T14:30:49Z</time>
      </trkpt>
      <trkpt lat="43.87426" lon="6.52018">
        <ele>826.79998779297</ele>
        <time>2022-08-21T14:31:04Z</time>
      </trkpt>
      <trkpt lat="43.87426" lon="6.52018">
        <ele>826.79998779297</ele>
        <time>2022-08-21T14:31:08Z</time>
      </trkpt>
      <trkpt lat="43.87426" lon="6.52018">
        <ele>826.79998779297</ele>
        <time>2022-08-21T14:31:18Z</time>
      </trkpt>
      <trkpt lat="43.87426" lon="6.52019">
        <ele>826.79998779297</ele>
        <time>2022-08-21T14:31:22Z</time>
      </trkpt>
      <trkpt lat="43.87426" lon="6.5202">
        <ele>826.79998779297</ele>
        <time>2022-08-21T14:31:31Z</time>
      </trkpt>
      <trkpt lat="43.87427" lon="6.52019">
        <ele>826.79998779297</ele>
        <time>2022-08-21T14:31:34Z</time>
      </trkpt>
      <trkpt lat="43.87427" lon="6.52019">
        <ele>826.79998779297</ele>
        <time>2022-08-21T14:31:37Z</time>
      </trkpt>
      <trkpt lat="43.87427" lon="6.52019">
        <ele>826.79998779297</ele>
        <time>2022-08-21T14:31:38Z</time>
      </trkpt>
      <trkpt lat="43.87427" lon="6.52019">
        <ele>826.79998779297</ele>
        <time>2022-08-21T14:31:39Z</time>
      </trkpt>
      <trkpt lat="43.87427" lon="6.52019">
        <ele>826.79998779297</ele>
        <time>2022-08-21T14:31:42Z</time>
      </trkpt>
      <trkpt lat="43.87427" lon="6.52019">
        <ele>826.79998779297</ele>
        <time>2022-08-21T14:31:44Z</time>
      </trkpt>
      <trkpt lat="43.87427" lon="6.52021">
        <ele>826.79998779297</ele>
        <time>2022-08-21T14:31:54Z</time>
      </trkpt>
      <trkpt lat="43.87427" lon="6.52021">
        <ele>826.79998779297</ele>
        <time>2022-08-21T14:32:01Z</time>
      </trkpt>
      <trkpt lat="43.87427" lon="6.52021">
        <ele>826.79998779297</ele>
        <time>2022-08-21T14:32:11Z</time>
      </trkpt>
      <trkpt lat="43.87426" lon="6.52022">
        <ele>826.79998779297</ele>
        <time>2022-08-21T14:32:26Z</time>
      </trkpt>
      <trkpt lat="43.87426" lon="6.52022">
        <ele>826.79998779297</ele>
        <time>2022-08-21T14:32:39Z</time>
      </trkpt>
      <trkpt lat="43.87425" lon="6.52019">
        <ele>826.79998779297</ele>
        <time>2022-08-21T14:32:52Z</time>
      </trkpt>
      <trkpt lat="43.87425" lon="6.52019">
        <ele>826.79998779297</ele>
        <time>2022-08-21T14:32:54Z</time>
      </trkpt>
      <trkpt lat="43.87424" lon="6.52019">
        <ele>826.79998779297</ele>
        <time>2022-08-21T14:33:06Z</time>
      </trkpt>
      <trkpt lat="43.87425" lon="6.52019">
        <ele>826.79998779297</ele>
        <time>2022-08-21T14:33:14Z</time>
      </trkpt>
      <trkpt lat="43.87425" lon="6.52019">
        <ele>826.79998779297</ele>
        <time>2022-08-21T14:33:19Z</time>
      </trkpt>
      <trkpt lat="43.87423" lon="6.52018">
        <ele>826.79998779297</ele>
        <time>2022-08-21T14:33:32Z</time>
      </trkpt>
      <trkpt lat="43.87424" lon="6.5202">
        <ele>826.79998779297</ele>
        <time>2022-08-21T14:33:42Z</time>
      </trkpt>
      <trkpt lat="43.87424" lon="6.5202">
        <ele>826.79998779297</ele>
        <time>2022-08-21T14:33:50Z</time>
      </trkpt>
      <trkpt lat="43.87424" lon="6.5202">
        <ele>826.79998779297</ele>
        <time>2022-08-21T14:33:57Z</time>
      </trkpt>
      <trkpt lat="43.87423" lon="6.5202">
        <ele>826.79998779297</ele>
        <time>2022-08-21T14:34:00Z</time>
      </trkpt>
      <trkpt lat="43.87423" lon="6.5202">
        <ele>826.79998779297</ele>
        <time>2022-08-21T14:34:03Z</time>
      </trkpt>
      <trkpt lat="43.87422" lon="6.52022">
        <ele>826.79998779297</ele>
        <time>2022-08-21T14:34:17Z</time>
      </trkpt>
      <trkpt lat="43.87422" lon="6.52022">
        <ele>826.79998779297</ele>
        <time>2022-08-21T14:34:22Z</time>
      </trkpt>
      <trkpt lat="43.87422" lon="6.5202">
        <ele>826.79998779297</ele>
        <time>2022-08-21T14:34:25Z</time>
      </trkpt>
      <trkpt lat="43.87423" lon="6.5202">
        <ele>826.79998779297</ele>
        <time>2022-08-21T14:34:26Z</time>
      </trkpt>
      <trkpt lat="43.87424" lon="6.52018">
        <ele>826.79998779297</ele>
        <time>2022-08-21T14:34:33Z</time>
      </trkpt>
      <trkpt lat="43.87425" lon="6.52016">
        <ele>826.79998779297</ele>
        <time>2022-08-21T14:34:36Z</time>
      </trkpt>
      <trkpt lat="43.87423" lon="6.52014">
        <ele>826.79998779297</ele>
        <time>2022-08-21T14:34:41Z</time>
      </trkpt>
      <trkpt lat="43.87422" lon="6.52014">
        <ele>826.79998779297</ele>
        <time>2022-08-21T14:34:46Z</time>
      </trkpt>
      <trkpt lat="43.87422" lon="6.52014">
        <ele>826.79998779297</ele>
        <time>2022-08-21T14:34:49Z</time>
      </trkpt>
      <trkpt lat="43.87422" lon="6.52015">
        <ele>826.79998779297</ele>
        <time>2022-08-21T14:34:59Z</time>
      </trkpt>
      <trkpt lat="43.87422" lon="6.52016">
        <ele>826.79998779297</ele>
        <time>2022-08-21T14:35:11Z</time>
      </trkpt>
      <trkpt lat="43.87421" lon="6.52016">
        <ele>826.79998779297</ele>
        <time>2022-08-21T14:35:25Z</time>
      </trkpt>
      <trkpt lat="43.87422" lon="6.52016">
        <ele>826.79998779297</ele>
        <time>2022-08-21T14:35:29Z</time>
      </trkpt>
      <trkpt lat="43.87422" lon="6.52019">
        <ele>826.79998779297</ele>
        <time>2022-08-21T14:35:42Z</time>
      </trkpt>
      <trkpt lat="43.87423" lon="6.52019">
        <ele>826.79998779297</ele>
        <time>2022-08-21T14:35:43Z</time>
      </trkpt>
      <trkpt lat="43.87423" lon="6.5202">
        <ele>826.79998779297</ele>
        <time>2022-08-21T14:35:53Z</time>
      </trkpt>
      <trkpt lat="43.87423" lon="6.5202">
        <ele>826.79998779297</ele>
        <time>2022-08-21T14:35:56Z</time>
      </trkpt>
      <trkpt lat="43.87423" lon="6.5202">
        <ele>826.79998779297</ele>
        <time>2022-08-21T14:36:00Z</time>
      </trkpt>
      <trkpt lat="43.87423" lon="6.5202">
        <ele>826.79998779297</ele>
        <time>2022-08-21T14:36:04Z</time>
      </trkpt>
      <trkpt lat="43.87423" lon="6.5202">
        <ele>826.79998779297</ele>
        <time>2022-08-21T14:36:19Z</time>
      </trkpt>
      <trkpt lat="43.87423" lon="6.5202">
        <ele>826.79998779297</ele>
        <time>2022-08-21T14:36:24Z</time>
      </trkpt>
      <trkpt lat="43.87423" lon="6.5202">
        <ele>826.79998779297</ele>
        <time>2022-08-21T14:36:36Z</time>
      </trkpt>
      <trkpt lat="43.87423" lon="6.52019">
        <ele>826.79998779297</ele>
        <time>2022-08-21T14:36:56Z</time>
      </trkpt>
      <trkpt lat="43.87424" lon="6.52019">
        <ele>826.79998779297</ele>
        <time>2022-08-21T14:37:38Z</time>
      </trkpt>
      <trkpt lat="43.87425" lon="6.52019">
        <ele>826.79998779297</ele>
        <time>2022-08-21T14:38:00Z</time>
      </trkpt>
      <trkpt lat="43.87425" lon="6.52019">
        <ele>831.79998779297</ele>
        <time>2022-08-21T14:38:08Z</time>
      </trkpt>
      <trkpt lat="43.87424" lon="6.52018">
        <ele>832.59997558594</ele>
        <time>2022-08-21T14:38:34Z</time>
      </trkpt>
      <trkpt lat="43.87424" lon="6.52018">
        <ele>832.79998779297</ele>
        <time>2022-08-21T14:38:40Z</time>
      </trkpt>
      <trkpt lat="43.87424" lon="6.52018">
        <ele>833.79998779297</ele>
        <time>2022-08-21T14:39:09Z</time>
      </trkpt>
      <trkpt lat="43.87424" lon="6.52018">
        <ele>833.79998779297</ele>
        <time>2022-08-21T14:39:14Z</time>
      </trkpt>
      <trkpt lat="43.87424" lon="6.52018">
        <ele>833.79998779297</ele>
        <time>2022-08-21T14:39:15Z</time>
      </trkpt>
      <trkpt lat="43.87424" lon="6.52018">
        <ele>834.20001220703</ele>
        <time>2022-08-21T14:39:27Z</time>
      </trkpt>
      <trkpt lat="43.87424" lon="6.52019">
        <ele>834.79998779297</ele>
        <time>2022-08-21T14:40:01Z</time>
      </trkpt>
      <trkpt lat="43.87424" lon="6.52019">
        <ele>835</ele>
        <time>2022-08-21T14:40:02Z</time>
      </trkpt>
      <trkpt lat="43.87424" lon="6.52019">
        <ele>835.40002441406</ele>
        <time>2022-08-21T14:40:20Z</time>
      </trkpt>
      <trkpt lat="43.87424" lon="6.52019">
        <ele>835.59997558594</ele>
        <time>2022-08-21T14:40:27Z</time>
      </trkpt>
      <trkpt lat="43.87424" lon="6.52019">
        <ele>836</ele>
        <time>2022-08-21T14:40:41Z</time>
      </trkpt>
      <trkpt lat="43.87424" lon="6.52018">
        <ele>836.59997558594</ele>
        <time>2022-08-21T14:40:56Z</time>
      </trkpt>
      <trkpt lat="43.87424" lon="6.52018">
        <ele>836.59997558594</ele>
        <time>2022-08-21T14:40:59Z</time>
      </trkpt>
      <trkpt lat="43.87422" lon="6.52017">
        <ele>836.59997558594</ele>
        <time>2022-08-21T14:41:37Z</time>
      </trkpt>
      <trkpt lat="43.87422" lon="6.52017">
        <ele>836.59997558594</ele>
        <time>2022-08-21T14:41:38Z</time>
      </trkpt>
      <trkpt lat="43.87422" lon="6.52017">
        <ele>836.59997558594</ele>
        <time>2022-08-21T14:41:44Z</time>
      </trkpt>
      <trkpt lat="43.87421" lon="6.52018">
        <ele>836.59997558594</ele>
        <time>2022-08-21T14:42:03Z</time>
      </trkpt>
      <trkpt lat="43.87421" lon="6.52018">
        <ele>836.59997558594</ele>
        <time>2022-08-21T14:42:22Z</time>
      </trkpt>
      <trkpt lat="43.87421" lon="6.52018">
        <ele>836.59997558594</ele>
        <time>2022-08-21T14:42:31Z</time>
      </trkpt>
      <trkpt lat="43.87421" lon="6.52018">
        <ele>836.59997558594</ele>
        <time>2022-08-21T14:42:38Z</time>
      </trkpt>
      <trkpt lat="43.87422" lon="6.52018">
        <ele>836.59997558594</ele>
        <time>2022-08-21T14:42:45Z</time>
      </trkpt>
      <trkpt lat="43.87422" lon="6.52018">
        <ele>836.59997558594</ele>
        <time>2022-08-21T14:42:47Z</time>
      </trkpt>
      <trkpt lat="43.87422" lon="6.52018">
        <ele>836.59997558594</ele>
        <time>2022-08-21T14:42:53Z</time>
      </trkpt>
      <trkpt lat="43.87422" lon="6.52018">
        <ele>836.59997558594</ele>
        <time>2022-08-21T14:43:18Z</time>
      </trkpt>
      <trkpt lat="43.87422" lon="6.52019">
        <ele>836.59997558594</ele>
        <time>2022-08-21T14:43:27Z</time>
      </trkpt>
      <trkpt lat="43.87422" lon="6.52019">
        <ele>836.59997558594</ele>
        <time>2022-08-21T14:43:28Z</time>
      </trkpt>
      <trkpt lat="43.87422" lon="6.52019">
        <ele>836.59997558594</ele>
        <time>2022-08-21T14:43:35Z</time>
      </trkpt>
      <trkpt lat="43.87423" lon="6.52019">
        <ele>836.59997558594</ele>
        <time>2022-08-21T14:44:03Z</time>
      </trkpt>
      <trkpt lat="43.87423" lon="6.52019">
        <ele>836.59997558594</ele>
        <time>2022-08-21T14:44:05Z</time>
      </trkpt>
      <trkpt lat="43.87423" lon="6.52018">
        <ele>836.59997558594</ele>
        <time>2022-08-21T14:44:41Z</time>
      </trkpt>
      <trkpt lat="43.87423" lon="6.52018">
        <ele>836.59997558594</ele>
        <time>2022-08-21T14:44:44Z</time>
      </trkpt>
      <trkpt lat="43.87423" lon="6.52018">
        <ele>836.59997558594</ele>
        <time>2022-08-21T14:44:48Z</time>
      </trkpt>
      <trkpt lat="43.87425" lon="6.5202">
        <ele>836.59997558594</ele>
        <time>2022-08-21T14:45:01Z</time>
      </trkpt>
      <trkpt lat="43.87425" lon="6.5202">
        <ele>836.59997558594</ele>
        <time>2022-08-21T14:45:02Z</time>
      </trkpt>
      <trkpt lat="43.87425" lon="6.5202">
        <ele>836.59997558594</ele>
        <time>2022-08-21T14:45:04Z</time>
      </trkpt>
      <trkpt lat="43.87425" lon="6.52021">
        <ele>836.59997558594</ele>
        <time>2022-08-21T14:45:10Z</time>
      </trkpt>
      <trkpt lat="43.87424" lon="6.52018">
        <ele>836.59997558594</ele>
        <time>2022-08-21T14:45:27Z</time>
      </trkpt>
      <trkpt lat="43.87424" lon="6.52017">
        <ele>836.59997558594</ele>
        <time>2022-08-21T14:45:39Z</time>
      </trkpt>
      <trkpt lat="43.87424" lon="6.52017">
        <ele>836.59997558594</ele>
        <time>2022-08-21T14:45:51Z</time>
      </trkpt>
      <trkpt lat="43.87424" lon="6.52017">
        <ele>836.59997558594</ele>
        <time>2022-08-21T14:46:00Z</time>
      </trkpt>
      <trkpt lat="43.87424" lon="6.52017">
        <ele>836.59997558594</ele>
        <time>2022-08-21T14:46:08Z</time>
      </trkpt>
      <trkpt lat="43.87423" lon="6.52017">
        <ele>836.59997558594</ele>
        <time>2022-08-21T14:46:20Z</time>
      </trkpt>
      <trkpt lat="43.87424" lon="6.52018">
        <ele>836.59997558594</ele>
        <time>2022-08-21T14:46:25Z</time>
      </trkpt>
      <trkpt lat="43.87424" lon="6.52018">
        <ele>836.59997558594</ele>
        <time>2022-08-21T14:46:46Z</time>
      </trkpt>
      <trkpt lat="43.87424" lon="6.52018">
        <ele>836.59997558594</ele>
        <time>2022-08-21T14:46:59Z</time>
      </trkpt>
      <trkpt lat="43.87424" lon="6.52018">
        <ele>836.59997558594</ele>
        <time>2022-08-21T14:47:32Z</time>
      </trkpt>
      <trkpt lat="43.87424" lon="6.52017">
        <ele>836.59997558594</ele>
        <time>2022-08-21T14:47:39Z</time>
      </trkpt>
      <trkpt lat="43.87424" lon="6.52017">
        <ele>836.59997558594</ele>
        <time>2022-08-21T14:47:40Z</time>
      </trkpt>
      <trkpt lat="43.87424" lon="6.52017">
        <ele>836.59997558594</ele>
        <time>2022-08-21T14:47:49Z</time>
      </trkpt>
      <trkpt lat="43.87424" lon="6.52018">
        <ele>836.59997558594</ele>
        <time>2022-08-21T14:47:54Z</time>
      </trkpt>
      <trkpt lat="43.87424" lon="6.52017">
        <ele>836.59997558594</ele>
        <time>2022-08-21T14:48:00Z</time>
      </trkpt>
      <trkpt lat="43.87423" lon="6.52016">
        <ele>836.59997558594</ele>
        <time>2022-08-21T14:48:10Z</time>
      </trkpt>
      <trkpt lat="43.87423" lon="6.52016">
        <ele>836.59997558594</ele>
        <time>2022-08-21T14:48:16Z</time>
      </trkpt>
      <trkpt lat="43.87424" lon="6.52017">
        <ele>836.59997558594</ele>
        <time>2022-08-21T14:48:19Z</time>
      </trkpt>
      <trkpt lat="43.87424" lon="6.52017">
        <ele>836.59997558594</ele>
        <time>2022-08-21T14:48:20Z</time>
      </trkpt>
      <trkpt lat="43.87424" lon="6.52017">
        <ele>836.59997558594</ele>
        <time>2022-08-21T14:48:30Z</time>
      </trkpt>
      <trkpt lat="43.87424" lon="6.52017">
        <ele>836.59997558594</ele>
        <time>2022-08-21T14:48:42Z</time>
      </trkpt>
      <trkpt lat="43.87424" lon="6.52017">
        <ele>836.59997558594</ele>
        <time>2022-08-21T14:48:46Z</time>
      </trkpt>
      <trkpt lat="43.87425" lon="6.52017">
        <ele>836.59997558594</ele>
        <time>2022-08-21T14:48:52Z</time>
      </trkpt>
      <trkpt lat="43.87425" lon="6.52018">
        <ele>836.59997558594</ele>
        <time>2022-08-21T14:49:00Z</time>
      </trkpt>
      <trkpt lat="43.87425" lon="6.52018">
        <ele>836.59997558594</ele>
        <time>2022-08-21T14:49:06Z</time>
      </trkpt>
      <trkpt lat="43.87425" lon="6.5202">
        <ele>836.59997558594</ele>
        <time>2022-08-21T14:49:15Z</time>
      </trkpt>
      <trkpt lat="43.87425" lon="6.52018">
        <ele>836.59997558594</ele>
        <time>2022-08-21T14:49:21Z</time>
      </trkpt>
      <trkpt lat="43.87425" lon="6.52018">
        <ele>836.59997558594</ele>
        <time>2022-08-21T14:49:29Z</time>
      </trkpt>
      <trkpt lat="43.87425" lon="6.52018">
        <ele>836.59997558594</ele>
        <time>2022-08-21T14:49:30Z</time>
      </trkpt>
      <trkpt lat="43.87425" lon="6.52018">
        <ele>836.59997558594</ele>
        <time>2022-08-21T14:49:33Z</time>
      </trkpt>
      <trkpt lat="43.87425" lon="6.52018">
        <ele>836.59997558594</ele>
        <time>2022-08-21T14:49:35Z</time>
      </trkpt>
      <trkpt lat="43.87425" lon="6.52018">
        <ele>836.59997558594</ele>
        <time>2022-08-21T14:49:39Z</time>
      </trkpt>
      <trkpt lat="43.87425" lon="6.52018">
        <ele>836.59997558594</ele>
        <time>2022-08-21T14:49:40Z</time>
      </trkpt>
      <trkpt lat="43.87425" lon="6.52017">
        <ele>836.59997558594</ele>
        <time>2022-08-21T14:49:51Z</time>
      </trkpt>
      <trkpt lat="43.87422" lon="6.52014">
        <ele>836.59997558594</ele>
        <time>2022-08-21T14:49:59Z</time>
      </trkpt>
      <trkpt lat="43.87423" lon="6.52009">
        <ele>836.59997558594</ele>
        <time>2022-08-21T14:50:04Z</time>
      </trkpt>
      <trkpt lat="43.87427" lon="6.52003">
        <ele>836.59997558594</ele>
        <time>2022-08-21T14:50:07Z</time>
      </trkpt>
      <trkpt lat="43.87431" lon="6.51993">
        <ele>836.59997558594</ele>
        <time>2022-08-21T14:50:11Z</time>
      </trkpt>
      <trkpt lat="43.87433" lon="6.51986">
        <ele>836.59997558594</ele>
        <time>2022-08-21T14:50:14Z</time>
      </trkpt>
      <trkpt lat="43.87432" lon="6.51981">
        <ele>836.59997558594</ele>
        <time>2022-08-21T14:50:17Z</time>
      </trkpt>
      <trkpt lat="43.87431" lon="6.5198">
        <ele>836.59997558594</ele>
        <time>2022-08-21T14:50:19Z</time>
      </trkpt>
      <trkpt lat="43.87431" lon="6.51981">
        <ele>836.59997558594</ele>
        <time>2022-08-21T14:50:21Z</time>
      </trkpt>
      <trkpt lat="43.87431" lon="6.51981">
        <ele>837</ele>
        <time>2022-08-21T14:50:26Z</time>
      </trkpt>
      <trkpt lat="43.87429" lon="6.51979">
        <ele>837.79998779297</ele>
        <time>2022-08-21T14:50:33Z</time>
      </trkpt>
      <trkpt lat="43.87429" lon="6.51979">
        <ele>837.79998779297</ele>
        <time>2022-08-21T14:50:36Z</time>
      </trkpt>
      <trkpt lat="43.87429" lon="6.51979">
        <ele>837.79998779297</ele>
        <time>2022-08-21T14:50:38Z</time>
      </trkpt>
      <trkpt lat="43.87429" lon="6.51979">
        <ele>838</ele>
        <time>2022-08-21T14:50:41Z</time>
      </trkpt>
      <trkpt lat="43.87429" lon="6.51979">
        <ele>838</ele>
        <time>2022-08-21T14:50:43Z</time>
      </trkpt>
      <trkpt lat="43.87429" lon="6.5198">
        <ele>837.59997558594</ele>
        <time>2022-08-21T14:50:58Z</time>
      </trkpt>
      <trkpt lat="43.87429" lon="6.5198">
        <ele>838.20001220703</ele>
        <time>2022-08-21T14:51:00Z</time>
      </trkpt>
      <trkpt lat="43.87423" lon="6.51983">
        <ele>838.59997558594</ele>
        <time>2022-08-21T14:51:08Z</time>
      </trkpt>
      <trkpt lat="43.87422" lon="6.51984">
        <ele>838.59997558594</ele>
        <time>2022-08-21T14:51:09Z</time>
      </trkpt>
      <trkpt lat="43.87415" lon="6.51986">
        <ele>839.20001220703</ele>
        <time>2022-08-21T14:51:13Z</time>
      </trkpt>
      <trkpt lat="43.8741" lon="6.51986">
        <ele>839.59997558594</ele>
        <time>2022-08-21T14:51:16Z</time>
      </trkpt>
      <trkpt lat="43.87406" lon="6.51984">
        <ele>840.40002441406</ele>
        <time>2022-08-21T14:51:19Z</time>
      </trkpt>
      <trkpt lat="43.87403" lon="6.51981">
        <ele>841.40002441406</ele>
        <time>2022-08-21T14:51:22Z</time>
      </trkpt>
      <trkpt lat="43.87403" lon="6.5198">
        <ele>841.79998779297</ele>
        <time>2022-08-21T14:51:23Z</time>
      </trkpt>
      <trkpt lat="43.87401" lon="6.51973">
        <ele>842.59997558594</ele>
        <time>2022-08-21T14:51:28Z</time>
      </trkpt>
      <trkpt lat="43.87402" lon="6.5197">
        <ele>842.79998779297</ele>
        <time>2022-08-21T14:51:30Z</time>
      </trkpt>
      <trkpt lat="43.87402" lon="6.51967">
        <ele>842.79998779297</ele>
        <time>2022-08-21T14:51:32Z</time>
      </trkpt>
      <trkpt lat="43.874" lon="6.51963">
        <ele>843</ele>
        <time>2022-08-21T14:51:34Z</time>
      </trkpt>
      <trkpt lat="43.87399" lon="6.51962">
        <ele>843</ele>
        <time>2022-08-21T14:51:35Z</time>
      </trkpt>
      <trkpt lat="43.87398" lon="6.51962">
        <ele>843.20001220703</ele>
        <time>2022-08-21T14:51:36Z</time>
      </trkpt>
      <trkpt lat="43.87398" lon="6.51962">
        <ele>843.59997558594</ele>
        <time>2022-08-21T14:51:37Z</time>
      </trkpt>
      <trkpt lat="43.87397" lon="6.51962">
        <ele>843.79998779297</ele>
        <time>2022-08-21T14:51:38Z</time>
      </trkpt>
      <trkpt lat="43.87397" lon="6.51962">
        <ele>844.20001220703</ele>
        <time>2022-08-21T14:51:40Z</time>
      </trkpt>
      <trkpt lat="43.87396" lon="6.51961">
        <ele>844.59997558594</ele>
        <time>2022-08-21T14:51:42Z</time>
      </trkpt>
      <trkpt lat="43.87395" lon="6.51959">
        <ele>844.79998779297</ele>
        <time>2022-08-21T14:51:44Z</time>
      </trkpt>
      <trkpt lat="43.87393" lon="6.51956">
        <ele>845.79998779297</ele>
        <time>2022-08-21T14:51:49Z</time>
      </trkpt>
      <trkpt lat="43.87392" lon="6.51957">
        <ele>845.79998779297</ele>
        <time>2022-08-21T14:51:55Z</time>
      </trkpt>
      <trkpt lat="43.87392" lon="6.51957">
        <ele>846</ele>
        <time>2022-08-21T14:51:57Z</time>
      </trkpt>
      <trkpt lat="43.87391" lon="6.51957">
        <ele>846.59997558594</ele>
        <time>2022-08-21T14:52:06Z</time>
      </trkpt>
      <trkpt lat="43.87391" lon="6.51958">
        <ele>846.59997558594</ele>
        <time>2022-08-21T14:52:10Z</time>
      </trkpt>
      <trkpt lat="43.87389" lon="6.51961">
        <ele>846.79998779297</ele>
        <time>2022-08-21T14:52:15Z</time>
      </trkpt>
      <trkpt lat="43.87387" lon="6.51968">
        <ele>846.59997558594</ele>
        <time>2022-08-21T14:52:18Z</time>
      </trkpt>
      <trkpt lat="43.87387" lon="6.51978">
        <ele>846.59997558594</ele>
        <time>2022-08-21T14:52:21Z</time>
      </trkpt>
      <trkpt lat="43.87388" lon="6.51982">
        <ele>846.59997558594</ele>
        <time>2022-08-21T14:52:22Z</time>
      </trkpt>
      <trkpt lat="43.87388" lon="6.52016">
        <ele>847</ele>
        <time>2022-08-21T14:52:30Z</time>
      </trkpt>
      <trkpt lat="43.87388" lon="6.52032">
        <ele>847.20001220703</ele>
        <time>2022-08-21T14:52:33Z</time>
      </trkpt>
      <trkpt lat="43.87388" lon="6.52043">
        <ele>847.40002441406</ele>
        <time>2022-08-21T14:52:35Z</time>
      </trkpt>
      <trkpt lat="43.87387" lon="6.52057">
        <ele>847.40002441406</ele>
        <time>2022-08-21T14:52:37Z</time>
      </trkpt>
      <trkpt lat="43.87386" lon="6.52065">
        <ele>847.40002441406</ele>
        <time>2022-08-21T14:52:38Z</time>
      </trkpt>
      <trkpt lat="43.87385" lon="6.52072">
        <ele>847.40002441406</ele>
        <time>2022-08-21T14:52:39Z</time>
      </trkpt>
      <trkpt lat="43.87381" lon="6.521">
        <ele>847.59997558594</ele>
        <time>2022-08-21T14:52:43Z</time>
      </trkpt>
      <trkpt lat="43.87378" lon="6.52127">
        <ele>848</ele>
        <time>2022-08-21T14:52:47Z</time>
      </trkpt>
      <trkpt lat="43.87377" lon="6.52145">
        <ele>848</ele>
        <time>2022-08-21T14:52:50Z</time>
      </trkpt>
      <trkpt lat="43.87377" lon="6.52207">
        <ele>847.79998779297</ele>
        <time>2022-08-21T14:52:59Z</time>
      </trkpt>
      <trkpt lat="43.87379" lon="6.52241">
        <ele>848.20001220703</ele>
        <time>2022-08-21T14:53:04Z</time>
      </trkpt>
      <trkpt lat="43.87383" lon="6.5226">
        <ele>848.40002441406</ele>
        <time>2022-08-21T14:53:07Z</time>
      </trkpt>
      <trkpt lat="43.87389" lon="6.52294">
        <ele>848.40002441406</ele>
        <time>2022-08-21T14:53:12Z</time>
      </trkpt>
      <trkpt lat="43.87392" lon="6.52317">
        <ele>848.40002441406</ele>
        <time>2022-08-21T14:53:15Z</time>
      </trkpt>
      <trkpt lat="43.87399" lon="6.52378">
        <ele>848.79998779297</ele>
        <time>2022-08-21T14:53:23Z</time>
      </trkpt>
      <trkpt lat="43.87399" lon="6.52386">
        <ele>849</ele>
        <time>2022-08-21T14:53:24Z</time>
      </trkpt>
      <trkpt lat="43.874" lon="6.52394">
        <ele>849.20001220703</ele>
        <time>2022-08-21T14:53:25Z</time>
      </trkpt>
      <trkpt lat="43.87402" lon="6.5241">
        <ele>849.20001220703</ele>
        <time>2022-08-21T14:53:27Z</time>
      </trkpt>
      <trkpt lat="43.87409" lon="6.52441">
        <ele>849</ele>
        <time>2022-08-21T14:53:31Z</time>
      </trkpt>
      <trkpt lat="43.87413" lon="6.52457">
        <ele>849</ele>
        <time>2022-08-21T14:53:33Z</time>
      </trkpt>
      <trkpt lat="43.87418" lon="6.52472">
        <ele>849.20001220703</ele>
        <time>2022-08-21T14:53:35Z</time>
      </trkpt>
      <trkpt lat="43.87426" lon="6.52502">
        <ele>849.40002441406</ele>
        <time>2022-08-21T14:53:39Z</time>
      </trkpt>
      <trkpt lat="43.87443" lon="6.52555">
        <ele>849.59997558594</ele>
        <time>2022-08-21T14:53:46Z</time>
      </trkpt>
      <trkpt lat="43.87453" lon="6.52586">
        <ele>849.79998779297</ele>
        <time>2022-08-21T14:53:50Z</time>
      </trkpt>
      <trkpt lat="43.87455" lon="6.52594">
        <ele>850</ele>
        <time>2022-08-21T14:53:51Z</time>
      </trkpt>
      <trkpt lat="43.87462" lon="6.52609">
        <ele>850</ele>
        <time>2022-08-21T14:53:53Z</time>
      </trkpt>
      <trkpt lat="43.87464" lon="6.52617">
        <ele>850</ele>
        <time>2022-08-21T14:53:54Z</time>
      </trkpt>
      <trkpt lat="43.87477" lon="6.52656">
        <ele>850.20001220703</ele>
        <time>2022-08-21T14:53:59Z</time>
      </trkpt>
      <trkpt lat="43.87482" lon="6.52682">
        <ele>850.20001220703</ele>
        <time>2022-08-21T14:54:02Z</time>
      </trkpt>
      <trkpt lat="43.87484" lon="6.52699">
        <ele>850.40002441406</ele>
        <time>2022-08-21T14:54:04Z</time>
      </trkpt>
      <trkpt lat="43.87487" lon="6.5277">
        <ele>850.79998779297</ele>
        <time>2022-08-21T14:54:12Z</time>
      </trkpt>
      <trkpt lat="43.87491" lon="6.52796">
        <ele>851</ele>
        <time>2022-08-21T14:54:15Z</time>
      </trkpt>
      <trkpt lat="43.87493" lon="6.52804">
        <ele>851.20001220703</ele>
        <time>2022-08-21T14:54:16Z</time>
      </trkpt>
      <trkpt lat="43.87497" lon="6.52821">
        <ele>851.20001220703</ele>
        <time>2022-08-21T14:54:18Z</time>
      </trkpt>
      <trkpt lat="43.87516" lon="6.5288">
        <ele>851.40002441406</ele>
        <time>2022-08-21T14:54:25Z</time>
      </trkpt>
      <trkpt lat="43.8753" lon="6.52924">
        <ele>851.59997558594</ele>
        <time>2022-08-21T14:54:30Z</time>
      </trkpt>
      <trkpt lat="43.87534" lon="6.52942">
        <ele>851.40002441406</ele>
        <time>2022-08-21T14:54:32Z</time>
      </trkpt>
      <trkpt lat="43.87533" lon="6.52962">
        <ele>851.40002441406</ele>
        <time>2022-08-21T14:54:34Z</time>
      </trkpt>
      <trkpt lat="43.8753" lon="6.52971">
        <ele>851.20001220703</ele>
        <time>2022-08-21T14:54:35Z</time>
      </trkpt>
      <trkpt lat="43.87524" lon="6.52998">
        <ele>851.40002441406</ele>
        <time>2022-08-21T14:54:38Z</time>
      </trkpt>
      <trkpt lat="43.87526" lon="6.53017">
        <ele>851.59997558594</ele>
        <time>2022-08-21T14:54:40Z</time>
      </trkpt>
      <trkpt lat="43.87529" lon="6.53026">
        <ele>851.59997558594</ele>
        <time>2022-08-21T14:54:41Z</time>
      </trkpt>
      <trkpt lat="43.87532" lon="6.53035">
        <ele>851.59997558594</ele>
        <time>2022-08-21T14:54:42Z</time>
      </trkpt>
      <trkpt lat="43.8754" lon="6.5305">
        <ele>851.40002441406</ele>
        <time>2022-08-21T14:54:44Z</time>
      </trkpt>
      <trkpt lat="43.87565" lon="6.53097">
        <ele>851</ele>
        <time>2022-08-21T14:54:50Z</time>
      </trkpt>
      <trkpt lat="43.87569" lon="6.53106">
        <ele>851</ele>
        <time>2022-08-21T14:54:51Z</time>
      </trkpt>
      <trkpt lat="43.87576" lon="6.53123">
        <ele>851.20001220703</ele>
        <time>2022-08-21T14:54:53Z</time>
      </trkpt>
      <trkpt lat="43.87579" lon="6.53132">
        <ele>851.20001220703</ele>
        <time>2022-08-21T14:54:54Z</time>
      </trkpt>
      <trkpt lat="43.87586" lon="6.53181">
        <ele>851.59997558594</ele>
        <time>2022-08-21T14:54:59Z</time>
      </trkpt>
      <trkpt lat="43.87585" lon="6.53191">
        <ele>851.59997558594</ele>
        <time>2022-08-21T14:55:00Z</time>
      </trkpt>
      <trkpt lat="43.87583" lon="6.53201">
        <ele>851.59997558594</ele>
        <time>2022-08-21T14:55:01Z</time>
      </trkpt>
      <trkpt lat="43.87576" lon="6.53229">
        <ele>851.79998779297</ele>
        <time>2022-08-21T14:55:04Z</time>
      </trkpt>
      <trkpt lat="43.87576" lon="6.53239">
        <ele>852</ele>
        <time>2022-08-21T14:55:05Z</time>
      </trkpt>
      <trkpt lat="43.87577" lon="6.53258">
        <ele>852</ele>
        <time>2022-08-21T14:55:07Z</time>
      </trkpt>
      <trkpt lat="43.87579" lon="6.53265">
        <ele>852</ele>
        <time>2022-08-21T14:55:08Z</time>
      </trkpt>
      <trkpt lat="43.87583" lon="6.53271">
        <ele>852.20001220703</ele>
        <time>2022-08-21T14:55:09Z</time>
      </trkpt>
      <trkpt lat="43.87589" lon="6.53275">
        <ele>852.20001220703</ele>
        <time>2022-08-21T14:55:10Z</time>
      </trkpt>
      <trkpt lat="43.87611" lon="6.53282">
        <ele>852</ele>
        <time>2022-08-21T14:55:13Z</time>
      </trkpt>
      <trkpt lat="43.87625" lon="6.53288">
        <ele>851.79998779297</ele>
        <time>2022-08-21T14:55:15Z</time>
      </trkpt>
      <trkpt lat="43.87637" lon="6.53299">
        <ele>851.59997558594</ele>
        <time>2022-08-21T14:55:17Z</time>
      </trkpt>
      <trkpt lat="43.87642" lon="6.53306">
        <ele>851.40002441406</ele>
        <time>2022-08-21T14:55:18Z</time>
      </trkpt>
      <trkpt lat="43.87646" lon="6.53313">
        <ele>851.40002441406</ele>
        <time>2022-08-21T14:55:19Z</time>
      </trkpt>
      <trkpt lat="43.87656" lon="6.53339">
        <ele>851.40002441406</ele>
        <time>2022-08-21T14:55:22Z</time>
      </trkpt>
      <trkpt lat="43.87675" lon="6.53408">
        <ele>851.79998779297</ele>
        <time>2022-08-21T14:55:30Z</time>
      </trkpt>
      <trkpt lat="43.87684" lon="6.53442">
        <ele>851.40002441406</ele>
        <time>2022-08-21T14:55:34Z</time>
      </trkpt>
      <trkpt lat="43.87687" lon="6.5346">
        <ele>851.59997558594</ele>
        <time>2022-08-21T14:55:36Z</time>
      </trkpt>
      <trkpt lat="43.87689" lon="6.53497">
        <ele>851.79998779297</ele>
        <time>2022-08-21T14:55:40Z</time>
      </trkpt>
      <trkpt lat="43.87691" lon="6.53515">
        <ele>852</ele>
        <time>2022-08-21T14:55:42Z</time>
      </trkpt>
      <trkpt lat="43.87696" lon="6.53541">
        <ele>852</ele>
        <time>2022-08-21T14:55:45Z</time>
      </trkpt>
      <trkpt lat="43.87703" lon="6.53556">
        <ele>852</ele>
        <time>2022-08-21T14:55:47Z</time>
      </trkpt>
      <trkpt lat="43.87728" lon="6.53601">
        <ele>852</ele>
        <time>2022-08-21T14:55:53Z</time>
      </trkpt>
      <trkpt lat="43.87732" lon="6.53608">
        <ele>852</ele>
        <time>2022-08-21T14:55:54Z</time>
      </trkpt>
      <trkpt lat="43.87758" lon="6.53651">
        <ele>852</ele>
        <time>2022-08-21T14:56:00Z</time>
      </trkpt>
      <trkpt lat="43.87763" lon="6.53658">
        <ele>852</ele>
        <time>2022-08-21T14:56:01Z</time>
      </trkpt>
      <trkpt lat="43.87768" lon="6.53664">
        <ele>851.79998779297</ele>
        <time>2022-08-21T14:56:02Z</time>
      </trkpt>
      <trkpt lat="43.87778" lon="6.53673">
        <ele>852</ele>
        <time>2022-08-21T14:56:04Z</time>
      </trkpt>
      <trkpt lat="43.87783" lon="6.53676">
        <ele>852</ele>
        <time>2022-08-21T14:56:05Z</time>
      </trkpt>
      <trkpt lat="43.87789" lon="6.53676">
        <ele>852</ele>
        <time>2022-08-21T14:56:06Z</time>
      </trkpt>
      <trkpt lat="43.87808" lon="6.53677">
        <ele>851.79998779297</ele>
        <time>2022-08-21T14:56:09Z</time>
      </trkpt>
      <trkpt lat="43.87821" lon="6.53684">
        <ele>851.79998779297</ele>
        <time>2022-08-21T14:56:11Z</time>
      </trkpt>
      <trkpt lat="43.87832" lon="6.53694">
        <ele>851.79998779297</ele>
        <time>2022-08-21T14:56:13Z</time>
      </trkpt>
      <trkpt lat="43.87841" lon="6.53707">
        <ele>851.79998779297</ele>
        <time>2022-08-21T14:56:15Z</time>
      </trkpt>
      <trkpt lat="43.87848" lon="6.53723">
        <ele>851.79998779297</ele>
        <time>2022-08-21T14:56:17Z</time>
      </trkpt>
      <trkpt lat="43.87853" lon="6.5374">
        <ele>851.79998779297</ele>
        <time>2022-08-21T14:56:19Z</time>
      </trkpt>
      <trkpt lat="43.87854" lon="6.53759">
        <ele>852</ele>
        <time>2022-08-21T14:56:21Z</time>
      </trkpt>
      <trkpt lat="43.87852" lon="6.53777">
        <ele>852</ele>
        <time>2022-08-21T14:56:23Z</time>
      </trkpt>
      <trkpt lat="43.87848" lon="6.53794">
        <ele>852</ele>
        <time>2022-08-21T14:56:25Z</time>
      </trkpt>
      <trkpt lat="43.87845" lon="6.53802">
        <ele>852</ele>
        <time>2022-08-21T14:56:26Z</time>
      </trkpt>
      <trkpt lat="43.87834" lon="6.53822">
        <ele>852</ele>
        <time>2022-08-21T14:56:29Z</time>
      </trkpt>
      <trkpt lat="43.87811" lon="6.53849">
        <ele>852</ele>
        <time>2022-08-21T14:56:34Z</time>
      </trkpt>
      <trkpt lat="43.87807" lon="6.53856">
        <ele>852</ele>
        <time>2022-08-21T14:56:35Z</time>
      </trkpt>
      <trkpt lat="43.87804" lon="6.53863">
        <ele>852</ele>
        <time>2022-08-21T14:56:36Z</time>
      </trkpt>
      <trkpt lat="43.87802" lon="6.5388">
        <ele>852</ele>
        <time>2022-08-21T14:56:38Z</time>
      </trkpt>
      <trkpt lat="43.87804" lon="6.53896">
        <ele>852</ele>
        <time>2022-08-21T14:56:40Z</time>
      </trkpt>
      <trkpt lat="43.87807" lon="6.53904">
        <ele>852</ele>
        <time>2022-08-21T14:56:41Z</time>
      </trkpt>
      <trkpt lat="43.87836" lon="6.53957">
        <ele>852.79998779297</ele>
        <time>2022-08-21T14:56:49Z</time>
      </trkpt>
      <trkpt lat="43.87848" lon="6.53978">
        <ele>853</ele>
        <time>2022-08-21T14:56:52Z</time>
      </trkpt>
      <trkpt lat="43.87852" lon="6.53994">
        <ele>853.20001220703</ele>
        <time>2022-08-21T14:56:54Z</time>
      </trkpt>
      <trkpt lat="43.87853" lon="6.54002">
        <ele>853.20001220703</ele>
        <time>2022-08-21T14:56:55Z</time>
      </trkpt>
      <trkpt lat="43.87852" lon="6.54035">
        <ele>853.40002441406</ele>
        <time>2022-08-21T14:56:59Z</time>
      </trkpt>
      <trkpt lat="43.87849" lon="6.54076">
        <ele>853.79998779297</ele>
        <time>2022-08-21T14:57:04Z</time>
      </trkpt>
      <trkpt lat="43.87847" lon="6.54092">
        <ele>854</ele>
        <time>2022-08-21T14:57:06Z</time>
      </trkpt>
      <trkpt lat="43.87846" lon="6.54099">
        <ele>854.20001220703</ele>
        <time>2022-08-21T14:57:07Z</time>
      </trkpt>
      <trkpt lat="43.87836" lon="6.54143">
        <ele>855</ele>
        <time>2022-08-21T14:57:13Z</time>
      </trkpt>
      <trkpt lat="43.87832" lon="6.54157">
        <ele>855.20001220703</ele>
        <time>2022-08-21T14:57:15Z</time>
      </trkpt>
      <trkpt lat="43.87823" lon="6.54188">
        <ele>856.20001220703</ele>
        <time>2022-08-21T14:57:20Z</time>
      </trkpt>
      <trkpt lat="43.87823" lon="6.542">
        <ele>856.40002441406</ele>
        <time>2022-08-21T14:57:22Z</time>
      </trkpt>
      <trkpt lat="43.87824" lon="6.5421">
        <ele>856.79998779297</ele>
        <time>2022-08-21T14:57:24Z</time>
      </trkpt>
      <trkpt lat="43.87826" lon="6.54215">
        <ele>857.20001220703</ele>
        <time>2022-08-21T14:57:27Z</time>
      </trkpt>
      <trkpt lat="43.87826" lon="6.54214">
        <ele>857.40002441406</ele>
        <time>2022-08-21T14:57:29Z</time>
      </trkpt>
      <trkpt lat="43.87824" lon="6.54214">
        <ele>857.20001220703</ele>
        <time>2022-08-21T14:57:34Z</time>
      </trkpt>
      <trkpt lat="43.87827" lon="6.54215">
        <ele>857.40002441406</ele>
        <time>2022-08-21T14:57:38Z</time>
      </trkpt>
      <trkpt lat="43.87834" lon="6.5422">
        <ele>857.79998779297</ele>
        <time>2022-08-21T14:57:41Z</time>
      </trkpt>
      <trkpt lat="43.87839" lon="6.54222">
        <ele>857.79998779297</ele>
        <time>2022-08-21T14:57:42Z</time>
      </trkpt>
      <trkpt lat="43.87858" lon="6.54217">
        <ele>857.79998779297</ele>
        <time>2022-08-21T14:57:46Z</time>
      </trkpt>
      <trkpt lat="43.87879" lon="6.54195">
        <ele>858.20001220703</ele>
        <time>2022-08-21T14:57:51Z</time>
      </trkpt>
      <trkpt lat="43.87887" lon="6.54183">
        <ele>858.20001220703</ele>
        <time>2022-08-21T14:57:53Z</time>
      </trkpt>
      <trkpt lat="43.87899" lon="6.54165">
        <ele>858.20001220703</ele>
        <time>2022-08-21T14:57:56Z</time>
      </trkpt>
      <trkpt lat="43.87928" lon="6.54131">
        <ele>858.20001220703</ele>
        <time>2022-08-21T14:58:02Z</time>
      </trkpt>
      <trkpt lat="43.87938" lon="6.5412">
        <ele>858.20001220703</ele>
        <time>2022-08-21T14:58:04Z</time>
      </trkpt>
      <trkpt lat="43.87954" lon="6.54103">
        <ele>858.59997558594</ele>
        <time>2022-08-21T14:58:07Z</time>
      </trkpt>
      <trkpt lat="43.87975" lon="6.5408">
        <ele>858.79998779297</ele>
        <time>2022-08-21T14:58:11Z</time>
      </trkpt>
      <trkpt lat="43.87981" lon="6.54077">
        <ele>858.79998779297</ele>
        <time>2022-08-21T14:58:12Z</time>
      </trkpt>
      <trkpt lat="43.87993" lon="6.54074">
        <ele>858.79998779297</ele>
        <time>2022-08-21T14:58:14Z</time>
      </trkpt>
      <trkpt lat="43.88006" lon="6.54075">
        <ele>859</ele>
        <time>2022-08-21T14:58:16Z</time>
      </trkpt>
      <trkpt lat="43.88018" lon="6.54079">
        <ele>859.20001220703</ele>
        <time>2022-08-21T14:58:18Z</time>
      </trkpt>
      <trkpt lat="43.8803" lon="6.54086">
        <ele>859.20001220703</ele>
        <time>2022-08-21T14:58:20Z</time>
      </trkpt>
      <trkpt lat="43.88041" lon="6.54098">
        <ele>859</ele>
        <time>2022-08-21T14:58:22Z</time>
      </trkpt>
      <trkpt lat="43.88046" lon="6.54106">
        <ele>859</ele>
        <time>2022-08-21T14:58:23Z</time>
      </trkpt>
      <trkpt lat="43.8805" lon="6.54114">
        <ele>859.20001220703</ele>
        <time>2022-08-21T14:58:24Z</time>
      </trkpt>
      <trkpt lat="43.88054" lon="6.54132">
        <ele>859.20001220703</ele>
        <time>2022-08-21T14:58:26Z</time>
      </trkpt>
      <trkpt lat="43.88056" lon="6.54141">
        <ele>859.20001220703</ele>
        <time>2022-08-21T14:58:27Z</time>
      </trkpt>
      <trkpt lat="43.88057" lon="6.54161">
        <ele>859.20001220703</ele>
        <time>2022-08-21T14:58:29Z</time>
      </trkpt>
      <trkpt lat="43.88059" lon="6.54191">
        <ele>859.59997558594</ele>
        <time>2022-08-21T14:58:32Z</time>
      </trkpt>
      <trkpt lat="43.88062" lon="6.54209">
        <ele>859.59997558594</ele>
        <time>2022-08-21T14:58:34Z</time>
      </trkpt>
      <trkpt lat="43.88068" lon="6.54225">
        <ele>859.79998779297</ele>
        <time>2022-08-21T14:58:36Z</time>
      </trkpt>
      <trkpt lat="43.88081" lon="6.54236">
        <ele>860</ele>
        <time>2022-08-21T14:58:39Z</time>
      </trkpt>
      <trkpt lat="43.88094" lon="6.5423">
        <ele>860.20001220703</ele>
        <time>2022-08-21T14:58:41Z</time>
      </trkpt>
      <trkpt lat="43.88099" lon="6.54225">
        <ele>860.20001220703</ele>
        <time>2022-08-21T14:58:42Z</time>
      </trkpt>
      <trkpt lat="43.88105" lon="6.54218">
        <ele>860.20001220703</ele>
        <time>2022-08-21T14:58:43Z</time>
      </trkpt>
      <trkpt lat="43.88119" lon="6.54196">
        <ele>860.40002441406</ele>
        <time>2022-08-21T14:58:46Z</time>
      </trkpt>
      <trkpt lat="43.88155" lon="6.54136">
        <ele>860</ele>
        <time>2022-08-21T14:58:54Z</time>
      </trkpt>
      <trkpt lat="43.88168" lon="6.54115">
        <ele>859.79998779297</ele>
        <time>2022-08-21T14:58:57Z</time>
      </trkpt>
      <trkpt lat="43.88178" lon="6.54104">
        <ele>859.79998779297</ele>
        <time>2022-08-21T14:58:59Z</time>
      </trkpt>
      <trkpt lat="43.88183" lon="6.54099">
        <ele>859.79998779297</ele>
        <time>2022-08-21T14:59:00Z</time>
      </trkpt>
      <trkpt lat="43.88219" lon="6.54069">
        <ele>860.20001220703</ele>
        <time>2022-08-21T14:59:07Z</time>
      </trkpt>
      <trkpt lat="43.88242" lon="6.54042">
        <ele>860.59997558594</ele>
        <time>2022-08-21T14:59:12Z</time>
      </trkpt>
      <trkpt lat="43.88247" lon="6.54038">
        <ele>860.59997558594</ele>
        <time>2022-08-21T14:59:13Z</time>
      </trkpt>
      <trkpt lat="43.88252" lon="6.54034">
        <ele>860.79998779297</ele>
        <time>2022-08-21T14:59:14Z</time>
      </trkpt>
      <trkpt lat="43.88264" lon="6.54031">
        <ele>861</ele>
        <time>2022-08-21T14:59:16Z</time>
      </trkpt>
      <trkpt lat="43.8827" lon="6.54031">
        <ele>861</ele>
        <time>2022-08-21T14:59:17Z</time>
      </trkpt>
      <trkpt lat="43.88276" lon="6.54033">
        <ele>861</ele>
        <time>2022-08-21T14:59:18Z</time>
      </trkpt>
      <trkpt lat="43.88295" lon="6.54043">
        <ele>861</ele>
        <time>2022-08-21T14:59:21Z</time>
      </trkpt>
      <trkpt lat="43.88326" lon="6.54059">
        <ele>861.20001220703</ele>
        <time>2022-08-21T14:59:26Z</time>
      </trkpt>
      <trkpt lat="43.88332" lon="6.54061">
        <ele>861.20001220703</ele>
        <time>2022-08-21T14:59:27Z</time>
      </trkpt>
      <trkpt lat="43.88338" lon="6.54062">
        <ele>861.40002441406</ele>
        <time>2022-08-21T14:59:28Z</time>
      </trkpt>
      <trkpt lat="43.8835" lon="6.54059">
        <ele>861.40002441406</ele>
        <time>2022-08-21T14:59:30Z</time>
      </trkpt>
      <trkpt lat="43.88361" lon="6.5405">
        <ele>861.40002441406</ele>
        <time>2022-08-21T14:59:32Z</time>
      </trkpt>
      <trkpt lat="43.88365" lon="6.54044">
        <ele>861.40002441406</ele>
        <time>2022-08-21T14:59:33Z</time>
      </trkpt>
      <trkpt lat="43.88369" lon="6.54037">
        <ele>861.20001220703</ele>
        <time>2022-08-21T14:59:34Z</time>
      </trkpt>
      <trkpt lat="43.88378" lon="6.54015">
        <ele>861.20001220703</ele>
        <time>2022-08-21T14:59:37Z</time>
      </trkpt>
      <trkpt lat="43.88387" lon="6.54001">
        <ele>861</ele>
        <time>2022-08-21T14:59:39Z</time>
      </trkpt>
      <trkpt lat="43.88399" lon="6.53993">
        <ele>861.20001220703</ele>
        <time>2022-08-21T14:59:41Z</time>
      </trkpt>
      <trkpt lat="43.88424" lon="6.53983">
        <ele>861.40002441406</ele>
        <time>2022-08-21T14:59:45Z</time>
      </trkpt>
      <trkpt lat="43.88435" lon="6.53974">
        <ele>861.59997558594</ele>
        <time>2022-08-21T14:59:47Z</time>
      </trkpt>
      <trkpt lat="43.88449" lon="6.53955">
        <ele>861.79998779297</ele>
        <time>2022-08-21T14:59:50Z</time>
      </trkpt>
      <trkpt lat="43.88453" lon="6.53947">
        <ele>861.79998779297</ele>
        <time>2022-08-21T14:59:51Z</time>
      </trkpt>
      <trkpt lat="43.88456" lon="6.53939">
        <ele>861.79998779297</ele>
        <time>2022-08-21T14:59:52Z</time>
      </trkpt>
      <trkpt lat="43.88466" lon="6.53905">
        <ele>861.79998779297</ele>
        <time>2022-08-21T14:59:56Z</time>
      </trkpt>
      <trkpt lat="43.88469" lon="6.53896">
        <ele>861.79998779297</ele>
        <time>2022-08-21T14:59:57Z</time>
      </trkpt>
      <trkpt lat="43.88483" lon="6.53866">
        <ele>861.79998779297</ele>
        <time>2022-08-21T15:00:01Z</time>
      </trkpt>
      <trkpt lat="43.88508" lon="6.53824">
        <ele>861.79998779297</ele>
        <time>2022-08-21T15:00:07Z</time>
      </trkpt>
      <trkpt lat="43.88521" lon="6.53804">
        <ele>862</ele>
        <time>2022-08-21T15:00:10Z</time>
      </trkpt>
      <trkpt lat="43.88555" lon="6.53766">
        <ele>862.20001220703</ele>
        <time>2022-08-21T15:00:17Z</time>
      </trkpt>
      <trkpt lat="43.88586" lon="6.53736">
        <ele>862.40002441406</ele>
        <time>2022-08-21T15:00:23Z</time>
      </trkpt>
      <trkpt lat="43.88591" lon="6.53732">
        <ele>862.40002441406</ele>
        <time>2022-08-21T15:00:24Z</time>
      </trkpt>
      <trkpt lat="43.88598" lon="6.5373">
        <ele>862.20001220703</ele>
        <time>2022-08-21T15:00:25Z</time>
      </trkpt>
      <trkpt lat="43.88616" lon="6.53724">
        <ele>862</ele>
        <time>2022-08-21T15:00:28Z</time>
      </trkpt>
      <trkpt lat="43.88665" lon="6.53717">
        <ele>862.79998779297</ele>
        <time>2022-08-21T15:00:36Z</time>
      </trkpt>
      <trkpt lat="43.88672" lon="6.53715">
        <ele>863</ele>
        <time>2022-08-21T15:00:37Z</time>
      </trkpt>
      <trkpt lat="43.88717" lon="6.53699">
        <ele>863.20001220703</ele>
        <time>2022-08-21T15:00:44Z</time>
      </trkpt>
      <trkpt lat="43.88723" lon="6.53699">
        <ele>863.20001220703</ele>
        <time>2022-08-21T15:00:45Z</time>
      </trkpt>
      <trkpt lat="43.88738" lon="6.53702">
        <ele>863.20001220703</ele>
        <time>2022-08-21T15:00:47Z</time>
      </trkpt>
      <trkpt lat="43.88745" lon="6.53707">
        <ele>863.40002441406</ele>
        <time>2022-08-21T15:00:48Z</time>
      </trkpt>
      <trkpt lat="43.8875" lon="6.53715">
        <ele>863.40002441406</ele>
        <time>2022-08-21T15:00:49Z</time>
      </trkpt>
      <trkpt lat="43.88758" lon="6.53732">
        <ele>863.40002441406</ele>
        <time>2022-08-21T15:00:51Z</time>
      </trkpt>
      <trkpt lat="43.88763" lon="6.53751">
        <ele>863.40002441406</ele>
        <time>2022-08-21T15:00:53Z</time>
      </trkpt>
      <trkpt lat="43.8877" lon="6.53777">
        <ele>863.59997558594</ele>
        <time>2022-08-21T15:00:56Z</time>
      </trkpt>
      <trkpt lat="43.88783" lon="6.53819">
        <ele>863.79998779297</ele>
        <time>2022-08-21T15:01:01Z</time>
      </trkpt>
      <trkpt lat="43.88785" lon="6.53828">
        <ele>863.79998779297</ele>
        <time>2022-08-21T15:01:02Z</time>
      </trkpt>
      <trkpt lat="43.8879" lon="6.53843">
        <ele>863.79998779297</ele>
        <time>2022-08-21T15:01:04Z</time>
      </trkpt>
      <trkpt lat="43.888" lon="6.53852">
        <ele>863.79998779297</ele>
        <time>2022-08-21T15:01:06Z</time>
      </trkpt>
      <trkpt lat="43.88812" lon="6.53854">
        <ele>863.79998779297</ele>
        <time>2022-08-21T15:01:08Z</time>
      </trkpt>
      <trkpt lat="43.88819" lon="6.53852">
        <ele>863.79998779297</ele>
        <time>2022-08-21T15:01:09Z</time>
      </trkpt>
      <trkpt lat="43.88826" lon="6.5385">
        <ele>863.79998779297</ele>
        <time>2022-08-21T15:01:10Z</time>
      </trkpt>
      <trkpt lat="43.88832" lon="6.53845">
        <ele>863.79998779297</ele>
        <time>2022-08-21T15:01:11Z</time>
      </trkpt>
      <trkpt lat="43.88837" lon="6.5384">
        <ele>863.79998779297</ele>
        <time>2022-08-21T15:01:12Z</time>
      </trkpt>
      <trkpt lat="43.88842" lon="6.53834">
        <ele>863.79998779297</ele>
        <time>2022-08-21T15:01:13Z</time>
      </trkpt>
      <trkpt lat="43.88857" lon="6.53817">
        <ele>863.79998779297</ele>
        <time>2022-08-21T15:01:16Z</time>
      </trkpt>
      <trkpt lat="43.88868" lon="6.53811">
        <ele>863.59997558594</ele>
        <time>2022-08-21T15:01:18Z</time>
      </trkpt>
      <trkpt lat="43.88899" lon="6.53808">
        <ele>864</ele>
        <time>2022-08-21T15:01:23Z</time>
      </trkpt>
      <trkpt lat="43.88931" lon="6.53805">
        <ele>863.79998779297</ele>
        <time>2022-08-21T15:01:28Z</time>
      </trkpt>
      <trkpt lat="43.88957" lon="6.53802">
        <ele>863.59997558594</ele>
        <time>2022-08-21T15:01:32Z</time>
      </trkpt>
      <trkpt lat="43.89007" lon="6.53806">
        <ele>864.79998779297</ele>
        <time>2022-08-21T15:01:40Z</time>
      </trkpt>
      <trkpt lat="43.89013" lon="6.53807">
        <ele>864.79998779297</ele>
        <time>2022-08-21T15:01:41Z</time>
      </trkpt>
      <trkpt lat="43.89019" lon="6.53806">
        <ele>864.79998779297</ele>
        <time>2022-08-21T15:01:42Z</time>
      </trkpt>
      <trkpt lat="43.89025" lon="6.53804">
        <ele>865</ele>
        <time>2022-08-21T15:01:43Z</time>
      </trkpt>
      <trkpt lat="43.89031" lon="6.53801">
        <ele>865</ele>
        <time>2022-08-21T15:01:44Z</time>
      </trkpt>
      <trkpt lat="43.89036" lon="6.53796">
        <ele>865.20001220703</ele>
        <time>2022-08-21T15:01:45Z</time>
      </trkpt>
      <trkpt lat="43.89044" lon="6.53783">
        <ele>865.59997558594</ele>
        <time>2022-08-21T15:01:47Z</time>
      </trkpt>
      <trkpt lat="43.89061" lon="6.53737">
        <ele>865.59997558594</ele>
        <time>2022-08-21T15:01:53Z</time>
      </trkpt>
      <trkpt lat="43.89071" lon="6.53685">
        <ele>865.59997558594</ele>
        <time>2022-08-21T15:01:59Z</time>
      </trkpt>
      <trkpt lat="43.89074" lon="6.53677">
        <ele>865.59997558594</ele>
        <time>2022-08-21T15:02:00Z</time>
      </trkpt>
      <trkpt lat="43.89085" lon="6.53654">
        <ele>865.59997558594</ele>
        <time>2022-08-21T15:02:03Z</time>
      </trkpt>
      <trkpt lat="43.89108" lon="6.53611">
        <ele>866</ele>
        <time>2022-08-21T15:02:09Z</time>
      </trkpt>
      <trkpt lat="43.89117" lon="6.53597">
        <ele>866</ele>
        <time>2022-08-21T15:02:11Z</time>
      </trkpt>
      <trkpt lat="43.89126" lon="6.53585">
        <ele>866</ele>
        <time>2022-08-21T15:02:13Z</time>
      </trkpt>
      <trkpt lat="43.89144" lon="6.5357">
        <ele>866</ele>
        <time>2022-08-21T15:02:16Z</time>
      </trkpt>
      <trkpt lat="43.8918" lon="6.53689">
        <ele>865.79998779297</ele>
        <time>2022-08-21T15:02:33Z</time>
      </trkpt>
      <trkpt lat="43.89192" lon="6.53684">
        <ele>866</ele>
        <time>2022-08-21T15:02:34Z</time>
      </trkpt>
      <trkpt lat="43.89259" lon="6.53635">
        <ele>865.79998779297</ele>
        <time>2022-08-21T15:02:37Z</time>
      </trkpt>
      <trkpt lat="43.8928" lon="6.53618">
        <ele>865.79998779297</ele>
        <time>2022-08-21T15:02:38Z</time>
      </trkpt>
      <trkpt lat="43.89307" lon="6.53627">
        <ele>865.59997558594</ele>
        <time>2022-08-21T15:02:42Z</time>
      </trkpt>
      <trkpt lat="43.8934" lon="6.53677">
        <ele>866.59997558594</ele>
        <time>2022-08-21T15:02:49Z</time>
      </trkpt>
      <trkpt lat="43.89346" lon="6.53694">
        <ele>867</ele>
        <time>2022-08-21T15:02:51Z</time>
      </trkpt>
      <trkpt lat="43.89352" lon="6.53721">
        <ele>867.20001220703</ele>
        <time>2022-08-21T15:02:54Z</time>
      </trkpt>
      <trkpt lat="43.89358" lon="6.53746">
        <ele>867.40002441406</ele>
        <time>2022-08-21T15:02:57Z</time>
      </trkpt>
      <trkpt lat="43.89369" lon="6.53769">
        <ele>867.59997558594</ele>
        <time>2022-08-21T15:03:00Z</time>
      </trkpt>
      <trkpt lat="43.89385" lon="6.53806">
        <ele>868</ele>
        <time>2022-08-21T15:03:05Z</time>
      </trkpt>
      <trkpt lat="43.89394" lon="6.53819">
        <ele>868.40002441406</ele>
        <time>2022-08-21T15:03:07Z</time>
      </trkpt>
      <trkpt lat="43.89398" lon="6.53826">
        <ele>868.40002441406</ele>
        <time>2022-08-21T15:03:08Z</time>
      </trkpt>
      <trkpt lat="43.89431" lon="6.53869">
        <ele>868.40002441406</ele>
        <time>2022-08-21T15:03:15Z</time>
      </trkpt>
      <trkpt lat="43.89471" lon="6.53919">
        <ele>868.79998779297</ele>
        <time>2022-08-21T15:03:23Z</time>
      </trkpt>
      <trkpt lat="43.89485" lon="6.53942">
        <ele>868.79998779297</ele>
        <time>2022-08-21T15:03:26Z</time>
      </trkpt>
      <trkpt lat="43.89492" lon="6.53958">
        <ele>868.59997558594</ele>
        <time>2022-08-21T15:03:28Z</time>
      </trkpt>
      <trkpt lat="43.89509" lon="6.53999">
        <ele>868.59997558594</ele>
        <time>2022-08-21T15:03:33Z</time>
      </trkpt>
      <trkpt lat="43.89517" lon="6.54013">
        <ele>868.79998779297</ele>
        <time>2022-08-21T15:03:35Z</time>
      </trkpt>
      <trkpt lat="43.89544" lon="6.54051">
        <ele>869</ele>
        <time>2022-08-21T15:03:41Z</time>
      </trkpt>
      <trkpt lat="43.89549" lon="6.54055">
        <ele>869</ele>
        <time>2022-08-21T15:03:42Z</time>
      </trkpt>
      <trkpt lat="43.89554" lon="6.54058">
        <ele>869</ele>
        <time>2022-08-21T15:03:43Z</time>
      </trkpt>
      <trkpt lat="43.89566" lon="6.54059">
        <ele>869.20001220703</ele>
        <time>2022-08-21T15:03:45Z</time>
      </trkpt>
      <trkpt lat="43.89578" lon="6.54052">
        <ele>869.20001220703</ele>
        <time>2022-08-21T15:03:47Z</time>
      </trkpt>
      <trkpt lat="43.89583" lon="6.54046">
        <ele>869.40002441406</ele>
        <time>2022-08-21T15:03:48Z</time>
      </trkpt>
      <trkpt lat="43.89587" lon="6.54038">
        <ele>869.40002441406</ele>
        <time>2022-08-21T15:03:49Z</time>
      </trkpt>
      <trkpt lat="43.89592" lon="6.54022">
        <ele>869.59997558594</ele>
        <time>2022-08-21T15:03:51Z</time>
      </trkpt>
      <trkpt lat="43.89593" lon="6.54013">
        <ele>869.59997558594</ele>
        <time>2022-08-21T15:03:52Z</time>
      </trkpt>
      <trkpt lat="43.89592" lon="6.54004">
        <ele>869.79998779297</ele>
        <time>2022-08-21T15:03:53Z</time>
      </trkpt>
      <trkpt lat="43.89588" lon="6.53978">
        <ele>870</ele>
        <time>2022-08-21T15:03:56Z</time>
      </trkpt>
      <trkpt lat="43.89586" lon="6.5397">
        <ele>870.20001220703</ele>
        <time>2022-08-21T15:03:57Z</time>
      </trkpt>
      <trkpt lat="43.89578" lon="6.53923">
        <ele>871</ele>
        <time>2022-08-21T15:04:03Z</time>
      </trkpt>
      <trkpt lat="43.89577" lon="6.53915">
        <ele>871.20001220703</ele>
        <time>2022-08-21T15:04:04Z</time>
      </trkpt>
      <trkpt lat="43.89569" lon="6.53867">
        <ele>872.20001220703</ele>
        <time>2022-08-21T15:04:11Z</time>
      </trkpt>
      <trkpt lat="43.89568" lon="6.5386">
        <ele>872.59997558594</ele>
        <time>2022-08-21T15:04:12Z</time>
      </trkpt>
      <trkpt lat="43.89568" lon="6.53854">
        <ele>873</ele>
        <time>2022-08-21T15:04:13Z</time>
      </trkpt>
      <trkpt lat="43.89566" lon="6.53841">
        <ele>873.40002441406</ele>
        <time>2022-08-21T15:04:15Z</time>
      </trkpt>
      <trkpt lat="43.89563" lon="6.53822">
        <ele>873.79998779297</ele>
        <time>2022-08-21T15:04:18Z</time>
      </trkpt>
      <trkpt lat="43.89563" lon="6.53815">
        <ele>874</ele>
        <time>2022-08-21T15:04:19Z</time>
      </trkpt>
      <trkpt lat="43.89566" lon="6.53802">
        <ele>874</ele>
        <time>2022-08-21T15:04:21Z</time>
      </trkpt>
      <trkpt lat="43.89569" lon="6.53796">
        <ele>874</ele>
        <time>2022-08-21T15:04:22Z</time>
      </trkpt>
      <trkpt lat="43.89571" lon="6.5379">
        <ele>874.20001220703</ele>
        <time>2022-08-21T15:04:23Z</time>
      </trkpt>
      <trkpt lat="43.89578" lon="6.53783">
        <ele>874.40002441406</ele>
        <time>2022-08-21T15:04:25Z</time>
      </trkpt>
      <trkpt lat="43.89587" lon="6.53782">
        <ele>874.79998779297</ele>
        <time>2022-08-21T15:04:27Z</time>
      </trkpt>
      <trkpt lat="43.89592" lon="6.53783">
        <ele>875</ele>
        <time>2022-08-21T15:04:28Z</time>
      </trkpt>
      <trkpt lat="43.89596" lon="6.53786">
        <ele>875.40002441406</ele>
        <time>2022-08-21T15:04:29Z</time>
      </trkpt>
      <trkpt lat="43.896" lon="6.53789">
        <ele>875.79998779297</ele>
        <time>2022-08-21T15:04:30Z</time>
      </trkpt>
      <trkpt lat="43.89603" lon="6.53793">
        <ele>876</ele>
        <time>2022-08-21T15:04:31Z</time>
      </trkpt>
      <trkpt lat="43.89606" lon="6.53798">
        <ele>876.20001220703</ele>
        <time>2022-08-21T15:04:32Z</time>
      </trkpt>
      <trkpt lat="43.89614" lon="6.53813">
        <ele>876.79998779297</ele>
        <time>2022-08-21T15:04:35Z</time>
      </trkpt>
      <trkpt lat="43.89623" lon="6.5383">
        <ele>877.59997558594</ele>
        <time>2022-08-21T15:04:39Z</time>
      </trkpt>
      <trkpt lat="43.89627" lon="6.53834">
        <ele>877.79998779297</ele>
        <time>2022-08-21T15:04:40Z</time>
      </trkpt>
      <trkpt lat="43.89641" lon="6.53843">
        <ele>878.40002441406</ele>
        <time>2022-08-21T15:04:44Z</time>
      </trkpt>
      <trkpt lat="43.89653" lon="6.53844">
        <ele>878.79998779297</ele>
        <time>2022-08-21T15:04:47Z</time>
      </trkpt>
      <trkpt lat="43.89661" lon="6.53842">
        <ele>879.20001220703</ele>
        <time>2022-08-21T15:04:49Z</time>
      </trkpt>
      <trkpt lat="43.89674" lon="6.53835">
        <ele>879.79998779297</ele>
        <time>2022-08-21T15:04:53Z</time>
      </trkpt>
      <trkpt lat="43.89689" lon="6.53825">
        <ele>880</ele>
        <time>2022-08-21T15:04:57Z</time>
      </trkpt>
      <trkpt lat="43.89707" lon="6.53823">
        <ele>880.40002441406</ele>
        <time>2022-08-21T15:05:02Z</time>
      </trkpt>
      <trkpt lat="43.89724" lon="6.53835">
        <ele>881</ele>
        <time>2022-08-21T15:05:07Z</time>
      </trkpt>
      <trkpt lat="43.89755" lon="6.53859">
        <ele>881.79998779297</ele>
        <time>2022-08-21T15:05:16Z</time>
      </trkpt>
      <trkpt lat="43.89763" lon="6.53864">
        <ele>882</ele>
        <time>2022-08-21T15:05:18Z</time>
      </trkpt>
      <trkpt lat="43.89767" lon="6.53866">
        <ele>882.20001220703</ele>
        <time>2022-08-21T15:05:19Z</time>
      </trkpt>
      <trkpt lat="43.8978" lon="6.53873">
        <ele>882.40002441406</ele>
        <time>2022-08-21T15:05:22Z</time>
      </trkpt>
      <trkpt lat="43.89793" lon="6.53879">
        <ele>882.79998779297</ele>
        <time>2022-08-21T15:05:25Z</time>
      </trkpt>
      <trkpt lat="43.89797" lon="6.53882">
        <ele>883</ele>
        <time>2022-08-21T15:05:26Z</time>
      </trkpt>
      <trkpt lat="43.89823" lon="6.53891">
        <ele>884.20001220703</ele>
        <time>2022-08-21T15:05:32Z</time>
      </trkpt>
      <trkpt lat="43.89828" lon="6.53892">
        <ele>884.20001220703</ele>
        <time>2022-08-21T15:05:33Z</time>
      </trkpt>
      <trkpt lat="43.89849" lon="6.53894">
        <ele>884.40002441406</ele>
        <time>2022-08-21T15:05:37Z</time>
      </trkpt>
      <trkpt lat="43.89859" lon="6.53901">
        <ele>884.59997558594</ele>
        <time>2022-08-21T15:05:39Z</time>
      </trkpt>
      <trkpt lat="43.8989" lon="6.53925">
        <ele>885.20001220703</ele>
        <time>2022-08-21T15:05:46Z</time>
      </trkpt>
      <trkpt lat="43.89895" lon="6.53928">
        <ele>885.40002441406</ele>
        <time>2022-08-21T15:05:47Z</time>
      </trkpt>
      <trkpt lat="43.89928" lon="6.53942">
        <ele>885.79998779297</ele>
        <time>2022-08-21T15:05:54Z</time>
      </trkpt>
      <trkpt lat="43.89937" lon="6.53948">
        <ele>886</ele>
        <time>2022-08-21T15:05:56Z</time>
      </trkpt>
      <trkpt lat="43.89946" lon="6.53958">
        <ele>886.20001220703</ele>
        <time>2022-08-21T15:05:58Z</time>
      </trkpt>
      <trkpt lat="43.89949" lon="6.53963">
        <ele>886.20001220703</ele>
        <time>2022-08-21T15:05:59Z</time>
      </trkpt>
      <trkpt lat="43.89967" lon="6.54">
        <ele>887</ele>
        <time>2022-08-21T15:06:05Z</time>
      </trkpt>
      <trkpt lat="43.89969" lon="6.54006">
        <ele>887.20001220703</ele>
        <time>2022-08-21T15:06:06Z</time>
      </trkpt>
      <trkpt lat="43.89975" lon="6.54019">
        <ele>887.20001220703</ele>
        <time>2022-08-21T15:06:08Z</time>
      </trkpt>
      <trkpt lat="43.89983" lon="6.54039">
        <ele>887.59997558594</ele>
        <time>2022-08-21T15:06:11Z</time>
      </trkpt>
      <trkpt lat="43.89996" lon="6.54056">
        <ele>888</ele>
        <time>2022-08-21T15:06:14Z</time>
      </trkpt>
      <trkpt lat="43.9001" lon="6.5407">
        <ele>888.40002441406</ele>
        <time>2022-08-21T15:06:17Z</time>
      </trkpt>
      <trkpt lat="43.90016" lon="6.54074">
        <ele>888.40002441406</ele>
        <time>2022-08-21T15:06:18Z</time>
      </trkpt>
      <trkpt lat="43.90027" lon="6.54077">
        <ele>888.40002441406</ele>
        <time>2022-08-21T15:06:20Z</time>
      </trkpt>
      <trkpt lat="43.90032" lon="6.54077">
        <ele>888.20001220703</ele>
        <time>2022-08-21T15:06:21Z</time>
      </trkpt>
      <trkpt lat="43.90038" lon="6.54077">
        <ele>888</ele>
        <time>2022-08-21T15:06:22Z</time>
      </trkpt>
      <trkpt lat="43.90054" lon="6.54071">
        <ele>888</ele>
        <time>2022-08-21T15:06:25Z</time>
      </trkpt>
      <trkpt lat="43.9006" lon="6.54069">
        <ele>888</ele>
        <time>2022-08-21T15:06:26Z</time>
      </trkpt>
      <trkpt lat="43.90086" lon="6.54057">
        <ele>888.79998779297</ele>
        <time>2022-08-21T15:06:31Z</time>
      </trkpt>
      <trkpt lat="43.90092" lon="6.54056">
        <ele>889.20001220703</ele>
        <time>2022-08-21T15:06:32Z</time>
      </trkpt>
      <trkpt lat="43.90098" lon="6.54057">
        <ele>889.40002441406</ele>
        <time>2022-08-21T15:06:33Z</time>
      </trkpt>
      <trkpt lat="43.90104" lon="6.5406">
        <ele>890</ele>
        <time>2022-08-21T15:06:34Z</time>
      </trkpt>
      <trkpt lat="43.90109" lon="6.54064">
        <ele>890.40002441406</ele>
        <time>2022-08-21T15:06:35Z</time>
      </trkpt>
      <trkpt lat="43.90114" lon="6.5407">
        <ele>890.59997558594</ele>
        <time>2022-08-21T15:06:36Z</time>
      </trkpt>
      <trkpt lat="43.90123" lon="6.54091">
        <ele>890.40002441406</ele>
        <time>2022-08-21T15:06:39Z</time>
      </trkpt>
      <trkpt lat="43.90138" lon="6.54147">
        <ele>890.79998779297</ele>
        <time>2022-08-21T15:06:46Z</time>
      </trkpt>
      <trkpt lat="43.90144" lon="6.5417">
        <ele>891.59997558594</ele>
        <time>2022-08-21T15:06:49Z</time>
      </trkpt>
      <trkpt lat="43.90154" lon="6.54206">
        <ele>892.40002441406</ele>
        <time>2022-08-21T15:06:54Z</time>
      </trkpt>
      <trkpt lat="43.90167" lon="6.54239">
        <ele>892.20001220703</ele>
        <time>2022-08-21T15:06:59Z</time>
      </trkpt>
      <trkpt lat="43.90199" lon="6.54271">
        <ele>892.59997558594</ele>
        <time>2022-08-21T15:07:06Z</time>
      </trkpt>
      <trkpt lat="43.9021" lon="6.54278">
        <ele>892.59997558594</ele>
        <time>2022-08-21T15:07:08Z</time>
      </trkpt>
      <trkpt lat="43.90221" lon="6.5428">
        <ele>892.79998779297</ele>
        <time>2022-08-21T15:07:10Z</time>
      </trkpt>
      <trkpt lat="43.90226" lon="6.5428">
        <ele>893</ele>
        <time>2022-08-21T15:07:11Z</time>
      </trkpt>
      <trkpt lat="43.90232" lon="6.54278">
        <ele>893.20001220703</ele>
        <time>2022-08-21T15:07:12Z</time>
      </trkpt>
      <trkpt lat="43.90241" lon="6.5427">
        <ele>893.40002441406</ele>
        <time>2022-08-21T15:07:14Z</time>
      </trkpt>
      <trkpt lat="43.90245" lon="6.54266">
        <ele>893.40002441406</ele>
        <time>2022-08-21T15:07:15Z</time>
      </trkpt>
      <trkpt lat="43.90248" lon="6.5426">
        <ele>893.40002441406</ele>
        <time>2022-08-21T15:07:16Z</time>
      </trkpt>
      <trkpt lat="43.90253" lon="6.54248">
        <ele>893.20001220703</ele>
        <time>2022-08-21T15:07:18Z</time>
      </trkpt>
      <trkpt lat="43.90255" lon="6.54242">
        <ele>893.20001220703</ele>
        <time>2022-08-21T15:07:19Z</time>
      </trkpt>
      <trkpt lat="43.90258" lon="6.54214">
        <ele>893</ele>
        <time>2022-08-21T15:07:23Z</time>
      </trkpt>
      <trkpt lat="43.90262" lon="6.54192">
        <ele>893.20001220703</ele>
        <time>2022-08-21T15:07:26Z</time>
      </trkpt>
      <trkpt lat="43.90264" lon="6.54185">
        <ele>893.20001220703</ele>
        <time>2022-08-21T15:07:27Z</time>
      </trkpt>
      <trkpt lat="43.90269" lon="6.54172">
        <ele>893.40002441406</ele>
        <time>2022-08-21T15:07:29Z</time>
      </trkpt>
      <trkpt lat="43.90276" lon="6.54162">
        <ele>894</ele>
        <time>2022-08-21T15:07:31Z</time>
      </trkpt>
      <trkpt lat="43.90279" lon="6.54157">
        <ele>894.20001220703</ele>
        <time>2022-08-21T15:07:32Z</time>
      </trkpt>
      <trkpt lat="43.90287" lon="6.54149">
        <ele>894.59997558594</ele>
        <time>2022-08-21T15:07:34Z</time>
      </trkpt>
      <trkpt lat="43.90301" lon="6.54143">
        <ele>895</ele>
        <time>2022-08-21T15:07:37Z</time>
      </trkpt>
      <trkpt lat="43.90306" lon="6.54142">
        <ele>895.20001220703</ele>
        <time>2022-08-21T15:07:38Z</time>
      </trkpt>
      <trkpt lat="43.90334" lon="6.54137">
        <ele>896.20001220703</ele>
        <time>2022-08-21T15:07:44Z</time>
      </trkpt>
      <trkpt lat="43.90359" lon="6.54143">
        <ele>896.59997558594</ele>
        <time>2022-08-21T15:07:49Z</time>
      </trkpt>
      <trkpt lat="43.90364" lon="6.54146">
        <ele>896.59997558594</ele>
        <time>2022-08-21T15:07:50Z</time>
      </trkpt>
      <trkpt lat="43.90368" lon="6.54149">
        <ele>896.59997558594</ele>
        <time>2022-08-21T15:07:51Z</time>
      </trkpt>
      <trkpt lat="43.90384" lon="6.54168">
        <ele>897</ele>
        <time>2022-08-21T15:07:55Z</time>
      </trkpt>
      <trkpt lat="43.90395" lon="6.54181">
        <ele>897.20001220703</ele>
        <time>2022-08-21T15:07:58Z</time>
      </trkpt>
      <trkpt lat="43.9041" lon="6.5419">
        <ele>897.40002441406</ele>
        <time>2022-08-21T15:08:01Z</time>
      </trkpt>
      <trkpt lat="43.90445" lon="6.54202">
        <ele>897.40002441406</ele>
        <time>2022-08-21T15:08:08Z</time>
      </trkpt>
      <trkpt lat="43.90454" lon="6.54209">
        <ele>897.40002441406</ele>
        <time>2022-08-21T15:08:10Z</time>
      </trkpt>
      <trkpt lat="43.90465" lon="6.54222">
        <ele>897.79998779297</ele>
        <time>2022-08-21T15:08:13Z</time>
      </trkpt>
      <trkpt lat="43.90474" lon="6.54236">
        <ele>898</ele>
        <time>2022-08-21T15:08:16Z</time>
      </trkpt>
      <trkpt lat="43.90483" lon="6.54251">
        <ele>898.40002441406</ele>
        <time>2022-08-21T15:08:19Z</time>
      </trkpt>
      <trkpt lat="43.90486" lon="6.54256">
        <ele>898.40002441406</ele>
        <time>2022-08-21T15:08:20Z</time>
      </trkpt>
      <trkpt lat="43.90489" lon="6.54261">
        <ele>898.40002441406</ele>
        <time>2022-08-21T15:08:21Z</time>
      </trkpt>
      <trkpt lat="43.90496" lon="6.54268">
        <ele>898.59997558594</ele>
        <time>2022-08-21T15:08:23Z</time>
      </trkpt>
      <trkpt lat="43.90504" lon="6.54273">
        <ele>898.59997558594</ele>
        <time>2022-08-21T15:08:25Z</time>
      </trkpt>
      <trkpt lat="43.90508" lon="6.54275">
        <ele>898.79998779297</ele>
        <time>2022-08-21T15:08:26Z</time>
      </trkpt>
      <trkpt lat="43.90518" lon="6.54275">
        <ele>898.79998779297</ele>
        <time>2022-08-21T15:08:28Z</time>
      </trkpt>
      <trkpt lat="43.90528" lon="6.54272">
        <ele>898.79998779297</ele>
        <time>2022-08-21T15:08:30Z</time>
      </trkpt>
      <trkpt lat="43.90554" lon="6.54257">
        <ele>899.40002441406</ele>
        <time>2022-08-21T15:08:35Z</time>
      </trkpt>
      <trkpt lat="43.9056" lon="6.54256">
        <ele>899.40002441406</ele>
        <time>2022-08-21T15:08:36Z</time>
      </trkpt>
      <trkpt lat="43.90565" lon="6.54255">
        <ele>899.59997558594</ele>
        <time>2022-08-21T15:08:37Z</time>
      </trkpt>
      <trkpt lat="43.9057" lon="6.54255">
        <ele>899.59997558594</ele>
        <time>2022-08-21T15:08:38Z</time>
      </trkpt>
      <trkpt lat="43.90581" lon="6.54257">
        <ele>899.79998779297</ele>
        <time>2022-08-21T15:08:40Z</time>
      </trkpt>
      <trkpt lat="43.90586" lon="6.54261">
        <ele>899.79998779297</ele>
        <time>2022-08-21T15:08:41Z</time>
      </trkpt>
      <trkpt lat="43.9059" lon="6.54266">
        <ele>899.79998779297</ele>
        <time>2022-08-21T15:08:42Z</time>
      </trkpt>
      <trkpt lat="43.90601" lon="6.54283">
        <ele>899.79998779297</ele>
        <time>2022-08-21T15:08:45Z</time>
      </trkpt>
      <trkpt lat="43.90607" lon="6.54295">
        <ele>900.20001220703</ele>
        <time>2022-08-21T15:08:47Z</time>
      </trkpt>
      <trkpt lat="43.90614" lon="6.54307">
        <ele>900.59997558594</ele>
        <time>2022-08-21T15:08:49Z</time>
      </trkpt>
      <trkpt lat="43.90622" lon="6.54317">
        <ele>901</ele>
        <time>2022-08-21T15:08:51Z</time>
      </trkpt>
      <trkpt lat="43.90626" lon="6.54321">
        <ele>901</ele>
        <time>2022-08-21T15:08:52Z</time>
      </trkpt>
      <trkpt lat="43.90636" lon="6.5433">
        <ele>901.20001220703</ele>
        <time>2022-08-21T15:08:54Z</time>
      </trkpt>
      <trkpt lat="43.90659" lon="6.54351">
        <ele>901.59997558594</ele>
        <time>2022-08-21T15:08:59Z</time>
      </trkpt>
      <trkpt lat="43.90699" lon="6.54385">
        <ele>902.20001220703</ele>
        <time>2022-08-21T15:09:07Z</time>
      </trkpt>
      <trkpt lat="43.90722" lon="6.5441">
        <ele>902.79998779297</ele>
        <time>2022-08-21T15:09:12Z</time>
      </trkpt>
      <trkpt lat="43.90731" lon="6.5442">
        <ele>903</ele>
        <time>2022-08-21T15:09:14Z</time>
      </trkpt>
      <trkpt lat="43.90758" lon="6.54448">
        <ele>903.20001220703</ele>
        <time>2022-08-21T15:09:20Z</time>
      </trkpt>
      <trkpt lat="43.90763" lon="6.54451">
        <ele>903.20001220703</ele>
        <time>2022-08-21T15:09:21Z</time>
      </trkpt>
      <trkpt lat="43.90768" lon="6.54453">
        <ele>903.20001220703</ele>
        <time>2022-08-21T15:09:22Z</time>
      </trkpt>
      <trkpt lat="43.9079" lon="6.54456">
        <ele>903.40002441406</ele>
        <time>2022-08-21T15:09:26Z</time>
      </trkpt>
      <trkpt lat="43.90827" lon="6.54462">
        <ele>903.20001220703</ele>
        <time>2022-08-21T15:09:32Z</time>
      </trkpt>
      <trkpt lat="43.90833" lon="6.54466">
        <ele>903.20001220703</ele>
        <time>2022-08-21T15:09:33Z</time>
      </trkpt>
      <trkpt lat="43.9085" lon="6.54479">
        <ele>903.20001220703</ele>
        <time>2022-08-21T15:09:36Z</time>
      </trkpt>
      <trkpt lat="43.9086" lon="6.5449">
        <ele>903.20001220703</ele>
        <time>2022-08-21T15:09:38Z</time>
      </trkpt>
      <trkpt lat="43.90882" lon="6.54532">
        <ele>902.59997558594</ele>
        <time>2022-08-21T15:09:43Z</time>
      </trkpt>
      <trkpt lat="43.90894" lon="6.54561">
        <ele>901.59997558594</ele>
        <time>2022-08-21T15:09:46Z</time>
      </trkpt>
      <trkpt lat="43.90907" lon="6.54591">
        <ele>901</ele>
        <time>2022-08-21T15:09:49Z</time>
      </trkpt>
      <trkpt lat="43.90915" lon="6.54611">
        <ele>900.59997558594</ele>
        <time>2022-08-21T15:09:51Z</time>
      </trkpt>
      <trkpt lat="43.90932" lon="6.54651">
        <ele>900.20001220703</ele>
        <time>2022-08-21T15:09:55Z</time>
      </trkpt>
      <trkpt lat="43.90942" lon="6.54671">
        <ele>899.79998779297</ele>
        <time>2022-08-21T15:09:57Z</time>
      </trkpt>
      <trkpt lat="43.90946" lon="6.54682">
        <ele>899.40002441406</ele>
        <time>2022-08-21T15:09:58Z</time>
      </trkpt>
      <trkpt lat="43.90957" lon="6.54703">
        <ele>898.79998779297</ele>
        <time>2022-08-21T15:10:00Z</time>
      </trkpt>
      <trkpt lat="43.90963" lon="6.54713">
        <ele>898.40002441406</ele>
        <time>2022-08-21T15:10:01Z</time>
      </trkpt>
      <trkpt lat="43.90969" lon="6.54722">
        <ele>898.20001220703</ele>
        <time>2022-08-21T15:10:02Z</time>
      </trkpt>
      <trkpt lat="43.90978" lon="6.54741">
        <ele>897</ele>
        <time>2022-08-21T15:10:04Z</time>
      </trkpt>
      <trkpt lat="43.90991" lon="6.54761">
        <ele>896.40002441406</ele>
        <time>2022-08-21T15:10:06Z</time>
      </trkpt>
      <trkpt lat="43.91" lon="6.54785">
        <ele>896.20001220703</ele>
        <time>2022-08-21T15:10:08Z</time>
      </trkpt>
      <trkpt lat="43.91003" lon="6.54798">
        <ele>896</ele>
        <time>2022-08-21T15:10:09Z</time>
      </trkpt>
      <trkpt lat="43.91005" lon="6.54811">
        <ele>895.79998779297</ele>
        <time>2022-08-21T15:10:10Z</time>
      </trkpt>
      <trkpt lat="43.91013" lon="6.54849">
        <ele>895</ele>
        <time>2022-08-21T15:10:13Z</time>
      </trkpt>
      <trkpt lat="43.91018" lon="6.5486">
        <ele>895</ele>
        <time>2022-08-21T15:10:14Z</time>
      </trkpt>
      <trkpt lat="43.91023" lon="6.54871">
        <ele>894.79998779297</ele>
        <time>2022-08-21T15:10:15Z</time>
      </trkpt>
      <trkpt lat="43.91036" lon="6.54889">
        <ele>894</ele>
        <time>2022-08-21T15:10:17Z</time>
      </trkpt>
      <trkpt lat="43.91043" lon="6.54899">
        <ele>893.59997558594</ele>
        <time>2022-08-21T15:10:18Z</time>
      </trkpt>
      <trkpt lat="43.91055" lon="6.54919">
        <ele>892.79998779297</ele>
        <time>2022-08-21T15:10:20Z</time>
      </trkpt>
      <trkpt lat="43.91059" lon="6.5493">
        <ele>892.40002441406</ele>
        <time>2022-08-21T15:10:21Z</time>
      </trkpt>
      <trkpt lat="43.91062" lon="6.54943">
        <ele>892.20001220703</ele>
        <time>2022-08-21T15:10:22Z</time>
      </trkpt>
      <trkpt lat="43.91061" lon="6.54956">
        <ele>891.79998779297</ele>
        <time>2022-08-21T15:10:23Z</time>
      </trkpt>
      <trkpt lat="43.91059" lon="6.54969">
        <ele>891.59997558594</ele>
        <time>2022-08-21T15:10:24Z</time>
      </trkpt>
      <trkpt lat="43.91056" lon="6.54981">
        <ele>891.20001220703</ele>
        <time>2022-08-21T15:10:25Z</time>
      </trkpt>
      <trkpt lat="43.91052" lon="6.55007">
        <ele>890.59997558594</ele>
        <time>2022-08-21T15:10:27Z</time>
      </trkpt>
      <trkpt lat="43.91052" lon="6.55019">
        <ele>890</ele>
        <time>2022-08-21T15:10:28Z</time>
      </trkpt>
      <trkpt lat="43.91054" lon="6.55032">
        <ele>889.79998779297</ele>
        <time>2022-08-21T15:10:29Z</time>
      </trkpt>
      <trkpt lat="43.91063" lon="6.55053">
        <ele>889.40002441406</ele>
        <time>2022-08-21T15:10:31Z</time>
      </trkpt>
      <trkpt lat="43.9107" lon="6.5506">
        <ele>889</ele>
        <time>2022-08-21T15:10:32Z</time>
      </trkpt>
      <trkpt lat="43.91078" lon="6.55066">
        <ele>888.79998779297</ele>
        <time>2022-08-21T15:10:33Z</time>
      </trkpt>
      <trkpt lat="43.91094" lon="6.55075">
        <ele>887.79998779297</ele>
        <time>2022-08-21T15:10:35Z</time>
      </trkpt>
      <trkpt lat="43.91103" lon="6.55081">
        <ele>887.20001220703</ele>
        <time>2022-08-21T15:10:36Z</time>
      </trkpt>
      <trkpt lat="43.91118" lon="6.55095">
        <ele>886.40002441406</ele>
        <time>2022-08-21T15:10:38Z</time>
      </trkpt>
      <trkpt lat="43.91126" lon="6.55102">
        <ele>885.79998779297</ele>
        <time>2022-08-21T15:10:39Z</time>
      </trkpt>
      <trkpt lat="43.91134" lon="6.55109">
        <ele>885.20001220703</ele>
        <time>2022-08-21T15:10:40Z</time>
      </trkpt>
      <trkpt lat="43.91142" lon="6.55115">
        <ele>885</ele>
        <time>2022-08-21T15:10:41Z</time>
      </trkpt>
      <trkpt lat="43.9115" lon="6.55121">
        <ele>884.40002441406</ele>
        <time>2022-08-21T15:10:42Z</time>
      </trkpt>
      <trkpt lat="43.91158" lon="6.55126">
        <ele>884</ele>
        <time>2022-08-21T15:10:43Z</time>
      </trkpt>
      <trkpt lat="43.91167" lon="6.55131">
        <ele>883.59997558594</ele>
        <time>2022-08-21T15:10:44Z</time>
      </trkpt>
      <trkpt lat="43.91175" lon="6.55136">
        <ele>883.20001220703</ele>
        <time>2022-08-21T15:10:45Z</time>
      </trkpt>
      <trkpt lat="43.91183" lon="6.5514">
        <ele>882.79998779297</ele>
        <time>2022-08-21T15:10:46Z</time>
      </trkpt>
      <trkpt lat="43.91199" lon="6.55151">
        <ele>882.40002441406</ele>
        <time>2022-08-21T15:10:48Z</time>
      </trkpt>
      <trkpt lat="43.91213" lon="6.55166">
        <ele>882.40002441406</ele>
        <time>2022-08-21T15:10:50Z</time>
      </trkpt>
      <trkpt lat="43.91236" lon="6.55202">
        <ele>882.40002441406</ele>
        <time>2022-08-21T15:10:54Z</time>
      </trkpt>
      <trkpt lat="43.91254" lon="6.55228">
        <ele>882</ele>
        <time>2022-08-21T15:10:57Z</time>
      </trkpt>
      <trkpt lat="43.91259" lon="6.55237">
        <ele>881.79998779297</ele>
        <time>2022-08-21T15:10:58Z</time>
      </trkpt>
      <trkpt lat="43.9127" lon="6.55252">
        <ele>881.40002441406</ele>
        <time>2022-08-21T15:11:00Z</time>
      </trkpt>
      <trkpt lat="43.91276" lon="6.55256">
        <ele>881.40002441406</ele>
        <time>2022-08-21T15:11:01Z</time>
      </trkpt>
      <trkpt lat="43.91285" lon="6.55254">
        <ele>881.40002441406</ele>
        <time>2022-08-21T15:11:02Z</time>
      </trkpt>
      <trkpt lat="43.91292" lon="6.5525">
        <ele>881.59997558594</ele>
        <time>2022-08-21T15:11:03Z</time>
      </trkpt>
      <trkpt lat="43.91298" lon="6.55243">
        <ele>881.59997558594</ele>
        <time>2022-08-21T15:11:04Z</time>
      </trkpt>
      <trkpt lat="43.91302" lon="6.55234">
        <ele>881.59997558594</ele>
        <time>2022-08-21T15:11:05Z</time>
      </trkpt>
      <trkpt lat="43.91304" lon="6.55224">
        <ele>881.59997558594</ele>
        <time>2022-08-21T15:11:06Z</time>
      </trkpt>
      <trkpt lat="43.91307" lon="6.55203">
        <ele>881.59997558594</ele>
        <time>2022-08-21T15:11:08Z</time>
      </trkpt>
      <trkpt lat="43.91314" lon="6.55142">
        <ele>882</ele>
        <time>2022-08-21T15:11:15Z</time>
      </trkpt>
      <trkpt lat="43.91317" lon="6.5512">
        <ele>883.20001220703</ele>
        <time>2022-08-21T15:11:18Z</time>
      </trkpt>
      <trkpt lat="43.91317" lon="6.55106">
        <ele>883.79998779297</ele>
        <time>2022-08-21T15:11:20Z</time>
      </trkpt>
      <trkpt lat="43.91317" lon="6.55099">
        <ele>884.20001220703</ele>
        <time>2022-08-21T15:11:21Z</time>
      </trkpt>
      <trkpt lat="43.91317" lon="6.55092">
        <ele>884.59997558594</ele>
        <time>2022-08-21T15:11:22Z</time>
      </trkpt>
      <trkpt lat="43.91315" lon="6.55079">
        <ele>885.40002441406</ele>
        <time>2022-08-21T15:11:24Z</time>
      </trkpt>
      <trkpt lat="43.91313" lon="6.55073">
        <ele>885.59997558594</ele>
        <time>2022-08-21T15:11:25Z</time>
      </trkpt>
      <trkpt lat="43.91311" lon="6.55068">
        <ele>885.79998779297</ele>
        <time>2022-08-21T15:11:26Z</time>
      </trkpt>
      <trkpt lat="43.91308" lon="6.55062">
        <ele>886</ele>
        <time>2022-08-21T15:11:27Z</time>
      </trkpt>
      <trkpt lat="43.91302" lon="6.55051">
        <ele>886.40002441406</ele>
        <time>2022-08-21T15:11:29Z</time>
      </trkpt>
      <trkpt lat="43.91295" lon="6.55043">
        <ele>886.79998779297</ele>
        <time>2022-08-21T15:11:31Z</time>
      </trkpt>
      <trkpt lat="43.91288" lon="6.55037">
        <ele>887.20001220703</ele>
        <time>2022-08-21T15:11:33Z</time>
      </trkpt>
      <trkpt lat="43.91281" lon="6.55032">
        <ele>887.59997558594</ele>
        <time>2022-08-21T15:11:35Z</time>
      </trkpt>
      <trkpt lat="43.91274" lon="6.55028">
        <ele>888</ele>
        <time>2022-08-21T15:11:37Z</time>
      </trkpt>
      <trkpt lat="43.91267" lon="6.55024">
        <ele>888.20001220703</ele>
        <time>2022-08-21T15:11:39Z</time>
      </trkpt>
      <trkpt lat="43.9126" lon="6.5502">
        <ele>888.59997558594</ele>
        <time>2022-08-21T15:11:41Z</time>
      </trkpt>
      <trkpt lat="43.91257" lon="6.55017">
        <ele>888.59997558594</ele>
        <time>2022-08-21T15:11:42Z</time>
      </trkpt>
      <trkpt lat="43.91254" lon="6.55014">
        <ele>888.79998779297</ele>
        <time>2022-08-21T15:11:43Z</time>
      </trkpt>
      <trkpt lat="43.91247" lon="6.54997">
        <ele>889.20001220703</ele>
        <time>2022-08-21T15:11:47Z</time>
      </trkpt>
      <trkpt lat="43.91246" lon="6.54992">
        <ele>889.40002441406</ele>
        <time>2022-08-21T15:11:48Z</time>
      </trkpt>
      <trkpt lat="43.91246" lon="6.54987">
        <ele>889.59997558594</ele>
        <time>2022-08-21T15:11:49Z</time>
      </trkpt>
      <trkpt lat="43.91246" lon="6.54977">
        <ele>889.79998779297</ele>
        <time>2022-08-21T15:11:51Z</time>
      </trkpt>
      <trkpt lat="43.91247" lon="6.54972">
        <ele>889.79998779297</ele>
        <time>2022-08-21T15:11:52Z</time>
      </trkpt>
      <trkpt lat="43.91249" lon="6.54959">
        <ele>890.40002441406</ele>
        <time>2022-08-21T15:11:55Z</time>
      </trkpt>
      <trkpt lat="43.9125" lon="6.5495">
        <ele>891</ele>
        <time>2022-08-21T15:11:57Z</time>
      </trkpt>
      <trkpt lat="43.91255" lon="6.54928">
        <ele>891.59997558594</ele>
        <time>2022-08-21T15:12:02Z</time>
      </trkpt>
      <trkpt lat="43.91255" lon="6.54924">
        <ele>892</ele>
        <time>2022-08-21T15:12:03Z</time>
      </trkpt>
      <trkpt lat="43.91256" lon="6.54919">
        <ele>892.20001220703</ele>
        <time>2022-08-21T15:12:04Z</time>
      </trkpt>
      <trkpt lat="43.91264" lon="6.54889">
        <ele>893</ele>
        <time>2022-08-21T15:12:11Z</time>
      </trkpt>
      <trkpt lat="43.91275" lon="6.54858">
        <ele>893.40002441406</ele>
        <time>2022-08-21T15:12:18Z</time>
      </trkpt>
      <trkpt lat="43.91282" lon="6.54849">
        <ele>894.20001220703</ele>
        <time>2022-08-21T15:12:21Z</time>
      </trkpt>
      <trkpt lat="43.91292" lon="6.54837">
        <ele>894.79998779297</ele>
        <time>2022-08-21T15:12:25Z</time>
      </trkpt>
      <trkpt lat="43.91296" lon="6.54831">
        <ele>895.40002441406</ele>
        <time>2022-08-21T15:12:27Z</time>
      </trkpt>
      <trkpt lat="43.91309" lon="6.54813">
        <ele>896.40002441406</ele>
        <time>2022-08-21T15:12:33Z</time>
      </trkpt>
      <trkpt lat="43.91312" lon="6.54806">
        <ele>896.79998779297</ele>
        <time>2022-08-21T15:12:35Z</time>
      </trkpt>
      <trkpt lat="43.91314" lon="6.54784">
        <ele>897.40002441406</ele>
        <time>2022-08-21T15:12:40Z</time>
      </trkpt>
      <trkpt lat="43.91314" lon="6.54779">
        <ele>897.59997558594</ele>
        <time>2022-08-21T15:12:41Z</time>
      </trkpt>
      <trkpt lat="43.9131" lon="6.54748">
        <ele>898.40002441406</ele>
        <time>2022-08-21T15:12:48Z</time>
      </trkpt>
      <trkpt lat="43.91312" lon="6.54734">
        <ele>898.59997558594</ele>
        <time>2022-08-21T15:12:51Z</time>
      </trkpt>
      <trkpt lat="43.91315" lon="6.54718">
        <ele>899.20001220703</ele>
        <time>2022-08-21T15:12:55Z</time>
      </trkpt>
      <trkpt lat="43.9132" lon="6.54703">
        <ele>899.59997558594</ele>
        <time>2022-08-21T15:12:59Z</time>
      </trkpt>
      <trkpt lat="43.91328" lon="6.54687">
        <ele>900.40002441406</ele>
        <time>2022-08-21T15:13:04Z</time>
      </trkpt>
      <trkpt lat="43.91332" lon="6.54678">
        <ele>900.59997558594</ele>
        <time>2022-08-21T15:13:07Z</time>
      </trkpt>
      <trkpt lat="43.9134" lon="6.5466">
        <ele>901.20001220703</ele>
        <time>2022-08-21T15:13:13Z</time>
      </trkpt>
      <trkpt lat="43.91344" lon="6.54647">
        <ele>901.79998779297</ele>
        <time>2022-08-21T15:13:17Z</time>
      </trkpt>
      <trkpt lat="43.91347" lon="6.54633">
        <ele>902.20001220703</ele>
        <time>2022-08-21T15:13:21Z</time>
      </trkpt>
      <trkpt lat="43.9135" lon="6.54618">
        <ele>902.79998779297</ele>
        <time>2022-08-21T15:13:26Z</time>
      </trkpt>
      <trkpt lat="43.91353" lon="6.54597">
        <ele>904</ele>
        <time>2022-08-21T15:13:32Z</time>
      </trkpt>
      <trkpt lat="43.91355" lon="6.54587">
        <ele>904.40002441406</ele>
        <time>2022-08-21T15:13:35Z</time>
      </trkpt>
      <trkpt lat="43.91358" lon="6.54566">
        <ele>905</ele>
        <time>2022-08-21T15:13:41Z</time>
      </trkpt>
      <trkpt lat="43.91361" lon="6.54548">
        <ele>905.79998779297</ele>
        <time>2022-08-21T15:13:46Z</time>
      </trkpt>
      <trkpt lat="43.91363" lon="6.54536">
        <ele>906.20001220703</ele>
        <time>2022-08-21T15:13:49Z</time>
      </trkpt>
      <trkpt lat="43.91371" lon="6.54514">
        <ele>907.20001220703</ele>
        <time>2022-08-21T15:13:56Z</time>
      </trkpt>
      <trkpt lat="43.91383" lon="6.54501">
        <ele>908.20001220703</ele>
        <time>2022-08-21T15:14:03Z</time>
      </trkpt>
      <trkpt lat="43.91385" lon="6.54502">
        <ele>908.40002441406</ele>
        <time>2022-08-21T15:14:04Z</time>
      </trkpt>
      <trkpt lat="43.91387" lon="6.54503">
        <ele>908.59997558594</ele>
        <time>2022-08-21T15:14:05Z</time>
      </trkpt>
      <trkpt lat="43.91389" lon="6.54506">
        <ele>908.79998779297</ele>
        <time>2022-08-21T15:14:07Z</time>
      </trkpt>
      <trkpt lat="43.9139" lon="6.54507">
        <ele>909</ele>
        <time>2022-08-21T15:14:08Z</time>
      </trkpt>
      <trkpt lat="43.91395" lon="6.5451">
        <ele>909.20001220703</ele>
        <time>2022-08-21T15:14:11Z</time>
      </trkpt>
      <trkpt lat="43.91397" lon="6.54508">
        <ele>909</ele>
        <time>2022-08-21T15:14:12Z</time>
      </trkpt>
      <trkpt lat="43.91403" lon="6.54495">
        <ele>908.40002441406</ele>
        <time>2022-08-21T15:14:18Z</time>
      </trkpt>
      <trkpt lat="43.91403" lon="6.54494">
        <ele>908.40002441406</ele>
        <time>2022-08-21T15:14:19Z</time>
      </trkpt>
      <trkpt lat="43.91408" lon="6.54483">
        <ele>908</ele>
        <time>2022-08-21T15:14:23Z</time>
      </trkpt>
      <trkpt lat="43.91415" lon="6.5447">
        <ele>907.59997558594</ele>
        <time>2022-08-21T15:14:26Z</time>
      </trkpt>
      <trkpt lat="43.91421" lon="6.54459">
        <ele>907.20001220703</ele>
        <time>2022-08-21T15:14:28Z</time>
      </trkpt>
      <trkpt lat="43.91431" lon="6.54442">
        <ele>906.59997558594</ele>
        <time>2022-08-21T15:14:31Z</time>
      </trkpt>
      <trkpt lat="43.91435" lon="6.54435">
        <ele>906.20001220703</ele>
        <time>2022-08-21T15:14:32Z</time>
      </trkpt>
      <trkpt lat="43.91451" lon="6.54409">
        <ele>904.79998779297</ele>
        <time>2022-08-21T15:14:36Z</time>
      </trkpt>
      <trkpt lat="43.91455" lon="6.54401">
        <ele>904.40002441406</ele>
        <time>2022-08-21T15:14:37Z</time>
      </trkpt>
      <trkpt lat="43.91469" lon="6.5438">
        <ele>903.59997558594</ele>
        <time>2022-08-21T15:14:40Z</time>
      </trkpt>
      <trkpt lat="43.91478" lon="6.54365">
        <ele>902.59997558594</ele>
        <time>2022-08-21T15:14:42Z</time>
      </trkpt>
      <trkpt lat="43.91483" lon="6.54357">
        <ele>901.79998779297</ele>
        <time>2022-08-21T15:14:43Z</time>
      </trkpt>
      <trkpt lat="43.91487" lon="6.54349">
        <ele>901.20001220703</ele>
        <time>2022-08-21T15:14:44Z</time>
      </trkpt>
      <trkpt lat="43.91494" lon="6.54332">
        <ele>900.40002441406</ele>
        <time>2022-08-21T15:14:46Z</time>
      </trkpt>
      <trkpt lat="43.91497" lon="6.54323">
        <ele>900.20001220703</ele>
        <time>2022-08-21T15:14:47Z</time>
      </trkpt>
      <trkpt lat="43.91499" lon="6.54314">
        <ele>900</ele>
        <time>2022-08-21T15:14:48Z</time>
      </trkpt>
      <trkpt lat="43.91514" lon="6.54248">
        <ele>899.59997558594</ele>
        <time>2022-08-21T15:14:55Z</time>
      </trkpt>
      <trkpt lat="43.91527" lon="6.54215">
        <ele>899.59997558594</ele>
        <time>2022-08-21T15:14:59Z</time>
      </trkpt>
      <trkpt lat="43.91534" lon="6.54199">
        <ele>899.79998779297</ele>
        <time>2022-08-21T15:15:01Z</time>
      </trkpt>
      <trkpt lat="43.91542" lon="6.54186">
        <ele>900</ele>
        <time>2022-08-21T15:15:03Z</time>
      </trkpt>
      <trkpt lat="43.9157" lon="6.54145">
        <ele>900.59997558594</ele>
        <time>2022-08-21T15:15:10Z</time>
      </trkpt>
      <trkpt lat="43.91591" lon="6.54123">
        <ele>901</ele>
        <time>2022-08-21T15:15:15Z</time>
      </trkpt>
      <trkpt lat="43.91599" lon="6.54116">
        <ele>901.40002441406</ele>
        <time>2022-08-21T15:15:17Z</time>
      </trkpt>
      <trkpt lat="43.91633" lon="6.54094">
        <ele>901.79998779297</ele>
        <time>2022-08-21T15:15:25Z</time>
      </trkpt>
      <trkpt lat="43.91686" lon="6.5406">
        <ele>902.20001220703</ele>
        <time>2022-08-21T15:15:37Z</time>
      </trkpt>
      <trkpt lat="43.91696" lon="6.54054">
        <ele>902</ele>
        <time>2022-08-21T15:15:39Z</time>
      </trkpt>
      <trkpt lat="43.91736" lon="6.54024">
        <ele>901.40002441406</ele>
        <time>2022-08-21T15:15:47Z</time>
      </trkpt>
      <trkpt lat="43.91753" lon="6.54014">
        <ele>901.40002441406</ele>
        <time>2022-08-21T15:15:50Z</time>
      </trkpt>
      <trkpt lat="43.91794" lon="6.53994">
        <ele>901.20001220703</ele>
        <time>2022-08-21T15:15:57Z</time>
      </trkpt>
      <trkpt lat="43.91848" lon="6.5397">
        <ele>900.20001220703</ele>
        <time>2022-08-21T15:16:06Z</time>
      </trkpt>
      <trkpt lat="43.91904" lon="6.53939">
        <ele>899.79998779297</ele>
        <time>2022-08-21T15:16:15Z</time>
      </trkpt>
      <trkpt lat="43.91913" lon="6.53926">
        <ele>899.59997558594</ele>
        <time>2022-08-21T15:16:17Z</time>
      </trkpt>
      <trkpt lat="43.9192" lon="6.5391">
        <ele>899.40002441406</ele>
        <time>2022-08-21T15:16:19Z</time>
      </trkpt>
      <trkpt lat="43.91923" lon="6.53893">
        <ele>899.40002441406</ele>
        <time>2022-08-21T15:16:21Z</time>
      </trkpt>
      <trkpt lat="43.91923" lon="6.53884">
        <ele>899.40002441406</ele>
        <time>2022-08-21T15:16:22Z</time>
      </trkpt>
      <trkpt lat="43.91921" lon="6.53867">
        <ele>899.59997558594</ele>
        <time>2022-08-21T15:16:24Z</time>
      </trkpt>
      <trkpt lat="43.91916" lon="6.53849">
        <ele>899.40002441406</ele>
        <time>2022-08-21T15:16:26Z</time>
      </trkpt>
      <trkpt lat="43.91913" lon="6.53841">
        <ele>899.20001220703</ele>
        <time>2022-08-21T15:16:27Z</time>
      </trkpt>
      <trkpt lat="43.91905" lon="6.53815">
        <ele>898.79998779297</ele>
        <time>2022-08-21T15:16:30Z</time>
      </trkpt>
      <trkpt lat="43.91899" lon="6.53778">
        <ele>898.79998779297</ele>
        <time>2022-08-21T15:16:34Z</time>
      </trkpt>
      <trkpt lat="43.91897" lon="6.53759">
        <ele>898.79998779297</ele>
        <time>2022-08-21T15:16:36Z</time>
      </trkpt>
      <trkpt lat="43.91894" lon="6.53713">
        <ele>898.79998779297</ele>
        <time>2022-08-21T15:16:41Z</time>
      </trkpt>
      <trkpt lat="43.91894" lon="6.53678">
        <ele>898.40002441406</ele>
        <time>2022-08-21T15:16:45Z</time>
      </trkpt>
      <trkpt lat="43.91897" lon="6.53661">
        <ele>898.40002441406</ele>
        <time>2022-08-21T15:16:47Z</time>
      </trkpt>
      <trkpt lat="43.91903" lon="6.53646">
        <ele>898.20001220703</ele>
        <time>2022-08-21T15:16:49Z</time>
      </trkpt>
      <trkpt lat="43.91907" lon="6.53639">
        <ele>898.20001220703</ele>
        <time>2022-08-21T15:16:50Z</time>
      </trkpt>
      <trkpt lat="43.91912" lon="6.53632">
        <ele>898</ele>
        <time>2022-08-21T15:16:51Z</time>
      </trkpt>
      <trkpt lat="43.91917" lon="6.53626">
        <ele>897.79998779297</ele>
        <time>2022-08-21T15:16:52Z</time>
      </trkpt>
      <trkpt lat="43.91929" lon="6.53618">
        <ele>897.59997558594</ele>
        <time>2022-08-21T15:16:54Z</time>
      </trkpt>
      <trkpt lat="43.91936" lon="6.53615">
        <ele>897.40002441406</ele>
        <time>2022-08-21T15:16:55Z</time>
      </trkpt>
      <trkpt lat="43.9195" lon="6.53613">
        <ele>897</ele>
        <time>2022-08-21T15:16:57Z</time>
      </trkpt>
      <trkpt lat="43.91965" lon="6.53609">
        <ele>897</ele>
        <time>2022-08-21T15:16:59Z</time>
      </trkpt>
      <trkpt lat="43.91971" lon="6.53606">
        <ele>897</ele>
        <time>2022-08-21T15:17:00Z</time>
      </trkpt>
      <trkpt lat="43.91978" lon="6.53601">
        <ele>896.79998779297</ele>
        <time>2022-08-21T15:17:01Z</time>
      </trkpt>
      <trkpt lat="43.91994" lon="6.53581">
        <ele>896</ele>
        <time>2022-08-21T15:17:04Z</time>
      </trkpt>
      <trkpt lat="43.92016" lon="6.53537">
        <ele>895</ele>
        <time>2022-08-21T15:17:09Z</time>
      </trkpt>
      <trkpt lat="43.9203" lon="6.53526">
        <ele>894.20001220703</ele>
        <time>2022-08-21T15:17:11Z</time>
      </trkpt>
      <trkpt lat="43.92038" lon="6.53524">
        <ele>894</ele>
        <time>2022-08-21T15:17:12Z</time>
      </trkpt>
      <trkpt lat="43.92063" lon="6.53521">
        <ele>892.79998779297</ele>
        <time>2022-08-21T15:17:15Z</time>
      </trkpt>
      <trkpt lat="43.92087" lon="6.53515">
        <ele>892</ele>
        <time>2022-08-21T15:17:18Z</time>
      </trkpt>
      <trkpt lat="43.92103" lon="6.53511">
        <ele>891.59997558594</ele>
        <time>2022-08-21T15:17:20Z</time>
      </trkpt>
      <trkpt lat="43.9216" lon="6.53498">
        <ele>890.79998779297</ele>
        <time>2022-08-21T15:17:27Z</time>
      </trkpt>
      <trkpt lat="43.92169" lon="6.53497">
        <ele>890.59997558594</ele>
        <time>2022-08-21T15:17:28Z</time>
      </trkpt>
      <trkpt lat="43.92218" lon="6.5348">
        <ele>889.59997558594</ele>
        <time>2022-08-21T15:17:34Z</time>
      </trkpt>
      <trkpt lat="43.92226" lon="6.53475">
        <ele>889.40002441406</ele>
        <time>2022-08-21T15:17:35Z</time>
      </trkpt>
      <trkpt lat="43.92255" lon="6.53454">
        <ele>888.40002441406</ele>
        <time>2022-08-21T15:17:39Z</time>
      </trkpt>
      <trkpt lat="43.92262" lon="6.53448">
        <ele>888.20001220703</ele>
        <time>2022-08-21T15:17:40Z</time>
      </trkpt>
      <trkpt lat="43.92283" lon="6.53427">
        <ele>887.20001220703</ele>
        <time>2022-08-21T15:17:43Z</time>
      </trkpt>
      <trkpt lat="43.92303" lon="6.53402">
        <ele>886</ele>
        <time>2022-08-21T15:17:46Z</time>
      </trkpt>
      <trkpt lat="43.92328" lon="6.53367">
        <ele>884.79998779297</ele>
        <time>2022-08-21T15:17:50Z</time>
      </trkpt>
      <trkpt lat="43.92349" lon="6.53343">
        <ele>883.79998779297</ele>
        <time>2022-08-21T15:17:53Z</time>
      </trkpt>
      <trkpt lat="43.92357" lon="6.53337">
        <ele>883.79998779297</ele>
        <time>2022-08-21T15:17:54Z</time>
      </trkpt>
      <trkpt lat="43.92366" lon="6.53332">
        <ele>883.59997558594</ele>
        <time>2022-08-21T15:17:55Z</time>
      </trkpt>
      <trkpt lat="43.92384" lon="6.53327">
        <ele>883</ele>
        <time>2022-08-21T15:17:57Z</time>
      </trkpt>
      <trkpt lat="43.92393" lon="6.53328">
        <ele>882.59997558594</ele>
        <time>2022-08-21T15:17:58Z</time>
      </trkpt>
      <trkpt lat="43.92422" lon="6.53333">
        <ele>882</ele>
        <time>2022-08-21T15:18:01Z</time>
      </trkpt>
      <trkpt lat="43.92441" lon="6.53335">
        <ele>882</ele>
        <time>2022-08-21T15:18:03Z</time>
      </trkpt>
      <trkpt lat="43.9246" lon="6.53333">
        <ele>882</ele>
        <time>2022-08-21T15:18:05Z</time>
      </trkpt>
      <trkpt lat="43.925" lon="6.53325">
        <ele>881.40002441406</ele>
        <time>2022-08-21T15:18:09Z</time>
      </trkpt>
      <trkpt lat="43.92521" lon="6.53322">
        <ele>881</ele>
        <time>2022-08-21T15:18:11Z</time>
      </trkpt>
      <trkpt lat="43.92562" lon="6.53325">
        <ele>880</ele>
        <time>2022-08-21T15:18:15Z</time>
      </trkpt>
      <trkpt lat="43.9259" lon="6.53337">
        <ele>878.20001220703</ele>
        <time>2022-08-21T15:18:18Z</time>
      </trkpt>
      <trkpt lat="43.926" lon="6.5334">
        <ele>877.59997558594</ele>
        <time>2022-08-21T15:18:19Z</time>
      </trkpt>
      <trkpt lat="43.9261" lon="6.53342">
        <ele>877.20001220703</ele>
        <time>2022-08-21T15:18:20Z</time>
      </trkpt>
      <trkpt lat="43.92619" lon="6.53342">
        <ele>877</ele>
        <time>2022-08-21T15:18:21Z</time>
      </trkpt>
      <trkpt lat="43.92629" lon="6.5334">
        <ele>876.79998779297</ele>
        <time>2022-08-21T15:18:22Z</time>
      </trkpt>
      <trkpt lat="43.92639" lon="6.53337">
        <ele>876.79998779297</ele>
        <time>2022-08-21T15:18:23Z</time>
      </trkpt>
      <trkpt lat="43.92686" lon="6.53317">
        <ele>875.59997558594</ele>
        <time>2022-08-21T15:18:28Z</time>
      </trkpt>
      <trkpt lat="43.92726" lon="6.53305">
        <ele>874.40002441406</ele>
        <time>2022-08-21T15:18:32Z</time>
      </trkpt>
      <trkpt lat="43.92756" lon="6.53297">
        <ele>874.20001220703</ele>
        <time>2022-08-21T15:18:35Z</time>
      </trkpt>
      <trkpt lat="43.92811" lon="6.53279">
        <ele>875</ele>
        <time>2022-08-21T15:18:41Z</time>
      </trkpt>
      <trkpt lat="43.9282" lon="6.53275">
        <ele>875</ele>
        <time>2022-08-21T15:18:42Z</time>
      </trkpt>
      <trkpt lat="43.92858" lon="6.53245">
        <ele>873.40002441406</ele>
        <time>2022-08-21T15:18:47Z</time>
      </trkpt>
      <trkpt lat="43.92866" lon="6.5324">
        <ele>873.40002441406</ele>
        <time>2022-08-21T15:18:48Z</time>
      </trkpt>
      <trkpt lat="43.92891" lon="6.53228">
        <ele>873.40002441406</ele>
        <time>2022-08-21T15:18:51Z</time>
      </trkpt>
      <trkpt lat="43.92925" lon="6.53222">
        <ele>873.79998779297</ele>
        <time>2022-08-21T15:18:55Z</time>
      </trkpt>
      <trkpt lat="43.92942" lon="6.53219">
        <ele>874</ele>
        <time>2022-08-21T15:18:57Z</time>
      </trkpt>
      <trkpt lat="43.93001" lon="6.53211">
        <ele>874</ele>
        <time>2022-08-21T15:19:04Z</time>
      </trkpt>
      <trkpt lat="43.93032" lon="6.53205">
        <ele>874</ele>
        <time>2022-08-21T15:19:08Z</time>
      </trkpt>
      <trkpt lat="43.93068" lon="6.53187">
        <ele>874</ele>
        <time>2022-08-21T15:19:13Z</time>
      </trkpt>
      <trkpt lat="43.93123" lon="6.53158">
        <ele>873.59997558594</ele>
        <time>2022-08-21T15:19:21Z</time>
      </trkpt>
      <trkpt lat="43.93152" lon="6.53153">
        <ele>874.40002441406</ele>
        <time>2022-08-21T15:19:25Z</time>
      </trkpt>
      <trkpt lat="43.93166" lon="6.53151">
        <ele>874.79998779297</ele>
        <time>2022-08-21T15:19:27Z</time>
      </trkpt>
      <trkpt lat="43.93212" lon="6.53136">
        <ele>875</ele>
        <time>2022-08-21T15:19:34Z</time>
      </trkpt>
      <trkpt lat="43.93269" lon="6.53114">
        <ele>873.79998779297</ele>
        <time>2022-08-21T15:19:43Z</time>
      </trkpt>
      <trkpt lat="43.93282" lon="6.53111">
        <ele>873.40002441406</ele>
        <time>2022-08-21T15:19:45Z</time>
      </trkpt>
      <trkpt lat="43.93313" lon="6.5311">
        <ele>873.40002441406</ele>
        <time>2022-08-21T15:19:50Z</time>
      </trkpt>
      <trkpt lat="43.93348" lon="6.53112">
        <ele>874</ele>
        <time>2022-08-21T15:19:56Z</time>
      </trkpt>
      <trkpt lat="43.93367" lon="6.53116">
        <ele>873.79998779297</ele>
        <time>2022-08-21T15:19:59Z</time>
      </trkpt>
      <trkpt lat="43.93384" lon="6.53121">
        <ele>873.40002441406</ele>
        <time>2022-08-21T15:20:02Z</time>
      </trkpt>
      <trkpt lat="43.93409" lon="6.53136">
        <ele>873.59997558594</ele>
        <time>2022-08-21T15:20:08Z</time>
      </trkpt>
      <trkpt lat="43.93552" lon="6.53174">
        <ele>874.40002441406</ele>
        <time>2022-08-21T15:20:30Z</time>
      </trkpt>
      <trkpt lat="43.93558" lon="6.53176">
        <ele>874.40002441406</ele>
        <time>2022-08-21T15:20:31Z</time>
      </trkpt>
      <trkpt lat="43.93573" lon="6.53179">
        <ele>874.59997558594</ele>
        <time>2022-08-21T15:20:34Z</time>
      </trkpt>
      <trkpt lat="43.93579" lon="6.5318">
        <ele>874.59997558594</ele>
        <time>2022-08-21T15:20:35Z</time>
      </trkpt>
      <trkpt lat="43.93583" lon="6.53178">
        <ele>874.59997558594</ele>
        <time>2022-08-21T15:20:36Z</time>
      </trkpt>
      <trkpt lat="43.93592" lon="6.53172">
        <ele>874.79998779297</ele>
        <time>2022-08-21T15:20:38Z</time>
      </trkpt>
      <trkpt lat="43.936" lon="6.5316">
        <ele>874.79998779297</ele>
        <time>2022-08-21T15:20:40Z</time>
      </trkpt>
      <trkpt lat="43.93608" lon="6.53148">
        <ele>874.79998779297</ele>
        <time>2022-08-21T15:20:42Z</time>
      </trkpt>
      <trkpt lat="43.93631" lon="6.53111">
        <ele>875.20001220703</ele>
        <time>2022-08-21T15:20:48Z</time>
      </trkpt>
      <trkpt lat="43.93636" lon="6.53108">
        <ele>875.20001220703</ele>
        <time>2022-08-21T15:20:49Z</time>
      </trkpt>
      <trkpt lat="43.93652" lon="6.53101">
        <ele>875.40002441406</ele>
        <time>2022-08-21T15:20:52Z</time>
      </trkpt>
      <trkpt lat="43.93669" lon="6.53091">
        <ele>875.79998779297</ele>
        <time>2022-08-21T15:20:55Z</time>
      </trkpt>
      <trkpt lat="43.93693" lon="6.53065">
        <ele>875.79998779297</ele>
        <time>2022-08-21T15:21:00Z</time>
      </trkpt>
      <trkpt lat="43.93697" lon="6.53059">
        <ele>875.79998779297</ele>
        <time>2022-08-21T15:21:01Z</time>
      </trkpt>
      <trkpt lat="43.93702" lon="6.53053">
        <ele>875.59997558594</ele>
        <time>2022-08-21T15:21:02Z</time>
      </trkpt>
      <trkpt lat="43.9375" lon="6.53002">
        <ele>875.40002441406</ele>
        <time>2022-08-21T15:21:23Z</time>
      </trkpt>
      <trkpt lat="43.93763" lon="6.52984">
        <ele>875.40002441406</ele>
        <time>2022-08-21T15:21:24Z</time>
      </trkpt>
      <trkpt lat="43.93777" lon="6.5296">
        <ele>875.59997558594</ele>
        <time>2022-08-21T15:21:25Z</time>
      </trkpt>
      <trkpt lat="43.93816" lon="6.52891">
        <ele>876</ele>
        <time>2022-08-21T15:21:27Z</time>
      </trkpt>
      <trkpt lat="43.9382" lon="6.52874">
        <ele>876</ele>
        <time>2022-08-21T15:21:29Z</time>
      </trkpt>
      <trkpt lat="43.93821" lon="6.52858">
        <ele>876</ele>
        <time>2022-08-21T15:21:31Z</time>
      </trkpt>
      <trkpt lat="43.93818" lon="6.5279">
        <ele>876.20001220703</ele>
        <time>2022-08-21T15:21:39Z</time>
      </trkpt>
      <trkpt lat="43.93817" lon="6.52774">
        <ele>876.40002441406</ele>
        <time>2022-08-21T15:21:41Z</time>
      </trkpt>
      <trkpt lat="43.93815" lon="6.52703">
        <ele>876.59997558594</ele>
        <time>2022-08-21T15:21:50Z</time>
      </trkpt>
      <trkpt lat="43.93816" lon="6.52683">
        <ele>877.20001220703</ele>
        <time>2022-08-21T15:21:53Z</time>
      </trkpt>
      <trkpt lat="43.93816" lon="6.52671">
        <ele>877.40002441406</ele>
        <time>2022-08-21T15:21:55Z</time>
      </trkpt>
      <trkpt lat="43.93818" lon="6.52666">
        <ele>877.59997558594</ele>
        <time>2022-08-21T15:21:56Z</time>
      </trkpt>
      <trkpt lat="43.93824" lon="6.52639">
        <ele>878.79998779297</ele>
        <time>2022-08-21T15:22:01Z</time>
      </trkpt>
      <trkpt lat="43.93825" lon="6.52628">
        <ele>879.40002441406</ele>
        <time>2022-08-21T15:22:03Z</time>
      </trkpt>
      <trkpt lat="43.93826" lon="6.52618">
        <ele>879.79998779297</ele>
        <time>2022-08-21T15:22:05Z</time>
      </trkpt>
      <trkpt lat="43.93825" lon="6.52603">
        <ele>880.79998779297</ele>
        <time>2022-08-21T15:22:08Z</time>
      </trkpt>
      <trkpt lat="43.93826" lon="6.52598">
        <ele>881</ele>
        <time>2022-08-21T15:22:09Z</time>
      </trkpt>
      <trkpt lat="43.93825" lon="6.52561">
        <ele>881.79998779297</ele>
        <time>2022-08-21T15:22:16Z</time>
      </trkpt>
      <trkpt lat="43.93826" lon="6.52551">
        <ele>882</ele>
        <time>2022-08-21T15:22:18Z</time>
      </trkpt>
      <trkpt lat="43.93827" lon="6.52535">
        <ele>882.40002441406</ele>
        <time>2022-08-21T15:22:21Z</time>
      </trkpt>
      <trkpt lat="43.93834" lon="6.52491">
        <ele>882.79998779297</ele>
        <time>2022-08-21T15:22:28Z</time>
      </trkpt>
      <trkpt lat="43.93851" lon="6.52449">
        <ele>882.40002441406</ele>
        <time>2022-08-21T15:22:34Z</time>
      </trkpt>
      <trkpt lat="43.93871" lon="6.52417">
        <ele>882.40002441406</ele>
        <time>2022-08-21T15:22:39Z</time>
      </trkpt>
      <trkpt lat="43.93895" lon="6.52374">
        <ele>882</ele>
        <time>2022-08-21T15:22:45Z</time>
      </trkpt>
      <trkpt lat="43.93899" lon="6.52366">
        <ele>882</ele>
        <time>2022-08-21T15:22:46Z</time>
      </trkpt>
      <trkpt lat="43.93929" lon="6.52314">
        <ele>881.40002441406</ele>
        <time>2022-08-21T15:22:53Z</time>
      </trkpt>
      <trkpt lat="43.93946" lon="6.52295">
        <ele>881.40002441406</ele>
        <time>2022-08-21T15:22:56Z</time>
      </trkpt>
      <trkpt lat="43.93968" lon="6.52273">
        <ele>881.40002441406</ele>
        <time>2022-08-21T15:23:00Z</time>
      </trkpt>
      <trkpt lat="43.94006" lon="6.52229">
        <ele>881</ele>
        <time>2022-08-21T15:23:07Z</time>
      </trkpt>
      <trkpt lat="43.94011" lon="6.52221">
        <ele>881</ele>
        <time>2022-08-21T15:23:08Z</time>
      </trkpt>
      <trkpt lat="43.94049" lon="6.52173">
        <ele>880.20001220703</ele>
        <time>2022-08-21T15:23:15Z</time>
      </trkpt>
      <trkpt lat="43.94067" lon="6.52156">
        <ele>880</ele>
        <time>2022-08-21T15:23:18Z</time>
      </trkpt>
      <trkpt lat="43.94085" lon="6.5214">
        <ele>880</ele>
        <time>2022-08-21T15:23:21Z</time>
      </trkpt>
      <trkpt lat="43.94108" lon="6.52115">
        <ele>880</ele>
        <time>2022-08-21T15:23:25Z</time>
      </trkpt>
      <trkpt lat="43.94118" lon="6.52098">
        <ele>879.79998779297</ele>
        <time>2022-08-21T15:23:27Z</time>
      </trkpt>
      <trkpt lat="43.94124" lon="6.52081">
        <ele>879.59997558594</ele>
        <time>2022-08-21T15:23:29Z</time>
      </trkpt>
      <trkpt lat="43.94129" lon="6.52063">
        <ele>879.40002441406</ele>
        <time>2022-08-21T15:23:31Z</time>
      </trkpt>
      <trkpt lat="43.94131" lon="6.52053">
        <ele>879.20001220703</ele>
        <time>2022-08-21T15:23:32Z</time>
      </trkpt>
      <trkpt lat="43.94134" lon="6.52033">
        <ele>878.79998779297</ele>
        <time>2022-08-21T15:23:34Z</time>
      </trkpt>
      <trkpt lat="43.9414" lon="6.51983">
        <ele>878.59997558594</ele>
        <time>2022-08-21T15:23:39Z</time>
      </trkpt>
      <trkpt lat="43.94152" lon="6.51904">
        <ele>878</ele>
        <time>2022-08-21T15:23:47Z</time>
      </trkpt>
      <trkpt lat="43.94155" lon="6.51895">
        <ele>878</ele>
        <time>2022-08-21T15:23:48Z</time>
      </trkpt>
      <trkpt lat="43.94157" lon="6.51885">
        <ele>877.79998779297</ele>
        <time>2022-08-21T15:23:49Z</time>
      </trkpt>
      <trkpt lat="43.94178" lon="6.51835">
        <ele>878</ele>
        <time>2022-08-21T15:23:55Z</time>
      </trkpt>
      <trkpt lat="43.94204" lon="6.51791">
        <ele>878.40002441406</ele>
        <time>2022-08-21T15:24:01Z</time>
      </trkpt>
      <trkpt lat="43.94214" lon="6.51777">
        <ele>878.20001220703</ele>
        <time>2022-08-21T15:24:03Z</time>
      </trkpt>
      <trkpt lat="43.9423" lon="6.51759">
        <ele>878.40002441406</ele>
        <time>2022-08-21T15:24:06Z</time>
      </trkpt>
      <trkpt lat="43.94236" lon="6.51754">
        <ele>878.40002441406</ele>
        <time>2022-08-21T15:24:07Z</time>
      </trkpt>
      <trkpt lat="43.94277" lon="6.51721">
        <ele>878.40002441406</ele>
        <time>2022-08-21T15:24:14Z</time>
      </trkpt>
      <trkpt lat="43.94327" lon="6.5169">
        <ele>878</ele>
        <time>2022-08-21T15:24:23Z</time>
      </trkpt>
      <trkpt lat="43.94377" lon="6.51655">
        <ele>878.59997558594</ele>
        <time>2022-08-21T15:24:32Z</time>
      </trkpt>
      <trkpt lat="43.94388" lon="6.51647">
        <ele>879</ele>
        <time>2022-08-21T15:24:34Z</time>
      </trkpt>
      <trkpt lat="43.94424" lon="6.5162">
        <ele>879</ele>
        <time>2022-08-21T15:24:41Z</time>
      </trkpt>
      <trkpt lat="43.9447" lon="6.51588">
        <ele>880</ele>
        <time>2022-08-21T15:24:50Z</time>
      </trkpt>
      <trkpt lat="43.94522" lon="6.51554">
        <ele>880.20001220703</ele>
        <time>2022-08-21T15:25:00Z</time>
      </trkpt>
      <trkpt lat="43.94531" lon="6.51548">
        <ele>880.40002441406</ele>
        <time>2022-08-21T15:25:02Z</time>
      </trkpt>
      <trkpt lat="43.94556" lon="6.51531">
        <ele>881</ele>
        <time>2022-08-21T15:25:08Z</time>
      </trkpt>
      <trkpt lat="43.94572" lon="6.5152">
        <ele>881.79998779297</ele>
        <time>2022-08-21T15:25:12Z</time>
      </trkpt>
      <trkpt lat="43.94584" lon="6.51512">
        <ele>882.20001220703</ele>
        <time>2022-08-21T15:25:15Z</time>
      </trkpt>
      <trkpt lat="43.946" lon="6.51502">
        <ele>883</ele>
        <time>2022-08-21T15:25:19Z</time>
      </trkpt>
      <trkpt lat="43.94613" lon="6.51494">
        <ele>883.20001220703</ele>
        <time>2022-08-21T15:25:22Z</time>
      </trkpt>
      <trkpt lat="43.94621" lon="6.51488">
        <ele>883.79998779297</ele>
        <time>2022-08-21T15:25:24Z</time>
      </trkpt>
      <trkpt lat="43.94636" lon="6.51477">
        <ele>884.40002441406</ele>
        <time>2022-08-21T15:25:28Z</time>
      </trkpt>
      <trkpt lat="43.94663" lon="6.51458">
        <ele>885.40002441406</ele>
        <time>2022-08-21T15:25:35Z</time>
      </trkpt>
      <trkpt lat="43.94667" lon="6.51455">
        <ele>885.59997558594</ele>
        <time>2022-08-21T15:25:36Z</time>
      </trkpt>
      <trkpt lat="43.94671" lon="6.51452">
        <ele>885.59997558594</ele>
        <time>2022-08-21T15:25:37Z</time>
      </trkpt>
      <trkpt lat="43.94688" lon="6.51436">
        <ele>886.40002441406</ele>
        <time>2022-08-21T15:25:42Z</time>
      </trkpt>
      <trkpt lat="43.94691" lon="6.51432">
        <ele>886.59997558594</ele>
        <time>2022-08-21T15:25:43Z</time>
      </trkpt>
      <trkpt lat="43.94699" lon="6.51421">
        <ele>887</ele>
        <time>2022-08-21T15:25:46Z</time>
      </trkpt>
      <trkpt lat="43.94707" lon="6.51409">
        <ele>887.59997558594</ele>
        <time>2022-08-21T15:25:49Z</time>
      </trkpt>
      <trkpt lat="43.94717" lon="6.51389">
        <ele>888.20001220703</ele>
        <time>2022-08-21T15:25:53Z</time>
      </trkpt>
      <trkpt lat="43.94734" lon="6.51347">
        <ele>888.79998779297</ele>
        <time>2022-08-21T15:26:01Z</time>
      </trkpt>
      <trkpt lat="43.94736" lon="6.51342">
        <ele>888.79998779297</ele>
        <time>2022-08-21T15:26:02Z</time>
      </trkpt>
      <trkpt lat="43.94746" lon="6.51317">
        <ele>889.40002441406</ele>
        <time>2022-08-21T15:26:07Z</time>
      </trkpt>
      <trkpt lat="43.94749" lon="6.51308">
        <ele>889.79998779297</ele>
        <time>2022-08-21T15:26:09Z</time>
      </trkpt>
      <trkpt lat="43.94753" lon="6.51298">
        <ele>890.20001220703</ele>
        <time>2022-08-21T15:26:11Z</time>
      </trkpt>
      <trkpt lat="43.94769" lon="6.51263">
        <ele>890.79998779297</ele>
        <time>2022-08-21T15:26:18Z</time>
      </trkpt>
      <trkpt lat="43.94772" lon="6.51259">
        <ele>891</ele>
        <time>2022-08-21T15:26:19Z</time>
      </trkpt>
      <trkpt lat="43.94784" lon="6.51252">
        <ele>891.40002441406</ele>
        <time>2022-08-21T15:26:22Z</time>
      </trkpt>
      <trkpt lat="43.94796" lon="6.51247">
        <ele>891.59997558594</ele>
        <time>2022-08-21T15:26:25Z</time>
      </trkpt>
      <trkpt lat="43.94808" lon="6.51247">
        <ele>892</ele>
        <time>2022-08-21T15:26:28Z</time>
      </trkpt>
      <trkpt lat="43.9482" lon="6.5125">
        <ele>892.59997558594</ele>
        <time>2022-08-21T15:26:31Z</time>
      </trkpt>
      <trkpt lat="43.94832" lon="6.51253">
        <ele>893.20001220703</ele>
        <time>2022-08-21T15:26:34Z</time>
      </trkpt>
      <trkpt lat="43.94851" lon="6.51258">
        <ele>894</ele>
        <time>2022-08-21T15:26:39Z</time>
      </trkpt>
      <trkpt lat="43.94856" lon="6.51258">
        <ele>894.20001220703</ele>
        <time>2022-08-21T15:26:40Z</time>
      </trkpt>
      <trkpt lat="43.9486" lon="6.51259">
        <ele>894.40002441406</ele>
        <time>2022-08-21T15:26:41Z</time>
      </trkpt>
      <trkpt lat="43.94882" lon="6.51265">
        <ele>895.20001220703</ele>
        <time>2022-08-21T15:26:47Z</time>
      </trkpt>
      <trkpt lat="43.9491" lon="6.51269">
        <ele>896.20001220703</ele>
        <time>2022-08-21T15:26:54Z</time>
      </trkpt>
      <trkpt lat="43.94914" lon="6.5127">
        <ele>896.20001220703</ele>
        <time>2022-08-21T15:26:55Z</time>
      </trkpt>
      <trkpt lat="43.94933" lon="6.51268">
        <ele>897.20001220703</ele>
        <time>2022-08-21T15:27:00Z</time>
      </trkpt>
      <trkpt lat="43.94941" lon="6.51264">
        <ele>897.40002441406</ele>
        <time>2022-08-21T15:27:02Z</time>
      </trkpt>
      <trkpt lat="43.94954" lon="6.51251">
        <ele>898</ele>
        <time>2022-08-21T15:27:06Z</time>
      </trkpt>
      <trkpt lat="43.94965" lon="6.51227">
        <ele>898.59997558594</ele>
        <time>2022-08-21T15:27:11Z</time>
      </trkpt>
      <trkpt lat="43.94967" lon="6.51221">
        <ele>898.79998779297</ele>
        <time>2022-08-21T15:27:12Z</time>
      </trkpt>
      <trkpt lat="43.94979" lon="6.51183">
        <ele>899.20001220703</ele>
        <time>2022-08-21T15:27:19Z</time>
      </trkpt>
      <trkpt lat="43.9499" lon="6.51167">
        <ele>899.59997558594</ele>
        <time>2022-08-21T15:27:23Z</time>
      </trkpt>
      <trkpt lat="43.94993" lon="6.51164">
        <ele>899.59997558594</ele>
        <time>2022-08-21T15:27:24Z</time>
      </trkpt>
      <trkpt lat="43.94999" lon="6.51158">
        <ele>900</ele>
        <time>2022-08-21T15:27:26Z</time>
      </trkpt>
      <trkpt lat="43.95011" lon="6.51151">
        <ele>900.79998779297</ele>
        <time>2022-08-21T15:27:30Z</time>
      </trkpt>
      <trkpt lat="43.95017" lon="6.51148">
        <ele>901.20001220703</ele>
        <time>2022-08-21T15:27:32Z</time>
      </trkpt>
      <trkpt lat="43.95031" lon="6.51142">
        <ele>902</ele>
        <time>2022-08-21T15:27:36Z</time>
      </trkpt>
      <trkpt lat="43.95045" lon="6.51137">
        <ele>902.40002441406</ele>
        <time>2022-08-21T15:27:40Z</time>
      </trkpt>
      <trkpt lat="43.95073" lon="6.5113">
        <ele>902.59997558594</ele>
        <time>2022-08-21T15:27:48Z</time>
      </trkpt>
      <trkpt lat="43.95097" lon="6.51123">
        <ele>903.20001220703</ele>
        <time>2022-08-21T15:27:55Z</time>
      </trkpt>
      <trkpt lat="43.95101" lon="6.51122">
        <ele>903.59997558594</ele>
        <time>2022-08-21T15:27:56Z</time>
      </trkpt>
      <trkpt lat="43.95117" lon="6.51117">
        <ele>904.40002441406</ele>
        <time>2022-08-21T15:28:01Z</time>
      </trkpt>
      <trkpt lat="43.95129" lon="6.51112">
        <ele>904.79998779297</ele>
        <time>2022-08-21T15:28:05Z</time>
      </trkpt>
      <trkpt lat="43.95144" lon="6.51106">
        <ele>905.40002441406</ele>
        <time>2022-08-21T15:28:10Z</time>
      </trkpt>
      <trkpt lat="43.95147" lon="6.51105">
        <ele>905.40002441406</ele>
        <time>2022-08-21T15:28:11Z</time>
      </trkpt>
      <trkpt lat="43.95172" lon="6.51095">
        <ele>904.79998779297</ele>
        <time>2022-08-21T15:28:18Z</time>
      </trkpt>
      <trkpt lat="43.95182" lon="6.51091">
        <ele>904</ele>
        <time>2022-08-21T15:28:20Z</time>
      </trkpt>
      <trkpt lat="43.95199" lon="6.51084">
        <ele>903</ele>
        <time>2022-08-21T15:28:23Z</time>
      </trkpt>
      <trkpt lat="43.95218" lon="6.51071">
        <ele>902</ele>
        <time>2022-08-21T15:28:26Z</time>
      </trkpt>
      <trkpt lat="43.95224" lon="6.51066">
        <ele>902</ele>
        <time>2022-08-21T15:28:27Z</time>
      </trkpt>
      <trkpt lat="43.95236" lon="6.51052">
        <ele>901.79998779297</ele>
        <time>2022-08-21T15:28:29Z</time>
      </trkpt>
      <trkpt lat="43.95248" lon="6.51036">
        <ele>900.79998779297</ele>
        <time>2022-08-21T15:28:31Z</time>
      </trkpt>
      <trkpt lat="43.95254" lon="6.51027">
        <ele>899.59997558594</ele>
        <time>2022-08-21T15:28:32Z</time>
      </trkpt>
      <trkpt lat="43.95261" lon="6.5102">
        <ele>898.59997558594</ele>
        <time>2022-08-21T15:28:33Z</time>
      </trkpt>
      <trkpt lat="43.95278" lon="6.51007">
        <ele>897.40002441406</ele>
        <time>2022-08-21T15:28:35Z</time>
      </trkpt>
      <trkpt lat="43.95306" lon="6.50994">
        <ele>895.79998779297</ele>
        <time>2022-08-21T15:28:38Z</time>
      </trkpt>
      <trkpt lat="43.95326" lon="6.50991">
        <ele>894.20001220703</ele>
        <time>2022-08-21T15:28:40Z</time>
      </trkpt>
      <trkpt lat="43.95347" lon="6.50988">
        <ele>893.20001220703</ele>
        <time>2022-08-21T15:28:42Z</time>
      </trkpt>
      <trkpt lat="43.95368" lon="6.50979">
        <ele>891.79998779297</ele>
        <time>2022-08-21T15:28:44Z</time>
      </trkpt>
      <trkpt lat="43.95397" lon="6.50958">
        <ele>890.40002441406</ele>
        <time>2022-08-21T15:28:47Z</time>
      </trkpt>
      <trkpt lat="43.95406" lon="6.5095">
        <ele>889.79998779297</ele>
        <time>2022-08-21T15:28:48Z</time>
      </trkpt>
      <trkpt lat="43.95416" lon="6.50942">
        <ele>889.20001220703</ele>
        <time>2022-08-21T15:28:49Z</time>
      </trkpt>
      <trkpt lat="43.95434" lon="6.50926">
        <ele>888.20001220703</ele>
        <time>2022-08-21T15:28:51Z</time>
      </trkpt>
      <trkpt lat="43.95454" lon="6.50911">
        <ele>886.59997558594</ele>
        <time>2022-08-21T15:28:53Z</time>
      </trkpt>
      <trkpt lat="43.95464" lon="6.50905">
        <ele>886</ele>
        <time>2022-08-21T15:28:54Z</time>
      </trkpt>
      <trkpt lat="43.95475" lon="6.50899">
        <ele>885.20001220703</ele>
        <time>2022-08-21T15:28:55Z</time>
      </trkpt>
      <trkpt lat="43.95497" lon="6.5089">
        <ele>883.40002441406</ele>
        <time>2022-08-21T15:28:57Z</time>
      </trkpt>
      <trkpt lat="43.95519" lon="6.50882">
        <ele>881.59997558594</ele>
        <time>2022-08-21T15:28:59Z</time>
      </trkpt>
      <trkpt lat="43.9554" lon="6.50873">
        <ele>880.20001220703</ele>
        <time>2022-08-21T15:29:01Z</time>
      </trkpt>
      <trkpt lat="43.95549" lon="6.50867">
        <ele>879.79998779297</ele>
        <time>2022-08-21T15:29:02Z</time>
      </trkpt>
      <trkpt lat="43.95558" lon="6.50859">
        <ele>879.59997558594</ele>
        <time>2022-08-21T15:29:03Z</time>
      </trkpt>
      <trkpt lat="43.95594" lon="6.50818">
        <ele>879.59997558594</ele>
        <time>2022-08-21T15:29:08Z</time>
      </trkpt>
      <trkpt lat="43.95635" lon="6.50777">
        <ele>880</ele>
        <time>2022-08-21T15:29:14Z</time>
      </trkpt>
      <trkpt lat="43.95649" lon="6.50766">
        <ele>880.20001220703</ele>
        <time>2022-08-21T15:29:16Z</time>
      </trkpt>
      <trkpt lat="43.95663" lon="6.50757">
        <ele>880</ele>
        <time>2022-08-21T15:29:18Z</time>
      </trkpt>
      <trkpt lat="43.9567" lon="6.50752">
        <ele>880</ele>
        <time>2022-08-21T15:29:19Z</time>
      </trkpt>
      <trkpt lat="43.95684" lon="6.50743">
        <ele>879.79998779297</ele>
        <time>2022-08-21T15:29:21Z</time>
      </trkpt>
      <trkpt lat="43.9571" lon="6.50726">
        <ele>880.20001220703</ele>
        <time>2022-08-21T15:29:25Z</time>
      </trkpt>
      <trkpt lat="43.95728" lon="6.50714">
        <ele>880.79998779297</ele>
        <time>2022-08-21T15:29:28Z</time>
      </trkpt>
      <trkpt lat="43.95757" lon="6.50695">
        <ele>881</ele>
        <time>2022-08-21T15:29:33Z</time>
      </trkpt>
      <trkpt lat="43.95774" lon="6.50685">
        <ele>881</ele>
        <time>2022-08-21T15:29:36Z</time>
      </trkpt>
      <trkpt lat="43.95795" lon="6.50671">
        <ele>881.20001220703</ele>
        <time>2022-08-21T15:29:40Z</time>
      </trkpt>
      <trkpt lat="43.95817" lon="6.50658">
        <ele>881.20001220703</ele>
        <time>2022-08-21T15:29:44Z</time>
      </trkpt>
      <trkpt lat="43.95855" lon="6.50637">
        <ele>881</ele>
        <time>2022-08-21T15:29:51Z</time>
      </trkpt>
      <trkpt lat="43.95892" lon="6.50626">
        <ele>881.40002441406</ele>
        <time>2022-08-21T15:29:57Z</time>
      </trkpt>
      <trkpt lat="43.95947" lon="6.50627">
        <ele>881.79998779297</ele>
        <time>2022-08-21T15:30:06Z</time>
      </trkpt>
      <trkpt lat="43.96001" lon="6.50632">
        <ele>881.59997558594</ele>
        <time>2022-08-21T15:30:15Z</time>
      </trkpt>
      <trkpt lat="43.96013" lon="6.50632">
        <ele>881.59997558594</ele>
        <time>2022-08-21T15:30:17Z</time>
      </trkpt>
      <trkpt lat="43.96032" lon="6.50637">
        <ele>882.40002441406</ele>
        <time>2022-08-21T15:30:20Z</time>
      </trkpt>
      <trkpt lat="43.9605" lon="6.50639">
        <ele>882.59997558594</ele>
        <time>2022-08-21T15:30:23Z</time>
      </trkpt>
      <trkpt lat="43.96105" lon="6.50642">
        <ele>882</ele>
        <time>2022-08-21T15:30:32Z</time>
      </trkpt>
      <trkpt lat="43.96111" lon="6.50642">
        <ele>882</ele>
        <time>2022-08-21T15:30:33Z</time>
      </trkpt>
      <trkpt lat="43.96166" lon="6.50647">
        <ele>882.40002441406</ele>
        <time>2022-08-21T15:30:42Z</time>
      </trkpt>
      <trkpt lat="43.96219" lon="6.50655">
        <ele>882.79998779297</ele>
        <time>2022-08-21T15:30:51Z</time>
      </trkpt>
      <trkpt lat="43.96249" lon="6.50659">
        <ele>883.59997558594</ele>
        <time>2022-08-21T15:30:56Z</time>
      </trkpt>
      <trkpt lat="43.9627" lon="6.50662">
        <ele>884.20001220703</ele>
        <time>2022-08-21T15:31:00Z</time>
      </trkpt>
      <trkpt lat="43.9629" lon="6.50666">
        <ele>884.59997558594</ele>
        <time>2022-08-21T15:31:04Z</time>
      </trkpt>
      <trkpt lat="43.96315" lon="6.50669">
        <ele>885.40002441406</ele>
        <time>2022-08-21T15:31:09Z</time>
      </trkpt>
      <trkpt lat="43.96325" lon="6.5067">
        <ele>885.79998779297</ele>
        <time>2022-08-21T15:31:11Z</time>
      </trkpt>
      <trkpt lat="43.9636" lon="6.50675">
        <ele>886.79998779297</ele>
        <time>2022-08-21T15:31:18Z</time>
      </trkpt>
      <trkpt lat="43.96379" lon="6.50678">
        <ele>887.40002441406</ele>
        <time>2022-08-21T15:31:22Z</time>
      </trkpt>
      <trkpt lat="43.96388" lon="6.50678">
        <ele>887.59997558594</ele>
        <time>2022-08-21T15:31:24Z</time>
      </trkpt>
      <trkpt lat="43.96397" lon="6.50676">
        <ele>887.79998779297</ele>
        <time>2022-08-21T15:31:26Z</time>
      </trkpt>
      <trkpt lat="43.96402" lon="6.50675">
        <ele>888</ele>
        <time>2022-08-21T15:31:27Z</time>
      </trkpt>
      <trkpt lat="43.96421" lon="6.50671">
        <ele>888.40002441406</ele>
        <time>2022-08-21T15:31:31Z</time>
      </trkpt>
      <trkpt lat="43.96431" lon="6.50673">
        <ele>888.40002441406</ele>
        <time>2022-08-21T15:31:33Z</time>
      </trkpt>
      <trkpt lat="43.96436" lon="6.50676">
        <ele>888.40002441406</ele>
        <time>2022-08-21T15:31:34Z</time>
      </trkpt>
      <trkpt lat="43.96448" lon="6.50685">
        <ele>888.40002441406</ele>
        <time>2022-08-21T15:31:37Z</time>
      </trkpt>
      <trkpt lat="43.96458" lon="6.50688">
        <ele>888.40002441406</ele>
        <time>2022-08-21T15:31:39Z</time>
      </trkpt>
      <trkpt lat="43.96463" lon="6.5069">
        <ele>888.40002441406</ele>
        <time>2022-08-21T15:31:40Z</time>
      </trkpt>
      <trkpt lat="43.96471" lon="6.50698">
        <ele>888.59997558594</ele>
        <time>2022-08-21T15:31:42Z</time>
      </trkpt>
      <trkpt lat="43.96474" lon="6.50703">
        <ele>888.59997558594</ele>
        <time>2022-08-21T15:31:43Z</time>
      </trkpt>
      <trkpt lat="43.96482" lon="6.50711">
        <ele>888.40002441406</ele>
        <time>2022-08-21T15:31:45Z</time>
      </trkpt>
      <trkpt lat="43.96495" lon="6.5072">
        <ele>888.20001220703</ele>
        <time>2022-08-21T15:31:48Z</time>
      </trkpt>
      <trkpt lat="43.96516" lon="6.50734">
        <ele>888.20001220703</ele>
        <time>2022-08-21T15:31:53Z</time>
      </trkpt>
      <trkpt lat="43.9653" lon="6.50743">
        <ele>888.20001220703</ele>
        <time>2022-08-21T15:31:56Z</time>
      </trkpt>
      <trkpt lat="43.96547" lon="6.50756">
        <ele>888.40002441406</ele>
        <time>2022-08-21T15:32:00Z</time>
      </trkpt>
      <trkpt lat="43.9657" lon="6.50775">
        <ele>888.40002441406</ele>
        <time>2022-08-21T15:32:05Z</time>
      </trkpt>
      <trkpt lat="43.96573" lon="6.50779">
        <ele>888.40002441406</ele>
        <time>2022-08-21T15:32:06Z</time>
      </trkpt>
      <trkpt lat="43.96587" lon="6.50793">
        <ele>888.40002441406</ele>
        <time>2022-08-21T15:32:10Z</time>
      </trkpt>
      <trkpt lat="43.96598" lon="6.50801">
        <ele>888.40002441406</ele>
        <time>2022-08-21T15:32:13Z</time>
      </trkpt>
      <trkpt lat="43.96624" lon="6.50821">
        <ele>888.79998779297</ele>
        <time>2022-08-21T15:32:20Z</time>
      </trkpt>
      <trkpt lat="43.96636" lon="6.50829">
        <ele>888.79998779297</ele>
        <time>2022-08-21T15:32:23Z</time>
      </trkpt>
      <trkpt lat="43.9664" lon="6.50832">
        <ele>889</ele>
        <time>2022-08-21T15:32:24Z</time>
      </trkpt>
      <trkpt lat="43.96654" lon="6.50843">
        <ele>889</ele>
        <time>2022-08-21T15:32:28Z</time>
      </trkpt>
      <trkpt lat="43.96679" lon="6.50859">
        <ele>889.20001220703</ele>
        <time>2022-08-21T15:32:36Z</time>
      </trkpt>
      <trkpt lat="43.96691" lon="6.50865">
        <ele>889.20001220703</ele>
        <time>2022-08-21T15:32:41Z</time>
      </trkpt>
      <trkpt lat="43.96718" lon="6.50875">
        <ele>889.40002441406</ele>
        <time>2022-08-21T15:32:49Z</time>
      </trkpt>
      <trkpt lat="43.96731" lon="6.50888">
        <ele>889.40002441406</ele>
        <time>2022-08-21T15:32:54Z</time>
      </trkpt>
      <trkpt lat="43.96733" lon="6.50888">
        <ele>889.40002441406</ele>
        <time>2022-08-21T15:32:55Z</time>
      </trkpt>
      <trkpt lat="43.96736" lon="6.50888">
        <ele>889.40002441406</ele>
        <time>2022-08-21T15:32:57Z</time>
      </trkpt>
      <trkpt lat="43.96737" lon="6.50888">
        <ele>889.59997558594</ele>
        <time>2022-08-21T15:32:58Z</time>
      </trkpt>
      <trkpt lat="43.96737" lon="6.50889">
        <ele>889.59997558594</ele>
        <time>2022-08-21T15:33:00Z</time>
      </trkpt>
      <trkpt lat="43.96739" lon="6.5089">
        <ele>889.59997558594</ele>
        <time>2022-08-21T15:33:02Z</time>
      </trkpt>
      <trkpt lat="43.96741" lon="6.50892">
        <ele>889.40002441406</ele>
        <time>2022-08-21T15:33:08Z</time>
      </trkpt>
      <trkpt lat="43.96742" lon="6.50893">
        <ele>889.40002441406</ele>
        <time>2022-08-21T15:33:16Z</time>
      </trkpt>
      <trkpt lat="43.96742" lon="6.50893">
        <ele>889.40002441406</ele>
        <time>2022-08-21T15:33:18Z</time>
      </trkpt>
      <trkpt lat="43.96742" lon="6.50892">
        <ele>889.40002441406</ele>
        <time>2022-08-21T15:33:20Z</time>
      </trkpt>
      <trkpt lat="43.96742" lon="6.50892">
        <ele>889.40002441406</ele>
        <time>2022-08-21T15:33:24Z</time>
      </trkpt>
      <trkpt lat="43.96742" lon="6.50892">
        <ele>889.40002441406</ele>
        <time>2022-08-21T15:33:36Z</time>
      </trkpt>
      <trkpt lat="43.96742" lon="6.50893">
        <ele>889.40002441406</ele>
        <time>2022-08-21T15:33:47Z</time>
      </trkpt>
      <trkpt lat="43.96742" lon="6.50893">
        <ele>889.40002441406</ele>
        <time>2022-08-21T15:33:50Z</time>
      </trkpt>
      <trkpt lat="43.96742" lon="6.50892">
        <ele>889.40002441406</ele>
        <time>2022-08-21T15:33:53Z</time>
      </trkpt>
      <trkpt lat="43.96742" lon="6.50892">
        <ele>889.40002441406</ele>
        <time>2022-08-21T15:34:02Z</time>
      </trkpt>
      <trkpt lat="43.96742" lon="6.50893">
        <ele>889.40002441406</ele>
        <time>2022-08-21T15:34:14Z</time>
      </trkpt>
      <trkpt lat="43.96742" lon="6.50893">
        <ele>889.40002441406</ele>
        <time>2022-08-21T15:34:25Z</time>
      </trkpt>
      <trkpt lat="43.96742" lon="6.50893">
        <ele>889.40002441406</ele>
        <time>2022-08-21T15:34:32Z</time>
      </trkpt>
      <trkpt lat="43.96741" lon="6.50893">
        <ele>889.40002441406</ele>
        <time>2022-08-21T15:34:37Z</time>
      </trkpt>
      <trkpt lat="43.96741" lon="6.50893">
        <ele>889.40002441406</ele>
        <time>2022-08-21T15:34:46Z</time>
      </trkpt>
      <trkpt lat="43.96742" lon="6.50892">
        <ele>889.40002441406</ele>
        <time>2022-08-21T15:34:58Z</time>
      </trkpt>
      <trkpt lat="43.96742" lon="6.50892">
        <ele>889.40002441406</ele>
        <time>2022-08-21T15:35:00Z</time>
      </trkpt>
      <trkpt lat="43.96742" lon="6.50892">
        <ele>889.40002441406</ele>
        <time>2022-08-21T15:35:05Z</time>
      </trkpt>
      <trkpt lat="43.96742" lon="6.50891">
        <ele>889.40002441406</ele>
        <time>2022-08-21T15:35:08Z</time>
      </trkpt>
      <trkpt lat="43.96742" lon="6.50891">
        <ele>889.40002441406</ele>
        <time>2022-08-21T15:35:11Z</time>
      </trkpt>
      <trkpt lat="43.9674" lon="6.5089">
        <ele>889.40002441406</ele>
        <time>2022-08-21T15:35:23Z</time>
      </trkpt>
      <trkpt lat="43.9674" lon="6.5089">
        <ele>889.40002441406</ele>
        <time>2022-08-21T15:35:25Z</time>
      </trkpt>
      <trkpt lat="43.9674" lon="6.5089">
        <ele>889.40002441406</ele>
        <time>2022-08-21T15:35:27Z</time>
      </trkpt>
      <trkpt lat="43.9674" lon="6.5089">
        <ele>889.40002441406</ele>
        <time>2022-08-21T15:35:29Z</time>
      </trkpt>
      <trkpt lat="43.9674" lon="6.5089">
        <ele>889.40002441406</ele>
        <time>2022-08-21T15:35:30Z</time>
      </trkpt>
      <trkpt lat="43.9674" lon="6.50889">
        <ele>889.40002441406</ele>
        <time>2022-08-21T15:35:36Z</time>
      </trkpt>
      <trkpt lat="43.9674" lon="6.50889">
        <ele>889.40002441406</ele>
        <time>2022-08-21T15:35:38Z</time>
      </trkpt>
      <trkpt lat="43.96739" lon="6.50891">
        <ele>889.40002441406</ele>
        <time>2022-08-21T15:35:50Z</time>
      </trkpt>
      <trkpt lat="43.96739" lon="6.50893">
        <ele>889.40002441406</ele>
        <time>2022-08-21T15:36:03Z</time>
      </trkpt>
      <trkpt lat="43.96739" lon="6.50895">
        <ele>889.40002441406</ele>
        <time>2022-08-21T15:36:16Z</time>
      </trkpt>
      <trkpt lat="43.9674" lon="6.50893">
        <ele>889.40002441406</ele>
        <time>2022-08-21T15:36:23Z</time>
      </trkpt>
      <trkpt lat="43.9674" lon="6.50893">
        <ele>889.40002441406</ele>
        <time>2022-08-21T15:36:28Z</time>
      </trkpt>
      <trkpt lat="43.9674" lon="6.50895">
        <ele>889.40002441406</ele>
        <time>2022-08-21T15:36:32Z</time>
      </trkpt>
      <trkpt lat="43.96746" lon="6.50903">
        <ele>889.40002441406</ele>
        <time>2022-08-21T15:36:38Z</time>
      </trkpt>
      <trkpt lat="43.9675" lon="6.50906">
        <ele>889.40002441406</ele>
        <time>2022-08-21T15:36:40Z</time>
      </trkpt>
      <trkpt lat="43.96754" lon="6.50911">
        <ele>889.40002441406</ele>
        <time>2022-08-21T15:36:43Z</time>
      </trkpt>
      <trkpt lat="43.96757" lon="6.50916">
        <ele>889.40002441406</ele>
        <time>2022-08-21T15:36:46Z</time>
      </trkpt>
      <trkpt lat="43.96761" lon="6.50923">
        <ele>889.59997558594</ele>
        <time>2022-08-21T15:36:50Z</time>
      </trkpt>
      <trkpt lat="43.96762" lon="6.50923">
        <ele>889.79998779297</ele>
        <time>2022-08-21T15:36:51Z</time>
      </trkpt>
      <trkpt lat="43.96765" lon="6.50926">
        <ele>890</ele>
        <time>2022-08-21T15:36:54Z</time>
      </trkpt>
      <trkpt lat="43.9677" lon="6.50932">
        <ele>890.20001220703</ele>
        <time>2022-08-21T15:36:59Z</time>
      </trkpt>
      <trkpt lat="43.96771" lon="6.50933">
        <ele>890.20001220703</ele>
        <time>2022-08-21T15:37:00Z</time>
      </trkpt>
      <trkpt lat="43.96772" lon="6.50932">
        <ele>890.20001220703</ele>
        <time>2022-08-21T15:37:04Z</time>
      </trkpt>
      <trkpt lat="43.96771" lon="6.50931">
        <ele>890.20001220703</ele>
        <time>2022-08-21T15:37:09Z</time>
      </trkpt>
      <trkpt lat="43.96769" lon="6.50929">
        <ele>890.20001220703</ele>
        <time>2022-08-21T15:37:14Z</time>
      </trkpt>
      <trkpt lat="43.96769" lon="6.50928">
        <ele>890.20001220703</ele>
        <time>2022-08-21T15:37:15Z</time>
      </trkpt>
      <trkpt lat="43.9677" lon="6.50925">
        <ele>890.20001220703</ele>
        <time>2022-08-21T15:37:20Z</time>
      </trkpt>
      <trkpt lat="43.9677" lon="6.50923">
        <ele>890.20001220703</ele>
        <time>2022-08-21T15:37:24Z</time>
      </trkpt>
      <trkpt lat="43.96771" lon="6.50921">
        <ele>890.40002441406</ele>
        <time>2022-08-21T15:37:32Z</time>
      </trkpt>
      <trkpt lat="43.96773" lon="6.50924">
        <ele>890.59997558594</ele>
        <time>2022-08-21T15:37:40Z</time>
      </trkpt>
      <trkpt lat="43.96775" lon="6.50926">
        <ele>890.79998779297</ele>
        <time>2022-08-21T15:37:46Z</time>
      </trkpt>
      <trkpt lat="43.96775" lon="6.50926">
        <ele>890.79998779297</ele>
        <time>2022-08-21T15:37:47Z</time>
      </trkpt>
      <trkpt lat="43.96775" lon="6.50925">
        <ele>891</ele>
        <time>2022-08-21T15:37:49Z</time>
      </trkpt>
      <trkpt lat="43.96776" lon="6.50926">
        <ele>891</ele>
        <time>2022-08-21T15:37:54Z</time>
      </trkpt>
      <trkpt lat="43.96776" lon="6.50925">
        <ele>891</ele>
        <time>2022-08-21T15:37:55Z</time>
      </trkpt>
      <trkpt lat="43.96776" lon="6.50925">
        <ele>891.20001220703</ele>
        <time>2022-08-21T15:37:58Z</time>
      </trkpt>
      <trkpt lat="43.96776" lon="6.50925">
        <ele>891.20001220703</ele>
        <time>2022-08-21T15:38:00Z</time>
      </trkpt>
      <trkpt lat="43.96776" lon="6.50924">
        <ele>891.20001220703</ele>
        <time>2022-08-21T15:38:02Z</time>
      </trkpt>
      <trkpt lat="43.96775" lon="6.50925">
        <ele>891.40002441406</ele>
        <time>2022-08-21T15:38:12Z</time>
      </trkpt>
      <trkpt lat="43.96775" lon="6.50926">
        <ele>891.40002441406</ele>
        <time>2022-08-21T15:38:13Z</time>
      </trkpt>
      <trkpt lat="43.96776" lon="6.50931">
        <ele>891.59997558594</ele>
        <time>2022-08-21T15:38:21Z</time>
      </trkpt>
      <trkpt lat="43.96776" lon="6.50932">
        <ele>891.59997558594</ele>
        <time>2022-08-21T15:38:24Z</time>
      </trkpt>
      <trkpt lat="43.96776" lon="6.50933">
        <ele>891.59997558594</ele>
        <time>2022-08-21T15:38:27Z</time>
      </trkpt>
      <trkpt lat="43.96776" lon="6.5093">
        <ele>891.59997558594</ele>
        <time>2022-08-21T15:38:41Z</time>
      </trkpt>
      <trkpt lat="43.96775" lon="6.50929">
        <ele>891.40002441406</ele>
        <time>2022-08-21T15:38:51Z</time>
      </trkpt>
      <trkpt lat="43.96773" lon="6.50926">
        <ele>891.40002441406</ele>
        <time>2022-08-21T15:38:59Z</time>
      </trkpt>
      <trkpt lat="43.96774" lon="6.50926">
        <ele>891.59997558594</ele>
        <time>2022-08-21T15:39:01Z</time>
      </trkpt>
      <trkpt lat="43.96774" lon="6.50926">
        <ele>891.59997558594</ele>
        <time>2022-08-21T15:39:02Z</time>
      </trkpt>
      <trkpt lat="43.96774" lon="6.50926">
        <ele>891.79998779297</ele>
        <time>2022-08-21T15:39:05Z</time>
      </trkpt>
      <trkpt lat="43.96774" lon="6.50927">
        <ele>892</ele>
        <time>2022-08-21T15:39:09Z</time>
      </trkpt>
      <trkpt lat="43.96774" lon="6.50927">
        <ele>892</ele>
        <time>2022-08-21T15:39:10Z</time>
      </trkpt>
      <trkpt lat="43.96774" lon="6.50927">
        <ele>892</ele>
        <time>2022-08-21T15:39:12Z</time>
      </trkpt>
      <trkpt lat="43.96774" lon="6.50926">
        <ele>892</ele>
        <time>2022-08-21T15:39:13Z</time>
      </trkpt>
      <trkpt lat="43.96774" lon="6.50926">
        <ele>892</ele>
        <time>2022-08-21T15:39:14Z</time>
      </trkpt>
      <trkpt lat="43.96774" lon="6.50926">
        <ele>892</ele>
        <time>2022-08-21T15:39:17Z</time>
      </trkpt>
      <trkpt lat="43.96775" lon="6.50928">
        <ele>892</ele>
        <time>2022-08-21T15:39:20Z</time>
      </trkpt>
      <trkpt lat="43.96776" lon="6.50928">
        <ele>892</ele>
        <time>2022-08-21T15:39:21Z</time>
      </trkpt>
      <trkpt lat="43.96775" lon="6.50929">
        <ele>892</ele>
        <time>2022-08-21T15:39:28Z</time>
      </trkpt>
      <trkpt lat="43.96775" lon="6.50929">
        <ele>892</ele>
        <time>2022-08-21T15:39:30Z</time>
      </trkpt>
      <trkpt lat="43.96776" lon="6.50932">
        <ele>892</ele>
        <time>2022-08-21T15:39:40Z</time>
      </trkpt>
      <trkpt lat="43.96776" lon="6.50932">
        <ele>892</ele>
        <time>2022-08-21T15:39:43Z</time>
      </trkpt>
      <trkpt lat="43.96776" lon="6.50932">
        <ele>892</ele>
        <time>2022-08-21T15:39:49Z</time>
      </trkpt>
      <trkpt lat="43.96775" lon="6.50931">
        <ele>892</ele>
        <time>2022-08-21T15:39:55Z</time>
      </trkpt>
      <trkpt lat="43.96775" lon="6.50931">
        <ele>892</ele>
        <time>2022-08-21T15:40:04Z</time>
      </trkpt>
      <trkpt lat="43.96777" lon="6.50933">
        <ele>892</ele>
        <time>2022-08-21T15:40:12Z</time>
      </trkpt>
      <trkpt lat="43.96777" lon="6.50933">
        <ele>892</ele>
        <time>2022-08-21T15:40:21Z</time>
      </trkpt>
      <trkpt lat="43.96778" lon="6.50931">
        <ele>892</ele>
        <time>2022-08-21T15:40:30Z</time>
      </trkpt>
      <trkpt lat="43.96779" lon="6.50932">
        <ele>892</ele>
        <time>2022-08-21T15:40:33Z</time>
      </trkpt>
      <trkpt lat="43.96783" lon="6.50934">
        <ele>892</ele>
        <time>2022-08-21T15:40:38Z</time>
      </trkpt>
      <trkpt lat="43.96785" lon="6.50934">
        <ele>892</ele>
        <time>2022-08-21T15:40:41Z</time>
      </trkpt>
      <trkpt lat="43.96791" lon="6.50934">
        <ele>892</ele>
        <time>2022-08-21T15:40:44Z</time>
      </trkpt>
      <trkpt lat="43.96797" lon="6.50939">
        <ele>892</ele>
        <time>2022-08-21T15:40:47Z</time>
      </trkpt>
      <trkpt lat="43.96815" lon="6.50956">
        <ele>892.59997558594</ele>
        <time>2022-08-21T15:40:56Z</time>
      </trkpt>
      <trkpt lat="43.96833" lon="6.50973">
        <ele>893</ele>
        <time>2022-08-21T15:41:03Z</time>
      </trkpt>
      <trkpt lat="43.96836" lon="6.50975">
        <ele>893</ele>
        <time>2022-08-21T15:41:04Z</time>
      </trkpt>
      <trkpt lat="43.96848" lon="6.50988">
        <ele>893.40002441406</ele>
        <time>2022-08-21T15:41:09Z</time>
      </trkpt>
      <trkpt lat="43.96865" lon="6.51001">
        <ele>893.79998779297</ele>
        <time>2022-08-21T15:41:15Z</time>
      </trkpt>
      <trkpt lat="43.96869" lon="6.51005">
        <ele>894</ele>
        <time>2022-08-21T15:41:17Z</time>
      </trkpt>
      <trkpt lat="43.96892" lon="6.51027">
        <ele>894.59997558594</ele>
        <time>2022-08-21T15:41:26Z</time>
      </trkpt>
      <trkpt lat="43.96895" lon="6.5103">
        <ele>894.79998779297</ele>
        <time>2022-08-21T15:41:27Z</time>
      </trkpt>
      <trkpt lat="43.96907" lon="6.51046">
        <ele>895</ele>
        <time>2022-08-21T15:41:33Z</time>
      </trkpt>
      <trkpt lat="43.96917" lon="6.51061">
        <ele>895.20001220703</ele>
        <time>2022-08-21T15:41:37Z</time>
      </trkpt>
      <trkpt lat="43.9693" lon="6.51073">
        <ele>895.40002441406</ele>
        <time>2022-08-21T15:41:41Z</time>
      </trkpt>
      <trkpt lat="43.96957" lon="6.51086">
        <ele>895.59997558594</ele>
        <time>2022-08-21T15:41:47Z</time>
      </trkpt>
      <trkpt lat="43.96983" lon="6.51092">
        <ele>896.20001220703</ele>
        <time>2022-08-21T15:41:54Z</time>
      </trkpt>
      <trkpt lat="43.96994" lon="6.5109">
        <ele>896.40002441406</ele>
        <time>2022-08-21T15:41:57Z</time>
      </trkpt>
      <trkpt lat="43.9701" lon="6.51091">
        <ele>896.59997558594</ele>
        <time>2022-08-21T15:42:02Z</time>
      </trkpt>
      <trkpt lat="43.97013" lon="6.51091">
        <ele>896.79998779297</ele>
        <time>2022-08-21T15:42:04Z</time>
      </trkpt>
      <trkpt lat="43.97015" lon="6.51091">
        <ele>896.79998779297</ele>
        <time>2022-08-21T15:42:05Z</time>
      </trkpt>
      <trkpt lat="43.97028" lon="6.5109">
        <ele>896.79998779297</ele>
        <time>2022-08-21T15:42:10Z</time>
      </trkpt>
      <trkpt lat="43.97032" lon="6.5109">
        <ele>896.79998779297</ele>
        <time>2022-08-21T15:42:11Z</time>
      </trkpt>
      <trkpt lat="43.97033" lon="6.5109">
        <ele>896.79998779297</ele>
        <time>2022-08-21T15:42:12Z</time>
      </trkpt>
      <trkpt lat="43.97035" lon="6.5109">
        <ele>896.79998779297</ele>
        <time>2022-08-21T15:42:13Z</time>
      </trkpt>
      <trkpt lat="43.97037" lon="6.51088">
        <ele>896.79998779297</ele>
        <time>2022-08-21T15:42:16Z</time>
      </trkpt>
      <trkpt lat="43.97037" lon="6.51081">
        <ele>897</ele>
        <time>2022-08-21T15:42:18Z</time>
      </trkpt>
      <trkpt lat="43.97037" lon="6.51068">
        <ele>897.20001220703</ele>
        <time>2022-08-21T15:42:24Z</time>
      </trkpt>
      <trkpt lat="43.97037" lon="6.51068">
        <ele>897.20001220703</ele>
        <time>2022-08-21T15:42:25Z</time>
      </trkpt>
      <trkpt lat="43.97037" lon="6.51066">
        <ele>897.40002441406</ele>
        <time>2022-08-21T15:42:26Z</time>
      </trkpt>
      <trkpt lat="43.9704" lon="6.51069">
        <ele>897.40002441406</ele>
        <time>2022-08-21T15:42:28Z</time>
      </trkpt>
      <trkpt lat="43.97039" lon="6.51075">
        <ele>897.40002441406</ele>
        <time>2022-08-21T15:42:30Z</time>
      </trkpt>
      <trkpt lat="43.97033" lon="6.51082">
        <ele>897.59997558594</ele>
        <time>2022-08-21T15:42:32Z</time>
      </trkpt>
      <trkpt lat="43.9702" lon="6.51087">
        <ele>897.20001220703</ele>
        <time>2022-08-21T15:42:38Z</time>
      </trkpt>
      <trkpt lat="43.97008" lon="6.51088">
        <ele>897</ele>
        <time>2022-08-21T15:42:43Z</time>
      </trkpt>
      <trkpt lat="43.97008" lon="6.51089">
        <ele>897</ele>
        <time>2022-08-21T15:42:45Z</time>
      </trkpt>
      <trkpt lat="43.97007" lon="6.51091">
        <ele>897</ele>
        <time>2022-08-21T15:42:48Z</time>
      </trkpt>
      <trkpt lat="43.97006" lon="6.5109">
        <ele>897.20001220703</ele>
        <time>2022-08-21T15:42:50Z</time>
      </trkpt>
      <trkpt lat="43.97006" lon="6.51091">
        <ele>897.20001220703</ele>
        <time>2022-08-21T15:42:54Z</time>
      </trkpt>
      <trkpt lat="43.97007" lon="6.51093">
        <ele>897.20001220703</ele>
        <time>2022-08-21T15:43:04Z</time>
      </trkpt>
      <trkpt lat="43.97008" lon="6.51093">
        <ele>897.20001220703</ele>
        <time>2022-08-21T15:43:05Z</time>
      </trkpt>
      <trkpt lat="43.97008" lon="6.51094">
        <ele>897</ele>
        <time>2022-08-21T15:43:10Z</time>
      </trkpt>
      <trkpt lat="43.97007" lon="6.51094">
        <ele>897</ele>
        <time>2022-08-21T15:43:12Z</time>
      </trkpt>
      <trkpt lat="43.97008" lon="6.51095">
        <ele>896.79998779297</ele>
        <time>2022-08-21T15:43:18Z</time>
      </trkpt>
      <trkpt lat="43.97008" lon="6.51095">
        <ele>897</ele>
        <time>2022-08-21T15:43:26Z</time>
      </trkpt>
      <trkpt lat="43.97007" lon="6.51096">
        <ele>896.79998779297</ele>
        <time>2022-08-21T15:43:37Z</time>
      </trkpt>
      <trkpt lat="43.97008" lon="6.51096">
        <ele>896.40002441406</ele>
        <time>2022-08-21T15:43:44Z</time>
      </trkpt>
      <trkpt lat="43.97008" lon="6.51095">
        <ele>896.20001220703</ele>
        <time>2022-08-21T15:43:50Z</time>
      </trkpt>
      <trkpt lat="43.97008" lon="6.51094">
        <ele>896.20001220703</ele>
        <time>2022-08-21T15:43:54Z</time>
      </trkpt>
      <trkpt lat="43.97008" lon="6.51095">
        <ele>896.20001220703</ele>
        <time>2022-08-21T15:43:55Z</time>
      </trkpt>
      <trkpt lat="43.97008" lon="6.51095">
        <ele>896.40002441406</ele>
        <time>2022-08-21T15:43:57Z</time>
      </trkpt>
      <trkpt lat="43.97008" lon="6.51095">
        <ele>896.59997558594</ele>
        <time>2022-08-21T15:43:59Z</time>
      </trkpt>
      <trkpt lat="43.97008" lon="6.51095">
        <ele>896.59997558594</ele>
        <time>2022-08-21T15:44:06Z</time>
      </trkpt>
      <trkpt lat="43.97015" lon="6.51094">
        <ele>896.40002441406</ele>
        <time>2022-08-21T15:44:13Z</time>
      </trkpt>
      <trkpt lat="43.97019" lon="6.51093">
        <ele>896.40002441406</ele>
        <time>2022-08-21T15:44:15Z</time>
      </trkpt>
      <trkpt lat="43.9702" lon="6.51092">
        <ele>896.40002441406</ele>
        <time>2022-08-21T15:44:16Z</time>
      </trkpt>
      <trkpt lat="43.97023" lon="6.51092">
        <ele>896.20001220703</ele>
        <time>2022-08-21T15:44:18Z</time>
      </trkpt>
      <trkpt lat="43.97028" lon="6.51093">
        <ele>896.40002441406</ele>
        <time>2022-08-21T15:44:22Z</time>
      </trkpt>
      <trkpt lat="43.9703" lon="6.51094">
        <ele>896.40002441406</ele>
        <time>2022-08-21T15:44:23Z</time>
      </trkpt>
      <trkpt lat="43.97039" lon="6.51102">
        <ele>896.79998779297</ele>
        <time>2022-08-21T15:44:31Z</time>
      </trkpt>
      <trkpt lat="43.97039" lon="6.51105">
        <ele>896.79998779297</ele>
        <time>2022-08-21T15:44:33Z</time>
      </trkpt>
      <trkpt lat="43.97041" lon="6.51108">
        <ele>896.79998779297</ele>
        <time>2022-08-21T15:44:36Z</time>
      </trkpt>
      <trkpt lat="43.97042" lon="6.51112">
        <ele>896.20001220703</ele>
        <time>2022-08-21T15:44:44Z</time>
      </trkpt>
      <trkpt lat="43.97042" lon="6.5111">
        <ele>896.20001220703</ele>
        <time>2022-08-21T15:44:48Z</time>
      </trkpt>
      <trkpt lat="43.97043" lon="6.51115">
        <ele>896.20001220703</ele>
        <time>2022-08-21T15:44:57Z</time>
      </trkpt>
      <trkpt lat="43.97043" lon="6.51116">
        <ele>896.20001220703</ele>
        <time>2022-08-21T15:45:05Z</time>
      </trkpt>
      <trkpt lat="43.97046" lon="6.51124">
        <ele>896.20001220703</ele>
        <time>2022-08-21T15:45:13Z</time>
      </trkpt>
      <trkpt lat="43.97047" lon="6.51128">
        <ele>896.20001220703</ele>
        <time>2022-08-21T15:45:16Z</time>
      </trkpt>
      <trkpt lat="43.97048" lon="6.51131">
        <ele>896.20001220703</ele>
        <time>2022-08-21T15:45:19Z</time>
      </trkpt>
      <trkpt lat="43.97047" lon="6.51133">
        <ele>896.59997558594</ele>
        <time>2022-08-21T15:45:22Z</time>
      </trkpt>
      <trkpt lat="43.97047" lon="6.51133">
        <ele>897</ele>
        <time>2022-08-21T15:45:26Z</time>
      </trkpt>
      <trkpt lat="43.97047" lon="6.51134">
        <ele>897</ele>
        <time>2022-08-21T15:45:28Z</time>
      </trkpt>
      <trkpt lat="43.97047" lon="6.51135">
        <ele>896.79998779297</ele>
        <time>2022-08-21T15:45:31Z</time>
      </trkpt>
      <trkpt lat="43.97047" lon="6.51135">
        <ele>896.79998779297</ele>
        <time>2022-08-21T15:45:33Z</time>
      </trkpt>
      <trkpt lat="43.97048" lon="6.51138">
        <ele>897.20001220703</ele>
        <time>2022-08-21T15:45:39Z</time>
      </trkpt>
      <trkpt lat="43.97049" lon="6.51143">
        <ele>897.59997558594</ele>
        <time>2022-08-21T15:45:43Z</time>
      </trkpt>
      <trkpt lat="43.9705" lon="6.51152">
        <ele>897.40002441406</ele>
        <time>2022-08-21T15:45:50Z</time>
      </trkpt>
      <trkpt lat="43.97053" lon="6.51159">
        <ele>897.59997558594</ele>
        <time>2022-08-21T15:45:57Z</time>
      </trkpt>
      <trkpt lat="43.97053" lon="6.5116">
        <ele>897.59997558594</ele>
        <time>2022-08-21T15:45:58Z</time>
      </trkpt>
      <trkpt lat="43.97053" lon="6.51163">
        <ele>897.40002441406</ele>
        <time>2022-08-21T15:46:00Z</time>
      </trkpt>
      <trkpt lat="43.97054" lon="6.51166">
        <ele>897.40002441406</ele>
        <time>2022-08-21T15:46:03Z</time>
      </trkpt>
      <trkpt lat="43.97057" lon="6.51172">
        <ele>897.40002441406</ele>
        <time>2022-08-21T15:46:08Z</time>
      </trkpt>
      <trkpt lat="43.97058" lon="6.51175">
        <ele>897.40002441406</ele>
        <time>2022-08-21T15:46:10Z</time>
      </trkpt>
    </trkseg>
  </trk>
</gpx>